<?xml version='1.0' encoding='UTF-8'?><gpx version="1.1" creator="JPX - https://github.com/jenetics/jpx" xmlns="http://www.topografix.com/GPX/1/1"><trk><trkseg><trkpt lat="42.762849637286784" lon="10.359134274869513"><ele>12.0</ele><time>2026-04-19T07:16:28.999Z</time></trkpt><trkpt lat="42.76280373980532" lon="10.359025031267278"><ele>12.0</ele><time>2026-04-19T07:16:31.999Z</time></trkpt><trkpt lat="42.7627425167219" lon="10.358875402991979"><ele>12.0</ele><time>2026-04-19T07:16:33.999Z</time></trkpt><trkpt lat="42.76272346919152" lon="10.358772945986352"><ele>12.0</ele><time>2026-04-19T07:16:34.999Z</time></trkpt><trkpt lat="42.76271438998233" lon="10.358647002608144"><ele>12.0</ele><time>2026-04-19T07:16:35.999Z</time></trkpt><trkpt lat="42.76268375395743" lon="10.358512959078041"><ele>12.0</ele><time>2026-04-19T07:16:36.999Z</time></trkpt><trkpt lat="42.76267225265953" lon="10.358347166108434"><ele>12.0</ele><time>2026-04-19T07:16:37.999Z</time></trkpt><trkpt lat="42.76267650227867" lon="10.358178173994569"><ele>12.0</ele><time>2026-04-19T07:16:38.999Z</time></trkpt><trkpt lat="42.76266538853686" lon="10.357997051913035"><ele>12.0</ele><time>2026-04-19T07:16:39.999Z</time></trkpt><trkpt lat="42.76265903561866" lon="10.357824500004122"><ele>11.666666666666666</ele><time>2026-04-19T07:16:40.999Z</time></trkpt><trkpt lat="42.76265383291002" lon="10.357687226598582"><ele>11.333333333333334</ele><time>2026-04-19T07:16:41.999Z</time></trkpt><trkpt lat="42.762639653818766" lon="10.357567298059326"><ele>11.0</ele><time>2026-04-19T07:16:42.999Z</time></trkpt><trkpt lat="42.762635911759894" lon="10.357463665413174"><ele>10.666666666666668</ele><time>2026-04-19T07:16:43.999Z</time></trkpt><trkpt lat="42.762640291294964" lon="10.357376423125329"><ele>10.333333333333334</ele><time>2026-04-19T07:16:44.999Z</time></trkpt><trkpt lat="42.762667338021046" lon="10.357293636342336"><ele>10.0</ele><time>2026-04-19T07:16:45.999Z</time></trkpt><trkpt lat="42.762716825575865" lon="10.357219219612071"><ele>9.5</ele><time>2026-04-19T07:16:46.999Z</time></trkpt><trkpt lat="42.76277578735106" lon="10.357161066556133"><ele>9.0</ele><time>2026-04-19T07:16:47.999Z</time></trkpt><trkpt lat="42.76287101127123" lon="10.357069104369042"><ele>8.5</ele><time>2026-04-19T07:16:49.999Z</time></trkpt><trkpt lat="42.76294990268506" lon="10.357001610625664"><ele>8.0</ele><time>2026-04-19T07:16:51.999Z</time></trkpt><trkpt lat="42.76299142964813" lon="10.356926776259852"><ele>7.500000000000001</ele><time>2026-04-19T07:16:53.999Z</time></trkpt><trkpt lat="42.76301712848733" lon="10.356830936449859"><ele>7.0</ele><time>2026-04-19T07:16:55.999Z</time></trkpt><trkpt lat="42.763034184894" lon="10.356735060520307"><ele>7.0</ele><time>2026-04-19T07:16:57.999Z</time></trkpt><trkpt lat="42.76300065983341" lon="10.356630027074994"><ele>6.999999999999999</ele><time>2026-04-19T07:16:59.999Z</time></trkpt><trkpt lat="42.7629485516319" lon="10.356521552755723"><ele>6.999999999999999</ele><time>2026-04-19T07:17:01.999Z</time></trkpt><trkpt lat="42.7628594614801" lon="10.356385813474597"><ele>7.0</ele><time>2026-04-19T07:17:03.999Z</time></trkpt><trkpt lat="42.76280647018587" lon="10.35630531937965"><ele>7.0</ele><time>2026-04-19T07:17:04.999Z</time></trkpt><trkpt lat="42.762761268512556" lon="10.356237472791532"><ele>6.3999999999999995</ele><time>2026-04-19T07:17:05.999Z</time></trkpt><trkpt lat="42.76271159154904" lon="10.356167626559902"><ele>5.799999999999999</ele><time>2026-04-19T07:17:06.999Z</time></trkpt><trkpt lat="42.762653320849985" lon="10.3560816395309"><ele>5.2</ele><time>2026-04-19T07:17:07.999Z</time></trkpt><trkpt lat="42.76259628305502" lon="10.355986719734666"><ele>4.6</ele><time>2026-04-19T07:17:08.999Z</time></trkpt><trkpt lat="42.762555557811424" lon="10.355908469535711"><ele>4.0</ele><time>2026-04-19T07:17:09.999Z</time></trkpt><trkpt lat="42.76252303729275" lon="10.355730044997918"><ele>3.9999999999999996</ele><time>2026-04-19T07:17:11.999Z</time></trkpt><trkpt lat="42.76251519552528" lon="10.355635234901436"><ele>4.0</ele><time>2026-04-19T07:17:12.999Z</time></trkpt><trkpt lat="42.7625108335566" lon="10.35546095413845"><ele>4.0</ele><time>2026-04-19T07:17:14.999Z</time></trkpt><trkpt lat="42.76251699761514" lon="10.35534806173925"><ele>4.0</ele><time>2026-04-19T07:17:15.999Z</time></trkpt><trkpt lat="42.762548766444546" lon="10.355244974068594"><ele>3.9999999999999996</ele><time>2026-04-19T07:17:16.999Z</time></trkpt><trkpt lat="42.762580721108854" lon="10.355148302850207"><ele>4.0</ele><time>2026-04-19T07:17:17.999Z</time></trkpt><trkpt lat="42.76262071946355" lon="10.35504458746317"><ele>5.0</ele><time>2026-04-19T07:17:18.999Z</time></trkpt><trkpt lat="42.7626423795109" lon="10.354944095120882"><ele>6.0</ele><time>2026-04-19T07:17:19.999Z</time></trkpt><trkpt lat="42.762639065128496" lon="10.354845379933469"><ele>7.0</ele><time>2026-04-19T07:17:20.999Z</time></trkpt><trkpt lat="42.762607395197996" lon="10.354759018966845"><ele>8.0</ele><time>2026-04-19T07:17:21.999Z</time></trkpt><trkpt lat="42.76255790384387" lon="10.354688865074696"><ele>9.0</ele><time>2026-04-19T07:17:22.999Z</time></trkpt><trkpt lat="42.7624847843451" lon="10.354604342574854"><ele>10.0</ele><time>2026-04-19T07:17:23.999Z</time></trkpt><trkpt lat="42.762416180159065" lon="10.354516389174275"><ele>11.5</ele><time>2026-04-19T07:17:24.999Z</time></trkpt><trkpt lat="42.76234832968571" lon="10.354430892762919"><ele>13.0</ele><time>2026-04-19T07:17:25.999Z</time></trkpt><trkpt lat="42.762295665955136" lon="10.3543697021151"><ele>14.5</ele><time>2026-04-19T07:17:26.999Z</time></trkpt><trkpt lat="42.76227082501653" lon="10.354286548093828"><ele>16.0</ele><time>2026-04-19T07:17:27.999Z</time></trkpt><trkpt lat="42.762309151808395" lon="10.354124899201464"><ele>17.5</ele><time>2026-04-19T07:17:29.999Z</time></trkpt><trkpt lat="42.76234883574191" lon="10.35404563859172"><ele>19.0</ele><time>2026-04-19T07:17:30.999Z</time></trkpt><trkpt lat="42.76237778816543" lon="10.353956964715813"><ele>19.666666666666664</ele><time>2026-04-19T07:17:31.999Z</time></trkpt><trkpt lat="42.76240838403604" lon="10.353850023009274"><ele>20.333333333333332</ele><time>2026-04-19T07:17:32.999Z</time></trkpt><trkpt lat="42.76244165467039" lon="10.353748474605325"><ele>21.0</ele><time>2026-04-19T07:17:33.999Z</time></trkpt><trkpt lat="42.762473429128995" lon="10.353645812365661"><ele>21.666666666666668</ele><time>2026-04-19T07:17:34.999Z</time></trkpt><trkpt lat="42.76250324227377" lon="10.353557300918519"><ele>22.333333333333336</ele><time>2026-04-19T07:17:35.999Z</time></trkpt><trkpt lat="42.76253001890604" lon="10.35347483015748"><ele>23.0</ele><time>2026-04-19T07:17:36.999Z</time></trkpt><trkpt lat="42.76255604449768" lon="10.353389213273239"><ele>23.0</ele><time>2026-04-19T07:17:37.999Z</time></trkpt><trkpt lat="42.76258163949661" lon="10.353309826534018"><ele>23.0</ele><time>2026-04-19T07:17:38.999Z</time></trkpt><trkpt lat="42.7625942977283" lon="10.35321499294965"><ele>23.0</ele><time>2026-04-19T07:17:39.999Z</time></trkpt><trkpt lat="42.76258767866101" lon="10.353116567786133"><ele>23.0</ele><time>2026-04-19T07:17:40.999Z</time></trkpt><trkpt lat="42.762599216694944" lon="10.352992615000952"><ele>23.0</ele><time>2026-04-19T07:17:41.999Z</time></trkpt><trkpt lat="42.76259584734181" lon="10.352866031906197"><ele>23.0</ele><time>2026-04-19T07:17:42.999Z</time></trkpt><trkpt lat="42.76260408742415" lon="10.352746708262274"><ele>23.833333333333336</ele><time>2026-04-19T07:17:43.999Z</time></trkpt><trkpt lat="42.76260625722165" lon="10.35263761540887"><ele>24.666666666666668</ele><time>2026-04-19T07:17:44.999Z</time></trkpt><trkpt lat="42.76260199526679" lon="10.352537764328298"><ele>25.5</ele><time>2026-04-19T07:17:45.999Z</time></trkpt><trkpt lat="42.76263041862902" lon="10.352414249427653"><ele>26.333333333333336</ele><time>2026-04-19T07:17:47.999Z</time></trkpt><trkpt lat="42.762669300562415" lon="10.352339936812417"><ele>27.166666666666668</ele><time>2026-04-19T07:17:49.999Z</time></trkpt><trkpt lat="42.76276076931951" lon="10.352289655208091"><ele>28.0</ele><time>2026-04-19T07:17:51.999Z</time></trkpt><trkpt lat="42.76282621818559" lon="10.352275857324951"><ele>29.166666666666668</ele><time>2026-04-19T07:17:52.999Z</time></trkpt><trkpt lat="42.762899052748466" lon="10.352264047830383"><ele>30.333333333333336</ele><time>2026-04-19T07:17:53.999Z</time></trkpt><trkpt lat="42.76297934091683" lon="10.352259906425541"><ele>31.5</ele><time>2026-04-19T07:17:54.999Z</time></trkpt><trkpt lat="42.76306469889683" lon="10.352267508608843"><ele>32.666666666666664</ele><time>2026-04-19T07:17:55.999Z</time></trkpt><trkpt lat="42.763162050934355" lon="10.352276421555834"><ele>33.83333333333333</ele><time>2026-04-19T07:17:56.999Z</time></trkpt><trkpt lat="42.76326018613825" lon="10.3522845569384"><ele>35.0</ele><time>2026-04-19T07:17:57.999Z</time></trkpt><trkpt lat="42.763374019693266" lon="10.352292716622898"><ele>35.0</ele><time>2026-04-19T07:17:58.999Z</time></trkpt><trkpt lat="42.76348429114283" lon="10.352296693167835"><ele>35.0</ele><time>2026-04-19T07:17:59.999Z</time></trkpt><trkpt lat="42.763590242383515" lon="10.352297040137566"><ele>35.0</ele><time>2026-04-19T07:18:00.999Z</time></trkpt><trkpt lat="42.76370830216506" lon="10.352296377866484"><ele>35.0</ele><time>2026-04-19T07:18:01.999Z</time></trkpt><trkpt lat="42.76380468785559" lon="10.352306394248645"><ele>35.0</ele><time>2026-04-19T07:18:02.999Z</time></trkpt><trkpt lat="42.7638973255998" lon="10.352315045291796"><ele>35.83333333333333</ele><time>2026-04-19T07:18:03.999Z</time></trkpt><trkpt lat="42.76399212915363" lon="10.352319936482294"><ele>36.666666666666664</ele><time>2026-04-19T07:18:04.999Z</time></trkpt><trkpt lat="42.76408708553851" lon="10.352304155821898"><ele>37.5</ele><time>2026-04-19T07:18:05.999Z</time></trkpt><trkpt lat="42.764165867086746" lon="10.352294384806317"><ele>38.333333333333336</ele><time>2026-04-19T07:18:06.999Z</time></trkpt><trkpt lat="42.76424972013259" lon="10.352249283656954"><ele>39.16666666666667</ele><time>2026-04-19T07:18:08.999Z</time></trkpt><trkpt lat="42.76431248243341" lon="10.35222023233085"><ele>40.0</ele><time>2026-04-19T07:18:11.999Z</time></trkpt><trkpt lat="42.764288983863445" lon="10.352063554667222"><ele>41.333333333333336</ele><time>2026-04-19T07:18:12.999Z</time></trkpt><trkpt lat="42.76426360009608" lon="10.35198303166594"><ele>42.66666666666667</ele><time>2026-04-19T07:18:13.999Z</time></trkpt><trkpt lat="42.76423483103487" lon="10.351885628946754"><ele>44.0</ele><time>2026-04-19T07:18:14.999Z</time></trkpt><trkpt lat="42.76421604888919" lon="10.35178234292168"><ele>45.333333333333336</ele><time>2026-04-19T07:18:15.999Z</time></trkpt><trkpt lat="42.76422705950795" lon="10.351697872824847"><ele>46.666666666666664</ele><time>2026-04-19T07:18:16.999Z</time></trkpt><trkpt lat="42.76429695290301" lon="10.351554069963347"><ele>48.0</ele><time>2026-04-19T07:18:18.999Z</time></trkpt><trkpt lat="42.76433685310961" lon="10.351478214727246"><ele>49.833333333333336</ele><time>2026-04-19T07:18:19.999Z</time></trkpt><trkpt lat="42.76437945111669" lon="10.351396417627988"><ele>51.66666666666667</ele><time>2026-04-19T07:18:20.999Z</time></trkpt><trkpt lat="42.764419617229755" lon="10.351302995053997"><ele>53.5</ele><time>2026-04-19T07:18:21.999Z</time></trkpt><trkpt lat="42.76446294375511" lon="10.351204413722991"><ele>55.333333333333336</ele><time>2026-04-19T07:18:22.999Z</time></trkpt><trkpt lat="42.76451233692208" lon="10.351134182485044"><ele>57.16666666666667</ele><time>2026-04-19T07:18:23.999Z</time></trkpt><trkpt lat="42.7645451634969" lon="10.351037171430539"><ele>59.0</ele><time>2026-04-19T07:18:24.999Z</time></trkpt><trkpt lat="42.764584959388905" lon="10.350962343807671"><ele>59.16666666666667</ele><time>2026-04-19T07:18:25.999Z</time></trkpt><trkpt lat="42.76462819061165" lon="10.35088050713755"><ele>59.333333333333336</ele><time>2026-04-19T07:18:26.999Z</time></trkpt><trkpt lat="42.764735673063065" lon="10.35080649367196"><ele>59.5</ele><time>2026-04-19T07:18:28.999Z</time></trkpt><trkpt lat="42.76480473137041" lon="10.350781405564351"><ele>59.66666666666667</ele><time>2026-04-19T07:18:29.999Z</time></trkpt><trkpt lat="42.764885717202716" lon="10.350757563036506"><ele>59.833333333333336</ele><time>2026-04-19T07:18:30.999Z</time></trkpt><trkpt lat="42.764968360524094" lon="10.350730827842236"><ele>60.0</ele><time>2026-04-19T07:18:31.999Z</time></trkpt><trkpt lat="42.765024461923524" lon="10.350688197324809"><ele>60.0</ele><time>2026-04-19T07:18:32.999Z</time></trkpt><trkpt lat="42.765081230098964" lon="10.350641256827904"><ele>60.0</ele><time>2026-04-19T07:18:33.999Z</time></trkpt><trkpt lat="42.76515129444837" lon="10.350593853119587"><ele>60.0</ele><time>2026-04-19T07:18:34.999Z</time></trkpt><trkpt lat="42.765215778653" lon="10.350534797815037"><ele>60.0</ele><time>2026-04-19T07:18:35.999Z</time></trkpt><trkpt lat="42.76526625479958" lon="10.350482220633944"><ele>60.0</ele><time>2026-04-19T07:18:36.999Z</time></trkpt><trkpt lat="42.765303926309095" lon="10.350411791890078"><ele>60.0</ele><time>2026-04-19T07:18:37.999Z</time></trkpt><trkpt lat="42.7653319222836" lon="10.350313726482666"><ele>60.0</ele><time>2026-04-19T07:18:38.999Z</time></trkpt><trkpt lat="42.765342738135175" lon="10.350223557796541"><ele>60.166666666666664</ele><time>2026-04-19T07:18:39.999Z</time></trkpt><trkpt lat="42.76529156131748" lon="10.350128479394554"><ele>60.33333333333333</ele><time>2026-04-19T07:18:40.999Z</time></trkpt><trkpt lat="42.765247796092844" lon="10.350032343977917"><ele>60.5</ele><time>2026-04-19T07:18:41.999Z</time></trkpt><trkpt lat="42.76520970241043" lon="10.349926588824784"><ele>60.666666666666664</ele><time>2026-04-19T07:18:42.999Z</time></trkpt><trkpt lat="42.76515929528992" lon="10.34981787522058"><ele>60.83333333333333</ele><time>2026-04-19T07:18:43.999Z</time></trkpt><trkpt lat="42.76511840466769" lon="10.349707698371898"><ele>61.0</ele><time>2026-04-19T07:18:44.999Z</time></trkpt><trkpt lat="42.765080165363145" lon="10.349606014212398"><ele>60.99999999999999</ele><time>2026-04-19T07:18:45.999Z</time></trkpt><trkpt lat="42.76502740881351" lon="10.349530196651326"><ele>61.0</ele><time>2026-04-19T07:18:46.999Z</time></trkpt><trkpt lat="42.76499095344023" lon="10.349452377968902"><ele>61.0</ele><time>2026-04-19T07:18:47.999Z</time></trkpt><trkpt lat="42.76493422189756" lon="10.349395045501133"><ele>61.0</ele><time>2026-04-19T07:18:48.999Z</time></trkpt><trkpt lat="42.764839601467855" lon="10.349338912584637"><ele>60.99999999999999</ele><time>2026-04-19T07:18:49.999Z</time></trkpt><trkpt lat="42.76474141614559" lon="10.349276338879639"><ele>61.0</ele><time>2026-04-19T07:18:50.999Z</time></trkpt><trkpt lat="42.76465479715294" lon="10.349220809366564"><ele>60.99999999999999</ele><time>2026-04-19T07:18:51.999Z</time></trkpt><trkpt lat="42.76458298007596" lon="10.349175894895025"><ele>61.0</ele><time>2026-04-19T07:18:52.999Z</time></trkpt><trkpt lat="42.76447156916569" lon="10.349107102205819"><ele>61.0</ele><time>2026-04-19T07:18:54.999Z</time></trkpt><trkpt lat="42.76441760814876" lon="10.349045661436879"><ele>61.0</ele><time>2026-04-19T07:18:55.999Z</time></trkpt><trkpt lat="42.76434626999947" lon="10.349000393052737"><ele>60.99999999999999</ele><time>2026-04-19T07:18:56.999Z</time></trkpt><trkpt lat="42.76429453376041" lon="10.348907921695668"><ele>61.0</ele><time>2026-04-19T07:18:57.999Z</time></trkpt><trkpt lat="42.76427033320698" lon="10.348826777832798"><ele>60.0</ele><time>2026-04-19T07:18:58.999Z</time></trkpt><trkpt lat="42.76427852567365" lon="10.348655118537424"><ele>59.0</ele><time>2026-04-19T07:19:00.999Z</time></trkpt><trkpt lat="42.764346302550834" lon="10.348599413585944"><ele>58.0</ele><time>2026-04-19T07:19:01.999Z</time></trkpt><trkpt lat="42.764469389532096" lon="10.348490191072074"><ele>57.0</ele><time>2026-04-19T07:19:03.999Z</time></trkpt><trkpt lat="42.76456402473722" lon="10.348438180826747"><ele>57.0</ele><time>2026-04-19T07:19:04.999Z</time></trkpt><trkpt lat="42.76466793097391" lon="10.348385811499229"><ele>57.0</ele><time>2026-04-19T07:19:05.999Z</time></trkpt><trkpt lat="42.76476585864582" lon="10.348340943586242"><ele>57.0</ele><time>2026-04-19T07:19:06.999Z</time></trkpt><trkpt lat="42.764832188983" lon="10.348303924621117"><ele>57.0</ele><time>2026-04-19T07:19:07.999Z</time></trkpt><trkpt lat="42.764888690356294" lon="10.348261880303063"><ele>57.0</ele><time>2026-04-19T07:19:08.999Z</time></trkpt><trkpt lat="42.7649247082323" lon="10.348176362589166"><ele>57.0</ele><time>2026-04-19T07:19:09.999Z</time></trkpt><trkpt lat="42.76492996060098" lon="10.348000465080768"><ele>54.8</ele><time>2026-04-19T07:19:11.999Z</time></trkpt><trkpt lat="42.76489741800728" lon="10.347865113580438"><ele>52.6</ele><time>2026-04-19T07:19:13.999Z</time></trkpt><trkpt lat="42.76485195377144" lon="10.347748023334583"><ele>50.4</ele><time>2026-04-19T07:19:15.999Z</time></trkpt><trkpt lat="42.76482912640604" lon="10.347649617417863"><ele>48.199999999999996</ele><time>2026-04-19T07:19:16.999Z</time></trkpt><trkpt lat="42.76485226472474" lon="10.347480241017983"><ele>46.0</ele><time>2026-04-19T07:19:18.999Z</time></trkpt><trkpt lat="42.76488617041212" lon="10.347396604811864"><ele>46.0</ele><time>2026-04-19T07:19:19.999Z</time></trkpt><trkpt lat="42.764948286350425" lon="10.347338122788546"><ele>46.0</ele><time>2026-04-19T07:19:20.999Z</time></trkpt><trkpt lat="42.76503682144218" lon="10.3473231906947"><ele>46.0</ele><time>2026-04-19T07:19:21.999Z</time></trkpt><trkpt lat="42.76512447470591" lon="10.347279528344576"><ele>46.0</ele><time>2026-04-19T07:19:22.999Z</time></trkpt><trkpt lat="42.76519402821615" lon="10.347253256323128"><ele>46.0</ele><time>2026-04-19T07:19:23.999Z</time></trkpt><trkpt lat="42.76525941766766" lon="10.347224782173418"><ele>46.0</ele><time>2026-04-19T07:19:24.999Z</time></trkpt><trkpt lat="42.76533499812668" lon="10.347217357666203"><ele>46.16666666666667</ele><time>2026-04-19T07:19:25.999Z</time></trkpt><trkpt lat="42.765403460255214" lon="10.347226869252532"><ele>46.333333333333336</ele><time>2026-04-19T07:19:26.999Z</time></trkpt><trkpt lat="42.76548517391896" lon="10.347229173171458"><ele>46.5</ele><time>2026-04-19T07:19:27.999Z</time></trkpt><trkpt lat="42.76556069595591" lon="10.347240927985665"><ele>46.666666666666664</ele><time>2026-04-19T07:19:28.999Z</time></trkpt><trkpt lat="42.76564702061908" lon="10.347252894291323"><ele>46.83333333333333</ele><time>2026-04-19T07:19:29.999Z</time></trkpt><trkpt lat="42.7657567872619" lon="10.347259824005105"><ele>47.0</ele><time>2026-04-19T07:19:31.999Z</time></trkpt><trkpt lat="42.765865050599395" lon="10.347278725538937"><ele>47.0</ele><time>2026-04-19T07:19:33.999Z</time></trkpt><trkpt lat="42.76593373485099" lon="10.347266255308867"><ele>47.0</ele><time>2026-04-19T07:19:36.999Z</time></trkpt><trkpt lat="42.76591644844931" lon="10.347092924251871"><ele>47.0</ele><time>2026-04-19T07:19:38.999Z</time></trkpt><trkpt lat="42.76591159940964" lon="10.346970982515275"><ele>47.0</ele><time>2026-04-19T07:19:39.999Z</time></trkpt><trkpt lat="42.76588659616867" lon="10.346868785676648"><ele>47.0</ele><time>2026-04-19T07:19:40.999Z</time></trkpt><trkpt lat="42.76586421795064" lon="10.346748945559654"><ele>45.5</ele><time>2026-04-19T07:19:41.999Z</time></trkpt><trkpt lat="42.76585494525764" lon="10.34663523111708"><ele>44.0</ele><time>2026-04-19T07:19:42.999Z</time></trkpt><trkpt lat="42.76586318261412" lon="10.346524581272085"><ele>42.5</ele><time>2026-04-19T07:19:43.999Z</time></trkpt><trkpt lat="42.76589237894269" lon="10.346441946423035"><ele>41.0</ele><time>2026-04-19T07:19:44.999Z</time></trkpt><trkpt lat="42.7659306869894" lon="10.346319261856983"><ele>39.5</ele><time>2026-04-19T07:19:45.999Z</time></trkpt><trkpt lat="42.76596766872461" lon="10.346199019157677"><ele>38.0</ele><time>2026-04-19T07:19:46.999Z</time></trkpt><trkpt lat="42.76602060184259" lon="10.346101004773146"><ele>38.33333333333333</ele><time>2026-04-19T07:19:47.999Z</time></trkpt><trkpt lat="42.76605939859373" lon="10.345988978778681"><ele>38.666666666666664</ele><time>2026-04-19T07:19:48.999Z</time></trkpt><trkpt lat="42.7660887213458" lon="10.345881982101824"><ele>39.0</ele><time>2026-04-19T07:19:49.999Z</time></trkpt><trkpt lat="42.7661170478051" lon="10.345782564769788"><ele>39.333333333333336</ele><time>2026-04-19T07:19:50.999Z</time></trkpt><trkpt lat="42.76614384803072" lon="10.345683498321234"><ele>39.66666666666667</ele><time>2026-04-19T07:19:51.999Z</time></trkpt><trkpt lat="42.76616869562926" lon="10.345592625675229"><ele>40.0</ele><time>2026-04-19T07:19:52.999Z</time></trkpt><trkpt lat="42.766194617630404" lon="10.345486249122281"><ele>40.0</ele><time>2026-04-19T07:19:53.999Z</time></trkpt><trkpt lat="42.76622131372365" lon="10.345385484430462"><ele>40.0</ele><time>2026-04-19T07:19:54.999Z</time></trkpt><trkpt lat="42.766244205359264" lon="10.3452991036011"><ele>40.0</ele><time>2026-04-19T07:19:55.999Z</time></trkpt><trkpt lat="42.76626503647792" lon="10.345208962828838"><ele>40.0</ele><time>2026-04-19T07:19:56.999Z</time></trkpt><trkpt lat="42.76631160516284" lon="10.345042184270255"><ele>40.0</ele><time>2026-04-19T07:19:58.999Z</time></trkpt><trkpt lat="42.76633823233893" lon="10.344940163514044"><ele>40.0</ele><time>2026-04-19T07:19:59.999Z</time></trkpt><trkpt lat="42.766364418924375" lon="10.34484880397414"><ele>37.5</ele><time>2026-04-19T07:20:00.999Z</time></trkpt><trkpt lat="42.76642077178905" lon="10.344682740969978"><ele>35.0</ele><time>2026-04-19T07:20:02.999Z</time></trkpt><trkpt lat="42.76644506673932" lon="10.344602807100186"><ele>32.5</ele><time>2026-04-19T07:20:03.999Z</time></trkpt><trkpt lat="42.766470687751216" lon="10.344518361495297"><ele>30.0</ele><time>2026-04-19T07:20:04.999Z</time></trkpt><trkpt lat="42.766540688823795" lon="10.344462544327722"><ele>27.500000000000004</ele><time>2026-04-19T07:20:05.999Z</time></trkpt><trkpt lat="42.76660440511468" lon="10.344381635645469"><ele>25.0</ele><time>2026-04-19T07:20:06.999Z</time></trkpt><trkpt lat="42.7666738906855" lon="10.344323432254374"><ele>25.000000000000004</ele><time>2026-04-19T07:20:07.999Z</time></trkpt><trkpt lat="42.76674055165854" lon="10.344262035931669"><ele>25.0</ele><time>2026-04-19T07:20:08.999Z</time></trkpt><trkpt lat="42.76682617289977" lon="10.344223803674721"><ele>25.0</ele><time>2026-04-19T07:20:09.999Z</time></trkpt><trkpt lat="42.76690472360199" lon="10.344183944196674"><ele>25.0</ele><time>2026-04-19T07:20:10.999Z</time></trkpt><trkpt lat="42.76696291235872" lon="10.344112849958496"><ele>25.000000000000004</ele><time>2026-04-19T07:20:11.999Z</time></trkpt><trkpt lat="42.76699022096008" lon="10.344027369863866"><ele>25.0</ele><time>2026-04-19T07:20:12.999Z</time></trkpt><trkpt lat="42.76704326823081" lon="10.343954736064706"><ele>26.166666666666668</ele><time>2026-04-19T07:20:13.999Z</time></trkpt><trkpt lat="42.767054091901215" lon="10.343818564919314"><ele>27.333333333333336</ele><time>2026-04-19T07:20:14.999Z</time></trkpt><trkpt lat="42.76710077782321" lon="10.34372664434316"><ele>28.5</ele><time>2026-04-19T07:20:15.999Z</time></trkpt><trkpt lat="42.76714532052137" lon="10.34366222995766"><ele>29.666666666666664</ele><time>2026-04-19T07:20:16.999Z</time></trkpt><trkpt lat="42.76722506811939" lon="10.343540958493158"><ele>30.833333333333332</ele><time>2026-04-19T07:20:18.999Z</time></trkpt><trkpt lat="42.767293316449624" lon="10.343499711613878"><ele>32.0</ele><time>2026-04-19T07:20:19.999Z</time></trkpt><trkpt lat="42.76734012856501" lon="10.34343990712157"><ele>31.999999999999996</ele><time>2026-04-19T07:20:20.999Z</time></trkpt><trkpt lat="42.76738675900478" lon="10.34337885622561"><ele>32.0</ele><time>2026-04-19T07:20:21.999Z</time></trkpt><trkpt lat="42.767445780996646" lon="10.343300833267689"><ele>32.0</ele><time>2026-04-19T07:20:22.999Z</time></trkpt><trkpt lat="42.76751645635066" lon="10.343212517090357"><ele>32.0</ele><time>2026-04-19T07:20:23.999Z</time></trkpt><trkpt lat="42.767571715234936" lon="10.34314997200084"><ele>31.999999999999996</ele><time>2026-04-19T07:20:24.999Z</time></trkpt><trkpt lat="42.767663607938566" lon="10.343052888318136"><ele>32.0</ele><time>2026-04-19T07:20:26.999Z</time></trkpt><trkpt lat="42.76774719905255" lon="10.342940780060552"><ele>32.2</ele><time>2026-04-19T07:20:28.999Z</time></trkpt><trkpt lat="42.767897938794256" lon="10.342950226198385"><ele>32.400000000000006</ele><time>2026-04-19T07:20:30.999Z</time></trkpt><trkpt lat="42.7679867504022" lon="10.342972728088327"><ele>32.599999999999994</ele><time>2026-04-19T07:20:31.999Z</time></trkpt><trkpt lat="42.76807217115558" lon="10.342998355045026"><ele>32.8</ele><time>2026-04-19T07:20:32.999Z</time></trkpt><trkpt lat="42.768157353362454" lon="10.343024235920273"><ele>33.0</ele><time>2026-04-19T07:20:33.999Z</time></trkpt><trkpt lat="42.768251478820126" lon="10.34305018092039"><ele>34.0</ele><time>2026-04-19T07:20:34.999Z</time></trkpt><trkpt lat="42.768345547035324" lon="10.343082649805163"><ele>35.0</ele><time>2026-04-19T07:20:35.999Z</time></trkpt><trkpt lat="42.768442012781904" lon="10.343131500229406"><ele>36.0</ele><time>2026-04-19T07:20:36.999Z</time></trkpt><trkpt lat="42.768531823859945" lon="10.343191515206572"><ele>37.0</ele><time>2026-04-19T07:20:37.999Z</time></trkpt><trkpt lat="42.768619068427725" lon="10.343249501706458"><ele>38.0</ele><time>2026-04-19T07:20:38.999Z</time></trkpt><trkpt lat="42.768701160817876" lon="10.343298807030806"><ele>38.5</ele><time>2026-04-19T07:20:39.999Z</time></trkpt><trkpt lat="42.76877210511838" lon="10.343346207943425"><ele>39.0</ele><time>2026-04-19T07:20:40.999Z</time></trkpt><trkpt lat="42.76885286471966" lon="10.343374572921011"><ele>39.5</ele><time>2026-04-19T07:20:41.999Z</time></trkpt><trkpt lat="42.768930241784595" lon="10.343395995797728"><ele>40.0</ele><time>2026-04-19T07:20:42.999Z</time></trkpt><trkpt lat="42.7690266942405" lon="10.343417691614768"><ele>40.5</ele><time>2026-04-19T07:20:43.999Z</time></trkpt><trkpt lat="42.76911798966757" lon="10.343445662554165"><ele>41.0</ele><time>2026-04-19T07:20:44.999Z</time></trkpt><trkpt lat="42.76920837997834" lon="10.343482070760706"><ele>41.0</ele><time>2026-04-19T07:20:45.999Z</time></trkpt><trkpt lat="42.769296668154816" lon="10.343526373857074"><ele>41.0</ele><time>2026-04-19T07:20:46.999Z</time></trkpt><trkpt lat="42.769378726694384" lon="10.343570752295312"><ele>41.0</ele><time>2026-04-19T07:20:47.999Z</time></trkpt><trkpt lat="42.76946553905211" lon="10.343611877484296"><ele>41.0</ele><time>2026-04-19T07:20:48.999Z</time></trkpt><trkpt lat="42.76955061303873" lon="10.34365629549608"><ele>41.0</ele><time>2026-04-19T07:20:49.999Z</time></trkpt><trkpt lat="42.76963668084478" lon="10.343701871651023"><ele>42.0</ele><time>2026-04-19T07:20:50.999Z</time></trkpt><trkpt lat="42.76971212302463" lon="10.34374835051488"><ele>43.0</ele><time>2026-04-19T07:20:51.999Z</time></trkpt><trkpt lat="42.76978528283207" lon="10.343803343759577"><ele>44.0</ele><time>2026-04-19T07:20:52.999Z</time></trkpt><trkpt lat="42.76987458864839" lon="10.343865949317633"><ele>45.0</ele><time>2026-04-19T07:20:53.999Z</time></trkpt><trkpt lat="42.7699532518806" lon="10.343924324708937"><ele>46.0</ele><time>2026-04-19T07:20:54.999Z</time></trkpt><trkpt lat="42.77003486452312" lon="10.3439987427515"><ele>46.0</ele><time>2026-04-19T07:20:55.999Z</time></trkpt><trkpt lat="42.770111066755106" lon="10.344079668949549"><ele>46.0</ele><time>2026-04-19T07:20:56.999Z</time></trkpt><trkpt lat="42.770182469776834" lon="10.344142969971804"><ele>46.0</ele><time>2026-04-19T07:20:57.999Z</time></trkpt><trkpt lat="42.77025803706738" lon="10.34419172031744"><ele>46.0</ele><time>2026-04-19T07:20:58.998Z</time></trkpt><trkpt lat="42.77034034165218" lon="10.344236205344467"><ele>46.0</ele><time>2026-04-19T07:20:59.998Z</time></trkpt><trkpt lat="42.77040776411509" lon="10.344290584303405"><ele>46.0</ele><time>2026-04-19T07:21:00.998Z</time></trkpt><trkpt lat="42.77048373467049" lon="10.34434128084809"><ele>47.16666666666667</ele><time>2026-04-19T07:21:01.998Z</time></trkpt><trkpt lat="42.77054407154198" lon="10.344380150355157"><ele>48.333333333333336</ele><time>2026-04-19T07:21:02.998Z</time></trkpt><trkpt lat="42.77058504764459" lon="10.34445564317651"><ele>49.5</ele><time>2026-04-19T07:21:03.998Z</time></trkpt><trkpt lat="42.77064428028658" lon="10.344529011941043"><ele>50.66666666666667</ele><time>2026-04-19T07:21:04.998Z</time></trkpt><trkpt lat="42.77070169200221" lon="10.344601106331881"><ele>51.833333333333336</ele><time>2026-04-19T07:21:05.998Z</time></trkpt><trkpt lat="42.77076133137786" lon="10.344678571607348"><ele>53.0</ele><time>2026-04-19T07:21:06.998Z</time></trkpt><trkpt lat="42.770831478436016" lon="10.344738205742885"><ele>53.0</ele><time>2026-04-19T07:21:07.998Z</time></trkpt><trkpt lat="42.77092350671189" lon="10.344843694854301"><ele>53.0</ele><time>2026-04-19T07:21:09.998Z</time></trkpt><trkpt lat="42.77103201252728" lon="10.344861187695592"><ele>53.0</ele><time>2026-04-19T07:21:11.998Z</time></trkpt><trkpt lat="42.771126740667945" lon="10.344765464368212"><ele>53.0</ele><time>2026-04-19T07:21:13.998Z</time></trkpt><trkpt lat="42.77116381935104" lon="10.3446824988877"><ele>53.0</ele><time>2026-04-19T07:21:18.998Z</time></trkpt><trkpt lat="42.771114984152945" lon="10.34449609475332"><ele>53.0</ele><time>2026-04-19T07:21:21.998Z</time></trkpt><trkpt lat="42.77106150304296" lon="10.344426397453423"><ele>53.0</ele><time>2026-04-19T07:21:22.998Z</time></trkpt><trkpt lat="42.77099205579813" lon="10.344333796567087"><ele>53.0</ele><time>2026-04-19T07:21:23.998Z</time></trkpt><trkpt lat="42.77091445506735" lon="10.344226960753872"><ele>53.0</ele><time>2026-04-19T07:21:24.998Z</time></trkpt><trkpt lat="42.77084101352758" lon="10.34409968174863"><ele>53.0</ele><time>2026-04-19T07:21:25.998Z</time></trkpt><trkpt lat="42.770746933354026" lon="10.343969417056178"><ele>56.66666666666667</ele><time>2026-04-19T07:21:26.998Z</time></trkpt><trkpt lat="42.77063925275419" lon="10.343850953419974"><ele>60.33333333333333</ele><time>2026-04-19T07:21:27.998Z</time></trkpt><trkpt lat="42.77049609131665" lon="10.343740083737629"><ele>64.0</ele><time>2026-04-19T07:21:28.998Z</time></trkpt><trkpt lat="42.77035253319344" lon="10.343644774203453"><ele>64.0</ele><time>2026-04-19T07:21:29.998Z</time></trkpt><trkpt lat="42.77025062165311" lon="10.34349720559386"><ele>64.0</ele><time>2026-04-19T07:21:30.998Z</time></trkpt><trkpt lat="42.7701399127625" lon="10.343355380461213"><ele>64.0</ele><time>2026-04-19T07:21:31.998Z</time></trkpt><trkpt lat="42.77004858715322" lon="10.343199515550374"><ele>64.0</ele><time>2026-04-19T07:21:32.998Z</time></trkpt><trkpt lat="42.769959326284635" lon="10.343062073236142"><ele>62.5</ele><time>2026-04-19T07:21:33.998Z</time></trkpt><trkpt lat="42.769869761658555" lon="10.34293687329167"><ele>61.0</ele><time>2026-04-19T07:21:34.998Z</time></trkpt><trkpt lat="42.76976215424884" lon="10.342850865151084"><ele>59.5</ele><time>2026-04-19T07:21:35.998Z</time></trkpt><trkpt lat="42.769638155430414" lon="10.34279678461985"><ele>58.0</ele><time>2026-04-19T07:21:36.998Z</time></trkpt><trkpt lat="42.76951829599635" lon="10.342745616468475"><ele>58.0</ele><time>2026-04-19T07:21:37.998Z</time></trkpt><trkpt lat="42.76940540598308" lon="10.342670416664367"><ele>58.0</ele><time>2026-04-19T07:21:38.998Z</time></trkpt><trkpt lat="42.76929602308928" lon="10.342567898890843"><ele>58.0</ele><time>2026-04-19T07:21:39.998Z</time></trkpt><trkpt lat="42.769207239919595" lon="10.342422707767437"><ele>58.0</ele><time>2026-04-19T07:21:40.998Z</time></trkpt><trkpt lat="42.76912333640644" lon="10.342267895245095"><ele>56.75</ele><time>2026-04-19T07:21:41.998Z</time></trkpt><trkpt lat="42.769032454580504" lon="10.342138724160916"><ele>55.5</ele><time>2026-04-19T07:21:42.998Z</time></trkpt><trkpt lat="42.768937984387065" lon="10.342027147683819"><ele>54.25</ele><time>2026-04-19T07:21:43.998Z</time></trkpt><trkpt lat="42.768836135593894" lon="10.341899559172077"><ele>53.0</ele><time>2026-04-19T07:21:44.998Z</time></trkpt><trkpt lat="42.76873690832091" lon="10.341769243408441"><ele>53.0</ele><time>2026-04-19T07:21:45.998Z</time></trkpt><trkpt lat="42.76862890304705" lon="10.341650435396222"><ele>53.0</ele><time>2026-04-19T07:21:46.998Z</time></trkpt><trkpt lat="42.76852397749353" lon="10.341558530725491"><ele>53.0</ele><time>2026-04-19T07:21:47.998Z</time></trkpt><trkpt lat="42.76841064398828" lon="10.341481233823615"><ele>53.0</ele><time>2026-04-19T07:21:48.998Z</time></trkpt><trkpt lat="42.76831294889439" lon="10.341408172467636"><ele>51.599999999999994</ele><time>2026-04-19T07:21:49.998Z</time></trkpt><trkpt lat="42.76824096801735" lon="10.341298930238695"><ele>50.199999999999996</ele><time>2026-04-19T07:21:50.998Z</time></trkpt><trkpt lat="42.76819375309703" lon="10.341179843042768"><ele>48.8</ele><time>2026-04-19T07:21:51.998Z</time></trkpt><trkpt lat="42.76823294862718" lon="10.341023710493035"><ele>47.4</ele><time>2026-04-19T07:21:52.998Z</time></trkpt><trkpt lat="42.768243014540346" lon="10.340867017724138"><ele>46.0</ele><time>2026-04-19T07:21:53.998Z</time></trkpt><trkpt lat="42.76825243034902" lon="10.340695686615058"><ele>45.8</ele><time>2026-04-19T07:21:54.998Z</time></trkpt><trkpt lat="42.768253998927335" lon="10.340532659624156"><ele>45.599999999999994</ele><time>2026-04-19T07:21:55.998Z</time></trkpt><trkpt lat="42.768239017596436" lon="10.340380084869734"><ele>45.4</ele><time>2026-04-19T07:21:56.998Z</time></trkpt><trkpt lat="42.76819419581152" lon="10.34026361679959"><ele>45.2</ele><time>2026-04-19T07:21:57.998Z</time></trkpt><trkpt lat="42.768100225918666" lon="10.340181087489423"><ele>45.0</ele><time>2026-04-19T07:21:58.998Z</time></trkpt><trkpt lat="42.767996096131306" lon="10.340126899873125"><ele>45.0</ele><time>2026-04-19T07:21:59.998Z</time></trkpt><trkpt lat="42.76786864911305" lon="10.34011269886925"><ele>45.0</ele><time>2026-04-19T07:22:00.998Z</time></trkpt><trkpt lat="42.767717242978975" lon="10.340063702719451"><ele>45.0</ele><time>2026-04-19T07:22:01.998Z</time></trkpt><trkpt lat="42.76758199124486" lon="10.340178750195593"><ele>45.0</ele><time>2026-04-19T07:22:02.998Z</time></trkpt><trkpt lat="42.76743024025176" lon="10.340228440047849"><ele>46.66666666666667</ele><time>2026-04-19T07:22:03.998Z</time></trkpt><trkpt lat="42.76727817878236" lon="10.340299019419374"><ele>48.333333333333336</ele><time>2026-04-19T07:22:04.998Z</time></trkpt><trkpt lat="42.767120207945226" lon="10.340368713697442"><ele>50.0</ele><time>2026-04-19T07:22:05.998Z</time></trkpt><trkpt lat="42.76695223855407" lon="10.340443609612091"><ele>48.333333333333336</ele><time>2026-04-19T07:22:06.998Z</time></trkpt><trkpt lat="42.76678820525464" lon="10.340524202702992"><ele>46.66666666666667</ele><time>2026-04-19T07:22:07.998Z</time></trkpt><trkpt lat="42.76663776164679" lon="10.340624352843568"><ele>45.0</ele><time>2026-04-19T07:22:08.998Z</time></trkpt><trkpt lat="42.766514747992495" lon="10.340695089190284"><ele>45.0</ele><time>2026-04-19T07:22:09.998Z</time></trkpt><trkpt lat="42.76638241728042" lon="10.340732855352197"><ele>45.0</ele><time>2026-04-19T07:22:10.998Z</time></trkpt><trkpt lat="42.766251461253894" lon="10.340724466298315"><ele>45.0</ele><time>2026-04-19T07:22:11.998Z</time></trkpt><trkpt lat="42.76611534770466" lon="10.340677337489886"><ele>45.0</ele><time>2026-04-19T07:22:12.998Z</time></trkpt><trkpt lat="42.76598305888993" lon="10.340589557576534"><ele>50.33333333333333</ele><time>2026-04-19T07:22:13.998Z</time></trkpt><trkpt lat="42.76585004302155" lon="10.340493584920264"><ele>55.666666666666664</ele><time>2026-04-19T07:22:14.998Z</time></trkpt><trkpt lat="42.765724994074176" lon="10.34036650981265"><ele>61.0</ele><time>2026-04-19T07:22:15.998Z</time></trkpt><trkpt lat="42.76559371162386" lon="10.34025391600516"><ele>61.0</ele><time>2026-04-19T07:22:16.998Z</time></trkpt><trkpt lat="42.76547188687517" lon="10.340149281525658"><ele>61.0</ele><time>2026-04-19T07:22:17.998Z</time></trkpt><trkpt lat="42.765349023753394" lon="10.3400609305926"><ele>61.0</ele><time>2026-04-19T07:22:18.998Z</time></trkpt><trkpt lat="42.76525061656639" lon="10.33994172573941"><ele>61.0</ele><time>2026-04-19T07:22:19.998Z</time></trkpt><trkpt lat="42.76516885324558" lon="10.339829989897245"><ele>59.25</ele><time>2026-04-19T07:22:20.998Z</time></trkpt><trkpt lat="42.76511136565898" lon="10.339699341407155"><ele>57.5</ele><time>2026-04-19T07:22:21.998Z</time></trkpt><trkpt lat="42.76508056584947" lon="10.33955386997336"><ele>55.75</ele><time>2026-04-19T07:22:22.998Z</time></trkpt><trkpt lat="42.76507355878359" lon="10.339391076712653"><ele>54.0</ele><time>2026-04-19T07:22:23.998Z</time></trkpt><trkpt lat="42.76507442603377" lon="10.339216838226854"><ele>54.0</ele><time>2026-04-19T07:22:24.998Z</time></trkpt><trkpt lat="42.76507044042272" lon="10.339042785122272"><ele>54.0</ele><time>2026-04-19T07:22:25.998Z</time></trkpt><trkpt lat="42.765054820200525" lon="10.338857944849883"><ele>54.0</ele><time>2026-04-19T07:22:26.998Z</time></trkpt><trkpt lat="42.76500622367214" lon="10.338682706995154"><ele>54.0</ele><time>2026-04-19T07:22:27.998Z</time></trkpt><trkpt lat="42.764964003738775" lon="10.338499208487173"><ele>57.5</ele><time>2026-04-19T07:22:28.998Z</time></trkpt><trkpt lat="42.764893771846495" lon="10.338316424968097"><ele>61.0</ele><time>2026-04-19T07:22:29.998Z</time></trkpt><trkpt lat="42.76480797586226" lon="10.338153901827564"><ele>64.5</ele><time>2026-04-19T07:22:30.998Z</time></trkpt><trkpt lat="42.76472598134755" lon="10.338025100945975"><ele>68.0</ele><time>2026-04-19T07:22:31.998Z</time></trkpt><trkpt lat="42.76466800644138" lon="10.33789523245582"><ele>68.66666666666667</ele><time>2026-04-19T07:22:32.998Z</time></trkpt><trkpt lat="42.76461331132158" lon="10.337792974916413"><ele>69.33333333333334</ele><time>2026-04-19T07:22:33.998Z</time></trkpt><trkpt lat="42.76456279824672" lon="10.337718810963489"><ele>70.0</ele><time>2026-04-19T07:22:34.998Z</time></trkpt><trkpt lat="42.76455998484456" lon="10.337620365991892"><ele>70.66666666666667</ele><time>2026-04-19T07:22:35.998Z</time></trkpt><trkpt lat="42.764585289796926" lon="10.337524934942065"><ele>71.33333333333333</ele><time>2026-04-19T07:22:36.998Z</time></trkpt><trkpt lat="42.76468951925054" lon="10.337478784284638"><ele>72.0</ele><time>2026-04-19T07:22:37.998Z</time></trkpt><trkpt lat="42.76474341258433" lon="10.337373518340833"><ele>72.0</ele><time>2026-04-19T07:22:38.998Z</time></trkpt><trkpt lat="42.76479132597031" lon="10.337270743967569"><ele>72.0</ele><time>2026-04-19T07:22:39.998Z</time></trkpt><trkpt lat="42.76482228774685" lon="10.337165963341498"><ele>72.0</ele><time>2026-04-19T07:22:40.998Z</time></trkpt><trkpt lat="42.76484383848401" lon="10.337057344710253"><ele>72.0</ele><time>2026-04-19T07:22:41.998Z</time></trkpt><trkpt lat="42.76483536323995" lon="10.336930360791923"><ele>72.0</ele><time>2026-04-19T07:22:42.998Z</time></trkpt><trkpt lat="42.76482651337032" lon="10.336804026971265"><ele>72.0</ele><time>2026-04-19T07:22:43.998Z</time></trkpt><trkpt lat="42.76480748146461" lon="10.336663604302096"><ele>72.0</ele><time>2026-04-19T07:22:44.998Z</time></trkpt><trkpt lat="42.764800024243875" lon="10.33651180368355"><ele>72.0</ele><time>2026-04-19T07:22:45.998Z</time></trkpt><trkpt lat="42.764802054197105" lon="10.336351369289673"><ele>72.0</ele><time>2026-04-19T07:22:46.998Z</time></trkpt><trkpt lat="42.76482296168835" lon="10.336172625888453"><ele>72.0</ele><time>2026-04-19T07:22:47.998Z</time></trkpt><trkpt lat="42.7648208999283" lon="10.335980185879876"><ele>72.0</ele><time>2026-04-19T07:22:48.998Z</time></trkpt><trkpt lat="42.76477923415068" lon="10.335805781169848"><ele>72.0</ele><time>2026-04-19T07:22:49.998Z</time></trkpt><trkpt lat="42.76471863281315" lon="10.335651576495755"><ele>72.0</ele><time>2026-04-19T07:22:50.998Z</time></trkpt><trkpt lat="42.76466081764892" lon="10.335509038117555"><ele>72.0</ele><time>2026-04-19T07:22:51.998Z</time></trkpt><trkpt lat="42.76462239256144" lon="10.335360692381487"><ele>71.8</ele><time>2026-04-19T07:22:52.998Z</time></trkpt><trkpt lat="42.76464177590134" lon="10.335210555899533"><ele>71.6</ele><time>2026-04-19T07:22:53.998Z</time></trkpt><trkpt lat="42.764709094971124" lon="10.335111866079137"><ele>71.39999999999999</ele><time>2026-04-19T07:22:54.998Z</time></trkpt><trkpt lat="42.76477637509353" lon="10.334992914127033"><ele>71.2</ele><time>2026-04-19T07:22:55.998Z</time></trkpt><trkpt lat="42.76483176224606" lon="10.33484936044092"><ele>71.0</ele><time>2026-04-19T07:22:56.998Z</time></trkpt><trkpt lat="42.764875582248514" lon="10.334698736052154"><ele>70.0</ele><time>2026-04-19T07:22:57.998Z</time></trkpt><trkpt lat="42.76489384089654" lon="10.334537272873638"><ele>69.0</ele><time>2026-04-19T07:22:58.998Z</time></trkpt><trkpt lat="42.76489819766458" lon="10.334386485032601"><ele>68.0</ele><time>2026-04-19T07:22:59.998Z</time></trkpt><trkpt lat="42.7648856013077" lon="10.334242106302746"><ele>67.0</ele><time>2026-04-19T07:23:00.998Z</time></trkpt><trkpt lat="42.76484960217878" lon="10.33410619506918"><ele>66.0</ele><time>2026-04-19T07:23:01.998Z</time></trkpt><trkpt lat="42.76478307277539" lon="10.333973341097247"><ele>67.75</ele><time>2026-04-19T07:23:02.998Z</time></trkpt><trkpt lat="42.764711156971984" lon="10.333838042616579"><ele>69.5</ele><time>2026-04-19T07:23:03.998Z</time></trkpt><trkpt lat="42.76463963465762" lon="10.333704783945802"><ele>71.25</ele><time>2026-04-19T07:23:04.998Z</time></trkpt><trkpt lat="42.76456856289635" lon="10.33359738555679"><ele>73.0</ele><time>2026-04-19T07:23:05.998Z</time></trkpt><trkpt lat="42.7644795560469" lon="10.333524002134395"><ele>73.0</ele><time>2026-04-19T07:23:06.998Z</time></trkpt><trkpt lat="42.76439806978231" lon="10.33345914393208"><ele>73.0</ele><time>2026-04-19T07:23:07.998Z</time></trkpt><trkpt lat="42.76433549091845" lon="10.333367919138514"><ele>73.0</ele><time>2026-04-19T07:23:08.998Z</time></trkpt><trkpt lat="42.764307834270745" lon="10.333223944733216"><ele>73.0</ele><time>2026-04-19T07:23:09.998Z</time></trkpt><trkpt lat="42.764293832366235" lon="10.333067315932274"><ele>73.0</ele><time>2026-04-19T07:23:10.998Z</time></trkpt><trkpt lat="42.76425090929379" lon="10.332921578234961"><ele>71.2</ele><time>2026-04-19T07:23:11.998Z</time></trkpt><trkpt lat="42.76422071229302" lon="10.332800409130169"><ele>69.4</ele><time>2026-04-19T07:23:12.998Z</time></trkpt><trkpt lat="42.764147484679484" lon="10.332706807721776"><ele>67.60000000000001</ele><time>2026-04-19T07:23:13.998Z</time></trkpt><trkpt lat="42.76406260534961" lon="10.332650330462924"><ele>65.8</ele><time>2026-04-19T07:23:14.998Z</time></trkpt><trkpt lat="42.7639578272028" lon="10.332622836751309"><ele>64.0</ele><time>2026-04-19T07:23:15.998Z</time></trkpt><trkpt lat="42.76384117856069" lon="10.332616524934435"><ele>64.0</ele><time>2026-04-19T07:23:16.998Z</time></trkpt><trkpt lat="42.76372617046772" lon="10.33257681885339"><ele>64.0</ele><time>2026-04-19T07:23:17.998Z</time></trkpt><trkpt lat="42.76359948191031" lon="10.332505757938799"><ele>64.0</ele><time>2026-04-19T07:23:18.998Z</time></trkpt><trkpt lat="42.763492750050695" lon="10.332399680002542"><ele>64.0</ele><time>2026-04-19T07:23:19.998Z</time></trkpt><trkpt lat="42.76337573649866" lon="10.332274272696306"><ele>65.25</ele><time>2026-04-19T07:23:20.998Z</time></trkpt><trkpt lat="42.76326717464084" lon="10.33217392847155"><ele>66.5</ele><time>2026-04-19T07:23:21.998Z</time></trkpt><trkpt lat="42.76316505625402" lon="10.332083659039123"><ele>67.75</ele><time>2026-04-19T07:23:22.998Z</time></trkpt><trkpt lat="42.7630603069445" lon="10.331988482478323"><ele>69.0</ele><time>2026-04-19T07:23:23.998Z</time></trkpt><trkpt lat="42.762964270918665" lon="10.331894241798768"><ele>69.0</ele><time>2026-04-19T07:23:24.998Z</time></trkpt><trkpt lat="42.76286577726226" lon="10.33180144151901"><ele>69.0</ele><time>2026-04-19T07:23:25.998Z</time></trkpt><trkpt lat="42.7627724640704" lon="10.331706352785176"><ele>69.0</ele><time>2026-04-19T07:23:26.998Z</time></trkpt><trkpt lat="42.762678088650986" lon="10.331626697743424"><ele>69.0</ele><time>2026-04-19T07:23:27.998Z</time></trkpt><trkpt lat="42.76256846033388" lon="10.331576770796278"><ele>69.25</ele><time>2026-04-19T07:23:28.998Z</time></trkpt><trkpt lat="42.76245777580601" lon="10.331531489555259"><ele>69.5</ele><time>2026-04-19T07:23:29.998Z</time></trkpt><trkpt lat="42.76233930040582" lon="10.331497627008202"><ele>69.75</ele><time>2026-04-19T07:23:30.998Z</time></trkpt><trkpt lat="42.762222735120325" lon="10.331433705811774"><ele>70.0</ele><time>2026-04-19T07:23:31.998Z</time></trkpt><trkpt lat="42.76211046547617" lon="10.331339928053417"><ele>70.0</ele><time>2026-04-19T07:23:32.998Z</time></trkpt><trkpt lat="42.76202546002451" lon="10.331208612061326"><ele>70.0</ele><time>2026-04-19T07:23:33.998Z</time></trkpt><trkpt lat="42.761980367663895" lon="10.331031505136776"><ele>70.0</ele><time>2026-04-19T07:23:34.998Z</time></trkpt><trkpt lat="42.761958815460474" lon="10.330858953450834"><ele>70.0</ele><time>2026-04-19T07:23:35.998Z</time></trkpt><trkpt lat="42.761947917318544" lon="10.330653067423784"><ele>67.5</ele><time>2026-04-19T07:23:36.998Z</time></trkpt><trkpt lat="42.761971437873825" lon="10.330465621097881"><ele>65.0</ele><time>2026-04-19T07:23:37.998Z</time></trkpt><trkpt lat="42.76200277512165" lon="10.330285744500326"><ele>62.5</ele><time>2026-04-19T07:23:38.998Z</time></trkpt><trkpt lat="42.76204972607797" lon="10.330118530920656"><ele>60.0</ele><time>2026-04-19T07:23:39.998Z</time></trkpt><trkpt lat="42.762115175720055" lon="10.329997706358174"><ele>60.0</ele><time>2026-04-19T07:23:40.998Z</time></trkpt><trkpt lat="42.7622070746848" lon="10.329936944698396"><ele>60.0</ele><time>2026-04-19T07:23:41.998Z</time></trkpt><trkpt lat="42.76230559574419" lon="10.329927928776957"><ele>60.0</ele><time>2026-04-19T07:23:42.998Z</time></trkpt><trkpt lat="42.76239812464974" lon="10.329958656753524"><ele>60.0</ele><time>2026-04-19T07:23:43.998Z</time></trkpt><trkpt lat="42.76248046346184" lon="10.329957007648341"><ele>60.0</ele><time>2026-04-19T07:23:44.998Z</time></trkpt><trkpt lat="42.7626360199737" lon="10.329860750684455"><ele>56.75</ele><time>2026-04-19T07:23:46.998Z</time></trkpt><trkpt lat="42.76269941312676" lon="10.329756647966228"><ele>53.5</ele><time>2026-04-19T07:23:47.998Z</time></trkpt><trkpt lat="42.76267564163582" lon="10.329569917743694"><ele>50.25</ele><time>2026-04-19T07:23:48.998Z</time></trkpt><trkpt lat="42.762671986884186" lon="10.329406932309539"><ele>47.0</ele><time>2026-04-19T07:23:49.998Z</time></trkpt><trkpt lat="42.76267664270554" lon="10.329265424124108"><ele>47.0</ele><time>2026-04-19T07:23:50.998Z</time></trkpt><trkpt lat="42.76269448094725" lon="10.329164929664254"><ele>47.0</ele><time>2026-04-19T07:23:51.998Z</time></trkpt><trkpt lat="42.762745975759834" lon="10.329095935206386"><ele>47.0</ele><time>2026-04-19T07:23:52.998Z</time></trkpt><trkpt lat="42.762826257453746" lon="10.32906417508296"><ele>47.0</ele><time>2026-04-19T07:23:53.998Z</time></trkpt><trkpt lat="42.76290840782413" lon="10.328987470080827"><ele>47.0</ele><time>2026-04-19T07:23:54.998Z</time></trkpt><trkpt lat="42.76299517043957" lon="10.3289035011527"><ele>47.0</ele><time>2026-04-19T07:23:55.998Z</time></trkpt><trkpt lat="42.76307588100344" lon="10.328779837122768"><ele>47.400000000000006</ele><time>2026-04-19T07:23:56.998Z</time></trkpt><trkpt lat="42.76312942961778" lon="10.32866589738735"><ele>47.800000000000004</ele><time>2026-04-19T07:23:57.998Z</time></trkpt><trkpt lat="42.763200431998904" lon="10.328563628057339"><ele>48.2</ele><time>2026-04-19T07:23:58.998Z</time></trkpt><trkpt lat="42.76327284907647" lon="10.328469150006645"><ele>48.6</ele><time>2026-04-19T07:23:59.998Z</time></trkpt><trkpt lat="42.76334539186816" lon="10.328399709899418"><ele>49.0</ele><time>2026-04-19T07:24:00.998Z</time></trkpt><trkpt lat="42.763399231560825" lon="10.328308774102986"><ele>50.75</ele><time>2026-04-19T07:24:01.998Z</time></trkpt><trkpt lat="42.7636055090714" lon="10.328406866311104"><ele>52.5</ele><time>2026-04-19T07:24:02.998Z</time></trkpt><trkpt lat="42.76371988376055" lon="10.328416909436609"><ele>54.25</ele><time>2026-04-19T07:24:03.998Z</time></trkpt><trkpt lat="42.76382286907283" lon="10.328443844942349"><ele>56.0</ele><time>2026-04-19T07:24:04.998Z</time></trkpt><trkpt lat="42.76393195406957" lon="10.328482715726198"><ele>56.0</ele><time>2026-04-19T07:24:05.998Z</time></trkpt><trkpt lat="42.764025808423334" lon="10.328542682380542"><ele>55.99999999999999</ele><time>2026-04-19T07:24:06.998Z</time></trkpt><trkpt lat="42.76413407536834" lon="10.328575645504891"><ele>55.99999999999999</ele><time>2026-04-19T07:24:07.998Z</time></trkpt><trkpt lat="42.764227144029974" lon="10.32859932712064"><ele>56.0</ele><time>2026-04-19T07:24:08.998Z</time></trkpt><trkpt lat="42.76430713474343" lon="10.328565810201667"><ele>56.0</ele><time>2026-04-19T07:24:09.998Z</time></trkpt><trkpt lat="42.7643860275287" lon="10.328482170639393"><ele>59.199999999999996</ele><time>2026-04-19T07:24:10.998Z</time></trkpt><trkpt lat="42.76443479848186" lon="10.328389844986008"><ele>62.39999999999999</ele><time>2026-04-19T07:24:11.998Z</time></trkpt><trkpt lat="42.76444693101935" lon="10.328276243946181"><ele>65.6</ele><time>2026-04-19T07:24:12.998Z</time></trkpt><trkpt lat="42.764425214716155" lon="10.328134375189988"><ele>68.8</ele><time>2026-04-19T07:24:13.998Z</time></trkpt><trkpt lat="42.76438473001379" lon="10.328004558031576"><ele>72.0</ele><time>2026-04-19T07:24:14.998Z</time></trkpt><trkpt lat="42.764374749670154" lon="10.327878995164237"><ele>72.0</ele><time>2026-04-19T07:24:15.998Z</time></trkpt><trkpt lat="42.76437774796746" lon="10.327740937720336"><ele>72.0</ele><time>2026-04-19T07:24:16.998Z</time></trkpt><trkpt lat="42.764390463442695" lon="10.327607261569842"><ele>72.0</ele><time>2026-04-19T07:24:17.998Z</time></trkpt><trkpt lat="42.76441510493037" lon="10.327476605415985"><ele>72.0</ele><time>2026-04-19T07:24:18.998Z</time></trkpt><trkpt lat="42.76442652385862" lon="10.327355365138244"><ele>72.0</ele><time>2026-04-19T07:24:19.998Z</time></trkpt><trkpt lat="42.76441056958914" lon="10.327230920416392"><ele>71.6</ele><time>2026-04-19T07:24:20.998Z</time></trkpt><trkpt lat="42.76437203020233" lon="10.32712005101638"><ele>71.2</ele><time>2026-04-19T07:24:21.998Z</time></trkpt><trkpt lat="42.76430542093641" lon="10.327001269017599"><ele>70.8</ele><time>2026-04-19T07:24:22.998Z</time></trkpt><trkpt lat="42.76424283104575" lon="10.326874685624427"><ele>70.4</ele><time>2026-04-19T07:24:23.998Z</time></trkpt><trkpt lat="42.76421333528167" lon="10.326735691817458"><ele>70.0</ele><time>2026-04-19T07:24:24.998Z</time></trkpt><trkpt lat="42.76421118982956" lon="10.326570343626672"><ele>63.5</ele><time>2026-04-19T07:24:25.998Z</time></trkpt><trkpt lat="42.764209369876674" lon="10.326402857142268"><ele>57.0</ele><time>2026-04-19T07:24:26.998Z</time></trkpt><trkpt lat="42.76422207937626" lon="10.326232030567772"><ele>50.5</ele><time>2026-04-19T07:24:27.998Z</time></trkpt><trkpt lat="42.764280880498234" lon="10.32607479713221"><ele>44.0</ele><time>2026-04-19T07:24:28.998Z</time></trkpt><trkpt lat="42.76431994322694" lon="10.325919805991122"><ele>44.2</ele><time>2026-04-19T07:24:29.998Z</time></trkpt><trkpt lat="42.76435478279576" lon="10.325779301790114"><ele>44.400000000000006</ele><time>2026-04-19T07:24:30.998Z</time></trkpt><trkpt lat="42.764411413683604" lon="10.325654658984787"><ele>44.6</ele><time>2026-04-19T07:24:31.998Z</time></trkpt><trkpt lat="42.76449545492989" lon="10.32556258837391"><ele>44.8</ele><time>2026-04-19T07:24:32.998Z</time></trkpt><trkpt lat="42.76457736867155" lon="10.32547598231975"><ele>45.0</ele><time>2026-04-19T07:24:33.998Z</time></trkpt><trkpt lat="42.764644795319875" lon="10.32538541514806"><ele>45.0</ele><time>2026-04-19T07:24:34.998Z</time></trkpt><trkpt lat="42.7647164511198" lon="10.325320505743862"><ele>45.0</ele><time>2026-04-19T07:24:35.998Z</time></trkpt><trkpt lat="42.764782367412884" lon="10.32526984544429"><ele>45.0</ele><time>2026-04-19T07:24:36.998Z</time></trkpt><trkpt lat="42.76484145421102" lon="10.32521159596585"><ele>45.0</ele><time>2026-04-19T07:24:37.998Z</time></trkpt><trkpt lat="42.764925347699034" lon="10.325108077247167"><ele>45.0</ele><time>2026-04-19T07:24:39.998Z</time></trkpt><trkpt lat="42.76494621025935" lon="10.324944551676907"><ele>45.0</ele><time>2026-04-19T07:24:41.998Z</time></trkpt><trkpt lat="42.76500009193968" lon="10.324785411309508"><ele>45.0</ele><time>2026-04-19T07:24:43.998Z</time></trkpt><trkpt lat="42.76507777127738" lon="10.32466974487098"><ele>45.0</ele><time>2026-04-19T07:24:45.998Z</time></trkpt><trkpt lat="42.765133129769595" lon="10.324619217280764"><ele>45.0</ele><time>2026-04-19T07:24:46.998Z</time></trkpt><trkpt lat="42.76520596443925" lon="10.324580241891022"><ele>45.0</ele><time>2026-04-19T07:24:47.998Z</time></trkpt><trkpt lat="42.76527408189302" lon="10.32455164446227"><ele>45.333333333333336</ele><time>2026-04-19T07:24:48.998Z</time></trkpt><trkpt lat="42.76537575797918" lon="10.324505569343337"><ele>45.66666666666667</ele><time>2026-04-19T07:24:50.998Z</time></trkpt><trkpt lat="42.765458665650584" lon="10.324462333704574"><ele>46.0</ele><time>2026-04-19T07:24:52.998Z</time></trkpt><trkpt lat="42.76566408760509" lon="10.324977556587472"><ele>47.199999999999996</ele><time>2026-04-19T07:24:55.998Z</time></trkpt><trkpt lat="42.76571077288729" lon="10.325043770821473"><ele>48.4</ele><time>2026-04-19T07:24:56.998Z</time></trkpt><trkpt lat="42.7657554933244" lon="10.325121447538807"><ele>49.6</ele><time>2026-04-19T07:24:57.998Z</time></trkpt><trkpt lat="42.76581216615766" lon="10.325266596260166"><ele>50.8</ele><time>2026-04-19T07:24:59.998Z</time></trkpt><trkpt lat="42.76586188832672" lon="10.325368305278458"><ele>52.0</ele><time>2026-04-19T07:25:01.998Z</time></trkpt><trkpt lat="42.765960831167455" lon="10.325484321175452"><ele>55.0</ele><time>2026-04-19T07:25:03.998Z</time></trkpt><trkpt lat="42.76602211770653" lon="10.325627125737748"><ele>58.0</ele><time>2026-04-19T07:25:05.998Z</time></trkpt><trkpt lat="42.7660757804529" lon="10.32575802483651"><ele>61.0</ele><time>2026-04-19T07:25:07.998Z</time></trkpt><trkpt lat="42.766116631501454" lon="10.325881834080375"><ele>64.0</ele><time>2026-04-19T07:25:09.998Z</time></trkpt><trkpt lat="42.76615175072842" lon="10.326038632554358"><ele>64.0</ele><time>2026-04-19T07:25:11.998Z</time></trkpt><trkpt lat="42.76621650411656" lon="10.326176010667703"><ele>64.0</ele><time>2026-04-19T07:25:13.998Z</time></trkpt><trkpt lat="42.766233853096836" lon="10.32626690101759"><ele>64.0</ele><time>2026-04-19T07:25:14.998Z</time></trkpt><trkpt lat="42.76623367992896" lon="10.326393170667455"><ele>64.0</ele><time>2026-04-19T07:25:16.998Z</time></trkpt><trkpt lat="42.7663248547244" lon="10.32645735074147"><ele>64.0</ele><time>2026-04-19T07:25:18.998Z</time></trkpt><trkpt lat="42.76644905933986" lon="10.326435077284321"><ele>66.2</ele><time>2026-04-19T07:25:20.998Z</time></trkpt><trkpt lat="42.76654499924512" lon="10.326492009970087"><ele>68.4</ele><time>2026-04-19T07:25:22.998Z</time></trkpt><trkpt lat="42.766607552227605" lon="10.32652201543805"><ele>70.6</ele><time>2026-04-19T07:25:23.998Z</time></trkpt><trkpt lat="42.76671888066066" lon="10.326560394839644"><ele>72.8</ele><time>2026-04-19T07:25:25.998Z</time></trkpt><trkpt lat="42.76682000139469" lon="10.326606652151147"><ele>75.0</ele><time>2026-04-19T07:25:27.998Z</time></trkpt><trkpt lat="42.76689938069731" lon="10.326653215917265"><ele>76.16666666666667</ele><time>2026-04-19T07:25:31.998Z</time></trkpt><trkpt lat="42.76698084869322" lon="10.326690688335205"><ele>77.33333333333333</ele><time>2026-04-19T07:25:33.998Z</time></trkpt><trkpt lat="42.76708287053567" lon="10.326747212041564"><ele>78.5</ele><time>2026-04-19T07:25:35.998Z</time></trkpt><trkpt lat="42.76714700950754" lon="10.326796591079091"><ele>79.66666666666666</ele><time>2026-04-19T07:25:36.998Z</time></trkpt><trkpt lat="42.767214710212436" lon="10.326840031442948"><ele>80.83333333333333</ele><time>2026-04-19T07:25:37.998Z</time></trkpt><trkpt lat="42.76728061119081" lon="10.326876101548676"><ele>82.0</ele><time>2026-04-19T07:25:38.998Z</time></trkpt><trkpt lat="42.76737528781804" lon="10.32693092556065"><ele>82.0</ele><time>2026-04-19T07:25:40.998Z</time></trkpt><trkpt lat="42.767439042405606" lon="10.3270222600713"><ele>82.0</ele><time>2026-04-19T07:25:43.998Z</time></trkpt><trkpt lat="42.767412307016755" lon="10.32710893881996"><ele>82.0</ele><time>2026-04-19T07:25:46.998Z</time></trkpt><trkpt lat="42.767336711360585" lon="10.327143466071492"><ele>82.0</ele><time>2026-04-19T07:25:48.998Z</time></trkpt><trkpt lat="42.767273898073995" lon="10.32713038499266"><ele>82.0</ele><time>2026-04-19T07:25:50.998Z</time></trkpt><trkpt lat="42.76720233706207" lon="10.327107325386251"><ele>82.0</ele><time>2026-04-19T07:25:58.998Z</time></trkpt><trkpt lat="42.76712622607543" lon="10.327096805950164"><ele>82.0</ele><time>2026-04-19T07:26:00.998Z</time></trkpt><trkpt lat="42.76703965409286" lon="10.32710363060028"><ele>82.0</ele><time>2026-04-19T07:26:02.998Z</time></trkpt><trkpt lat="42.76692943170172" lon="10.327115140365969"><ele>82.0</ele><time>2026-04-19T07:26:04.998Z</time></trkpt><trkpt lat="42.76686139167508" lon="10.327130142234584"><ele>82.0</ele><time>2026-04-19T07:26:05.998Z</time></trkpt><trkpt lat="42.766785252660064" lon="10.327094222218404"><ele>82.0</ele><time>2026-04-19T07:26:06.998Z</time></trkpt><trkpt lat="42.76671261280183" lon="10.327142890262772"><ele>82.0</ele><time>2026-04-19T07:26:07.998Z</time></trkpt><trkpt lat="42.76663923317423" lon="10.327184729132224"><ele>80.25</ele><time>2026-04-19T07:26:08.998Z</time></trkpt><trkpt lat="42.766579710901745" lon="10.32721866695203"><ele>78.5</ele><time>2026-04-19T07:26:09.998Z</time></trkpt><trkpt lat="42.76646504823443" lon="10.327284044179493"><ele>76.75</ele><time>2026-04-19T07:26:11.998Z</time></trkpt><trkpt lat="42.76649643309906" lon="10.327554474674901"><ele>75.0</ele><time>2026-04-19T07:26:12.998Z</time></trkpt><trkpt lat="42.766459272911625" lon="10.327641116312508"><ele>76.99999999999999</ele><time>2026-04-19T07:26:13.998Z</time></trkpt><trkpt lat="42.7664222143109" lon="10.327713900865092"><ele>79.0</ele><time>2026-04-19T07:26:14.998Z</time></trkpt><trkpt lat="42.76632291532305" lon="10.327789325745439"><ele>81.0</ele><time>2026-04-19T07:26:16.998Z</time></trkpt><trkpt lat="42.766263568880696" lon="10.327821192435406"><ele>83.0</ele><time>2026-04-19T07:26:17.998Z</time></trkpt><trkpt lat="42.76620744759387" lon="10.327860347938715"><ele>85.0</ele><time>2026-04-19T07:26:18.998Z</time></trkpt><trkpt lat="42.76613915844413" lon="10.327887026793222"><ele>86.99999999999999</ele><time>2026-04-19T07:26:19.998Z</time></trkpt><trkpt lat="42.76607469033287" lon="10.32792330007159"><ele>89.0</ele><time>2026-04-19T07:26:20.998Z</time></trkpt><trkpt lat="42.76599247574842" lon="10.327963241863657"><ele>89.0</ele><time>2026-04-19T07:26:21.998Z</time></trkpt><trkpt lat="42.76588877428367" lon="10.328052120375245"><ele>89.0</ele><time>2026-04-19T07:26:23.998Z</time></trkpt><trkpt lat="42.76584205263194" lon="10.32813492460101"><ele>89.0</ele><time>2026-04-19T07:26:24.998Z</time></trkpt><trkpt lat="42.765811796125725" lon="10.328219401297721"><ele>89.0</ele><time>2026-04-19T07:26:25.998Z</time></trkpt><trkpt lat="42.76578626519269" lon="10.3283109384386"><ele>89.0</ele><time>2026-04-19T07:26:26.998Z</time></trkpt><trkpt lat="42.76575829436095" lon="10.328401953236233"><ele>89.0</ele><time>2026-04-19T07:26:27.998Z</time></trkpt><trkpt lat="42.765751151593314" lon="10.328503789086252"><ele>91.5</ele><time>2026-04-19T07:26:28.998Z</time></trkpt><trkpt lat="42.76576054684473" lon="10.328608221986814"><ele>94.0</ele><time>2026-04-19T07:26:29.998Z</time></trkpt><trkpt lat="42.765766296586854" lon="10.328709101046524"><ele>96.5</ele><time>2026-04-19T07:26:30.998Z</time></trkpt><trkpt lat="42.76574910436858" lon="10.328799169332187"><ele>99.0</ele><time>2026-04-19T07:26:31.998Z</time></trkpt><trkpt lat="42.76574241629023" lon="10.32890992773331"><ele>101.49999999999999</ele><time>2026-04-19T07:26:32.998Z</time></trkpt><trkpt lat="42.765777484787975" lon="10.329089211320484"><ele>104.0</ele><time>2026-04-19T07:26:34.998Z</time></trkpt><trkpt lat="42.76582115476686" lon="10.329181572015191"><ele>104.83333333333333</ele><time>2026-04-19T07:26:35.998Z</time></trkpt><trkpt lat="42.76587120510754" lon="10.329252406622716"><ele>105.66666666666666</ele><time>2026-04-19T07:26:36.998Z</time></trkpt><trkpt lat="42.76593349227571" lon="10.329301702271595"><ele>106.5</ele><time>2026-04-19T07:26:37.998Z</time></trkpt><trkpt lat="42.76600219362453" lon="10.32933131009753"><ele>107.33333333333334</ele><time>2026-04-19T07:26:38.998Z</time></trkpt><trkpt lat="42.766057853787665" lon="10.32937426923483"><ele>108.16666666666667</ele><time>2026-04-19T07:26:39.998Z</time></trkpt><trkpt lat="42.76611057225327" lon="10.329428829928995"><ele>109.0</ele><time>2026-04-19T07:26:40.998Z</time></trkpt><trkpt lat="42.76618445898333" lon="10.329551870787192"><ele>114.4</ele><time>2026-04-19T07:26:42.998Z</time></trkpt><trkpt lat="42.7662754774077" lon="10.329643576902257"><ele>119.80000000000001</ele><time>2026-04-19T07:26:44.998Z</time></trkpt><trkpt lat="42.766347523692474" lon="10.32958585002978"><ele>125.19999999999999</ele><time>2026-04-19T07:26:46.998Z</time></trkpt><trkpt lat="42.76627535191577" lon="10.329469233526563"><ele>130.6</ele><time>2026-04-19T07:26:48.998Z</time></trkpt><trkpt lat="42.766221865258494" lon="10.329405154384403"><ele>136.0</ele><time>2026-04-19T07:26:49.998Z</time></trkpt><trkpt lat="42.76618260035977" lon="10.329319284207001"><ele>136.0</ele><time>2026-04-19T07:26:50.998Z</time></trkpt><trkpt lat="42.76615618750087" lon="10.329212828745964"><ele>136.0</ele><time>2026-04-19T07:26:51.998Z</time></trkpt><trkpt lat="42.766134671881744" lon="10.329093932978369"><ele>136.0</ele><time>2026-04-19T07:26:52.998Z</time></trkpt><trkpt lat="42.76612554460043" lon="10.328994635197795"><ele>136.0</ele><time>2026-04-19T07:26:53.998Z</time></trkpt><trkpt lat="42.76617293989414" lon="10.32884483937263"><ele>136.0</ele><time>2026-04-19T07:26:55.998Z</time></trkpt><trkpt lat="42.76623599243093" lon="10.328802172568507"><ele>136.0</ele><time>2026-04-19T07:26:56.998Z</time></trkpt><trkpt lat="42.76630157561449" lon="10.328797649803699"><ele>133.33333333333334</ele><time>2026-04-19T07:26:57.998Z</time></trkpt><trkpt lat="42.76636642312178" lon="10.328808086333057"><ele>130.66666666666669</ele><time>2026-04-19T07:26:58.998Z</time></trkpt><trkpt lat="42.76645230883139" lon="10.328816087031518"><ele>128.0</ele><time>2026-04-19T07:26:59.998Z</time></trkpt><trkpt lat="42.76653611347004" lon="10.328799965179934"><ele>125.33333333333334</ele><time>2026-04-19T07:27:00.998Z</time></trkpt><trkpt lat="42.766616793289906" lon="10.328757495085744"><ele>122.66666666666667</ele><time>2026-04-19T07:27:01.998Z</time></trkpt><trkpt lat="42.766709903540566" lon="10.328739952316658"><ele>120.0</ele><time>2026-04-19T07:27:02.998Z</time></trkpt><trkpt lat="42.7667888282643" lon="10.328736207257549"><ele>120.0</ele><time>2026-04-19T07:27:03.998Z</time></trkpt><trkpt lat="42.766859920892436" lon="10.328752193395355"><ele>120.0</ele><time>2026-04-19T07:27:04.998Z</time></trkpt><trkpt lat="42.76696934425184" lon="10.328852473029492"><ele>120.0</ele><time>2026-04-19T07:27:06.998Z</time></trkpt><trkpt lat="42.76700859909514" lon="10.328990636086104"><ele>120.0</ele><time>2026-04-19T07:27:08.998Z</time></trkpt><trkpt lat="42.76691729594553" lon="10.329040714093416"><ele>120.0</ele><time>2026-04-19T07:27:10.998Z</time></trkpt><trkpt lat="42.76680257424352" lon="10.329036028338255"><ele>123.2</ele><time>2026-04-19T07:27:12.998Z</time></trkpt><trkpt lat="42.76677807229257" lon="10.329142915609065"><ele>126.4</ele><time>2026-04-19T07:27:14.998Z</time></trkpt><trkpt lat="42.766857076141754" lon="10.329292553093884"><ele>129.6</ele><time>2026-04-19T07:27:16.998Z</time></trkpt><trkpt lat="42.76693261443772" lon="10.329346408981785"><ele>132.8</ele><time>2026-04-19T07:27:17.998Z</time></trkpt><trkpt lat="42.76700936336613" lon="10.329410109750537"><ele>136.0</ele><time>2026-04-19T07:27:18.998Z</time></trkpt><trkpt lat="42.76708997322925" lon="10.3294827374723"><ele>137.0</ele><time>2026-04-19T07:27:19.998Z</time></trkpt><trkpt lat="42.7671677927253" lon="10.329549931577068"><ele>138.0</ele><time>2026-04-19T07:27:20.998Z</time></trkpt><trkpt lat="42.76723937159761" lon="10.329606551987922"><ele>139.0</ele><time>2026-04-19T07:27:21.998Z</time></trkpt><trkpt lat="42.76730934636478" lon="10.329662668534306"><ele>140.0</ele><time>2026-04-19T07:27:22.998Z</time></trkpt><trkpt lat="42.767418062114594" lon="10.329729016177147"><ele>141.0</ele><time>2026-04-19T07:27:24.998Z</time></trkpt><trkpt lat="42.767479370232444" lon="10.329769341709316"><ele>142.0</ele><time>2026-04-19T07:27:25.998Z</time></trkpt><trkpt lat="42.76755218814152" lon="10.329843588422447"><ele>144.0</ele><time>2026-04-19T07:27:26.998Z</time></trkpt><trkpt lat="42.76763103275095" lon="10.329941677092874"><ele>146.0</ele><time>2026-04-19T07:27:27.998Z</time></trkpt><trkpt lat="42.767683700501486" lon="10.330021255848385"><ele>148.0</ele><time>2026-04-19T07:27:28.998Z</time></trkpt><trkpt lat="42.76772660948745" lon="10.33010428079921"><ele>150.0</ele><time>2026-04-19T07:27:29.998Z</time></trkpt><trkpt lat="42.76778172520576" lon="10.330194719637836"><ele>152.0</ele><time>2026-04-19T07:27:30.998Z</time></trkpt><trkpt lat="42.76783691422625" lon="10.330300205146518"><ele>154.0</ele><time>2026-04-19T07:27:31.998Z</time></trkpt><trkpt lat="42.76788011152605" lon="10.330393641892744"><ele>157.0</ele><time>2026-04-19T07:27:32.998Z</time></trkpt><trkpt lat="42.7679431017021" lon="10.330474691851814"><ele>160.0</ele><time>2026-04-19T07:27:33.998Z</time></trkpt><trkpt lat="42.76801697043735" lon="10.33058042500908"><ele>163.0</ele><time>2026-04-19T07:27:34.998Z</time></trkpt><trkpt lat="42.76807200076969" lon="10.330702076096442"><ele>166.0</ele><time>2026-04-19T07:27:35.998Z</time></trkpt><trkpt lat="42.76811041838384" lon="10.330806469678311"><ele>169.0</ele><time>2026-04-19T07:27:36.998Z</time></trkpt><trkpt lat="42.768155427574484" lon="10.33091605412281"><ele>170.83333333333334</ele><time>2026-04-19T07:27:37.997Z</time></trkpt><trkpt lat="42.76817911001323" lon="10.330999445609745"><ele>172.66666666666669</ele><time>2026-04-19T07:27:38.997Z</time></trkpt><trkpt lat="42.76814987258293" lon="10.331137525406753"><ele>174.5</ele><time>2026-04-19T07:27:40.997Z</time></trkpt><trkpt lat="42.76810952185127" lon="10.331218716210147"><ele>176.33333333333334</ele><time>2026-04-19T07:27:41.997Z</time></trkpt><trkpt lat="42.76807461095353" lon="10.331314756835697"><ele>178.16666666666666</ele><time>2026-04-19T07:27:42.997Z</time></trkpt><trkpt lat="42.76803874998421" lon="10.331430386162905"><ele>180.0</ele><time>2026-04-19T07:27:43.997Z</time></trkpt><trkpt lat="42.768022840315446" lon="10.331560683654086"><ele>180.8</ele><time>2026-04-19T07:27:44.997Z</time></trkpt><trkpt lat="42.76801757757131" lon="10.3317196769186"><ele>181.6</ele><time>2026-04-19T07:27:45.997Z</time></trkpt><trkpt lat="42.76802705496922" lon="10.331869368756712"><ele>182.39999999999998</ele><time>2026-04-19T07:27:46.997Z</time></trkpt><trkpt lat="42.76803803613935" lon="10.331997432861215"><ele>183.2</ele><time>2026-04-19T07:27:47.997Z</time></trkpt><trkpt lat="42.768062647788334" lon="10.332106439351291"><ele>184.0</ele><time>2026-04-19T07:27:48.997Z</time></trkpt><trkpt lat="42.76808443498872" lon="10.332197451876752"><ele>182.66666666666669</ele><time>2026-04-19T07:27:49.997Z</time></trkpt><trkpt lat="42.768131989863484" lon="10.33229982756381"><ele>181.33333333333334</ele><time>2026-04-19T07:27:50.997Z</time></trkpt><trkpt lat="42.76819942148099" lon="10.332397696470597"><ele>180.0</ele><time>2026-04-19T07:27:51.997Z</time></trkpt><trkpt lat="42.76827607864383" lon="10.332459971063294"><ele>178.66666666666666</ele><time>2026-04-19T07:27:52.997Z</time></trkpt><trkpt lat="42.76833856927107" lon="10.332474741501938"><ele>177.33333333333331</ele><time>2026-04-19T07:27:53.997Z</time></trkpt><trkpt lat="42.76841354590841" lon="10.332452933761317"><ele>176.0</ele><time>2026-04-19T07:27:54.997Z</time></trkpt><trkpt lat="42.76847357688183" lon="10.332395493022606"><ele>176.0</ele><time>2026-04-19T07:27:55.997Z</time></trkpt><trkpt lat="42.76848674122405" lon="10.33225356469155"><ele>176.0</ele><time>2026-04-19T07:27:57.997Z</time></trkpt><trkpt lat="42.76844864112139" lon="10.332159861863369"><ele>176.0</ele><time>2026-04-19T07:27:58.997Z</time></trkpt><trkpt lat="42.76839040035814" lon="10.332039095530886"><ele>176.0</ele><time>2026-04-19T07:27:59.997Z</time></trkpt><trkpt lat="42.768361934508576" lon="10.331923657023083"><ele>176.0</ele><time>2026-04-19T07:28:00.997Z</time></trkpt><trkpt lat="42.768358885108576" lon="10.331811911488941"><ele>177.60000000000002</ele><time>2026-04-19T07:28:01.997Z</time></trkpt><trkpt lat="42.76837590361306" lon="10.331698255569293"><ele>179.2</ele><time>2026-04-19T07:28:02.997Z</time></trkpt><trkpt lat="42.76842660515595" lon="10.331544497145533"><ele>180.8</ele><time>2026-04-19T07:28:04.997Z</time></trkpt><trkpt lat="42.768492231614566" lon="10.331464146934247"><ele>182.39999999999998</ele><time>2026-04-19T07:28:05.997Z</time></trkpt><trkpt lat="42.7685684436656" lon="10.331381854725661"><ele>184.0</ele><time>2026-04-19T07:28:06.997Z</time></trkpt><trkpt lat="42.76865832818028" lon="10.331309252965797"><ele>185.83333333333334</ele><time>2026-04-19T07:28:07.997Z</time></trkpt><trkpt lat="42.76873734804131" lon="10.331244705681344"><ele>187.66666666666669</ele><time>2026-04-19T07:28:08.997Z</time></trkpt><trkpt lat="42.76881060318088" lon="10.33115589924068"><ele>189.5</ele><time>2026-04-19T07:28:09.997Z</time></trkpt><trkpt lat="42.76885700639035" lon="10.331072915586843"><ele>191.33333333333334</ele><time>2026-04-19T07:28:10.997Z</time></trkpt><trkpt lat="42.768919684698595" lon="10.33103430128992"><ele>193.16666666666666</ele><time>2026-04-19T07:28:11.997Z</time></trkpt><trkpt lat="42.76898864422585" lon="10.331053014296717"><ele>195.0</ele><time>2026-04-19T07:28:12.997Z</time></trkpt><trkpt lat="42.76905299019136" lon="10.331117244640366"><ele>195.0</ele><time>2026-04-19T07:28:13.997Z</time></trkpt><trkpt lat="42.7691435368273" lon="10.331193549001279"><ele>195.0</ele><time>2026-04-19T07:28:14.997Z</time></trkpt><trkpt lat="42.76922438993245" lon="10.331275989970578"><ele>195.0</ele><time>2026-04-19T07:28:15.997Z</time></trkpt><trkpt lat="42.7692959357385" lon="10.331350804215951"><ele>195.0</ele><time>2026-04-19T07:28:16.997Z</time></trkpt><trkpt lat="42.769367794086776" lon="10.33140369282691"><ele>195.0</ele><time>2026-04-19T07:28:17.997Z</time></trkpt><trkpt lat="42.76944052512845" lon="10.33145580479328"><ele>197.16666666666666</ele><time>2026-04-19T07:28:18.997Z</time></trkpt><trkpt lat="42.76951393799509" lon="10.331508512439347"><ele>199.33333333333331</ele><time>2026-04-19T07:28:19.997Z</time></trkpt><trkpt lat="42.76959124649968" lon="10.331557557395685"><ele>201.5</ele><time>2026-04-19T07:28:20.997Z</time></trkpt><trkpt lat="42.769671498942955" lon="10.331602423500387"><ele>203.66666666666666</ele><time>2026-04-19T07:28:21.997Z</time></trkpt><trkpt lat="42.76974335567252" lon="10.331657597614269"><ele>205.83333333333331</ele><time>2026-04-19T07:28:22.997Z</time></trkpt><trkpt lat="42.769813225778144" lon="10.331709172933083"><ele>208.0</ele><time>2026-04-19T07:28:23.997Z</time></trkpt><trkpt lat="42.769889608052566" lon="10.331719359187247"><ele>207.99999999999997</ele><time>2026-04-19T07:28:25.997Z</time></trkpt><trkpt lat="42.76992972109593" lon="10.331620479003048"><ele>208.0</ele><time>2026-04-19T07:28:37.997Z</time></trkpt><trkpt lat="42.77001958006118" lon="10.33155977244874"><ele>208.0</ele><time>2026-04-19T07:28:40.997Z</time></trkpt><trkpt lat="42.770099400415326" lon="10.331535447178352"><ele>208.0</ele><time>2026-04-19T07:28:42.997Z</time></trkpt><trkpt lat="42.77016249636514" lon="10.331489083359429"><ele>207.99999999999997</ele><time>2026-04-19T07:28:43.997Z</time></trkpt><trkpt lat="42.77022194186009" lon="10.331434682297349"><ele>208.0</ele><time>2026-04-19T07:28:44.997Z</time></trkpt><trkpt lat="42.77033813626207" lon="10.331348337797017"><ele>211.66666666666666</ele><time>2026-04-19T07:28:46.997Z</time></trkpt><trkpt lat="42.770399441555455" lon="10.331306067143185"><ele>215.33333333333331</ele><time>2026-04-19T07:28:47.997Z</time></trkpt><trkpt lat="42.770507293689604" lon="10.33124798299764"><ele>219.0</ele><time>2026-04-19T07:28:49.997Z</time></trkpt><trkpt lat="42.77057409994859" lon="10.33120641309566"><ele>222.66666666666669</ele><time>2026-04-19T07:28:50.997Z</time></trkpt><trkpt lat="42.77063629379306" lon="10.331170176389868"><ele>226.33333333333334</ele><time>2026-04-19T07:28:51.997Z</time></trkpt><trkpt lat="42.77069773057691" lon="10.331130353935402"><ele>230.0</ele><time>2026-04-19T07:28:52.997Z</time></trkpt><trkpt lat="42.770754455430136" lon="10.33108512126312"><ele>230.00000000000003</ele><time>2026-04-19T07:28:53.997Z</time></trkpt><trkpt lat="42.7708091566892" lon="10.331038969290985"><ele>230.0</ele><time>2026-04-19T07:28:54.997Z</time></trkpt><trkpt lat="42.77084838659376" lon="10.330958554050602"><ele>230.0</ele><time>2026-04-19T07:28:56.997Z</time></trkpt><trkpt lat="42.77082060129194" lon="10.33081422570947"><ele>230.0</ele><time>2026-04-19T07:28:59.997Z</time></trkpt><trkpt lat="42.7708127064085" lon="10.330692986391876"><ele>230.00000000000003</ele><time>2026-04-19T07:29:00.997Z</time></trkpt><trkpt lat="42.77081952047631" lon="10.33058594239573"><ele>230.0</ele><time>2026-04-19T07:29:01.997Z</time></trkpt><trkpt lat="42.77083009535809" lon="10.330482104289166"><ele>230.4</ele><time>2026-04-19T07:29:02.997Z</time></trkpt><trkpt lat="42.77082883552437" lon="10.330387036857214"><ele>230.8</ele><time>2026-04-19T07:29:03.997Z</time></trkpt><trkpt lat="42.77080235635873" lon="10.330283733237868"><ele>231.2</ele><time>2026-04-19T07:29:04.997Z</time></trkpt><trkpt lat="42.77075320140201" lon="10.330175628632364"><ele>231.6</ele><time>2026-04-19T07:29:05.997Z</time></trkpt><trkpt lat="42.77069375903945" lon="10.330043972731078"><ele>232.0</ele><time>2026-04-19T07:29:06.997Z</time></trkpt><trkpt lat="42.77063625569514" lon="10.329918524216048"><ele>232.0</ele><time>2026-04-19T07:29:07.997Z</time></trkpt><trkpt lat="42.77059634718293" lon="10.329790322805955"><ele>232.0</ele><time>2026-04-19T07:29:08.997Z</time></trkpt><trkpt lat="42.770558313987664" lon="10.329638136968182"><ele>232.0</ele><time>2026-04-19T07:29:09.997Z</time></trkpt><trkpt lat="42.77052620553946" lon="10.329478336561284"><ele>232.0</ele><time>2026-04-19T07:29:10.997Z</time></trkpt><trkpt lat="42.77050648328112" lon="10.329302479423529"><ele>230.8</ele><time>2026-04-19T07:29:11.997Z</time></trkpt><trkpt lat="42.770484071884056" lon="10.329140239806662"><ele>229.6</ele><time>2026-04-19T07:29:12.997Z</time></trkpt><trkpt lat="42.770482870020174" lon="10.329015864147955"><ele>228.40000000000003</ele><time>2026-04-19T07:29:13.997Z</time></trkpt><trkpt lat="42.77048230595985" lon="10.32891293540851"><ele>227.20000000000002</ele><time>2026-04-19T07:29:14.997Z</time></trkpt><trkpt lat="42.77050753283806" lon="10.3288211496706"><ele>226.0</ele><time>2026-04-19T07:29:15.997Z</time></trkpt><trkpt lat="42.77060852429377" lon="10.328733756693184"><ele>226.75</ele><time>2026-04-19T07:29:17.997Z</time></trkpt><trkpt lat="42.77073629883019" lon="10.328758832540627"><ele>227.5</ele><time>2026-04-19T07:29:19.997Z</time></trkpt><trkpt lat="42.77082689939337" lon="10.328811275898234"><ele>228.25</ele><time>2026-04-19T07:29:20.997Z</time></trkpt><trkpt lat="42.77093087694359" lon="10.328869471764294"><ele>229.0</ele><time>2026-04-19T07:29:21.997Z</time></trkpt><trkpt lat="42.77106429845328" lon="10.328930617619884"><ele>229.0</ele><time>2026-04-19T07:29:22.997Z</time></trkpt><trkpt lat="42.771192293242905" lon="10.328958426223501"><ele>229.0</ele><time>2026-04-19T07:29:23.997Z</time></trkpt><trkpt lat="42.77130060202301" lon="10.328978073173136"><ele>229.0</ele><time>2026-04-19T07:29:24.997Z</time></trkpt><trkpt lat="42.77140367147599" lon="10.329004791686032"><ele>229.0</ele><time>2026-04-19T07:29:25.997Z</time></trkpt><trkpt lat="42.77151086711543" lon="10.3290404493182"><ele>229.0</ele><time>2026-04-19T07:29:26.997Z</time></trkpt><trkpt lat="42.771611028071746" lon="10.329085847204707"><ele>228.99999999999997</ele><time>2026-04-19T07:29:27.997Z</time></trkpt><trkpt lat="42.77171516561902" lon="10.329133024292451"><ele>228.99999999999997</ele><time>2026-04-19T07:29:28.997Z</time></trkpt><trkpt lat="42.771819934813436" lon="10.329187862077967"><ele>229.0</ele><time>2026-04-19T07:29:29.997Z</time></trkpt><trkpt lat="42.771909831225386" lon="10.329196765909552"><ele>229.0</ele><time>2026-04-19T07:29:30.997Z</time></trkpt><trkpt lat="42.77199342319721" lon="10.32916161001061"><ele>230.79999999999998</ele><time>2026-04-19T07:29:31.997Z</time></trkpt><trkpt lat="42.772094076192836" lon="10.32909577155557"><ele>232.59999999999997</ele><time>2026-04-19T07:29:32.997Z</time></trkpt><trkpt lat="42.77220121591596" lon="10.329055675579925"><ele>234.4</ele><time>2026-04-19T07:29:33.997Z</time></trkpt><trkpt lat="42.77229863848359" lon="10.329021982668213"><ele>236.2</ele><time>2026-04-19T07:29:34.997Z</time></trkpt><trkpt lat="42.772396453989735" lon="10.328995336618185"><ele>238.0</ele><time>2026-04-19T07:29:35.997Z</time></trkpt><trkpt lat="42.77248045595898" lon="10.328963203605936"><ele>238.0</ele><time>2026-04-19T07:29:36.997Z</time></trkpt><trkpt lat="42.77256533546811" lon="10.328933987825657"><ele>238.0</ele><time>2026-04-19T07:29:37.997Z</time></trkpt><trkpt lat="42.772656847070756" lon="10.32890244554668"><ele>238.0</ele><time>2026-04-19T07:29:38.997Z</time></trkpt><trkpt lat="42.77275647114798" lon="10.328886784638103"><ele>238.0</ele><time>2026-04-19T07:29:39.997Z</time></trkpt><trkpt lat="42.7728664941455" lon="10.328887301974916"><ele>238.0</ele><time>2026-04-19T07:29:40.997Z</time></trkpt><trkpt lat="42.77295405667591" lon="10.328893125876967"><ele>240.0</ele><time>2026-04-19T07:29:41.997Z</time></trkpt><trkpt lat="42.773073404736024" lon="10.328969052762485"><ele>242.0</ele><time>2026-04-19T07:29:43.997Z</time></trkpt><trkpt lat="42.77313617146554" lon="10.328996956232741"><ele>244.0</ele><time>2026-04-19T07:29:44.997Z</time></trkpt><trkpt lat="42.77322234153855" lon="10.328888604047977"><ele>246.0</ele><time>2026-04-19T07:29:46.997Z</time></trkpt><trkpt lat="42.77322164908665" lon="10.32876597991716"><ele>248.0</ele><time>2026-04-19T07:29:47.997Z</time></trkpt><trkpt lat="42.773176356660315" lon="10.32861503535948"><ele>248.00000000000003</ele><time>2026-04-19T07:29:48.997Z</time></trkpt><trkpt lat="42.77312351919497" lon="10.328539457307862"><ele>248.0</ele><time>2026-04-19T07:29:49.997Z</time></trkpt><trkpt lat="42.77305497667599" lon="10.328453165862186"><ele>248.0</ele><time>2026-04-19T07:29:50.997Z</time></trkpt><trkpt lat="42.773010450207764" lon="10.3283698178945"><ele>248.0</ele><time>2026-04-19T07:29:51.997Z</time></trkpt><trkpt lat="42.77301943904267" lon="10.328255920297966"><ele>248.00000000000003</ele><time>2026-04-19T07:29:53.997Z</time></trkpt><trkpt lat="42.77308032794098" lon="10.328227215089871"><ele>248.0</ele><time>2026-04-19T07:29:55.997Z</time></trkpt><trkpt lat="42.773146672960934" lon="10.328250856783162"><ele>248.00000000000003</ele><time>2026-04-19T07:30:08.997Z</time></trkpt><trkpt lat="42.77320627395377" lon="10.328317746777579"><ele>248.0</ele><time>2026-04-19T07:30:10.997Z</time></trkpt><trkpt lat="42.773269693839175" lon="10.32838664805909"><ele>248.0</ele><time>2026-04-19T07:30:12.997Z</time></trkpt><trkpt lat="42.77332683706144" lon="10.328465611185287"><ele>248.0</ele><time>2026-04-19T07:30:14.997Z</time></trkpt><trkpt lat="42.77338519107566" lon="10.328540037762618"><ele>248.00000000000003</ele><time>2026-04-19T07:30:16.997Z</time></trkpt><trkpt lat="42.77343571443903" lon="10.328639025632187"><ele>248.0</ele><time>2026-04-19T07:30:18.997Z</time></trkpt><trkpt lat="42.773454654919426" lon="10.328724788516855"><ele>248.0</ele><time>2026-04-19T07:30:20.997Z</time></trkpt><trkpt lat="42.77350646634395" lon="10.328830565213405"><ele>248.0</ele><time>2026-04-19T07:30:22.997Z</time></trkpt><trkpt lat="42.773539705442644" lon="10.32897037713677"><ele>248.0</ele><time>2026-04-19T07:30:24.997Z</time></trkpt><trkpt lat="42.77361784852001" lon="10.329136963662174"><ele>248.0</ele><time>2026-04-19T07:30:26.997Z</time></trkpt><trkpt lat="42.77366139095884" lon="10.329214991205134"><ele>248.0</ele><time>2026-04-19T07:30:27.997Z</time></trkpt><trkpt lat="42.77369769552263" lon="10.329364991573728"><ele>251.60000000000002</ele><time>2026-04-19T07:30:29.997Z</time></trkpt><trkpt lat="42.77374545748193" lon="10.329514722870806"><ele>255.20000000000002</ele><time>2026-04-19T07:30:31.997Z</time></trkpt><trkpt lat="42.77379803925109" lon="10.329637000273184"><ele>258.8</ele><time>2026-04-19T07:30:33.997Z</time></trkpt><trkpt lat="42.77385493709219" lon="10.329798974573613"><ele>262.40000000000003</ele><time>2026-04-19T07:30:35.997Z</time></trkpt><trkpt lat="42.773888337876556" lon="10.329874350011304"><ele>266.0</ele><time>2026-04-19T07:30:36.997Z</time></trkpt><trkpt lat="42.77393241591263" lon="10.329944707081737"><ele>266.0</ele><time>2026-04-19T07:30:37.997Z</time></trkpt><trkpt lat="42.774005735061664" lon="10.329987639483589"><ele>266.0</ele><time>2026-04-19T07:30:39.997Z</time></trkpt><trkpt lat="42.7741085585464" lon="10.330008983425566"><ele>266.0</ele><time>2026-04-19T07:31:32.997Z</time></trkpt><trkpt lat="42.774191203484904" lon="10.330012140725481"><ele>266.0</ele><time>2026-04-19T07:31:42.997Z</time></trkpt><trkpt lat="42.77429061550912" lon="10.329979964432415"><ele>266.0</ele><time>2026-04-19T07:31:44.997Z</time></trkpt><trkpt lat="42.77434456757077" lon="10.329922396736977"><ele>266.0</ele><time>2026-04-19T07:31:45.997Z</time></trkpt><trkpt lat="42.774403041041865" lon="10.329824050381543"><ele>264.6666666666667</ele><time>2026-04-19T07:31:46.997Z</time></trkpt><trkpt lat="42.77445916166195" lon="10.329737280381318"><ele>263.33333333333337</ele><time>2026-04-19T07:31:47.997Z</time></trkpt><trkpt lat="42.77449374022192" lon="10.329637267540503"><ele>262.0</ele><time>2026-04-19T07:31:48.997Z</time></trkpt><trkpt lat="42.7745124357613" lon="10.329541787420387"><ele>260.6666666666667</ele><time>2026-04-19T07:31:49.997Z</time></trkpt><trkpt lat="42.77452231211083" lon="10.329417970619634"><ele>259.3333333333333</ele><time>2026-04-19T07:31:50.997Z</time></trkpt><trkpt lat="42.77452770615544" lon="10.329288185418196"><ele>258.0</ele><time>2026-04-19T07:31:51.997Z</time></trkpt><trkpt lat="42.77453018992598" lon="10.329125936391916"><ele>258.0</ele><time>2026-04-19T07:31:52.997Z</time></trkpt><trkpt lat="42.77453103992368" lon="10.328989888943077"><ele>258.0</ele><time>2026-04-19T07:31:53.997Z</time></trkpt><trkpt lat="42.774549195858896" lon="10.328866891717032"><ele>258.0</ele><time>2026-04-19T07:31:54.997Z</time></trkpt><trkpt lat="42.7745441577189" lon="10.328750330462745"><ele>258.0</ele><time>2026-04-19T07:31:55.997Z</time></trkpt><trkpt lat="42.77453499889585" lon="10.328650723663767"><ele>258.0</ele><time>2026-04-19T07:31:56.997Z</time></trkpt><trkpt lat="42.77452124324936" lon="10.32852635787509"><ele>258.0</ele><time>2026-04-19T07:31:57.997Z</time></trkpt><trkpt lat="42.77451661448206" lon="10.328412852247757"><ele>260.8</ele><time>2026-04-19T07:31:58.997Z</time></trkpt><trkpt lat="42.774515812906806" lon="10.328285150098464"><ele>263.6</ele><time>2026-04-19T07:31:59.997Z</time></trkpt><trkpt lat="42.77452340769309" lon="10.328183437394708"><ele>266.4</ele><time>2026-04-19T07:32:00.997Z</time></trkpt><trkpt lat="42.77457563975186" lon="10.328045822415408"><ele>269.2</ele><time>2026-04-19T07:32:02.997Z</time></trkpt><trkpt lat="42.77469151687656" lon="10.327950619042344"><ele>272.0</ele><time>2026-04-19T07:32:04.997Z</time></trkpt><trkpt lat="42.774771940933306" lon="10.327922919140407"><ele>275.0</ele><time>2026-04-19T07:32:05.997Z</time></trkpt><trkpt lat="42.774870815868525" lon="10.327846799892948"><ele>278.0</ele><time>2026-04-19T07:32:06.997Z</time></trkpt><trkpt lat="42.77494691699576" lon="10.327788350654503"><ele>281.0</ele><time>2026-04-19T07:32:07.997Z</time></trkpt><trkpt lat="42.77500928686333" lon="10.327690348066309"><ele>284.0</ele><time>2026-04-19T07:32:08.997Z</time></trkpt><trkpt lat="42.77506460015782" lon="10.327617630640038"><ele>287.0</ele><time>2026-04-19T07:32:09.997Z</time></trkpt><trkpt lat="42.77512933207149" lon="10.327556148025822"><ele>287.0</ele><time>2026-04-19T07:32:10.997Z</time></trkpt><trkpt lat="42.77517903981055" lon="10.327470560423821"><ele>287.0</ele><time>2026-04-19T07:32:11.997Z</time></trkpt><trkpt lat="42.77524961855236" lon="10.327447277864163"><ele>287.0</ele><time>2026-04-19T07:32:12.997Z</time></trkpt><trkpt lat="42.77532582426062" lon="10.32738773425724"><ele>287.0</ele><time>2026-04-19T07:32:13.997Z</time></trkpt><trkpt lat="42.77541966314447" lon="10.327315453532387"><ele>287.0</ele><time>2026-04-19T07:32:14.997Z</time></trkpt><trkpt lat="42.77551103595865" lon="10.327295172868014"><ele>287.0</ele><time>2026-04-19T07:32:15.997Z</time></trkpt><trkpt lat="42.77560491940401" lon="10.327287421482225"><ele>286.6666666666667</ele><time>2026-04-19T07:32:16.997Z</time></trkpt><trkpt lat="42.77568370860236" lon="10.327270738405533"><ele>286.33333333333337</ele><time>2026-04-19T07:32:17.997Z</time></trkpt><trkpt lat="42.7757700238471" lon="10.327259668987622"><ele>286.0</ele><time>2026-04-19T07:32:18.997Z</time></trkpt><trkpt lat="42.77585706518221" lon="10.327252610464571"><ele>285.6666666666667</ele><time>2026-04-19T07:32:19.997Z</time></trkpt><trkpt lat="42.77592616193791" lon="10.327225593580662"><ele>285.3333333333333</ele><time>2026-04-19T07:32:20.997Z</time></trkpt><trkpt lat="42.77600922693521" lon="10.327142068373135"><ele>285.0</ele><time>2026-04-19T07:32:21.997Z</time></trkpt><trkpt lat="42.776082602688646" lon="10.327075739844195"><ele>283.0</ele><time>2026-04-19T07:32:22.997Z</time></trkpt><trkpt lat="42.77615778969847" lon="10.327006230360604"><ele>281.0</ele><time>2026-04-19T07:32:23.997Z</time></trkpt><trkpt lat="42.77623783341904" lon="10.326932230907504"><ele>279.0</ele><time>2026-04-19T07:32:24.997Z</time></trkpt><trkpt lat="42.77623203763419" lon="10.32672046368216"><ele>277.0</ele><time>2026-04-19T07:32:25.997Z</time></trkpt><trkpt lat="42.77626235878612" lon="10.326568181306857"><ele>277.0</ele><time>2026-04-19T07:32:26.997Z</time></trkpt><trkpt lat="42.77628986692137" lon="10.326445381038916"><ele>277.0</ele><time>2026-04-19T07:32:27.997Z</time></trkpt><trkpt lat="42.776336099650855" lon="10.326304424483887"><ele>277.0</ele><time>2026-04-19T07:32:28.997Z</time></trkpt><trkpt lat="42.77638689531574" lon="10.326163012147159"><ele>277.0</ele><time>2026-04-19T07:32:29.997Z</time></trkpt><trkpt lat="42.776442472781135" lon="10.326023210359622"><ele>277.0</ele><time>2026-04-19T07:32:30.997Z</time></trkpt><trkpt lat="42.776495176440804" lon="10.325906861927358"><ele>280.4</ele><time>2026-04-19T07:32:31.997Z</time></trkpt><trkpt lat="42.776560647221444" lon="10.32580207416174"><ele>283.79999999999995</ele><time>2026-04-19T07:32:32.997Z</time></trkpt><trkpt lat="42.77663866624692" lon="10.32569751483899"><ele>287.2</ele><time>2026-04-19T07:32:33.997Z</time></trkpt><trkpt lat="42.77669818520022" lon="10.325587362630985"><ele>290.59999999999997</ele><time>2026-04-19T07:32:34.997Z</time></trkpt><trkpt lat="42.77675853905777" lon="10.32548255622492"><ele>294.0</ele><time>2026-04-19T07:32:35.997Z</time></trkpt><trkpt lat="42.77679080870475" lon="10.325364536332994"><ele>292.4</ele><time>2026-04-19T07:32:36.997Z</time></trkpt><trkpt lat="42.77681479168771" lon="10.325245865413482"><ele>290.79999999999995</ele><time>2026-04-19T07:32:37.997Z</time></trkpt><trkpt lat="42.77684030186785" lon="10.325122879838496"><ele>289.20000000000005</ele><time>2026-04-19T07:32:38.997Z</time></trkpt><trkpt lat="42.776868623811424" lon="10.32499624775887"><ele>287.6</ele><time>2026-04-19T07:32:39.997Z</time></trkpt><trkpt lat="42.77689649931799" lon="10.32486751794062"><ele>286.0</ele><time>2026-04-19T07:32:40.997Z</time></trkpt><trkpt lat="42.77692357893561" lon="10.324753171993985"><ele>288.40000000000003</ele><time>2026-04-19T07:32:41.997Z</time></trkpt><trkpt lat="42.77694674020366" lon="10.324638260934153"><ele>290.8</ele><time>2026-04-19T07:32:42.997Z</time></trkpt><trkpt lat="42.77696485401668" lon="10.324516449615677"><ele>293.20000000000005</ele><time>2026-04-19T07:32:43.997Z</time></trkpt><trkpt lat="42.7769575770361" lon="10.324408183127508"><ele>295.6</ele><time>2026-04-19T07:32:44.997Z</time></trkpt><trkpt lat="42.776958872672196" lon="10.324263863462415"><ele>298.0</ele><time>2026-04-19T07:32:46.997Z</time></trkpt><trkpt lat="42.77699375147544" lon="10.324140613503948"><ele>298.0</ele><time>2026-04-19T07:32:48.997Z</time></trkpt><trkpt lat="42.77701504664583" lon="10.324054917422378"><ele>298.0</ele><time>2026-04-19T07:32:50.997Z</time></trkpt><trkpt lat="42.777044815602906" lon="10.323976703073477"><ele>298.0</ele><time>2026-04-19T07:32:52.997Z</time></trkpt><trkpt lat="42.77709997274095" lon="10.323901899560724"><ele>298.0</ele><time>2026-04-19T07:32:55.997Z</time></trkpt><trkpt lat="42.77702608028539" lon="10.323827296345005"><ele>298.0</ele><time>2026-04-19T07:33:13.997Z</time></trkpt><trkpt lat="42.77704221333639" lon="10.323742416056652"><ele>298.0</ele><time>2026-04-19T07:34:49.996Z</time></trkpt><trkpt lat="42.77711023768867" lon="10.323647884604682"><ele>300.4</ele><time>2026-04-19T07:34:51.996Z</time></trkpt><trkpt lat="42.777158867289565" lon="10.323565478338347"><ele>302.8</ele><time>2026-04-19T07:34:52.996Z</time></trkpt><trkpt lat="42.7772200579093" lon="10.323484164516639"><ele>305.2</ele><time>2026-04-19T07:34:53.996Z</time></trkpt><trkpt lat="42.77729647852345" lon="10.323379749629593"><ele>307.6</ele><time>2026-04-19T07:34:54.996Z</time></trkpt><trkpt lat="42.77737456264182" lon="10.323251042948282"><ele>310.0</ele><time>2026-04-19T07:34:55.996Z</time></trkpt><trkpt lat="42.77746263948917" lon="10.323120107135148"><ele>311.0</ele><time>2026-04-19T07:34:56.996Z</time></trkpt><trkpt lat="42.77755084193976" lon="10.322983980537826"><ele>312.0</ele><time>2026-04-19T07:34:57.996Z</time></trkpt><trkpt lat="42.77763777891351" lon="10.322868052918393"><ele>313.0</ele><time>2026-04-19T07:34:58.996Z</time></trkpt><trkpt lat="42.777715096084094" lon="10.32279955934721"><ele>314.0</ele><time>2026-04-19T07:34:59.996Z</time></trkpt><trkpt lat="42.777785485094505" lon="10.322727047073757"><ele>315.0</ele><time>2026-04-19T07:35:00.996Z</time></trkpt><trkpt lat="42.77785719859311" lon="10.32268782213935"><ele>318.4</ele><time>2026-04-19T07:35:01.996Z</time></trkpt><trkpt lat="42.77791621782001" lon="10.322654263919727"><ele>321.8</ele><time>2026-04-19T07:35:02.996Z</time></trkpt><trkpt lat="42.7780078825091" lon="10.32257069352742"><ele>325.20000000000005</ele><time>2026-04-19T07:35:04.996Z</time></trkpt><trkpt lat="42.77809852240854" lon="10.322455081383904"><ele>328.6</ele><time>2026-04-19T07:35:06.996Z</time></trkpt><trkpt lat="42.77817130968571" lon="10.322310581639693"><ele>332.0</ele><time>2026-04-19T07:35:08.996Z</time></trkpt><trkpt lat="42.778221970879095" lon="10.322220773517005"><ele>335.1666666666667</ele><time>2026-04-19T07:35:09.996Z</time></trkpt><trkpt lat="42.77827053461996" lon="10.322125965894099"><ele>338.33333333333337</ele><time>2026-04-19T07:35:10.996Z</time></trkpt><trkpt lat="42.77830824165151" lon="10.32203214947112"><ele>341.5</ele><time>2026-04-19T07:35:11.996Z</time></trkpt><trkpt lat="42.7783482726042" lon="10.32194235349266"><ele>344.6666666666667</ele><time>2026-04-19T07:35:12.996Z</time></trkpt><trkpt lat="42.77837888421661" lon="10.321845126134434"><ele>347.8333333333333</ele><time>2026-04-19T07:35:13.996Z</time></trkpt><trkpt lat="42.77842193448026" lon="10.321733252005895"><ele>351.0</ele><time>2026-04-19T07:35:14.996Z</time></trkpt><trkpt lat="42.778463834357396" lon="10.321635371176113"><ele>351.0</ele><time>2026-04-19T07:35:15.996Z</time></trkpt><trkpt lat="42.77851477032961" lon="10.321528465827127"><ele>351.0</ele><time>2026-04-19T07:35:16.996Z</time></trkpt><trkpt lat="42.778554845861315" lon="10.321428124894576"><ele>351.0</ele><time>2026-04-19T07:35:17.996Z</time></trkpt><trkpt lat="42.778592285404216" lon="10.321323095173353"><ele>351.0</ele><time>2026-04-19T07:35:18.996Z</time></trkpt><trkpt lat="42.778625638617335" lon="10.32122171597897"><ele>351.0</ele><time>2026-04-19T07:35:19.996Z</time></trkpt><trkpt lat="42.77865924478809" lon="10.321138420973131"><ele>351.0</ele><time>2026-04-19T07:35:20.996Z</time></trkpt><trkpt lat="42.778677933919695" lon="10.320992098599518"><ele>353.7142857142857</ele><time>2026-04-19T07:35:22.996Z</time></trkpt><trkpt lat="42.77869968471196" lon="10.320902774759604"><ele>356.42857142857144</ele><time>2026-04-19T07:35:24.996Z</time></trkpt><trkpt lat="42.77876464836443" lon="10.320840751256522"><ele>359.1428571428571</ele><time>2026-04-19T07:35:29.996Z</time></trkpt><trkpt lat="42.77869611594758" lon="10.320873785630477"><ele>361.8571428571429</ele><time>2026-04-19T07:35:45.996Z</time></trkpt><trkpt lat="42.778755382618705" lon="10.320826937179291"><ele>364.57142857142856</ele><time>2026-04-19T07:36:57.009Z</time></trkpt><trkpt lat="42.77881285411486" lon="10.320861961190287"><ele>367.2857142857143</ele><time>2026-04-19T07:37:24.009Z</time></trkpt><trkpt lat="42.77886302422052" lon="10.320956646547913"><ele>370.0</ele><time>2026-04-19T07:38:18.008Z</time></trkpt><trkpt lat="42.77879934690751" lon="10.320904976014651"><ele>370.0</ele><time>2026-04-19T07:38:23.008Z</time></trkpt><trkpt lat="42.77875478960582" lon="10.320840924711971"><ele>370.0</ele><time>2026-04-19T07:39:10.01Z</time></trkpt><trkpt lat="42.77883160239765" lon="10.320853144066387"><ele>370.0</ele><time>2026-04-19T07:39:50.01Z</time></trkpt><trkpt lat="42.778903766633626" lon="10.320887749178866"><ele>370.0</ele><time>2026-04-19T07:39:54.01Z</time></trkpt><trkpt lat="42.779021088880825" lon="10.320891146905574"><ele>370.0</ele><time>2026-04-19T07:39:57.01Z</time></trkpt><trkpt lat="42.77912702755537" lon="10.320897989812241"><ele>370.0</ele><time>2026-04-19T07:39:59.01Z</time></trkpt><trkpt lat="42.77921126268931" lon="10.320932641356784"><ele>370.0</ele><time>2026-04-19T07:40:01.01Z</time></trkpt><trkpt lat="42.77929891380668" lon="10.320965120920597"><ele>370.0</ele><time>2026-04-19T07:40:03.01Z</time></trkpt><trkpt lat="42.779419680204306" lon="10.321008707114101"><ele>370.0</ele><time>2026-04-19T07:40:05.01Z</time></trkpt><trkpt lat="42.77949412282507" lon="10.3210288739867"><ele>370.0</ele><time>2026-04-19T07:40:06.01Z</time></trkpt><trkpt lat="42.77956817097334" lon="10.321053557252709"><ele>370.0</ele><time>2026-04-19T07:40:07.01Z</time></trkpt><trkpt lat="42.77963736941871" lon="10.321076422809233"><ele>370.0</ele><time>2026-04-19T07:40:08.01Z</time></trkpt><trkpt lat="42.77970369128281" lon="10.32109518040963"><ele>369.3333333333333</ele><time>2026-04-19T07:40:09.01Z</time></trkpt><trkpt lat="42.779783337741875" lon="10.321115985724248"><ele>368.66666666666663</ele><time>2026-04-19T07:40:10.01Z</time></trkpt><trkpt lat="42.779848320317505" lon="10.32113405788843"><ele>368.0</ele><time>2026-04-19T07:40:11.01Z</time></trkpt><trkpt lat="42.77991338513953" lon="10.321148522507215"><ele>367.3333333333333</ele><time>2026-04-19T07:40:12.01Z</time></trkpt><trkpt lat="42.78001825348122" lon="10.321176433286192"><ele>366.6666666666667</ele><time>2026-04-19T07:40:14.01Z</time></trkpt><trkpt lat="42.780125368024144" lon="10.321185992042725"><ele>366.0</ele><time>2026-04-19T07:40:16.01Z</time></trkpt><trkpt lat="42.7802152523098" lon="10.321237920045803"><ele>365.8333333333333</ele><time>2026-04-19T07:40:18.01Z</time></trkpt><trkpt lat="42.780274536342326" lon="10.321295817040081"><ele>365.6666666666667</ele><time>2026-04-19T07:40:20.01Z</time></trkpt><trkpt lat="42.78028840953012" lon="10.321416053764512"><ele>365.5</ele><time>2026-04-19T07:40:22.01Z</time></trkpt><trkpt lat="42.78030756518963" lon="10.321561420280057"><ele>365.33333333333337</ele><time>2026-04-19T07:40:24.01Z</time></trkpt><trkpt lat="42.78026664074121" lon="10.321653888429248"><ele>365.1666666666667</ele><time>2026-04-19T07:40:26.01Z</time></trkpt><trkpt lat="42.78017082423557" lon="10.321654612251253"><ele>365.0</ele><time>2026-04-19T07:40:28.01Z</time></trkpt><trkpt lat="42.78004973305923" lon="10.32162782809147"><ele>365.0</ele><time>2026-04-19T07:40:30.01Z</time></trkpt><trkpt lat="42.779979986608" lon="10.321597145058622"><ele>365.0</ele><time>2026-04-19T07:40:31.01Z</time></trkpt><trkpt lat="42.779914674023935" lon="10.32153652959299"><ele>365.0</ele><time>2026-04-19T07:40:32.01Z</time></trkpt><trkpt lat="42.779838309818295" lon="10.321499096774424"><ele>365.0</ele><time>2026-04-19T07:40:33.01Z</time></trkpt><trkpt lat="42.779771080286466" lon="10.321457247142"><ele>365.0</ele><time>2026-04-19T07:40:34.01Z</time></trkpt><trkpt lat="42.77968479083712" lon="10.321421062517468"><ele>365.0</ele><time>2026-04-19T07:40:35.01Z</time></trkpt><trkpt lat="42.779590290515706" lon="10.321394421564804"><ele>365.1666666666667</ele><time>2026-04-19T07:40:36.01Z</time></trkpt><trkpt lat="42.77950617898859" lon="10.321367627561743"><ele>365.33333333333337</ele><time>2026-04-19T07:40:37.01Z</time></trkpt><trkpt lat="42.77943300315874" lon="10.321357619842196"><ele>365.5</ele><time>2026-04-19T07:40:38.01Z</time></trkpt><trkpt lat="42.77935729856457" lon="10.321359608596616"><ele>365.6666666666667</ele><time>2026-04-19T07:40:39.01Z</time></trkpt><trkpt lat="42.77926795598297" lon="10.321391330838047"><ele>365.8333333333333</ele><time>2026-04-19T07:40:40.01Z</time></trkpt><trkpt lat="42.77918788064117" lon="10.321424107998736"><ele>366.0</ele><time>2026-04-19T07:40:41.01Z</time></trkpt><trkpt lat="42.77910453307423" lon="10.321451840223714"><ele>365.0</ele><time>2026-04-19T07:40:42.01Z</time></trkpt><trkpt lat="42.77903343638148" lon="10.321498157546353"><ele>364.0</ele><time>2026-04-19T07:40:43.01Z</time></trkpt><trkpt lat="42.77895271598369" lon="10.321544796962282"><ele>363.0</ele><time>2026-04-19T07:40:44.01Z</time></trkpt><trkpt lat="42.77888414575163" lon="10.321596296199049"><ele>362.0</ele><time>2026-04-19T07:40:45.011Z</time></trkpt><trkpt lat="42.778816722869244" lon="10.32164335518584"><ele>361.0</ele><time>2026-04-19T07:40:46.011Z</time></trkpt><trkpt lat="42.7787564020516" lon="10.321674129551834"><ele>360.0</ele><time>2026-04-19T07:40:47.011Z</time></trkpt><trkpt lat="42.778659560732876" lon="10.321688079237688"><ele>360.0</ele><time>2026-04-19T07:40:49.011Z</time></trkpt><trkpt lat="42.77860334407443" lon="10.321745419927824"><ele>360.0</ele><time>2026-04-19T07:40:51.011Z</time></trkpt><trkpt lat="42.77864614332811" lon="10.321825987968683"><ele>360.0</ele><time>2026-04-19T07:40:53.011Z</time></trkpt><trkpt lat="42.77878725957323" lon="10.321851611509818"><ele>360.0</ele><time>2026-04-19T07:40:55.011Z</time></trkpt><trkpt lat="42.77887687299932" lon="10.321865743040854"><ele>360.0</ele><time>2026-04-19T07:40:56.011Z</time></trkpt><trkpt lat="42.77898179466321" lon="10.321889125754431"><ele>360.0</ele><time>2026-04-19T07:40:57.011Z</time></trkpt><trkpt lat="42.779081375056464" lon="10.321911764930125"><ele>360.0</ele><time>2026-04-19T07:40:58.011Z</time></trkpt><trkpt lat="42.779168017124235" lon="10.321936807143375"><ele>360.0</ele><time>2026-04-19T07:40:59.012Z</time></trkpt><trkpt lat="42.779246348891185" lon="10.321952609588887"><ele>360.0</ele><time>2026-04-19T07:41:00.012Z</time></trkpt><trkpt lat="42.77932284627089" lon="10.321982539049536"><ele>360.0</ele><time>2026-04-19T07:41:01.011Z</time></trkpt><trkpt lat="42.77939938510777" lon="10.322045933675037"><ele>360.0</ele><time>2026-04-19T07:41:02.011Z</time></trkpt><trkpt lat="42.77946189606219" lon="10.322134497800867"><ele>360.8333333333333</ele><time>2026-04-19T07:41:03.011Z</time></trkpt><trkpt lat="42.77951492064045" lon="10.322205391748188"><ele>361.6666666666667</ele><time>2026-04-19T07:41:04.011Z</time></trkpt><trkpt lat="42.77958257987659" lon="10.32229243046232"><ele>362.5</ele><time>2026-04-19T07:41:05.011Z</time></trkpt><trkpt lat="42.779645047702154" lon="10.322366194842605"><ele>363.33333333333337</ele><time>2026-04-19T07:41:06.011Z</time></trkpt><trkpt lat="42.77970341673273" lon="10.322439763085479"><ele>364.1666666666667</ele><time>2026-04-19T07:41:07.011Z</time></trkpt><trkpt lat="42.77974917473763" lon="10.322536415627686"><ele>365.0</ele><time>2026-04-19T07:41:08.011Z</time></trkpt><trkpt lat="42.779781263937224" lon="10.322626812695297"><ele>362.42857142857144</ele><time>2026-04-19T07:41:09.011Z</time></trkpt><trkpt lat="42.779790205805206" lon="10.322715969042386"><ele>359.8571428571429</ele><time>2026-04-19T07:41:10.011Z</time></trkpt><trkpt lat="42.779806791521665" lon="10.322823536842295"><ele>357.28571428571433</ele><time>2026-04-19T07:41:11.011Z</time></trkpt><trkpt lat="42.77981913991582" lon="10.322917450949532"><ele>354.7142857142857</ele><time>2026-04-19T07:41:12.011Z</time></trkpt><trkpt lat="42.779823818735714" lon="10.323014056209338"><ele>352.1428571428571</ele><time>2026-04-19T07:41:13.011Z</time></trkpt><trkpt lat="42.77985425987143" lon="10.3231160960652"><ele>349.5714285714286</ele><time>2026-04-19T07:41:14.011Z</time></trkpt><trkpt lat="42.779868978429114" lon="10.323203311895975"><ele>347.0</ele><time>2026-04-19T07:41:15.011Z</time></trkpt><trkpt lat="42.779918302385944" lon="10.323363061618481"><ele>345.0</ele><time>2026-04-19T07:41:17.011Z</time></trkpt><trkpt lat="42.77994995162468" lon="10.323440401769615"><ele>343.0</ele><time>2026-04-19T07:41:18.011Z</time></trkpt><trkpt lat="42.77997888973399" lon="10.323521126547039"><ele>341.0</ele><time>2026-04-19T07:41:19.011Z</time></trkpt><trkpt lat="42.78004035650925" lon="10.323582900911228"><ele>339.0</ele><time>2026-04-19T07:41:20.011Z</time></trkpt><trkpt lat="42.78010395847387" lon="10.323629857657945"><ele>337.0</ele><time>2026-04-19T07:41:21.011Z</time></trkpt><trkpt lat="42.78017640295057" lon="10.323674342925653"><ele>335.0</ele><time>2026-04-19T07:41:22.011Z</time></trkpt><trkpt lat="42.780238069375095" lon="10.323723211980171"><ele>333.0</ele><time>2026-04-19T07:41:23.011Z</time></trkpt><trkpt lat="42.78030336195107" lon="10.323757452202372"><ele>333.0</ele><time>2026-04-19T07:41:24.011Z</time></trkpt><trkpt lat="42.78037334338303" lon="10.32382491558815"><ele>333.0</ele><time>2026-04-19T07:41:25.011Z</time></trkpt><trkpt lat="42.780427187142074" lon="10.323909070179068"><ele>333.0</ele><time>2026-04-19T07:41:26.011Z</time></trkpt><trkpt lat="42.78045088115575" lon="10.323992546724229"><ele>333.0</ele><time>2026-04-19T07:41:27.011Z</time></trkpt><trkpt lat="42.78046542782572" lon="10.32408762231165"><ele>333.0</ele><time>2026-04-19T07:41:28.011Z</time></trkpt><trkpt lat="42.78047003077628" lon="10.324176386493367"><ele>333.0</ele><time>2026-04-19T07:41:29.011Z</time></trkpt><trkpt lat="42.78044012073591" lon="10.324262966200672"><ele>333.0</ele><time>2026-04-19T07:41:30.011Z</time></trkpt><trkpt lat="42.78039023640138" lon="10.32435399901522"><ele>331.0</ele><time>2026-04-19T07:41:31.011Z</time></trkpt><trkpt lat="42.78034637828847" lon="10.324460659598149"><ele>329.0</ele><time>2026-04-19T07:41:32.011Z</time></trkpt><trkpt lat="42.780315211366066" lon="10.324575739505043"><ele>327.0</ele><time>2026-04-19T07:41:33.011Z</time></trkpt><trkpt lat="42.78029791522541" lon="10.324684668203629"><ele>325.0</ele><time>2026-04-19T07:41:34.011Z</time></trkpt><trkpt lat="42.78028538597567" lon="10.324777013353781"><ele>323.0</ele><time>2026-04-19T07:41:35.011Z</time></trkpt><trkpt lat="42.780273333119865" lon="10.324870958239819"><ele>321.0</ele><time>2026-04-19T07:41:36.011Z</time></trkpt><trkpt lat="42.78027737479832" lon="10.32503346686722"><ele>317.5</ele><time>2026-04-19T07:41:38.011Z</time></trkpt><trkpt lat="42.78030713726957" lon="10.325132368761734"><ele>314.0</ele><time>2026-04-19T07:41:39.011Z</time></trkpt><trkpt lat="42.780348818094645" lon="10.325222877097612"><ele>310.5</ele><time>2026-04-19T07:41:40.011Z</time></trkpt><trkpt lat="42.78038625193626" lon="10.325295133343081"><ele>307.0</ele><time>2026-04-19T07:41:41.011Z</time></trkpt><trkpt lat="42.78039904315237" lon="10.32540010479301"><ele>303.5</ele><time>2026-04-19T07:41:42.011Z</time></trkpt><trkpt lat="42.780373994856284" lon="10.325502561484475"><ele>300.0</ele><time>2026-04-19T07:41:43.011Z</time></trkpt><trkpt lat="42.78030983040324" lon="10.325605676826633"><ele>296.2</ele><time>2026-04-19T07:41:44.011Z</time></trkpt><trkpt lat="42.7802644353955" lon="10.325729081422656"><ele>292.4</ele><time>2026-04-19T07:41:45.011Z</time></trkpt><trkpt lat="42.78024225661678" lon="10.32581047342661"><ele>288.6</ele><time>2026-04-19T07:41:46.011Z</time></trkpt><trkpt lat="42.7802657764139" lon="10.325965984224196"><ele>284.8</ele><time>2026-04-19T07:41:48.011Z</time></trkpt><trkpt lat="42.780294876016825" lon="10.326050381318952"><ele>281.0</ele><time>2026-04-19T07:41:49.011Z</time></trkpt><trkpt lat="42.78029558939282" lon="10.326188611973837"><ele>281.0</ele><time>2026-04-19T07:41:51.011Z</time></trkpt><trkpt lat="42.780307698428416" lon="10.326273492433177"><ele>281.0</ele><time>2026-04-19T07:41:52.011Z</time></trkpt><trkpt lat="42.780295295013474" lon="10.326384077569987"><ele>281.0</ele><time>2026-04-19T07:41:54.011Z</time></trkpt><trkpt lat="42.780264592970966" lon="10.326502520615046"><ele>281.0</ele><time>2026-04-19T07:41:57.011Z</time></trkpt><trkpt lat="42.780281529872425" lon="10.326594594699667"><ele>281.0</ele><time>2026-04-19T07:42:00.011Z</time></trkpt><trkpt lat="42.780347342766156" lon="10.326669599440153"><ele>281.0</ele><time>2026-04-19T07:42:05.011Z</time></trkpt><trkpt lat="42.780431856642174" lon="10.326668375147088"><ele>281.0</ele><time>2026-04-19T07:42:08.011Z</time></trkpt><trkpt lat="42.78048750981955" lon="10.326567021654359"><ele>281.0</ele><time>2026-04-19T07:42:10.011Z</time></trkpt><trkpt lat="42.780530408697146" lon="10.326484069261504"><ele>281.0</ele><time>2026-04-19T07:42:11.011Z</time></trkpt><trkpt lat="42.78059898347995" lon="10.326368239278947"><ele>281.0</ele><time>2026-04-19T07:42:13.011Z</time></trkpt><trkpt lat="42.78065505691793" lon="10.32625665083589"><ele>281.0</ele><time>2026-04-19T07:42:15.011Z</time></trkpt><trkpt lat="42.78071208046689" lon="10.326131236921723"><ele>281.00000000000006</ele><time>2026-04-19T07:42:17.011Z</time></trkpt><trkpt lat="42.78075230621434" lon="10.326055042941594"><ele>281.0</ele><time>2026-04-19T07:42:18.011Z</time></trkpt><trkpt lat="42.780784108181265" lon="10.325964021001246"><ele>281.0</ele><time>2026-04-19T07:42:19.011Z</time></trkpt><trkpt lat="42.78082555686654" lon="10.32587970080718"><ele>281.0</ele><time>2026-04-19T07:42:20.011Z</time></trkpt><trkpt lat="42.78087575827667" lon="10.32580650323366"><ele>281.0</ele><time>2026-04-19T07:42:21.011Z</time></trkpt><trkpt lat="42.78092967094057" lon="10.32575141824655"><ele>281.00000000000006</ele><time>2026-04-19T07:42:22.011Z</time></trkpt><trkpt lat="42.781011871150206" lon="10.325716035286732"><ele>281.0</ele><time>2026-04-19T07:42:23.011Z</time></trkpt><trkpt lat="42.78108624188435" lon="10.325695129809464"><ele>278.1666666666667</ele><time>2026-04-19T07:42:24.011Z</time></trkpt><trkpt lat="42.78115316441633" lon="10.325683030974147"><ele>275.33333333333337</ele><time>2026-04-19T07:42:25.011Z</time></trkpt><trkpt lat="42.78126237717696" lon="10.325686410440166"><ele>272.5</ele><time>2026-04-19T07:42:26.011Z</time></trkpt><trkpt lat="42.781356164331314" lon="10.325705470472831"><ele>269.6666666666667</ele><time>2026-04-19T07:42:27.011Z</time></trkpt><trkpt lat="42.781452727801394" lon="10.325744922888164"><ele>266.8333333333333</ele><time>2026-04-19T07:42:28.011Z</time></trkpt><trkpt lat="42.78152820819421" lon="10.325756451438371"><ele>264.0</ele><time>2026-04-19T07:42:29.011Z</time></trkpt><trkpt lat="42.78160569103256" lon="10.325770137888188"><ele>264.0</ele><time>2026-04-19T07:42:30.011Z</time></trkpt><trkpt lat="42.78168234885847" lon="10.325765752340725"><ele>264.0</ele><time>2026-04-19T07:42:31.011Z</time></trkpt><trkpt lat="42.78174417790437" lon="10.325742296183103"><ele>264.0</ele><time>2026-04-19T07:42:32.011Z</time></trkpt><trkpt lat="42.781808586075755" lon="10.325695829841411"><ele>264.0</ele><time>2026-04-19T07:42:33.011Z</time></trkpt><trkpt lat="42.78188741203582" lon="10.325653527280851"><ele>264.0</ele><time>2026-04-19T07:42:34.011Z</time></trkpt><trkpt lat="42.781964729912744" lon="10.325621036041206"><ele>264.0</ele><time>2026-04-19T07:42:35.011Z</time></trkpt><trkpt lat="42.78204507122109" lon="10.325595505363994"><ele>261.8333333333333</ele><time>2026-04-19T07:42:36.011Z</time></trkpt><trkpt lat="42.78212825904766" lon="10.325580169330387"><ele>259.6666666666667</ele><time>2026-04-19T07:42:37.011Z</time></trkpt><trkpt lat="42.78219900232" lon="10.325553221873754"><ele>257.5</ele><time>2026-04-19T07:42:38.011Z</time></trkpt><trkpt lat="42.78230847733515" lon="10.325492866849748"><ele>255.33333333333334</ele><time>2026-04-19T07:42:40.011Z</time></trkpt><trkpt lat="42.78238741640196" lon="10.325466254496733"><ele>253.16666666666669</ele><time>2026-04-19T07:42:41.011Z</time></trkpt><trkpt lat="42.782472438218115" lon="10.325452160388828"><ele>251.0</ele><time>2026-04-19T07:42:42.011Z</time></trkpt><trkpt lat="42.78253317095525" lon="10.325498472697312"><ele>249.8</ele><time>2026-04-19T07:42:43.011Z</time></trkpt><trkpt lat="42.782597901420324" lon="10.325586030022855"><ele>248.60000000000002</ele><time>2026-04-19T07:42:44.011Z</time></trkpt><trkpt lat="42.7826669309199" lon="10.325676121897397"><ele>247.4</ele><time>2026-04-19T07:42:45.011Z</time></trkpt><trkpt lat="42.78271398407929" lon="10.325814747219626"><ele>246.2</ele><time>2026-04-19T07:42:46.011Z</time></trkpt><trkpt lat="42.78273401269058" lon="10.325930410251916"><ele>245.0</ele><time>2026-04-19T07:42:47.011Z</time></trkpt><trkpt lat="42.78274369867866" lon="10.326025245759356"><ele>243.66666666666669</ele><time>2026-04-19T07:42:48.011Z</time></trkpt><trkpt lat="42.782758378524484" lon="10.326118537821452"><ele>242.33333333333334</ele><time>2026-04-19T07:42:49.011Z</time></trkpt><trkpt lat="42.78278594013599" lon="10.326196208526728"><ele>241.0</ele><time>2026-04-19T07:42:50.011Z</time></trkpt><trkpt lat="42.782852870139216" lon="10.326291711923469"><ele>239.66666666666669</ele><time>2026-04-19T07:42:51.012Z</time></trkpt><trkpt lat="42.78292427743724" lon="10.326380804633251"><ele>238.33333333333334</ele><time>2026-04-19T07:42:52.012Z</time></trkpt><trkpt lat="42.78299835067719" lon="10.326468002291435"><ele>237.0</ele><time>2026-04-19T07:42:53.012Z</time></trkpt><trkpt lat="42.78305091704608" lon="10.326538667978184"><ele>237.0</ele><time>2026-04-19T07:42:54.012Z</time></trkpt><trkpt lat="42.78314448984486" lon="10.326632593903328"><ele>237.0</ele><time>2026-04-19T07:42:56.012Z</time></trkpt><trkpt lat="42.78322751157862" lon="10.32670458638578"><ele>237.0</ele><time>2026-04-19T07:42:58.012Z</time></trkpt><trkpt lat="42.783338170171206" lon="10.32673195632031"><ele>237.0</ele><time>2026-04-19T07:43:00.012Z</time></trkpt><trkpt lat="42.78340321883509" lon="10.32673872810148"><ele>237.0</ele><time>2026-04-19T07:43:01.012Z</time></trkpt><trkpt lat="42.7835133060148" lon="10.326737558937795"><ele>234.0</ele><time>2026-04-19T07:43:03.012Z</time></trkpt><trkpt lat="42.78360578867385" lon="10.326747072588951"><ele>231.0</ele><time>2026-04-19T07:43:05.012Z</time></trkpt><trkpt lat="42.78372153491874" lon="10.326778273415483"><ele>228.0</ele><time>2026-04-19T07:43:07.012Z</time></trkpt><trkpt lat="42.783777502206476" lon="10.326832728249139"><ele>225.0</ele><time>2026-04-19T07:43:08.012Z</time></trkpt><trkpt lat="42.78382696951419" lon="10.326904954601085"><ele>222.0</ele><time>2026-04-19T07:43:09.012Z</time></trkpt><trkpt lat="42.78389871944607" lon="10.327017536994903"><ele>222.0</ele><time>2026-04-19T07:43:11.012Z</time></trkpt><trkpt lat="42.7839429827617" lon="10.327111188727622"><ele>222.0</ele><time>2026-04-19T07:43:14.012Z</time></trkpt><trkpt lat="42.783967380528225" lon="10.327191571290962"><ele>222.0</ele><time>2026-04-19T07:43:17.012Z</time></trkpt><trkpt lat="42.78397291998898" lon="10.327309457021515"><ele>222.0</ele><time>2026-04-19T07:49:20.015Z</time></trkpt><trkpt lat="42.78397511921835" lon="10.327427675435505"><ele>222.0</ele><time>2026-04-19T07:49:22.014Z</time></trkpt><trkpt lat="42.78403824666664" lon="10.327524774323706"><ele>222.0</ele><time>2026-04-19T07:49:24.014Z</time></trkpt><trkpt lat="42.78413833515309" lon="10.32759462008604"><ele>221.0</ele><time>2026-04-19T07:49:26.014Z</time></trkpt><trkpt lat="42.7842196333658" lon="10.327668101364372"><ele>220.0</ele><time>2026-04-19T07:49:28.014Z</time></trkpt><trkpt lat="42.78433909531988" lon="10.327707694926875"><ele>219.0</ele><time>2026-04-19T07:49:30.014Z</time></trkpt><trkpt lat="42.78445301415753" lon="10.327704729689598"><ele>218.0</ele><time>2026-04-19T07:49:32.014Z</time></trkpt><trkpt lat="42.78453307435852" lon="10.327610003546237"><ele>217.0</ele><time>2026-04-19T07:49:34.014Z</time></trkpt><trkpt lat="42.78454276691866" lon="10.327476034634577"><ele>213.49999999999997</ele><time>2026-04-19T07:49:36.014Z</time></trkpt><trkpt lat="42.784518437433675" lon="10.327362068966007"><ele>210.0</ele><time>2026-04-19T07:49:38.014Z</time></trkpt><trkpt lat="42.78458820091685" lon="10.327315492836327"><ele>206.5</ele><time>2026-04-19T07:49:40.014Z</time></trkpt><trkpt lat="42.784625696325236" lon="10.327409358120207"><ele>203.0</ele><time>2026-04-19T07:49:44.014Z</time></trkpt><trkpt lat="42.78461962366798" lon="10.32749711828473"><ele>199.49999999999997</ele><time>2026-04-19T07:49:50.014Z</time></trkpt><trkpt lat="42.784624108271615" lon="10.327615716441786"><ele>196.0</ele><time>2026-04-19T07:49:59.014Z</time></trkpt><trkpt lat="42.7846431597128" lon="10.327764431664457"><ele>196.0</ele><time>2026-04-19T07:50:01.014Z</time></trkpt><trkpt lat="42.784602867792586" lon="10.327882527953964"><ele>196.0</ele><time>2026-04-19T07:50:03.014Z</time></trkpt><trkpt lat="42.78451102764074" lon="10.327966694219121"><ele>196.0</ele><time>2026-04-19T07:50:05.014Z</time></trkpt><trkpt lat="42.78444487620357" lon="10.328013681690269"><ele>196.0</ele><time>2026-04-19T07:50:06.014Z</time></trkpt><trkpt lat="42.784363444331106" lon="10.327970452704799"><ele>196.0</ele><time>2026-04-19T07:50:07.014Z</time></trkpt><trkpt lat="42.784274812642884" lon="10.328005036513686"><ele>195.8</ele><time>2026-04-19T07:50:09.014Z</time></trkpt><trkpt lat="42.78419613651698" lon="10.328050145373295"><ele>195.60000000000002</ele><time>2026-04-19T07:50:11.014Z</time></trkpt><trkpt lat="42.78417893900592" lon="10.32821183607114"><ele>195.4</ele><time>2026-04-19T07:50:14.014Z</time></trkpt><trkpt lat="42.78427870736912" lon="10.328207000928474"><ele>195.2</ele><time>2026-04-19T07:50:16.014Z</time></trkpt><trkpt lat="42.78434715216569" lon="10.328201595367997"><ele>195.0</ele><time>2026-04-19T07:50:17.014Z</time></trkpt><trkpt lat="42.7844256934852" lon="10.328217842250208"><ele>193.83333333333334</ele><time>2026-04-19T07:50:18.014Z</time></trkpt><trkpt lat="42.78450395783212" lon="10.328246746134429"><ele>192.66666666666666</ele><time>2026-04-19T07:50:19.014Z</time></trkpt><trkpt lat="42.78458229053921" lon="10.328268486664161"><ele>191.5</ele><time>2026-04-19T07:50:20.014Z</time></trkpt><trkpt lat="42.78465893331937" lon="10.328289272160175"><ele>190.33333333333331</ele><time>2026-04-19T07:50:21.014Z</time></trkpt><trkpt lat="42.78472871512984" lon="10.32827796484281"><ele>189.16666666666666</ele><time>2026-04-19T07:50:22.014Z</time></trkpt><trkpt lat="42.78480083654422" lon="10.32827398087847"><ele>188.0</ele><time>2026-04-19T07:50:23.014Z</time></trkpt><trkpt lat="42.784927028934355" lon="10.328236592800993"><ele>188.0</ele><time>2026-04-19T07:50:25.014Z</time></trkpt><trkpt lat="42.78499038654628" lon="10.328207572699846"><ele>188.0</ele><time>2026-04-19T07:50:26.014Z</time></trkpt><trkpt lat="42.785093156171634" lon="10.328145348022167"><ele>188.0</ele><time>2026-04-19T07:50:28.014Z</time></trkpt><trkpt lat="42.785228014185314" lon="10.328113939596154"><ele>188.0</ele><time>2026-04-19T07:50:30.014Z</time></trkpt><trkpt lat="42.78531096165409" lon="10.328144224535972"><ele>188.0</ele><time>2026-04-19T07:50:31.014Z</time></trkpt><trkpt lat="42.78541102372136" lon="10.328175695801917"><ele>185.8</ele><time>2026-04-19T07:50:32.014Z</time></trkpt><trkpt lat="42.78547781832046" lon="10.328223150982403"><ele>183.60000000000002</ele><time>2026-04-19T07:50:33.014Z</time></trkpt><trkpt lat="42.785601513785025" lon="10.328283105574384"><ele>181.39999999999998</ele><time>2026-04-19T07:50:35.014Z</time></trkpt><trkpt lat="42.78567271253416" lon="10.328306426405899"><ele>179.2</ele><time>2026-04-19T07:50:36.014Z</time></trkpt><trkpt lat="42.785771230687" lon="10.328375925042351"><ele>177.0</ele><time>2026-04-19T07:50:38.014Z</time></trkpt><trkpt lat="42.78579397695726" lon="10.32827873802432"><ele>177.0</ele><time>2026-04-19T07:50:42.014Z</time></trkpt><trkpt lat="42.78574688160543" lon="10.328136873750347"><ele>177.0</ele><time>2026-04-19T07:50:44.014Z</time></trkpt><trkpt lat="42.785706624164554" lon="10.328057946801486"><ele>177.0</ele><time>2026-04-19T07:50:45.014Z</time></trkpt><trkpt lat="42.78566481183259" lon="10.327975667359015"><ele>177.0</ele><time>2026-04-19T07:50:46.014Z</time></trkpt><trkpt lat="42.785608364010024" lon="10.327867472689954"><ele>177.0</ele><time>2026-04-19T07:50:47.014Z</time></trkpt><trkpt lat="42.78558160148826" lon="10.32775769378716"><ele>177.0</ele><time>2026-04-19T07:50:48.014Z</time></trkpt><trkpt lat="42.78557716611458" lon="10.327638035748972"><ele>177.0</ele><time>2026-04-19T07:50:49.014Z</time></trkpt><trkpt lat="42.7855775017779" lon="10.327506122175697"><ele>177.0</ele><time>2026-04-19T07:50:50.014Z</time></trkpt><trkpt lat="42.78558641425296" lon="10.327382504535963"><ele>177.0</ele><time>2026-04-19T07:50:51.014Z</time></trkpt><trkpt lat="42.78560513452579" lon="10.3272736221721"><ele>177.0</ele><time>2026-04-19T07:50:52.014Z</time></trkpt><trkpt lat="42.78563163956247" lon="10.327167565235088"><ele>177.0</ele><time>2026-04-19T07:50:53.014Z</time></trkpt><trkpt lat="42.785657573080265" lon="10.327048265658181"><ele>177.0</ele><time>2026-04-19T07:50:54.014Z</time></trkpt><trkpt lat="42.78567141193313" lon="10.326962533196369"><ele>176.39999999999998</ele><time>2026-04-19T07:50:55.014Z</time></trkpt><trkpt lat="42.785644965039616" lon="10.32680558166396"><ele>175.79999999999998</ele><time>2026-04-19T07:50:57.014Z</time></trkpt><trkpt lat="42.785588629066424" lon="10.326621077393902"><ele>175.2</ele><time>2026-04-19T07:50:59.014Z</time></trkpt><trkpt lat="42.785564824210404" lon="10.326528471135543"><ele>174.6</ele><time>2026-04-19T07:51:00.014Z</time></trkpt><trkpt lat="42.78555064337856" lon="10.326427027334914"><ele>174.0</ele><time>2026-04-19T07:51:01.014Z</time></trkpt><trkpt lat="42.78561056635124" lon="10.326319726661021"><ele>174.0</ele><time>2026-04-19T07:51:02.014Z</time></trkpt><trkpt lat="42.78564786260929" lon="10.32621612507539"><ele>174.0</ele><time>2026-04-19T07:51:03.014Z</time></trkpt><trkpt lat="42.785684585245136" lon="10.326097284966721"><ele>174.0</ele><time>2026-04-19T07:51:04.014Z</time></trkpt><trkpt lat="42.785658176594474" lon="10.325996442087703"><ele>174.0</ele><time>2026-04-19T07:51:05.014Z</time></trkpt><trkpt lat="42.7856444594482" lon="10.325891941970298"><ele>174.0</ele><time>2026-04-19T07:51:06.014Z</time></trkpt><trkpt lat="42.78563383701182" lon="10.32576107306292"><ele>174.0</ele><time>2026-04-19T07:51:07.014Z</time></trkpt><trkpt lat="42.78562230696228" lon="10.325637808260069"><ele>173.16666666666666</ele><time>2026-04-19T07:51:08.014Z</time></trkpt><trkpt lat="42.785606311382544" lon="10.325508846790145"><ele>172.33333333333334</ele><time>2026-04-19T07:51:09.014Z</time></trkpt><trkpt lat="42.78558360491029" lon="10.325392201946306"><ele>171.5</ele><time>2026-04-19T07:51:10.014Z</time></trkpt><trkpt lat="42.78555056003574" lon="10.325305099834113"><ele>170.66666666666669</ele><time>2026-04-19T07:51:11.014Z</time></trkpt><trkpt lat="42.78550904684333" lon="10.325201533164678"><ele>169.83333333333334</ele><time>2026-04-19T07:51:12.014Z</time></trkpt><trkpt lat="42.78553700449525" lon="10.325096515905612"><ele>169.0</ele><time>2026-04-19T07:51:13.014Z</time></trkpt><trkpt lat="42.78550925070365" lon="10.3249967830743"><ele>169.0</ele><time>2026-04-19T07:51:14.014Z</time></trkpt><trkpt lat="42.78549519847863" lon="10.324896359661613"><ele>169.0</ele><time>2026-04-19T07:51:15.015Z</time></trkpt><trkpt lat="42.785478288810346" lon="10.324789743478902"><ele>169.0</ele><time>2026-04-19T07:51:16.015Z</time></trkpt><trkpt lat="42.785459209118926" lon="10.324697027997681"><ele>169.0</ele><time>2026-04-19T07:51:17.015Z</time></trkpt><trkpt lat="42.78542707471144" lon="10.324604892418268"><ele>169.0</ele><time>2026-04-19T07:51:18.015Z</time></trkpt><trkpt lat="42.785394276940636" lon="10.324508976748318"><ele>169.0</ele><time>2026-04-19T07:51:19.015Z</time></trkpt><trkpt lat="42.785341414880826" lon="10.32439144646347"><ele>169.5</ele><time>2026-04-19T07:51:21.015Z</time></trkpt><trkpt lat="42.78529214357775" lon="10.324236927198566"><ele>170.0</ele><time>2026-04-19T07:51:23.015Z</time></trkpt><trkpt lat="42.78525573518795" lon="10.324153736373717"><ele>170.5</ele><time>2026-04-19T07:51:24.015Z</time></trkpt><trkpt lat="42.78520740573471" lon="10.32405898230383"><ele>171.0</ele><time>2026-04-19T07:51:25.014Z</time></trkpt><trkpt lat="42.785160737875074" lon="10.323971730823796"><ele>171.5</ele><time>2026-04-19T07:51:26.014Z</time></trkpt><trkpt lat="42.785109219651524" lon="10.32389964080909"><ele>172.0</ele><time>2026-04-19T07:51:27.014Z</time></trkpt><trkpt lat="42.78508709161686" lon="10.323810074183063"><ele>172.0</ele><time>2026-04-19T07:51:28.014Z</time></trkpt><trkpt lat="42.78503307296244" lon="10.323622571444941"><ele>172.0</ele><time>2026-04-19T07:51:30.015Z</time></trkpt><trkpt lat="42.78501284764251" lon="10.32353202314566"><ele>172.0</ele><time>2026-04-19T07:51:31.015Z</time></trkpt><trkpt lat="42.78497046836697" lon="10.323410975849846"><ele>172.0</ele><time>2026-04-19T07:51:32.015Z</time></trkpt><trkpt lat="42.78493275442776" lon="10.323280185304851"><ele>172.0</ele><time>2026-04-19T07:51:33.015Z</time></trkpt><trkpt lat="42.78490322115158" lon="10.323195333793985"><ele>170.6</ele><time>2026-04-19T07:51:34.015Z</time></trkpt><trkpt lat="42.78486696663846" lon="10.32303827537222"><ele>169.2</ele><time>2026-04-19T07:51:36.015Z</time></trkpt><trkpt lat="42.78486900092531" lon="10.322878404642525"><ele>167.8</ele><time>2026-04-19T07:51:38.015Z</time></trkpt><trkpt lat="42.784837903962654" lon="10.3227969437917"><ele>166.4</ele><time>2026-04-19T07:51:39.015Z</time></trkpt><trkpt lat="42.78484116161593" lon="10.322630663259657"><ele>165.0</ele><time>2026-04-19T07:51:41.015Z</time></trkpt><trkpt lat="42.784894311412316" lon="10.322486263487965"><ele>165.0</ele><time>2026-04-19T07:51:43.015Z</time></trkpt><trkpt lat="42.784917088390294" lon="10.322402901135955"><ele>165.0</ele><time>2026-04-19T07:51:44.015Z</time></trkpt><trkpt lat="42.784935424254584" lon="10.322310445810066"><ele>165.0</ele><time>2026-04-19T07:51:45.015Z</time></trkpt><trkpt lat="42.78490657154543" lon="10.322221883587135"><ele>165.0</ele><time>2026-04-19T07:51:46.015Z</time></trkpt><trkpt lat="42.78488893210926" lon="10.322133946618399"><ele>165.0</ele><time>2026-04-19T07:51:47.015Z</time></trkpt><trkpt lat="42.78477974346879" lon="10.322008240978379"><ele>165.0</ele><time>2026-04-19T07:51:49.015Z</time></trkpt><trkpt lat="42.78471147407739" lon="10.321911820869532"><ele>164.6</ele><time>2026-04-19T07:51:51.015Z</time></trkpt><trkpt lat="42.7847452587354" lon="10.321772213637228"><ele>164.2</ele><time>2026-04-19T07:51:54.015Z</time></trkpt><trkpt lat="42.78479521285219" lon="10.32170205573059"><ele>163.8</ele><time>2026-04-19T07:51:55.015Z</time></trkpt><trkpt lat="42.78482106414743" lon="10.321608379852464"><ele>163.4</ele><time>2026-04-19T07:51:56.015Z</time></trkpt><trkpt lat="42.78490058370674" lon="10.321549855148762"><ele>163.0</ele><time>2026-04-19T07:51:58.015Z</time></trkpt><trkpt lat="42.78501816162754" lon="10.32147822039774"><ele>164.16666666666669</ele><time>2026-04-19T07:52:00.015Z</time></trkpt><trkpt lat="42.785095155958" lon="10.321395325559664"><ele>165.33333333333334</ele><time>2026-04-19T07:52:01.015Z</time></trkpt><trkpt lat="42.78516208345182" lon="10.32130666313839"><ele>166.5</ele><time>2026-04-19T07:52:02.015Z</time></trkpt><trkpt lat="42.7852265332665" lon="10.321228257314338"><ele>167.66666666666666</ele><time>2026-04-19T07:52:03.015Z</time></trkpt><trkpt lat="42.78528624494648" lon="10.321161493735428"><ele>168.83333333333331</ele><time>2026-04-19T07:52:04.015Z</time></trkpt><trkpt lat="42.785321819966015" lon="10.321082724741439"><ele>170.0</ele><time>2026-04-19T07:52:05.015Z</time></trkpt><trkpt lat="42.78532687254755" lon="10.32098200306888"><ele>170.0</ele><time>2026-04-19T07:52:06.015Z</time></trkpt><trkpt lat="42.785307234227076" lon="10.3208694327114"><ele>170.0</ele><time>2026-04-19T07:52:07.015Z</time></trkpt><trkpt lat="42.78526085058082" lon="10.320785156307252"><ele>170.0</ele><time>2026-04-19T07:52:08.015Z</time></trkpt><trkpt lat="42.785199266621305" lon="10.32073293717005"><ele>170.0</ele><time>2026-04-19T07:52:09.015Z</time></trkpt><trkpt lat="42.78515049032938" lon="10.320669283413556"><ele>170.0</ele><time>2026-04-19T07:52:10.015Z</time></trkpt><trkpt lat="42.78510388034467" lon="10.320610591159875"><ele>170.0</ele><time>2026-04-19T07:52:12.015Z</time></trkpt><trkpt lat="42.78510752455157" lon="10.320492973187898"><ele>171.83333333333331</ele><time>2026-04-19T07:52:24.015Z</time></trkpt><trkpt lat="42.785157771767125" lon="10.320425021615227"><ele>173.66666666666666</ele><time>2026-04-19T07:52:33.015Z</time></trkpt><trkpt lat="42.78522062370109" lon="10.320398803133456"><ele>175.5</ele><time>2026-04-19T07:52:38.015Z</time></trkpt><trkpt lat="42.785304327267426" lon="10.320389869117419"><ele>177.33333333333334</ele><time>2026-04-19T07:52:44.015Z</time></trkpt><trkpt lat="42.78538683173765" lon="10.320382311144721"><ele>179.16666666666669</ele><time>2026-04-19T07:52:48.015Z</time></trkpt><trkpt lat="42.785462379718346" lon="10.320403494516222"><ele>181.0</ele><time>2026-04-19T07:52:51.015Z</time></trkpt><trkpt lat="42.78553657767565" lon="10.320391632232033"><ele>177.28571428571428</ele><time>2026-04-19T07:52:54.015Z</time></trkpt><trkpt lat="42.785598995843635" lon="10.320371800728564"><ele>173.57142857142856</ele><time>2026-04-19T07:52:56.015Z</time></trkpt><trkpt lat="42.78567341961389" lon="10.320351184733632"><ele>169.85714285714286</ele><time>2026-04-19T07:52:59.015Z</time></trkpt><trkpt lat="42.785736278362094" lon="10.320317580361593"><ele>166.14285714285714</ele><time>2026-04-19T07:53:05.015Z</time></trkpt><trkpt lat="42.78580324237802" lon="10.320291536928954"><ele>162.42857142857142</ele><time>2026-04-19T07:53:28.016Z</time></trkpt><trkpt lat="42.78586756420948" lon="10.320297317893845"><ele>158.71428571428572</ele><time>2026-04-19T07:53:33.016Z</time></trkpt><trkpt lat="42.785854176638516" lon="10.3203922439831"><ele>155.0</ele><time>2026-04-19T07:53:37.015Z</time></trkpt><trkpt lat="42.785932825150574" lon="10.320448868015546"><ele>155.0</ele><time>2026-04-19T07:53:40.016Z</time></trkpt><trkpt lat="42.78599479928395" lon="10.320411190926484"><ele>155.0</ele><time>2026-04-19T07:53:43.016Z</time></trkpt><trkpt lat="42.78604952209332" lon="10.320322310778293"><ele>155.0</ele><time>2026-04-19T07:53:47.016Z</time></trkpt><trkpt lat="42.78608051285585" lon="10.320247491298527"><ele>155.0</ele><time>2026-04-19T07:53:50.016Z</time></trkpt><trkpt lat="42.7861511048591" lon="10.320285075307572"><ele>155.0</ele><time>2026-04-19T07:53:54.016Z</time></trkpt><trkpt lat="42.78621757095228" lon="10.320361457350446"><ele>155.0</ele><time>2026-04-19T07:53:58.016Z</time></trkpt><trkpt lat="42.78628537104728" lon="10.320412740512008"><ele>150.16666666666666</ele><time>2026-04-19T07:54:02.016Z</time></trkpt><trkpt lat="42.786353364923954" lon="10.32046882051134"><ele>145.33333333333331</ele><time>2026-04-19T07:54:06.016Z</time></trkpt><trkpt lat="42.78641610017154" lon="10.320484014553156"><ele>140.5</ele><time>2026-04-19T07:54:09.016Z</time></trkpt><trkpt lat="42.78651571390995" lon="10.320480507279328"><ele>135.66666666666666</ele><time>2026-04-19T07:54:12.016Z</time></trkpt><trkpt lat="42.78658522706762" lon="10.32048310637751"><ele>130.83333333333334</ele><time>2026-04-19T07:54:14.016Z</time></trkpt><trkpt lat="42.786663613475035" lon="10.320509441007216"><ele>126.0</ele><time>2026-04-19T07:54:17.016Z</time></trkpt><trkpt lat="42.78676980430234" lon="10.320508557064837"><ele>126.0</ele><time>2026-04-19T07:54:19.016Z</time></trkpt><trkpt lat="42.7868325875157" lon="10.320443876060677"><ele>126.0</ele><time>2026-04-19T07:54:21.016Z</time></trkpt><trkpt lat="42.786807591868644" lon="10.320355486331248"><ele>126.0</ele><time>2026-04-19T07:54:56.015Z</time></trkpt><trkpt lat="42.78673134659982" lon="10.320276671976092"><ele>126.0</ele><time>2026-04-19T07:54:58.015Z</time></trkpt><trkpt lat="42.78679636433799" lon="10.320174514536516"><ele>126.0</ele><time>2026-04-19T07:55:01.015Z</time></trkpt><trkpt lat="42.78694459342659" lon="10.320146469222292"><ele>123.4</ele><time>2026-04-19T07:55:03.015Z</time></trkpt><trkpt lat="42.78703997107387" lon="10.320127297183603"><ele>120.8</ele><time>2026-04-19T07:55:04.015Z</time></trkpt><trkpt lat="42.78713586442573" lon="10.320111913467276"><ele>118.20000000000002</ele><time>2026-04-19T07:55:05.015Z</time></trkpt><trkpt lat="42.787229988412214" lon="10.320098520011733"><ele>115.60000000000001</ele><time>2026-04-19T07:55:06.015Z</time></trkpt><trkpt lat="42.7873115689431" lon="10.320034706673471"><ele>113.0</ele><time>2026-04-19T07:55:07.015Z</time></trkpt><trkpt lat="42.78739078824179" lon="10.31999018780801"><ele>112.99999999999999</ele><time>2026-04-19T07:55:08.015Z</time></trkpt><trkpt lat="42.78747467315927" lon="10.319941227750531"><ele>113.0</ele><time>2026-04-19T07:55:09.015Z</time></trkpt><trkpt lat="42.787553839964126" lon="10.319919276224477"><ele>113.0</ele><time>2026-04-19T07:55:10.015Z</time></trkpt><trkpt lat="42.787623261872476" lon="10.319879448067153"><ele>113.0</ele><time>2026-04-19T07:55:11.015Z</time></trkpt><trkpt lat="42.78769341562311" lon="10.319839200041589"><ele>112.99999999999999</ele><time>2026-04-19T07:55:12.015Z</time></trkpt><trkpt lat="42.78775746195799" lon="10.319768536129091"><ele>113.0</ele><time>2026-04-19T07:55:13.015Z</time></trkpt><trkpt lat="42.787813879498195" lon="10.319712939783733"><ele>109.25</ele><time>2026-04-19T07:55:14.015Z</time></trkpt><trkpt lat="42.7878235966484" lon="10.319573696697951"><ele>105.5</ele><time>2026-04-19T07:55:16.015Z</time></trkpt><trkpt lat="42.7876295112942" lon="10.319474033854586"><ele>101.75</ele><time>2026-04-19T07:55:20.015Z</time></trkpt><trkpt lat="42.78755564444971" lon="10.319505062338513"><ele>98.0</ele><time>2026-04-19T07:55:21.015Z</time></trkpt><trkpt lat="42.787464156446134" lon="10.319539131032348"><ele>98.0</ele><time>2026-04-19T07:55:23.015Z</time></trkpt><trkpt lat="42.78749346786827" lon="10.319376162295981"><ele>98.0</ele><time>2026-04-19T07:55:26.015Z</time></trkpt><trkpt lat="42.78758027168243" lon="10.319292962341178"><ele>98.0</ele><time>2026-04-19T07:55:27.017Z</time></trkpt><trkpt lat="42.78764873707284" lon="10.319225011051454"><ele>98.0</ele><time>2026-04-19T07:55:28.017Z</time></trkpt><trkpt lat="42.78770199898811" lon="10.319155022811"><ele>98.0</ele><time>2026-04-19T07:55:29.017Z</time></trkpt><trkpt lat="42.78778848949305" lon="10.319054323994122"><ele>95.49999999999999</ele><time>2026-04-19T07:55:31.017Z</time></trkpt><trkpt lat="42.78785267268154" lon="10.319031057596936"><ele>93.0</ele><time>2026-04-19T07:55:32.017Z</time></trkpt><trkpt lat="42.78791248090822" lon="10.319074028340879"><ele>90.5</ele><time>2026-04-19T07:55:33.016Z</time></trkpt><trkpt lat="42.7880474803862" lon="10.319090084672764"><ele>88.0</ele><time>2026-04-19T07:55:35.016Z</time></trkpt><trkpt lat="42.78812395826423" lon="10.319088161990159"><ele>85.5</ele><time>2026-04-19T07:55:36.016Z</time></trkpt><trkpt lat="42.788197471087514" lon="10.3190853481178"><ele>83.0</ele><time>2026-04-19T07:55:37.017Z</time></trkpt><trkpt lat="42.78829487671848" lon="10.319081499412645"><ele>83.0</ele><time>2026-04-19T07:55:38.017Z</time></trkpt><trkpt lat="42.788383065824064" lon="10.319076319666673"><ele>83.0</ele><time>2026-04-19T07:55:39.017Z</time></trkpt><trkpt lat="42.78847308279063" lon="10.319049856473972"><ele>83.0</ele><time>2026-04-19T07:55:40.017Z</time></trkpt><trkpt lat="42.788573367112626" lon="10.319048006722657"><ele>83.0</ele><time>2026-04-19T07:55:41.017Z</time></trkpt><trkpt lat="42.78867163371281" lon="10.319047301490905"><ele>83.0</ele><time>2026-04-19T07:55:42.017Z</time></trkpt><trkpt lat="42.78876379627197" lon="10.319044794017326"><ele>81.16666666666667</ele><time>2026-04-19T07:55:43.016Z</time></trkpt><trkpt lat="42.78884759482307" lon="10.319035837484526"><ele>79.33333333333334</ele><time>2026-04-19T07:55:44.016Z</time></trkpt><trkpt lat="42.78893619997374" lon="10.319027342760346"><ele>77.5</ele><time>2026-04-19T07:55:45.016Z</time></trkpt><trkpt lat="42.78902623722909" lon="10.319031535290424"><ele>75.66666666666667</ele><time>2026-04-19T07:55:46.016Z</time></trkpt><trkpt lat="42.78910951801427" lon="10.319024213800722"><ele>73.83333333333333</ele><time>2026-04-19T07:55:47.016Z</time></trkpt><trkpt lat="42.78919501384826" lon="10.319012499806659"><ele>72.0</ele><time>2026-04-19T07:55:48.016Z</time></trkpt><trkpt lat="42.789276868091406" lon="10.318985370552213"><ele>70.5</ele><time>2026-04-19T07:55:49.016Z</time></trkpt><trkpt lat="42.78935111180943" lon="10.318977060363812"><ele>69.0</ele><time>2026-04-19T07:55:50.016Z</time></trkpt><trkpt lat="42.78943285977948" lon="10.318967256905736"><ele>67.5</ele><time>2026-04-19T07:55:51.016Z</time></trkpt><trkpt lat="42.789520687048935" lon="10.31896214901945"><ele>66.0</ele><time>2026-04-19T07:55:52.016Z</time></trkpt><trkpt lat="42.78961847396443" lon="10.318937837232609"><ele>64.5</ele><time>2026-04-19T07:55:53.016Z</time></trkpt><trkpt lat="42.78970726805189" lon="10.31892889135452"><ele>63.0</ele><time>2026-04-19T07:55:54.016Z</time></trkpt><trkpt lat="42.78980713865995" lon="10.31890407661882"><ele>63.0</ele><time>2026-04-19T07:55:55.016Z</time></trkpt><trkpt lat="42.789890750991965" lon="10.318927681668795"><ele>63.0</ele><time>2026-04-19T07:55:56.016Z</time></trkpt><trkpt lat="42.789966570398335" lon="10.318958862439716"><ele>63.0</ele><time>2026-04-19T07:55:57.016Z</time></trkpt><trkpt lat="42.790039831465144" lon="10.31899163530005"><ele>63.0</ele><time>2026-04-19T07:55:58.016Z</time></trkpt><trkpt lat="42.79010142533428" lon="10.31901918907775"><ele>63.0</ele><time>2026-04-19T07:55:59.016Z</time></trkpt><trkpt lat="42.79016416492518" lon="10.319043077636529"><ele>63.0</ele><time>2026-04-19T07:56:00.016Z</time></trkpt><trkpt lat="42.79022875390683" lon="10.319061198324345"><ele>63.0</ele><time>2026-04-19T07:56:01.016Z</time></trkpt><trkpt lat="42.790300871369574" lon="10.319058309297924"><ele>60.2</ele><time>2026-04-19T07:56:02.016Z</time></trkpt><trkpt lat="42.79039348823757" lon="10.319061158498872"><ele>57.4</ele><time>2026-04-19T07:56:03.016Z</time></trkpt><trkpt lat="42.790493941319454" lon="10.319083275722702"><ele>54.6</ele><time>2026-04-19T07:56:04.016Z</time></trkpt><trkpt lat="42.79058555119102" lon="10.31913081889305"><ele>51.800000000000004</ele><time>2026-04-19T07:56:05.016Z</time></trkpt><trkpt lat="42.79068858308002" lon="10.319182158916695"><ele>49.0</ele><time>2026-04-19T07:56:06.016Z</time></trkpt><trkpt lat="42.79078948715572" lon="10.319217931545168"><ele>49.0</ele><time>2026-04-19T07:56:07.016Z</time></trkpt><trkpt lat="42.790902561061735" lon="10.319210519161105"><ele>49.0</ele><time>2026-04-19T07:56:08.016Z</time></trkpt><trkpt lat="42.79099844435296" lon="10.319239312810481"><ele>49.0</ele><time>2026-04-19T07:56:09.016Z</time></trkpt><trkpt lat="42.79110144107101" lon="10.319249247285928"><ele>49.0</ele><time>2026-04-19T07:56:10.016Z</time></trkpt><trkpt lat="42.79119622784318" lon="10.319262641068986"><ele>49.0</ele><time>2026-04-19T07:56:11.016Z</time></trkpt><trkpt lat="42.79128340149453" lon="10.319295657298197"><ele>46.2</ele><time>2026-04-19T07:56:12.016Z</time></trkpt><trkpt lat="42.791365413062366" lon="10.31934173677873"><ele>43.400000000000006</ele><time>2026-04-19T07:56:13.016Z</time></trkpt><trkpt lat="42.79144792461515" lon="10.319400467500266"><ele>40.6</ele><time>2026-04-19T07:56:14.016Z</time></trkpt><trkpt lat="42.79153697442194" lon="10.319464032979242"><ele>37.8</ele><time>2026-04-19T07:56:15.016Z</time></trkpt><trkpt lat="42.79162094460231" lon="10.319516807597376"><ele>35.0</ele><time>2026-04-19T07:56:16.016Z</time></trkpt><trkpt lat="42.79171970615105" lon="10.31954417717347"><ele>35.0</ele><time>2026-04-19T07:56:17.016Z</time></trkpt><trkpt lat="42.791808499284926" lon="10.319576865732339"><ele>35.0</ele><time>2026-04-19T07:56:18.016Z</time></trkpt><trkpt lat="42.79190788713867" lon="10.319574251344802"><ele>35.0</ele><time>2026-04-19T07:56:19.016Z</time></trkpt><trkpt lat="42.79201559686305" lon="10.319536310072914"><ele>35.0</ele><time>2026-04-19T07:56:20.016Z</time></trkpt><trkpt lat="42.792131421878594" lon="10.319568666784736"><ele>35.0</ele><time>2026-04-19T07:56:21.016Z</time></trkpt><trkpt lat="42.79225708048305" lon="10.319586978834145"><ele>33.5</ele><time>2026-04-19T07:56:22.016Z</time></trkpt><trkpt lat="42.79237369474283" lon="10.31963384320344"><ele>32.0</ele><time>2026-04-19T07:56:23.016Z</time></trkpt><trkpt lat="42.79248827528258" lon="10.319646488874472"><ele>30.5</ele><time>2026-04-19T07:56:24.016Z</time></trkpt><trkpt lat="42.7926072902776" lon="10.319659357062662"><ele>29.0</ele><time>2026-04-19T07:56:25.016Z</time></trkpt><trkpt lat="42.792709393194315" lon="10.319669376411369"><ele>27.75</ele><time>2026-04-19T07:56:26.016Z</time></trkpt><trkpt lat="42.79282019105342" lon="10.319683160400299"><ele>26.5</ele><time>2026-04-19T07:56:27.016Z</time></trkpt><trkpt lat="42.79292951015107" lon="10.319695703660265"><ele>25.25</ele><time>2026-04-19T07:56:28.016Z</time></trkpt><trkpt lat="42.79304111649769" lon="10.31970500849112"><ele>24.0</ele><time>2026-04-19T07:56:29.016Z</time></trkpt><trkpt lat="42.79316228524517" lon="10.319718019270049"><ele>24.0</ele><time>2026-04-19T07:56:30.016Z</time></trkpt><trkpt lat="42.793288397085995" lon="10.31972941234501"><ele>24.0</ele><time>2026-04-19T07:56:31.016Z</time></trkpt><trkpt lat="42.79340459794355" lon="10.31974547657841"><ele>24.0</ele><time>2026-04-19T07:56:32.016Z</time></trkpt><trkpt lat="42.793517005528614" lon="10.31976853129608"><ele>24.0</ele><time>2026-04-19T07:56:33.016Z</time></trkpt><trkpt lat="42.793627051006816" lon="10.319791173692884"><ele>23.0</ele><time>2026-04-19T07:56:34.016Z</time></trkpt><trkpt lat="42.79373511941872" lon="10.319814278196487"><ele>22.0</ele><time>2026-04-19T07:56:35.016Z</time></trkpt><trkpt lat="42.793834531105425" lon="10.319836951146977"><ele>21.0</ele><time>2026-04-19T07:56:36.016Z</time></trkpt><trkpt lat="42.79392701245914" lon="10.319856734389734"><ele>20.0</ele><time>2026-04-19T07:56:37.016Z</time></trkpt><trkpt lat="42.79402497624185" lon="10.3198817410528"><ele>19.0</ele><time>2026-04-19T07:56:38.016Z</time></trkpt><trkpt lat="42.79412713634289" lon="10.319905547751707"><ele>19.0</ele><time>2026-04-19T07:56:39.016Z</time></trkpt><trkpt lat="42.794236486047616" lon="10.319931780868698"><ele>19.0</ele><time>2026-04-19T07:56:40.016Z</time></trkpt><trkpt lat="42.79433593923295" lon="10.319955666557657"><ele>19.0</ele><time>2026-04-19T07:56:41.016Z</time></trkpt><trkpt lat="42.79443551386388" lon="10.319978635043961"><ele>19.0</ele><time>2026-04-19T07:56:42.016Z</time></trkpt><trkpt lat="42.794518041933564" lon="10.319995346440495"><ele>19.0</ele><time>2026-04-19T07:56:43.016Z</time></trkpt><trkpt lat="42.79457938416233" lon="10.320017532643638"><ele>18.599999999999998</ele><time>2026-04-19T07:56:44.016Z</time></trkpt><trkpt lat="42.794639957948476" lon="10.320043541304674"><ele>18.2</ele><time>2026-04-19T07:56:46.016Z</time></trkpt><trkpt lat="42.79471983098076" lon="10.32002677394252"><ele>17.799999999999997</ele><time>2026-04-19T07:56:51.016Z</time></trkpt><trkpt lat="42.79477475920302" lon="10.319880370227514"><ele>17.4</ele><time>2026-04-19T07:56:53.016Z</time></trkpt><trkpt lat="42.79481049188365" lon="10.31977439630671"><ele>17.0</ele><time>2026-04-19T07:56:54.016Z</time></trkpt><trkpt lat="42.79485292256163" lon="10.319649277436865"><ele>16.5</ele><time>2026-04-19T07:56:55.016Z</time></trkpt><trkpt lat="42.79490662892149" lon="10.319521247505296"><ele>16.0</ele><time>2026-04-19T07:56:56.016Z</time></trkpt><trkpt lat="42.79494233802819" lon="10.319388817128214"><ele>15.5</ele><time>2026-04-19T07:56:57.016Z</time></trkpt><trkpt lat="42.79499002861389" lon="10.319234568538976"><ele>15.0</ele><time>2026-04-19T07:56:58.016Z</time></trkpt><trkpt lat="42.79504924067809" lon="10.319081968382159"><ele>15.0</ele><time>2026-04-19T07:56:59.016Z</time></trkpt><trkpt lat="42.795107152443784" lon="10.318912378653412"><ele>15.0</ele><time>2026-04-19T07:57:00.016Z</time></trkpt><trkpt lat="42.79516543139558" lon="10.318736977421239"><ele>15.0</ele><time>2026-04-19T07:57:01.016Z</time></trkpt><trkpt lat="42.79522300808411" lon="10.318554633608855"><ele>15.0</ele><time>2026-04-19T07:57:02.016Z</time></trkpt><trkpt lat="42.79528427661174" lon="10.31836618260772"><ele>15.0</ele><time>2026-04-19T07:57:03.016Z</time></trkpt><trkpt lat="42.79533697729918" lon="10.318186892722958"><ele>15.0</ele><time>2026-04-19T07:57:04.016Z</time></trkpt><trkpt lat="42.7953868395042" lon="10.318032843750403"><ele>15.0</ele><time>2026-04-19T07:57:05.016Z</time></trkpt><trkpt lat="42.79542444027251" lon="10.317919991308152"><ele>15.0</ele><time>2026-04-19T07:57:06.016Z</time></trkpt><trkpt lat="42.79545910511558" lon="10.317833735765515"><ele>15.0</ele><time>2026-04-19T07:57:07.016Z</time></trkpt><trkpt lat="42.795485200736714" lon="10.317742590230933"><ele>15.0</ele><time>2026-04-19T07:57:08.016Z</time></trkpt><trkpt lat="42.795528517891555" lon="10.317663637786797"><ele>15.0</ele><time>2026-04-19T07:57:10.016Z</time></trkpt><trkpt lat="42.79573987300517" lon="10.317779474492763"><ele>15.0</ele><time>2026-04-19T07:57:11.016Z</time></trkpt><trkpt lat="42.79585597370234" lon="10.317818816359821"><ele>15.0</ele><time>2026-04-19T07:57:12.016Z</time></trkpt><trkpt lat="42.79598336489754" lon="10.317860234331771"><ele>13.75</ele><time>2026-04-19T07:57:13.016Z</time></trkpt><trkpt lat="42.796114627211615" lon="10.317894270707995"><ele>12.5</ele><time>2026-04-19T07:57:14.016Z</time></trkpt><trkpt lat="42.79625394024943" lon="10.317923597890097"><ele>11.25</ele><time>2026-04-19T07:57:15.016Z</time></trkpt><trkpt lat="42.796397594133126" lon="10.317954970278711"><ele>10.0</ele><time>2026-04-19T07:57:16.016Z</time></trkpt><trkpt lat="42.79653656608976" lon="10.31798888565075"><ele>10.0</ele><time>2026-04-19T07:57:17.016Z</time></trkpt><trkpt lat="42.7966698361455" lon="10.318021486239685"><ele>10.0</ele><time>2026-04-19T07:57:18.016Z</time></trkpt><trkpt lat="42.79680302148082" lon="10.318048651876566"><ele>10.0</ele><time>2026-04-19T07:57:19.016Z</time></trkpt><trkpt lat="42.79693522932356" lon="10.318081552069748"><ele>10.0</ele><time>2026-04-19T07:57:20.016Z</time></trkpt><trkpt lat="42.79707003670661" lon="10.318112431491134"><ele>9.0</ele><time>2026-04-19T07:57:21.016Z</time></trkpt><trkpt lat="42.79721616579016" lon="10.318150416169294"><ele>8.0</ele><time>2026-04-19T07:57:22.016Z</time></trkpt><trkpt lat="42.797362424647076" lon="10.31817936720978"><ele>7.0</ele><time>2026-04-19T07:57:23.016Z</time></trkpt><trkpt lat="42.79750545285744" lon="10.318209084581886"><ele>6.0</ele><time>2026-04-19T07:57:24.016Z</time></trkpt><trkpt lat="42.79764991502163" lon="10.3182396270541"><ele>5.5</ele><time>2026-04-19T07:57:25.016Z</time></trkpt><trkpt lat="42.797791015132994" lon="10.318266943316736"><ele>5.0</ele><time>2026-04-19T07:57:26.016Z</time></trkpt><trkpt lat="42.79792639354188" lon="10.318287239590687"><ele>4.5</ele><time>2026-04-19T07:57:27.016Z</time></trkpt><trkpt lat="42.79804413714957" lon="10.318316542837437"><ele>4.0</ele><time>2026-04-19T07:57:28.016Z</time></trkpt><trkpt lat="42.79816452641673" lon="10.318344441837793"><ele>4.0</ele><time>2026-04-19T07:57:29.016Z</time></trkpt><trkpt lat="42.79828646933315" lon="10.318368670276191"><ele>4.0</ele><time>2026-04-19T07:57:30.016Z</time></trkpt><trkpt lat="42.798412472339805" lon="10.31839226666769"><ele>4.0</ele><time>2026-04-19T07:57:31.016Z</time></trkpt><trkpt lat="42.79854669565387" lon="10.318417991522162"><ele>4.0</ele><time>2026-04-19T07:57:32.016Z</time></trkpt><trkpt lat="42.79867757664648" lon="10.318444725364179"><ele>4.0</ele><time>2026-04-19T07:57:33.017Z</time></trkpt><trkpt lat="42.79880470646543" lon="10.318470730210068"><ele>4.0</ele><time>2026-04-19T07:57:34.017Z</time></trkpt><trkpt lat="42.7989224901538" lon="10.318496880604004"><ele>4.0</ele><time>2026-04-19T07:57:35.018Z</time></trkpt><trkpt lat="42.79903550929586" lon="10.31852190051992"><ele>4.0</ele><time>2026-04-19T07:57:36.018Z</time></trkpt><trkpt lat="42.79913078460668" lon="10.318543849269702"><ele>3.9999999999999996</ele><time>2026-04-19T07:57:37.017Z</time></trkpt><trkpt lat="42.799214040019024" lon="10.318569530008917"><ele>4.0</ele><time>2026-04-19T07:57:38.017Z</time></trkpt><trkpt lat="42.7992860882839" lon="10.318597262601063"><ele>4.0</ele><time>2026-04-19T07:57:39.017Z</time></trkpt><trkpt lat="42.799352893303954" lon="10.318618569105931"><ele>4.0</ele><time>2026-04-19T07:57:40.017Z</time></trkpt><trkpt lat="42.79941469498619" lon="10.318634940630506"><ele>3.9999999999999996</ele><time>2026-04-19T07:57:41.017Z</time></trkpt><trkpt lat="42.799509170953506" lon="10.318664123293134"><ele>4.0</ele><time>2026-04-19T07:57:43.018Z</time></trkpt><trkpt lat="42.799568830339204" lon="10.318801634858396"><ele>3.8000000000000003</ele><time>2026-04-19T07:57:52.018Z</time></trkpt><trkpt lat="42.799562803977935" lon="10.31895507661573"><ele>3.6000000000000005</ele><time>2026-04-19T07:57:54.018Z</time></trkpt><trkpt lat="42.79966197149122" lon="10.319022912613983"><ele>3.4</ele><time>2026-04-19T07:57:56.018Z</time></trkpt><trkpt lat="42.79974659868994" lon="10.31890186675777"><ele>3.2</ele><time>2026-04-19T07:57:58.018Z</time></trkpt><trkpt lat="42.799768849518905" lon="10.318788817125212"><ele>3.0</ele><time>2026-04-19T07:57:59.018Z</time></trkpt><trkpt lat="42.799772062214984" lon="10.318655357167973"><ele>3.0</ele><time>2026-04-19T07:58:00.018Z</time></trkpt><trkpt lat="42.79976932117626" lon="10.31851408748883"><ele>3.0</ele><time>2026-04-19T07:58:01.018Z</time></trkpt><trkpt lat="42.799731634180326" lon="10.318350051476786"><ele>3.0</ele><time>2026-04-19T07:58:02.018Z</time></trkpt><trkpt lat="42.799676774455904" lon="10.318190749537518"><ele>3.0</ele><time>2026-04-19T07:58:03.018Z</time></trkpt><trkpt lat="42.799651694347126" lon="10.318027143599881"><ele>3.0</ele><time>2026-04-19T07:58:04.018Z</time></trkpt><trkpt lat="42.799668035936264" lon="10.317838723203826"><ele>3.0</ele><time>2026-04-19T07:58:05.018Z</time></trkpt><trkpt lat="42.79969530137825" lon="10.317666480595426"><ele>3.0</ele><time>2026-04-19T07:58:06.018Z</time></trkpt><trkpt lat="42.79971301403776" lon="10.317472931714441"><ele>3.0</ele><time>2026-04-19T07:58:07.018Z</time></trkpt><trkpt lat="42.79973492778945" lon="10.31727522145015"><ele>2.5</ele><time>2026-04-19T07:58:08.018Z</time></trkpt><trkpt lat="42.799755524457275" lon="10.317068865207238"><ele>2.0</ele><time>2026-04-19T07:58:09.018Z</time></trkpt><trkpt lat="42.79976438643298" lon="10.316885303078172"><ele>1.5</ele><time>2026-04-19T07:58:10.018Z</time></trkpt><trkpt lat="42.79978565507222" lon="10.316715143270125"><ele>1.0</ele><time>2026-04-19T07:58:11.018Z</time></trkpt><trkpt lat="42.79980252320094" lon="10.316528946646823"><ele>1.25</ele><time>2026-04-19T07:58:12.018Z</time></trkpt><trkpt lat="42.799818698533024" lon="10.316352049583493"><ele>1.5</ele><time>2026-04-19T07:58:13.018Z</time></trkpt><trkpt lat="42.79983719250116" lon="10.316188623441262"><ele>1.75</ele><time>2026-04-19T07:58:14.018Z</time></trkpt><trkpt lat="42.79985571468832" lon="10.316033211466724"><ele>2.0</ele><time>2026-04-19T07:58:15.018Z</time></trkpt><trkpt lat="42.79987591295944" lon="10.31588762141526"><ele>2.0</ele><time>2026-04-19T07:58:16.018Z</time></trkpt><trkpt lat="42.79989357432205" lon="10.315721106383489"><ele>2.0</ele><time>2026-04-19T07:58:17.018Z</time></trkpt><trkpt lat="42.79990930972443" lon="10.315565751218358"><ele>2.0</ele><time>2026-04-19T07:58:18.018Z</time></trkpt><trkpt lat="42.7999259930533" lon="10.315397071919108"><ele>2.0</ele><time>2026-04-19T07:58:19.018Z</time></trkpt><trkpt lat="42.799949088691456" lon="10.315223141659018"><ele>2.0</ele><time>2026-04-19T07:58:20.018Z</time></trkpt><trkpt lat="42.79996616865207" lon="10.315041915809918"><ele>2.0</ele><time>2026-04-19T07:58:21.018Z</time></trkpt><trkpt lat="42.79998257475293" lon="10.314857092408689"><ele>2.0</ele><time>2026-04-19T07:58:22.018Z</time></trkpt><trkpt lat="42.800001022540016" lon="10.314670221744727"><ele>2.0</ele><time>2026-04-19T07:58:23.018Z</time></trkpt><trkpt lat="42.80002483756445" lon="10.31449252581955"><ele>2.25</ele><time>2026-04-19T07:58:24.018Z</time></trkpt><trkpt lat="42.80005186511693" lon="10.314327399159497"><ele>2.5</ele><time>2026-04-19T07:58:25.018Z</time></trkpt><trkpt lat="42.80008432947686" lon="10.31415761569614"><ele>2.75</ele><time>2026-04-19T07:58:26.018Z</time></trkpt><trkpt lat="42.800128735169636" lon="10.31397462111164"><ele>3.0</ele><time>2026-04-19T07:58:27.018Z</time></trkpt><trkpt lat="42.800203434377174" lon="10.313784659610597"><ele>3.333333333333333</ele><time>2026-04-19T07:58:28.018Z</time></trkpt><trkpt lat="42.8002791229567" lon="10.3136034683854"><ele>3.6666666666666665</ele><time>2026-04-19T07:58:29.018Z</time></trkpt><trkpt lat="42.80035296040669" lon="10.313428266183156"><ele>4.0</ele><time>2026-04-19T07:58:30.018Z</time></trkpt><trkpt lat="42.80042535853537" lon="10.313249060267934"><ele>3.25</ele><time>2026-04-19T07:58:31.018Z</time></trkpt><trkpt lat="42.80049729257344" lon="10.31306885062722"><ele>2.5</ele><time>2026-04-19T07:58:32.018Z</time></trkpt><trkpt lat="42.80058986565543" lon="10.312906450981924"><ele>1.75</ele><time>2026-04-19T07:58:33.018Z</time></trkpt><trkpt lat="42.800646807992145" lon="10.312728916646044"><ele>1.0</ele><time>2026-04-19T07:58:34.018Z</time></trkpt><trkpt lat="42.8007223569192" lon="10.312570135147778"><ele>1.0</ele><time>2026-04-19T07:58:35.017Z</time></trkpt><trkpt lat="42.80079451853718" lon="10.312395747757003"><ele>1.0</ele><time>2026-04-19T07:58:36.017Z</time></trkpt><trkpt lat="42.80086413149969" lon="10.312245369532503"><ele>1.0</ele><time>2026-04-19T07:58:37.017Z</time></trkpt><trkpt lat="42.800927899792576" lon="10.312103556699876"><ele>1.0</ele><time>2026-04-19T07:58:38.017Z</time></trkpt><trkpt lat="42.80099579508374" lon="10.311952106143428"><ele>0.75</ele><time>2026-04-19T07:58:39.017Z</time></trkpt><trkpt lat="42.801068552803464" lon="10.311792272124931"><ele>0.5</ele><time>2026-04-19T07:58:40.017Z</time></trkpt><trkpt lat="42.801137778379946" lon="10.31162756564067"><ele>0.25</ele><time>2026-04-19T07:58:41.017Z</time></trkpt><trkpt lat="42.80121400103857" lon="10.311456915915658"><ele>0.0</ele><time>2026-04-19T07:58:42.017Z</time></trkpt><trkpt lat="42.80128966288344" lon="10.311285754437613"><ele>0.0</ele><time>2026-04-19T07:58:43.017Z</time></trkpt><trkpt lat="42.80136662098358" lon="10.311111194901432"><ele>0.0</ele><time>2026-04-19T07:58:44.017Z</time></trkpt><trkpt lat="42.80145252482478" lon="10.310930693573123"><ele>0.0</ele><time>2026-04-19T07:58:45.017Z</time></trkpt><trkpt lat="42.80153386398163" lon="10.310743808800034"><ele>0.0</ele><time>2026-04-19T07:58:46.017Z</time></trkpt><trkpt lat="42.80161360985262" lon="10.31055497456286"><ele>0.0</ele><time>2026-04-19T07:58:47.017Z</time></trkpt><trkpt lat="42.80169301936815" lon="10.310363818684248"><ele>0.0</ele><time>2026-04-19T07:58:48.017Z</time></trkpt><trkpt lat="42.80177132105125" lon="10.310175089016925"><ele>-0.3333333333333333</ele><time>2026-04-19T07:58:49.017Z</time></trkpt><trkpt lat="42.80185106566532" lon="10.309984060280511"><ele>-0.6666666666666666</ele><time>2026-04-19T07:58:50.017Z</time></trkpt><trkpt lat="42.8019305216567" lon="10.309795885919927"><ele>-1.0</ele><time>2026-04-19T07:58:51.017Z</time></trkpt><trkpt lat="42.80201329610187" lon="10.309596443769948"><ele>-1.25</ele><time>2026-04-19T07:58:52.017Z</time></trkpt><trkpt lat="42.80208418351215" lon="10.309407501847783"><ele>-1.5</ele><time>2026-04-19T07:58:53.017Z</time></trkpt><trkpt lat="42.802161214166894" lon="10.309238901815768"><ele>-1.75</ele><time>2026-04-19T07:58:54.017Z</time></trkpt><trkpt lat="42.80222038839791" lon="10.309075218278718"><ele>-2.0</ele><time>2026-04-19T07:58:55.017Z</time></trkpt><trkpt lat="42.8022934741948" lon="10.308930056508178"><ele>-1.6</ele><time>2026-04-19T07:58:56.017Z</time></trkpt><trkpt lat="42.80237356664996" lon="10.308800135234874"><ele>-1.2000000000000002</ele><time>2026-04-19T07:58:57.017Z</time></trkpt><trkpt lat="42.802454930929706" lon="10.308704635393616"><ele>-0.8</ele><time>2026-04-19T07:58:58.017Z</time></trkpt><trkpt lat="42.802524153681695" lon="10.308641207229092"><ele>-0.4</ele><time>2026-04-19T07:58:59.017Z</time></trkpt><trkpt lat="42.80260010263844" lon="10.308594612260707"><ele>0.0</ele><time>2026-04-19T07:59:01.017Z</time></trkpt><trkpt lat="42.80268574005773" lon="10.308537008231237"><ele>0.0</ele><time>2026-04-19T07:59:03.017Z</time></trkpt><trkpt lat="42.80275478827272" lon="10.308497385107003"><ele>0.0</ele><time>2026-04-19T07:59:04.017Z</time></trkpt><trkpt lat="42.802825924428205" lon="10.30845580011981"><ele>0.0</ele><time>2026-04-19T07:59:05.017Z</time></trkpt><trkpt lat="42.80289203955279" lon="10.308410212401222"><ele>0.0</ele><time>2026-04-19T07:59:06.017Z</time></trkpt><trkpt lat="42.802964156723725" lon="10.308367526972646"><ele>0.0</ele><time>2026-04-19T07:59:07.017Z</time></trkpt><trkpt lat="42.80304862601316" lon="10.308323212035926"><ele>0.0</ele><time>2026-04-19T07:59:08.017Z</time></trkpt><trkpt lat="42.803149985686964" lon="10.308293436471892"><ele>0.0</ele><time>2026-04-19T07:59:09.017Z</time></trkpt><trkpt lat="42.803265145222916" lon="10.308308117659431"><ele>0.0</ele><time>2026-04-19T07:59:10.017Z</time></trkpt><trkpt lat="42.80338226840158" lon="10.30831613165726"><ele>0.0</ele><time>2026-04-19T07:59:11.017Z</time></trkpt><trkpt lat="42.803527700857295" lon="10.30833531135975"><ele>0.0</ele><time>2026-04-19T07:59:12.017Z</time></trkpt><trkpt lat="42.80368510851098" lon="10.308336219204426"><ele>0.6666666666666666</ele><time>2026-04-19T07:59:13.017Z</time></trkpt><trkpt lat="42.803849430379984" lon="10.308364033266624"><ele>1.3333333333333333</ele><time>2026-04-19T07:59:14.017Z</time></trkpt><trkpt lat="42.80402736109594" lon="10.308397404265168"><ele>2.0</ele><time>2026-04-19T07:59:15.017Z</time></trkpt><trkpt lat="42.80420593457601" lon="10.308430630941924"><ele>2.6666666666666665</ele><time>2026-04-19T07:59:16.017Z</time></trkpt><trkpt lat="42.80439065810954" lon="10.30848577464807"><ele>3.333333333333333</ele><time>2026-04-19T07:59:17.017Z</time></trkpt><trkpt lat="42.804571840002204" lon="10.308542191262562"><ele>4.0</ele><time>2026-04-19T07:59:18.017Z</time></trkpt><trkpt lat="42.80473944329387" lon="10.308634528876949"><ele>4.0</ele><time>2026-04-19T07:59:19.017Z</time></trkpt><trkpt lat="42.804919752896325" lon="10.308693953140809"><ele>4.0</ele><time>2026-04-19T07:59:20.017Z</time></trkpt><trkpt lat="42.80509984105118" lon="10.308725130187343"><ele>4.0</ele><time>2026-04-19T07:59:21.017Z</time></trkpt><trkpt lat="42.805279456088236" lon="10.30877664180971"><ele>4.666666666666666</ele><time>2026-04-19T07:59:22.017Z</time></trkpt><trkpt lat="42.80546153535853" lon="10.308812784137613"><ele>5.333333333333333</ele><time>2026-04-19T07:59:23.017Z</time></trkpt><trkpt lat="42.80564351130623" lon="10.30884020338491"><ele>6.0</ele><time>2026-04-19T07:59:24.017Z</time></trkpt><trkpt lat="42.80581725572783" lon="10.308851272285196"><ele>6.0</ele><time>2026-04-19T07:59:25.017Z</time></trkpt><trkpt lat="42.80598328451102" lon="10.308849777524616"><ele>6.0</ele><time>2026-04-19T07:59:26.017Z</time></trkpt><trkpt lat="42.806151445727664" lon="10.308835042652197"><ele>6.0</ele><time>2026-04-19T07:59:27.017Z</time></trkpt><trkpt lat="42.806317317940724" lon="10.308813210383187"><ele>6.333333333333334</ele><time>2026-04-19T07:59:28.017Z</time></trkpt><trkpt lat="42.80647928705226" lon="10.308783085447368"><ele>6.666666666666667</ele><time>2026-04-19T07:59:29.017Z</time></trkpt><trkpt lat="42.8066375920257" lon="10.30874976140125"><ele>7.0</ele><time>2026-04-19T07:59:30.017Z</time></trkpt><trkpt lat="42.80679036189372" lon="10.308724399635262"><ele>5.333333333333334</ele><time>2026-04-19T07:59:31.017Z</time></trkpt><trkpt lat="42.80694982982497" lon="10.308692869671916"><ele>3.666666666666667</ele><time>2026-04-19T07:59:32.017Z</time></trkpt><trkpt lat="42.80711360824088" lon="10.30866945796537"><ele>2.0</ele><time>2026-04-19T07:59:33.017Z</time></trkpt><trkpt lat="42.807278333223245" lon="10.3086653951597"><ele>2.0</ele><time>2026-04-19T07:59:34.017Z</time></trkpt><trkpt lat="42.807444141582266" lon="10.308662309735013"><ele>2.0</ele><time>2026-04-19T07:59:35.017Z</time></trkpt><trkpt lat="42.807607148050785" lon="10.308667662240662"><ele>2.0</ele><time>2026-04-19T07:59:36.017Z</time></trkpt><trkpt lat="42.807774825718546" lon="10.30867967187046"><ele>1.3333333333333333</ele><time>2026-04-19T07:59:37.017Z</time></trkpt><trkpt lat="42.807942934410015" lon="10.308703626335845"><ele>0.6666666666666666</ele><time>2026-04-19T07:59:38.017Z</time></trkpt><trkpt lat="42.80811276795829" lon="10.308742490582276"><ele>0.0</ele><time>2026-04-19T07:59:39.018Z</time></trkpt><trkpt lat="42.808290078780544" lon="10.308772575404825"><ele>0.0</ele><time>2026-04-19T07:59:40.018Z</time></trkpt><trkpt lat="42.80847128631356" lon="10.308807938664415"><ele>0.0</ele><time>2026-04-19T07:59:41.019Z</time></trkpt><trkpt lat="42.808642911267576" lon="10.308845916711547"><ele>0.0</ele><time>2026-04-19T07:59:42.019Z</time></trkpt><trkpt lat="42.8088064152756" lon="10.30888848763469"><ele>0.25</ele><time>2026-04-19T07:59:43.019Z</time></trkpt><trkpt lat="42.80896012249189" lon="10.308937990867388"><ele>0.5</ele><time>2026-04-19T07:59:44.019Z</time></trkpt><trkpt lat="42.80910029901979" lon="10.308990899800156"><ele>0.75</ele><time>2026-04-19T07:59:45.018Z</time></trkpt><trkpt lat="42.809212044178544" lon="10.309045882140602"><ele>1.0</ele><time>2026-04-19T07:59:46.018Z</time></trkpt><trkpt lat="42.80928197262232" lon="10.309142485269705"><ele>1.2000000000000002</ele><time>2026-04-19T07:59:47.018Z</time></trkpt><trkpt lat="42.80935048566856" lon="10.309191570623668"><ele>1.4000000000000001</ele><time>2026-04-19T07:59:48.018Z</time></trkpt><trkpt lat="42.80942418545207" lon="10.309244376863747"><ele>1.6</ele><time>2026-04-19T07:59:50.018Z</time></trkpt><trkpt lat="42.809507128119186" lon="10.309303805671831"><ele>1.8</ele><time>2026-04-19T07:59:54.018Z</time></trkpt><trkpt lat="42.80962100276892" lon="10.309385063468268"><ele>2.0</ele><time>2026-04-19T07:59:56.018Z</time></trkpt><trkpt lat="42.809702999097944" lon="10.309436673279851"><ele>2.0</ele><time>2026-04-19T07:59:57.018Z</time></trkpt><trkpt lat="42.8098031748554" lon="10.309458257380795"><ele>2.0</ele><time>2026-04-19T07:59:58.018Z</time></trkpt><trkpt lat="42.80989979316965" lon="10.309428077759863"><ele>2.0</ele><time>2026-04-19T07:59:59.018Z</time></trkpt><trkpt lat="42.80997144805387" lon="10.309364626716095"><ele>2.0</ele><time>2026-04-19T08:00:00.018Z</time></trkpt><trkpt lat="42.810001679825184" lon="10.309228848504642"><ele>2.0</ele><time>2026-04-19T08:00:01.018Z</time></trkpt><trkpt lat="42.81003720903727" lon="10.309115473036991"><ele>2.0</ele><time>2026-04-19T08:00:02.018Z</time></trkpt><trkpt lat="42.810045720296024" lon="10.309010615315405"><ele>2.0</ele><time>2026-04-19T08:00:03.018Z</time></trkpt><trkpt lat="42.810028267383075" lon="10.30891524490561"><ele>2.0</ele><time>2026-04-19T08:00:04.018Z</time></trkpt><trkpt lat="42.80997625328433" lon="10.308797267001488"><ele>2.0</ele><time>2026-04-19T08:00:06.018Z</time></trkpt><trkpt lat="42.81002327212191" lon="10.308618993104165"><ele>2.0</ele><time>2026-04-19T08:00:07.018Z</time></trkpt><trkpt lat="42.81004137140478" lon="10.308479718761218"><ele>2.1666666666666665</ele><time>2026-04-19T08:00:08.018Z</time></trkpt><trkpt lat="42.81005546162002" lon="10.308371293048207"><ele>2.333333333333333</ele><time>2026-04-19T08:00:09.018Z</time></trkpt><trkpt lat="42.81017276932285" lon="10.30827370968092"><ele>2.5</ele><time>2026-04-19T08:00:10.018Z</time></trkpt><trkpt lat="42.81021929734479" lon="10.308172371073754"><ele>2.6666666666666665</ele><time>2026-04-19T08:00:11.018Z</time></trkpt><trkpt lat="42.810266568830805" lon="10.308100554702035"><ele>2.8333333333333335</ele><time>2026-04-19T08:00:12.018Z</time></trkpt><trkpt lat="42.81030162140676" lon="10.308025868019822"><ele>3.0</ele><time>2026-04-19T08:00:13.018Z</time></trkpt><trkpt lat="42.810341678729" lon="10.307959315164474"><ele>3.0</ele><time>2026-04-19T08:00:14.018Z</time></trkpt><trkpt lat="42.81042868707319" lon="10.30785285212043"><ele>3.0</ele><time>2026-04-19T08:00:16.018Z</time></trkpt><trkpt lat="42.810465087935796" lon="10.30778203876642"><ele>3.0</ele><time>2026-04-19T08:00:17.018Z</time></trkpt><trkpt lat="42.81053684967805" lon="10.307657647224001"><ele>3.0</ele><time>2026-04-19T08:00:19.018Z</time></trkpt><trkpt lat="42.81059329722002" lon="10.307557020812128"><ele>3.0</ele><time>2026-04-19T08:00:21.018Z</time></trkpt><trkpt lat="42.81062687677065" lon="10.30744943771539"><ele>3.0</ele><time>2026-04-19T08:00:22.018Z</time></trkpt><trkpt lat="42.810675097637194" lon="10.307321407324078"><ele>3.0</ele><time>2026-04-19T08:00:23.018Z</time></trkpt><trkpt lat="42.81073122602259" lon="10.307173360264773"><ele>3.0</ele><time>2026-04-19T08:00:24.018Z</time></trkpt><trkpt lat="42.810788845656894" lon="10.307036449875897"><ele>3.0</ele><time>2026-04-19T08:00:25.018Z</time></trkpt><trkpt lat="42.81085165889193" lon="10.306894087294449"><ele>3.5</ele><time>2026-04-19T08:00:26.018Z</time></trkpt><trkpt lat="42.81091884105346" lon="10.306738989121516"><ele>4.0</ele><time>2026-04-19T08:00:27.018Z</time></trkpt><trkpt lat="42.81099384860756" lon="10.306579770111654"><ele>4.5</ele><time>2026-04-19T08:00:28.018Z</time></trkpt><trkpt lat="42.81108453825701" lon="10.306422148148835"><ele>5.0</ele><time>2026-04-19T08:00:29.018Z</time></trkpt><trkpt lat="42.81118727125433" lon="10.306264083921535"><ele>6.0</ele><time>2026-04-19T08:00:30.018Z</time></trkpt><trkpt lat="42.8113056769872" lon="10.306111432046647"><ele>7.0</ele><time>2026-04-19T08:00:31.018Z</time></trkpt><trkpt lat="42.81144001425475" lon="10.305954057245525"><ele>8.0</ele><time>2026-04-19T08:00:32.018Z</time></trkpt><trkpt lat="42.81156406373885" lon="10.305791746637098"><ele>8.0</ele><time>2026-04-19T08:00:33.018Z</time></trkpt><trkpt lat="42.81168031292278" lon="10.305641406765151"><ele>8.0</ele><time>2026-04-19T08:00:34.018Z</time></trkpt><trkpt lat="42.811792481860735" lon="10.305500651380552"><ele>8.0</ele><time>2026-04-19T08:00:35.018Z</time></trkpt><trkpt lat="42.811900672126285" lon="10.305362001288849"><ele>9.0</ele><time>2026-04-19T08:00:36.018Z</time></trkpt><trkpt lat="42.812012816513736" lon="10.305227266171848"><ele>10.0</ele><time>2026-04-19T08:00:37.018Z</time></trkpt><trkpt lat="42.81212410761219" lon="10.305079708837258"><ele>11.0</ele><time>2026-04-19T08:00:38.018Z</time></trkpt><trkpt lat="42.8122373931716" lon="10.30494181944357"><ele>11.0</ele><time>2026-04-19T08:00:39.018Z</time></trkpt><trkpt lat="42.812351185681564" lon="10.304795100728152"><ele>11.0</ele><time>2026-04-19T08:00:40.018Z</time></trkpt><trkpt lat="42.81247044557891" lon="10.304646637369718"><ele>11.0</ele><time>2026-04-19T08:00:41.018Z</time></trkpt><trkpt lat="42.81259555780073" lon="10.304491570143183"><ele>12.333333333333332</ele><time>2026-04-19T08:00:42.018Z</time></trkpt><trkpt lat="42.81272565053763" lon="10.304338731165142"><ele>13.666666666666666</ele><time>2026-04-19T08:00:43.018Z</time></trkpt><trkpt lat="42.812853906896535" lon="10.304181293157553"><ele>15.0</ele><time>2026-04-19T08:00:44.018Z</time></trkpt><trkpt lat="42.81298429873616" lon="10.30403092984629"><ele>16.0</ele><time>2026-04-19T08:00:45.018Z</time></trkpt><trkpt lat="42.813117059678284" lon="10.303865167888375"><ele>17.0</ele><time>2026-04-19T08:00:46.018Z</time></trkpt><trkpt lat="42.81324525968508" lon="10.30370636803145"><ele>18.0</ele><time>2026-04-19T08:00:47.018Z</time></trkpt><trkpt lat="42.81335681038493" lon="10.303562013481166"><ele>18.0</ele><time>2026-04-19T08:00:48.018Z</time></trkpt><trkpt lat="42.81346082379916" lon="10.303422013399185"><ele>18.0</ele><time>2026-04-19T08:00:49.018Z</time></trkpt><trkpt lat="42.81354477093541" lon="10.303275323625739"><ele>18.0</ele><time>2026-04-19T08:00:50.018Z</time></trkpt><trkpt lat="42.81360980292777" lon="10.303109764842517"><ele>18.0</ele><time>2026-04-19T08:00:51.018Z</time></trkpt><trkpt lat="42.8136517356908" lon="10.302918267685593"><ele>20.333333333333336</ele><time>2026-04-19T08:00:52.018Z</time></trkpt><trkpt lat="42.81364546163935" lon="10.302707108856602"><ele>22.666666666666668</ele><time>2026-04-19T08:00:53.018Z</time></trkpt><trkpt lat="42.8136547575967" lon="10.302485842115935"><ele>25.0</ele><time>2026-04-19T08:00:54.018Z</time></trkpt><trkpt lat="42.81367160442707" lon="10.302257670039232"><ele>26.666666666666668</ele><time>2026-04-19T08:00:55.018Z</time></trkpt><trkpt lat="42.81371498105499" lon="10.302028175044866"><ele>28.333333333333336</ele><time>2026-04-19T08:00:56.018Z</time></trkpt><trkpt lat="42.81376547953418" lon="10.301810849768232"><ele>30.0</ele><time>2026-04-19T08:00:57.018Z</time></trkpt><trkpt lat="42.813813140067154" lon="10.30159865186727"><ele>31.333333333333336</ele><time>2026-04-19T08:00:58.018Z</time></trkpt><trkpt lat="42.81387855423048" lon="10.301395334671646"><ele>32.66666666666667</ele><time>2026-04-19T08:00:59.018Z</time></trkpt><trkpt lat="42.81396452680336" lon="10.301211252389056"><ele>34.0</ele><time>2026-04-19T08:01:00.018Z</time></trkpt><trkpt lat="42.814041468568355" lon="10.30101693940295"><ele>34.0</ele><time>2026-04-19T08:01:01.018Z</time></trkpt><trkpt lat="42.814103783385995" lon="10.300816564233925"><ele>34.0</ele><time>2026-04-19T08:01:02.018Z</time></trkpt><trkpt lat="42.81419697058442" lon="10.300638606644473"><ele>34.0</ele><time>2026-04-19T08:01:03.018Z</time></trkpt><trkpt lat="42.81427578618731" lon="10.30046455184119"><ele>35.25</ele><time>2026-04-19T08:01:04.018Z</time></trkpt><trkpt lat="42.81435346823046" lon="10.300296926680845"><ele>36.5</ele><time>2026-04-19T08:01:05.018Z</time></trkpt><trkpt lat="42.81443368873862" lon="10.300134318361946"><ele>37.75</ele><time>2026-04-19T08:01:06.018Z</time></trkpt><trkpt lat="42.814504013778844" lon="10.299950327981051"><ele>39.0</ele><time>2026-04-19T08:01:07.018Z</time></trkpt><trkpt lat="42.8145887960388" lon="10.29978136970917"><ele>40.666666666666664</ele><time>2026-04-19T08:01:08.018Z</time></trkpt><trkpt lat="42.81468960502056" lon="10.299619097493666"><ele>42.33333333333333</ele><time>2026-04-19T08:01:09.018Z</time></trkpt><trkpt lat="42.8148287014101" lon="10.299533818159007"><ele>44.0</ele><time>2026-04-19T08:01:10.018Z</time></trkpt><trkpt lat="42.81497014220952" lon="10.299451813519662"><ele>44.0</ele><time>2026-04-19T08:01:11.018Z</time></trkpt><trkpt lat="42.8151195286239" lon="10.29936780365374"><ele>44.0</ele><time>2026-04-19T08:01:12.018Z</time></trkpt><trkpt lat="42.815281186610584" lon="10.299277615625671"><ele>44.0</ele><time>2026-04-19T08:01:13.018Z</time></trkpt><trkpt lat="42.81544338739931" lon="10.299186585493194"><ele>43.666666666666664</ele><time>2026-04-19T08:01:14.018Z</time></trkpt><trkpt lat="42.81561766608546" lon="10.299088722487795"><ele>43.333333333333336</ele><time>2026-04-19T08:01:15.018Z</time></trkpt><trkpt lat="42.81579824963398" lon="10.298986488220324"><ele>43.0</ele><time>2026-04-19T08:01:16.018Z</time></trkpt><trkpt lat="42.81597153171296" lon="10.298888014365641"><ele>45.0</ele><time>2026-04-19T08:01:17.018Z</time></trkpt><trkpt lat="42.816138390531755" lon="10.298805191334612"><ele>47.0</ele><time>2026-04-19T08:01:18.018Z</time></trkpt><trkpt lat="42.81630139933315" lon="10.29871284025089"><ele>49.0</ele><time>2026-04-19T08:01:19.018Z</time></trkpt><trkpt lat="42.816457619001625" lon="10.29862258441496"><ele>49.0</ele><time>2026-04-19T08:01:20.018Z</time></trkpt><trkpt lat="42.81661373955684" lon="10.298511149093391"><ele>49.0</ele><time>2026-04-19T08:01:21.018Z</time></trkpt><trkpt lat="42.81675986255297" lon="10.298390027020996"><ele>49.0</ele><time>2026-04-19T08:01:22.018Z</time></trkpt><trkpt lat="42.81689469322216" lon="10.298249095199019"><ele>50.0</ele><time>2026-04-19T08:01:23.018Z</time></trkpt><trkpt lat="42.81702406577259" lon="10.298114116703031"><ele>51.0</ele><time>2026-04-19T08:01:24.018Z</time></trkpt><trkpt lat="42.81715518359828" lon="10.29798996668393"><ele>52.0</ele><time>2026-04-19T08:01:25.018Z</time></trkpt><trkpt lat="42.81728713813987" lon="10.297865262663356"><ele>52.0</ele><time>2026-04-19T08:01:26.018Z</time></trkpt><trkpt lat="42.817422103082414" lon="10.297739755351397"><ele>52.0</ele><time>2026-04-19T08:01:27.018Z</time></trkpt><trkpt lat="42.81755026420624" lon="10.297639578113435"><ele>52.0</ele><time>2026-04-19T08:01:28.018Z</time></trkpt><trkpt lat="42.817671366876475" lon="10.29754598915378"><ele>46.5</ele><time>2026-04-19T08:01:29.018Z</time></trkpt><trkpt lat="42.817791812699646" lon="10.29744426348129"><ele>41.0</ele><time>2026-04-19T08:01:30.018Z</time></trkpt><trkpt lat="42.817892822343744" lon="10.297356483494182"><ele>35.5</ele><time>2026-04-19T08:01:31.018Z</time></trkpt><trkpt lat="42.81795635709104" lon="10.29721772734884"><ele>30.0</ele><time>2026-04-19T08:01:32.018Z</time></trkpt><trkpt lat="42.81795570199911" lon="10.297047848315614"><ele>28.333333333333336</ele><time>2026-04-19T08:01:33.018Z</time></trkpt><trkpt lat="42.81797657124903" lon="10.296865790246018"><ele>26.666666666666668</ele><time>2026-04-19T08:01:34.018Z</time></trkpt><trkpt lat="42.81798877885713" lon="10.296645359745064"><ele>25.0</ele><time>2026-04-19T08:01:35.018Z</time></trkpt><trkpt lat="42.81798746218513" lon="10.296408125073906"><ele>23.666666666666668</ele><time>2026-04-19T08:01:36.018Z</time></trkpt><trkpt lat="42.8179858187263" lon="10.296185191918216"><ele>22.333333333333336</ele><time>2026-04-19T08:01:37.018Z</time></trkpt><trkpt lat="42.81799426279607" lon="10.29597740315557"><ele>21.0</ele><time>2026-04-19T08:01:38.018Z</time></trkpt><trkpt lat="42.81796125235958" lon="10.295782229992762"><ele>21.0</ele><time>2026-04-19T08:01:39.018Z</time></trkpt><trkpt lat="42.8178788218893" lon="10.295629629476268"><ele>21.0</ele><time>2026-04-19T08:01:40.018Z</time></trkpt><trkpt lat="42.8177957443822" lon="10.295493323400477"><ele>21.0</ele><time>2026-04-19T08:01:41.018Z</time></trkpt><trkpt lat="42.81771091841799" lon="10.295363934246174"><ele>21.0</ele><time>2026-04-19T08:01:42.018Z</time></trkpt><trkpt lat="42.817670354790295" lon="10.29519330953702"><ele>21.75</ele><time>2026-04-19T08:01:43.018Z</time></trkpt><trkpt lat="42.81772762230838" lon="10.295036861595298"><ele>22.5</ele><time>2026-04-19T08:01:44.018Z</time></trkpt><trkpt lat="42.81779808701939" lon="10.29491975226301"><ele>23.25</ele><time>2026-04-19T08:01:45.02Z</time></trkpt><trkpt lat="42.81788637435366" lon="10.294826769378025"><ele>24.0</ele><time>2026-04-19T08:01:46.02Z</time></trkpt><trkpt lat="42.81797267721634" lon="10.294709721617195"><ele>24.5</ele><time>2026-04-19T08:01:47.019Z</time></trkpt><trkpt lat="42.81805533655348" lon="10.294581800668926"><ele>25.0</ele><time>2026-04-19T08:01:48.019Z</time></trkpt><trkpt lat="42.81811085917796" lon="10.29441848439993"><ele>25.5</ele><time>2026-04-19T08:01:49.019Z</time></trkpt><trkpt lat="42.818141321507454" lon="10.294260136691388"><ele>26.0</ele><time>2026-04-19T08:01:50.019Z</time></trkpt><trkpt lat="42.81814103663663" lon="10.294129659278799"><ele>26.0</ele><time>2026-04-19T08:01:51.02Z</time></trkpt><trkpt lat="42.818088031829085" lon="10.294016585923753"><ele>26.0</ele><time>2026-04-19T08:01:52.02Z</time></trkpt><trkpt lat="42.81803753282739" lon="10.29391181813862"><ele>26.0</ele><time>2026-04-19T08:01:53.019Z</time></trkpt><trkpt lat="42.81801448571594" lon="10.293797920614699"><ele>26.0</ele><time>2026-04-19T08:01:54.019Z</time></trkpt><trkpt lat="42.81779262490429" lon="10.293760216086497"><ele>27.25</ele><time>2026-04-19T08:01:55.019Z</time></trkpt><trkpt lat="42.81764018004795" lon="10.293709871008119"><ele>28.5</ele><time>2026-04-19T08:01:56.019Z</time></trkpt><trkpt lat="42.81748976326" lon="10.293688169433675"><ele>29.75</ele><time>2026-04-19T08:01:57.02Z</time></trkpt><trkpt lat="42.817352688420115" lon="10.293677023826179"><ele>31.0</ele><time>2026-04-19T08:01:58.02Z</time></trkpt><trkpt lat="42.81725374787482" lon="10.293645491759218"><ele>31.0</ele><time>2026-04-19T08:01:59.019Z</time></trkpt><trkpt lat="42.81717823160848" lon="10.293569701156716"><ele>31.0</ele><time>2026-04-19T08:02:00.019Z</time></trkpt><trkpt lat="42.817159497736945" lon="10.293450690714897"><ele>31.0</ele><time>2026-04-19T08:02:01.019Z</time></trkpt><trkpt lat="42.81719206905106" lon="10.293340271285485"><ele>31.0</ele><time>2026-04-19T08:02:02.019Z</time></trkpt><trkpt lat="42.81724746542434" lon="10.293238112967478"><ele>31.0</ele><time>2026-04-19T08:02:03.019Z</time></trkpt><trkpt lat="42.817352433936" lon="10.293215130116959"><ele>31.0</ele><time>2026-04-19T08:02:04.019Z</time></trkpt><trkpt lat="42.81744586661177" lon="10.293170487508135"><ele>31.0</ele><time>2026-04-19T08:02:05.019Z</time></trkpt><trkpt lat="42.817569390622" lon="10.293095151391086"><ele>31.0</ele><time>2026-04-19T08:02:06.019Z</time></trkpt><trkpt lat="42.81770595821783" lon="10.293029489550014"><ele>31.0</ele><time>2026-04-19T08:02:07.019Z</time></trkpt><trkpt lat="42.81784631048184" lon="10.29295268443675"><ele>34.0</ele><time>2026-04-19T08:02:08.019Z</time></trkpt><trkpt lat="42.81797538256551" lon="10.29286299742268"><ele>37.0</ele><time>2026-04-19T08:02:09.019Z</time></trkpt><trkpt lat="42.81811216647201" lon="10.292808885408066"><ele>40.0</ele><time>2026-04-19T08:02:10.019Z</time></trkpt><trkpt lat="42.818154882865144" lon="10.292594498463528"><ele>40.0</ele><time>2026-04-19T08:02:11.019Z</time></trkpt><trkpt lat="42.81823271932506" lon="10.292465902505034"><ele>40.0</ele><time>2026-04-19T08:02:12.019Z</time></trkpt><trkpt lat="42.81832155769626" lon="10.292383817123007"><ele>40.0</ele><time>2026-04-19T08:02:13.019Z</time></trkpt><trkpt lat="42.81842589442717" lon="10.292378664382753"><ele>40.0</ele><time>2026-04-19T08:02:14.019Z</time></trkpt><trkpt lat="42.8185345205657" lon="10.292494790709375"><ele>38.75</ele><time>2026-04-19T08:02:15.019Z</time></trkpt><trkpt lat="42.81867576912256" lon="10.292527814669326"><ele>37.5</ele><time>2026-04-19T08:02:16.019Z</time></trkpt><trkpt lat="42.81882269171529" lon="10.292523351539193"><ele>36.25</ele><time>2026-04-19T08:02:17.019Z</time></trkpt><trkpt lat="42.8189716984391" lon="10.29253064505837"><ele>35.0</ele><time>2026-04-19T08:02:18.019Z</time></trkpt><trkpt lat="42.81911942547536" lon="10.292513629591072"><ele>35.0</ele><time>2026-04-19T08:02:19.019Z</time></trkpt><trkpt lat="42.819244218459126" lon="10.292482956917796"><ele>35.0</ele><time>2026-04-19T08:02:20.019Z</time></trkpt><trkpt lat="42.81933761461932" lon="10.292419169090692"><ele>35.0</ele><time>2026-04-19T08:02:21.019Z</time></trkpt><trkpt lat="42.819400407002284" lon="10.292292442248764"><ele>35.0</ele><time>2026-04-19T08:02:22.019Z</time></trkpt><trkpt lat="42.81940325915534" lon="10.292132899078107"><ele>34.75</ele><time>2026-04-19T08:02:23.019Z</time></trkpt><trkpt lat="42.81942924741767" lon="10.291963349496093"><ele>34.5</ele><time>2026-04-19T08:02:24.019Z</time></trkpt><trkpt lat="42.819464982128544" lon="10.291780202352916"><ele>34.25</ele><time>2026-04-19T08:02:25.019Z</time></trkpt><trkpt lat="42.81948231619095" lon="10.291583358037313"><ele>34.0</ele><time>2026-04-19T08:02:26.019Z</time></trkpt><trkpt lat="42.81951653689993" lon="10.291417985283086"><ele>37.8</ele><time>2026-04-19T08:02:27.019Z</time></trkpt><trkpt lat="42.819562366135386" lon="10.291290450446448"><ele>41.599999999999994</ele><time>2026-04-19T08:02:28.019Z</time></trkpt><trkpt lat="42.81964939997175" lon="10.291208816469918"><ele>45.4</ele><time>2026-04-19T08:02:29.019Z</time></trkpt><trkpt lat="42.81975791131205" lon="10.291183146026123"><ele>49.199999999999996</ele><time>2026-04-19T08:02:30.019Z</time></trkpt><trkpt lat="42.81984465087587" lon="10.291162091200391"><ele>53.0</ele><time>2026-04-19T08:02:31.019Z</time></trkpt><trkpt lat="42.8199130583104" lon="10.29111997206244"><ele>53.0</ele><time>2026-04-19T08:02:32.019Z</time></trkpt><trkpt lat="42.82006817117692" lon="10.291310126785556"><ele>53.0</ele><time>2026-04-19T08:02:33.019Z</time></trkpt><trkpt lat="42.820157961852296" lon="10.291343448576292"><ele>53.0</ele><time>2026-04-19T08:02:34.019Z</time></trkpt><trkpt lat="42.82023824497939" lon="10.291336051030935"><ele>53.0</ele><time>2026-04-19T08:02:35.019Z</time></trkpt><trkpt lat="42.820304477353524" lon="10.29124647947324"><ele>48.5</ele><time>2026-04-19T08:02:36.019Z</time></trkpt><trkpt lat="42.820356097146046" lon="10.291103380459308"><ele>44.0</ele><time>2026-04-19T08:02:37.019Z</time></trkpt><trkpt lat="42.82040134070751" lon="10.29095124213014"><ele>39.5</ele><time>2026-04-19T08:02:38.019Z</time></trkpt><trkpt lat="42.820465913284245" lon="10.29080469847804"><ele>35.0</ele><time>2026-04-19T08:02:39.019Z</time></trkpt><trkpt lat="42.820548474155935" lon="10.2906519756734"><ele>39.25</ele><time>2026-04-19T08:02:40.019Z</time></trkpt><trkpt lat="42.82065159912744" lon="10.290510606875435"><ele>43.5</ele><time>2026-04-19T08:02:41.019Z</time></trkpt><trkpt lat="42.82076819710945" lon="10.290390651277512"><ele>47.75</ele><time>2026-04-19T08:02:42.019Z</time></trkpt><trkpt lat="42.82089152099918" lon="10.290274002176437"><ele>52.0</ele><time>2026-04-19T08:02:43.019Z</time></trkpt><trkpt lat="42.82099776131375" lon="10.290189440982676"><ele>46.6</ele><time>2026-04-19T08:02:44.019Z</time></trkpt><trkpt lat="42.82108624833135" lon="10.290106403211054"><ele>41.2</ele><time>2026-04-19T08:02:45.019Z</time></trkpt><trkpt lat="42.82114080139523" lon="10.2899966787002"><ele>35.8</ele><time>2026-04-19T08:02:46.019Z</time></trkpt><trkpt lat="42.82114241078782" lon="10.289854997392508"><ele>30.4</ele><time>2026-04-19T08:02:47.019Z</time></trkpt><trkpt lat="42.821121469428356" lon="10.289718885242692"><ele>25.0</ele><time>2026-04-19T08:02:48.019Z</time></trkpt><trkpt lat="42.8210656532083" lon="10.28962847466179"><ele>30.25</ele><time>2026-04-19T08:02:49.019Z</time></trkpt><trkpt lat="42.820981305542745" lon="10.28956786880949"><ele>35.5</ele><time>2026-04-19T08:02:50.019Z</time></trkpt><trkpt lat="42.82087977339046" lon="10.289499268978266"><ele>40.75</ele><time>2026-04-19T08:02:51.019Z</time></trkpt><trkpt lat="42.82076000662465" lon="10.28940555751868"><ele>46.0</ele><time>2026-04-19T08:02:52.019Z</time></trkpt><trkpt lat="42.82062964927512" lon="10.289286217683195"><ele>46.0</ele><time>2026-04-19T08:02:53.019Z</time></trkpt><trkpt lat="42.82051033532489" lon="10.289172131807232"><ele>46.0</ele><time>2026-04-19T08:02:54.019Z</time></trkpt><trkpt lat="42.82039554226587" lon="10.289057452400902"><ele>46.0</ele><time>2026-04-19T08:02:55.019Z</time></trkpt><trkpt lat="42.82028082856188" lon="10.288957395100145"><ele>46.0</ele><time>2026-04-19T08:02:56.019Z</time></trkpt><trkpt lat="42.8201603394013" lon="10.28888074396175"><ele>41.25</ele><time>2026-04-19T08:02:57.019Z</time></trkpt><trkpt lat="42.82003285063751" lon="10.288859181757589"><ele>36.5</ele><time>2026-04-19T08:02:58.019Z</time></trkpt><trkpt lat="42.81991112679171" lon="10.288867135460066"><ele>31.75</ele><time>2026-04-19T08:02:59.019Z</time></trkpt><trkpt lat="42.81979098672269" lon="10.288888600466326"><ele>27.0</ele><time>2026-04-19T08:03:00.019Z</time></trkpt><trkpt lat="42.819675091228596" lon="10.288871131309334"><ele>27.0</ele><time>2026-04-19T08:03:01.019Z</time></trkpt><trkpt lat="42.819599357635646" lon="10.288748036950146"><ele>27.0</ele><time>2026-04-19T08:03:02.019Z</time></trkpt><trkpt lat="42.81954073202541" lon="10.288613425188792"><ele>27.0</ele><time>2026-04-19T08:03:03.019Z</time></trkpt><trkpt lat="42.819474706722666" lon="10.288474396577474"><ele>27.0</ele><time>2026-04-19T08:03:04.019Z</time></trkpt><trkpt lat="42.8194096850208" lon="10.288331797233822"><ele>27.0</ele><time>2026-04-19T08:03:05.019Z</time></trkpt><trkpt lat="42.81932108842695" lon="10.288225027233022"><ele>27.0</ele><time>2026-04-19T08:03:06.019Z</time></trkpt><trkpt lat="42.81920846112984" lon="10.288169186543303"><ele>27.0</ele><time>2026-04-19T08:03:07.019Z</time></trkpt><trkpt lat="42.81907045207077" lon="10.288145924547006"><ele>27.0</ele><time>2026-04-19T08:03:08.019Z</time></trkpt><trkpt lat="42.81895814500908" lon="10.288142100268452"><ele>25.400000000000002</ele><time>2026-04-19T08:03:09.019Z</time></trkpt><trkpt lat="42.81883469970873" lon="10.288168910440907"><ele>23.800000000000004</ele><time>2026-04-19T08:03:10.019Z</time></trkpt><trkpt lat="42.81873598786261" lon="10.288226494575609"><ele>22.2</ele><time>2026-04-19T08:03:11.019Z</time></trkpt><trkpt lat="42.818646537534654" lon="10.288243836841113"><ele>20.6</ele><time>2026-04-19T08:03:12.019Z</time></trkpt><trkpt lat="42.818563190746275" lon="10.288190820830485"><ele>19.0</ele><time>2026-04-19T08:03:13.019Z</time></trkpt><trkpt lat="42.81853994688079" lon="10.288059853574723"><ele>19.0</ele><time>2026-04-19T08:03:14.019Z</time></trkpt><trkpt lat="42.81852817670533" lon="10.287920970656938"><ele>19.0</ele><time>2026-04-19T08:03:15.019Z</time></trkpt><trkpt lat="42.81848610075749" lon="10.287769527523473"><ele>19.0</ele><time>2026-04-19T08:03:16.019Z</time></trkpt><trkpt lat="42.818411625299" lon="10.28764271269273"><ele>19.0</ele><time>2026-04-19T08:03:17.019Z</time></trkpt><trkpt lat="42.81832015547748" lon="10.28754380453686"><ele>21.0</ele><time>2026-04-19T08:03:18.019Z</time></trkpt><trkpt lat="42.81818020526163" lon="10.287501513972085"><ele>23.0</ele><time>2026-04-19T08:03:19.019Z</time></trkpt><trkpt lat="42.818030921050806" lon="10.28746876101733"><ele>25.0</ele><time>2026-04-19T08:03:20.019Z</time></trkpt><trkpt lat="42.81790015045962" lon="10.287391712944796"><ele>27.0</ele><time>2026-04-19T08:03:21.019Z</time></trkpt><trkpt lat="42.81779592043241" lon="10.287269331813695"><ele>27.0</ele><time>2026-04-19T08:03:22.019Z</time></trkpt><trkpt lat="42.81777039996128" lon="10.287122055370011"><ele>27.000000000000004</ele><time>2026-04-19T08:03:23.019Z</time></trkpt><trkpt lat="42.81781969852216" lon="10.287028687722787"><ele>27.000000000000004</ele><time>2026-04-19T08:03:24.019Z</time></trkpt><trkpt lat="42.817922635495954" lon="10.2869775473011"><ele>27.0</ele><time>2026-04-19T08:03:26.019Z</time></trkpt><trkpt lat="42.818004629787374" lon="10.28691252811469"><ele>27.0</ele><time>2026-04-19T08:03:27.019Z</time></trkpt><trkpt lat="42.81811509939046" lon="10.286850819543567"><ele>27.0</ele><time>2026-04-19T08:03:28.019Z</time></trkpt><trkpt lat="42.81823835858963" lon="10.286784803962227"><ele>27.0</ele><time>2026-04-19T08:03:29.019Z</time></trkpt><trkpt lat="42.81836632004929" lon="10.286716270127656"><ele>27.0</ele><time>2026-04-19T08:03:30.019Z</time></trkpt><trkpt lat="42.818491423893605" lon="10.286631246817814"><ele>27.0</ele><time>2026-04-19T08:03:31.019Z</time></trkpt><trkpt lat="42.818617461778075" lon="10.286567388158813"><ele>26.0</ele><time>2026-04-19T08:03:32.019Z</time></trkpt><trkpt lat="42.81870930345766" lon="10.286449857207307"><ele>25.0</ele><time>2026-04-19T08:03:33.019Z</time></trkpt><trkpt lat="42.818783772064144" lon="10.286320722922028"><ele>24.0</ele><time>2026-04-19T08:03:34.019Z</time></trkpt><trkpt lat="42.81884022563784" lon="10.286171214630802"><ele>23.0</ele><time>2026-04-19T08:03:35.019Z</time></trkpt><trkpt lat="42.81889858355698" lon="10.286041012980453"><ele>25.333333333333336</ele><time>2026-04-19T08:03:36.019Z</time></trkpt><trkpt lat="42.81896047263088" lon="10.285938661739257"><ele>27.666666666666668</ele><time>2026-04-19T08:03:37.019Z</time></trkpt><trkpt lat="42.81903460005216" lon="10.285871912604824"><ele>30.0</ele><time>2026-04-19T08:03:38.019Z</time></trkpt><trkpt lat="42.81911662298231" lon="10.2858909590918"><ele>32.333333333333336</ele><time>2026-04-19T08:03:39.019Z</time></trkpt><trkpt lat="42.819180131694075" lon="10.28592904799594"><ele>34.66666666666667</ele><time>2026-04-19T08:03:40.019Z</time></trkpt><trkpt lat="42.81923875205123" lon="10.285995704345785"><ele>37.0</ele><time>2026-04-19T08:03:41.019Z</time></trkpt><trkpt lat="42.81931825577679" lon="10.286055653546791"><ele>37.5</ele><time>2026-04-19T08:03:42.019Z</time></trkpt><trkpt lat="42.819383391690685" lon="10.286098039194682"><ele>38.0</ele><time>2026-04-19T08:03:43.019Z</time></trkpt><trkpt lat="42.819486717238405" lon="10.286087627102699"><ele>38.5</ele><time>2026-04-19T08:03:44.019Z</time></trkpt><trkpt lat="42.81957747001571" lon="10.286092168574584"><ele>39.0</ele><time>2026-04-19T08:03:45.019Z</time></trkpt><trkpt lat="42.81966908488402" lon="10.28608152286999"><ele>39.5</ele><time>2026-04-19T08:03:46.019Z</time></trkpt><trkpt lat="42.81973703204971" lon="10.286079473639441"><ele>40.0</ele><time>2026-04-19T08:03:47.019Z</time></trkpt><trkpt lat="42.81980392720323" lon="10.286082524490139"><ele>40.0</ele><time>2026-04-19T08:03:48.019Z</time></trkpt><trkpt lat="42.819893240232936" lon="10.286132947261391"><ele>40.0</ele><time>2026-04-19T08:03:50.019Z</time></trkpt><trkpt lat="42.81995770638628" lon="10.286254487424898"><ele>40.0</ele><time>2026-04-19T08:03:52.02Z</time></trkpt><trkpt lat="42.82001933863785" lon="10.28630017338745"><ele>40.0</ele><time>2026-04-19T08:03:53.021Z</time></trkpt><trkpt lat="42.82011501696027" lon="10.286355573068986"><ele>40.0</ele><time>2026-04-19T08:03:55.021Z</time></trkpt><trkpt lat="42.82021977645595" lon="10.286364070550793"><ele>37.6</ele><time>2026-04-19T08:03:57.02Z</time></trkpt><trkpt lat="42.82032500808263" lon="10.286302564792086"><ele>35.2</ele><time>2026-04-19T08:03:59.02Z</time></trkpt><trkpt lat="42.82038441794289" lon="10.286228446688911"><ele>32.8</ele><time>2026-04-19T08:04:00.02Z</time></trkpt><trkpt lat="42.820439483319845" lon="10.28612035086342"><ele>30.4</ele><time>2026-04-19T08:04:01.021Z</time></trkpt><trkpt lat="42.82046409355609" lon="10.285991782036636"><ele>28.0</ele><time>2026-04-19T08:04:02.021Z</time></trkpt><trkpt lat="42.82046948352589" lon="10.285856757719815"><ele>28.000000000000004</ele><time>2026-04-19T08:04:03.021Z</time></trkpt><trkpt lat="42.82047459686792" lon="10.285725971307906"><ele>28.0</ele><time>2026-04-19T08:04:04.021Z</time></trkpt><trkpt lat="42.82048107046935" lon="10.285620215855102"><ele>28.0</ele><time>2026-04-19T08:04:05.021Z</time></trkpt><trkpt lat="42.82049336557749" lon="10.285524969702164"><ele>28.0</ele><time>2026-04-19T08:04:06.021Z</time></trkpt><trkpt lat="42.820511257956746" lon="10.285425740747053"><ele>28.000000000000004</ele><time>2026-04-19T08:04:07.021Z</time></trkpt><trkpt lat="42.82053199872723" lon="10.28531565479678"><ele>28.0</ele><time>2026-04-19T08:04:08.021Z</time></trkpt><trkpt lat="42.820560340884306" lon="10.285199423286468"><ele>29.333333333333336</ele><time>2026-04-19T08:04:09.02Z</time></trkpt><trkpt lat="42.820599145024055" lon="10.285089324897195"><ele>30.666666666666668</ele><time>2026-04-19T08:04:10.02Z</time></trkpt><trkpt lat="42.82063789333655" lon="10.284996725877829"><ele>32.0</ele><time>2026-04-19T08:04:11.02Z</time></trkpt><trkpt lat="42.82066596843276" lon="10.284912547414025"><ele>33.333333333333336</ele><time>2026-04-19T08:04:12.02Z</time></trkpt><trkpt lat="42.82071286414369" lon="10.284796074616105"><ele>34.666666666666664</ele><time>2026-04-19T08:04:14.02Z</time></trkpt><trkpt lat="42.82070075239014" lon="10.28470854346119"><ele>36.0</ele><time>2026-04-19T08:04:16.02Z</time></trkpt><trkpt lat="42.82061519193398" lon="10.284800237980257"><ele>36.0</ele><time>2026-04-19T08:05:06.02Z</time></trkpt><trkpt lat="42.820523057294395" lon="10.284911128593018"><ele>36.0</ele><time>2026-04-19T08:05:08.02Z</time></trkpt><trkpt lat="42.82041390157458" lon="10.285019289743952"><ele>36.0</ele><time>2026-04-19T08:05:10.02Z</time></trkpt><trkpt lat="42.82034179206633" lon="10.28506610635887"><ele>36.0</ele><time>2026-04-19T08:05:11.02Z</time></trkpt><trkpt lat="42.82028610618421" lon="10.285129904629848"><ele>36.0</ele><time>2026-04-19T08:05:12.02Z</time></trkpt><trkpt lat="42.82024913544331" lon="10.28520133405313"><ele>36.0</ele><time>2026-04-19T08:05:13.02Z</time></trkpt><trkpt lat="42.8201536938756" lon="10.28531117572076"><ele>36.0</ele><time>2026-04-19T08:05:15.02Z</time></trkpt><trkpt lat="42.82009007847084" lon="10.285355973300582"><ele>36.0</ele><time>2026-04-19T08:05:16.02Z</time></trkpt><trkpt lat="42.820019382882855" lon="10.28538064683133"><ele>36.0</ele><time>2026-04-19T08:05:17.02Z</time></trkpt><trkpt lat="42.819947645384886" lon="10.285394207353983"><ele>36.0</ele><time>2026-04-19T08:05:18.02Z</time></trkpt><trkpt lat="42.81987068676999" lon="10.285375446085293"><ele>36.0</ele><time>2026-04-19T08:05:19.02Z</time></trkpt><trkpt lat="42.81980396387016" lon="10.285354864149719"><ele>39.166666666666664</ele><time>2026-04-19T08:05:20.02Z</time></trkpt><trkpt lat="42.81974253974007" lon="10.285331920560834"><ele>42.33333333333333</ele><time>2026-04-19T08:05:21.02Z</time></trkpt><trkpt lat="42.81967364399485" lon="10.285314581884153"><ele>45.5</ele><time>2026-04-19T08:05:22.02Z</time></trkpt><trkpt lat="42.81960909501204" lon="10.28527455046962"><ele>48.666666666666664</ele><time>2026-04-19T08:05:23.02Z</time></trkpt><trkpt lat="42.819550081740374" lon="10.285235723891606"><ele>51.83333333333333</ele><time>2026-04-19T08:05:24.02Z</time></trkpt><trkpt lat="42.81946726418618" lon="10.285098277258209"><ele>55.0</ele><time>2026-04-19T08:05:26.02Z</time></trkpt><trkpt lat="42.81943726652202" lon="10.284999805667374"><ele>55.0</ele><time>2026-04-19T08:05:27.02Z</time></trkpt><trkpt lat="42.81939906880496" lon="10.284917049511122"><ele>55.0</ele><time>2026-04-19T08:05:28.02Z</time></trkpt><trkpt lat="42.81935379100293" lon="10.28482744164422"><ele>55.0</ele><time>2026-04-19T08:05:29.02Z</time></trkpt><trkpt lat="42.819444368750695" lon="10.284585576099795"><ele>55.0</ele><time>2026-04-19T08:05:30.02Z</time></trkpt><trkpt lat="42.819354090867066" lon="10.284457752010129"><ele>59.4</ele><time>2026-04-19T08:05:32.02Z</time></trkpt><trkpt lat="42.819266056383036" lon="10.284382508664368"><ele>63.8</ele><time>2026-04-19T08:05:34.02Z</time></trkpt><trkpt lat="42.81919804449656" lon="10.284339817432178"><ele>68.2</ele><time>2026-04-19T08:05:36.02Z</time></trkpt><trkpt lat="42.81909311696395" lon="10.284259866709471"><ele>72.6</ele><time>2026-04-19T08:05:38.02Z</time></trkpt><trkpt lat="42.81903636108578" lon="10.284218648035186"><ele>77.0</ele><time>2026-04-19T08:05:39.02Z</time></trkpt><trkpt lat="42.8186712196185" lon="10.284551734220098"><ele>77.0</ele><time>2026-04-19T08:05:40.02Z</time></trkpt><trkpt lat="42.818618776185914" lon="10.284478214329178"><ele>77.0</ele><time>2026-04-19T08:05:41.02Z</time></trkpt><trkpt lat="42.818518845189445" lon="10.284434484677988"><ele>77.0</ele><time>2026-04-19T08:05:43.02Z</time></trkpt><trkpt lat="42.818416973192534" lon="10.284395963267972"><ele>77.0</ele><time>2026-04-19T08:05:45.02Z</time></trkpt><trkpt lat="42.81833069932989" lon="10.284321649002965"><ele>77.0</ele><time>2026-04-19T08:05:47.02Z</time></trkpt><trkpt lat="42.818258043407994" lon="10.284305430837833"><ele>77.0</ele><time>2026-04-19T08:05:49.02Z</time></trkpt><trkpt lat="42.81818543528909" lon="10.284333770979444"><ele>77.0</ele><time>2026-04-19T08:05:51.02Z</time></trkpt><trkpt lat="42.81812980752442" lon="10.284382040075826"><ele>77.0</ele><time>2026-04-19T08:05:52.02Z</time></trkpt><trkpt lat="42.818093265738014" lon="10.284466872451613"><ele>77.0</ele><time>2026-04-19T08:05:53.02Z</time></trkpt><trkpt lat="42.818050849072776" lon="10.284551158219857"><ele>77.0</ele><time>2026-04-19T08:05:54.02Z</time></trkpt><trkpt lat="42.81799474375738" lon="10.284627957238497"><ele>77.0</ele><time>2026-04-19T08:05:55.02Z</time></trkpt><trkpt lat="42.81787605920929" lon="10.284650779021636"><ele>77.0</ele><time>2026-04-19T08:05:56.02Z</time></trkpt><trkpt lat="42.817804184366615" lon="10.284752192487185"><ele>77.0</ele><time>2026-04-19T08:05:57.021Z</time></trkpt><trkpt lat="42.81773375571384" lon="10.284809803247988"><ele>77.0</ele><time>2026-04-19T08:05:58.021Z</time></trkpt><trkpt lat="42.81765309387125" lon="10.284818690614383"><ele>77.0</ele><time>2026-04-19T08:05:59.021Z</time></trkpt><trkpt lat="42.81755293932778" lon="10.28481443589973"><ele>77.0</ele><time>2026-04-19T08:06:00.021Z</time></trkpt><trkpt lat="42.81748991737937" lon="10.284806197603356"><ele>77.0</ele><time>2026-04-19T08:06:01.022Z</time></trkpt><trkpt lat="42.81741487243722" lon="10.28478237874251"><ele>79.16666666666667</ele><time>2026-04-19T08:06:02.022Z</time></trkpt><trkpt lat="42.817347661396745" lon="10.28474716159669"><ele>81.33333333333334</ele><time>2026-04-19T08:06:03.021Z</time></trkpt><trkpt lat="42.81727317080944" lon="10.284704584530495"><ele>83.5</ele><time>2026-04-19T08:06:04.021Z</time></trkpt><trkpt lat="42.81721189158352" lon="10.284630348715538"><ele>85.66666666666667</ele><time>2026-04-19T08:06:05.021Z</time></trkpt><trkpt lat="42.81715060863858" lon="10.284576973210672"><ele>87.83333333333333</ele><time>2026-04-19T08:06:06.021Z</time></trkpt><trkpt lat="42.8170446942972" lon="10.284470477696837"><ele>90.0</ele><time>2026-04-19T08:06:08.021Z</time></trkpt><trkpt lat="42.816983465259995" lon="10.284410319174983"><ele>90.0</ele><time>2026-04-19T08:06:09.021Z</time></trkpt><trkpt lat="42.81692519221145" lon="10.284360006205148"><ele>90.0</ele><time>2026-04-19T08:06:10.021Z</time></trkpt><trkpt lat="42.816866462220965" lon="10.284303702952066"><ele>90.0</ele><time>2026-04-19T08:06:11.021Z</time></trkpt><trkpt lat="42.816805029695544" lon="10.284239902186401"><ele>90.0</ele><time>2026-04-19T08:06:12.021Z</time></trkpt><trkpt lat="42.81674716902398" lon="10.284179617902028"><ele>90.0</ele><time>2026-04-19T08:06:13.021Z</time></trkpt><trkpt lat="42.81668364696135" lon="10.284119948127136"><ele>90.0</ele><time>2026-04-19T08:06:14.021Z</time></trkpt><trkpt lat="42.816625807184685" lon="10.284074738927503"><ele>90.0</ele><time>2026-04-19T08:06:15.022Z</time></trkpt><trkpt lat="42.81652746027969" lon="10.283940990356935"><ele>94.14285714285714</ele><time>2026-04-19T08:06:17.022Z</time></trkpt><trkpt lat="42.81646802592886" lon="10.283867035849468"><ele>98.28571428571429</ele><time>2026-04-19T08:06:18.022Z</time></trkpt><trkpt lat="42.81640265947613" lon="10.28381972573297"><ele>102.42857142857143</ele><time>2026-04-19T08:06:19.022Z</time></trkpt><trkpt lat="42.81633676410339" lon="10.283785959651825"><ele>106.57142857142857</ele><time>2026-04-19T08:06:20.022Z</time></trkpt><trkpt lat="42.816282273222896" lon="10.283720021621354"><ele>110.71428571428572</ele><time>2026-04-19T08:06:21.022Z</time></trkpt><trkpt lat="42.81623518589035" lon="10.283631335727485"><ele>114.85714285714286</ele><time>2026-04-19T08:06:22.022Z</time></trkpt><trkpt lat="42.816194984971936" lon="10.283551522808324"><ele>119.0</ele><time>2026-04-19T08:06:23.022Z</time></trkpt><trkpt lat="42.816146908648356" lon="10.283474362055326"><ele>118.99999999999999</ele><time>2026-04-19T08:06:24.022Z</time></trkpt><trkpt lat="42.816092351292376" lon="10.283413937824488"><ele>119.0</ele><time>2026-04-19T08:06:25.022Z</time></trkpt><trkpt lat="42.81603736343122" lon="10.283356613858494"><ele>119.0</ele><time>2026-04-19T08:06:26.022Z</time></trkpt><trkpt lat="42.81597591874953" lon="10.28321017250185"><ele>119.0</ele><time>2026-04-19T08:06:28.022Z</time></trkpt><trkpt lat="42.815922055135175" lon="10.28309969369744"><ele>118.99999999999999</ele><time>2026-04-19T08:06:30.022Z</time></trkpt><trkpt lat="42.81587599371687" lon="10.283023272807828"><ele>119.0</ele><time>2026-04-19T08:06:33.022Z</time></trkpt><trkpt lat="42.815705407530224" lon="10.28306907480216"><ele>121.49999999999999</ele><time>2026-04-19T08:06:35.022Z</time></trkpt><trkpt lat="42.815643116838245" lon="10.283051335724938"><ele>124.0</ele><time>2026-04-19T08:06:36.022Z</time></trkpt><trkpt lat="42.81556968301471" lon="10.283024888261034"><ele>126.5</ele><time>2026-04-19T08:06:37.022Z</time></trkpt><trkpt lat="42.81546945659102" lon="10.28308246664004"><ele>129.0</ele><time>2026-04-19T08:06:38.022Z</time></trkpt><trkpt lat="42.81539278498791" lon="10.283012553847524"><ele>131.5</ele><time>2026-04-19T08:06:39.022Z</time></trkpt><trkpt lat="42.815335511809565" lon="10.28293880512396"><ele>134.0</ele><time>2026-04-19T08:06:40.022Z</time></trkpt><trkpt lat="42.81528134382725" lon="10.282863159503748"><ele>134.0</ele><time>2026-04-19T08:06:41.022Z</time></trkpt><trkpt lat="42.81522257854454" lon="10.282821597322389"><ele>134.0</ele><time>2026-04-19T08:06:42.022Z</time></trkpt><trkpt lat="42.81514197475569" lon="10.282789913155044"><ele>134.0</ele><time>2026-04-19T08:06:44.022Z</time></trkpt><trkpt lat="42.81502780765487" lon="10.282794964472862"><ele>134.0</ele><time>2026-04-19T08:06:46.022Z</time></trkpt><trkpt lat="42.81495958122453" lon="10.28285405635301"><ele>134.0</ele><time>2026-04-19T08:06:47.022Z</time></trkpt><trkpt lat="42.81488801741671" lon="10.282935999485721"><ele>134.0</ele><time>2026-04-19T08:06:48.022Z</time></trkpt><trkpt lat="42.81482145198117" lon="10.282990436885388"><ele>133.5</ele><time>2026-04-19T08:06:49.022Z</time></trkpt><trkpt lat="42.81472937337408" lon="10.28304046716911"><ele>133.0</ele><time>2026-04-19T08:06:50.022Z</time></trkpt><trkpt lat="42.814647968982314" lon="10.28304736402096"><ele>132.5</ele><time>2026-04-19T08:06:51.022Z</time></trkpt><trkpt lat="42.81457574465917" lon="10.283057866385338"><ele>132.0</ele><time>2026-04-19T08:06:52.022Z</time></trkpt><trkpt lat="42.81449851237716" lon="10.283070414358873"><ele>131.5</ele><time>2026-04-19T08:06:53.022Z</time></trkpt><trkpt lat="42.814422086231886" lon="10.283081990230983"><ele>131.0</ele><time>2026-04-19T08:06:54.022Z</time></trkpt><trkpt lat="42.81433369946379" lon="10.283088748084655"><ele>132.66666666666666</ele><time>2026-04-19T08:06:55.022Z</time></trkpt><trkpt lat="42.81424883368293" lon="10.28307860631507"><ele>134.33333333333331</ele><time>2026-04-19T08:06:56.022Z</time></trkpt><trkpt lat="42.8141754859335" lon="10.28306226357414"><ele>136.0</ele><time>2026-04-19T08:06:57.022Z</time></trkpt><trkpt lat="42.814097899463185" lon="10.28303616760894"><ele>137.66666666666666</ele><time>2026-04-19T08:06:58.022Z</time></trkpt><trkpt lat="42.81402760792703" lon="10.283012741261281"><ele>139.33333333333334</ele><time>2026-04-19T08:06:59.022Z</time></trkpt><trkpt lat="42.813954124007196" lon="10.28302198112826"><ele>141.0</ele><time>2026-04-19T08:07:00.022Z</time></trkpt><trkpt lat="42.81388358608228" lon="10.283019843436096"><ele>141.0</ele><time>2026-04-19T08:07:01.022Z</time></trkpt><trkpt lat="42.813824196479" lon="10.282962647873317"><ele>141.0</ele><time>2026-04-19T08:07:02.022Z</time></trkpt><trkpt lat="42.81371752894228" lon="10.282851090103287"><ele>141.0</ele><time>2026-04-19T08:07:04.022Z</time></trkpt><trkpt lat="42.81368016496148" lon="10.282770567718226"><ele>141.0</ele><time>2026-04-19T08:07:05.022Z</time></trkpt><trkpt lat="42.81363213499522" lon="10.282700092564939"><ele>141.0</ele><time>2026-04-19T08:07:06.022Z</time></trkpt><trkpt lat="42.81359999918089" lon="10.282611637279766"><ele>141.0</ele><time>2026-04-19T08:07:07.022Z</time></trkpt><trkpt lat="42.81357678035413" lon="10.28250895246215"><ele>141.0</ele><time>2026-04-19T08:07:08.022Z</time></trkpt><trkpt lat="42.81355412822036" lon="10.282384354707801"><ele>141.0</ele><time>2026-04-19T08:07:09.021Z</time></trkpt><trkpt lat="42.81351266391318" lon="10.282293040706833"><ele>141.0</ele><time>2026-04-19T08:07:10.021Z</time></trkpt><trkpt lat="42.813472202391594" lon="10.282226184587575"><ele>141.0</ele><time>2026-04-19T08:07:11.021Z</time></trkpt><trkpt lat="42.81334926556317" lon="10.282152165289453"><ele>141.0</ele><time>2026-04-19T08:07:13.021Z</time></trkpt><trkpt lat="42.813277992139604" lon="10.282155065624753"><ele>141.0</ele><time>2026-04-19T08:07:14.021Z</time></trkpt><trkpt lat="42.81321038051359" lon="10.282166401672336"><ele>142.0</ele><time>2026-04-19T08:07:15.021Z</time></trkpt><trkpt lat="42.813081036551836" lon="10.282180903542189"><ele>143.0</ele><time>2026-04-19T08:07:17.021Z</time></trkpt><trkpt lat="42.812999721381416" lon="10.282192259971785"><ele>144.0</ele><time>2026-04-19T08:07:18.021Z</time></trkpt><trkpt lat="42.8129281767563" lon="10.282219544426544"><ele>145.0</ele><time>2026-04-19T08:07:19.021Z</time></trkpt><trkpt lat="42.81283006806758" lon="10.282303700145516"><ele>146.0</ele><time>2026-04-19T08:07:21.021Z</time></trkpt><trkpt lat="42.812768041745436" lon="10.282400815122164"><ele>146.0</ele><time>2026-04-19T08:07:23.021Z</time></trkpt><trkpt lat="42.81275402958391" lon="10.282287473865773"><ele>146.0</ele><time>2026-04-19T08:07:26.021Z</time></trkpt><trkpt lat="42.81286882002641" lon="10.282187160325662"><ele>146.0</ele><time>2026-04-19T08:07:28.021Z</time></trkpt><trkpt lat="42.8129224295525" lon="10.282099122231978"><ele>146.0</ele><time>2026-04-19T08:07:29.021Z</time></trkpt><trkpt lat="42.81299407967425" lon="10.282036363292248"><ele>146.0</ele><time>2026-04-19T08:07:30.021Z</time></trkpt><trkpt lat="42.81307173089391" lon="10.281981672203788"><ele>146.0</ele><time>2026-04-19T08:07:31.021Z</time></trkpt><trkpt lat="42.813136349262614" lon="10.281904315814296"><ele>146.0</ele><time>2026-04-19T08:07:32.021Z</time></trkpt><trkpt lat="42.813200454174236" lon="10.281857175711778"><ele>146.0</ele><time>2026-04-19T08:07:33.021Z</time></trkpt><trkpt lat="42.81326384162283" lon="10.281800246543776"><ele>146.0</ele><time>2026-04-19T08:07:34.021Z</time></trkpt><trkpt lat="42.81331639873326" lon="10.28175112268682"><ele>146.0</ele><time>2026-04-19T08:07:35.021Z</time></trkpt><trkpt lat="42.813373871658506" lon="10.281706138958874"><ele>146.0</ele><time>2026-04-19T08:07:36.021Z</time></trkpt><trkpt lat="42.81344427634387" lon="10.281692232221193"><ele>146.0</ele><time>2026-04-19T08:07:37.021Z</time></trkpt><trkpt lat="42.81353182311408" lon="10.281632913899275"><ele>146.16666666666666</ele><time>2026-04-19T08:07:39.021Z</time></trkpt><trkpt lat="42.813531842102954" lon="10.28152106565869"><ele>146.33333333333331</ele><time>2026-04-19T08:07:42.021Z</time></trkpt><trkpt lat="42.81349541694662" lon="10.28143537837932"><ele>146.5</ele><time>2026-04-19T08:07:44.021Z</time></trkpt><trkpt lat="42.81346483820693" lon="10.281354148405246"><ele>146.66666666666666</ele><time>2026-04-19T08:07:46.021Z</time></trkpt><trkpt lat="42.81338262198081" lon="10.281269255699483"><ele>146.83333333333334</ele><time>2026-04-19T08:07:58.021Z</time></trkpt><trkpt lat="42.81330962292791" lon="10.28119104417547"><ele>147.0</ele><time>2026-04-19T08:08:00.021Z</time></trkpt><trkpt lat="42.81322528527108" lon="10.281167313130716"><ele>147.0</ele><time>2026-04-19T08:08:02.021Z</time></trkpt><trkpt lat="42.81317189245255" lon="10.281226497334863"><ele>147.0</ele><time>2026-04-19T08:08:03.022Z</time></trkpt><trkpt lat="42.81311320074631" lon="10.281370447893185"><ele>147.0</ele><time>2026-04-19T08:08:05.023Z</time></trkpt><trkpt lat="42.813043487347436" lon="10.281521580617285"><ele>147.0</ele><time>2026-04-19T08:08:07.023Z</time></trkpt><trkpt lat="42.81299106183951" lon="10.281596014542682"><ele>147.0</ele><time>2026-04-19T08:08:08.023Z</time></trkpt><trkpt lat="42.81292004328298" lon="10.281634230465901"><ele>146.79999999999998</ele><time>2026-04-19T08:08:09.023Z</time></trkpt><trkpt lat="42.81282649108069" lon="10.281691741774134"><ele>146.6</ele><time>2026-04-19T08:08:10.023Z</time></trkpt><trkpt lat="42.81273312252147" lon="10.281773688766833"><ele>146.39999999999998</ele><time>2026-04-19T08:08:11.022Z</time></trkpt><trkpt lat="42.81263669235603" lon="10.28180578559168"><ele>146.2</ele><time>2026-04-19T08:08:12.022Z</time></trkpt><trkpt lat="42.81255724570149" lon="10.281830668504854"><ele>146.0</ele><time>2026-04-19T08:08:13.022Z</time></trkpt><trkpt lat="42.81249357025479" lon="10.281817684030798"><ele>148.66666666666666</ele><time>2026-04-19T08:08:14.022Z</time></trkpt><trkpt lat="42.81242252639691" lon="10.281793905054744"><ele>151.33333333333331</ele><time>2026-04-19T08:08:15.022Z</time></trkpt><trkpt lat="42.8123406535603" lon="10.281772536979869"><ele>154.0</ele><time>2026-04-19T08:08:16.022Z</time></trkpt><trkpt lat="42.81225295984316" lon="10.281753825828142"><ele>156.66666666666666</ele><time>2026-04-19T08:08:17.023Z</time></trkpt><trkpt lat="42.8121629292333" lon="10.281749565656426"><ele>159.33333333333334</ele><time>2026-04-19T08:08:18.023Z</time></trkpt><trkpt lat="42.81207714005008" lon="10.281728850011888"><ele>162.0</ele><time>2026-04-19T08:08:19.023Z</time></trkpt><trkpt lat="42.81199585421494" lon="10.281713852801955"><ele>162.0</ele><time>2026-04-19T08:08:20.023Z</time></trkpt><trkpt lat="42.81192488430814" lon="10.281706516760579"><ele>162.0</ele><time>2026-04-19T08:08:21.023Z</time></trkpt><trkpt lat="42.8118460727294" lon="10.281720704777541"><ele>162.0</ele><time>2026-04-19T08:08:22.023Z</time></trkpt><trkpt lat="42.81175946377371" lon="10.281742792285094"><ele>162.0</ele><time>2026-04-19T08:08:23.023Z</time></trkpt><trkpt lat="42.811660417936494" lon="10.281793326362182"><ele>162.0</ele><time>2026-04-19T08:08:24.023Z</time></trkpt><trkpt lat="42.81158260997242" lon="10.281859489338753"><ele>162.0</ele><time>2026-04-19T08:08:25.023Z</time></trkpt><trkpt lat="42.81151822988521" lon="10.281925529484553"><ele>163.66666666666666</ele><time>2026-04-19T08:08:26.023Z</time></trkpt><trkpt lat="42.8114660237011" lon="10.281979789237402"><ele>165.33333333333334</ele><time>2026-04-19T08:08:27.023Z</time></trkpt><trkpt lat="42.81140872135745" lon="10.282036177390324"><ele>167.0</ele><time>2026-04-19T08:08:28.023Z</time></trkpt><trkpt lat="42.81134951670205" lon="10.282076146685787"><ele>168.66666666666669</ele><time>2026-04-19T08:08:29.023Z</time></trkpt><trkpt lat="42.81128332326836" lon="10.282129583028254"><ele>170.33333333333334</ele><time>2026-04-19T08:08:30.023Z</time></trkpt><trkpt lat="42.8111707195616" lon="10.282110566649711"><ele>172.0</ele><time>2026-04-19T08:08:31.023Z</time></trkpt><trkpt lat="42.811049981954405" lon="10.282109833215022"><ele>171.66666666666669</ele><time>2026-04-19T08:08:33.023Z</time></trkpt><trkpt lat="42.81097545569259" lon="10.282068841472958"><ele>171.33333333333334</ele><time>2026-04-19T08:08:34.023Z</time></trkpt><trkpt lat="42.81088226830793" lon="10.282107878422858"><ele>171.0</ele><time>2026-04-19T08:08:35.023Z</time></trkpt><trkpt lat="42.81082392761605" lon="10.282151416051198"><ele>170.66666666666666</ele><time>2026-04-19T08:08:36.023Z</time></trkpt><trkpt lat="42.810760340093466" lon="10.282240004670854"><ele>170.33333333333331</ele><time>2026-04-19T08:08:37.023Z</time></trkpt><trkpt lat="42.81069977305689" lon="10.282334126601853"><ele>170.0</ele><time>2026-04-19T08:08:38.023Z</time></trkpt><trkpt lat="42.81064331925488" lon="10.282402064660365"><ele>170.0</ele><time>2026-04-19T08:08:39.023Z</time></trkpt><trkpt lat="42.81058631343495" lon="10.282457776125863"><ele>170.0</ele><time>2026-04-19T08:08:40.023Z</time></trkpt><trkpt lat="42.81051051909814" lon="10.282491108203494"><ele>170.0</ele><time>2026-04-19T08:08:42.023Z</time></trkpt><trkpt lat="42.81044470365941" lon="10.282509713238856"><ele>170.0</ele><time>2026-04-19T08:08:43.023Z</time></trkpt><trkpt lat="42.810377458948096" lon="10.282490616784976"><ele>170.0</ele><time>2026-04-19T08:08:44.023Z</time></trkpt><trkpt lat="42.810299868239184" lon="10.282457003151963"><ele>170.0</ele><time>2026-04-19T08:08:45.023Z</time></trkpt><trkpt lat="42.8102232766227" lon="10.282455425135595"><ele>170.0</ele><time>2026-04-19T08:08:46.023Z</time></trkpt><trkpt lat="42.810157122497145" lon="10.282446818643095"><ele>173.5</ele><time>2026-04-19T08:08:47.023Z</time></trkpt><trkpt lat="42.810030037901164" lon="10.28247478025207"><ele>177.0</ele><time>2026-04-19T08:08:49.023Z</time></trkpt><trkpt lat="42.80995805994751" lon="10.282525292089367"><ele>180.5</ele><time>2026-04-19T08:08:50.023Z</time></trkpt><trkpt lat="42.80988607733518" lon="10.282557487831372"><ele>184.0</ele><time>2026-04-19T08:08:51.023Z</time></trkpt><trkpt lat="42.80981338140689" lon="10.282605847164398"><ele>187.5</ele><time>2026-04-19T08:08:52.023Z</time></trkpt><trkpt lat="42.809742399775345" lon="10.282632255828226"><ele>191.0</ele><time>2026-04-19T08:08:53.023Z</time></trkpt><trkpt lat="42.80966563911577" lon="10.282662226145504"><ele>191.0</ele><time>2026-04-19T08:08:54.023Z</time></trkpt><trkpt lat="42.80958870454372" lon="10.282674419406167"><ele>191.0</ele><time>2026-04-19T08:08:55.023Z</time></trkpt><trkpt lat="42.80951703848562" lon="10.282716426454249"><ele>191.0</ele><time>2026-04-19T08:08:56.023Z</time></trkpt><trkpt lat="42.809440286275326" lon="10.282775691836608"><ele>191.0</ele><time>2026-04-19T08:08:57.023Z</time></trkpt><trkpt lat="42.80936977434732" lon="10.282835589646089"><ele>191.0</ele><time>2026-04-19T08:08:58.023Z</time></trkpt><trkpt lat="42.80930244586991" lon="10.28291710965289"><ele>191.0</ele><time>2026-04-19T08:08:59.023Z</time></trkpt><trkpt lat="42.80922827956882" lon="10.282955442765754"><ele>191.0</ele><time>2026-04-19T08:09:00.023Z</time></trkpt><trkpt lat="42.80915765374169" lon="10.283014367095909"><ele>191.0</ele><time>2026-04-19T08:09:01.023Z</time></trkpt><trkpt lat="42.80908600496323" lon="10.283068172623889"><ele>191.0</ele><time>2026-04-19T08:09:02.023Z</time></trkpt><trkpt lat="42.8089965442825" lon="10.283125344948097"><ele>191.0</ele><time>2026-04-19T08:09:03.023Z</time></trkpt><trkpt lat="42.808919187868284" lon="10.283175464724586"><ele>191.0</ele><time>2026-04-19T08:09:04.023Z</time></trkpt><trkpt lat="42.80885688309473" lon="10.283219654105666"><ele>191.0</ele><time>2026-04-19T08:09:05.023Z</time></trkpt><trkpt lat="42.8087516393226" lon="10.283276644375032"><ele>191.0</ele><time>2026-04-19T08:09:07.023Z</time></trkpt><trkpt lat="42.80874264384641" lon="10.283575974500497"><ele>191.0</ele><time>2026-04-19T08:09:09.023Z</time></trkpt><trkpt lat="42.80871783182146" lon="10.28368431477396"><ele>191.0</ele><time>2026-04-19T08:09:10.023Z</time></trkpt><trkpt lat="42.808698334980214" lon="10.283810800546235"><ele>191.0</ele><time>2026-04-19T08:09:11.023Z</time></trkpt><trkpt lat="42.80867589930651" lon="10.2839568342373"><ele>190.4</ele><time>2026-04-19T08:09:12.023Z</time></trkpt><trkpt lat="42.808655206497995" lon="10.284112582038835"><ele>189.8</ele><time>2026-04-19T08:09:13.023Z</time></trkpt><trkpt lat="42.80865158517942" lon="10.284228014997051"><ele>189.20000000000002</ele><time>2026-04-19T08:09:14.023Z</time></trkpt><trkpt lat="42.808658212500475" lon="10.284344949584364"><ele>188.60000000000002</ele><time>2026-04-19T08:09:15.023Z</time></trkpt><trkpt lat="42.80868537028736" lon="10.284460260260508"><ele>188.0</ele><time>2026-04-19T08:09:16.023Z</time></trkpt><trkpt lat="42.808740630627014" lon="10.284582639787741"><ele>188.0</ele><time>2026-04-19T08:09:17.023Z</time></trkpt><trkpt lat="42.808771680035264" lon="10.284688990079697"><ele>188.0</ele><time>2026-04-19T08:09:18.023Z</time></trkpt><trkpt lat="42.80878517879234" lon="10.284784419035686"><ele>188.0</ele><time>2026-04-19T08:09:19.023Z</time></trkpt><trkpt lat="42.808786927585906" lon="10.284925058643948"><ele>188.0</ele><time>2026-04-19T08:09:21.023Z</time></trkpt><trkpt lat="42.80873198063161" lon="10.285012909935508"><ele>188.0</ele><time>2026-04-19T08:09:22.023Z</time></trkpt><trkpt lat="42.808651400270946" lon="10.285036232956358"><ele>188.0</ele><time>2026-04-19T08:09:24.023Z</time></trkpt><trkpt lat="42.80856874133624" lon="10.285050305628735"><ele>190.5</ele><time>2026-04-19T08:09:27.023Z</time></trkpt><trkpt lat="42.80848540541572" lon="10.285056805773308"><ele>193.0</ele><time>2026-04-19T08:09:29.023Z</time></trkpt><trkpt lat="42.80841400918951" lon="10.285060750875774"><ele>195.5</ele><time>2026-04-19T08:09:30.023Z</time></trkpt><trkpt lat="42.80834010089735" lon="10.285062018021746"><ele>198.0</ele><time>2026-04-19T08:09:31.023Z</time></trkpt><trkpt lat="42.80825528694466" lon="10.28505788910015"><ele>200.50000000000003</ele><time>2026-04-19T08:09:32.023Z</time></trkpt><trkpt lat="42.808177444161466" lon="10.285038073432553"><ele>203.0</ele><time>2026-04-19T08:09:33.023Z</time></trkpt><trkpt lat="42.80811621872415" lon="10.285005069317517"><ele>203.00000000000003</ele><time>2026-04-19T08:09:34.023Z</time></trkpt><trkpt lat="42.80802812956278" lon="10.28495262318146"><ele>203.0</ele><time>2026-04-19T08:09:36.023Z</time></trkpt><trkpt lat="42.807959486445405" lon="10.284931485762472"><ele>203.0</ele><time>2026-04-19T08:09:37.023Z</time></trkpt><trkpt lat="42.80788894471451" lon="10.28490801800618"><ele>203.0</ele><time>2026-04-19T08:09:38.023Z</time></trkpt><trkpt lat="42.80780445178589" lon="10.284870386329692"><ele>203.00000000000003</ele><time>2026-04-19T08:09:39.023Z</time></trkpt><trkpt lat="42.807706992220616" lon="10.284813666977138"><ele>203.0</ele><time>2026-04-19T08:09:40.023Z</time></trkpt><trkpt lat="42.80764448400872" lon="10.284745390809736"><ele>206.2</ele><time>2026-04-19T08:09:41.023Z</time></trkpt><trkpt lat="42.80761581798208" lon="10.2846363820779"><ele>209.4</ele><time>2026-04-19T08:09:42.023Z</time></trkpt><trkpt lat="42.80759410023818" lon="10.284523744596994"><ele>212.59999999999997</ele><time>2026-04-19T08:09:43.023Z</time></trkpt><trkpt lat="42.8075507832626" lon="10.284403028311988"><ele>215.79999999999998</ele><time>2026-04-19T08:09:44.023Z</time></trkpt><trkpt lat="42.80751280509794" lon="10.284278503794074"><ele>219.0</ele><time>2026-04-19T08:09:45.023Z</time></trkpt><trkpt lat="42.80746672085166" lon="10.28415028841685"><ele>219.0</ele><time>2026-04-19T08:09:46.023Z</time></trkpt><trkpt lat="42.80742357867178" lon="10.283996276216337"><ele>218.99999999999997</ele><time>2026-04-19T08:09:47.023Z</time></trkpt><trkpt lat="42.80736022008286" lon="10.283900115760016"><ele>218.99999999999997</ele><time>2026-04-19T08:09:48.023Z</time></trkpt><trkpt lat="42.80731317796451" lon="10.283807933330847"><ele>219.0</ele><time>2026-04-19T08:09:49.023Z</time></trkpt><trkpt lat="42.80724955711723" lon="10.28369910393463"><ele>219.0</ele><time>2026-04-19T08:09:50.023Z</time></trkpt><trkpt lat="42.80718698419205" lon="10.283605311997798"><ele>219.2</ele><time>2026-04-19T08:09:51.023Z</time></trkpt><trkpt lat="42.80711380098505" lon="10.283509370415615"><ele>219.39999999999998</ele><time>2026-04-19T08:09:52.023Z</time></trkpt><trkpt lat="42.80703414725395" lon="10.28341974251968"><ele>219.6</ele><time>2026-04-19T08:09:53.023Z</time></trkpt><trkpt lat="42.8069534717799" lon="10.283323166232432"><ele>219.8</ele><time>2026-04-19T08:09:54.023Z</time></trkpt><trkpt lat="42.8068654764222" lon="10.283257109605493"><ele>220.0</ele><time>2026-04-19T08:09:55.023Z</time></trkpt><trkpt lat="42.806785030335256" lon="10.283190459734618"><ele>220.0</ele><time>2026-04-19T08:09:56.022Z</time></trkpt><trkpt lat="42.806694184543645" lon="10.283124780984936"><ele>220.0</ele><time>2026-04-19T08:09:57.022Z</time></trkpt><trkpt lat="42.8065905350797" lon="10.283043007750704"><ele>220.0</ele><time>2026-04-19T08:09:58.022Z</time></trkpt><trkpt lat="42.8064877556993" lon="10.282952164452801"><ele>220.0</ele><time>2026-04-19T08:09:59.022Z</time></trkpt><trkpt lat="42.806402002345365" lon="10.282877921378196"><ele>220.0</ele><time>2026-04-19T08:10:00.022Z</time></trkpt><trkpt lat="42.80632730096824" lon="10.282809069459397"><ele>221.33333333333331</ele><time>2026-04-19T08:10:01.022Z</time></trkpt><trkpt lat="42.806262627801175" lon="10.282754457517148"><ele>222.66666666666666</ele><time>2026-04-19T08:10:02.022Z</time></trkpt><trkpt lat="42.80619716409697" lon="10.282731413375801"><ele>224.0</ele><time>2026-04-19T08:10:03.022Z</time></trkpt><trkpt lat="42.80611030093268" lon="10.28273374677834"><ele>225.33333333333331</ele><time>2026-04-19T08:10:04.022Z</time></trkpt><trkpt lat="42.8060170783233" lon="10.2827525090676"><ele>226.66666666666666</ele><time>2026-04-19T08:10:05.022Z</time></trkpt><trkpt lat="42.8059310162378" lon="10.282814378762188"><ele>228.0</ele><time>2026-04-19T08:10:06.022Z</time></trkpt><trkpt lat="42.80584692872154" lon="10.282853062976638"><ele>228.16666666666666</ele><time>2026-04-19T08:10:07.022Z</time></trkpt><trkpt lat="42.805755553298276" lon="10.282855718548609"><ele>228.33333333333331</ele><time>2026-04-19T08:10:08.022Z</time></trkpt><trkpt lat="42.805687808235106" lon="10.282821878449136"><ele>228.5</ele><time>2026-04-19T08:10:09.023Z</time></trkpt><trkpt lat="42.80563834322477" lon="10.28273619232753"><ele>228.66666666666666</ele><time>2026-04-19T08:10:10.023Z</time></trkpt><trkpt lat="42.80557812360939" lon="10.282660571871707"><ele>228.83333333333331</ele><time>2026-04-19T08:10:11.023Z</time></trkpt><trkpt lat="42.805509831049186" lon="10.282597152060482"><ele>229.0</ele><time>2026-04-19T08:10:12.023Z</time></trkpt><trkpt lat="42.80542012365095" lon="10.282526719755788"><ele>228.99999999999997</ele><time>2026-04-19T08:10:13.024Z</time></trkpt><trkpt lat="42.8053268508028" lon="10.282481943180107"><ele>229.0</ele><time>2026-04-19T08:10:14.024Z</time></trkpt><trkpt lat="42.80523457422353" lon="10.282450245110976"><ele>229.0</ele><time>2026-04-19T08:10:15.024Z</time></trkpt><trkpt lat="42.80514758121389" lon="10.282429574107887"><ele>229.0</ele><time>2026-04-19T08:10:16.024Z</time></trkpt><trkpt lat="42.80508353393624" lon="10.28240859008751"><ele>228.99999999999997</ele><time>2026-04-19T08:10:17.024Z</time></trkpt><trkpt lat="42.80500850334441" lon="10.282375644815655"><ele>229.0</ele><time>2026-04-19T08:10:18.024Z</time></trkpt><trkpt lat="42.80490918077825" lon="10.282353285673757"><ele>228.33333333333331</ele><time>2026-04-19T08:10:19.023Z</time></trkpt><trkpt lat="42.804798665039" lon="10.282332880747306"><ele>227.66666666666666</ele><time>2026-04-19T08:10:20.023Z</time></trkpt><trkpt lat="42.804707240692075" lon="10.282311571197559"><ele>227.0</ele><time>2026-04-19T08:10:21.023Z</time></trkpt><trkpt lat="42.80463312129055" lon="10.282295733726848"><ele>226.33333333333331</ele><time>2026-04-19T08:10:22.023Z</time></trkpt><trkpt lat="42.80456094502632" lon="10.282277959137023"><ele>225.66666666666666</ele><time>2026-04-19T08:10:23.024Z</time></trkpt><trkpt lat="42.80449771351426" lon="10.282233607263688"><ele>225.0</ele><time>2026-04-19T08:10:24.024Z</time></trkpt><trkpt lat="42.804426391986816" lon="10.282178574455724"><ele>225.4</ele><time>2026-04-19T08:10:25.024Z</time></trkpt><trkpt lat="42.804360245089065" lon="10.282088752124206"><ele>225.8</ele><time>2026-04-19T08:10:26.024Z</time></trkpt><trkpt lat="42.80430539641276" lon="10.281978755510092"><ele>226.2</ele><time>2026-04-19T08:10:27.023Z</time></trkpt><trkpt lat="42.80426808124049" lon="10.281855465213999"><ele>226.6</ele><time>2026-04-19T08:10:28.023Z</time></trkpt><trkpt lat="42.804201770214604" lon="10.281770969980045"><ele>227.0</ele><time>2026-04-19T08:10:29.023Z</time></trkpt><trkpt lat="42.80413117189698" lon="10.281690522108018"><ele>227.0</ele><time>2026-04-19T08:10:30.023Z</time></trkpt><trkpt lat="42.80404053172601" lon="10.281642997016197"><ele>227.0</ele><time>2026-04-19T08:10:31.023Z</time></trkpt><trkpt lat="42.803936597175" lon="10.28160699838227"><ele>227.0</ele><time>2026-04-19T08:10:32.023Z</time></trkpt><trkpt lat="42.803834780565786" lon="10.281579077152971"><ele>227.0</ele><time>2026-04-19T08:10:33.023Z</time></trkpt><trkpt lat="42.80374402433676" lon="10.281559585348365"><ele>227.0</ele><time>2026-04-19T08:10:34.023Z</time></trkpt><trkpt lat="42.80367590900737" lon="10.281572847518058"><ele>227.0</ele><time>2026-04-19T08:10:35.023Z</time></trkpt><trkpt lat="42.80361601984599" lon="10.281623780716412"><ele>227.0</ele><time>2026-04-19T08:10:36.023Z</time></trkpt><trkpt lat="42.803543620737294" lon="10.281734988681482"><ele>227.0</ele><time>2026-04-19T08:10:37.023Z</time></trkpt><trkpt lat="42.80346906342497" lon="10.281875709443973"><ele>227.0</ele><time>2026-04-19T08:10:38.023Z</time></trkpt><trkpt lat="42.80338523221033" lon="10.281972971643675"><ele>227.0</ele><time>2026-04-19T08:10:39.023Z</time></trkpt><trkpt lat="42.8033133064441" lon="10.28207100818123"><ele>228.16666666666669</ele><time>2026-04-19T08:10:40.023Z</time></trkpt><trkpt lat="42.80327190381096" lon="10.282156107562901"><ele>229.33333333333334</ele><time>2026-04-19T08:10:41.023Z</time></trkpt><trkpt lat="42.80320677735102" lon="10.282205815722797"><ele>230.5</ele><time>2026-04-19T08:10:42.023Z</time></trkpt><trkpt lat="42.8031173085406" lon="10.2822665919588"><ele>231.66666666666669</ele><time>2026-04-19T08:10:43.023Z</time></trkpt><trkpt lat="42.80302804791894" lon="10.282313083028605"><ele>232.83333333333334</ele><time>2026-04-19T08:10:44.023Z</time></trkpt><trkpt lat="42.80294876702453" lon="10.282353097804792"><ele>234.0</ele><time>2026-04-19T08:10:45.023Z</time></trkpt><trkpt lat="42.80287085139644" lon="10.28241359838353"><ele>233.0</ele><time>2026-04-19T08:10:46.023Z</time></trkpt><trkpt lat="42.802790632704635" lon="10.282504237797816"><ele>231.99999999999997</ele><time>2026-04-19T08:10:47.023Z</time></trkpt><trkpt lat="42.80273190379279" lon="10.282581120167752"><ele>230.99999999999997</ele><time>2026-04-19T08:10:48.023Z</time></trkpt><trkpt lat="42.80267571595329" lon="10.282683948078866"><ele>230.0</ele><time>2026-04-19T08:10:49.023Z</time></trkpt><trkpt lat="42.80259091965233" lon="10.282761768350241"><ele>229.0</ele><time>2026-04-19T08:10:50.023Z</time></trkpt><trkpt lat="42.80251580900025" lon="10.282853724547548"><ele>229.0</ele><time>2026-04-19T08:10:51.023Z</time></trkpt><trkpt lat="42.80245492388887" lon="10.28297886097893"><ele>228.99999999999997</ele><time>2026-04-19T08:10:52.023Z</time></trkpt><trkpt lat="42.80241626618283" lon="10.283084384591007"><ele>228.99999999999997</ele><time>2026-04-19T08:10:53.023Z</time></trkpt><trkpt lat="42.80238467551835" lon="10.283172987587584"><ele>229.0</ele><time>2026-04-19T08:10:54.023Z</time></trkpt><trkpt lat="42.80235242211335" lon="10.283271131401618"><ele>229.0</ele><time>2026-04-19T08:10:55.023Z</time></trkpt><trkpt lat="42.80228159706701" lon="10.283394946188263"><ele>225.6</ele><time>2026-04-19T08:10:57.023Z</time></trkpt><trkpt lat="42.802119553907396" lon="10.283280227850039"><ele>222.2</ele><time>2026-04-19T08:11:01.023Z</time></trkpt><trkpt lat="42.8020895474209" lon="10.28319966495602"><ele>218.79999999999998</ele><time>2026-04-19T08:11:02.023Z</time></trkpt><trkpt lat="42.80203824199087" lon="10.283116946897005"><ele>215.39999999999998</ele><time>2026-04-19T08:11:04.023Z</time></trkpt><trkpt lat="42.801922724617796" lon="10.283122292331477"><ele>212.0</ele><time>2026-04-19T08:11:06.023Z</time></trkpt><trkpt lat="42.80180430370542" lon="10.283141793406534"><ele>211.16666666666669</ele><time>2026-04-19T08:11:08.023Z</time></trkpt><trkpt lat="42.801737564722465" lon="10.283143392056095"><ele>210.33333333333334</ele><time>2026-04-19T08:11:09.023Z</time></trkpt><trkpt lat="42.80166181069858" lon="10.283083647618922"><ele>209.5</ele><time>2026-04-19T08:11:11.023Z</time></trkpt><trkpt lat="42.80154664163773" lon="10.282992609883452"><ele>208.66666666666669</ele><time>2026-04-19T08:11:13.023Z</time></trkpt><trkpt lat="42.80147444273009" lon="10.282939447329614"><ele>207.83333333333334</ele><time>2026-04-19T08:11:14.023Z</time></trkpt><trkpt lat="42.80142286192953" lon="10.282867545547967"><ele>207.0</ele><time>2026-04-19T08:11:16.023Z</time></trkpt><trkpt lat="42.8013128033547" lon="10.282848623421813"><ele>207.0</ele><time>2026-04-19T08:11:19.023Z</time></trkpt><trkpt lat="42.80126018416622" lon="10.282901640032357"><ele>207.0</ele><time>2026-04-19T08:11:20.023Z</time></trkpt><trkpt lat="42.80119540763309" lon="10.283001180524383"><ele>207.0</ele><time>2026-04-19T08:11:22.023Z</time></trkpt><trkpt lat="42.80115998314699" lon="10.283094872810535"><ele>207.0</ele><time>2026-04-19T08:11:23.023Z</time></trkpt><trkpt lat="42.80110848735011" lon="10.283191692625453"><ele>207.0</ele><time>2026-04-19T08:11:24.023Z</time></trkpt><trkpt lat="42.801044759493024" lon="10.283288865345948"><ele>207.0</ele><time>2026-04-19T08:11:25.023Z</time></trkpt><trkpt lat="42.80098293059711" lon="10.283351174205897"><ele>206.5</ele><time>2026-04-19T08:11:26.023Z</time></trkpt><trkpt lat="42.80089766862172" lon="10.283490208630493"><ele>206.0</ele><time>2026-04-19T08:11:28.023Z</time></trkpt><trkpt lat="42.80084345892651" lon="10.28355757772572"><ele>205.5</ele><time>2026-04-19T08:11:29.023Z</time></trkpt><trkpt lat="42.800789071535796" lon="10.283602286662207"><ele>205.0</ele><time>2026-04-19T08:11:30.023Z</time></trkpt><trkpt lat="42.8007196380503" lon="10.283648113573788"><ele>204.5</ele><time>2026-04-19T08:11:31.023Z</time></trkpt><trkpt lat="42.80065307407868" lon="10.283696779640163"><ele>204.0</ele><time>2026-04-19T08:11:32.023Z</time></trkpt><trkpt lat="42.80057811423563" lon="10.283722655575687"><ele>204.0</ele><time>2026-04-19T08:11:33.023Z</time></trkpt><trkpt lat="42.80050787420868" lon="10.283735322261935"><ele>204.0</ele><time>2026-04-19T08:11:34.023Z</time></trkpt><trkpt lat="42.800394190094" lon="10.283773940904494"><ele>204.0</ele><time>2026-04-19T08:11:36.023Z</time></trkpt><trkpt lat="42.80032221244762" lon="10.283797227769584"><ele>204.0</ele><time>2026-04-19T08:11:37.023Z</time></trkpt><trkpt lat="42.8002421555162" lon="10.283823904998602"><ele>204.0</ele><time>2026-04-19T08:11:38.023Z</time></trkpt><trkpt lat="42.8001360444965" lon="10.283861419549986"><ele>203.0</ele><time>2026-04-19T08:11:39.023Z</time></trkpt><trkpt lat="42.80004480938927" lon="10.283894804706522"><ele>202.0</ele><time>2026-04-19T08:11:40.023Z</time></trkpt><trkpt lat="42.799959307584515" lon="10.283917479858998"><ele>201.0</ele><time>2026-04-19T08:11:41.023Z</time></trkpt><trkpt lat="42.799871560248576" lon="10.28393489137684"><ele>200.0</ele><time>2026-04-19T08:11:42.023Z</time></trkpt><trkpt lat="42.799766618535315" lon="10.283953735091623"><ele>199.0</ele><time>2026-04-19T08:11:43.023Z</time></trkpt><trkpt lat="42.799697193059586" lon="10.283950316340254"><ele>198.0</ele><time>2026-04-19T08:11:44.023Z</time></trkpt><trkpt lat="42.79958758683806" lon="10.283943474435143"><ele>198.0</ele><time>2026-04-19T08:11:46.023Z</time></trkpt><trkpt lat="42.79947351144317" lon="10.283906749093449"><ele>198.0</ele><time>2026-04-19T08:11:48.023Z</time></trkpt><trkpt lat="42.799393790510955" lon="10.283784912017724"><ele>198.0</ele><time>2026-04-19T08:11:50.023Z</time></trkpt><trkpt lat="42.7993616845909" lon="10.283661983402707"><ele>198.0</ele><time>2026-04-19T08:11:51.023Z</time></trkpt><trkpt lat="42.79934290082494" lon="10.283544527101014"><ele>198.0</ele><time>2026-04-19T08:11:52.023Z</time></trkpt><trkpt lat="42.79933123646802" lon="10.283426847521424"><ele>194.16666666666666</ele><time>2026-04-19T08:11:53.023Z</time></trkpt><trkpt lat="42.79930572434282" lon="10.283327249610425"><ele>190.33333333333334</ele><time>2026-04-19T08:11:54.023Z</time></trkpt><trkpt lat="42.79929060277341" lon="10.283239226582035"><ele>186.5</ele><time>2026-04-19T08:11:55.023Z</time></trkpt><trkpt lat="42.79925375232718" lon="10.283084091129512"><ele>182.66666666666669</ele><time>2026-04-19T08:11:57.023Z</time></trkpt><trkpt lat="42.79920764516113" lon="10.282981487374101"><ele>178.83333333333334</ele><time>2026-04-19T08:11:58.023Z</time></trkpt><trkpt lat="42.799184763211784" lon="10.28289526439515"><ele>175.0</ele><time>2026-04-19T08:11:59.023Z</time></trkpt><trkpt lat="42.7990730403901" lon="10.282841532781779"><ele>175.0</ele><time>2026-04-19T08:12:00.023Z</time></trkpt><trkpt lat="42.79902398818901" lon="10.282700519166983"><ele>175.0</ele><time>2026-04-19T08:12:02.023Z</time></trkpt><trkpt lat="42.798995771933406" lon="10.282612433691982"><ele>175.0</ele><time>2026-04-19T08:12:03.023Z</time></trkpt><trkpt lat="42.79899054197911" lon="10.282516441594739"><ele>175.0</ele><time>2026-04-19T08:12:04.023Z</time></trkpt><trkpt lat="42.7989601492338" lon="10.282427954568822"><ele>175.0</ele><time>2026-04-19T08:12:05.023Z</time></trkpt><trkpt lat="42.79892773620446" lon="10.282344225541856"><ele>175.0</ele><time>2026-04-19T08:12:06.023Z</time></trkpt><trkpt lat="42.79888309530804" lon="10.2822471556771"><ele>176.16666666666669</ele><time>2026-04-19T08:12:07.023Z</time></trkpt><trkpt lat="42.79884108440491" lon="10.282157835934129"><ele>177.33333333333334</ele><time>2026-04-19T08:12:08.023Z</time></trkpt><trkpt lat="42.79880910023796" lon="10.282081540950792"><ele>178.5</ele><time>2026-04-19T08:12:09.023Z</time></trkpt><trkpt lat="42.798777812753954" lon="10.281997034428109"><ele>179.66666666666666</ele><time>2026-04-19T08:12:10.023Z</time></trkpt><trkpt lat="42.79873058985601" lon="10.281855762099317"><ele>180.83333333333331</ele><time>2026-04-19T08:12:12.023Z</time></trkpt><trkpt lat="42.798673617497585" lon="10.281748488528756"><ele>182.0</ele><time>2026-04-19T08:12:14.023Z</time></trkpt><trkpt lat="42.79864354521581" lon="10.281592649508138"><ele>182.0</ele><time>2026-04-19T08:12:16.024Z</time></trkpt><trkpt lat="42.79865009048935" lon="10.281438095615504"><ele>182.0</ele><time>2026-04-19T08:12:18.024Z</time></trkpt><trkpt lat="42.79864508225468" lon="10.281263842617857"><ele>182.0</ele><time>2026-04-19T08:12:20.024Z</time></trkpt><trkpt lat="42.79865404326616" lon="10.28111443728005"><ele>182.0</ele><time>2026-04-19T08:12:22.024Z</time></trkpt><trkpt lat="42.79865442736951" lon="10.280995118856438"><ele>182.0</ele><time>2026-04-19T08:12:24.025Z</time></trkpt><trkpt lat="42.798616901392336" lon="10.280868387881902"><ele>181.39999999999998</ele><time>2026-04-19T08:12:26.025Z</time></trkpt><trkpt lat="42.79866016837683" lon="10.280731638462765"><ele>180.79999999999998</ele><time>2026-04-19T08:12:28.025Z</time></trkpt><trkpt lat="42.79873331321882" lon="10.280634256189272"><ele>180.2</ele><time>2026-04-19T08:12:30.025Z</time></trkpt><trkpt lat="42.79881264877855" lon="10.280475765403365"><ele>179.6</ele><time>2026-04-19T08:12:32.024Z</time></trkpt><trkpt lat="42.79885462667394" lon="10.280360490296008"><ele>179.0</ele><time>2026-04-19T08:12:33.025Z</time></trkpt><trkpt lat="42.79889755995046" lon="10.280253349867701"><ele>179.16666666666666</ele><time>2026-04-19T08:12:34.025Z</time></trkpt><trkpt lat="42.79893556423899" lon="10.280154158185393"><ele>179.33333333333331</ele><time>2026-04-19T08:12:35.025Z</time></trkpt><trkpt lat="42.798951989350705" lon="10.28004183033597"><ele>179.5</ele><time>2026-04-19T08:12:36.025Z</time></trkpt><trkpt lat="42.79896595922322" lon="10.27993178559388"><ele>179.66666666666666</ele><time>2026-04-19T08:12:37.025Z</time></trkpt><trkpt lat="42.79895575473591" lon="10.279818559302974"><ele>179.83333333333334</ele><time>2026-04-19T08:12:38.025Z</time></trkpt><trkpt lat="42.79892446148034" lon="10.279712003208445"><ele>180.0</ele><time>2026-04-19T08:12:39.025Z</time></trkpt><trkpt lat="42.798890398959564" lon="10.27961242347851"><ele>180.0</ele><time>2026-04-19T08:12:40.025Z</time></trkpt><trkpt lat="42.79885890902366" lon="10.279503819163157"><ele>180.0</ele><time>2026-04-19T08:12:41.025Z</time></trkpt><trkpt lat="42.79883089158642" lon="10.279410744623586"><ele>180.0</ele><time>2026-04-19T08:12:42.025Z</time></trkpt><trkpt lat="42.7987880793084" lon="10.279331026070587"><ele>180.0</ele><time>2026-04-19T08:12:43.025Z</time></trkpt><trkpt lat="42.79873325678999" lon="10.279257303538094"><ele>180.0</ele><time>2026-04-19T08:12:44.025Z</time></trkpt><trkpt lat="42.798693914453956" lon="10.279163250950532"><ele>180.0</ele><time>2026-04-19T08:12:45.025Z</time></trkpt><trkpt lat="42.79864167999066" lon="10.279075341803049"><ele>180.0</ele><time>2026-04-19T08:12:46.025Z</time></trkpt><trkpt lat="42.798597099871515" lon="10.278969091750351"><ele>180.0</ele><time>2026-04-19T08:12:47.025Z</time></trkpt><trkpt lat="42.79856543582394" lon="10.278859341823479"><ele>180.0</ele><time>2026-04-19T08:12:48.025Z</time></trkpt><trkpt lat="42.798542008403906" lon="10.278743808420689"><ele>180.0</ele><time>2026-04-19T08:12:49.025Z</time></trkpt><trkpt lat="42.79849763679976" lon="10.278632859274015"><ele>180.0</ele><time>2026-04-19T08:12:50.025Z</time></trkpt><trkpt lat="42.798436235610524" lon="10.278537084871619"><ele>177.2</ele><time>2026-04-19T08:12:51.025Z</time></trkpt><trkpt lat="42.79838664819507" lon="10.27845273125223"><ele>174.4</ele><time>2026-04-19T08:12:52.025Z</time></trkpt><trkpt lat="42.798307046162755" lon="10.278370285930034"><ele>171.60000000000002</ele><time>2026-04-19T08:12:53.025Z</time></trkpt><trkpt lat="42.79822509552927" lon="10.278288900581167"><ele>168.8</ele><time>2026-04-19T08:12:54.025Z</time></trkpt><trkpt lat="42.798159982532084" lon="10.278206199039532"><ele>166.0</ele><time>2026-04-19T08:12:55.025Z</time></trkpt><trkpt lat="42.79810082748748" lon="10.278118104576235"><ele>167.20000000000002</ele><time>2026-04-19T08:12:56.025Z</time></trkpt><trkpt lat="42.798054625233554" lon="10.278017056758696"><ele>168.4</ele><time>2026-04-19T08:12:57.025Z</time></trkpt><trkpt lat="42.79802768597601" lon="10.277902822328219"><ele>169.6</ele><time>2026-04-19T08:12:58.025Z</time></trkpt><trkpt lat="42.79802649965522" lon="10.277777879053271"><ele>170.8</ele><time>2026-04-19T08:12:59.025Z</time></trkpt><trkpt lat="42.798029731271036" lon="10.277636400576537"><ele>172.0</ele><time>2026-04-19T08:13:00.025Z</time></trkpt><trkpt lat="42.79802811961632" lon="10.277500847206"><ele>172.0</ele><time>2026-04-19T08:13:01.024Z</time></trkpt><trkpt lat="42.79802472072752" lon="10.277378062730131"><ele>172.0</ele><time>2026-04-19T08:13:02.022Z</time></trkpt><trkpt lat="42.79801278953074" lon="10.277258893948316"><ele>172.0</ele><time>2026-04-19T08:13:03.02Z</time></trkpt><trkpt lat="42.798000666484825" lon="10.277139576935307"><ele>172.0</ele><time>2026-04-19T08:13:04.018Z</time></trkpt><trkpt lat="42.79800187876049" lon="10.277019255688458"><ele>172.0</ele><time>2026-04-19T08:13:05.017Z</time></trkpt><trkpt lat="42.7979898224832" lon="10.276897835220979"><ele>172.0</ele><time>2026-04-19T08:13:06.015Z</time></trkpt><trkpt lat="42.7979821993126" lon="10.27678015457127"><ele>170.33333333333334</ele><time>2026-04-19T08:13:07.014Z</time></trkpt><trkpt lat="42.79797296667002" lon="10.276663440025471"><ele>168.66666666666669</ele><time>2026-04-19T08:13:08.012Z</time></trkpt><trkpt lat="42.79796020887538" lon="10.276563724965198"><ele>167.0</ele><time>2026-04-19T08:13:09.011Z</time></trkpt><trkpt lat="42.797972005228196" lon="10.276456875411762"><ele>165.33333333333334</ele><time>2026-04-19T08:13:10.01Z</time></trkpt><trkpt lat="42.79796220539092" lon="10.276361713836746"><ele>163.66666666666666</ele><time>2026-04-19T08:13:11.009Z</time></trkpt><trkpt lat="42.79793376050852" lon="10.276262465766484"><ele>162.0</ele><time>2026-04-19T08:13:13.007Z</time></trkpt><trkpt lat="42.79784788437317" lon="10.276110863833921"><ele>160.66666666666666</ele><time>2026-04-19T08:13:15.005Z</time></trkpt><trkpt lat="42.79777970569452" lon="10.276032190824202"><ele>159.33333333333334</ele><time>2026-04-19T08:13:16.004Z</time></trkpt><trkpt lat="42.79770613470165" lon="10.275992934724798"><ele>158.0</ele><time>2026-04-19T08:13:17.004Z</time></trkpt><trkpt lat="42.79764005559936" lon="10.27597441971748"><ele>156.66666666666669</ele><time>2026-04-19T08:13:18.003Z</time></trkpt><trkpt lat="42.79757658227268" lon="10.275959073431057"><ele>155.33333333333334</ele><time>2026-04-19T08:13:19.002Z</time></trkpt><trkpt lat="42.79746894202028" lon="10.275952123416337"><ele>154.0</ele><time>2026-04-19T08:13:21.001Z</time></trkpt><trkpt lat="42.79736544853924" lon="10.275910982689798"><ele>154.0</ele><time>2026-04-19T08:13:23Z</time></trkpt><trkpt lat="42.79730273460447" lon="10.275894350850445"><ele>154.0</ele><time>2026-04-19T08:13:23.999Z</time></trkpt><trkpt lat="42.79720688493003" lon="10.27584605529702"><ele>154.0</ele><time>2026-04-19T08:13:25.998Z</time></trkpt><trkpt lat="42.79714956949277" lon="10.2757654002302"><ele>154.0</ele><time>2026-04-19T08:13:27.998Z</time></trkpt><trkpt lat="42.79710144873992" lon="10.275620957062554"><ele>154.0</ele><time>2026-04-19T08:13:29.997Z</time></trkpt><trkpt lat="42.797065246052725" lon="10.27554406016451"><ele>154.0</ele><time>2026-04-19T08:13:30.997Z</time></trkpt><trkpt lat="42.79701212458598" lon="10.275403746839288"><ele>153.5</ele><time>2026-04-19T08:13:32.996Z</time></trkpt><trkpt lat="42.796990423621125" lon="10.275312795379474"><ele>153.0</ele><time>2026-04-19T08:13:33.996Z</time></trkpt><trkpt lat="42.79698163885709" lon="10.275225188768497"><ele>152.5</ele><time>2026-04-19T08:13:34.996Z</time></trkpt><trkpt lat="42.79693882154509" lon="10.275126825480289"><ele>152.0</ele><time>2026-04-19T08:13:35.995Z</time></trkpt><trkpt lat="42.796913907324395" lon="10.27504622167409"><ele>151.5</ele><time>2026-04-19T08:13:36.995Z</time></trkpt><trkpt lat="42.79683735056994" lon="10.27487308631811"><ele>151.0</ele><time>2026-04-19T08:13:38.995Z</time></trkpt><trkpt lat="42.79676527776729" lon="10.274789785579879"><ele>150.0</ele><time>2026-04-19T08:13:39.995Z</time></trkpt><trkpt lat="42.796698679391625" lon="10.274712483496643"><ele>149.0</ele><time>2026-04-19T08:13:40.994Z</time></trkpt><trkpt lat="42.79662657188553" lon="10.274635286914856"><ele>148.0</ele><time>2026-04-19T08:13:41.994Z</time></trkpt><trkpt lat="42.796580575265494" lon="10.274556647868279"><ele>147.0</ele><time>2026-04-19T08:13:42.994Z</time></trkpt><trkpt lat="42.796516647157354" lon="10.274459210987407"><ele>146.0</ele><time>2026-04-19T08:13:43.994Z</time></trkpt><trkpt lat="42.79645028430148" lon="10.27435180097375"><ele>146.0</ele><time>2026-04-19T08:13:44.994Z</time></trkpt><trkpt lat="42.79638257222084" lon="10.274239495538286"><ele>146.0</ele><time>2026-04-19T08:13:45.994Z</time></trkpt><trkpt lat="42.79630958644494" lon="10.27413291992278"><ele>146.0</ele><time>2026-04-19T08:13:46.994Z</time></trkpt><trkpt lat="42.79624004498387" lon="10.274036011181499"><ele>146.0</ele><time>2026-04-19T08:13:47.993Z</time></trkpt><trkpt lat="42.79617233533498" lon="10.27393773477289"><ele>146.0</ele><time>2026-04-19T08:13:48.993Z</time></trkpt><trkpt lat="42.796103612791896" lon="10.273856619539417"><ele>144.83333333333331</ele><time>2026-04-19T08:13:49.993Z</time></trkpt><trkpt lat="42.79604872426119" lon="10.273787332741502"><ele>143.66666666666666</ele><time>2026-04-19T08:13:50.993Z</time></trkpt><trkpt lat="42.7959873658319" lon="10.273734672349459"><ele>142.5</ele><time>2026-04-19T08:13:51.993Z</time></trkpt><trkpt lat="42.7959258769829" lon="10.273701732287758"><ele>141.33333333333334</ele><time>2026-04-19T08:13:52.993Z</time></trkpt><trkpt lat="42.795861425642535" lon="10.273688444265455"><ele>140.16666666666669</ele><time>2026-04-19T08:13:53.993Z</time></trkpt><trkpt lat="42.79575633897574" lon="10.273607778144587"><ele>139.0</ele><time>2026-04-19T08:13:55.993Z</time></trkpt><trkpt lat="42.7956535805328" lon="10.273541337491695"><ele>139.0</ele><time>2026-04-19T08:13:57.993Z</time></trkpt><trkpt lat="42.7955609336612" lon="10.27342940282246"><ele>139.0</ele><time>2026-04-19T08:13:59.992Z</time></trkpt><trkpt lat="42.795515016225536" lon="10.273354145347682"><ele>139.0</ele><time>2026-04-19T08:14:00.992Z</time></trkpt><trkpt lat="42.795474683018696" lon="10.273283292234604"><ele>139.0</ele><time>2026-04-19T08:14:01.992Z</time></trkpt><trkpt lat="42.79543726145386" lon="10.27319659971849"><ele>139.0</ele><time>2026-04-19T08:14:02.992Z</time></trkpt><trkpt lat="42.79539675105847" lon="10.273113431770982"><ele>139.0</ele><time>2026-04-19T08:14:03.992Z</time></trkpt><trkpt lat="42.795365800708595" lon="10.273038507411906"><ele>136.66666666666669</ele><time>2026-04-19T08:14:04.992Z</time></trkpt><trkpt lat="42.79531786845878" lon="10.272892866520491"><ele>134.33333333333334</ele><time>2026-04-19T08:14:06.992Z</time></trkpt><trkpt lat="42.79530401550182" lon="10.272757255717908"><ele>132.0</ele><time>2026-04-19T08:14:08.992Z</time></trkpt><trkpt lat="42.795300879894334" lon="10.272657012955227"><ele>129.66666666666666</ele><time>2026-04-19T08:14:10.992Z</time></trkpt><trkpt lat="42.79528132611654" lon="10.272574766605732"><ele>127.33333333333333</ele><time>2026-04-19T08:14:17.992Z</time></trkpt><trkpt lat="42.79523953082698" lon="10.27247315386416"><ele>125.0</ele><time>2026-04-19T08:15:55.991Z</time></trkpt><trkpt lat="42.795199914516516" lon="10.272372642244186"><ele>124.99999999999999</ele><time>2026-04-19T08:15:57.991Z</time></trkpt><trkpt lat="42.79518996234862" lon="10.27228214307296"><ele>125.0</ele><time>2026-04-19T08:15:58.991Z</time></trkpt><trkpt lat="42.79517630188381" lon="10.272191320099925"><ele>125.0</ele><time>2026-04-19T08:15:59.991Z</time></trkpt><trkpt lat="42.79514969019903" lon="10.272088116669295"><ele>125.0</ele><time>2026-04-19T08:16:00.991Z</time></trkpt><trkpt lat="42.79511770495996" lon="10.271976982693923"><ele>124.99999999999999</ele><time>2026-04-19T08:16:01.991Z</time></trkpt><trkpt lat="42.795073939601416" lon="10.271880379112837"><ele>125.0</ele><time>2026-04-19T08:16:02.991Z</time></trkpt><trkpt lat="42.79503044624533" lon="10.271782551925986"><ele>125.5</ele><time>2026-04-19T08:16:03.991Z</time></trkpt><trkpt lat="42.79497387600926" lon="10.271665219007634"><ele>126.0</ele><time>2026-04-19T08:16:04.991Z</time></trkpt><trkpt lat="42.79488950941773" lon="10.271531598946408"><ele>126.5</ele><time>2026-04-19T08:16:05.991Z</time></trkpt><trkpt lat="42.79479729402367" lon="10.271408855128751"><ele>127.0</ele><time>2026-04-19T08:16:06.991Z</time></trkpt><trkpt lat="42.79471653017425" lon="10.271271907848506"><ele>127.0</ele><time>2026-04-19T08:16:07.991Z</time></trkpt><trkpt lat="42.79465102378162" lon="10.271109717839712"><ele>127.0</ele><time>2026-04-19T08:16:08.991Z</time></trkpt><trkpt lat="42.794629042139626" lon="10.270928587679098"><ele>127.0</ele><time>2026-04-19T08:16:09.991Z</time></trkpt><trkpt lat="42.7946144589083" lon="10.270749626278349"><ele>127.0</ele><time>2026-04-19T08:16:10.991Z</time></trkpt><trkpt lat="42.794602487714435" lon="10.270571662724057"><ele>125.5</ele><time>2026-04-19T08:16:11.991Z</time></trkpt><trkpt lat="42.794595827461535" lon="10.27038933705624"><ele>124.0</ele><time>2026-04-19T08:16:12.991Z</time></trkpt><trkpt lat="42.794603285821005" lon="10.270203343485424"><ele>122.5</ele><time>2026-04-19T08:16:13.991Z</time></trkpt><trkpt lat="42.794591892738616" lon="10.270002987739172"><ele>121.0</ele><time>2026-04-19T08:16:14.991Z</time></trkpt><trkpt lat="42.79454815406212" lon="10.269807488435626"><ele>118.75</ele><time>2026-04-19T08:16:15.991Z</time></trkpt><trkpt lat="42.79448275986275" lon="10.269648031706092"><ele>116.5</ele><time>2026-04-19T08:16:16.991Z</time></trkpt><trkpt lat="42.79440506640541" lon="10.269484598210605"><ele>114.25</ele><time>2026-04-19T08:16:17.991Z</time></trkpt><trkpt lat="42.79431507435194" lon="10.269309358240388"><ele>112.0</ele><time>2026-04-19T08:16:18.991Z</time></trkpt><trkpt lat="42.794239676473225" lon="10.269121701014617"><ele>120.75</ele><time>2026-04-19T08:16:19.991Z</time></trkpt><trkpt lat="42.79416740104731" lon="10.268928023213352"><ele>129.5</ele><time>2026-04-19T08:16:20.991Z</time></trkpt><trkpt lat="42.794101969205165" lon="10.268742629546237"><ele>138.25</ele><time>2026-04-19T08:16:21.991Z</time></trkpt><trkpt lat="42.794067539178336" lon="10.268562083519697"><ele>147.0</ele><time>2026-04-19T08:16:22.991Z</time></trkpt><trkpt lat="42.79406796742702" lon="10.26839412499267"><ele>147.0</ele><time>2026-04-19T08:16:23.991Z</time></trkpt><trkpt lat="42.794110611313684" lon="10.268260982755358"><ele>147.0</ele><time>2026-04-19T08:16:24.991Z</time></trkpt><trkpt lat="42.79416407723289" lon="10.26811653466491"><ele>147.0</ele><time>2026-04-19T08:16:25.991Z</time></trkpt><trkpt lat="42.79423024391094" lon="10.267979767239195"><ele>147.0</ele><time>2026-04-19T08:16:26.992Z</time></trkpt><trkpt lat="42.79433477103847" lon="10.267833948106876"><ele>142.0</ele><time>2026-04-19T08:16:27.992Z</time></trkpt><trkpt lat="42.794446741765306" lon="10.267704929082177"><ele>137.0</ele><time>2026-04-19T08:16:28.992Z</time></trkpt><trkpt lat="42.7945636126146" lon="10.26757954002702"><ele>132.0</ele><time>2026-04-19T08:16:29.992Z</time></trkpt><trkpt lat="42.79466709916668" lon="10.26745479226448"><ele>127.0</ele><time>2026-04-19T08:16:30.992Z</time></trkpt><trkpt lat="42.79473710854514" lon="10.267325536555509"><ele>127.39999999999999</ele><time>2026-04-19T08:16:31.992Z</time></trkpt><trkpt lat="42.794770684395345" lon="10.267179950645394"><ele>127.79999999999998</ele><time>2026-04-19T08:16:32.992Z</time></trkpt><trkpt lat="42.79474138628896" lon="10.267033921764803"><ele>128.2</ele><time>2026-04-19T08:16:33.992Z</time></trkpt><trkpt lat="42.79471299622017" lon="10.266900653380148"><ele>128.6</ele><time>2026-04-19T08:16:34.993Z</time></trkpt><trkpt lat="42.794612898240395" lon="10.266805755160233"><ele>129.0</ele><time>2026-04-19T08:16:35.993Z</time></trkpt><trkpt lat="42.79451429033603" lon="10.26676129070791"><ele>129.0</ele><time>2026-04-19T08:16:36.992Z</time></trkpt><trkpt lat="42.79441003047667" lon="10.266760436498389"><ele>129.0</ele><time>2026-04-19T08:16:37.992Z</time></trkpt><trkpt lat="42.79428833742592" lon="10.26677938122109"><ele>129.0</ele><time>2026-04-19T08:16:38.992Z</time></trkpt><trkpt lat="42.794152603059175" lon="10.26678996613008"><ele>129.0</ele><time>2026-04-19T08:16:39.992Z</time></trkpt><trkpt lat="42.79401634069271" lon="10.266792019301267"><ele>131.75</ele><time>2026-04-19T08:16:40.992Z</time></trkpt><trkpt lat="42.79390158121774" lon="10.266766957929939"><ele>134.5</ele><time>2026-04-19T08:16:41.992Z</time></trkpt><trkpt lat="42.793791839385094" lon="10.266701423460674"><ele>137.25</ele><time>2026-04-19T08:16:42.992Z</time></trkpt><trkpt lat="42.79374416088544" lon="10.266553593377678"><ele>140.0</ele><time>2026-04-19T08:16:43.992Z</time></trkpt><trkpt lat="42.79368809589205" lon="10.266418467378061"><ele>137.5</ele><time>2026-04-19T08:16:44.993Z</time></trkpt><trkpt lat="42.79361888682479" lon="10.266289140342149"><ele>135.0</ele><time>2026-04-19T08:16:45.993Z</time></trkpt><trkpt lat="42.79353365405597" lon="10.266187963215517"><ele>132.5</ele><time>2026-04-19T08:16:46.992Z</time></trkpt><trkpt lat="42.7934295730728" lon="10.266143101804081"><ele>130.0</ele><time>2026-04-19T08:16:47.992Z</time></trkpt><trkpt lat="42.79331222720698" lon="10.26616591409164"><ele>130.0</ele><time>2026-04-19T08:16:48.992Z</time></trkpt><trkpt lat="42.79320155521322" lon="10.266219482679187"><ele>130.0</ele><time>2026-04-19T08:16:49.992Z</time></trkpt><trkpt lat="42.79307896579056" lon="10.266255111673775"><ele>130.0</ele><time>2026-04-19T08:16:50.992Z</time></trkpt><trkpt lat="42.792950295953695" lon="10.266279300807696"><ele>130.0</ele><time>2026-04-19T08:16:51.992Z</time></trkpt><trkpt lat="42.79283161351079" lon="10.266274904308215"><ele>130.0</ele><time>2026-04-19T08:16:52.992Z</time></trkpt><trkpt lat="42.792737046537255" lon="10.266167745589017"><ele>130.0</ele><time>2026-04-19T08:16:53.992Z</time></trkpt><trkpt lat="42.792656739820316" lon="10.266044502990379"><ele>130.0</ele><time>2026-04-19T08:16:54.992Z</time></trkpt><trkpt lat="42.79257420960936" lon="10.265942070883955"><ele>130.0</ele><time>2026-04-19T08:16:55.992Z</time></trkpt><trkpt lat="42.79247373370206" lon="10.2658368665788"><ele>132.5</ele><time>2026-04-19T08:16:56.992Z</time></trkpt><trkpt lat="42.792353189227256" lon="10.265770591012132"><ele>135.0</ele><time>2026-04-19T08:16:57.992Z</time></trkpt><trkpt lat="42.79221941296153" lon="10.265725954930087"><ele>137.5</ele><time>2026-04-19T08:16:58.992Z</time></trkpt><trkpt lat="42.79207949758895" lon="10.265676095813758"><ele>140.0</ele><time>2026-04-19T08:16:59.992Z</time></trkpt><trkpt lat="42.79194404735484" lon="10.265631887036404"><ele>137.25</ele><time>2026-04-19T08:17:00.992Z</time></trkpt><trkpt lat="42.79180468611381" lon="10.265582202859001"><ele>134.5</ele><time>2026-04-19T08:17:01.992Z</time></trkpt><trkpt lat="42.791670722469" lon="10.265536817272942"><ele>131.75</ele><time>2026-04-19T08:17:02.992Z</time></trkpt><trkpt lat="42.791549825710995" lon="10.265485149233061"><ele>129.0</ele><time>2026-04-19T08:17:03.992Z</time></trkpt><trkpt lat="42.791432473297576" lon="10.265434476335892"><ele>129.0</ele><time>2026-04-19T08:17:04.992Z</time></trkpt><trkpt lat="42.79131108677316" lon="10.265386454961662"><ele>129.0</ele><time>2026-04-19T08:17:05.992Z</time></trkpt><trkpt lat="42.79119966361191" lon="10.265324199099311"><ele>129.0</ele><time>2026-04-19T08:17:06.992Z</time></trkpt><trkpt lat="42.791106241097815" lon="10.265229130406452"><ele>129.0</ele><time>2026-04-19T08:17:07.992Z</time></trkpt><trkpt lat="42.79100697212581" lon="10.265131541158524"><ele>134.4</ele><time>2026-04-19T08:17:08.992Z</time></trkpt><trkpt lat="42.79093966215209" lon="10.265012804336445"><ele>139.8</ele><time>2026-04-19T08:17:09.992Z</time></trkpt><trkpt lat="42.79088830742225" lon="10.264914885880684"><ele>145.2</ele><time>2026-04-19T08:17:10.992Z</time></trkpt><trkpt lat="42.79087247188846" lon="10.264774275701663"><ele>150.6</ele><time>2026-04-19T08:17:11.992Z</time></trkpt><trkpt lat="42.79093772747917" lon="10.264693604937516"><ele>156.0</ele><time>2026-04-19T08:17:12.992Z</time></trkpt><trkpt lat="42.79098530966676" lon="10.26459481708217"><ele>147.75</ele><time>2026-04-19T08:17:13.992Z</time></trkpt><trkpt lat="42.79107541854705" lon="10.264535534928026"><ele>139.5</ele><time>2026-04-19T08:17:14.992Z</time></trkpt><trkpt lat="42.791160598629226" lon="10.264411153205728"><ele>131.25</ele><time>2026-04-19T08:17:15.992Z</time></trkpt><trkpt lat="42.79125512783473" lon="10.264277410368503"><ele>123.0</ele><time>2026-04-19T08:17:16.992Z</time></trkpt><trkpt lat="42.79132994919047" lon="10.264168991433134"><ele>123.0</ele><time>2026-04-19T08:17:17.992Z</time></trkpt><trkpt lat="42.79140368832703" lon="10.26406003576633"><ele>123.00000000000001</ele><time>2026-04-19T08:17:18.992Z</time></trkpt><trkpt lat="42.79147305553563" lon="10.263964296650716"><ele>123.00000000000001</ele><time>2026-04-19T08:17:19.992Z</time></trkpt><trkpt lat="42.79153449478887" lon="10.263826950911962"><ele>123.0</ele><time>2026-04-19T08:17:20.992Z</time></trkpt><trkpt lat="42.79158262001648" lon="10.263703258355786"><ele>123.0</ele><time>2026-04-19T08:17:21.992Z</time></trkpt><trkpt lat="42.791617386257094" lon="10.26356098477678"><ele>124.4</ele><time>2026-04-19T08:17:22.992Z</time></trkpt><trkpt lat="42.79160422242671" lon="10.263415111472726"><ele>125.80000000000001</ele><time>2026-04-19T08:17:23.992Z</time></trkpt><trkpt lat="42.79156874075075" lon="10.263290724667062"><ele>127.2</ele><time>2026-04-19T08:17:24.992Z</time></trkpt><trkpt lat="42.79154012030198" lon="10.263143307349392"><ele>128.6</ele><time>2026-04-19T08:17:25.992Z</time></trkpt><trkpt lat="42.79152923116719" lon="10.263004075593047"><ele>130.0</ele><time>2026-04-19T08:17:26.992Z</time></trkpt><trkpt lat="42.79153049705028" lon="10.262860412601826"><ele>131.25</ele><time>2026-04-19T08:17:27.992Z</time></trkpt><trkpt lat="42.79157012496008" lon="10.262717962817652"><ele>132.5</ele><time>2026-04-19T08:17:28.992Z</time></trkpt><trkpt lat="42.79161927648814" lon="10.262522402478783"><ele>133.75</ele><time>2026-04-19T08:17:29.992Z</time></trkpt><trkpt lat="42.79169985478159" lon="10.26230413824678"><ele>135.0</ele><time>2026-04-19T08:17:30.992Z</time></trkpt><trkpt lat="42.791779765796505" lon="10.26205641388931"><ele>128.66666666666666</ele><time>2026-04-19T08:17:31.992Z</time></trkpt><trkpt lat="42.791846975588044" lon="10.261829901712733"><ele>122.33333333333333</ele><time>2026-04-19T08:17:32.992Z</time></trkpt><trkpt lat="42.791924509185776" lon="10.261651568243964"><ele>116.0</ele><time>2026-04-19T08:17:33.992Z</time></trkpt><trkpt lat="42.79203329424717" lon="10.261519373204306"><ele>119.0</ele><time>2026-04-19T08:17:34.992Z</time></trkpt><trkpt lat="42.79215281116684" lon="10.261414887928055"><ele>122.0</ele><time>2026-04-19T08:17:35.992Z</time></trkpt><trkpt lat="42.792250934110044" lon="10.26131927245785"><ele>125.0</ele><time>2026-04-19T08:17:36.992Z</time></trkpt><trkpt lat="42.792336015878696" lon="10.261233766756174"><ele>128.0</ele><time>2026-04-19T08:17:37.992Z</time></trkpt><trkpt lat="42.7924085970563" lon="10.261123032213282"><ele>128.0</ele><time>2026-04-19T08:17:38.992Z</time></trkpt><trkpt lat="42.79248574098002" lon="10.261017910518612"><ele>128.0</ele><time>2026-04-19T08:17:39.992Z</time></trkpt><trkpt lat="42.79245702655016" lon="10.260799298862326"><ele>128.0</ele><time>2026-04-19T08:17:40.992Z</time></trkpt><trkpt lat="42.79246933267592" lon="10.260639251848742"><ele>128.0</ele><time>2026-04-19T08:17:41.992Z</time></trkpt><trkpt lat="42.79250441018489" lon="10.260490823774575"><ele>126.0</ele><time>2026-04-19T08:17:42.992Z</time></trkpt><trkpt lat="42.792576426957375" lon="10.260352469996693"><ele>124.0</ele><time>2026-04-19T08:17:43.992Z</time></trkpt><trkpt lat="42.792683094696365" lon="10.260259129355871"><ele>122.0</ele><time>2026-04-19T08:17:44.992Z</time></trkpt><trkpt lat="42.792797554229914" lon="10.260164625289237"><ele>120.0</ele><time>2026-04-19T08:17:45.992Z</time></trkpt><trkpt lat="42.79290623165622" lon="10.26007480278235"><ele>120.0</ele><time>2026-04-19T08:17:46.992Z</time></trkpt><trkpt lat="42.79302102372544" lon="10.259982667972347"><ele>120.0</ele><time>2026-04-19T08:17:47.992Z</time></trkpt><trkpt lat="42.793134796712486" lon="10.259891796504276"><ele>120.0</ele><time>2026-04-19T08:17:48.992Z</time></trkpt><trkpt lat="42.79324442271567" lon="10.259792447164624"><ele>120.0</ele><time>2026-04-19T08:17:49.992Z</time></trkpt><trkpt lat="42.79335007173942" lon="10.259701800413183"><ele>118.75</ele><time>2026-04-19T08:17:50.992Z</time></trkpt><trkpt lat="42.79345263198827" lon="10.25958815816914"><ele>117.5</ele><time>2026-04-19T08:17:51.992Z</time></trkpt><trkpt lat="42.793553985683275" lon="10.259457451775921"><ele>116.25</ele><time>2026-04-19T08:17:52.992Z</time></trkpt><trkpt lat="42.79364456656397" lon="10.259303568631497"><ele>115.0</ele><time>2026-04-19T08:17:53.992Z</time></trkpt><trkpt lat="42.79370320784845" lon="10.259126600177323"><ele>115.0</ele><time>2026-04-19T08:17:54.992Z</time></trkpt><trkpt lat="42.793751543645335" lon="10.25896586449002"><ele>115.0</ele><time>2026-04-19T08:17:55.992Z</time></trkpt><trkpt lat="42.79378556250634" lon="10.258813965575017"><ele>115.0</ele><time>2026-04-19T08:17:56.992Z</time></trkpt><trkpt lat="42.793766535521634" lon="10.258684680395827"><ele>115.0</ele><time>2026-04-19T08:17:57.992Z</time></trkpt><trkpt lat="42.79370976202549" lon="10.258570689544179"><ele>115.0</ele><time>2026-04-19T08:17:58.992Z</time></trkpt><trkpt lat="42.7936271427849" lon="10.258484669672654"><ele>115.75</ele><time>2026-04-19T08:17:59.992Z</time></trkpt><trkpt lat="42.79350746899241" lon="10.25843599948134"><ele>116.5</ele><time>2026-04-19T08:18:00.992Z</time></trkpt><trkpt lat="42.79338724127163" lon="10.258413754720973"><ele>117.25</ele><time>2026-04-19T08:18:01.992Z</time></trkpt><trkpt lat="42.79325090748217" lon="10.258386254694598"><ele>118.0</ele><time>2026-04-19T08:18:02.992Z</time></trkpt><trkpt lat="42.793096356103405" lon="10.258361564351508"><ele>118.0</ele><time>2026-04-19T08:18:03.992Z</time></trkpt><trkpt lat="42.79296272215666" lon="10.258330323707126"><ele>118.0</ele><time>2026-04-19T08:18:04.991Z</time></trkpt><trkpt lat="42.792830176019656" lon="10.25831018515625"><ele>118.0</ele><time>2026-04-19T08:18:05.991Z</time></trkpt><trkpt lat="42.79271273802289" lon="10.258288194042917"><ele>118.0</ele><time>2026-04-19T08:18:06.991Z</time></trkpt><trkpt lat="42.79259839881034" lon="10.258269451278448"><ele>118.25</ele><time>2026-04-19T08:18:07.991Z</time></trkpt><trkpt lat="42.79248322200497" lon="10.258243462387481"><ele>118.5</ele><time>2026-04-19T08:18:08.991Z</time></trkpt><trkpt lat="42.79238407693314" lon="10.258186990180223"><ele>118.75</ele><time>2026-04-19T08:18:09.991Z</time></trkpt><trkpt lat="42.79232271289412" lon="10.258062207041005"><ele>119.0</ele><time>2026-04-19T08:18:10.991Z</time></trkpt><trkpt lat="42.79223538785737" lon="10.257938923083998"><ele>113.5</ele><time>2026-04-19T08:18:11.991Z</time></trkpt><trkpt lat="42.79215827755665" lon="10.2578031618013"><ele>108.0</ele><time>2026-04-19T08:18:12.991Z</time></trkpt><trkpt lat="42.7920636856684" lon="10.257678644980386"><ele>102.5</ele><time>2026-04-19T08:18:13.991Z</time></trkpt><trkpt lat="42.79195829040162" lon="10.257561256982275"><ele>97.0</ele><time>2026-04-19T08:18:14.991Z</time></trkpt><trkpt lat="42.79184627217417" lon="10.25747439056552"><ele>97.8</ele><time>2026-04-19T08:18:15.991Z</time></trkpt><trkpt lat="42.791738715953734" lon="10.257408624521295"><ele>98.6</ele><time>2026-04-19T08:18:16.991Z</time></trkpt><trkpt lat="42.791637928239915" lon="10.257364249136312"><ele>99.39999999999999</ele><time>2026-04-19T08:18:17.991Z</time></trkpt><trkpt lat="42.791548206628136" lon="10.257365139159143"><ele>100.19999999999999</ele><time>2026-04-19T08:18:18.991Z</time></trkpt><trkpt lat="42.79146882578473" lon="10.25742829259951"><ele>101.0</ele><time>2026-04-19T08:18:19.991Z</time></trkpt><trkpt lat="42.79141607387438" lon="10.257530897987685"><ele>101.0</ele><time>2026-04-19T08:18:20.991Z</time></trkpt><trkpt lat="42.7913713757865" lon="10.257668844672699"><ele>101.0</ele><time>2026-04-19T08:18:21.991Z</time></trkpt><trkpt lat="42.7913405740196" lon="10.257833381286265"><ele>101.0</ele><time>2026-04-19T08:18:22.991Z</time></trkpt><trkpt lat="42.79132237819288" lon="10.258014551553163"><ele>101.0</ele><time>2026-04-19T08:18:23.991Z</time></trkpt><trkpt lat="42.791300159738604" lon="10.258195389340536"><ele>105.0</ele><time>2026-04-19T08:18:24.991Z</time></trkpt><trkpt lat="42.79128066894588" lon="10.258358122211286"><ele>109.0</ele><time>2026-04-19T08:18:25.991Z</time></trkpt><trkpt lat="42.79124674588513" lon="10.258505279451983"><ele>113.0</ele><time>2026-04-19T08:18:26.991Z</time></trkpt><trkpt lat="42.791191536796944" lon="10.258641181671571"><ele>117.0</ele><time>2026-04-19T08:18:27.991Z</time></trkpt><trkpt lat="42.79110897232218" lon="10.258745140602722"><ele>111.0</ele><time>2026-04-19T08:18:28.991Z</time></trkpt><trkpt lat="42.79099938933705" lon="10.258777363115621"><ele>104.99999999999999</ele><time>2026-04-19T08:18:29.991Z</time></trkpt><trkpt lat="42.79089563343716" lon="10.258770747576222"><ele>99.0</ele><time>2026-04-19T08:18:30.991Z</time></trkpt><trkpt lat="42.79077976016849" lon="10.25877440887219"><ele>93.0</ele><time>2026-04-19T08:18:31.991Z</time></trkpt><trkpt lat="42.79067741503969" lon="10.25880714485296"><ele>87.0</ele><time>2026-04-19T08:18:32.992Z</time></trkpt><trkpt lat="42.79058020835861" lon="10.258856253991425"><ele>91.75</ele><time>2026-04-19T08:18:33.992Z</time></trkpt><trkpt lat="42.79049822750368" lon="10.258961629787704"><ele>96.5</ele><time>2026-04-19T08:18:34.992Z</time></trkpt><trkpt lat="42.790448784544765" lon="10.25909958041155"><ele>101.25</ele><time>2026-04-19T08:18:35.992Z</time></trkpt><trkpt lat="42.790414257638105" lon="10.259262749176848"><ele>106.0</ele><time>2026-04-19T08:18:36.992Z</time></trkpt><trkpt lat="42.790383708886026" lon="10.259413111931933"><ele>106.00000000000001</ele><time>2026-04-19T08:18:37.992Z</time></trkpt><trkpt lat="42.79035152655961" lon="10.259532503266545"><ele>106.0</ele><time>2026-04-19T08:18:38.992Z</time></trkpt><trkpt lat="42.79029674696745" lon="10.259607518767769"><ele>106.0</ele><time>2026-04-19T08:18:39.992Z</time></trkpt><trkpt lat="42.79020264131944" lon="10.25960795219128"><ele>106.0</ele><time>2026-04-19T08:18:40.992Z</time></trkpt><trkpt lat="42.79013896195096" lon="10.25955564290543"><ele>106.00000000000001</ele><time>2026-04-19T08:18:41.992Z</time></trkpt><trkpt lat="42.790093643593345" lon="10.259436253882505"><ele>106.0</ele><time>2026-04-19T08:18:42.992Z</time></trkpt><trkpt lat="42.78999976319862" lon="10.259330947144703"><ele>100.0</ele><time>2026-04-19T08:18:43.992Z</time></trkpt><trkpt lat="42.78989329971848" lon="10.259245478050806"><ele>94.0</ele><time>2026-04-19T08:18:44.992Z</time></trkpt><trkpt lat="42.78976877618253" lon="10.259218462178021"><ele>88.0</ele><time>2026-04-19T08:18:45.992Z</time></trkpt><trkpt lat="42.78962418645626" lon="10.259283406968478"><ele>82.0</ele><time>2026-04-19T08:18:46.992Z</time></trkpt><trkpt lat="42.7894939194933" lon="10.259306181143884"><ele>82.0</ele><time>2026-04-19T08:18:47.992Z</time></trkpt><trkpt lat="42.78938177814832" lon="10.259316242346166"><ele>82.0</ele><time>2026-04-19T08:18:48.991Z</time></trkpt><trkpt lat="42.78927284296432" lon="10.259216759125351"><ele>82.0</ele><time>2026-04-19T08:18:49.991Z</time></trkpt><trkpt lat="42.78915786400797" lon="10.259184634209378"><ele>82.0</ele><time>2026-04-19T08:18:50.992Z</time></trkpt><trkpt lat="42.78904612263447" lon="10.259205188131228"><ele>80.25</ele><time>2026-04-19T08:18:51.992Z</time></trkpt><trkpt lat="42.788946078246845" lon="10.259247950590163"><ele>78.5</ele><time>2026-04-19T08:18:52.992Z</time></trkpt><trkpt lat="42.788869850954015" lon="10.259349795893936"><ele>76.75</ele><time>2026-04-19T08:18:53.992Z</time></trkpt><trkpt lat="42.78879824709422" lon="10.259479752781294"><ele>75.0</ele><time>2026-04-19T08:18:54.992Z</time></trkpt><trkpt lat="42.78871383104862" lon="10.259612573957293"><ele>75.0</ele><time>2026-04-19T08:18:55.992Z</time></trkpt><trkpt lat="42.78862607082635" lon="10.25976527063149"><ele>75.0</ele><time>2026-04-19T08:18:56.992Z</time></trkpt><trkpt lat="42.788539932817045" lon="10.259901701515629"><ele>75.0</ele><time>2026-04-19T08:18:57.992Z</time></trkpt><trkpt lat="42.78846403261815" lon="10.260047460594246"><ele>75.0</ele><time>2026-04-19T08:18:58.992Z</time></trkpt><trkpt lat="42.78838474471673" lon="10.260168559297243"><ele>75.0</ele><time>2026-04-19T08:18:59.992Z</time></trkpt><trkpt lat="42.788313009273615" lon="10.260272088585353"><ele>75.0</ele><time>2026-04-19T08:19:00.992Z</time></trkpt><trkpt lat="42.78824448957774" lon="10.26034999124243"><ele>75.0</ele><time>2026-04-19T08:19:01.992Z</time></trkpt><trkpt lat="42.788173445615136" lon="10.260396608866401"><ele>75.0</ele><time>2026-04-19T08:19:02.992Z</time></trkpt><trkpt lat="42.78809799302899" lon="10.260352755298507"><ele>75.0</ele><time>2026-04-19T08:19:03.992Z</time></trkpt><trkpt lat="42.78803029016972" lon="10.26026410134541"><ele>75.0</ele><time>2026-04-19T08:19:04.992Z</time></trkpt><trkpt lat="42.78799861259381" lon="10.260139831649585"><ele>75.0</ele><time>2026-04-19T08:19:05.992Z</time></trkpt><trkpt lat="42.78794786569356" lon="10.260013579984491"><ele>75.0</ele><time>2026-04-19T08:19:06.992Z</time></trkpt><trkpt lat="42.78788835741737" lon="10.259850279603866"><ele>75.0</ele><time>2026-04-19T08:19:07.992Z</time></trkpt><trkpt lat="42.787831513043905" lon="10.259706942017722"><ele>75.0</ele><time>2026-04-19T08:19:08.992Z</time></trkpt><trkpt lat="42.787764955513474" lon="10.259582346764944"><ele>70.75</ele><time>2026-04-19T08:19:09.992Z</time></trkpt><trkpt lat="42.78767153272241" lon="10.259487482688696"><ele>66.5</ele><time>2026-04-19T08:19:10.992Z</time></trkpt><trkpt lat="42.78755631055492" lon="10.259482379812878"><ele>62.25</ele><time>2026-04-19T08:19:11.992Z</time></trkpt><trkpt lat="42.787437141025336" lon="10.259493548783508"><ele>58.0</ele><time>2026-04-19T08:19:12.992Z</time></trkpt><trkpt lat="42.78731456425939" lon="10.259561118853386"><ele>58.0</ele><time>2026-04-19T08:19:13.992Z</time></trkpt><trkpt lat="42.78718608185711" lon="10.259632146673855"><ele>58.0</ele><time>2026-04-19T08:19:14.992Z</time></trkpt><trkpt lat="42.787062373583474" lon="10.259672118901642"><ele>58.0</ele><time>2026-04-19T08:19:15.992Z</time></trkpt><trkpt lat="42.78695171335837" lon="10.259717131798258"><ele>58.0</ele><time>2026-04-19T08:19:16.992Z</time></trkpt><trkpt lat="42.78687195797632" lon="10.259897189701087"><ele>58.599999999999994</ele><time>2026-04-19T08:19:17.992Z</time></trkpt><trkpt lat="42.78679570045425" lon="10.259981296431453"><ele>59.199999999999996</ele><time>2026-04-19T08:19:18.992Z</time></trkpt><trkpt lat="42.78671203507647" lon="10.259991128335512"><ele>59.8</ele><time>2026-04-19T08:19:19.992Z</time></trkpt><trkpt lat="42.78663478578225" lon="10.259948882003536"><ele>60.4</ele><time>2026-04-19T08:19:20.992Z</time></trkpt><trkpt lat="42.78657785533579" lon="10.259844348617523"><ele>61.0</ele><time>2026-04-19T08:19:21.992Z</time></trkpt><trkpt lat="42.78657275425065" lon="10.25971606082624"><ele>61.0</ele><time>2026-04-19T08:19:22.992Z</time></trkpt><trkpt lat="42.78655713421735" lon="10.25957292106687"><ele>61.0</ele><time>2026-04-19T08:19:23.992Z</time></trkpt><trkpt lat="42.78653523769231" lon="10.259401877445951"><ele>61.0</ele><time>2026-04-19T08:19:24.992Z</time></trkpt><trkpt lat="42.786527358074224" lon="10.25923917161921"><ele>61.0</ele><time>2026-04-19T08:19:25.992Z</time></trkpt><trkpt lat="42.78655327367363" lon="10.259095807052052"><ele>61.0</ele><time>2026-04-19T08:19:26.992Z</time></trkpt><trkpt lat="42.78661686881549" lon="10.258967101064849"><ele>61.0</ele><time>2026-04-19T08:19:27.992Z</time></trkpt><trkpt lat="42.786681759500645" lon="10.258820553619518"><ele>61.0</ele><time>2026-04-19T08:19:28.992Z</time></trkpt><trkpt lat="42.78675393011774" lon="10.258669936695682"><ele>61.0</ele><time>2026-04-19T08:19:29.992Z</time></trkpt><trkpt lat="42.78683149701879" lon="10.258505249060303"><ele>58.25</ele><time>2026-04-19T08:19:30.992Z</time></trkpt><trkpt lat="42.78690399385184" lon="10.258333374551643"><ele>55.5</ele><time>2026-04-19T08:19:31.992Z</time></trkpt><trkpt lat="42.78696790859936" lon="10.258156625236612"><ele>52.75</ele><time>2026-04-19T08:19:32.992Z</time></trkpt><trkpt lat="42.78702109000641" lon="10.257971274773878"><ele>50.0</ele><time>2026-04-19T08:19:33.992Z</time></trkpt><trkpt lat="42.78705700984366" lon="10.257789370648704"><ele>49.25</ele><time>2026-04-19T08:19:34.991Z</time></trkpt><trkpt lat="42.7871130929847" lon="10.257611431346763"><ele>48.5</ele><time>2026-04-19T08:19:35.991Z</time></trkpt><trkpt lat="42.78716405770299" lon="10.257437588601203"><ele>47.75</ele><time>2026-04-19T08:19:36.991Z</time></trkpt><trkpt lat="42.78719947569221" lon="10.257266093538663"><ele>47.0</ele><time>2026-04-19T08:19:37.991Z</time></trkpt><trkpt lat="42.78719799689781" lon="10.257070004230155"><ele>46.75</ele><time>2026-04-19T08:19:38.991Z</time></trkpt><trkpt lat="42.787187072934486" lon="10.256884980216896"><ele>46.5</ele><time>2026-04-19T08:19:39.991Z</time></trkpt><trkpt lat="42.78717297260298" lon="10.256709542294631"><ele>46.25</ele><time>2026-04-19T08:19:40.991Z</time></trkpt><trkpt lat="42.787165866340686" lon="10.256566961484792"><ele>46.0</ele><time>2026-04-19T08:19:41.991Z</time></trkpt><trkpt lat="42.787155714224696" lon="10.25641689979551"><ele>45.4</ele><time>2026-04-19T08:19:42.991Z</time></trkpt><trkpt lat="42.787162124328134" lon="10.25632875659584"><ele>44.8</ele><time>2026-04-19T08:19:43.991Z</time></trkpt><trkpt lat="42.78719249879028" lon="10.25621571519542"><ele>44.199999999999996</ele><time>2026-04-19T08:19:45.991Z</time></trkpt><trkpt lat="42.78725430506993" lon="10.256079114535291"><ele>43.599999999999994</ele><time>2026-04-19T08:19:47.991Z</time></trkpt><trkpt lat="42.7872762907772" lon="10.255960450580444"><ele>43.0</ele><time>2026-04-19T08:19:48.991Z</time></trkpt><trkpt lat="42.78729381301983" lon="10.255831596788992"><ele>43.0</ele><time>2026-04-19T08:19:49.991Z</time></trkpt><trkpt lat="42.787282686057104" lon="10.255711034942765"><ele>43.0</ele><time>2026-04-19T08:19:50.991Z</time></trkpt><trkpt lat="42.787231119254216" lon="10.255612339538423"><ele>43.0</ele><time>2026-04-19T08:19:51.991Z</time></trkpt><trkpt lat="42.78716173626261" lon="10.255539447339798"><ele>43.0</ele><time>2026-04-19T08:19:52.991Z</time></trkpt><trkpt lat="42.78706664088562" lon="10.255502681722895"><ele>43.0</ele><time>2026-04-19T08:19:53.991Z</time></trkpt><trkpt lat="42.786984461893944" lon="10.255524666754342"><ele>43.0</ele><time>2026-04-19T08:19:54.991Z</time></trkpt><trkpt lat="42.78690564846522" lon="10.255554421925124"><ele>42.0</ele><time>2026-04-19T08:19:55.991Z</time></trkpt><trkpt lat="42.7868290599392" lon="10.255464769757998"><ele>41.0</ele><time>2026-04-19T08:19:57.991Z</time></trkpt><trkpt lat="42.78680866339905" lon="10.255377431542664"><ele>40.0</ele><time>2026-04-19T08:19:58.991Z</time></trkpt><trkpt lat="42.786848638784775" lon="10.25528047015672"><ele>39.0</ele><time>2026-04-19T08:19:59.991Z</time></trkpt><trkpt lat="42.78689452490212" lon="10.255161529851959"><ele>38.0</ele><time>2026-04-19T08:20:00.991Z</time></trkpt><trkpt lat="42.78694581186767" lon="10.255028323754374"><ele>38.0</ele><time>2026-04-19T08:20:01.991Z</time></trkpt><trkpt lat="42.78700066882474" lon="10.254911945419938"><ele>38.0</ele><time>2026-04-19T08:20:02.991Z</time></trkpt><trkpt lat="42.787054011217805" lon="10.254790822975162"><ele>38.0</ele><time>2026-04-19T08:20:03.991Z</time></trkpt><trkpt lat="42.78711017466764" lon="10.25468607730813"><ele>38.0</ele><time>2026-04-19T08:20:04.991Z</time></trkpt><trkpt lat="42.78716848103334" lon="10.2545628409782"><ele>38.0</ele><time>2026-04-19T08:20:05.991Z</time></trkpt><trkpt lat="42.78723163156896" lon="10.254440047694674"><ele>38.0</ele><time>2026-04-19T08:20:06.991Z</time></trkpt><trkpt lat="42.78729426506394" lon="10.254324947358255"><ele>38.0</ele><time>2026-04-19T08:20:07.991Z</time></trkpt><trkpt lat="42.78735585651123" lon="10.254221609602473"><ele>38.0</ele><time>2026-04-19T08:20:08.991Z</time></trkpt><trkpt lat="42.78742329611882" lon="10.254104302245707"><ele>38.0</ele><time>2026-04-19T08:20:09.991Z</time></trkpt><trkpt lat="42.78751222434556" lon="10.254010345494374"><ele>38.0</ele><time>2026-04-19T08:20:10.991Z</time></trkpt><trkpt lat="42.78758569437706" lon="10.253907958595857"><ele>38.25</ele><time>2026-04-19T08:20:11.991Z</time></trkpt><trkpt lat="42.787672809998845" lon="10.253804267177296"><ele>38.5</ele><time>2026-04-19T08:20:12.991Z</time></trkpt><trkpt lat="42.78775451644868" lon="10.253724477099977"><ele>38.75</ele><time>2026-04-19T08:20:13.991Z</time></trkpt><trkpt lat="42.78784606985513" lon="10.253652787351104"><ele>39.0</ele><time>2026-04-19T08:20:14.991Z</time></trkpt><trkpt lat="42.787970840898424" lon="10.253601951909854"><ele>36.25</ele><time>2026-04-19T08:20:15.991Z</time></trkpt><trkpt lat="42.78808119252643" lon="10.253536532466097"><ele>33.5</ele><time>2026-04-19T08:20:16.991Z</time></trkpt><trkpt lat="42.788194127692" lon="10.253467500435463"><ele>30.75</ele><time>2026-04-19T08:20:17.991Z</time></trkpt><trkpt lat="42.78829426827851" lon="10.253391651290212"><ele>28.0</ele><time>2026-04-19T08:20:18.991Z</time></trkpt><trkpt lat="42.788394770031736" lon="10.253308014696062"><ele>28.0</ele><time>2026-04-19T08:20:19.991Z</time></trkpt><trkpt lat="42.78849301939587" lon="10.253229839682907"><ele>28.0</ele><time>2026-04-19T08:20:20.991Z</time></trkpt><trkpt lat="42.78859918963192" lon="10.253151617526287"><ele>28.0</ele><time>2026-04-19T08:20:21.991Z</time></trkpt><trkpt lat="42.78870060189884" lon="10.25306717357595"><ele>28.0</ele><time>2026-04-19T08:20:22.991Z</time></trkpt><trkpt lat="42.78879613116621" lon="10.252988800326353"><ele>26.75</ele><time>2026-04-19T08:20:23.991Z</time></trkpt><trkpt lat="42.78889091734423" lon="10.252909482818819"><ele>25.5</ele><time>2026-04-19T08:20:24.991Z</time></trkpt><trkpt lat="42.788970629932116" lon="10.252816503042782"><ele>24.25</ele><time>2026-04-19T08:20:25.991Z</time></trkpt><trkpt lat="42.78906360686095" lon="10.252706927711294"><ele>23.0</ele><time>2026-04-19T08:20:26.991Z</time></trkpt><trkpt lat="42.78915446986932" lon="10.252594145699096"><ele>23.0</ele><time>2026-04-19T08:20:27.991Z</time></trkpt><trkpt lat="42.78924598655957" lon="10.252476194441963"><ele>23.0</ele><time>2026-04-19T08:20:28.991Z</time></trkpt><trkpt lat="42.789326717955845" lon="10.252369897318232"><ele>23.0</ele><time>2026-04-19T08:20:29.991Z</time></trkpt><trkpt lat="42.7894113942882" lon="10.252265206127793"><ele>23.0</ele><time>2026-04-19T08:20:30.991Z</time></trkpt><trkpt lat="42.78948952338912" lon="10.252168574413208"><ele>22.0</ele><time>2026-04-19T08:20:31.991Z</time></trkpt><trkpt lat="42.789571271014076" lon="10.252072398169165"><ele>21.0</ele><time>2026-04-19T08:20:32.991Z</time></trkpt><trkpt lat="42.789653631332925" lon="10.251976127930533"><ele>20.0</ele><time>2026-04-19T08:20:33.991Z</time></trkpt><trkpt lat="42.789743216063165" lon="10.251873391614911"><ele>19.0</ele><time>2026-04-19T08:20:34.991Z</time></trkpt><trkpt lat="42.78982913754956" lon="10.25177473242004"><ele>18.0</ele><time>2026-04-19T08:20:35.991Z</time></trkpt><trkpt lat="42.789916562767" lon="10.251664203173798"><ele>18.0</ele><time>2026-04-19T08:20:36.991Z</time></trkpt><trkpt lat="42.790001637535774" lon="10.251561807638728"><ele>18.0</ele><time>2026-04-19T08:20:37.991Z</time></trkpt><trkpt lat="42.790084556110045" lon="10.251459416482664"><ele>18.0</ele><time>2026-04-19T08:20:38.991Z</time></trkpt><trkpt lat="42.79016066327264" lon="10.251372708651825"><ele>18.0</ele><time>2026-04-19T08:20:39.991Z</time></trkpt><trkpt lat="42.79023586145444" lon="10.251281960037906"><ele>18.0</ele><time>2026-04-19T08:20:40.992Z</time></trkpt><trkpt lat="42.79032174647844" lon="10.25118084859856"><ele>16.2</ele><time>2026-04-19T08:20:41.992Z</time></trkpt><trkpt lat="42.79039736760285" lon="10.251086596257304"><ele>14.4</ele><time>2026-04-19T08:20:42.992Z</time></trkpt><trkpt lat="42.790474451596246" lon="10.25098994589612"><ele>12.600000000000001</ele><time>2026-04-19T08:20:43.992Z</time></trkpt><trkpt lat="42.79055187452628" lon="10.25089527578284"><ele>10.8</ele><time>2026-04-19T08:20:44.992Z</time></trkpt><trkpt lat="42.79063656307517" lon="10.250820045534168"><ele>9.0</ele><time>2026-04-19T08:20:45.992Z</time></trkpt><trkpt lat="42.790702315289806" lon="10.250763242594457"><ele>9.0</ele><time>2026-04-19T08:20:46.991Z</time></trkpt><trkpt lat="42.790751188703" lon="10.250704852076048"><ele>9.0</ele><time>2026-04-19T08:20:47.991Z</time></trkpt><trkpt lat="42.7907790027319" lon="10.250555638847096"><ele>9.0</ele><time>2026-04-19T08:20:49.992Z</time></trkpt><trkpt lat="42.79077424645264" lon="10.250456288119963"><ele>9.0</ele><time>2026-04-19T08:20:50.992Z</time></trkpt><trkpt lat="42.790755090670636" lon="10.250333282179158"><ele>9.0</ele><time>2026-04-19T08:20:51.992Z</time></trkpt><trkpt lat="42.790745951209416" lon="10.250208828475163"><ele>9.0</ele><time>2026-04-19T08:20:52.992Z</time></trkpt><trkpt lat="42.790757676697254" lon="10.250080690255214"><ele>8.5</ele><time>2026-04-19T08:20:53.992Z</time></trkpt><trkpt lat="42.79074508457739" lon="10.249954108394634"><ele>8.0</ele><time>2026-04-19T08:20:54.991Z</time></trkpt><trkpt lat="42.79085807617271" lon="10.249818386451233"><ele>7.5</ele><time>2026-04-19T08:20:55.991Z</time></trkpt><trkpt lat="42.79092776515157" lon="10.249689637951043"><ele>7.0</ele><time>2026-04-19T08:20:56.991Z</time></trkpt><trkpt lat="42.790985241969295" lon="10.249568984415383"><ele>6.6</ele><time>2026-04-19T08:20:57.991Z</time></trkpt><trkpt lat="42.79103681336987" lon="10.2494577544678"><ele>6.199999999999999</ele><time>2026-04-19T08:20:58.991Z</time></trkpt><trkpt lat="42.79106332555533" lon="10.249345920953214"><ele>5.8</ele><time>2026-04-19T08:20:59.991Z</time></trkpt><trkpt lat="42.79105523739261" lon="10.249227752562819"><ele>5.4</ele><time>2026-04-19T08:21:00.991Z</time></trkpt><trkpt lat="42.791008105805176" lon="10.24911495779515"><ele>5.0</ele><time>2026-04-19T08:21:01.991Z</time></trkpt><trkpt lat="42.79094452401123" lon="10.249017159474741"><ele>4.333333333333334</ele><time>2026-04-19T08:21:02.991Z</time></trkpt><trkpt lat="42.790856562544946" lon="10.248949212826787"><ele>3.666666666666667</ele><time>2026-04-19T08:21:03.991Z</time></trkpt><trkpt lat="42.79077945941221" lon="10.248910363630316"><ele>3.0</ele><time>2026-04-19T08:21:04.991Z</time></trkpt><trkpt lat="42.7907067729546" lon="10.248852936025033"><ele>2.3333333333333335</ele><time>2026-04-19T08:21:05.991Z</time></trkpt><trkpt lat="42.79063917094412" lon="10.248778020807901"><ele>1.6666666666666665</ele><time>2026-04-19T08:21:06.991Z</time></trkpt><trkpt lat="42.79056112081849" lon="10.248725985387265"><ele>1.0</ele><time>2026-04-19T08:21:07.991Z</time></trkpt><trkpt lat="42.790479129424035" lon="10.248690570083678"><ele>0.9999999999999999</ele><time>2026-04-19T08:21:08.991Z</time></trkpt><trkpt lat="42.79041281346728" lon="10.248670879596295"><ele>1.0</ele><time>2026-04-19T08:21:09.991Z</time></trkpt><trkpt lat="42.79032327779127" lon="10.248641330518046"><ele>1.0</ele><time>2026-04-19T08:21:11.991Z</time></trkpt><trkpt lat="42.79024396532871" lon="10.248613636482908"><ele>1.0</ele><time>2026-04-19T08:21:14.991Z</time></trkpt><trkpt lat="42.79016453349325" lon="10.248562673306829"><ele>0.9999999999999999</ele><time>2026-04-19T08:23:50.991Z</time></trkpt><trkpt lat="42.790066144588074" lon="10.24854841038077"><ele>1.0</ele><time>2026-04-19T08:23:52.991Z</time></trkpt><trkpt lat="42.78998153934389" lon="10.248550128196557"><ele>1.5</ele><time>2026-04-19T08:23:54.991Z</time></trkpt><trkpt lat="42.78990113223095" lon="10.248676847866912"><ele>2.0</ele><time>2026-04-19T08:23:56.991Z</time></trkpt><trkpt lat="42.78984785235818" lon="10.248752177761542"><ele>2.5</ele><time>2026-04-19T08:23:57.991Z</time></trkpt><trkpt lat="42.78979418359094" lon="10.248822302283605"><ele>3.0</ele><time>2026-04-19T08:23:58.991Z</time></trkpt><trkpt lat="42.789732475981744" lon="10.248903567341738"><ele>3.4999999999999996</ele><time>2026-04-19T08:23:59.991Z</time></trkpt><trkpt lat="42.78967495964549" lon="10.248986855066285"><ele>4.0</ele><time>2026-04-19T08:24:00.991Z</time></trkpt><trkpt lat="42.789619742762376" lon="10.24907071392606"><ele>4.4</ele><time>2026-04-19T08:24:01.991Z</time></trkpt><trkpt lat="42.78955070563745" lon="10.249173003123285"><ele>4.800000000000001</ele><time>2026-04-19T08:24:02.991Z</time></trkpt><trkpt lat="42.789483660452746" lon="10.249286796076476"><ele>5.199999999999999</ele><time>2026-04-19T08:24:03.991Z</time></trkpt><trkpt lat="42.789412492287845" lon="10.249369773372548"><ele>5.6</ele><time>2026-04-19T08:24:04.991Z</time></trkpt><trkpt lat="42.78935962290436" lon="10.249433927904574"><ele>6.0</ele><time>2026-04-19T08:24:05.991Z</time></trkpt><trkpt lat="42.789267952770885" lon="10.24944703576886"><ele>6.0</ele><time>2026-04-19T08:24:07.991Z</time></trkpt><trkpt lat="42.789222055944236" lon="10.249339863600232"><ele>6.0</ele><time>2026-04-19T08:24:08.991Z</time></trkpt><trkpt lat="42.78914970992183" lon="10.249239738272953"><ele>6.0</ele><time>2026-04-19T08:24:09.991Z</time></trkpt><trkpt lat="42.78906285679177" lon="10.249127189846728"><ele>6.0</ele><time>2026-04-19T08:24:10.99Z</time></trkpt><trkpt lat="42.788981687108304" lon="10.249007396018722"><ele>6.0</ele><time>2026-04-19T08:24:11.99Z</time></trkpt><trkpt lat="42.78891254093225" lon="10.248915634912093"><ele>6.0</ele><time>2026-04-19T08:24:12.99Z</time></trkpt><trkpt lat="42.788853100375654" lon="10.248860367182681"><ele>6.0</ele><time>2026-04-19T08:24:13.99Z</time></trkpt><trkpt lat="42.78878196230146" lon="10.24884881821939"><ele>6.0</ele><time>2026-04-19T08:24:14.99Z</time></trkpt><trkpt lat="42.78872282752435" lon="10.248947501105215"><ele>6.0</ele><time>2026-04-19T08:24:15.99Z</time></trkpt><trkpt lat="42.78863375141063" lon="10.249023462115288"><ele>6.0</ele><time>2026-04-19T08:24:16.99Z</time></trkpt><trkpt lat="42.78855084068422" lon="10.249103599991471"><ele>6.0</ele><time>2026-04-19T08:24:17.99Z</time></trkpt><trkpt lat="42.78846652367646" lon="10.24914512123877"><ele>6.25</ele><time>2026-04-19T08:24:18.99Z</time></trkpt><trkpt lat="42.788367308026764" lon="10.249131689267786"><ele>6.5</ele><time>2026-04-19T08:24:19.99Z</time></trkpt><trkpt lat="42.78827180333797" lon="10.249044655842816"><ele>6.75</ele><time>2026-04-19T08:24:20.99Z</time></trkpt><trkpt lat="42.78818353744506" lon="10.248930053888186"><ele>7.0</ele><time>2026-04-19T08:24:21.99Z</time></trkpt><trkpt lat="42.78807782525237" lon="10.248831040768579"><ele>7.0</ele><time>2026-04-19T08:24:22.99Z</time></trkpt><trkpt lat="42.7879850077959" lon="10.248687126757611"><ele>7.0</ele><time>2026-04-19T08:24:23.99Z</time></trkpt><trkpt lat="42.78787750370253" lon="10.24855850403558"><ele>7.0</ele><time>2026-04-19T08:24:24.99Z</time></trkpt><trkpt lat="42.78779488836725" lon="10.248402900411987"><ele>7.0</ele><time>2026-04-19T08:24:25.99Z</time></trkpt><trkpt lat="42.787733308396305" lon="10.248260865072954"><ele>7.0</ele><time>2026-04-19T08:24:26.99Z</time></trkpt><trkpt lat="42.787675633405016" lon="10.24812469791435"><ele>6.999999999999999</ele><time>2026-04-19T08:24:27.99Z</time></trkpt><trkpt lat="42.787645294991286" lon="10.247991446594513"><ele>6.999999999999999</ele><time>2026-04-19T08:24:28.99Z</time></trkpt><trkpt lat="42.78763610632347" lon="10.247872492273508"><ele>7.0</ele><time>2026-04-19T08:24:29.99Z</time></trkpt><trkpt lat="42.787648777904316" lon="10.247772417397385"><ele>7.0</ele><time>2026-04-19T08:24:30.99Z</time></trkpt><trkpt lat="42.787693634842455" lon="10.247696123585484"><ele>7.0</ele><time>2026-04-19T08:24:31.99Z</time></trkpt><trkpt lat="42.787735615963506" lon="10.247591458735315"><ele>6.999999999999999</ele><time>2026-04-19T08:24:32.99Z</time></trkpt><trkpt lat="42.78776621694895" lon="10.247485989639973"><ele>6.999999999999999</ele><time>2026-04-19T08:24:33.99Z</time></trkpt><trkpt lat="42.787792929973804" lon="10.24733825498154"><ele>7.0</ele><time>2026-04-19T08:24:34.99Z</time></trkpt><trkpt lat="42.787785571371685" lon="10.247178639918662"><ele>7.0</ele><time>2026-04-19T08:24:35.99Z</time></trkpt><trkpt lat="42.78778110480341" lon="10.247015024914472"><ele>7.199999999999999</ele><time>2026-04-19T08:24:36.99Z</time></trkpt><trkpt lat="42.78777640530183" lon="10.246842877274684"><ele>7.3999999999999995</ele><time>2026-04-19T08:24:37.99Z</time></trkpt><trkpt lat="42.78777226395509" lon="10.246691176455457"><ele>7.6000000000000005</ele><time>2026-04-19T08:24:38.99Z</time></trkpt><trkpt lat="42.787766226352936" lon="10.24657961603772"><ele>7.800000000000001</ele><time>2026-04-19T08:24:39.99Z</time></trkpt><trkpt lat="42.78774568872268" lon="10.24646266722476"><ele>8.0</ele><time>2026-04-19T08:24:46.99Z</time></trkpt><trkpt lat="42.78770389914921" lon="10.246270322783559"><ele>9.600000000000001</ele><time>2026-04-19T08:24:48.99Z</time></trkpt><trkpt lat="42.78765639141005" lon="10.246141863289559"><ele>11.200000000000001</ele><time>2026-04-19T08:24:49.99Z</time></trkpt><trkpt lat="42.78758894395064" lon="10.246037972633903"><ele>12.8</ele><time>2026-04-19T08:24:50.992Z</time></trkpt><trkpt lat="42.78750322498841" lon="10.245951752922279"><ele>14.4</ele><time>2026-04-19T08:24:51.992Z</time></trkpt><trkpt lat="42.787388298854424" lon="10.245889744955944"><ele>16.0</ele><time>2026-04-19T08:24:52.991Z</time></trkpt><trkpt lat="42.787261536200106" lon="10.24584654975228"><ele>16.0</ele><time>2026-04-19T08:24:53.991Z</time></trkpt><trkpt lat="42.78715595320807" lon="10.245829774249513"><ele>16.0</ele><time>2026-04-19T08:24:54.991Z</time></trkpt><trkpt lat="42.78706019868254" lon="10.245811325353799"><ele>16.0</ele><time>2026-04-19T08:24:55.991Z</time></trkpt><trkpt lat="42.78696302983587" lon="10.245781098154861"><ele>16.0</ele><time>2026-04-19T08:24:56.99Z</time></trkpt><trkpt lat="42.7868716656694" lon="10.245749449584817"><ele>16.0</ele><time>2026-04-19T08:24:57.99Z</time></trkpt><trkpt lat="42.78676080261691" lon="10.245718969195746"><ele>15.600000000000001</ele><time>2026-04-19T08:24:58.991Z</time></trkpt><trkpt lat="42.78665134815135" lon="10.2456955717114"><ele>15.200000000000001</ele><time>2026-04-19T08:24:59.991Z</time></trkpt><trkpt lat="42.78654599237706" lon="10.245671759128099"><ele>14.799999999999999</ele><time>2026-04-19T08:25:00.991Z</time></trkpt><trkpt lat="42.786445489330255" lon="10.245647896289798"><ele>14.399999999999999</ele><time>2026-04-19T08:25:01.991Z</time></trkpt><trkpt lat="42.786351853472475" lon="10.24564019032351"><ele>14.0</ele><time>2026-04-19T08:25:02.991Z</time></trkpt><trkpt lat="42.786256072895114" lon="10.245643167569458"><ele>14.0</ele><time>2026-04-19T08:25:03.991Z</time></trkpt><trkpt lat="42.786164021429165" lon="10.245634766610475"><ele>13.999999999999998</ele><time>2026-04-19T08:25:04.991Z</time></trkpt><trkpt lat="42.786100318805595" lon="10.245595373558505"><ele>13.999999999999998</ele><time>2026-04-19T08:25:05.991Z</time></trkpt><trkpt lat="42.78604885595931" lon="10.245520982400071"><ele>14.0</ele><time>2026-04-19T08:25:06.991Z</time></trkpt><trkpt lat="42.78603715239818" lon="10.245416497429398"><ele>14.0</ele><time>2026-04-19T08:25:07.991Z</time></trkpt><trkpt lat="42.78602699952519" lon="10.245224980381245"><ele>12.833333333333334</ele><time>2026-04-19T08:25:09.991Z</time></trkpt><trkpt lat="42.78602225503118" lon="10.245111817320279"><ele>11.666666666666668</ele><time>2026-04-19T08:25:10.991Z</time></trkpt><trkpt lat="42.78601766427388" lon="10.245014984368263"><ele>10.5</ele><time>2026-04-19T08:25:11.991Z</time></trkpt><trkpt lat="42.78599630636987" lon="10.244908842266073"><ele>9.333333333333334</ele><time>2026-04-19T08:25:12.991Z</time></trkpt><trkpt lat="42.785996447106406" lon="10.24478383053996"><ele>8.166666666666668</ele><time>2026-04-19T08:25:13.991Z</time></trkpt><trkpt lat="42.78598533602486" lon="10.24465766329242"><ele>7.0</ele><time>2026-04-19T08:25:14.991Z</time></trkpt><trkpt lat="42.78599504911045" lon="10.244538875846171"><ele>6.3999999999999995</ele><time>2026-04-19T08:25:15.991Z</time></trkpt><trkpt lat="42.785975076451045" lon="10.24444693355878"><ele>5.799999999999999</ele><time>2026-04-19T08:25:16.991Z</time></trkpt><trkpt lat="42.78598421968669" lon="10.24430020318856"><ele>5.2</ele><time>2026-04-19T08:25:18.991Z</time></trkpt><trkpt lat="42.78585775893657" lon="10.24427257823999"><ele>4.6</ele><time>2026-04-19T08:25:20.991Z</time></trkpt><trkpt lat="42.7857852508142" lon="10.244330089262618"><ele>4.0</ele><time>2026-04-19T08:25:22.991Z</time></trkpt><trkpt lat="42.78571324676162" lon="10.244437567396846"><ele>4.0</ele><time>2026-04-19T08:25:24.991Z</time></trkpt><trkpt lat="42.78565813278137" lon="10.24452144513467"><ele>4.0</ele><time>2026-04-19T08:25:25.991Z</time></trkpt><trkpt lat="42.78559927311825" lon="10.244599682046603"><ele>4.0</ele><time>2026-04-19T08:25:26.991Z</time></trkpt><trkpt lat="42.78553223092265" lon="10.244694293159899"><ele>4.0</ele><time>2026-04-19T08:25:27.991Z</time></trkpt><trkpt lat="42.78545378222126" lon="10.244796681567776"><ele>4.0</ele><time>2026-04-19T08:25:28.991Z</time></trkpt><trkpt lat="42.785384018659244" lon="10.24489446867051"><ele>4.2</ele><time>2026-04-19T08:25:29.991Z</time></trkpt><trkpt lat="42.78531666080183" lon="10.245004480436252"><ele>4.4</ele><time>2026-04-19T08:25:30.991Z</time></trkpt><trkpt lat="42.78525725593663" lon="10.245110063819615"><ele>4.6</ele><time>2026-04-19T08:25:31.991Z</time></trkpt><trkpt lat="42.785208711048234" lon="10.245226400721565"><ele>4.8</ele><time>2026-04-19T08:25:32.991Z</time></trkpt><trkpt lat="42.785187696900245" lon="10.245344736537794"><ele>5.0</ele><time>2026-04-19T08:25:33.991Z</time></trkpt><trkpt lat="42.785186353332506" lon="10.245460482722617"><ele>5.5</ele><time>2026-04-19T08:25:34.991Z</time></trkpt><trkpt lat="42.78516002278357" lon="10.245562879181499"><ele>6.0</ele><time>2026-04-19T08:25:35.991Z</time></trkpt><trkpt lat="42.78511815374642" lon="10.245646770507554"><ele>6.5</ele><time>2026-04-19T08:25:36.991Z</time></trkpt><trkpt lat="42.78505990383772" lon="10.245684824914674"><ele>7.0</ele><time>2026-04-19T08:25:37.991Z</time></trkpt><trkpt lat="42.78493062702185" lon="10.245633229983746"><ele>7.499999999999999</ele><time>2026-04-19T08:25:39.991Z</time></trkpt><trkpt lat="42.78485552497296" lon="10.245622265828015"><ele>8.0</ele><time>2026-04-19T08:25:40.991Z</time></trkpt><trkpt lat="42.784782607464244" lon="10.245611178517226"><ele>8.0</ele><time>2026-04-19T08:25:41.991Z</time></trkpt><trkpt lat="42.78467365999113" lon="10.245594241529444"><ele>8.0</ele><time>2026-04-19T08:25:42.991Z</time></trkpt><trkpt lat="42.784541069527485" lon="10.245569645262735"><ele>8.0</ele><time>2026-04-19T08:25:43.991Z</time></trkpt><trkpt lat="42.784401666773746" lon="10.245561549488345"><ele>8.0</ele><time>2026-04-19T08:25:44.991Z</time></trkpt><trkpt lat="42.784250030088565" lon="10.245523774000924"><ele>8.5</ele><time>2026-04-19T08:25:45.991Z</time></trkpt><trkpt lat="42.78412051180057" lon="10.24549290455608"><ele>9.0</ele><time>2026-04-19T08:25:46.991Z</time></trkpt><trkpt lat="42.7839858094352" lon="10.245449300675183"><ele>9.5</ele><time>2026-04-19T08:25:47.991Z</time></trkpt><trkpt lat="42.78386193646077" lon="10.245414645374218"><ele>10.0</ele><time>2026-04-19T08:25:48.991Z</time></trkpt><trkpt lat="42.783744483364735" lon="10.245387588181156"><ele>10.0</ele><time>2026-04-19T08:25:49.99Z</time></trkpt><trkpt lat="42.783626056442195" lon="10.245360409297003"><ele>10.0</ele><time>2026-04-19T08:25:50.99Z</time></trkpt><trkpt lat="42.78350732508274" lon="10.245325838393383"><ele>10.0</ele><time>2026-04-19T08:25:51.99Z</time></trkpt><trkpt lat="42.783386026912275" lon="10.245274454874108"><ele>10.0</ele><time>2026-04-19T08:25:52.99Z</time></trkpt><trkpt lat="42.783264414252926" lon="10.245233964320574"><ele>11.0</ele><time>2026-04-19T08:25:53.99Z</time></trkpt><trkpt lat="42.783140639891414" lon="10.24516236185264"><ele>12.0</ele><time>2026-04-19T08:25:54.99Z</time></trkpt><trkpt lat="42.78302329777086" lon="10.245076452934894"><ele>13.0</ele><time>2026-04-19T08:25:55.99Z</time></trkpt><trkpt lat="42.782889927895305" lon="10.244995473856676"><ele>14.0</ele><time>2026-04-19T08:25:56.99Z</time></trkpt><trkpt lat="42.78275171005584" lon="10.244907831964934"><ele>16.5</ele><time>2026-04-19T08:25:57.99Z</time></trkpt><trkpt lat="42.782620090861414" lon="10.244850345253573"><ele>19.0</ele><time>2026-04-19T08:25:58.99Z</time></trkpt><trkpt lat="42.782474900380485" lon="10.24481732766377"><ele>21.5</ele><time>2026-04-19T08:25:59.99Z</time></trkpt><trkpt lat="42.782317596699244" lon="10.244811655628459"><ele>24.0</ele><time>2026-04-19T08:26:00.99Z</time></trkpt><trkpt lat="42.78216380100924" lon="10.244823762780713"><ele>24.0</ele><time>2026-04-19T08:26:01.99Z</time></trkpt><trkpt lat="42.782009878730186" lon="10.244855633533414"><ele>24.0</ele><time>2026-04-19T08:26:02.99Z</time></trkpt><trkpt lat="42.78185568913745" lon="10.244896089227797"><ele>24.0</ele><time>2026-04-19T08:26:03.99Z</time></trkpt><trkpt lat="42.78171165023873" lon="10.244940966523789"><ele>25.75</ele><time>2026-04-19T08:26:04.99Z</time></trkpt><trkpt lat="42.78157285979934" lon="10.244983625680028"><ele>27.5</ele><time>2026-04-19T08:26:05.99Z</time></trkpt><trkpt lat="42.781429506957515" lon="10.245027462580591"><ele>29.25</ele><time>2026-04-19T08:26:06.99Z</time></trkpt><trkpt lat="42.78127698062289" lon="10.245078536896077"><ele>31.0</ele><time>2026-04-19T08:26:07.99Z</time></trkpt><trkpt lat="42.78113354141231" lon="10.245127623203649"><ele>32.5</ele><time>2026-04-19T08:26:08.99Z</time></trkpt><trkpt lat="42.78098596235083" lon="10.24517529649615"><ele>34.0</ele><time>2026-04-19T08:26:09.99Z</time></trkpt><trkpt lat="42.78085119929371" lon="10.24523375385065"><ele>35.5</ele><time>2026-04-19T08:26:10.99Z</time></trkpt><trkpt lat="42.78071178786684" lon="10.24531151359846"><ele>37.0</ele><time>2026-04-19T08:26:11.99Z</time></trkpt><trkpt lat="42.78056684500442" lon="10.245376396797699"><ele>37.0</ele><time>2026-04-19T08:26:12.99Z</time></trkpt><trkpt lat="42.780419647554176" lon="10.245446025398127"><ele>37.0</ele><time>2026-04-19T08:26:13.99Z</time></trkpt><trkpt lat="42.78027542369087" lon="10.245509132168488"><ele>37.0</ele><time>2026-04-19T08:26:14.99Z</time></trkpt><trkpt lat="42.78013922883372" lon="10.245569900945974"><ele>39.75</ele><time>2026-04-19T08:26:15.99Z</time></trkpt><trkpt lat="42.779995627480744" lon="10.245628935156011"><ele>42.5</ele><time>2026-04-19T08:26:16.99Z</time></trkpt><trkpt lat="42.77985621847731" lon="10.245681715318307"><ele>45.25</ele><time>2026-04-19T08:26:17.99Z</time></trkpt><trkpt lat="42.779712674921576" lon="10.245747687767084"><ele>48.0</ele><time>2026-04-19T08:26:18.99Z</time></trkpt><trkpt lat="42.779569115601596" lon="10.24582183338069"><ele>48.0</ele><time>2026-04-19T08:26:19.99Z</time></trkpt><trkpt lat="42.77942492212273" lon="10.245903134147346"><ele>48.0</ele><time>2026-04-19T08:26:20.99Z</time></trkpt><trkpt lat="42.77930228528118" lon="10.245999370809098"><ele>48.0</ele><time>2026-04-19T08:26:21.99Z</time></trkpt><trkpt lat="42.779176708571455" lon="10.246113201869909"><ele>48.0</ele><time>2026-04-19T08:26:22.99Z</time></trkpt><trkpt lat="42.7790535581579" lon="10.246218160742139"><ele>48.25</ele><time>2026-04-19T08:26:23.99Z</time></trkpt><trkpt lat="42.77893037484767" lon="10.246314783420871"><ele>48.5</ele><time>2026-04-19T08:26:24.99Z</time></trkpt><trkpt lat="42.77879933813805" lon="10.246404763402955"><ele>48.75</ele><time>2026-04-19T08:26:25.99Z</time></trkpt><trkpt lat="42.77865307705957" lon="10.246465773443958"><ele>49.0</ele><time>2026-04-19T08:26:26.99Z</time></trkpt><trkpt lat="42.778514314423326" lon="10.246498048265817"><ele>49.0</ele><time>2026-04-19T08:26:27.99Z</time></trkpt><trkpt lat="42.77838461965261" lon="10.246484977823195"><ele>49.0</ele><time>2026-04-19T08:26:28.99Z</time></trkpt><trkpt lat="42.77824829383038" lon="10.246491465943228"><ele>49.0</ele><time>2026-04-19T08:26:29.99Z</time></trkpt><trkpt lat="42.77809939889961" lon="10.246484882383914"><ele>49.0</ele><time>2026-04-19T08:26:30.99Z</time></trkpt><trkpt lat="42.777956460018494" lon="10.246460692839936"><ele>50.0</ele><time>2026-04-19T08:26:31.99Z</time></trkpt><trkpt lat="42.7778064829623" lon="10.246397374266882"><ele>51.0</ele><time>2026-04-19T08:26:32.99Z</time></trkpt><trkpt lat="42.77765111821514" lon="10.246326903069638"><ele>52.0</ele><time>2026-04-19T08:26:33.99Z</time></trkpt><trkpt lat="42.777485632490325" lon="10.246252415122413"><ele>52.0</ele><time>2026-04-19T08:26:34.99Z</time></trkpt><trkpt lat="42.777332275622406" lon="10.246177497316937"><ele>52.0</ele><time>2026-04-19T08:26:35.99Z</time></trkpt><trkpt lat="42.777188140664805" lon="10.246098540627369"><ele>52.0</ele><time>2026-04-19T08:26:36.99Z</time></trkpt><trkpt lat="42.77704332175995" lon="10.246005096776345"><ele>52.0</ele><time>2026-04-19T08:26:37.99Z</time></trkpt><trkpt lat="42.776914869403676" lon="10.245891762466727"><ele>52.0</ele><time>2026-04-19T08:26:38.99Z</time></trkpt><trkpt lat="42.77679831687532" lon="10.245763741483207"><ele>52.0</ele><time>2026-04-19T08:26:39.99Z</time></trkpt><trkpt lat="42.77668183892566" lon="10.245625346830412"><ele>51.0</ele><time>2026-04-19T08:26:40.99Z</time></trkpt><trkpt lat="42.77656867707447" lon="10.24548857918604"><ele>50.0</ele><time>2026-04-19T08:26:41.99Z</time></trkpt><trkpt lat="42.77644991232018" lon="10.245341989200035"><ele>49.0</ele><time>2026-04-19T08:26:42.99Z</time></trkpt><trkpt lat="42.776320963470866" lon="10.245214715080081"><ele>49.0</ele><time>2026-04-19T08:26:43.99Z</time></trkpt><trkpt lat="42.77620658428418" lon="10.245068002705342"><ele>49.0</ele><time>2026-04-19T08:26:44.99Z</time></trkpt><trkpt lat="42.77608277425019" lon="10.244922146197183"><ele>49.0</ele><time>2026-04-19T08:26:45.99Z</time></trkpt><trkpt lat="42.775952392190625" lon="10.24477363640132"><ele>44.666666666666664</ele><time>2026-04-19T08:26:46.99Z</time></trkpt><trkpt lat="42.77582865033274" lon="10.244627168266566"><ele>40.33333333333333</ele><time>2026-04-19T08:26:47.99Z</time></trkpt><trkpt lat="42.7756917642763" lon="10.244485353103752"><ele>36.0</ele><time>2026-04-19T08:26:48.99Z</time></trkpt><trkpt lat="42.77555450329214" lon="10.244375668260806"><ele>36.0</ele><time>2026-04-19T08:26:49.99Z</time></trkpt><trkpt lat="42.77542295383744" lon="10.244258607887014"><ele>36.0</ele><time>2026-04-19T08:26:50.99Z</time></trkpt><trkpt lat="42.77528864430063" lon="10.244147318177433"><ele>36.0</ele><time>2026-04-19T08:26:51.99Z</time></trkpt><trkpt lat="42.77515910928194" lon="10.2440335056581"><ele>33.666666666666664</ele><time>2026-04-19T08:26:52.99Z</time></trkpt><trkpt lat="42.775023477567224" lon="10.243924134759032"><ele>31.333333333333332</ele><time>2026-04-19T08:26:53.99Z</time></trkpt><trkpt lat="42.77489650715898" lon="10.243816277264704"><ele>29.0</ele><time>2026-04-19T08:26:54.99Z</time></trkpt><trkpt lat="42.77477509017199" lon="10.243701129466206"><ele>29.0</ele><time>2026-04-19T08:26:55.99Z</time></trkpt><trkpt lat="42.774659176904215" lon="10.243598814881786"><ele>29.0</ele><time>2026-04-19T08:26:56.99Z</time></trkpt><trkpt lat="42.77455427507361" lon="10.24349555299043"><ele>29.0</ele><time>2026-04-19T08:26:57.99Z</time></trkpt><trkpt lat="42.774433680853186" lon="10.243387127885653"><ele>29.0</ele><time>2026-04-19T08:26:58.99Z</time></trkpt><trkpt lat="42.77431496729604" lon="10.243274934559052"><ele>27.5</ele><time>2026-04-19T08:26:59.99Z</time></trkpt><trkpt lat="42.774203668006784" lon="10.243158842735777"><ele>26.0</ele><time>2026-04-19T08:27:00.99Z</time></trkpt><trkpt lat="42.77409615549472" lon="10.243037272581603"><ele>24.5</ele><time>2026-04-19T08:27:01.99Z</time></trkpt><trkpt lat="42.773993351767466" lon="10.242915589557306"><ele>23.0</ele><time>2026-04-19T08:27:02.99Z</time></trkpt><trkpt lat="42.77390738949909" lon="10.242803084671992"><ele>22.75</ele><time>2026-04-19T08:27:03.99Z</time></trkpt><trkpt lat="42.77380649967005" lon="10.242685159831561"><ele>22.5</ele><time>2026-04-19T08:27:04.99Z</time></trkpt><trkpt lat="42.773718385176515" lon="10.242576693743253"><ele>22.25</ele><time>2026-04-19T08:27:05.99Z</time></trkpt><trkpt lat="42.773632727621035" lon="10.242464770995396"><ele>22.0</ele><time>2026-04-19T08:27:06.991Z</time></trkpt><trkpt lat="42.77356783091882" lon="10.242354755082655"><ele>21.25</ele><time>2026-04-19T08:27:07.991Z</time></trkpt><trkpt lat="42.77349858036089" lon="10.242217468954737"><ele>20.5</ele><time>2026-04-19T08:27:08.991Z</time></trkpt><trkpt lat="42.77343960687151" lon="10.24208066410498"><ele>19.75</ele><time>2026-04-19T08:27:09.991Z</time></trkpt><trkpt lat="42.77339845540307" lon="10.24193767622747"><ele>19.0</ele><time>2026-04-19T08:27:10.99Z</time></trkpt><trkpt lat="42.77336213698677" lon="10.241784439507645"><ele>19.0</ele><time>2026-04-19T08:27:11.99Z</time></trkpt><trkpt lat="42.773336365373595" lon="10.241642089200443"><ele>19.0</ele><time>2026-04-19T08:27:12.99Z</time></trkpt><trkpt lat="42.77330495745787" lon="10.241484527935299"><ele>19.0</ele><time>2026-04-19T08:27:13.99Z</time></trkpt><trkpt lat="42.77327289299146" lon="10.241327158559788"><ele>19.0</ele><time>2026-04-19T08:27:14.991Z</time></trkpt><trkpt lat="42.77323348945453" lon="10.241157484624868"><ele>19.0</ele><time>2026-04-19T08:27:15.991Z</time></trkpt><trkpt lat="42.77319370432958" lon="10.240995950913748"><ele>19.0</ele><time>2026-04-19T08:27:16.991Z</time></trkpt><trkpt lat="42.773138030218085" lon="10.240839122428321"><ele>19.0</ele><time>2026-04-19T08:27:17.991Z</time></trkpt><trkpt lat="42.77306851238989" lon="10.240685245447056"><ele>19.0</ele><time>2026-04-19T08:27:18.991Z</time></trkpt><trkpt lat="42.772979916256" lon="10.240544314135525"><ele>19.0</ele><time>2026-04-19T08:27:19.991Z</time></trkpt><trkpt lat="42.772908996318854" lon="10.240411340658232"><ele>19.0</ele><time>2026-04-19T08:27:20.991Z</time></trkpt><trkpt lat="42.77283641529572" lon="10.240290045797133"><ele>19.0</ele><time>2026-04-19T08:27:21.991Z</time></trkpt><trkpt lat="42.77276155748463" lon="10.240167533770938"><ele>19.0</ele><time>2026-04-19T08:27:22.991Z</time></trkpt><trkpt lat="42.77268652496853" lon="10.240043148094452"><ele>19.0</ele><time>2026-04-19T08:27:23.991Z</time></trkpt><trkpt lat="42.7726136845071" lon="10.239908823242894"><ele>19.0</ele><time>2026-04-19T08:27:24.991Z</time></trkpt><trkpt lat="42.77253682091786" lon="10.239776965546579"><ele>19.0</ele><time>2026-04-19T08:27:25.991Z</time></trkpt><trkpt lat="42.772474722739254" lon="10.239661101627059"><ele>19.0</ele><time>2026-04-19T08:27:26.991Z</time></trkpt><trkpt lat="42.772415543772205" lon="10.239556139516324"><ele>19.0</ele><time>2026-04-19T08:27:27.991Z</time></trkpt><trkpt lat="42.77235719355944" lon="10.239443400668115"><ele>19.0</ele><time>2026-04-19T08:27:28.991Z</time></trkpt><trkpt lat="42.77228826264815" lon="10.239331489368313"><ele>19.0</ele><time>2026-04-19T08:27:29.99Z</time></trkpt><trkpt lat="42.772214501719894" lon="10.239214409546017"><ele>19.0</ele><time>2026-04-19T08:27:30.99Z</time></trkpt><trkpt lat="42.77213101307921" lon="10.239109504780146"><ele>19.0</ele><time>2026-04-19T08:27:31.99Z</time></trkpt><trkpt lat="42.772044715551075" lon="10.239004493430143"><ele>19.5</ele><time>2026-04-19T08:27:32.99Z</time></trkpt><trkpt lat="42.7719548085072" lon="10.238904781598613"><ele>20.0</ele><time>2026-04-19T08:27:33.99Z</time></trkpt><trkpt lat="42.77185769488901" lon="10.238810139576737"><ele>20.5</ele><time>2026-04-19T08:27:34.99Z</time></trkpt><trkpt lat="42.77175999018511" lon="10.238729181641409"><ele>21.0</ele><time>2026-04-19T08:27:35.99Z</time></trkpt><trkpt lat="42.77166715271236" lon="10.2386525632609"><ele>20.2</ele><time>2026-04-19T08:27:36.99Z</time></trkpt><trkpt lat="42.77157418870543" lon="10.238578928986048"><ele>19.400000000000002</ele><time>2026-04-19T08:27:37.99Z</time></trkpt><trkpt lat="42.771479434190304" lon="10.238508997867864"><ele>18.6</ele><time>2026-04-19T08:27:38.99Z</time></trkpt><trkpt lat="42.77137482473944" lon="10.238468199366146"><ele>17.8</ele><time>2026-04-19T08:27:39.99Z</time></trkpt><trkpt lat="42.771270117912124" lon="10.238448464984254"><ele>17.0</ele><time>2026-04-19T08:27:40.99Z</time></trkpt><trkpt lat="42.771160627260144" lon="10.238438544251604"><ele>17.0</ele><time>2026-04-19T08:27:41.99Z</time></trkpt><trkpt lat="42.7710536185625" lon="10.23843502105242"><ele>17.0</ele><time>2026-04-19T08:27:42.99Z</time></trkpt><trkpt lat="42.77094957889049" lon="10.23843536919471"><ele>17.0</ele><time>2026-04-19T08:27:43.99Z</time></trkpt><trkpt lat="42.77084680797992" lon="10.2383958399424"><ele>17.0</ele><time>2026-04-19T08:27:44.99Z</time></trkpt><trkpt lat="42.77074117596841" lon="10.238473656044283"><ele>17.0</ele><time>2026-04-19T08:27:45.99Z</time></trkpt><trkpt lat="42.77063163764719" lon="10.23849275135588"><ele>16.4</ele><time>2026-04-19T08:27:46.99Z</time></trkpt><trkpt lat="42.77053200047002" lon="10.238502245486776"><ele>15.799999999999999</ele><time>2026-04-19T08:27:47.99Z</time></trkpt><trkpt lat="42.77043046317121" lon="10.238508826130925"><ele>15.2</ele><time>2026-04-19T08:27:48.99Z</time></trkpt><trkpt lat="42.77032942545291" lon="10.23849328702894"><ele>14.6</ele><time>2026-04-19T08:27:49.99Z</time></trkpt><trkpt lat="42.77024195449034" lon="10.238467156115306"><ele>14.0</ele><time>2026-04-19T08:27:50.99Z</time></trkpt><trkpt lat="42.770155778179706" lon="10.23848166397206"><ele>13.833333333333334</ele><time>2026-04-19T08:27:51.99Z</time></trkpt><trkpt lat="42.77008036844481" lon="10.238575493680326"><ele>13.666666666666668</ele><time>2026-04-19T08:27:52.99Z</time></trkpt><trkpt lat="42.770010574124804" lon="10.238572999913709"><ele>13.5</ele><time>2026-04-19T08:27:53.99Z</time></trkpt><trkpt lat="42.769934459521856" lon="10.238611150177716"><ele>13.333333333333332</ele><time>2026-04-19T08:27:54.99Z</time></trkpt><trkpt lat="42.76985913012811" lon="10.238623908896535"><ele>13.166666666666666</ele><time>2026-04-19T08:27:55.99Z</time></trkpt><trkpt lat="42.76976729801644" lon="10.238615504726994"><ele>13.0</ele><time>2026-04-19T08:27:56.99Z</time></trkpt><trkpt lat="42.769661642177475" lon="10.238626382896223"><ele>13.0</ele><time>2026-04-19T08:27:57.99Z</time></trkpt><trkpt lat="42.769554910670095" lon="10.238633584020839"><ele>13.0</ele><time>2026-04-19T08:27:58.99Z</time></trkpt><trkpt lat="42.769442840243265" lon="10.238638260095119"><ele>13.0</ele><time>2026-04-19T08:27:59.99Z</time></trkpt><trkpt lat="42.769324193966064" lon="10.238637664700404"><ele>13.0</ele><time>2026-04-19T08:28:00.99Z</time></trkpt><trkpt lat="42.76922050474208" lon="10.238627230549598"><ele>13.0</ele><time>2026-04-19T08:28:01.99Z</time></trkpt><trkpt lat="42.76910537696659" lon="10.238627717639387"><ele>13.0</ele><time>2026-04-19T08:28:02.99Z</time></trkpt><trkpt lat="42.76899496237408" lon="10.238660173200062"><ele>13.0</ele><time>2026-04-19T08:28:03.99Z</time></trkpt><trkpt lat="42.76888578078996" lon="10.238674773995674"><ele>13.0</ele><time>2026-04-19T08:28:04.99Z</time></trkpt><trkpt lat="42.768784767203805" lon="10.238687020470927"><ele>13.0</ele><time>2026-04-19T08:28:05.99Z</time></trkpt><trkpt lat="42.76868512126068" lon="10.238708042529892"><ele>13.0</ele><time>2026-04-19T08:28:06.99Z</time></trkpt><trkpt lat="42.76860474165691" lon="10.238723348253961"><ele>12.833333333333332</ele><time>2026-04-19T08:28:07.99Z</time></trkpt><trkpt lat="42.76852403012277" lon="10.238742202969254"><ele>12.666666666666666</ele><time>2026-04-19T08:28:08.99Z</time></trkpt><trkpt lat="42.76845947927684" lon="10.23876513807973"><ele>12.5</ele><time>2026-04-19T08:28:09.99Z</time></trkpt><trkpt lat="42.768352297779344" lon="10.238779887847219"><ele>12.333333333333332</ele><time>2026-04-19T08:28:11.99Z</time></trkpt><trkpt lat="42.7682946362378" lon="10.238824568117908"><ele>12.166666666666666</ele><time>2026-04-19T08:28:13.99Z</time></trkpt><trkpt lat="42.76823551640331" lon="10.23889064336061"><ele>12.0</ele><time>2026-04-19T08:28:16.99Z</time></trkpt><trkpt lat="42.76824968045571" lon="10.239038182949802"><ele>11.8</ele><time>2026-04-19T08:28:18.99Z</time></trkpt><trkpt lat="42.768137367517426" lon="10.239065404999954"><ele>11.6</ele><time>2026-04-19T08:28:20.99Z</time></trkpt><trkpt lat="42.76805063389782" lon="10.23915735339363"><ele>11.4</ele><time>2026-04-19T08:28:22.99Z</time></trkpt><trkpt lat="42.767989163433235" lon="10.239192279904382"><ele>11.200000000000001</ele><time>2026-04-19T08:28:24.99Z</time></trkpt><trkpt lat="42.76785590304206" lon="10.2392042185992"><ele>11.0</ele><time>2026-04-19T08:28:26.99Z</time></trkpt><trkpt lat="42.767770617848996" lon="10.239201908267429"><ele>10.8</ele><time>2026-04-19T08:28:27.99Z</time></trkpt><trkpt lat="42.7676684124127" lon="10.239199139578089"><ele>10.600000000000001</ele><time>2026-04-19T08:28:28.99Z</time></trkpt><trkpt lat="42.767574192655395" lon="10.239217452126532"><ele>10.4</ele><time>2026-04-19T08:28:29.99Z</time></trkpt><trkpt lat="42.767483271976545" lon="10.239195531593554"><ele>10.2</ele><time>2026-04-19T08:28:30.99Z</time></trkpt><trkpt lat="42.76739047963295" lon="10.23919378701443"><ele>10.0</ele><time>2026-04-19T08:28:31.99Z</time></trkpt><trkpt lat="42.76731226684192" lon="10.239186042851726"><ele>10.0</ele><time>2026-04-19T08:28:32.99Z</time></trkpt><trkpt lat="42.76723263243074" lon="10.239172972132124"><ele>10.0</ele><time>2026-04-19T08:28:33.99Z</time></trkpt><trkpt lat="42.76715323740718" lon="10.239178009567"><ele>10.0</ele><time>2026-04-19T08:28:34.99Z</time></trkpt><trkpt lat="42.767076489373885" lon="10.239181194356386"><ele>10.0</ele><time>2026-04-19T08:28:35.99Z</time></trkpt><trkpt lat="42.76699358158979" lon="10.23918361349223"><ele>10.0</ele><time>2026-04-19T08:28:36.99Z</time></trkpt><trkpt lat="42.7669111056411" lon="10.239193205083996"><ele>10.0</ele><time>2026-04-19T08:28:37.99Z</time></trkpt><trkpt lat="42.76682675582566" lon="10.23920410523816"><ele>9.5</ele><time>2026-04-19T08:28:38.99Z</time></trkpt><trkpt lat="42.76674017616923" lon="10.239196253023929"><ele>9.0</ele><time>2026-04-19T08:28:39.99Z</time></trkpt><trkpt lat="42.766657155320125" lon="10.239229046062665"><ele>8.5</ele><time>2026-04-19T08:28:40.99Z</time></trkpt><trkpt lat="42.76658764145373" lon="10.23923312641509"><ele>8.0</ele><time>2026-04-19T08:28:41.99Z</time></trkpt><trkpt lat="42.76650175985292" lon="10.239251320964124"><ele>7.500000000000001</ele><time>2026-04-19T08:28:42.99Z</time></trkpt><trkpt lat="42.76641971126919" lon="10.239247468601423"><ele>7.0</ele><time>2026-04-19T08:28:43.99Z</time></trkpt><trkpt lat="42.76633539524914" lon="10.239281329702848"><ele>7.0</ele><time>2026-04-19T08:28:44.99Z</time></trkpt><trkpt lat="42.76624501443069" lon="10.239288760148236"><ele>6.999999999999999</ele><time>2026-04-19T08:28:45.99Z</time></trkpt><trkpt lat="42.766142432478915" lon="10.239304411032366"><ele>6.999999999999999</ele><time>2026-04-19T08:28:46.99Z</time></trkpt><trkpt lat="42.76603207335736" lon="10.239339847261059"><ele>7.0</ele><time>2026-04-19T08:28:47.989Z</time></trkpt><trkpt lat="42.76590947421547" lon="10.239385970363246"><ele>7.0</ele><time>2026-04-19T08:28:48.989Z</time></trkpt><trkpt lat="42.76576858952421" lon="10.239390418416532"><ele>7.25</ele><time>2026-04-19T08:28:49.989Z</time></trkpt><trkpt lat="42.76561933089291" lon="10.23942665443656"><ele>7.5</ele><time>2026-04-19T08:28:50.989Z</time></trkpt><trkpt lat="42.765484221078026" lon="10.239462777010555"><ele>7.75</ele><time>2026-04-19T08:28:51.989Z</time></trkpt><trkpt lat="42.76536932147318" lon="10.239482962092538"><ele>8.0</ele><time>2026-04-19T08:28:52.989Z</time></trkpt><trkpt lat="42.76525964286289" lon="10.239504956091244"><ele>7.75</ele><time>2026-04-19T08:28:53.989Z</time></trkpt><trkpt lat="42.76514843353351" lon="10.239533160662203"><ele>7.5</ele><time>2026-04-19T08:28:54.989Z</time></trkpt><trkpt lat="42.7650220453372" lon="10.239528696002623"><ele>7.25</ele><time>2026-04-19T08:28:55.989Z</time></trkpt><trkpt lat="42.76491066694351" lon="10.239550164528339"><ele>7.0</ele><time>2026-04-19T08:28:56.989Z</time></trkpt><trkpt lat="42.764810113237104" lon="10.239570598222338"><ele>7.0</ele><time>2026-04-19T08:28:57.989Z</time></trkpt><trkpt lat="42.76471778736605" lon="10.239589548283806"><ele>6.999999999999999</ele><time>2026-04-19T08:28:58.989Z</time></trkpt><trkpt lat="42.76461569274946" lon="10.239610503381233"><ele>6.999999999999999</ele><time>2026-04-19T08:28:59.989Z</time></trkpt><trkpt lat="42.76451465231936" lon="10.239625234146397"><ele>7.0</ele><time>2026-04-19T08:29:00.989Z</time></trkpt><trkpt lat="42.76441155364135" lon="10.239639663916286"><ele>7.0</ele><time>2026-04-19T08:29:01.989Z</time></trkpt><trkpt lat="42.76430361846474" lon="10.239655365246195"><ele>6.8</ele><time>2026-04-19T08:29:02.991Z</time></trkpt><trkpt lat="42.764196633820674" lon="10.239678726467503"><ele>6.6</ele><time>2026-04-19T08:29:03.991Z</time></trkpt><trkpt lat="42.76408747411095" lon="10.239713554605409"><ele>6.3999999999999995</ele><time>2026-04-19T08:29:04.991Z</time></trkpt><trkpt lat="42.76397670212504" lon="10.23974529866925"><ele>6.199999999999999</ele><time>2026-04-19T08:29:05.991Z</time></trkpt><trkpt lat="42.76386699092362" lon="10.239765421746664"><ele>6.0</ele><time>2026-04-19T08:29:06.99Z</time></trkpt><trkpt lat="42.763753164248286" lon="10.239784180075192"><ele>6.199999999999999</ele><time>2026-04-19T08:29:07.99Z</time></trkpt><trkpt lat="42.763630176776076" lon="10.239804448080978"><ele>6.3999999999999995</ele><time>2026-04-19T08:29:08.99Z</time></trkpt><trkpt lat="42.76351082832887" lon="10.239823227981052"><ele>6.6</ele><time>2026-04-19T08:29:09.99Z</time></trkpt><trkpt lat="42.76340389277712" lon="10.239836372459795"><ele>6.8</ele><time>2026-04-19T08:29:10.99Z</time></trkpt><trkpt lat="42.76330928046949" lon="10.239845304189194"><ele>7.0</ele><time>2026-04-19T08:29:11.99Z</time></trkpt><trkpt lat="42.76322239803163" lon="10.239848169440705"><ele>6.666666666666667</ele><time>2026-04-19T08:29:12.99Z</time></trkpt><trkpt lat="42.76314666927451" lon="10.239845509389358"><ele>6.333333333333334</ele><time>2026-04-19T08:29:13.99Z</time></trkpt><trkpt lat="42.76307386775868" lon="10.239842549159507"><ele>6.0</ele><time>2026-04-19T08:29:14.99Z</time></trkpt><trkpt lat="42.762993457748145" lon="10.239858420463602"><ele>5.666666666666667</ele><time>2026-04-19T08:29:16.99Z</time></trkpt><trkpt lat="42.762909846629036" lon="10.239857646437304"><ele>5.333333333333334</ele><time>2026-04-19T08:29:20.99Z</time></trkpt><trkpt lat="42.76284418036693" lon="10.239853574369745"><ele>5.0</ele><time>2026-04-19T08:29:21.99Z</time></trkpt><trkpt lat="42.76277330061389" lon="10.239872167953015"><ele>4.8</ele><time>2026-04-19T08:29:22.99Z</time></trkpt><trkpt lat="42.76269400489119" lon="10.2399031741052"><ele>4.6</ele><time>2026-04-19T08:29:23.99Z</time></trkpt><trkpt lat="42.762597654976055" lon="10.239941975439024"><ele>4.4</ele><time>2026-04-19T08:29:24.99Z</time></trkpt><trkpt lat="42.7625017336887" lon="10.239980754643582"><ele>4.2</ele><time>2026-04-19T08:29:25.99Z</time></trkpt><trkpt lat="42.76240454703148" lon="10.240018964515963"><ele>4.0</ele><time>2026-04-19T08:29:26.99Z</time></trkpt><trkpt lat="42.762293057207714" lon="10.240058882259817"><ele>4.0</ele><time>2026-04-19T08:29:27.99Z</time></trkpt><trkpt lat="42.76218086242408" lon="10.240100307008133"><ele>4.0</ele><time>2026-04-19T08:29:28.99Z</time></trkpt><trkpt lat="42.76206928646591" lon="10.240144527970415"><ele>4.0</ele><time>2026-04-19T08:29:29.99Z</time></trkpt><trkpt lat="42.76195836536141" lon="10.24019183660338"><ele>4.0</ele><time>2026-04-19T08:29:30.99Z</time></trkpt><trkpt lat="42.761865696275066" lon="10.240236458556542"><ele>4.0</ele><time>2026-04-19T08:29:31.99Z</time></trkpt><trkpt lat="42.76177172414391" lon="10.240278599596426"><ele>4.0</ele><time>2026-04-19T08:29:32.99Z</time></trkpt><trkpt lat="42.76166340350236" lon="10.240322010895856"><ele>4.0</ele><time>2026-04-19T08:29:33.99Z</time></trkpt><trkpt lat="42.76155223989556" lon="10.240369547602324"><ele>4.0</ele><time>2026-04-19T08:29:34.99Z</time></trkpt><trkpt lat="42.76143619960798" lon="10.240418855042872"><ele>4.0</ele><time>2026-04-19T08:29:35.99Z</time></trkpt><trkpt lat="42.76133439173055" lon="10.240466380681942"><ele>4.0</ele><time>2026-04-19T08:29:36.99Z</time></trkpt><trkpt lat="42.76123405001633" lon="10.240513861314982"><ele>4.0</ele><time>2026-04-19T08:29:37.99Z</time></trkpt><trkpt lat="42.76114261938283" lon="10.240561087052775"><ele>4.0</ele><time>2026-04-19T08:29:38.99Z</time></trkpt><trkpt lat="42.76104255722184" lon="10.240599845704866"><ele>4.0</ele><time>2026-04-19T08:29:39.99Z</time></trkpt><trkpt lat="42.76093537445703" lon="10.240642427612043"><ele>4.0</ele><time>2026-04-19T08:29:40.99Z</time></trkpt><trkpt lat="42.7608368777766" lon="10.240693486538161"><ele>4.0</ele><time>2026-04-19T08:29:41.99Z</time></trkpt><trkpt lat="42.76072662924747" lon="10.240741731776211"><ele>4.0</ele><time>2026-04-19T08:29:42.99Z</time></trkpt><trkpt lat="42.760599011120746" lon="10.24079710392893"><ele>4.0</ele><time>2026-04-19T08:29:43.99Z</time></trkpt><trkpt lat="42.76048060482162" lon="10.240850959096132"><ele>4.0</ele><time>2026-04-19T08:29:44.99Z</time></trkpt><trkpt lat="42.760377969118274" lon="10.240898364336958"><ele>4.0</ele><time>2026-04-19T08:29:45.99Z</time></trkpt><trkpt lat="42.76027944998777" lon="10.240940994165824"><ele>4.0</ele><time>2026-04-19T08:29:46.99Z</time></trkpt><trkpt lat="42.76017331512538" lon="10.240990050142031"><ele>4.0</ele><time>2026-04-19T08:29:47.99Z</time></trkpt><trkpt lat="42.76006643310392" lon="10.241034054165358"><ele>4.0</ele><time>2026-04-19T08:29:48.99Z</time></trkpt><trkpt lat="42.75995716575449" lon="10.241082614103588"><ele>4.0</ele><time>2026-04-19T08:29:49.99Z</time></trkpt><trkpt lat="42.75985441829415" lon="10.241132293766293"><ele>3.8000000000000003</ele><time>2026-04-19T08:29:50.99Z</time></trkpt><trkpt lat="42.75974785091605" lon="10.241189727420108"><ele>3.6000000000000005</ele><time>2026-04-19T08:29:51.99Z</time></trkpt><trkpt lat="42.75963995342762" lon="10.241241133161376"><ele>3.4</ele><time>2026-04-19T08:29:52.989Z</time></trkpt><trkpt lat="42.75953455279499" lon="10.241284721433976"><ele>3.2</ele><time>2026-04-19T08:29:53.989Z</time></trkpt><trkpt lat="42.759439518643376" lon="10.241322656738811"><ele>3.0</ele><time>2026-04-19T08:29:54.989Z</time></trkpt><trkpt lat="42.759338011093064" lon="10.241362216204099"><ele>2.8</ele><time>2026-04-19T08:29:55.989Z</time></trkpt><trkpt lat="42.7592421396933" lon="10.241427552366469"><ele>2.5999999999999996</ele><time>2026-04-19T08:29:56.989Z</time></trkpt><trkpt lat="42.75914325521561" lon="10.241476443894548"><ele>2.4000000000000004</ele><time>2026-04-19T08:29:57.989Z</time></trkpt><trkpt lat="42.75904422998055" lon="10.241519033078257"><ele>2.2</ele><time>2026-04-19T08:29:58.989Z</time></trkpt><trkpt lat="42.75895057762457" lon="10.241558958627657"><ele>2.0</ele><time>2026-04-19T08:29:59.989Z</time></trkpt><trkpt lat="42.75885837468797" lon="10.241592683492732"><ele>2.2</ele><time>2026-04-19T08:30:00.989Z</time></trkpt><trkpt lat="42.75876561772499" lon="10.241628403860862"><ele>2.4000000000000004</ele><time>2026-04-19T08:30:01.989Z</time></trkpt><trkpt lat="42.75867179482051" lon="10.241667106066446"><ele>2.5999999999999996</ele><time>2026-04-19T08:30:02.989Z</time></trkpt><trkpt lat="42.7585791944344" lon="10.241707836877474"><ele>2.8</ele><time>2026-04-19T08:30:03.989Z</time></trkpt><trkpt lat="42.758482836558144" lon="10.241749316099131"><ele>3.0</ele><time>2026-04-19T08:30:04.989Z</time></trkpt><trkpt lat="42.75837957450216" lon="10.241795647500254"><ele>3.0</ele><time>2026-04-19T08:30:05.989Z</time></trkpt><trkpt lat="42.75828267058215" lon="10.241837463142929"><ele>3.0</ele><time>2026-04-19T08:30:06.989Z</time></trkpt><trkpt lat="42.75817244544038" lon="10.241885941599353"><ele>3.0</ele><time>2026-04-19T08:30:07.989Z</time></trkpt><trkpt lat="42.758066227287216" lon="10.241929617241112"><ele>3.0</ele><time>2026-04-19T08:30:08.989Z</time></trkpt><trkpt lat="42.75796099517733" lon="10.241971960512275"><ele>3.0</ele><time>2026-04-19T08:30:09.989Z</time></trkpt><trkpt lat="42.75786574726051" lon="10.242011297428709"><ele>3.0</ele><time>2026-04-19T08:30:10.989Z</time></trkpt><trkpt lat="42.75777090636578" lon="10.24205093020019"><ele>3.0</ele><time>2026-04-19T08:30:11.989Z</time></trkpt><trkpt lat="42.75767456996117" lon="10.242091633353354"><ele>3.0</ele><time>2026-04-19T08:30:12.989Z</time></trkpt><trkpt lat="42.75757605872972" lon="10.242132156958156"><ele>3.0</ele><time>2026-04-19T08:30:13.989Z</time></trkpt><trkpt lat="42.757492269001794" lon="10.242146213324482"><ele>3.0</ele><time>2026-04-19T08:30:14.989Z</time></trkpt><trkpt lat="42.757422102129844" lon="10.24220283489769"><ele>2.8</ele><time>2026-04-19T08:30:15.989Z</time></trkpt><trkpt lat="42.75735993609893" lon="10.242225376683452"><ele>2.5999999999999996</ele><time>2026-04-19T08:30:16.989Z</time></trkpt><trkpt lat="42.7572548910638" lon="10.242321098195342"><ele>2.4000000000000004</ele><time>2026-04-19T08:30:18.989Z</time></trkpt><trkpt lat="42.757195602167165" lon="10.24237108969921"><ele>2.2</ele><time>2026-04-19T08:30:19.989Z</time></trkpt><trkpt lat="42.75707864372724" lon="10.242331614283733"><ele>2.0</ele><time>2026-04-19T08:30:20.989Z</time></trkpt><trkpt lat="42.75698030597231" lon="10.242369075173348"><ele>2.0</ele><time>2026-04-19T08:30:21.989Z</time></trkpt><trkpt lat="42.75687997675035" lon="10.242406807659727"><ele>2.0</ele><time>2026-04-19T08:30:22.989Z</time></trkpt><trkpt lat="42.756779238660435" lon="10.242452718896986"><ele>2.0</ele><time>2026-04-19T08:30:23.989Z</time></trkpt><trkpt lat="42.756683948773045" lon="10.242483989981695"><ele>2.0</ele><time>2026-04-19T08:30:24.989Z</time></trkpt><trkpt lat="42.75657871569571" lon="10.242528675134595"><ele>2.0</ele><time>2026-04-19T08:30:25.989Z</time></trkpt><trkpt lat="42.75646612805088" lon="10.242578712279865"><ele>2.0</ele><time>2026-04-19T08:30:26.989Z</time></trkpt><trkpt lat="42.75636825377819" lon="10.242615578368476"><ele>2.0</ele><time>2026-04-19T08:30:27.989Z</time></trkpt><trkpt lat="42.756270725100116" lon="10.24265535123293"><ele>2.0</ele><time>2026-04-19T08:30:28.989Z</time></trkpt><trkpt lat="42.75617596274869" lon="10.242689577679034"><ele>2.0</ele><time>2026-04-19T08:30:29.989Z</time></trkpt><trkpt lat="42.756070786770465" lon="10.24272680616605"><ele>2.0</ele><time>2026-04-19T08:30:30.989Z</time></trkpt><trkpt lat="42.75596913339912" lon="10.242766545096892"><ele>1.6</ele><time>2026-04-19T08:30:31.989Z</time></trkpt><trkpt lat="42.7558864442376" lon="10.242799886798004"><ele>1.2000000000000002</ele><time>2026-04-19T08:30:32.989Z</time></trkpt><trkpt lat="42.7558090579316" lon="10.24283802308658"><ele>0.8</ele><time>2026-04-19T08:30:33.989Z</time></trkpt><trkpt lat="42.75572534420747" lon="10.242880213739303"><ele>0.4</ele><time>2026-04-19T08:30:34.989Z</time></trkpt><trkpt lat="42.75563283027834" lon="10.242921686578022"><ele>0.0</ele><time>2026-04-19T08:30:35.989Z</time></trkpt><trkpt lat="42.75553729650645" lon="10.242959233245097"><ele>0.0</ele><time>2026-04-19T08:30:36.989Z</time></trkpt><trkpt lat="42.75543895758907" lon="10.242990226192283"><ele>0.0</ele><time>2026-04-19T08:30:37.989Z</time></trkpt><trkpt lat="42.75534592916602" lon="10.243027654834657"><ele>0.0</ele><time>2026-04-19T08:30:38.989Z</time></trkpt><trkpt lat="42.75526325963015" lon="10.243068643375091"><ele>0.0</ele><time>2026-04-19T08:30:39.989Z</time></trkpt><trkpt lat="42.75518261164108" lon="10.243093394881098"><ele>0.0</ele><time>2026-04-19T08:30:40.989Z</time></trkpt><trkpt lat="42.75510199413413" lon="10.243121806362199"><ele>0.0</ele><time>2026-04-19T08:30:41.989Z</time></trkpt><trkpt lat="42.75497863513807" lon="10.243152761876612"><ele>0.0</ele><time>2026-04-19T08:30:43.989Z</time></trkpt><trkpt lat="42.75490302786187" lon="10.243173968379356"><ele>0.0</ele><time>2026-04-19T08:30:44.989Z</time></trkpt><trkpt lat="42.75481732661572" lon="10.243203773164845"><ele>0.0</ele><time>2026-04-19T08:30:45.989Z</time></trkpt><trkpt lat="42.75472177869509" lon="10.243232706579828"><ele>0.0</ele><time>2026-04-19T08:30:46.989Z</time></trkpt><trkpt lat="42.75463923598742" lon="10.243263709061628"><ele>0.0</ele><time>2026-04-19T08:30:47.989Z</time></trkpt><trkpt lat="42.75454884834357" lon="10.243284277193045"><ele>0.0</ele><time>2026-04-19T08:30:48.989Z</time></trkpt><trkpt lat="42.75446937969733" lon="10.243308390536159"><ele>0.0</ele><time>2026-04-19T08:30:49.989Z</time></trkpt><trkpt lat="42.75438460332636" lon="10.243340587246577"><ele>0.0</ele><time>2026-04-19T08:30:50.989Z</time></trkpt><trkpt lat="42.75429018068706" lon="10.2433793527723"><ele>0.0</ele><time>2026-04-19T08:30:51.989Z</time></trkpt><trkpt lat="42.754198434638106" lon="10.24341390648548"><ele>0.0</ele><time>2026-04-19T08:30:52.989Z</time></trkpt><trkpt lat="42.754114032845834" lon="10.243434870395776"><ele>0.0</ele><time>2026-04-19T08:30:53.989Z</time></trkpt><trkpt lat="42.75403079346798" lon="10.243466154303391"><ele>0.0</ele><time>2026-04-19T08:30:54.989Z</time></trkpt><trkpt lat="42.75395897144948" lon="10.243491728203889"><ele>0.0</ele><time>2026-04-19T08:30:55.989Z</time></trkpt><trkpt lat="42.753880318854605" lon="10.243522801900491"><ele>0.0</ele><time>2026-04-19T08:30:56.989Z</time></trkpt><trkpt lat="42.75380428444637" lon="10.243551932342717"><ele>0.0</ele><time>2026-04-19T08:30:57.989Z</time></trkpt><trkpt lat="42.75371436985903" lon="10.243581831257336"><ele>0.0</ele><time>2026-04-19T08:30:58.989Z</time></trkpt><trkpt lat="42.75362630568038" lon="10.243612469673591"><ele>0.0</ele><time>2026-04-19T08:30:59.989Z</time></trkpt><trkpt lat="42.75354791867635" lon="10.243642774015722"><ele>0.0</ele><time>2026-04-19T08:31:00.989Z</time></trkpt><trkpt lat="42.75345565120022" lon="10.243682079159367"><ele>0.0</ele><time>2026-04-19T08:31:01.989Z</time></trkpt><trkpt lat="42.753370653605" lon="10.243720075064969"><ele>0.0</ele><time>2026-04-19T08:31:02.989Z</time></trkpt><trkpt lat="42.75329489080561" lon="10.243753795599817"><ele>0.0</ele><time>2026-04-19T08:31:03.989Z</time></trkpt><trkpt lat="42.75323018072284" lon="10.24378602157176"><ele>0.0</ele><time>2026-04-19T08:31:04.989Z</time></trkpt><trkpt lat="42.75316628085274" lon="10.243808227864973"><ele>0.0</ele><time>2026-04-19T08:31:05.989Z</time></trkpt><trkpt lat="42.753085864891986" lon="10.243842423951884"><ele>0.0</ele><time>2026-04-19T08:31:07.989Z</time></trkpt><trkpt lat="42.75301877095993" lon="10.243878401592072"><ele>0.0</ele><time>2026-04-19T08:31:12.99Z</time></trkpt><trkpt lat="42.753109051112176" lon="10.243982272204478"><ele>0.0</ele><time>2026-04-19T08:31:19.99Z</time></trkpt><trkpt lat="42.75317399403116" lon="10.244013641709415"><ele>0.0</ele><time>2026-04-19T08:31:20.99Z</time></trkpt><trkpt lat="42.753261976493604" lon="10.24404077017407"><ele>-0.2</ele><time>2026-04-19T08:31:30.989Z</time></trkpt><trkpt lat="42.753348287637536" lon="10.244059557597305"><ele>-0.4</ele><time>2026-04-19T08:31:32.989Z</time></trkpt><trkpt lat="42.75344406618035" lon="10.24415727031992"><ele>-0.6000000000000001</ele><time>2026-04-19T08:31:34.989Z</time></trkpt><trkpt lat="42.75352352625445" lon="10.244214664941309"><ele>-0.8</ele><time>2026-04-19T08:31:35.989Z</time></trkpt><trkpt lat="42.75362621666723" lon="10.244285272559301"><ele>-1.0</ele><time>2026-04-19T08:31:36.989Z</time></trkpt><trkpt lat="42.75373432480501" lon="10.244361892168513"><ele>-0.9999999999999999</ele><time>2026-04-19T08:31:37.989Z</time></trkpt><trkpt lat="42.75384347031169" lon="10.244430562303055"><ele>-1.0</ele><time>2026-04-19T08:31:38.989Z</time></trkpt><trkpt lat="42.753919367335044" lon="10.244495398035866"><ele>-1.0</ele><time>2026-04-19T08:31:39.989Z</time></trkpt><trkpt lat="42.75398766838593" lon="10.244546065894394"><ele>-1.0</ele><time>2026-04-19T08:31:40.989Z</time></trkpt><trkpt lat="42.75404718973414" lon="10.244592476867457"><ele>-0.9999999999999999</ele><time>2026-04-19T08:31:41.989Z</time></trkpt><trkpt lat="42.7541035757593" lon="10.24463960638638"><ele>-1.0</ele><time>2026-04-19T08:31:42.989Z</time></trkpt><trkpt lat="42.7541668999588" lon="10.244685854412465"><ele>-0.9999999999999999</ele><time>2026-04-19T08:31:43.989Z</time></trkpt><trkpt lat="42.75424243839893" lon="10.244749460372642"><ele>-1.0</ele><time>2026-04-19T08:31:44.989Z</time></trkpt><trkpt lat="42.75431905686852" lon="10.244808855519151"><ele>-1.0</ele><time>2026-04-19T08:31:45.989Z</time></trkpt><trkpt lat="42.754383236661994" lon="10.244860308346295"><ele>-1.0</ele><time>2026-04-19T08:31:46.989Z</time></trkpt><trkpt lat="42.754480455567105" lon="10.244928361176335"><ele>-0.9999999999999999</ele><time>2026-04-19T08:31:48.989Z</time></trkpt><trkpt lat="42.754539765759645" lon="10.244957186820962"><ele>-1.0</ele><time>2026-04-19T08:31:49.989Z</time></trkpt><trkpt lat="42.754598907015016" lon="10.244998305217798"><ele>-0.8</ele><time>2026-04-19T08:31:50.989Z</time></trkpt><trkpt lat="42.75466718751289" lon="10.245049005477028"><ele>-0.6000000000000001</ele><time>2026-04-19T08:31:51.989Z</time></trkpt><trkpt lat="42.75474210358578" lon="10.245118757084741"><ele>-0.4</ele><time>2026-04-19T08:31:52.989Z</time></trkpt><trkpt lat="42.75480888662662" lon="10.245199156955431"><ele>-0.2</ele><time>2026-04-19T08:31:53.989Z</time></trkpt><trkpt lat="42.75488499774492" lon="10.245302896376035"><ele>0.0</ele><time>2026-04-19T08:31:54.989Z</time></trkpt><trkpt lat="42.75496837769509" lon="10.245380456532175"><ele>0.0</ele><time>2026-04-19T08:31:55.989Z</time></trkpt><trkpt lat="42.75505691322579" lon="10.245468539855777"><ele>0.0</ele><time>2026-04-19T08:31:56.989Z</time></trkpt><trkpt lat="42.75515075195134" lon="10.245557761704575"><ele>0.0</ele><time>2026-04-19T08:31:57.989Z</time></trkpt><trkpt lat="42.755254756601545" lon="10.245651401682052"><ele>0.0</ele><time>2026-04-19T08:31:58.989Z</time></trkpt><trkpt lat="42.75534065310668" lon="10.24574037750059"><ele>0.5</ele><time>2026-04-19T08:31:59.989Z</time></trkpt><trkpt lat="42.7554029763033" lon="10.245826343341925"><ele>1.0</ele><time>2026-04-19T08:32:00.989Z</time></trkpt><trkpt lat="42.75542544091797" lon="10.24591202239105"><ele>1.5</ele><time>2026-04-19T08:32:02.989Z</time></trkpt><trkpt lat="42.755403201286654" lon="10.245995335044409"><ele>2.0</ele><time>2026-04-19T08:32:06.989Z</time></trkpt><trkpt lat="42.755345508416646" lon="10.246046236253312"><ele>2.5</ele><time>2026-04-19T08:32:07.989Z</time></trkpt><trkpt lat="42.75527467207401" lon="10.246107645275885"><ele>3.0</ele><time>2026-04-19T08:32:08.989Z</time></trkpt><trkpt lat="42.7552119005546" lon="10.246174071838597"><ele>2.8</ele><time>2026-04-19T08:32:09.989Z</time></trkpt><trkpt lat="42.75511615032806" lon="10.246209105833946"><ele>2.5999999999999996</ele><time>2026-04-19T08:32:10.989Z</time></trkpt><trkpt lat="42.755049366113774" lon="10.246324739677647"><ele>2.4000000000000004</ele><time>2026-04-19T08:32:11.989Z</time></trkpt><trkpt lat="42.75498783190323" lon="10.246432226920469"><ele>2.2</ele><time>2026-04-19T08:32:12.989Z</time></trkpt><trkpt lat="42.754917001650256" lon="10.246555952380454"><ele>2.0</ele><time>2026-04-19T08:32:13.989Z</time></trkpt><trkpt lat="42.7548494524712" lon="10.246673946495486"><ele>2.0</ele><time>2026-04-19T08:32:14.989Z</time></trkpt><trkpt lat="42.75479710520424" lon="10.246795448865862"><ele>2.0</ele><time>2026-04-19T08:32:15.989Z</time></trkpt><trkpt lat="42.75473439794863" lon="10.246897017033755"><ele>2.0</ele><time>2026-04-19T08:32:16.989Z</time></trkpt><trkpt lat="42.754669022021204" lon="10.246980900844811"><ele>2.0</ele><time>2026-04-19T08:32:17.989Z</time></trkpt><trkpt lat="42.75458715025774" lon="10.247015623850757"><ele>2.0</ele><time>2026-04-19T08:32:18.989Z</time></trkpt><trkpt lat="42.754525671997385" lon="10.247074711600687"><ele>2.0</ele><time>2026-04-19T08:32:19.989Z</time></trkpt><trkpt lat="42.75444708833845" lon="10.247162034395899"><ele>2.0</ele><time>2026-04-19T08:32:21.989Z</time></trkpt><trkpt lat="42.75435513545949" lon="10.247180304349628"><ele>2.0</ele><time>2026-04-19T08:32:24.989Z</time></trkpt><trkpt lat="42.754284855448674" lon="10.247179905909256"><ele>2.0</ele><time>2026-04-19T08:32:25.989Z</time></trkpt><trkpt lat="42.754206941949455" lon="10.247245042552022"><ele>2.0</ele><time>2026-04-19T08:32:26.989Z</time></trkpt><trkpt lat="42.754118935639596" lon="10.247294142746382"><ele>2.6</ele><time>2026-04-19T08:32:27.989Z</time></trkpt><trkpt lat="42.754044874365036" lon="10.247384514177366"><ele>3.2</ele><time>2026-04-19T08:32:28.989Z</time></trkpt><trkpt lat="42.75395074544921" lon="10.247461202038009"><ele>3.8</ele><time>2026-04-19T08:32:29.989Z</time></trkpt><trkpt lat="42.75387179275411" lon="10.247558567042358"><ele>4.4</ele><time>2026-04-19T08:32:30.989Z</time></trkpt><trkpt lat="42.75378501954451" lon="10.247668178505327"><ele>5.0</ele><time>2026-04-19T08:32:31.989Z</time></trkpt><trkpt lat="42.753707615634525" lon="10.2477735846843"><ele>5.0</ele><time>2026-04-19T08:32:32.989Z</time></trkpt><trkpt lat="42.75363057521473" lon="10.247876164238463"><ele>5.0</ele><time>2026-04-19T08:32:33.989Z</time></trkpt><trkpt lat="42.75355829388337" lon="10.247973221360885"><ele>5.0</ele><time>2026-04-19T08:32:34.989Z</time></trkpt><trkpt lat="42.75349382777871" lon="10.248064583076506"><ele>5.0</ele><time>2026-04-19T08:32:35.988Z</time></trkpt><trkpt lat="42.753420611815415" lon="10.248172845551105"><ele>5.0</ele><time>2026-04-19T08:32:36.988Z</time></trkpt><trkpt lat="42.75335428889916" lon="10.248271701389942"><ele>5.333333333333334</ele><time>2026-04-19T08:32:37.988Z</time></trkpt><trkpt lat="42.753304831591066" lon="10.248353347160094"><ele>5.666666666666667</ele><time>2026-04-19T08:32:38.988Z</time></trkpt><trkpt lat="42.75326411036246" lon="10.248427794656921"><ele>6.0</ele><time>2026-04-19T08:32:39.988Z</time></trkpt><trkpt lat="42.75321811839048" lon="10.2485055538608"><ele>6.333333333333334</ele><time>2026-04-19T08:32:40.988Z</time></trkpt><trkpt lat="42.75315942170183" lon="10.24864712640573"><ele>6.666666666666667</ele><time>2026-04-19T08:32:42.988Z</time></trkpt><trkpt lat="42.75312675128728" lon="10.248738575949325"><ele>7.0</ele><time>2026-04-19T08:32:44.988Z</time></trkpt><trkpt lat="42.752982804548544" lon="10.248654640592157"><ele>7.0</ele><time>2026-04-19T08:32:45.988Z</time></trkpt><trkpt lat="42.75290934457326" lon="10.248637269123018"><ele>6.999999999999999</ele><time>2026-04-19T08:32:46.988Z</time></trkpt><trkpt lat="42.75281528623404" lon="10.24860829939497"><ele>6.999999999999999</ele><time>2026-04-19T08:32:47.988Z</time></trkpt><trkpt lat="42.752724985261416" lon="10.248567017172551"><ele>7.0</ele><time>2026-04-19T08:32:48.988Z</time></trkpt><trkpt lat="42.75263486150343" lon="10.248505579011512"><ele>7.0</ele><time>2026-04-19T08:32:49.988Z</time></trkpt><trkpt lat="42.75255565497887" lon="10.248455046354419"><ele>6.333333333333334</ele><time>2026-04-19T08:32:50.988Z</time></trkpt><trkpt lat="42.752468964022356" lon="10.248426555563356"><ele>5.666666666666667</ele><time>2026-04-19T08:32:51.988Z</time></trkpt><trkpt lat="42.75238681086146" lon="10.24839415444632"><ele>5.0</ele><time>2026-04-19T08:32:52.988Z</time></trkpt><trkpt lat="42.75230539437" lon="10.248378763051809"><ele>4.333333333333334</ele><time>2026-04-19T08:32:53.988Z</time></trkpt><trkpt lat="42.75222830585885" lon="10.248384043948437"><ele>3.666666666666667</ele><time>2026-04-19T08:32:54.988Z</time></trkpt><trkpt lat="42.75216442224744" lon="10.24840627354263"><ele>3.0</ele><time>2026-04-19T08:32:55.988Z</time></trkpt><trkpt lat="42.75210406768338" lon="10.248459883306207"><ele>3.0</ele><time>2026-04-19T08:32:56.988Z</time></trkpt><trkpt lat="42.75206792601206" lon="10.248606533867877"><ele>3.0</ele><time>2026-04-19T08:32:58.988Z</time></trkpt><trkpt lat="42.752046115841715" lon="10.248712445568083"><ele>3.0</ele><time>2026-04-19T08:32:59.988Z</time></trkpt><trkpt lat="42.75202339056559" lon="10.248823864071559"><ele>3.0</ele><time>2026-04-19T08:33:00.988Z</time></trkpt><trkpt lat="42.75197841104302" lon="10.248935572893535"><ele>3.0</ele><time>2026-04-19T08:33:01.988Z</time></trkpt><trkpt lat="42.751958038927086" lon="10.249018199534667"><ele>3.0</ele><time>2026-04-19T08:33:02.988Z</time></trkpt><trkpt lat="42.751894818063555" lon="10.249121304450686"><ele>3.5999999999999996</ele><time>2026-04-19T08:33:04.988Z</time></trkpt><trkpt lat="42.751779737292544" lon="10.249050677796014"><ele>4.199999999999999</ele><time>2026-04-19T08:33:06.988Z</time></trkpt><trkpt lat="42.751696125601114" lon="10.24901857565746"><ele>4.8</ele><time>2026-04-19T08:33:07.988Z</time></trkpt><trkpt lat="42.75159805555439" lon="10.249013586535538"><ele>5.3999999999999995</ele><time>2026-04-19T08:33:08.988Z</time></trkpt><trkpt lat="42.75151303928381" lon="10.249034938248734"><ele>6.0</ele><time>2026-04-19T08:33:09.988Z</time></trkpt><trkpt lat="42.75141922982102" lon="10.24907925669374"><ele>6.0</ele><time>2026-04-19T08:33:10.988Z</time></trkpt><trkpt lat="42.75133804224605" lon="10.249197688899716"><ele>6.0</ele><time>2026-04-19T08:33:11.988Z</time></trkpt><trkpt lat="42.751248732291266" lon="10.249303952259723"><ele>6.0</ele><time>2026-04-19T08:33:12.988Z</time></trkpt><trkpt lat="42.75115592345987" lon="10.249376618731784"><ele>6.0</ele><time>2026-04-19T08:33:13.988Z</time></trkpt><trkpt lat="42.75107051521919" lon="10.24946143394881"><ele>7.4</ele><time>2026-04-19T08:33:14.99Z</time></trkpt><trkpt lat="42.75098325160759" lon="10.24953708713989"><ele>8.8</ele><time>2026-04-19T08:33:15.99Z</time></trkpt><trkpt lat="42.7508958488626" lon="10.24961607739747"><ele>10.200000000000001</ele><time>2026-04-19T08:33:16.99Z</time></trkpt><trkpt lat="42.75081547109089" lon="10.249670989428996"><ele>11.6</ele><time>2026-04-19T08:33:17.99Z</time></trkpt><trkpt lat="42.75072670379015" lon="10.249747264725082"><ele>13.0</ele><time>2026-04-19T08:33:19.99Z</time></trkpt><trkpt lat="42.75075909064399" lon="10.249823877483292"><ele>15.5</ele><time>2026-04-19T08:33:20.99Z</time></trkpt><trkpt lat="42.750817274796105" lon="10.249970909220128"><ele>18.0</ele><time>2026-04-19T08:33:22.989Z</time></trkpt><trkpt lat="42.75083188072421" lon="10.250090971636789"><ele>20.5</ele><time>2026-04-19T08:33:23.989Z</time></trkpt><trkpt lat="42.750845228937386" lon="10.250186904560211"><ele>23.0</ele><time>2026-04-19T08:33:24.99Z</time></trkpt><trkpt lat="42.75085045938723" lon="10.250288103149627"><ele>25.500000000000004</ele><time>2026-04-19T08:33:25.99Z</time></trkpt><trkpt lat="42.75085671796268" lon="10.25039465590987"><ele>28.0</ele><time>2026-04-19T08:33:26.99Z</time></trkpt><trkpt lat="42.75086177995429" lon="10.250523847416519"><ele>28.0</ele><time>2026-04-19T08:33:27.99Z</time></trkpt><trkpt lat="42.75085012923858" lon="10.250656998480109"><ele>27.999999999999996</ele><time>2026-04-19T08:33:28.989Z</time></trkpt><trkpt lat="42.75081307503589" lon="10.250749137321199"><ele>27.999999999999996</ele><time>2026-04-19T08:33:29.989Z</time></trkpt><trkpt lat="42.75072834258415" lon="10.250774969973731"><ele>28.0</ele><time>2026-04-19T08:33:31.989Z</time></trkpt><trkpt lat="42.75070482585837" lon="10.250602444010507"><ele>28.0</ele><time>2026-04-19T08:33:33.99Z</time></trkpt><trkpt lat="42.750648270301845" lon="10.25054084459244"><ele>28.0</ele><time>2026-04-19T08:33:34.99Z</time></trkpt><trkpt lat="42.750581527505176" lon="10.250499352302407"><ele>27.999999999999996</ele><time>2026-04-19T08:33:35.989Z</time></trkpt><trkpt lat="42.75050373831747" lon="10.2505173914725"><ele>27.999999999999996</ele><time>2026-04-19T08:33:36.989Z</time></trkpt><trkpt lat="42.75043466384022" lon="10.250585108160799"><ele>28.0</ele><time>2026-04-19T08:33:37.989Z</time></trkpt><trkpt lat="42.750392974374186" lon="10.250708490823968"><ele>28.0</ele><time>2026-04-19T08:33:38.989Z</time></trkpt><trkpt lat="42.75032855849941" lon="10.250839502174959"><ele>29.599999999999998</ele><time>2026-04-19T08:33:39.989Z</time></trkpt><trkpt lat="42.75025911141055" lon="10.250991210326157"><ele>31.199999999999996</ele><time>2026-04-19T08:33:40.989Z</time></trkpt><trkpt lat="42.75021579638632" lon="10.25111773958666"><ele>32.8</ele><time>2026-04-19T08:33:41.989Z</time></trkpt><trkpt lat="42.75019871819159" lon="10.251222938837484"><ele>34.4</ele><time>2026-04-19T08:33:42.989Z</time></trkpt><trkpt lat="42.750230181156745" lon="10.251317457419193"><ele>36.0</ele><time>2026-04-19T08:33:43.989Z</time></trkpt><trkpt lat="42.75028362429183" lon="10.251420886397176"><ele>37.4</ele><time>2026-04-19T08:33:44.989Z</time></trkpt><trkpt lat="42.75034787999189" lon="10.251543973188598"><ele>38.8</ele><time>2026-04-19T08:33:45.989Z</time></trkpt><trkpt lat="42.750352886156264" lon="10.251650359601616"><ele>40.199999999999996</ele><time>2026-04-19T08:33:46.989Z</time></trkpt><trkpt lat="42.75031390749839" lon="10.251719533153922"><ele>41.6</ele><time>2026-04-19T08:33:47.989Z</time></trkpt><trkpt lat="42.750213844699225" lon="10.251556483017003"><ele>43.0</ele><time>2026-04-19T08:33:50.989Z</time></trkpt><trkpt lat="42.750159332904694" lon="10.25147074182612"><ele>47.75</ele><time>2026-04-19T08:33:51.989Z</time></trkpt><trkpt lat="42.750038213342336" lon="10.25152711462441"><ele>52.5</ele><time>2026-04-19T08:33:53.989Z</time></trkpt><trkpt lat="42.75009248220503" lon="10.251720265473729"><ele>57.25</ele><time>2026-04-19T08:33:55.989Z</time></trkpt><trkpt lat="42.750109452560544" lon="10.251870468291964"><ele>62.0</ele><time>2026-04-19T08:33:56.989Z</time></trkpt><trkpt lat="42.7501340458341" lon="10.25201317074456"><ele>62.0</ele><time>2026-04-19T08:33:57.989Z</time></trkpt><trkpt lat="42.750150441717835" lon="10.252178599393131"><ele>62.0</ele><time>2026-04-19T08:33:58.989Z</time></trkpt><trkpt lat="42.75015374276757" lon="10.252380043211957"><ele>62.0</ele><time>2026-04-19T08:33:59.989Z</time></trkpt><trkpt lat="42.75012549166343" lon="10.252545465087868"><ele>62.0</ele><time>2026-04-19T08:34:00.989Z</time></trkpt><trkpt lat="42.750079355940876" lon="10.252640380787298"><ele>63.400000000000006</ele><time>2026-04-19T08:34:01.989Z</time></trkpt><trkpt lat="42.75001223018949" lon="10.252723105594217"><ele>64.80000000000001</ele><time>2026-04-19T08:34:02.989Z</time></trkpt><trkpt lat="42.74992526534604" lon="10.252783943828474"><ele>66.2</ele><time>2026-04-19T08:34:03.989Z</time></trkpt><trkpt lat="42.74983398447079" lon="10.252881553901021"><ele>67.60000000000001</ele><time>2026-04-19T08:34:04.989Z</time></trkpt><trkpt lat="42.74974930393795" lon="10.253006362413597"><ele>69.0</ele><time>2026-04-19T08:34:05.989Z</time></trkpt><trkpt lat="42.749681230378386" lon="10.253161787892038"><ele>69.0</ele><time>2026-04-19T08:34:06.989Z</time></trkpt><trkpt lat="42.74959842497985" lon="10.253323152420402"><ele>69.0</ele><time>2026-04-19T08:34:07.989Z</time></trkpt><trkpt lat="42.74952188671471" lon="10.253437151302542"><ele>69.0</ele><time>2026-04-19T08:34:08.989Z</time></trkpt><trkpt lat="42.74945496453119" lon="10.25351314804535"><ele>69.0</ele><time>2026-04-19T08:34:09.989Z</time></trkpt><trkpt lat="42.74938264575946" lon="10.253559958008285"><ele>69.0</ele><time>2026-04-19T08:34:10.989Z</time></trkpt><trkpt lat="42.749262215729736" lon="10.253639698541738"><ele>75.2</ele><time>2026-04-19T08:34:12.989Z</time></trkpt><trkpt lat="42.74919276871615" lon="10.253713980859711"><ele>81.4</ele><time>2026-04-19T08:34:13.989Z</time></trkpt><trkpt lat="42.74917561782538" lon="10.25383197964521"><ele>87.6</ele><time>2026-04-19T08:34:14.989Z</time></trkpt><trkpt lat="42.74918142390316" lon="10.25397780419604"><ele>93.8</ele><time>2026-04-19T08:34:15.989Z</time></trkpt><trkpt lat="42.74916872691661" lon="10.254135045458426"><ele>100.0</ele><time>2026-04-19T08:34:16.989Z</time></trkpt><trkpt lat="42.74915636654157" lon="10.254264271728038"><ele>100.00000000000001</ele><time>2026-04-19T08:34:17.989Z</time></trkpt><trkpt lat="42.74914590196411" lon="10.254386799593648"><ele>100.0</ele><time>2026-04-19T08:34:18.989Z</time></trkpt><trkpt lat="42.74915577825218" lon="10.254520727373576"><ele>100.0</ele><time>2026-04-19T08:34:19.989Z</time></trkpt><trkpt lat="42.74918481698044" lon="10.25463387567215"><ele>100.0</ele><time>2026-04-19T08:34:20.989Z</time></trkpt><trkpt lat="42.749192470173995" lon="10.254739742727754"><ele>100.00000000000001</ele><time>2026-04-19T08:34:21.989Z</time></trkpt><trkpt lat="42.749189359352044" lon="10.254837271367082"><ele>100.0</ele><time>2026-04-19T08:34:22.989Z</time></trkpt><trkpt lat="42.74918659079235" lon="10.254961327647257"><ele>100.42857142857143</ele><time>2026-04-19T08:34:24.989Z</time></trkpt><trkpt lat="42.74917921571987" lon="10.25505006077187"><ele>100.85714285714286</ele><time>2026-04-19T08:34:27.989Z</time></trkpt><trkpt lat="42.749178639920665" lon="10.25513819728408"><ele>101.28571428571428</ele><time>2026-04-19T08:34:29.989Z</time></trkpt><trkpt lat="42.749198510486735" lon="10.255230907435188"><ele>101.71428571428572</ele><time>2026-04-19T08:34:51.989Z</time></trkpt><trkpt lat="42.749147934859735" lon="10.25530499785909"><ele>102.14285714285714</ele><time>2026-04-19T08:35:02.988Z</time></trkpt><trkpt lat="42.74909072836102" lon="10.255352859812199"><ele>102.57142857142857</ele><time>2026-04-19T08:35:10.988Z</time></trkpt><trkpt lat="42.74904511752199" lon="10.255433082523039"><ele>103.0</ele><time>2026-04-19T08:35:17.988Z</time></trkpt><trkpt lat="42.74909366440364" lon="10.255370434155017"><ele>102.99999999999999</ele><time>2026-04-19T08:35:36.989Z</time></trkpt><trkpt lat="42.7491609372202" lon="10.255323965679176"><ele>103.0</ele><time>2026-04-19T08:35:42.989Z</time></trkpt><trkpt lat="42.74920166280464" lon="10.255237268394136"><ele>103.0</ele><time>2026-04-19T08:35:48.989Z</time></trkpt><trkpt lat="42.74923232537175" lon="10.255150541964017"><ele>103.0</ele><time>2026-04-19T08:36:22.988Z</time></trkpt><trkpt lat="42.74915414582917" lon="10.25516015335596"><ele>103.0</ele><time>2026-04-19T08:36:34.988Z</time></trkpt><trkpt lat="42.74922280359192" lon="10.255168471120154"><ele>102.99999999999999</ele><time>2026-04-19T08:37:53.989Z</time></trkpt><trkpt lat="42.74915351778" lon="10.255174263388826"><ele>103.0</ele><time>2026-04-19T08:38:23.988Z</time></trkpt><trkpt lat="42.749049950872084" lon="10.25519813327104"><ele>103.00000000000001</ele><time>2026-04-19T08:38:25.988Z</time></trkpt><trkpt lat="42.74897777887062" lon="10.255234387164569"><ele>103.0</ele><time>2026-04-19T08:38:26.988Z</time></trkpt><trkpt lat="42.748890348120796" lon="10.255265529162127"><ele>103.0</ele><time>2026-04-19T08:38:28.988Z</time></trkpt><trkpt lat="42.74895508347511" lon="10.255227085953944"><ele>103.0</ele><time>2026-04-19T08:38:33.988Z</time></trkpt><trkpt lat="42.74906076240088" lon="10.255191194659416"><ele>103.00000000000001</ele><time>2026-04-19T08:38:35.988Z</time></trkpt><trkpt lat="42.749128355314824" lon="10.255147115747175"><ele>103.0</ele><time>2026-04-19T08:38:37.988Z</time></trkpt><trkpt lat="42.749063821607784" lon="10.255170510892304"><ele>103.0</ele><time>2026-04-19T08:38:51.988Z</time></trkpt><trkpt lat="42.74891170640104" lon="10.25528067725944"><ele>103.0</ele><time>2026-04-19T08:38:54.988Z</time></trkpt><trkpt lat="42.748882774766734" lon="10.255374588198842"><ele>103.0</ele><time>2026-04-19T08:38:55.988Z</time></trkpt><trkpt lat="42.74903261657024" lon="10.255494598534893"><ele>103.0</ele><time>2026-04-19T08:38:56.988Z</time></trkpt><trkpt lat="42.74902845673582" lon="10.255584006951668"><ele>104.0</ele><time>2026-04-19T08:39:03.988Z</time></trkpt><trkpt lat="42.74905134268299" lon="10.25569521874637"><ele>105.0</ele><time>2026-04-19T08:39:16.988Z</time></trkpt><trkpt lat="42.74910097176953" lon="10.255783359045969"><ele>106.00000000000001</ele><time>2026-04-19T08:39:18.988Z</time></trkpt><trkpt lat="42.74917704969106" lon="10.255838469825571"><ele>107.0</ele><time>2026-04-19T08:39:20.988Z</time></trkpt><trkpt lat="42.749246987673445" lon="10.255926444406581"><ele>108.0</ele><time>2026-04-19T08:39:22.988Z</time></trkpt><trkpt lat="42.7492287663685" lon="10.25608064125548"><ele>108.0</ele><time>2026-04-19T08:39:24.987Z</time></trkpt><trkpt lat="42.749203643126535" lon="10.256164132819201"><ele>108.0</ele><time>2026-04-19T08:39:25.987Z</time></trkpt><trkpt lat="42.74918347211537" lon="10.256288585055346"><ele>108.0</ele><time>2026-04-19T08:39:27.987Z</time></trkpt><trkpt lat="42.749183514459645" lon="10.256437849839987"><ele>108.0</ele><time>2026-04-19T08:39:29.987Z</time></trkpt><trkpt lat="42.749202944021526" lon="10.256528747933704"><ele>108.0</ele><time>2026-04-19T08:39:31.987Z</time></trkpt><trkpt lat="42.749233639513875" lon="10.25666540442518"><ele>108.0</ele><time>2026-04-19T08:39:34.989Z</time></trkpt><trkpt lat="42.749252711615156" lon="10.256779361419353"><ele>108.33333333333333</ele><time>2026-04-19T08:39:36.989Z</time></trkpt><trkpt lat="42.749291748750984" lon="10.256877671603977"><ele>108.66666666666666</ele><time>2026-04-19T08:39:38.989Z</time></trkpt><trkpt lat="42.74931261576108" lon="10.257007173724853"><ele>109.0</ele><time>2026-04-19T08:39:40.989Z</time></trkpt><trkpt lat="42.749279782869635" lon="10.257094777409593"><ele>109.33333333333333</ele><time>2026-04-19T08:39:42.988Z</time></trkpt><trkpt lat="42.74928843129951" lon="10.257217607418156"><ele>109.66666666666666</ele><time>2026-04-19T08:39:45.989Z</time></trkpt><trkpt lat="42.74932818864153" lon="10.257343386161848"><ele>110.0</ele><time>2026-04-19T08:39:47.989Z</time></trkpt><trkpt lat="42.7493553647123" lon="10.25746510906802"><ele>111.0</ele><time>2026-04-19T08:39:49.989Z</time></trkpt><trkpt lat="42.749348537611986" lon="10.257559970678866"><ele>112.0</ele><time>2026-04-19T08:39:51.988Z</time></trkpt><trkpt lat="42.749351373342435" lon="10.257660721722493"><ele>113.0</ele><time>2026-04-19T08:39:53.988Z</time></trkpt><trkpt lat="42.74935350411807" lon="10.257768105133433"><ele>114.0</ele><time>2026-04-19T08:39:55.988Z</time></trkpt><trkpt lat="42.749316808940556" lon="10.257840241336787"><ele>115.00000000000001</ele><time>2026-04-19T08:39:57.988Z</time></trkpt><trkpt lat="42.749286636693135" lon="10.257918741913072"><ele>116.0</ele><time>2026-04-19T08:41:00.988Z</time></trkpt><trkpt lat="42.74929716592581" lon="10.258005363497585"><ele>117.0</ele><time>2026-04-19T08:41:05.987Z</time></trkpt><trkpt lat="42.74930666659594" lon="10.258113006529541"><ele>117.0</ele><time>2026-04-19T08:41:30.987Z</time></trkpt><trkpt lat="42.74930964831268" lon="10.258213884762904"><ele>117.00000000000001</ele><time>2026-04-19T08:41:37.987Z</time></trkpt><trkpt lat="42.749291419329516" lon="10.258127250896763"><ele>117.0</ele><time>2026-04-19T08:41:54.989Z</time></trkpt><trkpt lat="42.749283749904635" lon="10.258031945691181"><ele>117.0</ele><time>2026-04-19T08:42:00.988Z</time></trkpt><trkpt lat="42.7492813474977" lon="10.257928159084768"><ele>117.00000000000001</ele><time>2026-04-19T08:42:05.988Z</time></trkpt><trkpt lat="42.74930224178379" lon="10.25783478450605"><ele>117.0</ele><time>2026-04-19T08:44:01.988Z</time></trkpt><trkpt lat="42.74934309336156" lon="10.257753723552609"><ele>117.0</ele><time>2026-04-19T08:44:04.988Z</time></trkpt><trkpt lat="42.749336441343075" lon="10.25764505489438"><ele>117.0</ele><time>2026-04-19T08:44:06.988Z</time></trkpt><trkpt lat="42.74933013379561" lon="10.2575425674145"><ele>117.0</ele><time>2026-04-19T08:44:08.988Z</time></trkpt><trkpt lat="42.74932877192304" lon="10.257450168625361"><ele>117.0</ele><time>2026-04-19T08:44:10.988Z</time></trkpt><trkpt lat="42.74930835947425" lon="10.257348808682794"><ele>117.0</ele><time>2026-04-19T08:44:13.988Z</time></trkpt><trkpt lat="42.749289105047005" lon="10.257229559770874"><ele>117.0</ele><time>2026-04-19T08:44:16.988Z</time></trkpt><trkpt lat="42.7493108369829" lon="10.257136186360768"><ele>117.0</ele><time>2026-04-19T08:44:19.988Z</time></trkpt><trkpt lat="42.74933467069204" lon="10.25701299315354"><ele>115.83333333333333</ele><time>2026-04-19T08:44:22.988Z</time></trkpt><trkpt lat="42.7493077121688" lon="10.256900919562096"><ele>114.66666666666666</ele><time>2026-04-19T08:44:24.988Z</time></trkpt><trkpt lat="42.74927473958561" lon="10.25682430849531"><ele>113.5</ele><time>2026-04-19T08:44:26.988Z</time></trkpt><trkpt lat="42.74924622076185" lon="10.25673159313744"><ele>112.33333333333333</ele><time>2026-04-19T08:44:29.987Z</time></trkpt><trkpt lat="42.749227284154514" lon="10.256627099750274"><ele>111.16666666666666</ele><time>2026-04-19T08:44:31.987Z</time></trkpt><trkpt lat="42.74921241383977" lon="10.256529145135124"><ele>110.0</ele><time>2026-04-19T08:44:34.987Z</time></trkpt><trkpt lat="42.74919962427316" lon="10.256412042899491"><ele>109.66666666666666</ele><time>2026-04-19T08:44:36.987Z</time></trkpt><trkpt lat="42.74919653597874" lon="10.2563102341745"><ele>109.33333333333333</ele><time>2026-04-19T08:44:38.987Z</time></trkpt><trkpt lat="42.74919990798506" lon="10.25618485598217"><ele>109.0</ele><time>2026-04-19T08:44:40.987Z</time></trkpt><trkpt lat="42.74922467220826" lon="10.256087128481042"><ele>108.66666666666666</ele><time>2026-04-19T08:44:42.987Z</time></trkpt><trkpt lat="42.74924229095778" lon="10.255945914746103"><ele>108.33333333333333</ele><time>2026-04-19T08:44:44.987Z</time></trkpt><trkpt lat="42.74919554073476" lon="10.25584151101308"><ele>108.0</ele><time>2026-04-19T08:44:46.987Z</time></trkpt><trkpt lat="42.74912438977585" lon="10.25578470379115"><ele>108.0</ele><time>2026-04-19T08:44:48.987Z</time></trkpt><trkpt lat="42.74906378000971" lon="10.255707852011131"><ele>108.0</ele><time>2026-04-19T08:44:50.987Z</time></trkpt><trkpt lat="42.749029446484876" lon="10.255624558994313"><ele>108.0</ele><time>2026-04-19T08:44:52.987Z</time></trkpt><trkpt lat="42.748937332987026" lon="10.255583205483344"><ele>108.0</ele><time>2026-04-19T08:44:53.987Z</time></trkpt><trkpt lat="42.748940768353215" lon="10.255475789228786"><ele>108.0</ele><time>2026-04-19T08:44:56.901Z</time></trkpt><trkpt lat="42.748946417869206" lon="10.255333284629788"><ele>108.0</ele><time>2026-04-19T08:44:58.901Z</time></trkpt><trkpt lat="42.74904980533938" lon="10.255253878781776"><ele>107.16666666666667</ele><time>2026-04-19T08:45:00.901Z</time></trkpt><trkpt lat="42.74911750581732" lon="10.255210793815852"><ele>106.33333333333334</ele><time>2026-04-19T08:45:04.901Z</time></trkpt><trkpt lat="42.74917477634452" lon="10.255170168320667"><ele>105.5</ele><time>2026-04-19T08:45:08.901Z</time></trkpt><trkpt lat="42.74910579698391" lon="10.255167088679785"><ele>104.66666666666667</ele><time>2026-04-19T08:45:13.901Z</time></trkpt><trkpt lat="42.749024965572474" lon="10.255209343522552"><ele>103.83333333333334</ele><time>2026-04-19T08:45:15.901Z</time></trkpt><trkpt lat="42.74893322370581" lon="10.255259880876626"><ele>103.0</ele><time>2026-04-19T08:45:17.901Z</time></trkpt><trkpt lat="42.748908114934586" lon="10.255386405092606"><ele>103.0</ele><time>2026-04-19T08:45:44.9Z</time></trkpt><trkpt lat="42.748910432662775" lon="10.25547616848402"><ele>103.0</ele><time>2026-04-19T08:45:45.9Z</time></trkpt><trkpt lat="42.74891462680315" lon="10.25556858061712"><ele>103.0</ele><time>2026-04-19T08:45:46.9Z</time></trkpt><trkpt lat="42.74891331032227" lon="10.255696152314195"><ele>103.0</ele><time>2026-04-19T08:45:47.9Z</time></trkpt><trkpt lat="42.748880844842525" lon="10.255830936531835"><ele>103.0</ele><time>2026-04-19T08:45:48.9Z</time></trkpt><trkpt lat="42.74887233231371" lon="10.256002333791056"><ele>104.25</ele><time>2026-04-19T08:45:49.9Z</time></trkpt><trkpt lat="42.74886239796307" lon="10.256165251101248"><ele>105.5</ele><time>2026-04-19T08:45:50.901Z</time></trkpt><trkpt lat="42.74886092221115" lon="10.25630973959898"><ele>106.75</ele><time>2026-04-19T08:45:51.901Z</time></trkpt><trkpt lat="42.748887256735415" lon="10.256454805762163"><ele>108.0</ele><time>2026-04-19T08:45:52.902Z</time></trkpt><trkpt lat="42.74890019555021" lon="10.256612528058156"><ele>108.4</ele><time>2026-04-19T08:45:53.902Z</time></trkpt><trkpt lat="42.74891632437169" lon="10.256787321287707"><ele>108.80000000000001</ele><time>2026-04-19T08:45:54.901Z</time></trkpt><trkpt lat="42.748913121836885" lon="10.256950862302915"><ele>109.2</ele><time>2026-04-19T08:45:55.901Z</time></trkpt><trkpt lat="42.74891828226622" lon="10.257079891527113"><ele>109.6</ele><time>2026-04-19T08:45:56.901Z</time></trkpt><trkpt lat="42.74890710883304" lon="10.257192916087284"><ele>110.0</ele><time>2026-04-19T08:45:57.901Z</time></trkpt><trkpt lat="42.74887261549878" lon="10.2572938121433"><ele>111.4</ele><time>2026-04-19T08:45:58.901Z</time></trkpt><trkpt lat="42.74882731778932" lon="10.257395954050374"><ele>112.8</ele><time>2026-04-19T08:45:59.901Z</time></trkpt><trkpt lat="42.74877898601195" lon="10.257475933909538"><ele>114.19999999999999</ele><time>2026-04-19T08:46:00.901Z</time></trkpt><trkpt lat="42.748650545215966" lon="10.25751069656421"><ele>115.6</ele><time>2026-04-19T08:46:02.901Z</time></trkpt><trkpt lat="42.7485649213945" lon="10.257505662886954"><ele>117.0</ele><time>2026-04-19T08:46:03.901Z</time></trkpt><trkpt lat="42.74847562689251" lon="10.25755160403372"><ele>114.0</ele><time>2026-04-19T08:46:04.901Z</time></trkpt><trkpt lat="42.74839874040229" lon="10.257581053329744"><ele>111.0</ele><time>2026-04-19T08:46:05.901Z</time></trkpt><trkpt lat="42.74832383446263" lon="10.257545690050373"><ele>108.0</ele><time>2026-04-19T08:46:06.9Z</time></trkpt><trkpt lat="42.74824611460813" lon="10.257536353115526"><ele>105.0</ele><time>2026-04-19T08:46:07.9Z</time></trkpt><trkpt lat="42.74817336104294" lon="10.257539277098894"><ele>102.0</ele><time>2026-04-19T08:46:08.901Z</time></trkpt><trkpt lat="42.748087145497436" lon="10.257563459516101"><ele>99.0</ele><time>2026-04-19T08:46:09.901Z</time></trkpt><trkpt lat="42.747999067223034" lon="10.257613453560698"><ele>99.0</ele><time>2026-04-19T08:46:10.901Z</time></trkpt><trkpt lat="42.747909950570325" lon="10.25769859556187"><ele>99.0</ele><time>2026-04-19T08:46:11.901Z</time></trkpt><trkpt lat="42.7478414368458" lon="10.257765285877277"><ele>99.0</ele><time>2026-04-19T08:46:12.901Z</time></trkpt><trkpt lat="42.74777676447163" lon="10.257827902000011"><ele>99.0</ele><time>2026-04-19T08:46:13.901Z</time></trkpt><trkpt lat="42.747704171467305" lon="10.257893272598054"><ele>99.0</ele><time>2026-04-19T08:46:14.901Z</time></trkpt><trkpt lat="42.747631299323345" lon="10.257943824865798"><ele>99.0</ele><time>2026-04-19T08:46:15.901Z</time></trkpt><trkpt lat="42.74755803953895" lon="10.25797980868101"><ele>99.4</ele><time>2026-04-19T08:46:16.901Z</time></trkpt><trkpt lat="42.747427436617755" lon="10.258031087495402"><ele>99.80000000000001</ele><time>2026-04-19T08:46:18.9Z</time></trkpt><trkpt lat="42.74737354676075" lon="10.258090894202942"><ele>100.19999999999999</ele><time>2026-04-19T08:46:19.9Z</time></trkpt><trkpt lat="42.74734085433095" lon="10.258191943718952"><ele>100.6</ele><time>2026-04-19T08:46:20.9Z</time></trkpt><trkpt lat="42.747342527388234" lon="10.25831470311435"><ele>101.0</ele><time>2026-04-19T08:46:21.9Z</time></trkpt><trkpt lat="42.74735694965818" lon="10.258459802449694"><ele>101.0</ele><time>2026-04-19T08:46:22.9Z</time></trkpt><trkpt lat="42.74737160737088" lon="10.258616299902558"><ele>101.0</ele><time>2026-04-19T08:46:23.9Z</time></trkpt><trkpt lat="42.74739815775406" lon="10.258763913125426"><ele>101.0</ele><time>2026-04-19T08:46:24.9Z</time></trkpt><trkpt lat="42.747400396391456" lon="10.258900961579412"><ele>101.0</ele><time>2026-04-19T08:46:25.9Z</time></trkpt><trkpt lat="42.74735392804666" lon="10.259001610691458"><ele>101.0</ele><time>2026-04-19T08:46:26.9Z</time></trkpt><trkpt lat="42.74730257308504" lon="10.259104091373977"><ele>101.6</ele><time>2026-04-19T08:46:27.9Z</time></trkpt><trkpt lat="42.74727328143551" lon="10.259214182672158"><ele>102.19999999999999</ele><time>2026-04-19T08:46:28.9Z</time></trkpt><trkpt lat="42.747242863164026" lon="10.259336493742229"><ele>102.80000000000001</ele><time>2026-04-19T08:46:29.9Z</time></trkpt><trkpt lat="42.747214735554" lon="10.259469993739156"><ele>103.4</ele><time>2026-04-19T08:46:30.9Z</time></trkpt><trkpt lat="42.74719165882684" lon="10.259606828645051"><ele>104.0</ele><time>2026-04-19T08:46:31.9Z</time></trkpt><trkpt lat="42.747190163626506" lon="10.25973248334167"><ele>103.49999999999999</ele><time>2026-04-19T08:46:32.9Z</time></trkpt><trkpt lat="42.74716869663755" lon="10.259844598094794"><ele>103.0</ele><time>2026-04-19T08:46:33.9Z</time></trkpt><trkpt lat="42.74715708219108" lon="10.259956376656213"><ele>102.5</ele><time>2026-04-19T08:46:34.9Z</time></trkpt><trkpt lat="42.74713824517675" lon="10.260061123756588"><ele>102.0</ele><time>2026-04-19T08:46:35.9Z</time></trkpt><trkpt lat="42.747079076194524" lon="10.260133055767522"><ele>101.49999999999999</ele><time>2026-04-19T08:46:36.9Z</time></trkpt><trkpt lat="42.74703544383281" lon="10.260209714075538"><ele>101.0</ele><time>2026-04-19T08:46:37.9Z</time></trkpt><trkpt lat="42.746981697109455" lon="10.260325596417033"><ele>101.0</ele><time>2026-04-19T08:46:39.9Z</time></trkpt><trkpt lat="42.74693653417942" lon="10.260441303386866"><ele>101.0</ele><time>2026-04-19T08:46:41.9Z</time></trkpt><trkpt lat="42.74686875923198" lon="10.260526677115886"><ele>101.0</ele><time>2026-04-19T08:46:43.9Z</time></trkpt><trkpt lat="42.74675072796019" lon="10.260590025051872"><ele>101.0</ele><time>2026-04-19T08:46:45.9Z</time></trkpt><trkpt lat="42.746639646376345" lon="10.26065767609591"><ele>101.0</ele><time>2026-04-19T08:46:47.9Z</time></trkpt><trkpt lat="42.746568265572286" lon="10.260636747620303"><ele>96.8</ele><time>2026-04-19T08:46:48.9Z</time></trkpt><trkpt lat="42.74647055811151" lon="10.260704543329393"><ele>92.6</ele><time>2026-04-19T08:46:50.899Z</time></trkpt><trkpt lat="42.74640416778674" lon="10.260745468576276"><ele>88.4</ele><time>2026-04-19T08:46:52.899Z</time></trkpt><trkpt lat="42.7463887716096" lon="10.26086221671311"><ele>84.2</ele><time>2026-04-19T08:46:55.899Z</time></trkpt><trkpt lat="42.74647294540914" lon="10.260875128569102"><ele>80.0</ele><time>2026-04-19T08:47:51.897Z</time></trkpt><trkpt lat="42.74659671892564" lon="10.260862503577478"><ele>80.0</ele><time>2026-04-19T08:47:53.897Z</time></trkpt><trkpt lat="42.74669064637331" lon="10.260847283981908"><ele>80.0</ele><time>2026-04-19T08:47:54.897Z</time></trkpt><trkpt lat="42.74677381899862" lon="10.260846083082052"><ele>80.0</ele><time>2026-04-19T08:47:55.897Z</time></trkpt><trkpt lat="42.74685004209049" lon="10.26087696255494"><ele>80.0</ele><time>2026-04-19T08:47:56.899Z</time></trkpt><trkpt lat="42.74692570733333" lon="10.260888987636424"><ele>80.0</ele><time>2026-04-19T08:47:57.899Z</time></trkpt><trkpt lat="42.74701861978405" lon="10.260902740022226"><ele>80.0</ele><time>2026-04-19T08:47:58.899Z</time></trkpt><trkpt lat="42.747123823966476" lon="10.260918311895447"><ele>80.5</ele><time>2026-04-19T08:47:59.899Z</time></trkpt><trkpt lat="42.747219289332826" lon="10.26091768684702"><ele>81.0</ele><time>2026-04-19T08:48:00.898Z</time></trkpt><trkpt lat="42.74730765877194" lon="10.26093981578905"><ele>81.5</ele><time>2026-04-19T08:48:01.898Z</time></trkpt><trkpt lat="42.74739464038003" lon="10.260953937701766"><ele>82.0</ele><time>2026-04-19T08:48:02.897Z</time></trkpt><trkpt lat="42.747465649779734" lon="10.260954520846576"><ele>82.5</ele><time>2026-04-19T08:48:03.897Z</time></trkpt><trkpt lat="42.747535524071665" lon="10.260934358617515"><ele>83.0</ele><time>2026-04-19T08:48:04.898Z</time></trkpt><trkpt lat="42.747597541046424" lon="10.260962009346182"><ele>83.0</ele><time>2026-04-19T08:48:05.898Z</time></trkpt><trkpt lat="42.74767916481314" lon="10.261075558004453"><ele>83.0</ele><time>2026-04-19T08:48:07.898Z</time></trkpt><trkpt lat="42.74774008200378" lon="10.261113411887655"><ele>83.0</ele><time>2026-04-19T08:48:08.898Z</time></trkpt><trkpt lat="42.74779766727173" lon="10.26115072290847"><ele>83.0</ele><time>2026-04-19T08:48:09.898Z</time></trkpt><trkpt lat="42.747888051633026" lon="10.261214141752507"><ele>83.0</ele><time>2026-04-19T08:48:11.898Z</time></trkpt><trkpt lat="42.74795122437572" lon="10.261299212981347"><ele>83.0</ele><time>2026-04-19T08:48:13.897Z</time></trkpt><trkpt lat="42.74799741405685" lon="10.261394122610517"><ele>86.5</ele><time>2026-04-19T08:48:15.897Z</time></trkpt><trkpt lat="42.74791071400754" lon="10.26159220104462"><ele>90.0</ele><time>2026-04-19T08:48:18.897Z</time></trkpt><trkpt lat="42.74785564331353" lon="10.261711740847261"><ele>93.5</ele><time>2026-04-19T08:48:20.897Z</time></trkpt><trkpt lat="42.74777523114303" lon="10.261832365059343"><ele>97.0</ele><time>2026-04-19T08:48:22.897Z</time></trkpt><trkpt lat="42.74773170066807" lon="10.261900083725392"><ele>93.16666666666667</ele><time>2026-04-19T08:48:23.897Z</time></trkpt><trkpt lat="42.74768209122552" lon="10.261998496020814"><ele>89.33333333333334</ele><time>2026-04-19T08:48:24.897Z</time></trkpt><trkpt lat="42.74763878790745" lon="10.262095618017675"><ele>85.5</ele><time>2026-04-19T08:48:25.897Z</time></trkpt><trkpt lat="42.74760884086168" lon="10.262190144158998"><ele>81.66666666666667</ele><time>2026-04-19T08:48:26.897Z</time></trkpt><trkpt lat="42.74758198895678" lon="10.262282409955407"><ele>77.83333333333334</ele><time>2026-04-19T08:48:27.897Z</time></trkpt><trkpt lat="42.7475619596206" lon="10.262377593334502"><ele>74.0</ele><time>2026-04-19T08:48:28.897Z</time></trkpt><trkpt lat="42.747551706204284" lon="10.262474825705599"><ele>74.0</ele><time>2026-04-19T08:48:29.897Z</time></trkpt><trkpt lat="42.747551250213704" lon="10.26257029002028"><ele>74.0</ele><time>2026-04-19T08:48:30.897Z</time></trkpt><trkpt lat="42.74754777191942" lon="10.26266672619438"><ele>74.0</ele><time>2026-04-19T08:48:31.897Z</time></trkpt><trkpt lat="42.74755456621564" lon="10.262766737272072"><ele>74.0</ele><time>2026-04-19T08:48:32.897Z</time></trkpt><trkpt lat="42.747597124234744" lon="10.26285704774762"><ele>74.0</ele><time>2026-04-19T08:48:33.897Z</time></trkpt><trkpt lat="42.74764348366131" lon="10.262945172097876"><ele>74.0</ele><time>2026-04-19T08:48:34.896Z</time></trkpt><trkpt lat="42.74770402708814" lon="10.263026920336488"><ele>78.16666666666667</ele><time>2026-04-19T08:48:35.896Z</time></trkpt><trkpt lat="42.74778412160708" lon="10.263084619057372"><ele>82.33333333333334</ele><time>2026-04-19T08:48:36.896Z</time></trkpt><trkpt lat="42.747876929321116" lon="10.263119268594268"><ele>86.5</ele><time>2026-04-19T08:48:37.896Z</time></trkpt><trkpt lat="42.74797265606979" lon="10.26313941484559"><ele>90.66666666666667</ele><time>2026-04-19T08:48:38.896Z</time></trkpt><trkpt lat="42.74804515418286" lon="10.263182191647857"><ele>94.83333333333333</ele><time>2026-04-19T08:48:39.896Z</time></trkpt><trkpt lat="42.748116802547116" lon="10.263234707346252"><ele>99.0</ele><time>2026-04-19T08:48:40.896Z</time></trkpt><trkpt lat="42.74818627615926" lon="10.263293563127267"><ele>99.0</ele><time>2026-04-19T08:48:41.896Z</time></trkpt><trkpt lat="42.74824239946162" lon="10.263360280212313"><ele>99.0</ele><time>2026-04-19T08:48:42.896Z</time></trkpt><trkpt lat="42.74827883895865" lon="10.263521867503684"><ele>99.0</ele><time>2026-04-19T08:48:44.896Z</time></trkpt><trkpt lat="42.74826823834022" lon="10.263622054870456"><ele>99.0</ele><time>2026-04-19T08:48:45.896Z</time></trkpt><trkpt lat="42.74822894269901" lon="10.263715352690847"><ele>99.0</ele><time>2026-04-19T08:48:46.896Z</time></trkpt><trkpt lat="42.74817392789851" lon="10.263801883897948"><ele>99.0</ele><time>2026-04-19T08:48:47.896Z</time></trkpt><trkpt lat="42.74813245000933" lon="10.263902945833957"><ele>97.80000000000001</ele><time>2026-04-19T08:48:48.896Z</time></trkpt><trkpt lat="42.74810955545719" lon="10.264014345146357"><ele>96.60000000000001</ele><time>2026-04-19T08:48:49.896Z</time></trkpt><trkpt lat="42.74810828481462" lon="10.264123408656799"><ele>95.4</ele><time>2026-04-19T08:48:50.896Z</time></trkpt><trkpt lat="42.74807455999562" lon="10.264222097188936"><ele>94.2</ele><time>2026-04-19T08:48:52.896Z</time></trkpt><trkpt lat="42.74812486842805" lon="10.264359359644434"><ele>93.0</ele><time>2026-04-19T08:49:18.895Z</time></trkpt><trkpt lat="42.74815741598224" lon="10.264532590754255"><ele>93.0</ele><time>2026-04-19T08:49:20.895Z</time></trkpt><trkpt lat="42.748182252873725" lon="10.264628712465388"><ele>93.0</ele><time>2026-04-19T08:49:21.895Z</time></trkpt><trkpt lat="42.74825939913663" lon="10.264759078646142"><ele>93.0</ele><time>2026-04-19T08:49:23.895Z</time></trkpt><trkpt lat="42.748331728591516" lon="10.264870237491541"><ele>93.0</ele><time>2026-04-19T08:49:25.895Z</time></trkpt><trkpt lat="42.74837911356895" lon="10.264936794812256"><ele>93.0</ele><time>2026-04-19T08:49:27.895Z</time></trkpt><trkpt lat="42.74844037897844" lon="10.264987806675164"><ele>93.0</ele><time>2026-04-19T08:49:29.895Z</time></trkpt><trkpt lat="42.74851228987611" lon="10.265061113681432"><ele>97.60000000000001</ele><time>2026-04-19T08:49:31.895Z</time></trkpt><trkpt lat="42.74860932403399" lon="10.265101172123725"><ele>102.2</ele><time>2026-04-19T08:49:33.895Z</time></trkpt><trkpt lat="42.74869592231217" lon="10.265138872754985"><ele>106.8</ele><time>2026-04-19T08:49:35.895Z</time></trkpt><trkpt lat="42.748770343961255" lon="10.265280486030159"><ele>111.4</ele><time>2026-04-19T08:49:38.894Z</time></trkpt><trkpt lat="42.748820543423" lon="10.265361891268737"><ele>116.0</ele><time>2026-04-19T08:49:39.894Z</time></trkpt><trkpt lat="42.74887027988586" lon="10.26544332821585"><ele>116.0</ele><time>2026-04-19T08:49:40.894Z</time></trkpt><trkpt lat="42.748937112734765" lon="10.265562163180018"><ele>116.0</ele><time>2026-04-19T08:49:42.894Z</time></trkpt><trkpt lat="42.749012772323056" lon="10.265687023104881"><ele>116.0</ele><time>2026-04-19T08:49:44.894Z</time></trkpt><trkpt lat="42.74911026641064" lon="10.265773311940139"><ele>116.0</ele><time>2026-04-19T08:49:46.894Z</time></trkpt><trkpt lat="42.749214078566084" lon="10.265804152854312"><ele>113.33333333333333</ele><time>2026-04-19T08:49:48.894Z</time></trkpt><trkpt lat="42.749297379975175" lon="10.26575562242753"><ele>110.66666666666666</ele><time>2026-04-19T08:49:50.894Z</time></trkpt><trkpt lat="42.74936458968691" lon="10.265708755833606"><ele>108.0</ele><time>2026-04-19T08:49:52.894Z</time></trkpt><trkpt lat="42.74940697554072" lon="10.265805425222828"><ele>105.33333333333334</ele><time>2026-04-19T08:49:55.894Z</time></trkpt><trkpt lat="42.74937164251769" lon="10.265945201557436"><ele>102.66666666666667</ele><time>2026-04-19T08:49:57.894Z</time></trkpt><trkpt lat="42.74934239594327" lon="10.266031346397815"><ele>100.0</ele><time>2026-04-19T08:49:58.894Z</time></trkpt><trkpt lat="42.74932902530955" lon="10.266149980160362"><ele>100.00000000000001</ele><time>2026-04-19T08:49:59.894Z</time></trkpt><trkpt lat="42.74931577717021" lon="10.266249891179532"><ele>100.0</ele><time>2026-04-19T08:50:00.894Z</time></trkpt><trkpt lat="42.7493071951561" lon="10.266358320991285"><ele>100.0</ele><time>2026-04-19T08:50:01.894Z</time></trkpt><trkpt lat="42.749314318550745" lon="10.26645686905981"><ele>100.0</ele><time>2026-04-19T08:50:02.896Z</time></trkpt><trkpt lat="42.74932018737585" lon="10.26654911248174"><ele>100.00000000000001</ele><time>2026-04-19T08:50:03.896Z</time></trkpt><trkpt lat="42.74933416256565" lon="10.266646918457019"><ele>100.0</ele><time>2026-04-19T08:50:04.895Z</time></trkpt><trkpt lat="42.749341074737636" lon="10.266815093902785"><ele>99.16666666666667</ele><time>2026-04-19T08:50:06.896Z</time></trkpt><trkpt lat="42.749373234256325" lon="10.266945487958468"><ele>98.33333333333334</ele><time>2026-04-19T08:50:08.895Z</time></trkpt><trkpt lat="42.7493796606521" lon="10.267036023150567"><ele>97.5</ele><time>2026-04-19T08:50:10.896Z</time></trkpt><trkpt lat="42.749430829820604" lon="10.26715763218938"><ele>96.66666666666667</ele><time>2026-04-19T08:50:12.895Z</time></trkpt><trkpt lat="42.74947720699919" lon="10.267233126054423"><ele>95.83333333333334</ele><time>2026-04-19T08:50:13.895Z</time></trkpt><trkpt lat="42.74953784271353" lon="10.267286412857134"><ele>95.0</ele><time>2026-04-19T08:50:14.895Z</time></trkpt><trkpt lat="42.7496332194953" lon="10.26736813575592"><ele>101.6</ele><time>2026-04-19T08:50:16.895Z</time></trkpt><trkpt lat="42.74970359549291" lon="10.267435072509047"><ele>108.2</ele><time>2026-04-19T08:50:18.895Z</time></trkpt><trkpt lat="42.74978516319833" lon="10.26752071421257"><ele>114.80000000000001</ele><time>2026-04-19T08:50:20.895Z</time></trkpt><trkpt lat="42.7498641425887" lon="10.267607537229148"><ele>121.4</ele><time>2026-04-19T08:50:22.895Z</time></trkpt><trkpt lat="42.74993404156104" lon="10.267706444498836"><ele>128.0</ele><time>2026-04-19T08:50:24.895Z</time></trkpt><trkpt lat="42.75000468892967" lon="10.267788041162865"><ele>127.99999999999999</ele><time>2026-04-19T08:50:26.895Z</time></trkpt><trkpt lat="42.7500889709951" lon="10.267800177195522"><ele>128.0</ele><time>2026-04-19T08:50:28.895Z</time></trkpt><trkpt lat="42.75014525746574" lon="10.267877527410409"><ele>128.0</ele><time>2026-04-19T08:50:30.895Z</time></trkpt><trkpt lat="42.750218671739624" lon="10.267905566654772"><ele>128.0</ele><time>2026-04-19T08:50:32.895Z</time></trkpt><trkpt lat="42.75030228771719" lon="10.267973689069956"><ele>127.99999999999999</ele><time>2026-04-19T08:50:34.895Z</time></trkpt><trkpt lat="42.75035010233838" lon="10.268059631432145"><ele>128.0</ele><time>2026-04-19T08:50:36.895Z</time></trkpt><trkpt lat="42.75038064559179" lon="10.268146602662602"><ele>133.4</ele><time>2026-04-19T08:50:38.895Z</time></trkpt><trkpt lat="42.75042369153084" lon="10.268264435555007"><ele>138.8</ele><time>2026-04-19T08:50:40.894Z</time></trkpt><trkpt lat="42.75049817503369" lon="10.268393786840543"><ele>144.2</ele><time>2026-04-19T08:50:42.894Z</time></trkpt><trkpt lat="42.750510639284414" lon="10.268481279147545"><ele>149.6</ele><time>2026-04-19T08:50:43.894Z</time></trkpt><trkpt lat="42.75057305019356" lon="10.268628013932151"><ele>155.0</ele><time>2026-04-19T08:50:45.894Z</time></trkpt><trkpt lat="42.750613253918246" lon="10.268717638637574"><ele>155.0</ele><time>2026-04-19T08:50:46.894Z</time></trkpt><trkpt lat="42.750691318641586" lon="10.268826041974757"><ele>155.0</ele><time>2026-04-19T08:50:48.894Z</time></trkpt><trkpt lat="42.75074837559305" lon="10.268916686869957"><ele>155.0</ele><time>2026-04-19T08:50:50.894Z</time></trkpt><trkpt lat="42.750811079297094" lon="10.26903911730348"><ele>155.0</ele><time>2026-04-19T08:50:52.894Z</time></trkpt><trkpt lat="42.7509019187561" lon="10.26913367389468"><ele>155.0</ele><time>2026-04-19T08:50:54.894Z</time></trkpt><trkpt lat="42.750977499430185" lon="10.269213390630735"><ele>152.4</ele><time>2026-04-19T08:50:56.894Z</time></trkpt><trkpt lat="42.75096474344217" lon="10.269348614998604"><ele>149.8</ele><time>2026-04-19T08:50:57.894Z</time></trkpt><trkpt lat="42.75102005623299" lon="10.269433066630665"><ele>147.2</ele><time>2026-04-19T08:51:00.894Z</time></trkpt><trkpt lat="42.75109100191177" lon="10.269458506354388"><ele>144.6</ele><time>2026-04-19T08:51:02.894Z</time></trkpt><trkpt lat="42.751157666603554" lon="10.269287368391964"><ele>142.0</ele><time>2026-04-19T08:51:06.894Z</time></trkpt><trkpt lat="42.75114073793264" lon="10.269186429784416"><ele>142.0</ele><time>2026-04-19T08:51:07.894Z</time></trkpt><trkpt lat="42.75108876290444" lon="10.269099442851646"><ele>142.0</ele><time>2026-04-19T08:51:08.894Z</time></trkpt><trkpt lat="42.75102470456809" lon="10.268991316385572"><ele>142.0</ele><time>2026-04-19T08:51:09.894Z</time></trkpt><trkpt lat="42.75097431322667" lon="10.268865104335152"><ele>142.0</ele><time>2026-04-19T08:51:10.893Z</time></trkpt><trkpt lat="42.75094680367642" lon="10.26873933422956"><ele>142.0</ele><time>2026-04-19T08:51:11.893Z</time></trkpt><trkpt lat="42.75092203275223" lon="10.268646839218501"><ele>144.6</ele><time>2026-04-19T08:51:12.893Z</time></trkpt><trkpt lat="42.750904226329645" lon="10.268473705891024"><ele>147.2</ele><time>2026-04-19T08:51:14.893Z</time></trkpt><trkpt lat="42.75089986017937" lon="10.268381684485547"><ele>149.8</ele><time>2026-04-19T08:51:15.893Z</time></trkpt><trkpt lat="42.75088163138253" lon="10.268243034312524"><ele>152.4</ele><time>2026-04-19T08:51:17.893Z</time></trkpt><trkpt lat="42.75090596143491" lon="10.268145337786079"><ele>155.0</ele><time>2026-04-19T08:51:20.893Z</time></trkpt><trkpt lat="42.750962782550296" lon="10.268221271894232"><ele>155.0</ele><time>2026-04-19T08:51:22.893Z</time></trkpt><trkpt lat="42.75099411988854" lon="10.268327694915689"><ele>155.0</ele><time>2026-04-19T08:51:25.893Z</time></trkpt><trkpt lat="42.75105288019403" lon="10.268435260488054"><ele>155.0</ele><time>2026-04-19T08:51:28.893Z</time></trkpt><trkpt lat="42.751094728575225" lon="10.268514898259712"><ele>155.0</ele><time>2026-04-19T08:51:30.893Z</time></trkpt><trkpt lat="42.75116212341061" lon="10.26862208625974"><ele>155.0</ele><time>2026-04-19T08:51:32.893Z</time></trkpt><trkpt lat="42.75123541809454" lon="10.268708576427596"><ele>162.33333333333331</ele><time>2026-04-19T08:51:34.893Z</time></trkpt><trkpt lat="42.75130830543676" lon="10.268776967947229"><ele>169.66666666666666</ele><time>2026-04-19T08:51:36.893Z</time></trkpt><trkpt lat="42.75139059233136" lon="10.268833726819587"><ele>177.0</ele><time>2026-04-19T08:51:38.893Z</time></trkpt><trkpt lat="42.75145430564401" lon="10.268852063728751"><ele>184.33333333333331</ele><time>2026-04-19T08:51:52.892Z</time></trkpt><trkpt lat="42.75154508579591" lon="10.268863082906973"><ele>191.66666666666666</ele><time>2026-04-19T08:53:42.89Z</time></trkpt><trkpt lat="42.75161067198092" lon="10.26888546915795"><ele>199.0</ele><time>2026-04-19T08:53:43.89Z</time></trkpt><trkpt lat="42.75167472807626" lon="10.268930679797206"><ele>195.6</ele><time>2026-04-19T08:53:44.89Z</time></trkpt><trkpt lat="42.75169796906696" lon="10.26904700425774"><ele>192.2</ele><time>2026-04-19T08:53:46.89Z</time></trkpt><trkpt lat="42.751667061293155" lon="10.269202184635418"><ele>188.79999999999998</ele><time>2026-04-19T08:53:49.89Z</time></trkpt><trkpt lat="42.75167489977754" lon="10.269332687469124"><ele>185.39999999999998</ele><time>2026-04-19T08:53:50.89Z</time></trkpt><trkpt lat="42.75169858233474" lon="10.269425530570441"><ele>182.0</ele><time>2026-04-19T08:53:51.89Z</time></trkpt><trkpt lat="42.751740168144934" lon="10.269527541470728"><ele>182.0</ele><time>2026-04-19T08:53:53.89Z</time></trkpt><trkpt lat="42.751766405239536" lon="10.269652824942796"><ele>182.0</ele><time>2026-04-19T08:53:55.89Z</time></trkpt><trkpt lat="42.751824228172815" lon="10.269789258851434"><ele>182.0</ele><time>2026-04-19T08:53:57.89Z</time></trkpt><trkpt lat="42.7518523475932" lon="10.269911561198766"><ele>182.0</ele><time>2026-04-19T08:53:59.889Z</time></trkpt><trkpt lat="42.751837000731385" lon="10.270008769422263"><ele>182.0</ele><time>2026-04-19T08:54:02.889Z</time></trkpt><trkpt lat="42.751727120276975" lon="10.270024778456149"><ele>182.5</ele><time>2026-04-19T08:54:03.889Z</time></trkpt><trkpt lat="42.751643480951145" lon="10.270105810430964"><ele>183.0</ele><time>2026-04-19T08:54:05.889Z</time></trkpt><trkpt lat="42.751613587620454" lon="10.27020760930949"><ele>183.5</ele><time>2026-04-19T08:54:07.889Z</time></trkpt><trkpt lat="42.751567023114035" lon="10.270308345380295"><ele>184.0</ele><time>2026-04-19T08:54:09.889Z</time></trkpt><trkpt lat="42.75153975035115" lon="10.270442141989163"><ele>184.5</ele><time>2026-04-19T08:54:11.889Z</time></trkpt><trkpt lat="42.751494422375295" lon="10.27051458933721"><ele>185.0</ele><time>2026-04-19T08:54:13.889Z</time></trkpt><trkpt lat="42.75143301330987" lon="10.270606237219607"><ele>188.8</ele><time>2026-04-19T08:54:15.89Z</time></trkpt><trkpt lat="42.75135397862589" lon="10.270693727010972"><ele>192.6</ele><time>2026-04-19T08:54:17.89Z</time></trkpt><trkpt lat="42.751287580693976" lon="10.27077676286022"><ele>196.39999999999998</ele><time>2026-04-19T08:54:19.889Z</time></trkpt><trkpt lat="42.75123737204996" lon="10.270875700046318"><ele>200.2</ele><time>2026-04-19T08:54:21.889Z</time></trkpt><trkpt lat="42.75116598224932" lon="10.27096368790388"><ele>204.0</ele><time>2026-04-19T08:54:23.889Z</time></trkpt><trkpt lat="42.75118491887315" lon="10.271062609775655"><ele>204.0</ele><time>2026-04-19T08:54:26.889Z</time></trkpt><trkpt lat="42.75124911245893" lon="10.271061966906679"><ele>204.0</ele><time>2026-04-19T08:54:28.889Z</time></trkpt><trkpt lat="42.75132071945683" lon="10.270998191954433"><ele>204.0</ele><time>2026-04-19T08:54:30.889Z</time></trkpt><trkpt lat="42.751409870667096" lon="10.270924373973093"><ele>204.0</ele><time>2026-04-19T08:54:32.889Z</time></trkpt><trkpt lat="42.751513748140816" lon="10.270914573841852"><ele>204.0</ele><time>2026-04-19T08:54:35.889Z</time></trkpt><trkpt lat="42.75157827372499" lon="10.270919177056403"><ele>204.0</ele><time>2026-04-19T08:54:36.889Z</time></trkpt><trkpt lat="42.751701110877626" lon="10.270921116830479"><ele>204.0</ele><time>2026-04-19T08:54:38.889Z</time></trkpt><trkpt lat="42.75181090916362" lon="10.270912770372933"><ele>204.0</ele><time>2026-04-19T08:54:40.889Z</time></trkpt><trkpt lat="42.751870865816315" lon="10.270880780201798"><ele>204.0</ele><time>2026-04-19T08:54:42.889Z</time></trkpt><trkpt lat="42.75193757282886" lon="10.270827371967812"><ele>204.0</ele><time>2026-04-19T08:54:44.889Z</time></trkpt><trkpt lat="42.752003182742925" lon="10.270712254413391"><ele>204.0</ele><time>2026-04-19T08:54:47.888Z</time></trkpt><trkpt lat="42.752070693232994" lon="10.270624276178006"><ele>208.0</ele><time>2026-04-19T08:54:49.888Z</time></trkpt><trkpt lat="42.75214276751364" lon="10.270568978480304"><ele>212.0</ele><time>2026-04-19T08:54:51.888Z</time></trkpt><trkpt lat="42.75221341291128" lon="10.270558696884006"><ele>216.0</ele><time>2026-04-19T08:54:53.888Z</time></trkpt><trkpt lat="42.75224846389706" lon="10.270650015007284"><ele>220.0</ele><time>2026-04-19T08:54:55.888Z</time></trkpt><trkpt lat="42.75218906587973" lon="10.27075540102842"><ele>224.0</ele><time>2026-04-19T08:54:57.888Z</time></trkpt><trkpt lat="42.75215522562582" lon="10.270875852069182"><ele>228.0</ele><time>2026-04-19T08:54:59.888Z</time></trkpt><trkpt lat="42.75213924979874" lon="10.27100074429184"><ele>229.33333333333334</ele><time>2026-04-19T08:55:01.888Z</time></trkpt><trkpt lat="42.75210962026537" lon="10.271085552533526"><ele>230.66666666666669</ele><time>2026-04-19T08:55:03.888Z</time></trkpt><trkpt lat="42.75206750520835" lon="10.271189591453954"><ele>232.0</ele><time>2026-04-19T08:55:05.888Z</time></trkpt><trkpt lat="42.75203397529118" lon="10.271287630665205"><ele>233.33333333333334</ele><time>2026-04-19T08:55:07.888Z</time></trkpt><trkpt lat="42.75201758129205" lon="10.27139984284385"><ele>234.66666666666669</ele><time>2026-04-19T08:55:09.888Z</time></trkpt><trkpt lat="42.75198785367737" lon="10.271494664110413"><ele>236.0</ele><time>2026-04-19T08:55:11.888Z</time></trkpt><trkpt lat="42.752004784454954" lon="10.271611385063672"><ele>238.60000000000002</ele><time>2026-04-19T08:55:13.888Z</time></trkpt><trkpt lat="42.75206919818352" lon="10.271727456286248"><ele>241.20000000000002</ele><time>2026-04-19T08:55:15.888Z</time></trkpt><trkpt lat="42.75211455138948" lon="10.271791353059736"><ele>243.79999999999998</ele><time>2026-04-19T08:55:16.887Z</time></trkpt><trkpt lat="42.75218108164236" lon="10.271938857765056"><ele>246.39999999999998</ele><time>2026-04-19T08:55:18.887Z</time></trkpt><trkpt lat="42.75222613507687" lon="10.272006063059006"><ele>249.0</ele><time>2026-04-19T08:55:19.887Z</time></trkpt><trkpt lat="42.75230737244319" lon="10.272126761004797"><ele>249.0</ele><time>2026-04-19T08:55:21.887Z</time></trkpt><trkpt lat="42.75238149818792" lon="10.272250233243012"><ele>248.99999999999997</ele><time>2026-04-19T08:55:23.887Z</time></trkpt><trkpt lat="42.75245663092963" lon="10.272355773649213"><ele>248.99999999999997</ele><time>2026-04-19T08:55:25.887Z</time></trkpt><trkpt lat="42.752516353892325" lon="10.272473504481304"><ele>249.0</ele><time>2026-04-19T08:55:27.887Z</time></trkpt><trkpt lat="42.752568717525925" lon="10.272584391589842"><ele>249.0</ele><time>2026-04-19T08:55:29.887Z</time></trkpt><trkpt lat="42.752624806415874" lon="10.27268678546124"><ele>248.6</ele><time>2026-04-19T08:55:31.887Z</time></trkpt><trkpt lat="42.7526266326355" lon="10.272812219852947"><ele>248.2</ele><time>2026-04-19T08:55:33.887Z</time></trkpt><trkpt lat="42.75265755354116" lon="10.272897536925232"><ele>247.79999999999998</ele><time>2026-04-19T08:55:37.887Z</time></trkpt><trkpt lat="42.75270347270527" lon="10.27302760169543"><ele>247.39999999999998</ele><time>2026-04-19T08:55:42.887Z</time></trkpt><trkpt lat="42.75275605591964" lon="10.273106949436938"><ele>247.0</ele><time>2026-04-19T08:55:44.887Z</time></trkpt><trkpt lat="42.75281672522193" lon="10.273222647512693"><ele>252.66666666666666</ele><time>2026-04-19T08:55:46.887Z</time></trkpt><trkpt lat="42.752879059695694" lon="10.273325258761124"><ele>258.3333333333333</ele><time>2026-04-19T08:55:48.886Z</time></trkpt><trkpt lat="42.75293196261503" lon="10.273410484303083"><ele>264.0</ele><time>2026-04-19T08:55:50.886Z</time></trkpt><trkpt lat="42.7529795131889" lon="10.273483271077732"><ele>269.6666666666667</ele><time>2026-04-19T08:55:51.886Z</time></trkpt><trkpt lat="42.75302534259319" lon="10.273552817532888"><ele>275.33333333333337</ele><time>2026-04-19T08:55:52.886Z</time></trkpt><trkpt lat="42.75308002606381" lon="10.27363580014374"><ele>281.0</ele><time>2026-04-19T08:55:53.886Z</time></trkpt><trkpt lat="42.75312921576211" lon="10.273717196593527"><ele>281.0</ele><time>2026-04-19T08:55:54.886Z</time></trkpt><trkpt lat="42.75317863325026" lon="10.27380541770987"><ele>281.0</ele><time>2026-04-19T08:55:56.886Z</time></trkpt><trkpt lat="42.75311959581039" lon="10.273864597536871"><ele>281.0</ele><time>2026-04-19T08:55:59.886Z</time></trkpt><trkpt lat="42.753102069077734" lon="10.273973049053014"><ele>281.0</ele><time>2026-04-19T08:56:01.886Z</time></trkpt><trkpt lat="42.75305097386374" lon="10.274025765298385"><ele>281.0</ele><time>2026-04-19T08:56:03.886Z</time></trkpt><trkpt lat="42.75298362440167" lon="10.274114937459935"><ele>281.0</ele><time>2026-04-19T08:58:28.883Z</time></trkpt><trkpt lat="42.75289693277762" lon="10.274153889225317"><ele>280.6</ele><time>2026-04-19T08:58:30.883Z</time></trkpt><trkpt lat="42.752832342890926" lon="10.274204927033582"><ele>280.20000000000005</ele><time>2026-04-19T08:58:31.883Z</time></trkpt><trkpt lat="42.75276495698521" lon="10.2742901812527"><ele>279.79999999999995</ele><time>2026-04-19T08:58:32.884Z</time></trkpt><trkpt lat="42.752675117221585" lon="10.274375258015922"><ele>279.4</ele><time>2026-04-19T08:58:33.884Z</time></trkpt><trkpt lat="42.75260036384275" lon="10.274482945705083"><ele>279.0</ele><time>2026-04-19T08:58:34.883Z</time></trkpt><trkpt lat="42.75252274490638" lon="10.274595583305123"><ele>279.5</ele><time>2026-04-19T08:58:35.883Z</time></trkpt><trkpt lat="42.75246125015415" lon="10.274684791809616"><ele>280.0</ele><time>2026-04-19T08:58:36.883Z</time></trkpt><trkpt lat="42.752405726171816" lon="10.27478860968939"><ele>280.5</ele><time>2026-04-19T08:58:37.883Z</time></trkpt><trkpt lat="42.75233255999847" lon="10.274838310920101"><ele>281.0</ele><time>2026-04-19T08:58:38.884Z</time></trkpt><trkpt lat="42.75227372702179" lon="10.274876637928477"><ele>281.5</ele><time>2026-04-19T08:58:39.884Z</time></trkpt><trkpt lat="42.752165656435004" lon="10.274856174690365"><ele>282.0</ele><time>2026-04-19T08:58:41.883Z</time></trkpt><trkpt lat="42.7520803105431" lon="10.274850300377876"><ele>282.0</ele><time>2026-04-19T08:58:42.883Z</time></trkpt><trkpt lat="42.75199516148342" lon="10.27487605980487"><ele>282.0</ele><time>2026-04-19T08:58:43.883Z</time></trkpt><trkpt lat="42.751920088194225" lon="10.274902121587813"><ele>282.0</ele><time>2026-04-19T08:58:44.883Z</time></trkpt><trkpt lat="42.751841814395014" lon="10.274955083556975"><ele>282.0</ele><time>2026-04-19T08:58:45.883Z</time></trkpt><trkpt lat="42.75180050657231" lon="10.275061402588175"><ele>282.0</ele><time>2026-04-19T08:58:46.883Z</time></trkpt><trkpt lat="42.751754169197824" lon="10.275168733859084"><ele>282.0</ele><time>2026-04-19T08:58:47.883Z</time></trkpt><trkpt lat="42.751715392196175" lon="10.275295061939492"><ele>282.0</ele><time>2026-04-19T08:58:48.883Z</time></trkpt><trkpt lat="42.751704702289345" lon="10.275421587230902"><ele>282.0</ele><time>2026-04-19T08:58:49.883Z</time></trkpt><trkpt lat="42.75168475304757" lon="10.275537934036029"><ele>282.0</ele><time>2026-04-19T08:58:50.883Z</time></trkpt><trkpt lat="42.751660358758656" lon="10.27564534364976"><ele>282.0</ele><time>2026-04-19T08:58:51.883Z</time></trkpt><trkpt lat="42.75162110178397" lon="10.27578250833946"><ele>282.0</ele><time>2026-04-19T08:58:53.883Z</time></trkpt><trkpt lat="42.75158496864121" lon="10.275890337707947"><ele>282.0</ele><time>2026-04-19T08:58:54.883Z</time></trkpt><trkpt lat="42.751531561516046" lon="10.276049180229162"><ele>282.0</ele><time>2026-04-19T08:58:56.883Z</time></trkpt><trkpt lat="42.7514974236968" lon="10.276143891827775"><ele>282.0</ele><time>2026-04-19T08:58:57.883Z</time></trkpt><trkpt lat="42.751442074329425" lon="10.276239364787507"><ele>282.0</ele><time>2026-04-19T08:58:58.883Z</time></trkpt><trkpt lat="42.75140073393437" lon="10.276339282178238"><ele>282.0</ele><time>2026-04-19T08:58:59.883Z</time></trkpt><trkpt lat="42.75138117419351" lon="10.27645713103249"><ele>284.4</ele><time>2026-04-19T08:59:00.883Z</time></trkpt><trkpt lat="42.75135475261798" lon="10.276551723378201"><ele>286.79999999999995</ele><time>2026-04-19T08:59:01.883Z</time></trkpt><trkpt lat="42.75132146374451" lon="10.276662713967108"><ele>289.2</ele><time>2026-04-19T08:59:02.883Z</time></trkpt><trkpt lat="42.75128787543503" lon="10.276796223280494"><ele>291.59999999999997</ele><time>2026-04-19T08:59:03.883Z</time></trkpt><trkpt lat="42.7512565979925" lon="10.276937933720864"><ele>294.0</ele><time>2026-04-19T08:59:04.883Z</time></trkpt><trkpt lat="42.7512192516257" lon="10.2770959325061"><ele>294.0</ele><time>2026-04-19T08:59:05.883Z</time></trkpt><trkpt lat="42.75118343137156" lon="10.277224156762756"><ele>294.0</ele><time>2026-04-19T08:59:06.883Z</time></trkpt><trkpt lat="42.751146016402544" lon="10.277330332408415"><ele>294.0</ele><time>2026-04-19T08:59:07.883Z</time></trkpt><trkpt lat="42.75111470769531" lon="10.277435810235804"><ele>294.0</ele><time>2026-04-19T08:59:08.883Z</time></trkpt><trkpt lat="42.75107861897397" lon="10.277568120925507"><ele>294.0</ele><time>2026-04-19T08:59:10.882Z</time></trkpt><trkpt lat="42.751040726591185" lon="10.277649708709356"><ele>294.0</ele><time>2026-04-19T08:59:11.882Z</time></trkpt><trkpt lat="42.75099965687172" lon="10.277791288596175"><ele>294.0</ele><time>2026-04-19T08:59:13.882Z</time></trkpt><trkpt lat="42.750975453688895" lon="10.277892714494232"><ele>294.0</ele><time>2026-04-19T08:59:14.882Z</time></trkpt><trkpt lat="42.75095987183378" lon="10.277987740035133"><ele>294.0</ele><time>2026-04-19T08:59:15.882Z</time></trkpt><trkpt lat="42.7509523158666" lon="10.278107046352108"><ele>294.0</ele><time>2026-04-19T08:59:16.882Z</time></trkpt><trkpt lat="42.75095179320162" lon="10.278197282813277"><ele>294.0</ele><time>2026-04-19T08:59:17.882Z</time></trkpt><trkpt lat="42.75109981488215" lon="10.278298060770334"><ele>294.8333333333333</ele><time>2026-04-19T08:59:34.882Z</time></trkpt><trkpt lat="42.75103883416982" lon="10.278366386644507"><ele>295.6666666666667</ele><time>2026-04-19T08:59:39.882Z</time></trkpt><trkpt lat="42.7509786982201" lon="10.278392788336495"><ele>296.5</ele><time>2026-04-19T08:59:47.881Z</time></trkpt><trkpt lat="42.751027266257644" lon="10.278328605415263"><ele>297.33333333333337</ele><time>2026-04-19T09:01:30.878Z</time></trkpt><trkpt lat="42.750974239247185" lon="10.278381791279159"><ele>298.1666666666667</ele><time>2026-04-19T09:01:33.878Z</time></trkpt><trkpt lat="42.75087279145796" lon="10.27842767532178"><ele>299.0</ele><time>2026-04-19T09:01:35.877Z</time></trkpt><trkpt lat="42.75077774161195" lon="10.278529699958675"><ele>299.0</ele><time>2026-04-19T09:01:37.877Z</time></trkpt><trkpt lat="42.75069620418393" lon="10.278528146004934"><ele>299.0</ele><time>2026-04-19T09:01:38.877Z</time></trkpt><trkpt lat="42.75064151607879" lon="10.278578631490952"><ele>299.0</ele><time>2026-04-19T09:01:39.877Z</time></trkpt><trkpt lat="42.75058314315985" lon="10.278631571462006"><ele>299.0</ele><time>2026-04-19T09:01:40.877Z</time></trkpt><trkpt lat="42.750528152443515" lon="10.278680381680218"><ele>299.0</ele><time>2026-04-19T09:01:41.877Z</time></trkpt><trkpt lat="42.750429481023545" lon="10.278756807485124"><ele>299.0</ele><time>2026-04-19T09:01:43.877Z</time></trkpt><trkpt lat="42.75034102568981" lon="10.278750670915905"><ele>299.0</ele><time>2026-04-19T09:01:45.877Z</time></trkpt><trkpt lat="42.7502632901099" lon="10.278662923469694"><ele>299.0</ele><time>2026-04-19T09:01:47.877Z</time></trkpt><trkpt lat="42.75015567305788" lon="10.278667161049706"><ele>299.0</ele><time>2026-04-19T09:01:49.877Z</time></trkpt><trkpt lat="42.750098717198945" lon="10.27876609473188"><ele>299.0</ele><time>2026-04-19T09:01:50.877Z</time></trkpt><trkpt lat="42.750027696710276" lon="10.278789055752924"><ele>299.0</ele><time>2026-04-19T09:01:51.877Z</time></trkpt><trkpt lat="42.74992868469668" lon="10.27880925462771"><ele>301.0</ele><time>2026-04-19T09:01:53.877Z</time></trkpt><trkpt lat="42.74983025203965" lon="10.27873886974866"><ele>303.0</ele><time>2026-04-19T09:01:55.877Z</time></trkpt><trkpt lat="42.74971403145781" lon="10.278735229115336"><ele>305.0</ele><time>2026-04-19T09:01:57.877Z</time></trkpt><trkpt lat="42.749587060467356" lon="10.278735640376993"><ele>307.0</ele><time>2026-04-19T09:01:59.877Z</time></trkpt><trkpt lat="42.74951407161215" lon="10.278758304952795"><ele>309.0</ele><time>2026-04-19T09:02:00.877Z</time></trkpt><trkpt lat="42.74945225299385" lon="10.278819048570359"><ele>309.0</ele><time>2026-04-19T09:02:01.877Z</time></trkpt><trkpt lat="42.74939256734165" lon="10.278863077698377"><ele>309.0</ele><time>2026-04-19T09:02:02.877Z</time></trkpt><trkpt lat="42.74929121020853" lon="10.278894255442696"><ele>309.0</ele><time>2026-04-19T09:02:04.876Z</time></trkpt><trkpt lat="42.74921503044936" lon="10.2789501467169"><ele>309.0</ele><time>2026-04-19T09:02:06.876Z</time></trkpt><trkpt lat="42.7491325062015" lon="10.278966295252031"><ele>309.0</ele><time>2026-04-19T09:02:08.876Z</time></trkpt><trkpt lat="42.749055915339646" lon="10.278933431857228"><ele>309.0</ele><time>2026-04-19T09:02:10.876Z</time></trkpt><trkpt lat="42.74898666366194" lon="10.278915359743861"><ele>309.6666666666667</ele><time>2026-04-19T09:02:12.876Z</time></trkpt><trkpt lat="42.74891143482378" lon="10.278946220511187"><ele>310.3333333333333</ele><time>2026-04-19T09:02:22.876Z</time></trkpt><trkpt lat="42.748826915849605" lon="10.278998916528844"><ele>311.0</ele><time>2026-04-19T09:02:24.876Z</time></trkpt><trkpt lat="42.74877141587492" lon="10.279134559960397"><ele>311.66666666666663</ele><time>2026-04-19T09:02:26.876Z</time></trkpt><trkpt lat="42.74875725632995" lon="10.279247433131363"><ele>312.3333333333333</ele><time>2026-04-19T09:02:28.876Z</time></trkpt><trkpt lat="42.74875786820791" lon="10.279352398117634"><ele>313.0</ele><time>2026-04-19T09:02:30.876Z</time></trkpt><trkpt lat="42.74872479891067" lon="10.279467732406047"><ele>313.0</ele><time>2026-04-19T09:02:32.876Z</time></trkpt><trkpt lat="42.74864763963251" lon="10.279614897948223"><ele>313.0</ele><time>2026-04-19T09:02:34.875Z</time></trkpt><trkpt lat="42.748615541318024" lon="10.279704529979607"><ele>313.0</ele><time>2026-04-19T09:02:35.875Z</time></trkpt><trkpt lat="42.74857885531668" lon="10.279792567264385"><ele>313.0</ele><time>2026-04-19T09:02:36.875Z</time></trkpt><trkpt lat="42.74851719371616" lon="10.279922131572167"><ele>313.0</ele><time>2026-04-19T09:02:38.876Z</time></trkpt><trkpt lat="42.74843815579423" lon="10.280000432346267"><ele>312.16666666666663</ele><time>2026-04-19T09:02:40.876Z</time></trkpt><trkpt lat="42.74838072471491" lon="10.280129088433615"><ele>311.3333333333333</ele><time>2026-04-19T09:02:43.876Z</time></trkpt><trkpt lat="42.74831908870783" lon="10.280195629803027"><ele>310.5</ele><time>2026-04-19T09:02:45.877Z</time></trkpt><trkpt lat="42.74825878121091" lon="10.280278034807353"><ele>309.6666666666667</ele><time>2026-04-19T09:02:47.877Z</time></trkpt><trkpt lat="42.74815771163365" lon="10.280312624008541"><ele>308.83333333333337</ele><time>2026-04-19T09:02:49.876Z</time></trkpt><trkpt lat="42.74810024515391" lon="10.280354663042875"><ele>308.0</ele><time>2026-04-19T09:02:50.877Z</time></trkpt><trkpt lat="42.748044762375734" lon="10.28041596268091"><ele>308.0</ele><time>2026-04-19T09:02:51.877Z</time></trkpt><trkpt lat="42.747963447962846" lon="10.280500533252525"><ele>308.0</ele><time>2026-04-19T09:02:53.877Z</time></trkpt><trkpt lat="42.74786658486332" lon="10.280525001710677"><ele>308.0</ele><time>2026-04-19T09:02:55.876Z</time></trkpt><trkpt lat="42.74778937987543" lon="10.280488240745111"><ele>308.0</ele><time>2026-04-19T09:02:57.876Z</time></trkpt><trkpt lat="42.74769798346728" lon="10.28044081961802"><ele>308.0</ele><time>2026-04-19T09:02:59.876Z</time></trkpt><trkpt lat="42.74761639529197" lon="10.280496330051792"><ele>306.42857142857144</ele><time>2026-04-19T09:03:01.876Z</time></trkpt><trkpt lat="42.747556519688764" lon="10.280563923642545"><ele>304.8571428571429</ele><time>2026-04-19T09:03:03.876Z</time></trkpt><trkpt lat="42.747498202680745" lon="10.280605779274923"><ele>303.2857142857143</ele><time>2026-04-19T09:03:05.876Z</time></trkpt><trkpt lat="42.747429903052854" lon="10.28062469921905"><ele>301.7142857142857</ele><time>2026-04-19T09:03:07.876Z</time></trkpt><trkpt lat="42.74735634109617" lon="10.280632674037419"><ele>300.14285714285717</ele><time>2026-04-19T09:03:11.876Z</time></trkpt><trkpt lat="42.747288446247545" lon="10.280656210953152"><ele>298.57142857142856</ele><time>2026-04-19T09:03:15.876Z</time></trkpt><trkpt lat="42.74721550172029" lon="10.280649617672621"><ele>297.0</ele><time>2026-04-19T09:03:20.876Z</time></trkpt><trkpt lat="42.74714024080117" lon="10.280654539592312"><ele>297.0</ele><time>2026-04-19T09:03:22.876Z</time></trkpt><trkpt lat="42.747065290249814" lon="10.280691532534682"><ele>297.0</ele><time>2026-04-19T09:03:24.876Z</time></trkpt><trkpt lat="42.74695010762558" lon="10.280817890744903"><ele>297.0</ele><time>2026-04-19T09:03:26.876Z</time></trkpt><trkpt lat="42.74690482105573" lon="10.280889842094652"><ele>297.0</ele><time>2026-04-19T09:03:27.875Z</time></trkpt><trkpt lat="42.74681003256483" lon="10.280948025417189"><ele>297.0</ele><time>2026-04-19T09:03:29.875Z</time></trkpt><trkpt lat="42.746696388800785" lon="10.2809700351245"><ele>295.2</ele><time>2026-04-19T09:03:31.875Z</time></trkpt><trkpt lat="42.74657746582822" lon="10.280967692039022"><ele>293.4</ele><time>2026-04-19T09:03:33.875Z</time></trkpt><trkpt lat="42.746514322715846" lon="10.280969134571523"><ele>291.6</ele><time>2026-04-19T09:03:34.875Z</time></trkpt><trkpt lat="42.746447281479675" lon="10.280978626919564"><ele>289.8</ele><time>2026-04-19T09:03:35.875Z</time></trkpt><trkpt lat="42.74633394880516" lon="10.280985424880939"><ele>288.0</ele><time>2026-04-19T09:03:37.875Z</time></trkpt><trkpt lat="42.74623189173496" lon="10.28095084525846"><ele>288.0</ele><time>2026-04-19T09:03:39.875Z</time></trkpt><trkpt lat="42.74613511638727" lon="10.280968926059765"><ele>288.0</ele><time>2026-04-19T09:03:41.875Z</time></trkpt><trkpt lat="42.74602896711079" lon="10.280977584627367"><ele>288.0</ele><time>2026-04-19T09:03:43.875Z</time></trkpt><trkpt lat="42.74590199159711" lon="10.280986017229289"><ele>288.0</ele><time>2026-04-19T09:03:45.875Z</time></trkpt><trkpt lat="42.74579556862642" lon="10.28102157493602"><ele>288.0</ele><time>2026-04-19T09:03:47.875Z</time></trkpt><trkpt lat="42.74569267912522" lon="10.28105933144878"><ele>287.4</ele><time>2026-04-19T09:03:49.875Z</time></trkpt><trkpt lat="42.74559400503822" lon="10.281101551966945"><ele>286.8</ele><time>2026-04-19T09:03:51.875Z</time></trkpt><trkpt lat="42.745493983910656" lon="10.281164016893355"><ele>286.2</ele><time>2026-04-19T09:03:53.875Z</time></trkpt><trkpt lat="42.74540272038252" lon="10.281216294024196"><ele>285.6</ele><time>2026-04-19T09:03:55.875Z</time></trkpt><trkpt lat="42.745316008062986" lon="10.281229621850978"><ele>285.0</ele><time>2026-04-19T09:03:57.875Z</time></trkpt><trkpt lat="42.745196870271265" lon="10.281255747679477"><ele>284.2</ele><time>2026-04-19T09:03:59.874Z</time></trkpt><trkpt lat="42.7450885440934" lon="10.281284542368228"><ele>283.4</ele><time>2026-04-19T09:04:01.874Z</time></trkpt><trkpt lat="42.74497672513354" lon="10.281354349277093"><ele>282.6</ele><time>2026-04-19T09:04:03.874Z</time></trkpt><trkpt lat="42.7448603810661" lon="10.281424824602798"><ele>281.8</ele><time>2026-04-19T09:04:05.874Z</time></trkpt><trkpt lat="42.74479677844216" lon="10.281485296658374"><ele>281.0</ele><time>2026-04-19T09:04:07.874Z</time></trkpt><trkpt lat="42.74474468969483" lon="10.281552215854939"><ele>281.00000000000006</ele><time>2026-04-19T09:04:09.874Z</time></trkpt><trkpt lat="42.744684468025994" lon="10.28152425755643"><ele>281.0</ele><time>2026-04-19T09:04:16.874Z</time></trkpt><trkpt lat="42.74468597342256" lon="10.281611383161403"><ele>281.0</ele><time>2026-04-19T09:05:34.872Z</time></trkpt><trkpt lat="42.744644735206805" lon="10.281533877896349"><ele>281.0</ele><time>2026-04-19T09:13:00.861Z</time></trkpt><trkpt lat="42.74472428132416" lon="10.28155204784111"><ele>281.0</ele><time>2026-04-19T09:18:19.861Z</time></trkpt><trkpt lat="42.74478477036647" lon="10.281503350455893"><ele>281.00000000000006</ele><time>2026-04-19T09:18:21.861Z</time></trkpt><trkpt lat="42.74485453885424" lon="10.281417487101692"><ele>281.0</ele><time>2026-04-19T09:18:23.861Z</time></trkpt><trkpt lat="42.744961877392356" lon="10.281353332605615"><ele>280.8</ele><time>2026-04-19T09:18:25.861Z</time></trkpt><trkpt lat="42.74502886925974" lon="10.281335077725727"><ele>280.6</ele><time>2026-04-19T09:18:26.861Z</time></trkpt><trkpt lat="42.74511414408186" lon="10.281301843274623"><ele>280.4</ele><time>2026-04-19T09:18:28.861Z</time></trkpt><trkpt lat="42.745233152043944" lon="10.281270919590769"><ele>280.2</ele><time>2026-04-19T09:18:30.861Z</time></trkpt><trkpt lat="42.74535388622324" lon="10.281234828239292"><ele>280.0</ele><time>2026-04-19T09:18:32.861Z</time></trkpt><trkpt lat="42.74541712210782" lon="10.281217859289375"><ele>281.0</ele><time>2026-04-19T09:18:33.861Z</time></trkpt><trkpt lat="42.74551404772645" lon="10.28116872740823"><ele>282.0</ele><time>2026-04-19T09:18:35.86Z</time></trkpt><trkpt lat="42.74561004844648" lon="10.281105735154497"><ele>283.0</ele><time>2026-04-19T09:18:37.86Z</time></trkpt><trkpt lat="42.74572546050944" lon="10.281070202643397"><ele>284.0</ele><time>2026-04-19T09:18:39.86Z</time></trkpt><trkpt lat="42.74579684565857" lon="10.28105419777722"><ele>285.0</ele><time>2026-04-19T09:18:40.86Z</time></trkpt><trkpt lat="42.74586945281784" lon="10.281027689554808"><ele>285.0</ele><time>2026-04-19T09:18:41.86Z</time></trkpt><trkpt lat="42.745938998684046" lon="10.281014050010755"><ele>285.0</ele><time>2026-04-19T09:18:42.86Z</time></trkpt><trkpt lat="42.74606550133988" lon="10.28100859910603"><ele>285.0</ele><time>2026-04-19T09:18:44.86Z</time></trkpt><trkpt lat="42.74617009699265" lon="10.281017154370677"><ele>285.0</ele><time>2026-04-19T09:18:46.86Z</time></trkpt><trkpt lat="42.7462890082522" lon="10.280994475331394"><ele>285.0</ele><time>2026-04-19T09:18:48.86Z</time></trkpt><trkpt lat="42.74640571651558" lon="10.281034000362487"><ele>285.42857142857144</ele><time>2026-04-19T09:18:50.86Z</time></trkpt><trkpt lat="42.74647064709828" lon="10.281022467516108"><ele>285.8571428571429</ele><time>2026-04-19T09:18:51.86Z</time></trkpt><trkpt lat="42.7465387388741" lon="10.281001368811854"><ele>286.28571428571433</ele><time>2026-04-19T09:18:52.86Z</time></trkpt><trkpt lat="42.74660477140994" lon="10.281001770843895"><ele>286.7142857142857</ele><time>2026-04-19T09:18:53.86Z</time></trkpt><trkpt lat="42.74667367490382" lon="10.2809900079569"><ele>287.14285714285717</ele><time>2026-04-19T09:18:54.86Z</time></trkpt><trkpt lat="42.746738003812325" lon="10.280980149963419"><ele>287.5714285714286</ele><time>2026-04-19T09:18:55.86Z</time></trkpt><trkpt lat="42.74680683295122" lon="10.28095250895888"><ele>288.0</ele><time>2026-04-19T09:18:56.86Z</time></trkpt><trkpt lat="42.746880414256474" lon="10.280919930804327"><ele>289.28571428571433</ele><time>2026-04-19T09:18:57.86Z</time></trkpt><trkpt lat="42.74694329602962" lon="10.280883642160031"><ele>290.57142857142856</ele><time>2026-04-19T09:18:58.86Z</time></trkpt><trkpt lat="42.74699408715852" lon="10.280821513535784"><ele>291.8571428571429</ele><time>2026-04-19T09:18:59.86Z</time></trkpt><trkpt lat="42.747038515638216" lon="10.280751855749697"><ele>293.14285714285717</ele><time>2026-04-19T09:19:00.86Z</time></trkpt><trkpt lat="42.74710422410952" lon="10.280692602580316"><ele>294.42857142857144</ele><time>2026-04-19T09:19:02.86Z</time></trkpt><trkpt lat="42.747171701337805" lon="10.280677202741273"><ele>295.7142857142857</ele><time>2026-04-19T09:19:04.86Z</time></trkpt><trkpt lat="42.74726149997808" lon="10.280656792852042"><ele>297.0</ele><time>2026-04-19T09:19:06.86Z</time></trkpt><trkpt lat="42.74733888823422" lon="10.28062973990378"><ele>297.0</ele><time>2026-04-19T09:19:12.859Z</time></trkpt><trkpt lat="42.74741321006368" lon="10.28063785681621"><ele>297.0</ele><time>2026-04-19T09:19:24.859Z</time></trkpt><trkpt lat="42.747508803043466" lon="10.280619226607152"><ele>297.0</ele><time>2026-04-19T09:19:32.86Z</time></trkpt><trkpt lat="42.747559525737465" lon="10.280565405291595"><ele>297.0</ele><time>2026-04-19T09:19:34.859Z</time></trkpt><trkpt lat="42.74762728467161" lon="10.280481482797565"><ele>297.0</ele><time>2026-04-19T09:19:44.859Z</time></trkpt><trkpt lat="42.747729230209565" lon="10.280449217970794"><ele>297.0</ele><time>2026-04-19T09:19:46.859Z</time></trkpt><trkpt lat="42.74778842449034" lon="10.280495013522513"><ele>299.2</ele><time>2026-04-19T09:19:47.859Z</time></trkpt><trkpt lat="42.74786022348935" lon="10.280553858943819"><ele>301.4</ele><time>2026-04-19T09:19:49.859Z</time></trkpt><trkpt lat="42.74798113722489" lon="10.280508237280086"><ele>303.6</ele><time>2026-04-19T09:19:51.859Z</time></trkpt><trkpt lat="42.74806768333605" lon="10.280413207430769"><ele>305.8</ele><time>2026-04-19T09:19:53.859Z</time></trkpt><trkpt lat="42.748123967298945" lon="10.28034956707371"><ele>308.0</ele><time>2026-04-19T09:19:54.859Z</time></trkpt><trkpt lat="42.748233205066086" lon="10.280300712880306"><ele>308.0</ele><time>2026-04-19T09:19:56.859Z</time></trkpt><trkpt lat="42.748284115474725" lon="10.280245876910229"><ele>308.0</ele><time>2026-04-19T09:19:58.859Z</time></trkpt><trkpt lat="42.748357136373905" lon="10.280131062473586"><ele>308.0</ele><time>2026-04-19T09:20:00.859Z</time></trkpt><trkpt lat="42.748413634743855" lon="10.280034267884952"><ele>308.0</ele><time>2026-04-19T09:20:02.859Z</time></trkpt><trkpt lat="42.74849212109182" lon="10.279918312699454"><ele>308.0</ele><time>2026-04-19T09:20:04.859Z</time></trkpt><trkpt lat="42.74856041962752" lon="10.279819097990453"><ele>308.83333333333337</ele><time>2026-04-19T09:20:06.859Z</time></trkpt><trkpt lat="42.74862461097175" lon="10.27966083240364"><ele>309.6666666666667</ele><time>2026-04-19T09:20:08.859Z</time></trkpt><trkpt lat="42.74866288266908" lon="10.279565601248176"><ele>310.5</ele><time>2026-04-19T09:20:09.859Z</time></trkpt><trkpt lat="42.74870770538592" lon="10.279480288684145"><ele>311.3333333333333</ele><time>2026-04-19T09:20:10.859Z</time></trkpt><trkpt lat="42.748761173944786" lon="10.279410820271004"><ele>312.16666666666663</ele><time>2026-04-19T09:20:11.858Z</time></trkpt><trkpt lat="42.74876532492563" lon="10.279308117490215"><ele>313.0</ele><time>2026-04-19T09:20:13.858Z</time></trkpt><trkpt lat="42.748764332622855" lon="10.279217612557213"><ele>313.0</ele><time>2026-04-19T09:20:15.858Z</time></trkpt><trkpt lat="42.74878685647676" lon="10.27909085178174"><ele>313.0</ele><time>2026-04-19T09:20:17.858Z</time></trkpt><trkpt lat="42.748842181337366" lon="10.278981369764802"><ele>313.0</ele><time>2026-04-19T09:20:19.858Z</time></trkpt><trkpt lat="42.74892462556919" lon="10.278928364883146"><ele>313.0</ele><time>2026-04-19T09:20:21.858Z</time></trkpt><trkpt lat="42.74902581710773" lon="10.278916058075632"><ele>313.0</ele><time>2026-04-19T09:20:23.858Z</time></trkpt><trkpt lat="42.7491214848501" lon="10.278957689815865"><ele>313.0</ele><time>2026-04-19T09:20:25.858Z</time></trkpt><trkpt lat="42.749203406058925" lon="10.279013002592459"><ele>313.0</ele><time>2026-04-19T09:20:27.858Z</time></trkpt><trkpt lat="42.74927888516068" lon="10.278997332413697"><ele>313.0</ele><time>2026-04-19T09:20:29.858Z</time></trkpt><trkpt lat="42.74935116639063" lon="10.278977970203076"><ele>313.0</ele><time>2026-04-19T09:20:31.858Z</time></trkpt><trkpt lat="42.74940910764704" lon="10.278889954489356"><ele>313.0</ele><time>2026-04-19T09:20:34.858Z</time></trkpt><trkpt lat="42.74947467115973" lon="10.278839761333572"><ele>313.0</ele><time>2026-04-19T09:20:35.858Z</time></trkpt><trkpt lat="42.74954511088467" lon="10.278800405702295"><ele>312.3333333333333</ele><time>2026-04-19T09:20:36.858Z</time></trkpt><trkpt lat="42.7496210408969" lon="10.278772566910899"><ele>311.66666666666663</ele><time>2026-04-19T09:20:37.858Z</time></trkpt><trkpt lat="42.74969970776767" lon="10.2787795040077"><ele>311.0</ele><time>2026-04-19T09:20:38.858Z</time></trkpt><trkpt lat="42.74978120494016" lon="10.27877982667526"><ele>310.3333333333333</ele><time>2026-04-19T09:20:39.858Z</time></trkpt><trkpt lat="42.74984987097328" lon="10.278780358863733"><ele>309.6666666666667</ele><time>2026-04-19T09:20:40.858Z</time></trkpt><trkpt lat="42.74991270564015" lon="10.278833465908058"><ele>309.0</ele><time>2026-04-19T09:20:41.858Z</time></trkpt><trkpt lat="42.750010626494664" lon="10.278876338417112"><ele>309.0</ele><time>2026-04-19T09:20:43.857Z</time></trkpt><trkpt lat="42.75011744388982" lon="10.27878814498984"><ele>309.0</ele><time>2026-04-19T09:20:45.857Z</time></trkpt><trkpt lat="42.750177541853134" lon="10.278729572936113"><ele>309.0</ele><time>2026-04-19T09:20:46.857Z</time></trkpt><trkpt lat="42.75028771421042" lon="10.278713677222495"><ele>309.0</ele><time>2026-04-19T09:20:48.857Z</time></trkpt><trkpt lat="42.75038055816163" lon="10.27879731363382"><ele>309.0</ele><time>2026-04-19T09:20:50.857Z</time></trkpt><trkpt lat="42.75049401252541" lon="10.278794456150196"><ele>307.3333333333333</ele><time>2026-04-19T09:20:52.857Z</time></trkpt><trkpt lat="42.75057097816518" lon="10.278717406172358"><ele>305.6666666666667</ele><time>2026-04-19T09:20:53.857Z</time></trkpt><trkpt lat="42.750647361259404" lon="10.278642272784616"><ele>304.0</ele><time>2026-04-19T09:20:54.857Z</time></trkpt><trkpt lat="42.75071931784175" lon="10.27857908646399"><ele>302.33333333333337</ele><time>2026-04-19T09:20:55.857Z</time></trkpt><trkpt lat="42.75077118974185" lon="10.278526550924198"><ele>300.6666666666667</ele><time>2026-04-19T09:20:56.857Z</time></trkpt><trkpt lat="42.75082153477453" lon="10.278474706881788"><ele>299.0</ele><time>2026-04-19T09:20:57.857Z</time></trkpt><trkpt lat="42.75091639457045" lon="10.278403382932119"><ele>299.0</ele><time>2026-04-19T09:20:59.857Z</time></trkpt><trkpt lat="42.750989638716256" lon="10.278340962505315"><ele>299.0</ele><time>2026-04-19T09:21:02.857Z</time></trkpt><trkpt lat="42.751059314396066" lon="10.278514564550782"><ele>299.0</ele><time>2026-04-19T09:21:15.856Z</time></trkpt><trkpt lat="42.75108329376419" lon="10.278609456810214"><ele>299.0</ele><time>2026-04-19T09:21:16.856Z</time></trkpt><trkpt lat="42.75109430083591" lon="10.278698143165878"><ele>299.0</ele><time>2026-04-19T09:21:17.856Z</time></trkpt><trkpt lat="42.751084695592404" lon="10.278785469517397"><ele>299.0</ele><time>2026-04-19T09:21:18.856Z</time></trkpt><trkpt lat="42.75107668164295" lon="10.27888052119982"><ele>298.1666666666667</ele><time>2026-04-19T09:21:19.856Z</time></trkpt><trkpt lat="42.751068741652624" lon="10.278981671136492"><ele>297.33333333333337</ele><time>2026-04-19T09:21:20.856Z</time></trkpt><trkpt lat="42.751056637718676" lon="10.27908076691508"><ele>296.5</ele><time>2026-04-19T09:21:21.856Z</time></trkpt><trkpt lat="42.75103068358349" lon="10.279178088756968"><ele>295.6666666666667</ele><time>2026-04-19T09:21:22.856Z</time></trkpt><trkpt lat="42.75098309174809" lon="10.279283051543564"><ele>294.8333333333333</ele><time>2026-04-19T09:21:23.856Z</time></trkpt><trkpt lat="42.750943662723245" lon="10.279372271573983"><ele>294.0</ele><time>2026-04-19T09:21:24.856Z</time></trkpt><trkpt lat="42.750919320224305" lon="10.2794651484366"><ele>294.0</ele><time>2026-04-19T09:21:25.856Z</time></trkpt><trkpt lat="42.75091128099318" lon="10.279574779521862"><ele>294.0</ele><time>2026-04-19T09:21:26.856Z</time></trkpt><trkpt lat="42.75089651596237" lon="10.27967541056308"><ele>294.0</ele><time>2026-04-19T09:21:27.856Z</time></trkpt><trkpt lat="42.75085439718965" lon="10.279762930221723"><ele>294.0</ele><time>2026-04-19T09:21:28.856Z</time></trkpt><trkpt lat="42.75079772506955" lon="10.27984195461919"><ele>294.0</ele><time>2026-04-19T09:21:29.856Z</time></trkpt><trkpt lat="42.75073695012283" lon="10.279876069651266"><ele>294.0</ele><time>2026-04-19T09:21:30.856Z</time></trkpt><trkpt lat="42.750668541998074" lon="10.279867458639467"><ele>294.0</ele><time>2026-04-19T09:21:31.856Z</time></trkpt><trkpt lat="42.75058568770444" lon="10.279869241682732"><ele>292.8333333333333</ele><time>2026-04-19T09:21:32.857Z</time></trkpt><trkpt lat="42.75049972256393" lon="10.279852053543689"><ele>291.6666666666667</ele><time>2026-04-19T09:21:33.857Z</time></trkpt><trkpt lat="42.750424383781414" lon="10.279822049076113"><ele>290.5</ele><time>2026-04-19T09:21:34.856Z</time></trkpt><trkpt lat="42.750357088327895" lon="10.279820300078887"><ele>289.33333333333337</ele><time>2026-04-19T09:21:35.856Z</time></trkpt><trkpt lat="42.75024828161463" lon="10.279907685840676"><ele>288.1666666666667</ele><time>2026-04-19T09:21:37.857Z</time></trkpt><trkpt lat="42.75018276968348" lon="10.27997280200402"><ele>287.0</ele><time>2026-04-19T09:21:38.856Z</time></trkpt><trkpt lat="42.750112638446815" lon="10.280015475883452"><ele>287.0</ele><time>2026-04-19T09:21:39.856Z</time></trkpt><trkpt lat="42.75003599872992" lon="10.280046949037928"><ele>287.0</ele><time>2026-04-19T09:21:40.856Z</time></trkpt><trkpt lat="42.749962661772415" lon="10.280075064924135"><ele>287.0</ele><time>2026-04-19T09:21:41.856Z</time></trkpt><trkpt lat="42.74986942932338" lon="10.280066404215798"><ele>287.0</ele><time>2026-04-19T09:21:42.856Z</time></trkpt><trkpt lat="42.749775214902705" lon="10.280065895684494"><ele>287.0</ele><time>2026-04-19T09:21:43.856Z</time></trkpt><trkpt lat="42.749681434241886" lon="10.280067539051315"><ele>287.0</ele><time>2026-04-19T09:21:44.856Z</time></trkpt><trkpt lat="42.74958400441" lon="10.280082097393505"><ele>287.0</ele><time>2026-04-19T09:21:45.856Z</time></trkpt><trkpt lat="42.74948525008933" lon="10.280094468108528"><ele>287.0</ele><time>2026-04-19T09:21:46.856Z</time></trkpt><trkpt lat="42.74939515725174" lon="10.280113780083694"><ele>287.0</ele><time>2026-04-19T09:21:47.856Z</time></trkpt><trkpt lat="42.749318549618785" lon="10.280143841632626"><ele>287.0</ele><time>2026-04-19T09:21:48.857Z</time></trkpt><trkpt lat="42.749250749062156" lon="10.280188747332689"><ele>287.0</ele><time>2026-04-19T09:21:49.857Z</time></trkpt><trkpt lat="42.74919202001605" lon="10.280262923418624"><ele>287.0</ele><time>2026-04-19T09:21:50.856Z</time></trkpt><trkpt lat="42.74913208946551" lon="10.280368241145334"><ele>288.8</ele><time>2026-04-19T09:21:51.856Z</time></trkpt><trkpt lat="42.74906625492174" lon="10.280489727974002"><ele>290.6</ele><time>2026-04-19T09:21:52.856Z</time></trkpt><trkpt lat="42.749018116265" lon="10.280624901277255"><ele>292.40000000000003</ele><time>2026-04-19T09:21:53.856Z</time></trkpt><trkpt lat="42.74898883078465" lon="10.280750625953786"><ele>294.2</ele><time>2026-04-19T09:21:54.856Z</time></trkpt><trkpt lat="42.74897826361371" lon="10.28084827385862"><ele>296.0</ele><time>2026-04-19T09:21:55.856Z</time></trkpt><trkpt lat="42.748956876981616" lon="10.280932995861587"><ele>296.1666666666667</ele><time>2026-04-19T09:21:56.856Z</time></trkpt><trkpt lat="42.74891205484976" lon="10.281022609427312"><ele>296.33333333333337</ele><time>2026-04-19T09:21:57.856Z</time></trkpt><trkpt lat="42.74884322818415" lon="10.281098217853295"><ele>296.5</ele><time>2026-04-19T09:21:58.856Z</time></trkpt><trkpt lat="42.748769892981564" lon="10.281151536940593"><ele>296.6666666666667</ele><time>2026-04-19T09:21:59.856Z</time></trkpt><trkpt lat="42.748688142605126" lon="10.281183996878875"><ele>296.8333333333333</ele><time>2026-04-19T09:22:00.856Z</time></trkpt><trkpt lat="42.74859280687609" lon="10.281202473636206"><ele>297.0</ele><time>2026-04-19T09:22:01.855Z</time></trkpt><trkpt lat="42.748499359664976" lon="10.281247547171311"><ele>297.0</ele><time>2026-04-19T09:22:02.855Z</time></trkpt><trkpt lat="42.748416837207905" lon="10.281279799593412"><ele>297.0</ele><time>2026-04-19T09:22:03.855Z</time></trkpt><trkpt lat="42.74834689821265" lon="10.281328915434356"><ele>297.0</ele><time>2026-04-19T09:22:04.855Z</time></trkpt><trkpt lat="42.74828271423863" lon="10.281346181238892"><ele>297.0</ele><time>2026-04-19T09:22:05.855Z</time></trkpt><trkpt lat="42.74817472962098" lon="10.28134217627507"><ele>297.0</ele><time>2026-04-19T09:22:07.855Z</time></trkpt><trkpt lat="42.74811147304155" lon="10.281387905336189"><ele>297.0</ele><time>2026-04-19T09:22:10.855Z</time></trkpt><trkpt lat="42.74816059390544" lon="10.28147972323842"><ele>292.1666666666667</ele><time>2026-04-19T09:22:12.855Z</time></trkpt><trkpt lat="42.748231404588246" lon="10.281507679377723"><ele>287.3333333333333</ele><time>2026-04-19T09:22:13.855Z</time></trkpt><trkpt lat="42.74832448279155" lon="10.281509336453489"><ele>282.5</ele><time>2026-04-19T09:22:14.855Z</time></trkpt><trkpt lat="42.7484036544196" lon="10.281513843378272"><ele>277.66666666666663</ele><time>2026-04-19T09:22:15.855Z</time></trkpt><trkpt lat="42.74848077650945" lon="10.281520865803031"><ele>272.8333333333333</ele><time>2026-04-19T09:22:16.855Z</time></trkpt><trkpt lat="42.74856834704652" lon="10.281534018805937"><ele>268.0</ele><time>2026-04-19T09:22:17.855Z</time></trkpt><trkpt lat="42.74865208462662" lon="10.281557918776626"><ele>266.3333333333333</ele><time>2026-04-19T09:22:18.855Z</time></trkpt><trkpt lat="42.748735467108055" lon="10.281575853373887"><ele>264.66666666666663</ele><time>2026-04-19T09:22:19.855Z</time></trkpt><trkpt lat="42.74882479291149" lon="10.281599800332975"><ele>263.0</ele><time>2026-04-19T09:22:20.855Z</time></trkpt><trkpt lat="42.74891131275669" lon="10.281619985531414"><ele>261.3333333333333</ele><time>2026-04-19T09:22:21.855Z</time></trkpt><trkpt lat="42.74898216822629" lon="10.281639934660264"><ele>259.6666666666667</ele><time>2026-04-19T09:22:22.855Z</time></trkpt><trkpt lat="42.74906424781585" lon="10.281662014156023"><ele>258.0</ele><time>2026-04-19T09:22:23.855Z</time></trkpt><trkpt lat="42.74915502463777" lon="10.281679501505769"><ele>258.0</ele><time>2026-04-19T09:22:24.855Z</time></trkpt><trkpt lat="42.74925188578219" lon="10.2816811270727"><ele>258.0</ele><time>2026-04-19T09:22:25.855Z</time></trkpt><trkpt lat="42.74932805717203" lon="10.28166341230002"><ele>258.0</ele><time>2026-04-19T09:22:26.855Z</time></trkpt><trkpt lat="42.74945352556648" lon="10.281563921102393"><ele>258.0</ele><time>2026-04-19T09:22:28.855Z</time></trkpt><trkpt lat="42.749507114818215" lon="10.281470898419611"><ele>258.0</ele><time>2026-04-19T09:22:29.855Z</time></trkpt><trkpt lat="42.74953505109277" lon="10.281345007024852"><ele>259.2</ele><time>2026-04-19T09:22:30.855Z</time></trkpt><trkpt lat="42.749550885931285" lon="10.281202018733806"><ele>260.4</ele><time>2026-04-19T09:22:31.855Z</time></trkpt><trkpt lat="42.749551121091415" lon="10.281072443886929"><ele>261.59999999999997</ele><time>2026-04-19T09:22:32.855Z</time></trkpt><trkpt lat="42.749552572993544" lon="10.280920536686176"><ele>262.8</ele><time>2026-04-19T09:22:34.854Z</time></trkpt><trkpt lat="42.74966510937547" lon="10.280920891316896"><ele>264.0</ele><time>2026-04-19T09:22:36.854Z</time></trkpt><trkpt lat="42.749752960348616" lon="10.280979806942499"><ele>264.0</ele><time>2026-04-19T09:22:37.854Z</time></trkpt><trkpt lat="42.74986838313565" lon="10.281028693697676"><ele>264.0</ele><time>2026-04-19T09:22:38.854Z</time></trkpt><trkpt lat="42.74998874206682" lon="10.281073380027664"><ele>264.0</ele><time>2026-04-19T09:22:39.854Z</time></trkpt><trkpt lat="42.750091700092554" lon="10.28108377233588"><ele>264.0</ele><time>2026-04-19T09:22:40.854Z</time></trkpt><trkpt lat="42.7501773769592" lon="10.281063334846397"><ele>264.0</ele><time>2026-04-19T09:22:41.854Z</time></trkpt><trkpt lat="42.750279117446645" lon="10.281041407517197"><ele>261.5</ele><time>2026-04-19T09:22:42.854Z</time></trkpt><trkpt lat="42.75037450444417" lon="10.281028582154079"><ele>259.0</ele><time>2026-04-19T09:22:43.854Z</time></trkpt><trkpt lat="42.75049966804871" lon="10.280971518054788"><ele>256.5</ele><time>2026-04-19T09:22:44.854Z</time></trkpt><trkpt lat="42.750636088140425" lon="10.280923224439997"><ele>254.0</ele><time>2026-04-19T09:22:45.854Z</time></trkpt><trkpt lat="42.75076928853572" lon="10.28089069534274"><ele>254.0</ele><time>2026-04-19T09:22:46.854Z</time></trkpt><trkpt lat="42.750893405467" lon="10.280842590344381"><ele>254.0</ele><time>2026-04-19T09:22:47.854Z</time></trkpt><trkpt lat="42.75100675870078" lon="10.280769985185495"><ele>254.0</ele><time>2026-04-19T09:22:48.854Z</time></trkpt><trkpt lat="42.751105504897374" lon="10.28070881037555"><ele>254.0</ele><time>2026-04-19T09:22:49.854Z</time></trkpt><trkpt lat="42.751192016764605" lon="10.280652763910487"><ele>255.66666666666669</ele><time>2026-04-19T09:22:50.854Z</time></trkpt><trkpt lat="42.75126353560075" lon="10.280592213042139"><ele>257.33333333333337</ele><time>2026-04-19T09:22:51.854Z</time></trkpt><trkpt lat="42.75133875037651" lon="10.28052234335281"><ele>259.0</ele><time>2026-04-19T09:22:52.854Z</time></trkpt><trkpt lat="42.75140903019949" lon="10.280445272727421"><ele>260.6666666666667</ele><time>2026-04-19T09:22:53.854Z</time></trkpt><trkpt lat="42.75148139953268" lon="10.2804020788468"><ele>262.3333333333333</ele><time>2026-04-19T09:22:54.854Z</time></trkpt><trkpt lat="42.75155435558122" lon="10.280393890573045"><ele>264.0</ele><time>2026-04-19T09:22:55.854Z</time></trkpt><trkpt lat="42.75163718933032" lon="10.280331648229911"><ele>264.0</ele><time>2026-04-19T09:22:57.854Z</time></trkpt><trkpt lat="42.751685788024346" lon="10.280238825323034"><ele>264.0</ele><time>2026-04-19T09:22:58.854Z</time></trkpt><trkpt lat="42.75171500303218" lon="10.28013517429856"><ele>264.0</ele><time>2026-04-19T09:22:59.854Z</time></trkpt><trkpt lat="42.75174372524176" lon="10.28005052380138"><ele>264.0</ele><time>2026-04-19T09:23:00.854Z</time></trkpt><trkpt lat="42.751806716856414" lon="10.280010617704342"><ele>264.0</ele><time>2026-04-19T09:23:01.854Z</time></trkpt><trkpt lat="42.75187277416499" lon="10.279998669316246"><ele>264.0</ele><time>2026-04-19T09:23:02.854Z</time></trkpt><trkpt lat="42.75194734643213" lon="10.27996422536595"><ele>264.0</ele><time>2026-04-19T09:23:03.854Z</time></trkpt><trkpt lat="42.7520172058956" lon="10.279902819330342"><ele>263.6666666666667</ele><time>2026-04-19T09:23:04.854Z</time></trkpt><trkpt lat="42.75206683701126" lon="10.279843075669882"><ele>263.3333333333333</ele><time>2026-04-19T09:23:05.854Z</time></trkpt><trkpt lat="42.75210921787592" lon="10.279778458245232"><ele>263.0</ele><time>2026-04-19T09:23:06.853Z</time></trkpt><trkpt lat="42.75215459794608" lon="10.279683459320257"><ele>262.66666666666663</ele><time>2026-04-19T09:23:07.853Z</time></trkpt><trkpt lat="42.752198896810896" lon="10.279578270050493"><ele>262.3333333333333</ele><time>2026-04-19T09:23:08.853Z</time></trkpt><trkpt lat="42.75222780432084" lon="10.279494679912428"><ele>262.0</ele><time>2026-04-19T09:23:09.853Z</time></trkpt><trkpt lat="42.75226298972168" lon="10.279396770081657"><ele>262.0</ele><time>2026-04-19T09:23:10.853Z</time></trkpt><trkpt lat="42.75229927503423" lon="10.279294465285336"><ele>262.0</ele><time>2026-04-19T09:23:11.853Z</time></trkpt><trkpt lat="42.752335441647034" lon="10.279188432322242"><ele>262.0</ele><time>2026-04-19T09:23:12.853Z</time></trkpt><trkpt lat="42.75235914867989" lon="10.279056158425636"><ele>262.0</ele><time>2026-04-19T09:23:13.853Z</time></trkpt><trkpt lat="42.75237175914779" lon="10.278919802819187"><ele>262.0</ele><time>2026-04-19T09:23:14.853Z</time></trkpt><trkpt lat="42.75238316547854" lon="10.278801570070808"><ele>265.0</ele><time>2026-04-19T09:23:15.853Z</time></trkpt><trkpt lat="42.752393931786315" lon="10.278681050286641"><ele>268.0</ele><time>2026-04-19T09:23:16.853Z</time></trkpt><trkpt lat="42.75240943200468" lon="10.27859053198825"><ele>271.0</ele><time>2026-04-19T09:23:17.853Z</time></trkpt><trkpt lat="42.75250619422045" lon="10.278541589576939"><ele>274.0</ele><time>2026-04-19T09:23:19.853Z</time></trkpt><trkpt lat="42.75256560510175" lon="10.278585285711438"><ele>277.0</ele><time>2026-04-19T09:23:20.853Z</time></trkpt><trkpt lat="42.75263645601165" lon="10.278643463317609"><ele>280.0</ele><time>2026-04-19T09:23:21.853Z</time></trkpt><trkpt lat="42.75272321516853" lon="10.278709911833367"><ele>281.6</ele><time>2026-04-19T09:23:22.853Z</time></trkpt><trkpt lat="42.752793527298344" lon="10.278817624206559"><ele>283.2</ele><time>2026-04-19T09:23:23.853Z</time></trkpt><trkpt lat="42.75285334005391" lon="10.278913434384974"><ele>284.8</ele><time>2026-04-19T09:23:24.853Z</time></trkpt><trkpt lat="42.75290218361503" lon="10.279021112023752"><ele>286.4</ele><time>2026-04-19T09:23:25.853Z</time></trkpt><trkpt lat="42.75295842270105" lon="10.279112224071755"><ele>288.0</ele><time>2026-04-19T09:23:26.853Z</time></trkpt><trkpt lat="42.7530401557916" lon="10.2791940502139"><ele>285.0</ele><time>2026-04-19T09:23:27.853Z</time></trkpt><trkpt lat="42.75311960673727" lon="10.279258239073512"><ele>282.0</ele><time>2026-04-19T09:23:28.853Z</time></trkpt><trkpt lat="42.75319216510544" lon="10.279307262909748"><ele>279.0</ele><time>2026-04-19T09:23:29.853Z</time></trkpt><trkpt lat="42.753272219358664" lon="10.279347449935514"><ele>276.0</ele><time>2026-04-19T09:23:30.853Z</time></trkpt><trkpt lat="42.75333716121988" lon="10.279386947845937"><ele>273.0</ele><time>2026-04-19T09:23:31.853Z</time></trkpt><trkpt lat="42.753385622465885" lon="10.27949958722352"><ele>270.0</ele><time>2026-04-19T09:23:33.853Z</time></trkpt><trkpt lat="42.75333466547256" lon="10.27964869691393"><ele>270.0</ele><time>2026-04-19T09:23:35.853Z</time></trkpt><trkpt lat="42.7533380629631" lon="10.279740670904037"><ele>270.0</ele><time>2026-04-19T09:23:36.853Z</time></trkpt><trkpt lat="42.75334505394046" lon="10.279859921602863"><ele>270.0</ele><time>2026-04-19T09:23:37.853Z</time></trkpt><trkpt lat="42.75332901578404" lon="10.279969452376811"><ele>270.0</ele><time>2026-04-19T09:23:38.853Z</time></trkpt><trkpt lat="42.753315106134664" lon="10.280088930590097"><ele>270.0</ele><time>2026-04-19T09:23:39.853Z</time></trkpt><trkpt lat="42.75330644420322" lon="10.280207463415254"><ele>270.0</ele><time>2026-04-19T09:23:40.854Z</time></trkpt><trkpt lat="42.75329846178469" lon="10.280323234211561"><ele>269.0</ele><time>2026-04-19T09:23:41.854Z</time></trkpt><trkpt lat="42.75329361690284" lon="10.280432601336415"><ele>268.0</ele><time>2026-04-19T09:23:42.854Z</time></trkpt><trkpt lat="42.753289294380686" lon="10.280541561496266"><ele>267.0</ele><time>2026-04-19T09:23:43.854Z</time></trkpt><trkpt lat="42.753278114514835" lon="10.280645294214336"><ele>266.0</ele><time>2026-04-19T09:23:44.854Z</time></trkpt><trkpt lat="42.753275497777565" lon="10.280741191787834"><ele>265.0</ele><time>2026-04-19T09:23:45.854Z</time></trkpt><trkpt lat="42.753276889441004" lon="10.280867880105182"><ele>264.0</ele><time>2026-04-19T09:23:46.854Z</time></trkpt><trkpt lat="42.7532903922353" lon="10.280982689999254"><ele>263.1666666666667</ele><time>2026-04-19T09:23:47.854Z</time></trkpt><trkpt lat="42.753311859200785" lon="10.281095543647554"><ele>262.3333333333333</ele><time>2026-04-19T09:23:48.853Z</time></trkpt><trkpt lat="42.753326307338455" lon="10.281227416547228"><ele>261.5</ele><time>2026-04-19T09:23:49.853Z</time></trkpt><trkpt lat="42.75335142499506" lon="10.281348126958342"><ele>260.66666666666663</ele><time>2026-04-19T09:23:50.853Z</time></trkpt><trkpt lat="42.75339368565779" lon="10.281455937790552"><ele>259.8333333333333</ele><time>2026-04-19T09:23:51.853Z</time></trkpt><trkpt lat="42.753445044169524" lon="10.28153715392162"><ele>259.0</ele><time>2026-04-19T09:23:52.853Z</time></trkpt><trkpt lat="42.753500162801195" lon="10.281627386266742"><ele>259.2</ele><time>2026-04-19T09:23:53.853Z</time></trkpt><trkpt lat="42.753573183030625" lon="10.28172664980356"><ele>259.4</ele><time>2026-04-19T09:23:54.854Z</time></trkpt><trkpt lat="42.75366369791245" lon="10.281810450992154"><ele>259.6</ele><time>2026-04-19T09:23:55.854Z</time></trkpt><trkpt lat="42.753769616030965" lon="10.281857199199878"><ele>259.8</ele><time>2026-04-19T09:23:56.854Z</time></trkpt><trkpt lat="42.75386392791143" lon="10.281880531317984"><ele>260.0</ele><time>2026-04-19T09:23:57.853Z</time></trkpt><trkpt lat="42.753953649277854" lon="10.281901751473383"><ele>260.0</ele><time>2026-04-19T09:23:58.853Z</time></trkpt><trkpt lat="42.75402298308508" lon="10.281936850512523"><ele>260.0</ele><time>2026-04-19T09:23:59.853Z</time></trkpt><trkpt lat="42.75408528890808" lon="10.281992431343753"><ele>260.0</ele><time>2026-04-19T09:24:00.853Z</time></trkpt><trkpt lat="42.754141676751566" lon="10.282067419037755"><ele>260.0</ele><time>2026-04-19T09:24:01.853Z</time></trkpt><trkpt lat="42.75419990680888" lon="10.282166005063095"><ele>260.0</ele><time>2026-04-19T09:24:02.853Z</time></trkpt><trkpt lat="42.75423395131375" lon="10.282273338709851"><ele>260.0</ele><time>2026-04-19T09:24:03.853Z</time></trkpt><trkpt lat="42.75428187649491" lon="10.282382516168179"><ele>256.8</ele><time>2026-04-19T09:24:04.853Z</time></trkpt><trkpt lat="42.754363711893625" lon="10.282519849491319"><ele>253.6</ele><time>2026-04-19T09:24:05.853Z</time></trkpt><trkpt lat="42.754436286862905" lon="10.282631162529114"><ele>250.39999999999998</ele><time>2026-04-19T09:24:06.853Z</time></trkpt><trkpt lat="42.75448398339726" lon="10.28270490108954"><ele>247.2</ele><time>2026-04-19T09:24:07.853Z</time></trkpt><trkpt lat="42.75453612376072" lon="10.28276564377926"><ele>244.0</ele><time>2026-04-19T09:24:08.853Z</time></trkpt><trkpt lat="42.75465172328718" lon="10.282797175061114"><ele>242.79999999999998</ele><time>2026-04-19T09:24:10.853Z</time></trkpt><trkpt lat="42.754740266852004" lon="10.282736387548846"><ele>241.59999999999997</ele><time>2026-04-19T09:24:11.853Z</time></trkpt><trkpt lat="42.75481996633585" lon="10.2826757488625"><ele>240.4</ele><time>2026-04-19T09:24:12.853Z</time></trkpt><trkpt lat="42.75486660358683" lon="10.282579913929663"><ele>239.2</ele><time>2026-04-19T09:24:13.853Z</time></trkpt><trkpt lat="42.7549111147725" lon="10.28243688509778"><ele>238.0</ele><time>2026-04-19T09:24:14.853Z</time></trkpt><trkpt lat="42.7549575072234" lon="10.282288432954617"><ele>241.4</ele><time>2026-04-19T09:24:15.853Z</time></trkpt><trkpt lat="42.75499998697126" lon="10.282136175184952"><ele>244.8</ele><time>2026-04-19T09:24:16.853Z</time></trkpt><trkpt lat="42.75503595640191" lon="10.28200716721362"><ele>248.2</ele><time>2026-04-19T09:24:17.853Z</time></trkpt><trkpt lat="42.75506228219346" lon="10.281882382432627"><ele>251.6</ele><time>2026-04-19T09:24:18.853Z</time></trkpt><trkpt lat="42.75508515297756" lon="10.281764269851658"><ele>255.0</ele><time>2026-04-19T09:24:19.853Z</time></trkpt><trkpt lat="42.755107938667045" lon="10.281681987697066"><ele>255.0</ele><time>2026-04-19T09:24:20.853Z</time></trkpt><trkpt lat="42.755156082839655" lon="10.281560056519389"><ele>255.0</ele><time>2026-04-19T09:24:22.853Z</time></trkpt><trkpt lat="42.7552487839943" lon="10.281519469910727"><ele>255.0</ele><time>2026-04-19T09:24:24.853Z</time></trkpt><trkpt lat="42.75533873067794" lon="10.281569603471757"><ele>255.0</ele><time>2026-04-19T09:24:25.853Z</time></trkpt><trkpt lat="42.75543260206604" lon="10.281612546688077"><ele>255.0</ele><time>2026-04-19T09:24:26.853Z</time></trkpt><trkpt lat="42.75552597064294" lon="10.281666759549056"><ele>255.2</ele><time>2026-04-19T09:24:27.853Z</time></trkpt><trkpt lat="42.75560510719317" lon="10.281745755131254"><ele>255.4</ele><time>2026-04-19T09:24:28.853Z</time></trkpt><trkpt lat="42.75567967919927" lon="10.281832638260559"><ele>255.60000000000002</ele><time>2026-04-19T09:24:29.852Z</time></trkpt><trkpt lat="42.75577471030118" lon="10.281887562889395"><ele>255.8</ele><time>2026-04-19T09:24:30.852Z</time></trkpt><trkpt lat="42.75586322020893" lon="10.28194600862244"><ele>256.0</ele><time>2026-04-19T09:24:31.852Z</time></trkpt><trkpt lat="42.75594451379293" lon="10.2820001820451"><ele>255.99999999999997</ele><time>2026-04-19T09:24:32.852Z</time></trkpt><trkpt lat="42.756028623755135" lon="10.282056173323197"><ele>256.0</ele><time>2026-04-19T09:24:33.852Z</time></trkpt><trkpt lat="42.756115700921654" lon="10.282124645976848"><ele>256.0</ele><time>2026-04-19T09:24:34.852Z</time></trkpt><trkpt lat="42.756184522810464" lon="10.28218275143214"><ele>256.0</ele><time>2026-04-19T09:24:35.852Z</time></trkpt><trkpt lat="42.75623325612251" lon="10.282241937022764"><ele>255.99999999999997</ele><time>2026-04-19T09:24:36.852Z</time></trkpt><trkpt lat="42.7562693617596" lon="10.282331083019939"><ele>256.0</ele><time>2026-04-19T09:24:37.852Z</time></trkpt><trkpt lat="42.75630589139052" lon="10.282446890039326"><ele>255.20000000000002</ele><time>2026-04-19T09:24:38.852Z</time></trkpt><trkpt lat="42.75632351784544" lon="10.282547837139795"><ele>254.40000000000003</ele><time>2026-04-19T09:24:39.852Z</time></trkpt><trkpt lat="42.75634921591848" lon="10.282712729217772"><ele>253.6</ele><time>2026-04-19T09:24:41.852Z</time></trkpt><trkpt lat="42.75638966853194" lon="10.282847988508202"><ele>252.8</ele><time>2026-04-19T09:24:42.852Z</time></trkpt><trkpt lat="42.75639925049464" lon="10.282986328618183"><ele>252.0</ele><time>2026-04-19T09:24:43.852Z</time></trkpt><trkpt lat="42.75638877992959" lon="10.283084075864007"><ele>249.39999999999998</ele><time>2026-04-19T09:24:44.852Z</time></trkpt><trkpt lat="42.75639182498282" lon="10.283178283294985"><ele>246.79999999999998</ele><time>2026-04-19T09:24:45.852Z</time></trkpt><trkpt lat="42.756443718802245" lon="10.28328677791851"><ele>244.2</ele><time>2026-04-19T09:24:46.852Z</time></trkpt><trkpt lat="42.75653491940072" lon="10.283376826283163"><ele>241.6</ele><time>2026-04-19T09:24:47.852Z</time></trkpt><trkpt lat="42.75662921198157" lon="10.283467947833195"><ele>239.0</ele><time>2026-04-19T09:24:48.852Z</time></trkpt><trkpt lat="42.756694181983036" lon="10.283562028617167"><ele>239.00000000000003</ele><time>2026-04-19T09:24:49.852Z</time></trkpt><trkpt lat="42.75675767719357" lon="10.2836428273565"><ele>239.0</ele><time>2026-04-19T09:24:50.852Z</time></trkpt><trkpt lat="42.75682442907754" lon="10.283717058342795"><ele>239.0</ele><time>2026-04-19T09:24:51.852Z</time></trkpt><trkpt lat="42.7568724597061" lon="10.283818894416406"><ele>239.0</ele><time>2026-04-19T09:24:52.852Z</time></trkpt><trkpt lat="42.75692513299123" lon="10.283915452519514"><ele>239.00000000000003</ele><time>2026-04-19T09:24:53.852Z</time></trkpt><trkpt lat="42.75697992045847" lon="10.284026889497797"><ele>239.0</ele><time>2026-04-19T09:24:54.852Z</time></trkpt><trkpt lat="42.75702918123899" lon="10.284135008056449"><ele>236.83333333333334</ele><time>2026-04-19T09:24:55.852Z</time></trkpt><trkpt lat="42.757091331709425" lon="10.284215288438835"><ele>234.66666666666669</ele><time>2026-04-19T09:24:56.852Z</time></trkpt><trkpt lat="42.7571607908886" lon="10.284281654349957"><ele>232.5</ele><time>2026-04-19T09:24:57.852Z</time></trkpt><trkpt lat="42.75722674638942" lon="10.284352992399976"><ele>230.33333333333331</ele><time>2026-04-19T09:24:58.852Z</time></trkpt><trkpt lat="42.757292680182104" lon="10.284436049262814"><ele>228.16666666666666</ele><time>2026-04-19T09:24:59.852Z</time></trkpt><trkpt lat="42.757348016641934" lon="10.284509106525345"><ele>226.0</ele><time>2026-04-19T09:25:00.852Z</time></trkpt><trkpt lat="42.757420844434314" lon="10.284554356825433"><ele>225.99999999999997</ele><time>2026-04-19T09:25:01.852Z</time></trkpt><trkpt lat="42.75751141855557" lon="10.284563696582792"><ele>226.0</ele><time>2026-04-19T09:25:02.851Z</time></trkpt><trkpt lat="42.75758808254691" lon="10.28452694623287"><ele>226.0</ele><time>2026-04-19T09:25:03.851Z</time></trkpt><trkpt lat="42.7576479419277" lon="10.284485957172743"><ele>226.0</ele><time>2026-04-19T09:25:04.851Z</time></trkpt><trkpt lat="42.7577058612179" lon="10.28444522376025"><ele>225.99999999999997</ele><time>2026-04-19T09:25:05.851Z</time></trkpt><trkpt lat="42.75776771619019" lon="10.284397446913902"><ele>226.0</ele><time>2026-04-19T09:25:06.851Z</time></trkpt><trkpt lat="42.75783033872171" lon="10.284339763860237"><ele>226.16666666666666</ele><time>2026-04-19T09:25:07.851Z</time></trkpt><trkpt lat="42.75788681257704" lon="10.284269309614034"><ele>226.33333333333331</ele><time>2026-04-19T09:25:08.851Z</time></trkpt><trkpt lat="42.75793312123739" lon="10.284189918720475"><ele>226.5</ele><time>2026-04-19T09:25:09.851Z</time></trkpt><trkpt lat="42.75797510985419" lon="10.284106774673479"><ele>226.66666666666669</ele><time>2026-04-19T09:25:10.851Z</time></trkpt><trkpt lat="42.75800997173311" lon="10.284019425276236"><ele>226.83333333333334</ele><time>2026-04-19T09:25:11.851Z</time></trkpt><trkpt lat="42.75806830595567" lon="10.28391761417516"><ele>227.0</ele><time>2026-04-19T09:25:13.851Z</time></trkpt><trkpt lat="42.758153726382574" lon="10.283904204061127"><ele>225.16666666666669</ele><time>2026-04-19T09:25:15.851Z</time></trkpt><trkpt lat="42.7582380772232" lon="10.28401736329389"><ele>223.33333333333334</ele><time>2026-04-19T09:25:17.851Z</time></trkpt><trkpt lat="42.75827558778476" lon="10.284111183253593"><ele>221.5</ele><time>2026-04-19T09:25:18.851Z</time></trkpt><trkpt lat="42.75831127891117" lon="10.284190320895572"><ele>219.66666666666669</ele><time>2026-04-19T09:25:19.851Z</time></trkpt><trkpt lat="42.75836373814947" lon="10.284278218419395"><ele>217.83333333333334</ele><time>2026-04-19T09:25:20.851Z</time></trkpt><trkpt lat="42.758410192700346" lon="10.284359713589053"><ele>216.0</ele><time>2026-04-19T09:25:21.851Z</time></trkpt><trkpt lat="42.75845645006075" lon="10.284448306504597"><ele>216.0</ele><time>2026-04-19T09:25:22.851Z</time></trkpt><trkpt lat="42.758509380665224" lon="10.28452270984375"><ele>216.0</ele><time>2026-04-19T09:25:23.851Z</time></trkpt><trkpt lat="42.758575598659164" lon="10.284575906879612"><ele>216.0</ele><time>2026-04-19T09:25:24.851Z</time></trkpt><trkpt lat="42.75865217143674" lon="10.284639542354753"><ele>216.0</ele><time>2026-04-19T09:25:25.851Z</time></trkpt><trkpt lat="42.758743331444826" lon="10.284704076041614"><ele>216.0</ele><time>2026-04-19T09:25:26.851Z</time></trkpt><trkpt lat="42.7588138681194" lon="10.284787760386283"><ele>216.0</ele><time>2026-04-19T09:25:27.851Z</time></trkpt><trkpt lat="42.75890285684781" lon="10.284868037390893"><ele>214.14285714285714</ele><time>2026-04-19T09:25:28.851Z</time></trkpt><trkpt lat="42.758968477855326" lon="10.284949427856672"><ele>212.28571428571428</ele><time>2026-04-19T09:25:29.851Z</time></trkpt><trkpt lat="42.759024682216385" lon="10.285028639009594"><ele>210.42857142857144</ele><time>2026-04-19T09:25:30.851Z</time></trkpt><trkpt lat="42.75907487575136" lon="10.285108305497133"><ele>208.57142857142856</ele><time>2026-04-19T09:25:31.851Z</time></trkpt><trkpt lat="42.75912271451836" lon="10.285180295082592"><ele>206.71428571428572</ele><time>2026-04-19T09:25:32.851Z</time></trkpt><trkpt lat="42.75917436527142" lon="10.285236142256778"><ele>204.85714285714286</ele><time>2026-04-19T09:25:33.851Z</time></trkpt><trkpt lat="42.759225950164456" lon="10.285289492307841"><ele>203.0</ele><time>2026-04-19T09:25:34.85Z</time></trkpt><trkpt lat="42.75929839800227" lon="10.285330640904654"><ele>203.00000000000003</ele><time>2026-04-19T09:25:36.85Z</time></trkpt><trkpt lat="42.75934841893019" lon="10.285400702808486"><ele>203.0</ele><time>2026-04-19T09:25:40.85Z</time></trkpt><trkpt lat="42.75924783658013" lon="10.285421218449889"><ele>203.0</ele><time>2026-04-19T09:25:52.85Z</time></trkpt><trkpt lat="42.759177255771085" lon="10.285399601992829"><ele>203.0</ele><time>2026-04-19T09:25:53.85Z</time></trkpt><trkpt lat="42.7591059366547" lon="10.285384174304632"><ele>203.00000000000003</ele><time>2026-04-19T09:25:54.851Z</time></trkpt><trkpt lat="42.759032850216784" lon="10.285398118035081"><ele>203.0</ele><time>2026-04-19T09:25:55.851Z</time></trkpt><trkpt lat="42.75892395526319" lon="10.285380873944453"><ele>203.0</ele><time>2026-04-19T09:25:57.851Z</time></trkpt><trkpt lat="42.75884282408836" lon="10.285356903038062"><ele>203.0</ele><time>2026-04-19T09:25:59.85Z</time></trkpt><trkpt lat="42.75873096519018" lon="10.285321676305708"><ele>203.0</ele><time>2026-04-19T09:26:01.85Z</time></trkpt><trkpt lat="42.75864429180482" lon="10.285388221718089"><ele>203.0</ele><time>2026-04-19T09:26:04.85Z</time></trkpt><trkpt lat="42.75864110732837" lon="10.28551382127375"><ele>203.0</ele><time>2026-04-19T09:26:06.85Z</time></trkpt><trkpt lat="42.75865635102131" lon="10.285625617179114"><ele>200.16666666666669</ele><time>2026-04-19T09:26:08.85Z</time></trkpt><trkpt lat="42.75862459176526" lon="10.285708381717603"><ele>197.33333333333334</ele><time>2026-04-19T09:26:10.85Z</time></trkpt><trkpt lat="42.75853660705887" lon="10.285761490266173"><ele>194.5</ele><time>2026-04-19T09:26:13.85Z</time></trkpt><trkpt lat="42.758447074322426" lon="10.285817531187504"><ele>191.66666666666669</ele><time>2026-04-19T09:26:16.85Z</time></trkpt><trkpt lat="42.75836122311228" lon="10.285826708808155"><ele>188.83333333333334</ele><time>2026-04-19T09:26:19.849Z</time></trkpt><trkpt lat="42.75827745438748" lon="10.285841963045325"><ele>186.0</ele><time>2026-04-19T09:26:21.849Z</time></trkpt><trkpt lat="42.75818657950604" lon="10.285905975530477"><ele>185.60000000000002</ele><time>2026-04-19T09:26:23.849Z</time></trkpt><trkpt lat="42.758128849372845" lon="10.285972047648396"><ele>185.2</ele><time>2026-04-19T09:26:24.849Z</time></trkpt><trkpt lat="42.758046271485895" lon="10.286075724474722"><ele>184.8</ele><time>2026-04-19T09:26:26.849Z</time></trkpt><trkpt lat="42.75795944526035" lon="10.286157956637112"><ele>184.39999999999998</ele><time>2026-04-19T09:26:28.849Z</time></trkpt><trkpt lat="42.757858056808665" lon="10.286232668718487"><ele>184.0</ele><time>2026-04-19T09:26:30.849Z</time></trkpt><trkpt lat="42.757761278869765" lon="10.28627404911708"><ele>184.6</ele><time>2026-04-19T09:26:32.849Z</time></trkpt><trkpt lat="42.757678920785644" lon="10.286308276256907"><ele>185.2</ele><time>2026-04-19T09:26:34.849Z</time></trkpt><trkpt lat="42.75757261086433" lon="10.286355801294777"><ele>185.79999999999998</ele><time>2026-04-19T09:26:36.849Z</time></trkpt><trkpt lat="42.75747174192601" lon="10.286422328348271"><ele>186.39999999999998</ele><time>2026-04-19T09:26:38.849Z</time></trkpt><trkpt lat="42.75739966563929" lon="10.28644188724262"><ele>187.0</ele><time>2026-04-19T09:26:40.849Z</time></trkpt><trkpt lat="42.757310180549595" lon="10.28643236118518"><ele>187.0</ele><time>2026-04-19T09:26:43.849Z</time></trkpt><trkpt lat="42.75721934023755" lon="10.28641140133173"><ele>187.0</ele><time>2026-04-19T09:26:45.849Z</time></trkpt><trkpt lat="42.75714878230927" lon="10.286408993498437"><ele>187.0</ele><time>2026-04-19T09:26:46.849Z</time></trkpt><trkpt lat="42.75704068333429" lon="10.286374045061667"><ele>187.0</ele><time>2026-04-19T09:26:48.849Z</time></trkpt><trkpt lat="42.756945225815834" lon="10.286303824204916"><ele>187.0</ele><time>2026-04-19T09:26:50.849Z</time></trkpt><trkpt lat="42.75689151331684" lon="10.286255253414012"><ele>187.0</ele><time>2026-04-19T09:26:51.848Z</time></trkpt><trkpt lat="42.75681356410417" lon="10.286129244965794"><ele>183.16666666666669</ele><time>2026-04-19T09:26:53.848Z</time></trkpt><trkpt lat="42.75678247367569" lon="10.286044718462712"><ele>179.33333333333334</ele><time>2026-04-19T09:26:54.848Z</time></trkpt><trkpt lat="42.75673523023742" lon="10.285938792041456"><ele>175.5</ele><time>2026-04-19T09:26:55.848Z</time></trkpt><trkpt lat="42.75666858675301" lon="10.285846074605038"><ele>171.66666666666666</ele><time>2026-04-19T09:26:56.848Z</time></trkpt><trkpt lat="42.75660915244681" lon="10.285778317029957"><ele>167.83333333333331</ele><time>2026-04-19T09:26:57.848Z</time></trkpt><trkpt lat="42.75655396225711" lon="10.285718961855276"><ele>164.0</ele><time>2026-04-19T09:26:58.848Z</time></trkpt><trkpt lat="42.756502330160195" lon="10.285651154447194"><ele>167.57142857142856</ele><time>2026-04-19T09:26:59.848Z</time></trkpt><trkpt lat="42.756457302797436" lon="10.285585684480088"><ele>171.14285714285714</ele><time>2026-04-19T09:27:00.848Z</time></trkpt><trkpt lat="42.75641498744977" lon="10.285522012731764"><ele>174.71428571428572</ele><time>2026-04-19T09:27:01.848Z</time></trkpt><trkpt lat="42.756368080979236" lon="10.285449906645091"><ele>178.28571428571428</ele><time>2026-04-19T09:27:02.848Z</time></trkpt><trkpt lat="42.756319369131184" lon="10.285384809729162"><ele>181.85714285714286</ele><time>2026-04-19T09:27:03.848Z</time></trkpt><trkpt lat="42.75626083591037" lon="10.285313066471804"><ele>185.42857142857142</ele><time>2026-04-19T09:27:04.848Z</time></trkpt><trkpt lat="42.75619657019086" lon="10.285234661177102"><ele>189.0</ele><time>2026-04-19T09:27:05.848Z</time></trkpt><trkpt lat="42.75612850564444" lon="10.285152437896352"><ele>189.0</ele><time>2026-04-19T09:27:06.848Z</time></trkpt><trkpt lat="42.75607671278926" lon="10.285071308938614"><ele>189.0</ele><time>2026-04-19T09:27:07.848Z</time></trkpt><trkpt lat="42.756021622722734" lon="10.284972499282633"><ele>189.0</ele><time>2026-04-19T09:27:08.848Z</time></trkpt><trkpt lat="42.75595580239841" lon="10.284862759313425"><ele>189.0</ele><time>2026-04-19T09:27:09.848Z</time></trkpt><trkpt lat="42.7558864652612" lon="10.28474729361408"><ele>189.0</ele><time>2026-04-19T09:27:10.848Z</time></trkpt><trkpt lat="42.755820939401964" lon="10.284641005004131"><ele>187.33333333333334</ele><time>2026-04-19T09:27:11.848Z</time></trkpt><trkpt lat="42.7557789469381" lon="10.284542587885817"><ele>185.66666666666666</ele><time>2026-04-19T09:27:12.848Z</time></trkpt><trkpt lat="42.75572736104324" lon="10.284413127505347"><ele>184.0</ele><time>2026-04-19T09:27:13.848Z</time></trkpt><trkpt lat="42.75568243966933" lon="10.28430432324002"><ele>182.33333333333331</ele><time>2026-04-19T09:27:14.848Z</time></trkpt><trkpt lat="42.755634150230925" lon="10.28421494022018"><ele>180.66666666666666</ele><time>2026-04-19T09:27:15.848Z</time></trkpt><trkpt lat="42.755565815084644" lon="10.284149262894939"><ele>179.0</ele><time>2026-04-19T09:27:17.848Z</time></trkpt><trkpt lat="42.75550226716087" lon="10.284210119399127"><ele>179.0</ele><time>2026-04-19T09:27:20.848Z</time></trkpt><trkpt lat="42.755470328753525" lon="10.284305245567689"><ele>179.0</ele><time>2026-04-19T09:27:21.848Z</time></trkpt><trkpt lat="42.755421669768474" lon="10.284401802367528"><ele>179.0</ele><time>2026-04-19T09:27:22.848Z</time></trkpt><trkpt lat="42.75534381015684" lon="10.284532657056651"><ele>179.0</ele><time>2026-04-19T09:27:24.847Z</time></trkpt><trkpt lat="42.7552696191389" lon="10.284617757362275"><ele>179.0</ele><time>2026-04-19T09:27:26.847Z</time></trkpt><trkpt lat="42.75519583461311" lon="10.284713279614046"><ele>173.6</ele><time>2026-04-19T09:27:28.847Z</time></trkpt><trkpt lat="42.75514259811263" lon="10.284782668301037"><ele>168.2</ele><time>2026-04-19T09:27:29.847Z</time></trkpt><trkpt lat="42.75510218708004" lon="10.284862356648725"><ele>162.79999999999998</ele><time>2026-04-19T09:27:30.847Z</time></trkpt><trkpt lat="42.75502891073521" lon="10.285008795607146"><ele>157.39999999999998</ele><time>2026-04-19T09:27:32.847Z</time></trkpt><trkpt lat="42.75497588032956" lon="10.285111434078498"><ele>152.0</ele><time>2026-04-19T09:27:33.847Z</time></trkpt><trkpt lat="42.75492312922579" lon="10.285202867546813"><ele>152.0</ele><time>2026-04-19T09:27:34.847Z</time></trkpt><trkpt lat="42.754887724461604" lon="10.285283640166945"><ele>152.0</ele><time>2026-04-19T09:27:35.847Z</time></trkpt><trkpt lat="42.754869719490884" lon="10.285367510939025"><ele>152.0</ele><time>2026-04-19T09:27:36.847Z</time></trkpt><trkpt lat="42.75482728300437" lon="10.28550314900878"><ele>152.0</ele><time>2026-04-19T09:27:38.847Z</time></trkpt><trkpt lat="42.75478808977174" lon="10.285618935750406"><ele>152.0</ele><time>2026-04-19T09:27:40.847Z</time></trkpt><trkpt lat="42.75475480239991" lon="10.285744715901135"><ele>152.0</ele><time>2026-04-19T09:27:42.847Z</time></trkpt><trkpt lat="42.7546809466861" lon="10.285868952186235"><ele>147.5</ele><time>2026-04-19T09:27:44.847Z</time></trkpt><trkpt lat="42.75464855014729" lon="10.285952646354486"><ele>143.0</ele><time>2026-04-19T09:27:45.847Z</time></trkpt><trkpt lat="42.75461704302689" lon="10.286077012262044"><ele>138.5</ele><time>2026-04-19T09:27:47.847Z</time></trkpt><trkpt lat="42.75455885756553" lon="10.286146624163454"><ele>134.0</ele><time>2026-04-19T09:27:49.847Z</time></trkpt><trkpt lat="42.75455554109649" lon="10.28624244686911"><ele>129.5</ele><time>2026-04-19T09:27:55.848Z</time></trkpt><trkpt lat="42.754470618580704" lon="10.286338285549999"><ele>125.0</ele><time>2026-04-19T09:27:57.848Z</time></trkpt><trkpt lat="42.754407164549654" lon="10.28639383256922"><ele>128.4</ele><time>2026-04-19T09:27:58.848Z</time></trkpt><trkpt lat="42.75429046812591" lon="10.286388150763134"><ele>131.8</ele><time>2026-04-19T09:28:00.848Z</time></trkpt><trkpt lat="42.754223517696715" lon="10.286339645729191"><ele>135.2</ele><time>2026-04-19T09:28:01.848Z</time></trkpt><trkpt lat="42.75415954376475" lon="10.286257931651543"><ele>138.6</ele><time>2026-04-19T09:28:02.848Z</time></trkpt><trkpt lat="42.754090655799914" lon="10.28614524933574"><ele>142.0</ele><time>2026-04-19T09:28:03.848Z</time></trkpt><trkpt lat="42.75403997487674" lon="10.28603431356752"><ele>142.0</ele><time>2026-04-19T09:28:04.847Z</time></trkpt><trkpt lat="42.75399102466092" lon="10.285947815187072"><ele>142.0</ele><time>2026-04-19T09:28:05.847Z</time></trkpt><trkpt lat="42.75396069078384" lon="10.285839207932487"><ele>142.0</ele><time>2026-04-19T09:28:06.847Z</time></trkpt><trkpt lat="42.753928939283725" lon="10.285688479941895"><ele>142.0</ele><time>2026-04-19T09:28:07.847Z</time></trkpt><trkpt lat="42.75389110373161" lon="10.285578699607367"><ele>142.0</ele><time>2026-04-19T09:28:08.848Z</time></trkpt><trkpt lat="42.753863975788924" lon="10.285498980089804"><ele>142.0</ele><time>2026-04-19T09:28:09.848Z</time></trkpt><trkpt lat="42.753823841072546" lon="10.285369191148117"><ele>145.66666666666669</ele><time>2026-04-19T09:28:11.848Z</time></trkpt><trkpt lat="42.7537601814838" lon="10.285216986527736"><ele>149.33333333333334</ele><time>2026-04-19T09:28:13.847Z</time></trkpt><trkpt lat="42.753720431188455" lon="10.28512706720105"><ele>153.0</ele><time>2026-04-19T09:28:14.847Z</time></trkpt><trkpt lat="42.753683695092604" lon="10.285027611998098"><ele>156.66666666666666</ele><time>2026-04-19T09:28:15.847Z</time></trkpt><trkpt lat="42.75364182304282" lon="10.28493533286992"><ele>160.33333333333331</ele><time>2026-04-19T09:28:16.847Z</time></trkpt><trkpt lat="42.753602093254834" lon="10.284866048985739"><ele>164.0</ele><time>2026-04-19T09:28:17.847Z</time></trkpt><trkpt lat="42.75356787585927" lon="10.284790256438768"><ele>164.16666666666666</ele><time>2026-04-19T09:28:18.847Z</time></trkpt><trkpt lat="42.753535103806975" lon="10.284704653393865"><ele>164.33333333333331</ele><time>2026-04-19T09:28:19.847Z</time></trkpt><trkpt lat="42.75348898298705" lon="10.284640249015442"><ele>164.5</ele><time>2026-04-19T09:28:20.847Z</time></trkpt><trkpt lat="42.75339706771525" lon="10.284588691538637"><ele>164.66666666666666</ele><time>2026-04-19T09:28:22.847Z</time></trkpt><trkpt lat="42.753331401334115" lon="10.284611389769468"><ele>164.83333333333334</ele><time>2026-04-19T09:28:23.847Z</time></trkpt><trkpt lat="42.75325108886556" lon="10.284670043411843"><ele>165.0</ele><time>2026-04-19T09:28:24.847Z</time></trkpt><trkpt lat="42.75315721172733" lon="10.284714433282534"><ele>165.0</ele><time>2026-04-19T09:28:25.847Z</time></trkpt><trkpt lat="42.75307188147654" lon="10.284745415954403"><ele>165.0</ele><time>2026-04-19T09:28:26.847Z</time></trkpt><trkpt lat="42.752989732872855" lon="10.28477124591685"><ele>165.0</ele><time>2026-04-19T09:28:27.847Z</time></trkpt><trkpt lat="42.752923824774285" lon="10.284786958102599"><ele>165.0</ele><time>2026-04-19T09:28:28.847Z</time></trkpt><trkpt lat="42.752822590103484" lon="10.284772015152745"><ele>165.0</ele><time>2026-04-19T09:28:30.847Z</time></trkpt><trkpt lat="42.75273656761843" lon="10.284776878225635"><ele>165.0</ele><time>2026-04-19T09:28:32.847Z</time></trkpt><trkpt lat="42.752646255222416" lon="10.284757764489562"><ele>163.33333333333334</ele><time>2026-04-19T09:28:34.847Z</time></trkpt><trkpt lat="42.752571522286" lon="10.284724443218284"><ele>161.66666666666666</ele><time>2026-04-19T09:28:36.847Z</time></trkpt><trkpt lat="42.75250093255523" lon="10.284710562228423"><ele>160.0</ele><time>2026-04-19T09:28:38.847Z</time></trkpt><trkpt lat="42.752418205585215" lon="10.284689417219447"><ele>158.33333333333331</ele><time>2026-04-19T09:28:40.847Z</time></trkpt><trkpt lat="42.75232957741597" lon="10.284660890866391"><ele>156.66666666666666</ele><time>2026-04-19T09:28:43.847Z</time></trkpt><trkpt lat="42.75223122523076" lon="10.284691233109397"><ele>155.0</ele><time>2026-04-19T09:28:45.847Z</time></trkpt><trkpt lat="42.75219270788942" lon="10.284777953843747"><ele>149.0</ele><time>2026-04-19T09:28:47.846Z</time></trkpt><trkpt lat="42.75217281505085" lon="10.28486448004957"><ele>143.0</ele><time>2026-04-19T09:28:48.846Z</time></trkpt><trkpt lat="42.752174223578834" lon="10.284972749083023"><ele>137.0</ele><time>2026-04-19T09:28:50.846Z</time></trkpt><trkpt lat="42.75213666013642" lon="10.285060953614385"><ele>131.0</ele><time>2026-04-19T09:29:17.846Z</time></trkpt><trkpt lat="42.75215632100706" lon="10.285167638843259"><ele>124.99999999999999</ele><time>2026-04-19T09:29:33.845Z</time></trkpt><trkpt lat="42.75217725165169" lon="10.285271565095556"><ele>119.0</ele><time>2026-04-19T09:29:34.845Z</time></trkpt><trkpt lat="42.75220505754239" lon="10.28536616999583"><ele>119.0</ele><time>2026-04-19T09:29:35.845Z</time></trkpt><trkpt lat="42.75221318261739" lon="10.285461769390082"><ele>119.0</ele><time>2026-04-19T09:29:36.845Z</time></trkpt><trkpt lat="42.75221992276624" lon="10.285563767981143"><ele>119.0</ele><time>2026-04-19T09:29:37.845Z</time></trkpt><trkpt lat="42.7522526796402" lon="10.285688433815121"><ele>119.0</ele><time>2026-04-19T09:29:39.845Z</time></trkpt><trkpt lat="42.752274667022625" lon="10.285826311254844"><ele>119.0</ele><time>2026-04-19T09:29:41.845Z</time></trkpt><trkpt lat="42.752284115777776" lon="10.285969588670623"><ele>116.2</ele><time>2026-04-19T09:29:43.845Z</time></trkpt><trkpt lat="42.75228321378233" lon="10.286157636052293"><ele>113.4</ele><time>2026-04-19T09:29:45.845Z</time></trkpt><trkpt lat="42.75227140902587" lon="10.286269862141866"><ele>110.6</ele><time>2026-04-19T09:29:46.845Z</time></trkpt><trkpt lat="42.752219273331676" lon="10.286364819090988"><ele>107.8</ele><time>2026-04-19T09:29:47.845Z</time></trkpt><trkpt lat="42.75220135108649" lon="10.286474762004493"><ele>105.0</ele><time>2026-04-19T09:29:48.845Z</time></trkpt><trkpt lat="42.75220133314517" lon="10.286615873353853"><ele>103.33333333333333</ele><time>2026-04-19T09:29:49.845Z</time></trkpt><trkpt lat="42.752205761561406" lon="10.286743206832195"><ele>101.66666666666667</ele><time>2026-04-19T09:29:50.845Z</time></trkpt><trkpt lat="42.752210863849704" lon="10.286849807887034"><ele>100.0</ele><time>2026-04-19T09:29:51.844Z</time></trkpt><trkpt lat="42.752215444666696" lon="10.286948560243953"><ele>98.33333333333334</ele><time>2026-04-19T09:29:52.844Z</time></trkpt><trkpt lat="42.75219086783198" lon="10.287030568068822"><ele>96.66666666666667</ele><time>2026-04-19T09:29:53.844Z</time></trkpt><trkpt lat="42.752145912876834" lon="10.287174887934087"><ele>95.0</ele><time>2026-04-19T09:29:55.844Z</time></trkpt><trkpt lat="42.752143839347845" lon="10.287268417792891"><ele>97.2</ele><time>2026-04-19T09:29:56.846Z</time></trkpt><trkpt lat="42.752133786326056" lon="10.287411221395013"><ele>99.4</ele><time>2026-04-19T09:29:58.846Z</time></trkpt><trkpt lat="42.75209546194533" lon="10.287528342359446"><ele>101.6</ele><time>2026-04-19T09:30:00.846Z</time></trkpt><trkpt lat="42.75201824024556" lon="10.287635003387988"><ele>103.8</ele><time>2026-04-19T09:30:02.845Z</time></trkpt><trkpt lat="42.75193793614791" lon="10.287666501294083"><ele>106.0</ele><time>2026-04-19T09:30:04.845Z</time></trkpt><trkpt lat="42.7518553952676" lon="10.287700614498888"><ele>106.00000000000001</ele><time>2026-04-19T09:30:05.845Z</time></trkpt><trkpt lat="42.75177499231082" lon="10.287731965223003"><ele>106.0</ele><time>2026-04-19T09:30:06.845Z</time></trkpt><trkpt lat="42.75169355904861" lon="10.287754398205566"><ele>106.0</ele><time>2026-04-19T09:30:08.845Z</time></trkpt><trkpt lat="42.75162089233214" lon="10.287731438328093"><ele>106.0</ele><time>2026-04-19T09:30:10.845Z</time></trkpt><trkpt lat="42.75155197101528" lon="10.287702792726986"><ele>106.00000000000001</ele><time>2026-04-19T09:30:12.845Z</time></trkpt><trkpt lat="42.75148552582601" lon="10.287654837133841"><ele>106.0</ele><time>2026-04-19T09:30:14.845Z</time></trkpt><trkpt lat="42.75139935512098" lon="10.287599182246193"><ele>106.0</ele><time>2026-04-19T09:30:16.845Z</time></trkpt><trkpt lat="42.751298833672685" lon="10.287544977275546"><ele>106.0</ele><time>2026-04-19T09:30:19.845Z</time></trkpt><trkpt lat="42.75120892647265" lon="10.28752675746545"><ele>106.0</ele><time>2026-04-19T09:30:21.845Z</time></trkpt><trkpt lat="42.751107708092256" lon="10.287506261216864"><ele>106.0</ele><time>2026-04-19T09:30:23.845Z</time></trkpt><trkpt lat="42.75100587978639" lon="10.28751794890966"><ele>106.0</ele><time>2026-04-19T09:30:25.845Z</time></trkpt><trkpt lat="42.75089778139908" lon="10.287524939100964"><ele>104.4</ele><time>2026-04-19T09:30:27.845Z</time></trkpt><trkpt lat="42.750787263494956" lon="10.287531300498417"><ele>102.8</ele><time>2026-04-19T09:30:29.845Z</time></trkpt><trkpt lat="42.75069952251958" lon="10.287549711431616"><ele>101.2</ele><time>2026-04-19T09:30:31.844Z</time></trkpt><trkpt lat="42.75061140104009" lon="10.287575265633105"><ele>99.60000000000001</ele><time>2026-04-19T09:30:33.844Z</time></trkpt><trkpt lat="42.7504960360268" lon="10.287594482469881"><ele>98.0</ele><time>2026-04-19T09:30:35.844Z</time></trkpt><trkpt lat="42.75039911919762" lon="10.28765252342646"><ele>98.0</ele><time>2026-04-19T09:30:37.844Z</time></trkpt><trkpt lat="42.75034161413778" lon="10.28780902814376"><ele>98.0</ele><time>2026-04-19T09:30:39.844Z</time></trkpt><trkpt lat="42.750362191343875" lon="10.28796066467976"><ele>98.0</ele><time>2026-04-19T09:30:41.844Z</time></trkpt><trkpt lat="42.75041887666351" lon="10.288076493533298"><ele>98.0</ele><time>2026-04-19T09:30:43.844Z</time></trkpt><trkpt lat="42.75049536248609" lon="10.288125613905722"><ele>98.0</ele><time>2026-04-19T09:30:45.844Z</time></trkpt><trkpt lat="42.75056446616389" lon="10.288162915132027"><ele>93.60000000000001</ele><time>2026-04-19T09:30:47.844Z</time></trkpt><trkpt lat="42.75066930876173" lon="10.288160359416567"><ele>89.2</ele><time>2026-04-19T09:30:49.844Z</time></trkpt><trkpt lat="42.750762063155996" lon="10.28813240457707"><ele>84.8</ele><time>2026-04-19T09:30:51.844Z</time></trkpt><trkpt lat="42.75083437459574" lon="10.288132200174376"><ele>80.4</ele><time>2026-04-19T09:30:54.844Z</time></trkpt><trkpt lat="42.750925030272" lon="10.28813809813754"><ele>76.0</ele><time>2026-04-19T09:30:57.844Z</time></trkpt><trkpt lat="42.75101330163274" lon="10.288135576472685"><ele>76.5</ele><time>2026-04-19T09:30:59.844Z</time></trkpt><trkpt lat="42.75111756828881" lon="10.288147669416041"><ele>77.0</ele><time>2026-04-19T09:31:01.844Z</time></trkpt><trkpt lat="42.75120386148789" lon="10.288200529876928"><ele>77.5</ele><time>2026-04-19T09:31:03.843Z</time></trkpt><trkpt lat="42.75127672933894" lon="10.288243803042361"><ele>78.0</ele><time>2026-04-19T09:31:05.843Z</time></trkpt><trkpt lat="42.75134375556468" lon="10.288285740579301"><ele>78.5</ele><time>2026-04-19T09:31:07.843Z</time></trkpt><trkpt lat="42.75140271810776" lon="10.2883395764602"><ele>79.0</ele><time>2026-04-19T09:31:09.843Z</time></trkpt><trkpt lat="42.75148878454616" lon="10.288380526718644"><ele>79.0</ele><time>2026-04-19T09:31:12.843Z</time></trkpt><trkpt lat="42.75154798672053" lon="10.288411688330452"><ele>79.0</ele><time>2026-04-19T09:31:14.843Z</time></trkpt><trkpt lat="42.75160769666574" lon="10.288462386830295"><ele>79.0</ele><time>2026-04-19T09:31:16.843Z</time></trkpt><trkpt lat="42.751641893568944" lon="10.288539642850553"><ele>79.0</ele><time>2026-04-19T09:33:20.833Z</time></trkpt><trkpt lat="42.75170709995602" lon="10.28858233453948"><ele>79.0</ele><time>2026-04-19T09:33:22.832Z</time></trkpt><trkpt lat="42.75179151394516" lon="10.288632898494633"><ele>79.0</ele><time>2026-04-19T09:33:24.831Z</time></trkpt><trkpt lat="42.75188844714449" lon="10.28870057545111"><ele>77.0</ele><time>2026-04-19T09:33:26.831Z</time></trkpt><trkpt lat="42.75196511752298" lon="10.28874267777326"><ele>75.0</ele><time>2026-04-19T09:33:29.83Z</time></trkpt><trkpt lat="42.75203401362136" lon="10.288776689415059"><ele>73.0</ele><time>2026-04-19T09:33:31.829Z</time></trkpt><trkpt lat="42.752131100938236" lon="10.288796216612283"><ele>71.0</ele><time>2026-04-19T09:33:34.829Z</time></trkpt><trkpt lat="42.752215372624796" lon="10.288811591348122"><ele>69.0</ele><time>2026-04-19T09:33:36.828Z</time></trkpt><trkpt lat="42.75229817342441" lon="10.288819471406615"><ele>67.0</ele><time>2026-04-19T09:33:38.828Z</time></trkpt><trkpt lat="42.75237130279363" lon="10.288810740285308"><ele>67.0</ele><time>2026-04-19T09:33:40.828Z</time></trkpt><trkpt lat="42.75245259457665" lon="10.288820189270693"><ele>67.0</ele><time>2026-04-19T09:33:42.827Z</time></trkpt><trkpt lat="42.75254820654773" lon="10.288783638431752"><ele>67.0</ele><time>2026-04-19T09:33:44.827Z</time></trkpt><trkpt lat="42.75263673788644" lon="10.288738675943069"><ele>67.0</ele><time>2026-04-19T09:33:47.827Z</time></trkpt><trkpt lat="42.75271016971359" lon="10.288685336830131"><ele>67.0</ele><time>2026-04-19T09:33:49.827Z</time></trkpt><trkpt lat="42.75278536063654" lon="10.288599746690238"><ele>67.0</ele><time>2026-04-19T09:33:51.827Z</time></trkpt><trkpt lat="42.75285493889152" lon="10.288483588520695"><ele>67.0</ele><time>2026-04-19T09:33:53.826Z</time></trkpt><trkpt lat="42.75293247360488" lon="10.288380512503094"><ele>67.0</ele><time>2026-04-19T09:33:55.826Z</time></trkpt><trkpt lat="42.75296887929788" lon="10.288295810476884"><ele>67.0</ele><time>2026-04-19T09:33:56.826Z</time></trkpt><trkpt lat="42.753001679269865" lon="10.288199559781184"><ele>67.0</ele><time>2026-04-19T09:33:57.826Z</time></trkpt><trkpt lat="42.75306487782372" lon="10.288052631980161"><ele>67.0</ele><time>2026-04-19T09:33:59.826Z</time></trkpt><trkpt lat="42.75315358018808" lon="10.287928264608924"><ele>67.0</ele><time>2026-04-19T09:34:01.826Z</time></trkpt><trkpt lat="42.75326771576753" lon="10.287926723381316"><ele>67.0</ele><time>2026-04-19T09:34:03.826Z</time></trkpt><trkpt lat="42.753332935954234" lon="10.288040011029276"><ele>67.0</ele><time>2026-04-19T09:34:05.826Z</time></trkpt><trkpt lat="42.75336067602917" lon="10.288242644694032"><ele>65.16666666666666</ele><time>2026-04-19T09:34:07.825Z</time></trkpt><trkpt lat="42.75340782675099" lon="10.28834847231865"><ele>63.33333333333333</ele><time>2026-04-19T09:34:08.827Z</time></trkpt><trkpt lat="42.75345932567026" lon="10.2884178841988"><ele>61.5</ele><time>2026-04-19T09:34:09.827Z</time></trkpt><trkpt lat="42.753528097758384" lon="10.28849123201485"><ele>59.66666666666667</ele><time>2026-04-19T09:34:10.826Z</time></trkpt><trkpt lat="42.75358776565273" lon="10.288580426247867"><ele>57.833333333333336</ele><time>2026-04-19T09:34:11.826Z</time></trkpt><trkpt lat="42.753628592075316" lon="10.28866254510642"><ele>56.0</ele><time>2026-04-19T09:34:12.826Z</time></trkpt><trkpt lat="42.753687024370755" lon="10.288706652083352"><ele>56.0</ele><time>2026-04-19T09:34:13.826Z</time></trkpt><trkpt lat="42.75375292092896" lon="10.288752602786348"><ele>55.99999999999999</ele><time>2026-04-19T09:34:14.827Z</time></trkpt><trkpt lat="42.753867552704975" lon="10.288850497737263"><ele>55.99999999999999</ele><time>2026-04-19T09:34:16.826Z</time></trkpt><trkpt lat="42.75394575265428" lon="10.288848138232625"><ele>56.0</ele><time>2026-04-19T09:34:17.826Z</time></trkpt><trkpt lat="42.754036943283786" lon="10.288830180071338"><ele>56.0</ele><time>2026-04-19T09:34:18.826Z</time></trkpt><trkpt lat="42.75411454148375" lon="10.288798507365394"><ele>56.0</ele><time>2026-04-19T09:34:19.826Z</time></trkpt><trkpt lat="42.75421574023178" lon="10.288741338733644"><ele>55.99999999999999</ele><time>2026-04-19T09:34:20.826Z</time></trkpt><trkpt lat="42.75429908448899" lon="10.2886875531105"><ele>55.99999999999999</ele><time>2026-04-19T09:34:21.826Z</time></trkpt><trkpt lat="42.75436941579065" lon="10.288662439767053"><ele>56.0</ele><time>2026-04-19T09:34:22.826Z</time></trkpt><trkpt lat="42.75448541696406" lon="10.28869584466324"><ele>56.0</ele><time>2026-04-19T09:34:24.826Z</time></trkpt><trkpt lat="42.754536850814965" lon="10.288810709613562"><ele>56.14285714285714</ele><time>2026-04-19T09:34:26.826Z</time></trkpt><trkpt lat="42.75453630883733" lon="10.288910447682053"><ele>56.285714285714285</ele><time>2026-04-19T09:34:27.825Z</time></trkpt><trkpt lat="42.754538497742395" lon="10.289009595406823"><ele>56.42857142857143</ele><time>2026-04-19T09:34:28.825Z</time></trkpt><trkpt lat="42.754545392888" lon="10.289116980662648"><ele>56.57142857142857</ele><time>2026-04-19T09:34:29.825Z</time></trkpt><trkpt lat="42.7545768100911" lon="10.289219869711921"><ele>56.71428571428571</ele><time>2026-04-19T09:34:30.825Z</time></trkpt><trkpt lat="42.754606698526246" lon="10.289305526109082"><ele>56.857142857142854</ele><time>2026-04-19T09:34:31.825Z</time></trkpt><trkpt lat="42.75462904194139" lon="10.289388653874115"><ele>57.0</ele><time>2026-04-19T09:34:32.825Z</time></trkpt><trkpt lat="42.75465456057288" lon="10.289478231712902"><ele>57.0</ele><time>2026-04-19T09:34:33.825Z</time></trkpt><trkpt lat="42.75469798478197" lon="10.28962874499935"><ele>57.0</ele><time>2026-04-19T09:34:35.825Z</time></trkpt><trkpt lat="42.754724925147634" lon="10.289717454565348"><ele>57.0</ele><time>2026-04-19T09:34:36.825Z</time></trkpt><trkpt lat="42.754746824320094" lon="10.289807030825365"><ele>57.0</ele><time>2026-04-19T09:34:37.825Z</time></trkpt><trkpt lat="42.75477524937716" lon="10.289888833082715"><ele>57.0</ele><time>2026-04-19T09:34:38.825Z</time></trkpt><trkpt lat="42.75481067163415" lon="10.289973833454928"><ele>57.0</ele><time>2026-04-19T09:34:39.825Z</time></trkpt><trkpt lat="42.75487806714761" lon="10.290094785895999"><ele>54.0</ele><time>2026-04-19T09:34:41.825Z</time></trkpt><trkpt lat="42.754903166582785" lon="10.290224369986078"><ele>51.0</ele><time>2026-04-19T09:34:43.825Z</time></trkpt><trkpt lat="42.754937901142185" lon="10.290399030984055"><ele>48.0</ele><time>2026-04-19T09:34:45.825Z</time></trkpt><trkpt lat="42.7549738965378" lon="10.29050942532409"><ele>45.0</ele><time>2026-04-19T09:34:46.825Z</time></trkpt><trkpt lat="42.75501140027058" lon="10.290625874873111"><ele>42.0</ele><time>2026-04-19T09:34:47.825Z</time></trkpt><trkpt lat="42.75504814654854" lon="10.290731540684831"><ele>40.5</ele><time>2026-04-19T09:34:48.825Z</time></trkpt><trkpt lat="42.75501329978339" lon="10.290820548000513"><ele>39.0</ele><time>2026-04-19T09:34:49.825Z</time></trkpt><trkpt lat="42.754976771927026" lon="10.290955822770057"><ele>37.5</ele><time>2026-04-19T09:34:51.825Z</time></trkpt><trkpt lat="42.754958431122844" lon="10.291047688033519"><ele>36.0</ele><time>2026-04-19T09:34:52.825Z</time></trkpt><trkpt lat="42.75495104552931" lon="10.291151283529285"><ele>34.5</ele><time>2026-04-19T09:34:53.825Z</time></trkpt><trkpt lat="42.7549745152737" lon="10.291280702212015"><ele>33.0</ele><time>2026-04-19T09:34:54.825Z</time></trkpt><trkpt lat="42.75501280113614" lon="10.291403972691809"><ele>31.4</ele><time>2026-04-19T09:34:55.824Z</time></trkpt><trkpt lat="42.755044502075414" lon="10.291539679218324"><ele>29.799999999999997</ele><time>2026-04-19T09:34:56.824Z</time></trkpt><trkpt lat="42.75508396297306" lon="10.291672181367499"><ele>28.2</ele><time>2026-04-19T09:34:57.824Z</time></trkpt><trkpt lat="42.755132122129766" lon="10.291798463315907"><ele>26.6</ele><time>2026-04-19T09:34:58.824Z</time></trkpt><trkpt lat="42.755149926009274" lon="10.291913330774648"><ele>25.0</ele><time>2026-04-19T09:34:59.824Z</time></trkpt><trkpt lat="42.755217019157215" lon="10.291990010927586"><ele>26.0</ele><time>2026-04-19T09:35:00.824Z</time></trkpt><trkpt lat="42.75525883983961" lon="10.292067615080798"><ele>27.0</ele><time>2026-04-19T09:35:01.824Z</time></trkpt><trkpt lat="42.75530362969242" lon="10.292146045830242"><ele>28.0</ele><time>2026-04-19T09:35:02.824Z</time></trkpt><trkpt lat="42.755357305344674" lon="10.29221309179405"><ele>29.0</ele><time>2026-04-19T09:35:03.824Z</time></trkpt><trkpt lat="42.75542386297099" lon="10.292264135404828"><ele>29.999999999999996</ele><time>2026-04-19T09:35:04.824Z</time></trkpt><trkpt lat="42.75549199488755" lon="10.292295742027651"><ele>31.0</ele><time>2026-04-19T09:35:05.824Z</time></trkpt><trkpt lat="42.755570629236814" lon="10.29229575198725"><ele>32.0</ele><time>2026-04-19T09:35:06.824Z</time></trkpt><trkpt lat="42.75565444524583" lon="10.292416874820223"><ele>31.999999999999996</ele><time>2026-04-19T09:35:08.824Z</time></trkpt><trkpt lat="42.75562414991393" lon="10.292499184993593"><ele>32.0</ele><time>2026-04-19T09:35:09.824Z</time></trkpt><trkpt lat="42.75568178422892" lon="10.292659061871587"><ele>32.0</ele><time>2026-04-19T09:35:11.824Z</time></trkpt><trkpt lat="42.755730185561106" lon="10.292714231241613"><ele>32.0</ele><time>2026-04-19T09:35:12.824Z</time></trkpt><trkpt lat="42.755805685493144" lon="10.292762294558536"><ele>31.999999999999996</ele><time>2026-04-19T09:35:13.824Z</time></trkpt><trkpt lat="42.755897414129805" lon="10.292778658929475"><ele>32.0</ele><time>2026-04-19T09:35:14.824Z</time></trkpt><trkpt lat="42.75597283894064" lon="10.292811959945611"><ele>32.666666666666664</ele><time>2026-04-19T09:35:15.824Z</time></trkpt><trkpt lat="42.756044005542996" lon="10.29286855460891"><ele>33.33333333333333</ele><time>2026-04-19T09:35:16.824Z</time></trkpt><trkpt lat="42.756085020852844" lon="10.29295373845283"><ele>34.0</ele><time>2026-04-19T09:35:17.824Z</time></trkpt><trkpt lat="42.756134102190494" lon="10.293035179243718"><ele>34.666666666666664</ele><time>2026-04-19T09:35:18.824Z</time></trkpt><trkpt lat="42.75618725952779" lon="10.293124293752618"><ele>35.333333333333336</ele><time>2026-04-19T09:35:19.824Z</time></trkpt><trkpt lat="42.756245038265625" lon="10.293219020559466"><ele>36.0</ele><time>2026-04-19T09:35:20.824Z</time></trkpt><trkpt lat="42.75629571568203" lon="10.293297452373233"><ele>36.0</ele><time>2026-04-19T09:35:21.824Z</time></trkpt><trkpt lat="42.7563416211015" lon="10.293369408564265"><ele>36.0</ele><time>2026-04-19T09:35:22.824Z</time></trkpt><trkpt lat="42.75641287273073" lon="10.293434528315958"><ele>36.0</ele><time>2026-04-19T09:35:23.824Z</time></trkpt><trkpt lat="42.75648491529977" lon="10.293513630112775"><ele>36.0</ele><time>2026-04-19T09:35:24.823Z</time></trkpt><trkpt lat="42.75654904797149" lon="10.293595025562638"><ele>36.0</ele><time>2026-04-19T09:35:25.823Z</time></trkpt><trkpt lat="42.7566025409966" lon="10.293700769632858"><ele>36.0</ele><time>2026-04-19T09:35:26.823Z</time></trkpt><trkpt lat="42.75665719796128" lon="10.293784638766637"><ele>36.0</ele><time>2026-04-19T09:35:27.823Z</time></trkpt><trkpt lat="42.75672607360164" lon="10.293843516006683"><ele>36.0</ele><time>2026-04-19T09:35:28.823Z</time></trkpt><trkpt lat="42.75680959707223" lon="10.293869982006758"><ele>36.0</ele><time>2026-04-19T09:35:29.823Z</time></trkpt><trkpt lat="42.756895216637034" lon="10.29388019945872"><ele>36.0</ele><time>2026-04-19T09:35:30.823Z</time></trkpt><trkpt lat="42.75696199973249" lon="10.29390285299966"><ele>36.0</ele><time>2026-04-19T09:35:31.823Z</time></trkpt><trkpt lat="42.75701576088781" lon="10.293965963629013"><ele>36.0</ele><time>2026-04-19T09:35:32.823Z</time></trkpt><trkpt lat="42.757065861103875" lon="10.294064190582501"><ele>36.4</ele><time>2026-04-19T09:35:33.823Z</time></trkpt><trkpt lat="42.75713392783827" lon="10.294153966354328"><ele>36.8</ele><time>2026-04-19T09:35:34.823Z</time></trkpt><trkpt lat="42.75721658985282" lon="10.294231235215065"><ele>37.199999999999996</ele><time>2026-04-19T09:35:35.823Z</time></trkpt><trkpt lat="42.75727414203643" lon="10.294331131651505"><ele>37.6</ele><time>2026-04-19T09:35:36.823Z</time></trkpt><trkpt lat="42.757352961942914" lon="10.29443128731341"><ele>38.0</ele><time>2026-04-19T09:35:37.823Z</time></trkpt><trkpt lat="42.7574162950774" lon="10.294535173193282"><ele>38.0</ele><time>2026-04-19T09:35:38.823Z</time></trkpt><trkpt lat="42.75748322081603" lon="10.294641732867923"><ele>38.0</ele><time>2026-04-19T09:35:39.823Z</time></trkpt><trkpt lat="42.75753568364262" lon="10.294737881487125"><ele>38.0</ele><time>2026-04-19T09:35:40.823Z</time></trkpt><trkpt lat="42.75756542888753" lon="10.294826563351695"><ele>38.0</ele><time>2026-04-19T09:35:41.823Z</time></trkpt><trkpt lat="42.757578824821934" lon="10.294931083929614"><ele>38.0</ele><time>2026-04-19T09:35:42.823Z</time></trkpt><trkpt lat="42.757646128467975" lon="10.294994256759184"><ele>38.0</ele><time>2026-04-19T09:35:43.823Z</time></trkpt><trkpt lat="42.757699346721814" lon="10.295046214829581"><ele>36.8</ele><time>2026-04-19T09:35:44.823Z</time></trkpt><trkpt lat="42.757772330045306" lon="10.295085896952642"><ele>35.599999999999994</ele><time>2026-04-19T09:35:45.823Z</time></trkpt><trkpt lat="42.75785660200611" lon="10.295102319024727"><ele>34.400000000000006</ele><time>2026-04-19T09:35:46.823Z</time></trkpt><trkpt lat="42.75797394946131" lon="10.295096865743972"><ele>33.2</ele><time>2026-04-19T09:35:47.823Z</time></trkpt><trkpt lat="42.75809455686149" lon="10.295082976276776"><ele>32.0</ele><time>2026-04-19T09:35:48.823Z</time></trkpt><trkpt lat="42.758187577321884" lon="10.29508407385067"><ele>31.999999999999996</ele><time>2026-04-19T09:35:49.823Z</time></trkpt><trkpt lat="42.75826923797065" lon="10.295028045797212"><ele>32.0</ele><time>2026-04-19T09:35:50.823Z</time></trkpt><trkpt lat="42.75834252518913" lon="10.295001624788298"><ele>32.0</ele><time>2026-04-19T09:35:51.823Z</time></trkpt><trkpt lat="42.758411139045286" lon="10.294976888801761"><ele>32.0</ele><time>2026-04-19T09:35:52.823Z</time></trkpt><trkpt lat="42.75848332342427" lon="10.29502404874299"><ele>31.999999999999996</ele><time>2026-04-19T09:35:53.823Z</time></trkpt><trkpt lat="42.75858859648777" lon="10.295119419658482"><ele>32.0</ele><time>2026-04-19T09:35:55.822Z</time></trkpt><trkpt lat="42.75865528346362" lon="10.295161921966928"><ele>32.666666666666664</ele><time>2026-04-19T09:35:56.822Z</time></trkpt><trkpt lat="42.75872720966056" lon="10.29519473463669"><ele>33.33333333333333</ele><time>2026-04-19T09:35:57.822Z</time></trkpt><trkpt lat="42.75879056203194" lon="10.295252169541898"><ele>34.0</ele><time>2026-04-19T09:35:58.822Z</time></trkpt><trkpt lat="42.75885831583597" lon="10.295307808239436"><ele>34.666666666666664</ele><time>2026-04-19T09:35:59.822Z</time></trkpt><trkpt lat="42.758893756382776" lon="10.295420929844205"><ele>35.333333333333336</ele><time>2026-04-19T09:36:00.822Z</time></trkpt><trkpt lat="42.75895283681497" lon="10.29552086811923"><ele>36.0</ele><time>2026-04-19T09:36:01.822Z</time></trkpt><trkpt lat="42.75902246821061" lon="10.295588177959178"><ele>36.0</ele><time>2026-04-19T09:36:02.822Z</time></trkpt><trkpt lat="42.75907804523412" lon="10.295669834954298"><ele>36.0</ele><time>2026-04-19T09:36:03.822Z</time></trkpt><trkpt lat="42.759146635699366" lon="10.295733544861639"><ele>36.0</ele><time>2026-04-19T09:36:04.822Z</time></trkpt><trkpt lat="42.75922419351522" lon="10.295785947706557"><ele>36.0</ele><time>2026-04-19T09:36:05.822Z</time></trkpt><trkpt lat="42.75927321284645" lon="10.295868144130221"><ele>36.0</ele><time>2026-04-19T09:36:06.822Z</time></trkpt><trkpt lat="42.7592783580628" lon="10.295966329616146"><ele>36.0</ele><time>2026-04-19T09:36:07.822Z</time></trkpt><trkpt lat="42.75925807760536" lon="10.296060676673354"><ele>36.0</ele><time>2026-04-19T09:36:08.822Z</time></trkpt><trkpt lat="42.759283325676485" lon="10.29617065672808"><ele>36.0</ele><time>2026-04-19T09:36:09.822Z</time></trkpt><trkpt lat="42.75930103750688" lon="10.296266091210752"><ele>36.0</ele><time>2026-04-19T09:36:10.822Z</time></trkpt><trkpt lat="42.75928139158655" lon="10.296423313563004"><ele>36.0</ele><time>2026-04-19T09:36:12.822Z</time></trkpt><trkpt lat="42.75922840694085" lon="10.296609972130158"><ele>36.0</ele><time>2026-04-19T09:36:14.823Z</time></trkpt><trkpt lat="42.759208482758986" lon="10.296734811562311"><ele>35.4</ele><time>2026-04-19T09:36:15.823Z</time></trkpt><trkpt lat="42.75920998041658" lon="10.296875425094266"><ele>34.8</ele><time>2026-04-19T09:36:16.824Z</time></trkpt><trkpt lat="42.7592097477361" lon="10.29702151076457"><ele>34.199999999999996</ele><time>2026-04-19T09:36:17.824Z</time></trkpt><trkpt lat="42.75921695383983" lon="10.297150406852491"><ele>33.6</ele><time>2026-04-19T09:36:18.823Z</time></trkpt><trkpt lat="42.759239183618014" lon="10.297269811231414"><ele>33.0</ele><time>2026-04-19T09:36:19.823Z</time></trkpt><trkpt lat="42.75926804356241" lon="10.297389365667254"><ele>32.833333333333336</ele><time>2026-04-19T09:36:20.823Z</time></trkpt><trkpt lat="42.75929370412054" lon="10.297500933468775"><ele>32.666666666666664</ele><time>2026-04-19T09:36:21.823Z</time></trkpt><trkpt lat="42.759304837412465" lon="10.297617795395094"><ele>32.5</ele><time>2026-04-19T09:36:22.823Z</time></trkpt><trkpt lat="42.75936071121259" lon="10.297729314297534"><ele>32.33333333333333</ele><time>2026-04-19T09:36:23.823Z</time></trkpt><trkpt lat="42.75938809025054" lon="10.297833170314044"><ele>32.166666666666664</ele><time>2026-04-19T09:36:24.823Z</time></trkpt><trkpt lat="42.7594112418203" lon="10.297943115883589"><ele>32.0</ele><time>2026-04-19T09:36:25.822Z</time></trkpt><trkpt lat="42.75941030537406" lon="10.298070462903858"><ele>29.999999999999996</ele><time>2026-04-19T09:36:26.823Z</time></trkpt><trkpt lat="42.75942195434107" lon="10.29818152414637"><ele>28.0</ele><time>2026-04-19T09:36:27.823Z</time></trkpt><trkpt lat="42.75943869516017" lon="10.298296809040215"><ele>26.0</ele><time>2026-04-19T09:36:28.822Z</time></trkpt><trkpt lat="42.75946749340694" lon="10.29838039289196"><ele>24.0</ele><time>2026-04-19T09:36:29.822Z</time></trkpt><trkpt lat="42.7595285294796" lon="10.298430267720219"><ele>22.0</ele><time>2026-04-19T09:36:31.822Z</time></trkpt><trkpt lat="42.759590456460565" lon="10.298355360020253"><ele>20.0</ele><time>2026-04-19T09:36:33.822Z</time></trkpt><trkpt lat="42.759631561238" lon="10.298199635898166"><ele>20.0</ele><time>2026-04-19T09:36:35.822Z</time></trkpt><trkpt lat="42.75966705391279" lon="10.298095574345071"><ele>20.0</ele><time>2026-04-19T09:36:36.822Z</time></trkpt><trkpt lat="42.75974077256892" lon="10.298004975224421"><ele>20.0</ele><time>2026-04-19T09:36:37.822Z</time></trkpt><trkpt lat="42.75982747865844" lon="10.297956277175981"><ele>20.0</ele><time>2026-04-19T09:36:38.822Z</time></trkpt><trkpt lat="42.759936674762656" lon="10.297909637866402"><ele>20.0</ele><time>2026-04-19T09:36:39.822Z</time></trkpt><trkpt lat="42.760029173596074" lon="10.2978771786782"><ele>20.6</ele><time>2026-04-19T09:36:40.822Z</time></trkpt><trkpt lat="42.76010484499419" lon="10.297846062171592"><ele>21.2</ele><time>2026-04-19T09:36:41.822Z</time></trkpt><trkpt lat="42.7601973508923" lon="10.297806922417674"><ele>21.799999999999997</ele><time>2026-04-19T09:36:42.822Z</time></trkpt><trkpt lat="42.76028868354027" lon="10.297769743606908"><ele>22.4</ele><time>2026-04-19T09:36:43.822Z</time></trkpt><trkpt lat="42.76037781254953" lon="10.29773338304425"><ele>23.0</ele><time>2026-04-19T09:36:44.822Z</time></trkpt><trkpt lat="42.760472276849036" lon="10.29769566049808"><ele>23.0</ele><time>2026-04-19T09:36:45.822Z</time></trkpt><trkpt lat="42.760579109228786" lon="10.297628888249685"><ele>23.0</ele><time>2026-04-19T09:36:46.822Z</time></trkpt><trkpt lat="42.76068708346338" lon="10.297553066242244"><ele>23.0</ele><time>2026-04-19T09:36:47.821Z</time></trkpt><trkpt lat="42.760785476752" lon="10.297492432993888"><ele>23.0</ele><time>2026-04-19T09:36:48.821Z</time></trkpt><trkpt lat="42.760880561182866" lon="10.297439977009857"><ele>23.0</ele><time>2026-04-19T09:36:49.821Z</time></trkpt><trkpt lat="42.76098648074744" lon="10.29738899827972"><ele>23.0</ele><time>2026-04-19T09:36:50.821Z</time></trkpt><trkpt lat="42.761084996432984" lon="10.297346099844113"><ele>23.0</ele><time>2026-04-19T09:36:51.821Z</time></trkpt><trkpt lat="42.76118072320179" lon="10.29726903739261"><ele>23.0</ele><time>2026-04-19T09:36:52.821Z</time></trkpt><trkpt lat="42.761249908407095" lon="10.29714636872786"><ele>23.0</ele><time>2026-04-19T09:36:53.821Z</time></trkpt><trkpt lat="42.761324660533745" lon="10.297022405175122"><ele>22.0</ele><time>2026-04-19T09:36:54.821Z</time></trkpt><trkpt lat="42.761414555608866" lon="10.296914639631341"><ele>21.0</ele><time>2026-04-19T09:36:55.821Z</time></trkpt><trkpt lat="42.76150282110242" lon="10.296806076792128"><ele>20.0</ele><time>2026-04-19T09:36:56.821Z</time></trkpt><trkpt lat="42.76158866321887" lon="10.296708817021676"><ele>19.0</ele><time>2026-04-19T09:36:57.821Z</time></trkpt><trkpt lat="42.76166744073419" lon="10.296616150077305"><ele>19.0</ele><time>2026-04-19T09:36:58.821Z</time></trkpt><trkpt lat="42.7617337170699" lon="10.296560204449904"><ele>19.0</ele><time>2026-04-19T09:36:59.821Z</time></trkpt><trkpt lat="42.761797174624455" lon="10.296505527030309"><ele>19.0</ele><time>2026-04-19T09:37:00.821Z</time></trkpt><trkpt lat="42.761862720579614" lon="10.296440991284783"><ele>19.0</ele><time>2026-04-19T09:37:01.821Z</time></trkpt><trkpt lat="42.761869335742404" lon="10.296330744265097"><ele>19.0</ele><time>2026-04-19T09:37:02.821Z</time></trkpt><trkpt lat="42.76186240181696" lon="10.296201941051876"><ele>19.0</ele><time>2026-04-19T09:37:04.821Z</time></trkpt><trkpt lat="42.76184377650381" lon="10.296112388748828"><ele>18.25</ele><time>2026-04-19T09:37:07.821Z</time></trkpt><trkpt lat="42.76197293204414" lon="10.29619296440417"><ele>17.5</ele><time>2026-04-19T09:37:10.821Z</time></trkpt><trkpt lat="42.76203356150761" lon="10.29628814478449"><ele>16.75</ele><time>2026-04-19T09:37:11.821Z</time></trkpt><trkpt lat="42.76209702144752" lon="10.296392968648929"><ele>16.0</ele><time>2026-04-19T09:37:12.821Z</time></trkpt><trkpt lat="42.76217855649354" lon="10.296507340518568"><ele>15.25</ele><time>2026-04-19T09:37:13.821Z</time></trkpt><trkpt lat="42.762263338840555" lon="10.296623942822299"><ele>14.5</ele><time>2026-04-19T09:37:14.821Z</time></trkpt><trkpt lat="42.76234422596822" lon="10.296741930361243"><ele>13.75</ele><time>2026-04-19T09:37:15.821Z</time></trkpt><trkpt lat="42.76242355590384" lon="10.296891828754248"><ele>13.0</ele><time>2026-04-19T09:37:16.821Z</time></trkpt><trkpt lat="42.7624880471254" lon="10.29705252127945"><ele>13.0</ele><time>2026-04-19T09:37:17.82Z</time></trkpt><trkpt lat="42.76251534416276" lon="10.297215033456114"><ele>13.0</ele><time>2026-04-19T09:37:18.82Z</time></trkpt><trkpt lat="42.76254375733506" lon="10.297369201049666"><ele>13.0</ele><time>2026-04-19T09:37:19.82Z</time></trkpt><trkpt lat="42.76254835773128" lon="10.297521973112683"><ele>13.0</ele><time>2026-04-19T09:37:20.82Z</time></trkpt><trkpt lat="42.762520588216226" lon="10.29766318636084"><ele>12.75</ele><time>2026-04-19T09:37:21.82Z</time></trkpt><trkpt lat="42.76247691958383" lon="10.297791001667633"><ele>12.5</ele><time>2026-04-19T09:37:22.82Z</time></trkpt><trkpt lat="42.76242639592557" lon="10.297922876920577"><ele>12.25</ele><time>2026-04-19T09:37:23.82Z</time></trkpt><trkpt lat="42.76237668806636" lon="10.298078166281876"><ele>12.0</ele><time>2026-04-19T09:37:24.82Z</time></trkpt><trkpt lat="42.762337597939194" lon="10.298247614080834"><ele>12.0</ele><time>2026-04-19T09:37:25.82Z</time></trkpt><trkpt lat="42.76231046030616" lon="10.298433457160014"><ele>12.0</ele><time>2026-04-19T09:37:26.82Z</time></trkpt><trkpt lat="42.76227858752276" lon="10.298600133004244"><ele>12.0</ele><time>2026-04-19T09:37:27.82Z</time></trkpt><trkpt lat="42.76224476098182" lon="10.298758512616441"><ele>12.0</ele><time>2026-04-19T09:37:28.82Z</time></trkpt><trkpt lat="42.76220835898394" lon="10.298924555466725"><ele>12.25</ele><time>2026-04-19T09:37:29.82Z</time></trkpt><trkpt lat="42.76216718285779" lon="10.299099000267345"><ele>12.5</ele><time>2026-04-19T09:37:30.82Z</time></trkpt><trkpt lat="42.76212477141311" lon="10.299274607478523"><ele>12.75</ele><time>2026-04-19T09:37:31.82Z</time></trkpt><trkpt lat="42.7620714627721" lon="10.299421883149847"><ele>13.0</ele><time>2026-04-19T09:37:32.82Z</time></trkpt><trkpt lat="42.762009334537986" lon="10.299562443085458"><ele>13.0</ele><time>2026-04-19T09:37:33.82Z</time></trkpt><trkpt lat="42.76193522151224" lon="10.299717970589823"><ele>13.0</ele><time>2026-04-19T09:37:34.82Z</time></trkpt><trkpt lat="42.761863930041265" lon="10.299877344333584"><ele>13.0</ele><time>2026-04-19T09:37:35.82Z</time></trkpt><trkpt lat="42.76179659309824" lon="10.30005863111621"><ele>13.0</ele><time>2026-04-19T09:37:36.82Z</time></trkpt><trkpt lat="42.7617472350172" lon="10.300236697088163"><ele>11.0</ele><time>2026-04-19T09:37:37.82Z</time></trkpt><trkpt lat="42.761732705566914" lon="10.300428123037245"><ele>9.0</ele><time>2026-04-19T09:37:38.82Z</time></trkpt><trkpt lat="42.7617241744966" lon="10.300607634135122"><ele>7.0</ele><time>2026-04-19T09:37:39.82Z</time></trkpt><trkpt lat="42.76174389194177" lon="10.30077430540928"><ele>5.0</ele><time>2026-04-19T09:37:40.82Z</time></trkpt><trkpt lat="42.76175898971229" lon="10.300947636453655"><ele>5.0</ele><time>2026-04-19T09:37:41.82Z</time></trkpt><trkpt lat="42.76177353726464" lon="10.301116820196194"><ele>5.0</ele><time>2026-04-19T09:37:42.82Z</time></trkpt><trkpt lat="42.761795327971825" lon="10.301286353503649"><ele>5.0</ele><time>2026-04-19T09:37:43.82Z</time></trkpt><trkpt lat="42.76180686379834" lon="10.301457791733252"><ele>5.0</ele><time>2026-04-19T09:37:44.82Z</time></trkpt><trkpt lat="42.7618128229101" lon="10.301645951765533"><ele>5.0</ele><time>2026-04-19T09:37:45.82Z</time></trkpt><trkpt lat="42.76183838901518" lon="10.301817987274937"><ele>5.0</ele><time>2026-04-19T09:37:46.82Z</time></trkpt><trkpt lat="42.761846226001545" lon="10.302000437200343"><ele>5.0</ele><time>2026-04-19T09:37:47.819Z</time></trkpt><trkpt lat="42.76185345661824" lon="10.302183061028307"><ele>5.0</ele><time>2026-04-19T09:37:48.819Z</time></trkpt><trkpt lat="42.76184400967128" lon="10.302355261948076"><ele>4.75</ele><time>2026-04-19T09:37:49.819Z</time></trkpt><trkpt lat="42.761850833774176" lon="10.302535307321238"><ele>4.5</ele><time>2026-04-19T09:37:50.819Z</time></trkpt><trkpt lat="42.76185777018385" lon="10.302718315625905"><ele>4.25</ele><time>2026-04-19T09:37:51.819Z</time></trkpt><trkpt lat="42.76186504553903" lon="10.302910266701803"><ele>4.0</ele><time>2026-04-19T09:37:52.819Z</time></trkpt><trkpt lat="42.76188770328694" lon="10.303093002884335"><ele>4.75</ele><time>2026-04-19T09:37:53.819Z</time></trkpt><trkpt lat="42.761879328544474" lon="10.303287103275538"><ele>5.5</ele><time>2026-04-19T09:37:54.819Z</time></trkpt><trkpt lat="42.761886441358406" lon="10.303468618647457"><ele>6.25</ele><time>2026-04-19T09:37:55.819Z</time></trkpt><trkpt lat="42.76189295813302" lon="10.303649406953467"><ele>7.0</ele><time>2026-04-19T09:37:56.819Z</time></trkpt><trkpt lat="42.761912992108535" lon="10.303830427472468"><ele>8.0</ele><time>2026-04-19T09:37:57.819Z</time></trkpt><trkpt lat="42.76189994814781" lon="10.304008306048997"><ele>9.0</ele><time>2026-04-19T09:37:58.819Z</time></trkpt><trkpt lat="42.761905091385216" lon="10.304171175303873"><ele>10.0</ele><time>2026-04-19T09:37:59.819Z</time></trkpt><trkpt lat="42.76190987846964" lon="10.304334229083336"><ele>11.0</ele><time>2026-04-19T09:38:00.819Z</time></trkpt><trkpt lat="42.76191420742139" lon="10.304470563347953"><ele>11.0</ele><time>2026-04-19T09:38:01.819Z</time></trkpt><trkpt lat="42.76191459785198" lon="10.304625968916104"><ele>11.0</ele><time>2026-04-19T09:38:02.819Z</time></trkpt><trkpt lat="42.76192239071831" lon="10.304817632917235"><ele>11.0</ele><time>2026-04-19T09:38:03.819Z</time></trkpt><trkpt lat="42.76193777540465" lon="10.305029403653704"><ele>11.0</ele><time>2026-04-19T09:38:04.819Z</time></trkpt><trkpt lat="42.761944460073174" lon="10.305234000991987"><ele>10.5</ele><time>2026-04-19T09:38:05.819Z</time></trkpt><trkpt lat="42.761952589031054" lon="10.305440606703053"><ele>10.0</ele><time>2026-04-19T09:38:06.819Z</time></trkpt><trkpt lat="42.76196205276775" lon="10.305636779448141"><ele>9.5</ele><time>2026-04-19T09:38:07.819Z</time></trkpt><trkpt lat="42.76196707942868" lon="10.30581959942499"><ele>9.0</ele><time>2026-04-19T09:38:08.819Z</time></trkpt><trkpt lat="42.7619748234556" lon="10.305991797417866"><ele>8.25</ele><time>2026-04-19T09:38:09.819Z</time></trkpt><trkpt lat="42.76198399465277" lon="10.30616428777272"><ele>7.5</ele><time>2026-04-19T09:38:10.819Z</time></trkpt><trkpt lat="42.76197827015147" lon="10.306335882511757"><ele>6.75</ele><time>2026-04-19T09:38:11.819Z</time></trkpt><trkpt lat="42.7619871138165" lon="10.306502602507466"><ele>6.0</ele><time>2026-04-19T09:38:12.819Z</time></trkpt><trkpt lat="42.76199403992801" lon="10.306659821084978"><ele>6.0</ele><time>2026-04-19T09:38:13.819Z</time></trkpt><trkpt lat="42.761996873571356" lon="10.306822744998065"><ele>6.0</ele><time>2026-04-19T09:38:14.819Z</time></trkpt><trkpt lat="42.761990552955005" lon="10.306984225265957"><ele>6.0</ele><time>2026-04-19T09:38:15.819Z</time></trkpt><trkpt lat="42.761980051881984" lon="10.307155025815689"><ele>6.0</ele><time>2026-04-19T09:38:16.819Z</time></trkpt><trkpt lat="42.761960043262704" lon="10.307321875779621"><ele>5.25</ele><time>2026-04-19T09:38:17.818Z</time></trkpt><trkpt lat="42.76191703375634" lon="10.307484040721027"><ele>4.5</ele><time>2026-04-19T09:38:18.818Z</time></trkpt><trkpt lat="42.76188971173343" lon="10.307649633005445"><ele>3.75</ele><time>2026-04-19T09:38:19.818Z</time></trkpt><trkpt lat="42.76186042341254" lon="10.30782714208185"><ele>3.0</ele><time>2026-04-19T09:38:20.82Z</time></trkpt><trkpt lat="42.7618302844422" lon="10.30800980727651"><ele>2.75</ele><time>2026-04-19T09:38:21.82Z</time></trkpt><trkpt lat="42.761800429918054" lon="10.308190748088098"><ele>2.5</ele><time>2026-04-19T09:38:22.82Z</time></trkpt><trkpt lat="42.76176759173706" lon="10.308375668948909"><ele>2.25</ele><time>2026-04-19T09:38:23.82Z</time></trkpt><trkpt lat="42.76172418908311" lon="10.308564226241023"><ele>2.0</ele><time>2026-04-19T09:38:24.82Z</time></trkpt><trkpt lat="42.76166306972424" lon="10.308750907017231"><ele>3.0</ele><time>2026-04-19T09:38:25.82Z</time></trkpt><trkpt lat="42.76159355270514" lon="10.308929255207476"><ele>4.0</ele><time>2026-04-19T09:38:26.82Z</time></trkpt><trkpt lat="42.76152309215908" lon="10.309099870491039"><ele>5.0</ele><time>2026-04-19T09:38:27.82Z</time></trkpt><trkpt lat="42.76145085108105" lon="10.30928201691057"><ele>6.0</ele><time>2026-04-19T09:38:28.82Z</time></trkpt><trkpt lat="42.76139554301545" lon="10.309491194016289"><ele>6.0</ele><time>2026-04-19T09:38:29.82Z</time></trkpt><trkpt lat="42.76133799513089" lon="10.309685282110852"><ele>6.0</ele><time>2026-04-19T09:38:30.819Z</time></trkpt><trkpt lat="42.761264506981156" lon="10.309870695736121"><ele>6.0</ele><time>2026-04-19T09:38:31.819Z</time></trkpt><trkpt lat="42.76120954527924" lon="10.310047102036425"><ele>6.0</ele><time>2026-04-19T09:38:32.819Z</time></trkpt><trkpt lat="42.761152658074785" lon="10.310229696827891"><ele>5.75</ele><time>2026-04-19T09:38:33.819Z</time></trkpt><trkpt lat="42.761099966666386" lon="10.310398820260092"><ele>5.5</ele><time>2026-04-19T09:38:34.82Z</time></trkpt><trkpt lat="42.76104498857891" lon="10.31057446192583"><ele>5.25</ele><time>2026-04-19T09:38:35.82Z</time></trkpt><trkpt lat="42.760987905122334" lon="10.310756005973795"><ele>5.0</ele><time>2026-04-19T09:38:36.82Z</time></trkpt><trkpt lat="42.760937210119415" lon="10.31091711958688"><ele>5.0</ele><time>2026-04-19T09:38:37.82Z</time></trkpt><trkpt lat="42.76092079581142" lon="10.311103577936123"><ele>5.0</ele><time>2026-04-19T09:38:38.82Z</time></trkpt><trkpt lat="42.76087564501082" lon="10.31126698104893"><ele>5.0</ele><time>2026-04-19T09:38:39.82Z</time></trkpt><trkpt lat="42.76082036904287" lon="10.311411278524343"><ele>5.0</ele><time>2026-04-19T09:38:40.82Z</time></trkpt><trkpt lat="42.76078091513368" lon="10.311540740466928"><ele>4.75</ele><time>2026-04-19T09:38:41.82Z</time></trkpt><trkpt lat="42.76073493251161" lon="10.311676807300076"><ele>4.5</ele><time>2026-04-19T09:38:42.82Z</time></trkpt><trkpt lat="42.76071579378428" lon="10.311831552519278"><ele>4.25</ele><time>2026-04-19T09:38:43.82Z</time></trkpt><trkpt lat="42.76070988431348" lon="10.312005943629712"><ele>4.0</ele><time>2026-04-19T09:38:44.82Z</time></trkpt><trkpt lat="42.76072783407594" lon="10.312170251406755"><ele>4.0</ele><time>2026-04-19T09:38:45.82Z</time></trkpt><trkpt lat="42.760728721580975" lon="10.31232877027577"><ele>4.0</ele><time>2026-04-19T09:38:46.82Z</time></trkpt><trkpt lat="42.76072012988106" lon="10.312486337443682"><ele>4.0</ele><time>2026-04-19T09:38:47.82Z</time></trkpt><trkpt lat="42.76069969007091" lon="10.31262390193881"><ele>4.0</ele><time>2026-04-19T09:38:48.82Z</time></trkpt><trkpt lat="42.76066720857112" lon="10.31274123402922"><ele>4.0</ele><time>2026-04-19T09:38:49.82Z</time></trkpt><trkpt lat="42.760648971278705" lon="10.312840406346021"><ele>3.9999999999999996</ele><time>2026-04-19T09:38:50.82Z</time></trkpt><trkpt lat="42.76062265029291" lon="10.312995996346201"><ele>4.0</ele><time>2026-04-19T09:38:52.819Z</time></trkpt><trkpt lat="42.760608973725844" lon="10.313086793540279"><ele>4.0</ele><time>2026-04-19T09:38:54.819Z</time></trkpt><trkpt lat="42.76053953003896" lon="10.313022780781077"><ele>4.0</ele><time>2026-04-19T09:39:00.819Z</time></trkpt><trkpt lat="42.76049410395074" lon="10.312943632599586"><ele>3.9999999999999996</ele><time>2026-04-19T09:40:18.817Z</time></trkpt><trkpt lat="42.76048690333127" lon="10.313029091582031"><ele>4.0</ele><time>2026-04-19T09:40:46.816Z</time></trkpt><trkpt lat="42.76048595219444" lon="10.312928150579296"><ele>4.0</ele><time>2026-04-19T09:44:23.81Z</time></trkpt><trkpt lat="42.76041759605418" lon="10.312961359388003"><ele>3.9999999999999996</ele><time>2026-04-19T09:44:32.81Z</time></trkpt><trkpt lat="42.760441357978706" lon="10.313042522911683"><ele>4.0</ele><time>2026-04-19T09:44:45.811Z</time></trkpt><trkpt lat="42.760463918300154" lon="10.312961319180358"><ele>4.0</ele><time>2026-04-19T09:45:01.811Z</time></trkpt><trkpt lat="42.76052813200208" lon="10.31299375814425"><ele>3.9999999999999996</ele><time>2026-04-19T09:45:11.81Z</time></trkpt><trkpt lat="42.76046477675746" lon="10.312975067293227"><ele>4.0</ele><time>2026-04-19T09:45:50.809Z</time></trkpt><trkpt lat="42.760403031378516" lon="10.313026311554406"><ele>4.0</ele><time>2026-04-19T09:46:18.808Z</time></trkpt><trkpt lat="42.760475502600656" lon="10.313026505917815"><ele>3.9999999999999996</ele><time>2026-04-19T09:46:47.808Z</time></trkpt><trkpt lat="42.760548878606485" lon="10.312956466791917"><ele>4.0</ele><time>2026-04-19T10:04:09.812Z</time></trkpt><trkpt lat="42.760488000780065" lon="10.313023405703323"><ele>4.0</ele><time>2026-04-19T10:05:06.811Z</time></trkpt><trkpt lat="42.7605413431223" lon="10.31309102654003"><ele>4.0</ele><time>2026-04-19T10:06:35.852Z</time></trkpt><trkpt lat="42.76055536430425" lon="10.313235656780872"><ele>3.9999999999999996</ele><time>2026-04-19T10:06:38.853Z</time></trkpt><trkpt lat="42.76053790305021" lon="10.313340228919667"><ele>4.0</ele><time>2026-04-19T10:06:39.853Z</time></trkpt><trkpt lat="42.76051622827675" lon="10.313452079591979"><ele>4.0</ele><time>2026-04-19T10:06:40.854Z</time></trkpt><trkpt lat="42.76049923047904" lon="10.313583150022149"><ele>4.0</ele><time>2026-04-19T10:06:41.854Z</time></trkpt><trkpt lat="42.760473431260024" lon="10.313727390343914"><ele>4.0</ele><time>2026-04-19T10:06:42.854Z</time></trkpt><trkpt lat="42.76045933488345" lon="10.3138872294252"><ele>4.0</ele><time>2026-04-19T10:06:43.854Z</time></trkpt><trkpt lat="42.76043545481717" lon="10.314045781379871"><ele>4.0</ele><time>2026-04-19T10:06:44.855Z</time></trkpt><trkpt lat="42.760415597092006" lon="10.314200509595453"><ele>4.25</ele><time>2026-04-19T10:06:45.855Z</time></trkpt><trkpt lat="42.76039345702466" lon="10.314365406332193"><ele>4.5</ele><time>2026-04-19T10:06:46.855Z</time></trkpt><trkpt lat="42.76036240482574" lon="10.314532686315516"><ele>4.75</ele><time>2026-04-19T10:06:47.855Z</time></trkpt><trkpt lat="42.76032887338033" lon="10.314714451032224"><ele>5.0</ele><time>2026-04-19T10:06:48.855Z</time></trkpt><trkpt lat="42.76030620278246" lon="10.314896294629632"><ele>5.25</ele><time>2026-04-19T10:06:49.855Z</time></trkpt><trkpt lat="42.76028446572771" lon="10.315092818784748"><ele>5.5</ele><time>2026-04-19T10:06:50.856Z</time></trkpt><trkpt lat="42.76025960964652" lon="10.315277762618297"><ele>5.75</ele><time>2026-04-19T10:06:51.856Z</time></trkpt><trkpt lat="42.76022529599882" lon="10.315467637344618"><ele>6.0</ele><time>2026-04-19T10:06:52.856Z</time></trkpt><trkpt lat="42.76020030220007" lon="10.315653608996382"><ele>6.0</ele><time>2026-04-19T10:06:53.856Z</time></trkpt><trkpt lat="42.760178445747904" lon="10.315836594101398"><ele>6.0</ele><time>2026-04-19T10:06:54.856Z</time></trkpt><trkpt lat="42.760163921864574" lon="10.315994566291138"><ele>6.0</ele><time>2026-04-19T10:06:55.856Z</time></trkpt><trkpt lat="42.7601677416064" lon="10.31614910628115"><ele>6.0</ele><time>2026-04-19T10:06:56.856Z</time></trkpt><trkpt lat="42.760194276345764" lon="10.316259527739746"><ele>6.25</ele><time>2026-04-19T10:06:57.856Z</time></trkpt><trkpt lat="42.76025234614211" lon="10.316360683798225"><ele>6.5</ele><time>2026-04-19T10:06:58.856Z</time></trkpt><trkpt lat="42.76030670643989" lon="10.316445713454021"><ele>6.75</ele><time>2026-04-19T10:06:59.856Z</time></trkpt><trkpt lat="42.760364259406636" lon="10.316586036515318"><ele>7.0</ele><time>2026-04-19T10:07:01.857Z</time></trkpt><trkpt lat="42.760668711103946" lon="10.316481372030896"><ele>7.0</ele><time>2026-04-19T10:07:02.857Z</time></trkpt><trkpt lat="42.76080269933651" lon="10.31649990604963"><ele>7.0</ele><time>2026-04-19T10:07:03.857Z</time></trkpt><trkpt lat="42.76094244882207" lon="10.31652579752859"><ele>7.0</ele><time>2026-04-19T10:07:04.857Z</time></trkpt><trkpt lat="42.76108581815807" lon="10.31654486523115"><ele>7.0</ele><time>2026-04-19T10:07:05.857Z</time></trkpt><trkpt lat="42.76122532485952" lon="10.316568409659743"><ele>8.333333333333334</ele><time>2026-04-19T10:07:06.857Z</time></trkpt><trkpt lat="42.761369577146056" lon="10.316603778481372"><ele>9.666666666666666</ele><time>2026-04-19T10:07:07.857Z</time></trkpt><trkpt lat="42.761520402883335" lon="10.3166399601431"><ele>11.0</ele><time>2026-04-19T10:07:08.857Z</time></trkpt><trkpt lat="42.7616686742697" lon="10.31667731353937"><ele>11.0</ele><time>2026-04-19T10:07:09.857Z</time></trkpt><trkpt lat="42.76181124692961" lon="10.316717532401295"><ele>11.0</ele><time>2026-04-19T10:07:10.857Z</time></trkpt><trkpt lat="42.76193949673221" lon="10.316730880704634"><ele>11.0</ele><time>2026-04-19T10:07:11.857Z</time></trkpt><trkpt lat="42.76205117539149" lon="10.316756794217302"><ele>11.0</ele><time>2026-04-19T10:07:12.857Z</time></trkpt><trkpt lat="42.76214696417143" lon="10.316768345460426"><ele>12.0</ele><time>2026-04-19T10:07:13.857Z</time></trkpt><trkpt lat="42.762246037226454" lon="10.316795706012634"><ele>13.0</ele><time>2026-04-19T10:07:14.857Z</time></trkpt><trkpt lat="42.76235760313198" lon="10.316827358551791"><ele>14.0</ele><time>2026-04-19T10:07:15.857Z</time></trkpt><trkpt lat="42.76247022599154" lon="10.316844298636179"><ele>15.0</ele><time>2026-04-19T10:07:16.857Z</time></trkpt><trkpt lat="42.7626097271311" lon="10.316870695171978"><ele>16.0</ele><time>2026-04-19T10:07:17.857Z</time></trkpt><trkpt lat="42.7627471385021" lon="10.31688788009673"><ele>17.0</ele><time>2026-04-19T10:07:18.857Z</time></trkpt><trkpt lat="42.76290238464536" lon="10.316912487281495"><ele>18.0</ele><time>2026-04-19T10:07:19.857Z</time></trkpt><trkpt lat="42.763056930113706" lon="10.316944517592665"><ele>18.0</ele><time>2026-04-19T10:07:20.857Z</time></trkpt><trkpt lat="42.763218918412655" lon="10.316971144880561"><ele>18.0</ele><time>2026-04-19T10:07:21.857Z</time></trkpt><trkpt lat="42.7633749443763" lon="10.316995260875101"><ele>18.0</ele><time>2026-04-19T10:07:22.857Z</time></trkpt><trkpt lat="42.763535022008824" lon="10.31702553434169"><ele>18.75</ele><time>2026-04-19T10:07:23.857Z</time></trkpt><trkpt lat="42.763685319548536" lon="10.317057822889266"><ele>19.5</ele><time>2026-04-19T10:07:24.857Z</time></trkpt><trkpt lat="42.76383293047582" lon="10.317087713524769"><ele>20.25</ele><time>2026-04-19T10:07:25.857Z</time></trkpt><trkpt lat="42.76396848272389" lon="10.317107527327614"><ele>21.0</ele><time>2026-04-19T10:07:26.857Z</time></trkpt><trkpt lat="42.764101306037276" lon="10.317130447932586"><ele>21.0</ele><time>2026-04-19T10:07:27.857Z</time></trkpt><trkpt lat="42.76421343155636" lon="10.317155942605602"><ele>21.0</ele><time>2026-04-19T10:07:28.857Z</time></trkpt><trkpt lat="42.764305584059564" lon="10.317201148407296"><ele>21.0</ele><time>2026-04-19T10:07:29.857Z</time></trkpt><trkpt lat="42.76438453656496" lon="10.317284531444791"><ele>21.0</ele><time>2026-04-19T10:07:30.857Z</time></trkpt><trkpt lat="42.764441914107465" lon="10.317404837094502"><ele>21.0</ele><time>2026-04-19T10:07:31.857Z</time></trkpt><trkpt lat="42.76447874555994" lon="10.317560933859024"><ele>23.0</ele><time>2026-04-19T10:07:32.857Z</time></trkpt><trkpt lat="42.76454246451057" lon="10.317730513186344"><ele>25.0</ele><time>2026-04-19T10:07:33.857Z</time></trkpt><trkpt lat="42.76463084393695" lon="10.317882729152416"><ele>27.0</ele><time>2026-04-19T10:07:34.857Z</time></trkpt><trkpt lat="42.76473039571719" lon="10.317991570194902"><ele>29.0</ele><time>2026-04-19T10:07:35.857Z</time></trkpt><trkpt lat="42.76482005172043" lon="10.318094926388909"><ele>29.0</ele><time>2026-04-19T10:07:36.857Z</time></trkpt><trkpt lat="42.764886177761255" lon="10.318212965893167"><ele>29.0</ele><time>2026-04-19T10:07:37.857Z</time></trkpt><trkpt lat="42.764868173681286" lon="10.318348972181068"><ele>29.0</ele><time>2026-04-19T10:07:38.857Z</time></trkpt><trkpt lat="42.764841650762925" lon="10.318476966083963"><ele>29.0</ele><time>2026-04-19T10:07:39.857Z</time></trkpt><trkpt lat="42.76479188405451" lon="10.318634258874349"><ele>29.0</ele><time>2026-04-19T10:07:40.857Z</time></trkpt><trkpt lat="42.764750374724606" lon="10.3188004860706"><ele>29.25</ele><time>2026-04-19T10:07:41.857Z</time></trkpt><trkpt lat="42.764707865908534" lon="10.318999232702279"><ele>29.5</ele><time>2026-04-19T10:07:42.857Z</time></trkpt><trkpt lat="42.76469448822692" lon="10.319198401657458"><ele>29.75</ele><time>2026-04-19T10:07:43.857Z</time></trkpt><trkpt lat="42.764685662967295" lon="10.319392206703748"><ele>30.0</ele><time>2026-04-19T10:07:44.858Z</time></trkpt><trkpt lat="42.76472362535912" lon="10.319575398934344"><ele>30.0</ele><time>2026-04-19T10:07:45.858Z</time></trkpt><trkpt lat="42.764783681536365" lon="10.319717912739469"><ele>30.0</ele><time>2026-04-19T10:07:46.858Z</time></trkpt><trkpt lat="42.76491278549891" lon="10.319787343327013"><ele>30.0</ele><time>2026-04-19T10:07:47.858Z</time></trkpt><trkpt lat="42.76503982792852" lon="10.319895846023183"><ele>30.0</ele><time>2026-04-19T10:07:48.858Z</time></trkpt><trkpt lat="42.7651831717863" lon="10.320030274678954"><ele>32.0</ele><time>2026-04-19T10:07:49.858Z</time></trkpt><trkpt lat="42.76533257243451" lon="10.320145643520519"><ele>34.0</ele><time>2026-04-19T10:07:50.858Z</time></trkpt><trkpt lat="42.76546977524012" lon="10.320255457108292"><ele>36.0</ele><time>2026-04-19T10:07:51.858Z</time></trkpt><trkpt lat="42.76560472326827" lon="10.320375140352375"><ele>36.0</ele><time>2026-04-19T10:07:52.858Z</time></trkpt><trkpt lat="42.76570954545802" lon="10.320532930515824"><ele>36.0</ele><time>2026-04-19T10:07:53.858Z</time></trkpt><trkpt lat="42.76579194817594" lon="10.320683977591976"><ele>36.0</ele><time>2026-04-19T10:07:54.858Z</time></trkpt><trkpt lat="42.76589398463372" lon="10.320827504089802"><ele>36.0</ele><time>2026-04-19T10:07:55.858Z</time></trkpt><trkpt lat="42.766002873027986" lon="10.320936063996179"><ele>37.0</ele><time>2026-04-19T10:07:56.858Z</time></trkpt><trkpt lat="42.76610575275601" lon="10.321043717963843"><ele>38.0</ele><time>2026-04-19T10:07:57.858Z</time></trkpt><trkpt lat="42.76618522784109" lon="10.321184539495867"><ele>39.0</ele><time>2026-04-19T10:07:58.858Z</time></trkpt><trkpt lat="42.76625484297967" lon="10.321350153886199"><ele>40.0</ele><time>2026-04-19T10:07:59.858Z</time></trkpt><trkpt lat="42.76632335535266" lon="10.321522660010976"><ele>40.0</ele><time>2026-04-19T10:08:00.858Z</time></trkpt><trkpt lat="42.766388438098005" lon="10.321682282369334"><ele>40.0</ele><time>2026-04-19T10:08:01.858Z</time></trkpt><trkpt lat="42.76646174766459" lon="10.321834917222033"><ele>40.0</ele><time>2026-04-19T10:08:02.858Z</time></trkpt><trkpt lat="42.76651810238547" lon="10.32196956823058"><ele>40.0</ele><time>2026-04-19T10:08:03.858Z</time></trkpt><trkpt lat="42.766562226791876" lon="10.322087026707765"><ele>40.0</ele><time>2026-04-19T10:08:04.858Z</time></trkpt><trkpt lat="42.766581526725965" lon="10.322200691600347"><ele>40.0</ele><time>2026-04-19T10:08:05.858Z</time></trkpt><trkpt lat="42.76654917303449" lon="10.322293872342348"><ele>40.0</ele><time>2026-04-19T10:08:06.858Z</time></trkpt><trkpt lat="42.766441463662225" lon="10.322302811098194"><ele>40.0</ele><time>2026-04-19T10:08:07.858Z</time></trkpt><trkpt lat="42.766361755168624" lon="10.322342603511828"><ele>40.0</ele><time>2026-04-19T10:08:08.858Z</time></trkpt><trkpt lat="42.76625497065767" lon="10.322420727395127"><ele>39.5</ele><time>2026-04-19T10:08:09.858Z</time></trkpt><trkpt lat="42.766138498343444" lon="10.322524467336335"><ele>39.0</ele><time>2026-04-19T10:08:10.858Z</time></trkpt><trkpt lat="42.76605592400421" lon="10.322641539167149"><ele>38.5</ele><time>2026-04-19T10:08:11.858Z</time></trkpt><trkpt lat="42.766033420780396" lon="10.322824541275121"><ele>38.0</ele><time>2026-04-19T10:08:12.858Z</time></trkpt><trkpt lat="42.766052420742774" lon="10.322989770655811"><ele>38.199999999999996</ele><time>2026-04-19T10:08:13.858Z</time></trkpt><trkpt lat="42.76602824867431" lon="10.323133407172385"><ele>38.4</ele><time>2026-04-19T10:08:14.858Z</time></trkpt><trkpt lat="42.76599464471829" lon="10.32325105713641"><ele>38.599999999999994</ele><time>2026-04-19T10:08:15.858Z</time></trkpt><trkpt lat="42.76588603974074" lon="10.323314361423334"><ele>38.8</ele><time>2026-04-19T10:08:16.858Z</time></trkpt><trkpt lat="42.76577404498562" lon="10.323305276581547"><ele>39.0</ele><time>2026-04-19T10:08:17.858Z</time></trkpt><trkpt lat="42.765648873282544" lon="10.323352940946961"><ele>39.0</ele><time>2026-04-19T10:08:18.858Z</time></trkpt><trkpt lat="42.76551768741704" lon="10.323401124082322"><ele>39.0</ele><time>2026-04-19T10:08:19.858Z</time></trkpt><trkpt lat="42.76539540364117" lon="10.323466525651087"><ele>39.0</ele><time>2026-04-19T10:08:20.858Z</time></trkpt><trkpt lat="42.76527490948028" lon="10.323521866633392"><ele>39.0</ele><time>2026-04-19T10:08:21.858Z</time></trkpt><trkpt lat="42.76518142416035" lon="10.323581122276527"><ele>40.166666666666664</ele><time>2026-04-19T10:08:22.858Z</time></trkpt><trkpt lat="42.765125373128186" lon="10.323668393351177"><ele>41.333333333333336</ele><time>2026-04-19T10:08:23.858Z</time></trkpt><trkpt lat="42.765116700620304" lon="10.323779873598056"><ele>42.5</ele><time>2026-04-19T10:08:24.858Z</time></trkpt><trkpt lat="42.765156680027395" lon="10.323873607590476"><ele>43.66666666666667</ele><time>2026-04-19T10:08:25.858Z</time></trkpt><trkpt lat="42.76522866564594" lon="10.323953609697325"><ele>44.833333333333336</ele><time>2026-04-19T10:08:26.858Z</time></trkpt><trkpt lat="42.765312578980925" lon="10.324028150021647"><ele>46.0</ele><time>2026-04-19T10:08:27.858Z</time></trkpt><trkpt lat="42.76541041327707" lon="10.324104891911"><ele>46.0</ele><time>2026-04-19T10:08:28.858Z</time></trkpt><trkpt lat="42.765474571801285" lon="10.324203904062362"><ele>46.0</ele><time>2026-04-19T10:08:29.858Z</time></trkpt><trkpt lat="42.76547836226507" lon="10.324333061467529"><ele>46.0</ele><time>2026-04-19T10:08:30.858Z</time></trkpt><trkpt lat="42.765399086221876" lon="10.324425735690577"><ele>46.0</ele><time>2026-04-19T10:08:31.858Z</time></trkpt><trkpt lat="42.76530859292126" lon="10.324443204806803"><ele>46.0</ele><time>2026-04-19T10:08:32.858Z</time></trkpt><trkpt lat="42.765200624883555" lon="10.324475071173662"><ele>45.75</ele><time>2026-04-19T10:08:33.858Z</time></trkpt><trkpt lat="42.7650686246668" lon="10.324545358858696"><ele>45.5</ele><time>2026-04-19T10:08:34.858Z</time></trkpt><trkpt lat="42.764977201196444" lon="10.324676833568644"><ele>45.25</ele><time>2026-04-19T10:08:35.858Z</time></trkpt><trkpt lat="42.764901066673886" lon="10.324792687530408"><ele>45.0</ele><time>2026-04-19T10:08:36.857Z</time></trkpt><trkpt lat="42.76485475008855" lon="10.324945267619782"><ele>45.0</ele><time>2026-04-19T10:08:37.857Z</time></trkpt><trkpt lat="42.764829938023546" lon="10.32511440330967"><ele>45.0</ele><time>2026-04-19T10:08:38.857Z</time></trkpt><trkpt lat="42.76478647454365" lon="10.325285422678311"><ele>45.0</ele><time>2026-04-19T10:08:39.857Z</time></trkpt><trkpt lat="42.76469583441227" lon="10.325418458504975"><ele>45.0</ele><time>2026-04-19T10:08:40.857Z</time></trkpt><trkpt lat="42.764539637812796" lon="10.325459413937445"><ele>44.0</ele><time>2026-04-19T10:08:41.857Z</time></trkpt><trkpt lat="42.7644257203496" lon="10.325615156434928"><ele>43.0</ele><time>2026-04-19T10:08:42.857Z</time></trkpt><trkpt lat="42.764312707056625" lon="10.325777300867967"><ele>42.0</ele><time>2026-04-19T10:08:43.857Z</time></trkpt><trkpt lat="42.764236534188925" lon="10.325968797024231"><ele>42.0</ele><time>2026-04-19T10:08:44.857Z</time></trkpt><trkpt lat="42.76418646832515" lon="10.326186049220443"><ele>42.0</ele><time>2026-04-19T10:08:45.857Z</time></trkpt><trkpt lat="42.76415640689763" lon="10.326391998172566"><ele>42.0</ele><time>2026-04-19T10:08:46.857Z</time></trkpt><trkpt lat="42.764144147493035" lon="10.326611570932196"><ele>42.5</ele><time>2026-04-19T10:08:47.857Z</time></trkpt><trkpt lat="42.76416060817545" lon="10.326818677935178"><ele>43.0</ele><time>2026-04-19T10:08:48.857Z</time></trkpt><trkpt lat="42.764193694120536" lon="10.327004229683904"><ele>43.5</ele><time>2026-04-19T10:08:49.857Z</time></trkpt><trkpt lat="42.76427720575734" lon="10.327157198467056"><ele>44.0</ele><time>2026-04-19T10:08:50.857Z</time></trkpt><trkpt lat="42.76434723560648" lon="10.327290056198374"><ele>45.0</ele><time>2026-04-19T10:08:51.857Z</time></trkpt><trkpt lat="42.76440491420271" lon="10.327399479990348"><ele>46.0</ele><time>2026-04-19T10:08:52.857Z</time></trkpt><trkpt lat="42.76445373786285" lon="10.327492104802436"><ele>47.0</ele><time>2026-04-19T10:08:53.857Z</time></trkpt><trkpt lat="42.76435807005724" lon="10.327700594658646"><ele>48.0</ele><time>2026-04-19T10:08:54.857Z</time></trkpt><trkpt lat="42.764337788557235" lon="10.327871803679132"><ele>48.0</ele><time>2026-04-19T10:08:55.857Z</time></trkpt><trkpt lat="42.76434470370394" lon="10.32804865388557"><ele>48.0</ele><time>2026-04-19T10:08:56.857Z</time></trkpt><trkpt lat="42.76435905704804" lon="10.328212592857918"><ele>48.0</ele><time>2026-04-19T10:08:57.857Z</time></trkpt><trkpt lat="42.76435496103617" lon="10.328362204147204"><ele>48.0</ele><time>2026-04-19T10:08:58.857Z</time></trkpt><trkpt lat="42.76432572911376" lon="10.328470003838051"><ele>48.0</ele><time>2026-04-19T10:08:59.857Z</time></trkpt><trkpt lat="42.7642718799131" lon="10.32855786617698"><ele>49.599999999999994</ele><time>2026-04-19T10:09:00.857Z</time></trkpt><trkpt lat="42.764189448667345" lon="10.328565555414496"><ele>51.199999999999996</ele><time>2026-04-19T10:09:01.857Z</time></trkpt><trkpt lat="42.7641108446036" lon="10.328549574826852"><ele>52.8</ele><time>2026-04-19T10:09:02.857Z</time></trkpt><trkpt lat="42.764029959492404" lon="10.328497252289953"><ele>54.4</ele><time>2026-04-19T10:09:03.857Z</time></trkpt><trkpt lat="42.76391651669408" lon="10.328440882850538"><ele>56.0</ele><time>2026-04-19T10:09:04.857Z</time></trkpt><trkpt lat="42.763788815284975" lon="10.328395816261272"><ele>56.0</ele><time>2026-04-19T10:09:05.857Z</time></trkpt><trkpt lat="42.76363928912232" lon="10.328377247337194"><ele>56.0</ele><time>2026-04-19T10:09:06.857Z</time></trkpt><trkpt lat="42.76348668990754" lon="10.328371175159907"><ele>56.0</ele><time>2026-04-19T10:09:07.857Z</time></trkpt><trkpt lat="42.763354051535124" lon="10.328383788466107"><ele>56.0</ele><time>2026-04-19T10:09:08.857Z</time></trkpt><trkpt lat="42.763256333951624" lon="10.32844498906162"><ele>54.25</ele><time>2026-04-19T10:09:09.857Z</time></trkpt><trkpt lat="42.76315986578189" lon="10.328542398171685"><ele>52.5</ele><time>2026-04-19T10:09:10.857Z</time></trkpt><trkpt lat="42.76306172009056" lon="10.328676914601068"><ele>50.75</ele><time>2026-04-19T10:09:11.857Z</time></trkpt><trkpt lat="42.762965699455705" lon="10.328859063895564"><ele>49.0</ele><time>2026-04-19T10:09:12.857Z</time></trkpt><trkpt lat="42.76285175046901" lon="10.328997946918637"><ele>48.5</ele><time>2026-04-19T10:09:13.857Z</time></trkpt><trkpt lat="42.76275214211739" lon="10.32911656477474"><ele>48.0</ele><time>2026-04-19T10:09:14.857Z</time></trkpt><trkpt lat="42.76263953919192" lon="10.329181178440852"><ele>47.5</ele><time>2026-04-19T10:09:15.857Z</time></trkpt><trkpt lat="42.76259320310068" lon="10.329299304039202"><ele>47.0</ele><time>2026-04-19T10:09:16.857Z</time></trkpt><trkpt lat="42.76258077309077" lon="10.329450054338222"><ele>47.0</ele><time>2026-04-19T10:09:17.857Z</time></trkpt><trkpt lat="42.762593313899025" lon="10.329628826370408"><ele>47.0</ele><time>2026-04-19T10:09:18.857Z</time></trkpt><trkpt lat="42.76259397247165" lon="10.329783437995413"><ele>47.0</ele><time>2026-04-19T10:09:19.857Z</time></trkpt><trkpt lat="42.762553633181895" lon="10.329894371238844"><ele>47.0</ele><time>2026-04-19T10:09:20.857Z</time></trkpt><trkpt lat="42.76250470509548" lon="10.329984338123674"><ele>47.0</ele><time>2026-04-19T10:09:21.857Z</time></trkpt><trkpt lat="42.76240041089723" lon="10.329944153758204"><ele>49.6</ele><time>2026-04-19T10:09:22.857Z</time></trkpt><trkpt lat="42.762319171746746" lon="10.329888498754137"><ele>52.2</ele><time>2026-04-19T10:09:23.857Z</time></trkpt><trkpt lat="42.7622280739111" lon="10.329904975519707"><ele>54.8</ele><time>2026-04-19T10:09:24.857Z</time></trkpt><trkpt lat="42.762118948521795" lon="10.329963343921772"><ele>57.4</ele><time>2026-04-19T10:09:25.857Z</time></trkpt><trkpt lat="42.76203293352507" lon="10.330078246669324"><ele>60.0</ele><time>2026-04-19T10:09:26.857Z</time></trkpt><trkpt lat="42.76198167749613" lon="10.330241250990978"><ele>60.0</ele><time>2026-04-19T10:09:27.856Z</time></trkpt><trkpt lat="42.76194653434385" lon="10.330422247796466"><ele>60.0</ele><time>2026-04-19T10:09:28.856Z</time></trkpt><trkpt lat="42.761924337425256" lon="10.330628962414993"><ele>60.0</ele><time>2026-04-19T10:09:29.856Z</time></trkpt><trkpt lat="42.76192913979132" lon="10.330864478211367"><ele>58.25</ele><time>2026-04-19T10:09:30.856Z</time></trkpt><trkpt lat="42.76196120280612" lon="10.331066758876718"><ele>56.5</ele><time>2026-04-19T10:09:31.856Z</time></trkpt><trkpt lat="42.76200872741118" lon="10.331258130389497"><ele>54.75</ele><time>2026-04-19T10:09:32.856Z</time></trkpt><trkpt lat="42.762085747971945" lon="10.331427000758735"><ele>53.0</ele><time>2026-04-19T10:09:33.856Z</time></trkpt><trkpt lat="42.76219353643443" lon="10.331523775541978"><ele>53.0</ele><time>2026-04-19T10:09:34.856Z</time></trkpt><trkpt lat="42.76232598489918" lon="10.331598222687187"><ele>53.0</ele><time>2026-04-19T10:09:35.856Z</time></trkpt><trkpt lat="42.76247185854005" lon="10.331648849643981"><ele>53.0</ele><time>2026-04-19T10:09:36.856Z</time></trkpt><trkpt lat="42.762612844395186" lon="10.331707150795028"><ele>53.0</ele><time>2026-04-19T10:09:37.856Z</time></trkpt><trkpt lat="42.762752886373626" lon="10.331813790819329"><ele>49.66666666666667</ele><time>2026-04-19T10:09:38.856Z</time></trkpt><trkpt lat="42.76290584646012" lon="10.331942737038446"><ele>46.333333333333336</ele><time>2026-04-19T10:09:39.856Z</time></trkpt><trkpt lat="42.763047093460195" lon="10.332107399773207"><ele>43.0</ele><time>2026-04-19T10:09:40.856Z</time></trkpt><trkpt lat="42.76320125764747" lon="10.33225097573404"><ele>43.0</ele><time>2026-04-19T10:09:41.856Z</time></trkpt><trkpt lat="42.76334107148283" lon="10.332380152025113"><ele>43.0</ele><time>2026-04-19T10:09:42.856Z</time></trkpt><trkpt lat="42.763476915431326" lon="10.332505507795858"><ele>43.0</ele><time>2026-04-19T10:09:43.856Z</time></trkpt><trkpt lat="42.7636047824505" lon="10.332628244753947"><ele>48.25</ele><time>2026-04-19T10:09:44.856Z</time></trkpt><trkpt lat="42.76372651614323" lon="10.332733810801956"><ele>53.5</ele><time>2026-04-19T10:09:45.856Z</time></trkpt><trkpt lat="42.76386327426883" lon="10.332813187830894"><ele>58.75</ele><time>2026-04-19T10:09:46.856Z</time></trkpt><trkpt lat="42.76400587727929" lon="10.332836440436726"><ele>64.0</ele><time>2026-04-19T10:09:47.856Z</time></trkpt><trkpt lat="42.76413486933787" lon="10.332826832378624"><ele>64.0</ele><time>2026-04-19T10:09:48.856Z</time></trkpt><trkpt lat="42.764231116411466" lon="10.33290105396988"><ele>64.0</ele><time>2026-04-19T10:09:49.856Z</time></trkpt><trkpt lat="42.76429439735468" lon="10.333015812042577"><ele>64.0</ele><time>2026-04-19T10:09:50.856Z</time></trkpt><trkpt lat="42.76441230087386" lon="10.333104157517118"><ele>64.0</ele><time>2026-04-19T10:09:51.856Z</time></trkpt><trkpt lat="42.76433464561005" lon="10.333343664648462"><ele>66.25</ele><time>2026-04-19T10:09:52.857Z</time></trkpt><trkpt lat="42.76435384713269" lon="10.333512612694813"><ele>68.5</ele><time>2026-04-19T10:09:53.857Z</time></trkpt><trkpt lat="42.764424531449926" lon="10.333641589675594"><ele>70.75</ele><time>2026-04-19T10:09:54.857Z</time></trkpt><trkpt lat="42.764524736161825" lon="10.333734570748526"><ele>73.0</ele><time>2026-04-19T10:09:55.857Z</time></trkpt><trkpt lat="42.764656543165394" lon="10.333819762685941"><ele>71.25</ele><time>2026-04-19T10:09:56.857Z</time></trkpt><trkpt lat="42.76472281340287" lon="10.333980548251134"><ele>69.5</ele><time>2026-04-19T10:09:57.857Z</time></trkpt><trkpt lat="42.7648003125463" lon="10.334151708749651"><ele>67.75</ele><time>2026-04-19T10:09:58.857Z</time></trkpt><trkpt lat="42.76485870876837" lon="10.334321946907396"><ele>66.0</ele><time>2026-04-19T10:09:59.856Z</time></trkpt><trkpt lat="42.764879023476816" lon="10.334497381382526"><ele>66.0</ele><time>2026-04-19T10:10:00.856Z</time></trkpt><trkpt lat="42.76485335120732" lon="10.334662099287593"><ele>66.0</ele><time>2026-04-19T10:10:01.856Z</time></trkpt><trkpt lat="42.76480970199205" lon="10.334830971839354"><ele>66.0</ele><time>2026-04-19T10:10:02.857Z</time></trkpt><trkpt lat="42.76474382921778" lon="10.334990280927173"><ele>66.0</ele><time>2026-04-19T10:10:03.856Z</time></trkpt><trkpt lat="42.76465704969739" lon="10.33513426964416"><ele>67.25</ele><time>2026-04-19T10:10:04.857Z</time></trkpt><trkpt lat="42.76459631643315" lon="10.335297818093226"><ele>68.5</ele><time>2026-04-19T10:10:05.857Z</time></trkpt><trkpt lat="42.76459941476506" lon="10.335459931749586"><ele>69.75</ele><time>2026-04-19T10:10:06.856Z</time></trkpt><trkpt lat="42.76461742222786" lon="10.335601709005532"><ele>71.0</ele><time>2026-04-19T10:10:07.856Z</time></trkpt><trkpt lat="42.764671963548054" lon="10.335740417329925"><ele>71.0</ele><time>2026-04-19T10:10:08.856Z</time></trkpt><trkpt lat="42.7647516688092" lon="10.335892286138037"><ele>71.0</ele><time>2026-04-19T10:10:09.856Z</time></trkpt><trkpt lat="42.76480216216703" lon="10.336075763587475"><ele>71.0</ele><time>2026-04-19T10:10:10.856Z</time></trkpt><trkpt lat="42.76480607714158" lon="10.336266784543103"><ele>71.0</ele><time>2026-04-19T10:10:11.856Z</time></trkpt><trkpt lat="42.76477188960922" lon="10.336457604671109"><ele>71.0</ele><time>2026-04-19T10:10:12.856Z</time></trkpt><trkpt lat="42.76477320309826" lon="10.336666345179658"><ele>71.0</ele><time>2026-04-19T10:10:13.856Z</time></trkpt><trkpt lat="42.76479656416506" lon="10.336855467956239"><ele>71.0</ele><time>2026-04-19T10:10:14.856Z</time></trkpt><trkpt lat="42.764810098613886" lon="10.337026501174622"><ele>71.0</ele><time>2026-04-19T10:10:15.856Z</time></trkpt><trkpt lat="42.76478898620206" lon="10.337185933373888"><ele>71.25</ele><time>2026-04-19T10:10:16.856Z</time></trkpt><trkpt lat="42.76473419071941" lon="10.3373168823164"><ele>71.5</ele><time>2026-04-19T10:10:17.856Z</time></trkpt><trkpt lat="42.764666095497866" lon="10.337445317579295"><ele>71.75</ele><time>2026-04-19T10:10:18.856Z</time></trkpt><trkpt lat="42.764599862648915" lon="10.337584513948656"><ele>72.0</ele><time>2026-04-19T10:10:19.856Z</time></trkpt><trkpt lat="42.76455515070066" lon="10.337718287210247"><ele>72.0</ele><time>2026-04-19T10:10:20.856Z</time></trkpt><trkpt lat="42.76456786145694" lon="10.337857734704114"><ele>72.0</ele><time>2026-04-19T10:10:21.856Z</time></trkpt><trkpt lat="42.764589797836365" lon="10.337971179758643"><ele>72.0</ele><time>2026-04-19T10:10:22.856Z</time></trkpt><trkpt lat="42.76464911908582" lon="10.33806189293591"><ele>72.0</ele><time>2026-04-19T10:10:23.856Z</time></trkpt><trkpt lat="42.76473197578932" lon="10.338168918629128"><ele>72.0</ele><time>2026-04-19T10:10:24.856Z</time></trkpt><trkpt lat="42.76481946250781" lon="10.338304060768936"><ele>71.0</ele><time>2026-04-19T10:10:25.856Z</time></trkpt><trkpt lat="42.764900935477286" lon="10.338463536901944"><ele>70.0</ele><time>2026-04-19T10:10:26.856Z</time></trkpt><trkpt lat="42.76498234912534" lon="10.338616219023246"><ele>69.0</ele><time>2026-04-19T10:10:27.856Z</time></trkpt><trkpt lat="42.76501921760316" lon="10.338819565901447"><ele>68.0</ele><time>2026-04-19T10:10:28.856Z</time></trkpt><trkpt lat="42.765053852028004" lon="10.338990584563865"><ele>64.5</ele><time>2026-04-19T10:10:29.856Z</time></trkpt><trkpt lat="42.76506466943155" lon="10.339168132628545"><ele>61.0</ele><time>2026-04-19T10:10:30.856Z</time></trkpt><trkpt lat="42.76504194070935" lon="10.33934789907894"><ele>57.5</ele><time>2026-04-19T10:10:31.856Z</time></trkpt><trkpt lat="42.76504871858625" lon="10.33952536590009"><ele>54.0</ele><time>2026-04-19T10:10:32.856Z</time></trkpt><trkpt lat="42.765072185044936" lon="10.339684833023455"><ele>55.75</ele><time>2026-04-19T10:10:33.856Z</time></trkpt><trkpt lat="42.76509166792576" lon="10.339827073783097"><ele>57.5</ele><time>2026-04-19T10:10:34.856Z</time></trkpt><trkpt lat="42.76515144821441" lon="10.339972840641792"><ele>59.25</ele><time>2026-04-19T10:10:35.856Z</time></trkpt><trkpt lat="42.76526221888054" lon="10.340083789515928"><ele>61.0</ele><time>2026-04-19T10:10:36.856Z</time></trkpt><trkpt lat="42.7653779763092" lon="10.34019992551647"><ele>61.0</ele><time>2026-04-19T10:10:37.856Z</time></trkpt><trkpt lat="42.76550299232655" lon="10.340294572792438"><ele>61.0</ele><time>2026-04-19T10:10:38.856Z</time></trkpt><trkpt lat="42.765620924319066" lon="10.340390025452747"><ele>61.0</ele><time>2026-04-19T10:10:39.856Z</time></trkpt><trkpt lat="42.76573219611139" lon="10.34048628855522"><ele>61.0</ele><time>2026-04-19T10:10:40.856Z</time></trkpt><trkpt lat="42.765842175826116" lon="10.340575770004968"><ele>57.8</ele><time>2026-04-19T10:10:41.856Z</time></trkpt><trkpt lat="42.76594401988037" lon="10.340654170802873"><ele>54.599999999999994</ele><time>2026-04-19T10:10:42.856Z</time></trkpt><trkpt lat="42.76605191508788" lon="10.340717649956414"><ele>51.4</ele><time>2026-04-19T10:10:43.856Z</time></trkpt><trkpt lat="42.766155621298694" lon="10.340770292198435"><ele>48.2</ele><time>2026-04-19T10:10:44.856Z</time></trkpt><trkpt lat="42.76624901966013" lon="10.340817711527869"><ele>45.0</ele><time>2026-04-19T10:10:45.856Z</time></trkpt><trkpt lat="42.766344705991166" lon="10.340852305279084"><ele>45.0</ele><time>2026-04-19T10:10:46.856Z</time></trkpt><trkpt lat="42.76643596583271" lon="10.34086009718482"><ele>45.0</ele><time>2026-04-19T10:10:47.856Z</time></trkpt><trkpt lat="42.76654732961242" lon="10.340833903758885"><ele>45.0</ele><time>2026-04-19T10:10:48.856Z</time></trkpt><trkpt lat="42.766677331147264" lon="10.340761240445957"><ele>45.0</ele><time>2026-04-19T10:10:49.856Z</time></trkpt><trkpt lat="42.76682164066377" lon="10.340661207597586"><ele>46.66666666666667</ele><time>2026-04-19T10:10:50.856Z</time></trkpt><trkpt lat="42.766968144642256" lon="10.340568536180283"><ele>48.333333333333336</ele><time>2026-04-19T10:10:51.856Z</time></trkpt><trkpt lat="42.76711643338299" lon="10.340490123203958"><ele>50.0</ele><time>2026-04-19T10:10:52.856Z</time></trkpt><trkpt lat="42.76725858942966" lon="10.340436230266599"><ele>50.0</ele><time>2026-04-19T10:10:53.856Z</time></trkpt><trkpt lat="42.767396074215405" lon="10.340391276989005"><ele>50.0</ele><time>2026-04-19T10:10:54.856Z</time></trkpt><trkpt lat="42.76752153195435" lon="10.340350677534962"><ele>50.0</ele><time>2026-04-19T10:10:55.856Z</time></trkpt><trkpt lat="42.7676464740984" lon="10.340303110804895"><ele>50.0</ele><time>2026-04-19T10:10:56.856Z</time></trkpt><trkpt lat="42.7677622857529" lon="10.340256803460305"><ele>48.75</ele><time>2026-04-19T10:10:57.856Z</time></trkpt><trkpt lat="42.76788433205101" lon="10.340226888554618"><ele>47.5</ele><time>2026-04-19T10:10:58.855Z</time></trkpt><trkpt lat="42.76801097460842" lon="10.340228400899544"><ele>46.25</ele><time>2026-04-19T10:10:59.855Z</time></trkpt><trkpt lat="42.768123640409044" lon="10.340266536181982"><ele>45.0</ele><time>2026-04-19T10:11:00.855Z</time></trkpt><trkpt lat="42.76820509871315" lon="10.340349762634713"><ele>45.0</ele><time>2026-04-19T10:11:01.855Z</time></trkpt><trkpt lat="42.76824706026566" lon="10.340449946279325"><ele>45.0</ele><time>2026-04-19T10:11:02.855Z</time></trkpt><trkpt lat="42.76822803855873" lon="10.340581228228205"><ele>45.0</ele><time>2026-04-19T10:11:03.855Z</time></trkpt><trkpt lat="42.76821762300999" lon="10.340744643603175"><ele>45.0</ele><time>2026-04-19T10:11:04.855Z</time></trkpt><trkpt lat="42.7682053576736" lon="10.34092479824536"><ele>45.0</ele><time>2026-04-19T10:11:05.855Z</time></trkpt><trkpt lat="42.768196540893236" lon="10.341100215983348"><ele>45.25</ele><time>2026-04-19T10:11:06.855Z</time></trkpt><trkpt lat="42.7682109839853" lon="10.341265739577054"><ele>45.5</ele><time>2026-04-19T10:11:07.855Z</time></trkpt><trkpt lat="42.76822622812218" lon="10.341413798139426"><ele>45.75</ele><time>2026-04-19T10:11:08.855Z</time></trkpt><trkpt lat="42.768291534484646" lon="10.341549910564737"><ele>46.0</ele><time>2026-04-19T10:11:09.855Z</time></trkpt><trkpt lat="42.768378299925494" lon="10.341648136046"><ele>44.333333333333336</ele><time>2026-04-19T10:11:10.855Z</time></trkpt><trkpt lat="42.768496107585015" lon="10.341716043598291"><ele>42.666666666666664</ele><time>2026-04-19T10:11:11.855Z</time></trkpt><trkpt lat="42.76865688637683" lon="10.341801674719934"><ele>41.0</ele><time>2026-04-19T10:11:12.855Z</time></trkpt><trkpt lat="42.76881695928533" lon="10.341927969160748"><ele>41.666666666666664</ele><time>2026-04-19T10:11:13.855Z</time></trkpt><trkpt lat="42.768933087811874" lon="10.342088330049227"><ele>42.333333333333336</ele><time>2026-04-19T10:11:14.855Z</time></trkpt><trkpt lat="42.769042020123756" lon="10.342242926133071"><ele>43.0</ele><time>2026-04-19T10:11:15.855Z</time></trkpt><trkpt lat="42.76915296059856" lon="10.342394244720099"><ele>43.0</ele><time>2026-04-19T10:11:16.855Z</time></trkpt><trkpt lat="42.76924602851177" lon="10.342535921581097"><ele>43.0</ele><time>2026-04-19T10:11:17.855Z</time></trkpt><trkpt lat="42.76932672000274" lon="10.342662914588642"><ele>43.0</ele><time>2026-04-19T10:11:18.855Z</time></trkpt><trkpt lat="42.7694009390807" lon="10.342787199234483"><ele>43.0</ele><time>2026-04-19T10:11:19.855Z</time></trkpt><trkpt lat="42.76952754133802" lon="10.342870487694512"><ele>44.333333333333336</ele><time>2026-04-19T10:11:20.855Z</time></trkpt><trkpt lat="42.769669560126296" lon="10.342930751363463"><ele>45.666666666666664</ele><time>2026-04-19T10:11:21.855Z</time></trkpt><trkpt lat="42.769822421478885" lon="10.342983346250177"><ele>47.0</ele><time>2026-04-19T10:11:22.855Z</time></trkpt><trkpt lat="42.76994353398094" lon="10.343096815863698"><ele>47.0</ele><time>2026-04-19T10:11:23.855Z</time></trkpt><trkpt lat="42.77004531118562" lon="10.343253535547213"><ele>47.0</ele><time>2026-04-19T10:11:24.855Z</time></trkpt><trkpt lat="42.77014922804664" lon="10.343413261839764"><ele>47.0</ele><time>2026-04-19T10:11:25.855Z</time></trkpt><trkpt lat="42.77025373796671" lon="10.343566215680537"><ele>49.0</ele><time>2026-04-19T10:11:26.855Z</time></trkpt><trkpt lat="42.77037224485683" lon="10.343699994270782"><ele>51.0</ele><time>2026-04-19T10:11:27.855Z</time></trkpt><trkpt lat="42.770498690577895" lon="10.343818994866293"><ele>53.0</ele><time>2026-04-19T10:11:28.855Z</time></trkpt><trkpt lat="42.770630374360536" lon="10.343905460155767"><ele>53.0</ele><time>2026-04-19T10:11:29.855Z</time></trkpt><trkpt lat="42.770740705193376" lon="10.344018612686796"><ele>53.0</ele><time>2026-04-19T10:11:30.855Z</time></trkpt><trkpt lat="42.77084091166648" lon="10.344160863717429"><ele>53.0</ele><time>2026-04-19T10:11:31.855Z</time></trkpt><trkpt lat="42.770918716389026" lon="10.344275097206848"><ele>53.0</ele><time>2026-04-19T10:11:32.855Z</time></trkpt><trkpt lat="42.77098321563237" lon="10.344369607698635"><ele>53.00000000000001</ele><time>2026-04-19T10:11:33.855Z</time></trkpt><trkpt lat="42.77104341598784" lon="10.344457271879895"><ele>53.0</ele><time>2026-04-19T10:11:34.855Z</time></trkpt><trkpt lat="42.77109420063009" lon="10.344530145184772"><ele>53.0</ele><time>2026-04-19T10:11:35.855Z</time></trkpt><trkpt lat="42.77116343289873" lon="10.34462913472258"><ele>53.0</ele><time>2026-04-19T10:11:37.855Z</time></trkpt><trkpt lat="42.771194082050094" lon="10.344704510854733"><ele>53.00000000000001</ele><time>2026-04-19T10:11:39.855Z</time></trkpt><trkpt lat="42.77110287977454" lon="10.344775529681364"><ele>53.0</ele><time>2026-04-19T10:11:41.855Z</time></trkpt><trkpt lat="42.77101151783381" lon="10.344765102220565"><ele>53.00000000000001</ele><time>2026-04-19T10:11:42.855Z</time></trkpt><trkpt lat="42.77094143924844" lon="10.34479350138055"><ele>53.0</ele><time>2026-04-19T10:11:43.855Z</time></trkpt><trkpt lat="42.770866409639346" lon="10.344754034263897"><ele>53.0</ele><time>2026-04-19T10:11:45.855Z</time></trkpt><trkpt lat="42.7707798867921" lon="10.344657407988873"><ele>53.0</ele><time>2026-04-19T10:11:47.855Z</time></trkpt><trkpt lat="42.770698638679924" lon="10.344547944419269"><ele>53.00000000000001</ele><time>2026-04-19T10:11:49.854Z</time></trkpt><trkpt lat="42.77065521738131" lon="10.344478942555517"><ele>53.0</ele><time>2026-04-19T10:11:50.854Z</time></trkpt><trkpt lat="42.770584062522765" lon="10.344401930466823"><ele>53.0</ele><time>2026-04-19T10:11:52.854Z</time></trkpt><trkpt lat="42.770495282269906" lon="10.344327302039508"><ele>53.0</ele><time>2026-04-19T10:11:54.854Z</time></trkpt><trkpt lat="42.77043526726323" lon="10.344281104669133"><ele>53.0</ele><time>2026-04-19T10:11:55.854Z</time></trkpt><trkpt lat="42.77033934627723" lon="10.344206043721458"><ele>53.0</ele><time>2026-04-19T10:11:57.855Z</time></trkpt><trkpt lat="42.77023116039599" lon="10.34413903553388"><ele>53.0</ele><time>2026-04-19T10:11:59.856Z</time></trkpt><trkpt lat="42.770115165655774" lon="10.344064478087084"><ele>51.8</ele><time>2026-04-19T10:12:01.856Z</time></trkpt><trkpt lat="42.770050962190936" lon="10.343960213726765"><ele>50.599999999999994</ele><time>2026-04-19T10:12:02.856Z</time></trkpt><trkpt lat="42.76998840517487" lon="10.343911989717288"><ele>49.400000000000006</ele><time>2026-04-19T10:12:03.856Z</time></trkpt><trkpt lat="42.769917530339725" lon="10.343842424837568"><ele>48.2</ele><time>2026-04-19T10:12:04.855Z</time></trkpt><trkpt lat="42.7698259222869" lon="10.343763477224073"><ele>47.0</ele><time>2026-04-19T10:12:05.855Z</time></trkpt><trkpt lat="42.76973164091948" lon="10.34371812714059"><ele>47.0</ele><time>2026-04-19T10:12:06.856Z</time></trkpt><trkpt lat="42.76964977637784" lon="10.343661908410992"><ele>47.0</ele><time>2026-04-19T10:12:07.856Z</time></trkpt><trkpt lat="42.76956343984776" lon="10.343618761851237"><ele>47.0</ele><time>2026-04-19T10:12:08.856Z</time></trkpt><trkpt lat="42.76948386116785" lon="10.343574336419762"><ele>47.0</ele><time>2026-04-19T10:12:09.856Z</time></trkpt><trkpt lat="42.76941420147747" lon="10.343539833833002"><ele>47.0</ele><time>2026-04-19T10:12:10.855Z</time></trkpt><trkpt lat="42.76934190499148" lon="10.343511168006835"><ele>47.0</ele><time>2026-04-19T10:12:11.855Z</time></trkpt><trkpt lat="42.769272653291594" lon="10.343482642041714"><ele>46.0</ele><time>2026-04-19T10:12:12.855Z</time></trkpt><trkpt lat="42.769198938433995" lon="10.343456440840942"><ele>45.0</ele><time>2026-04-19T10:12:13.855Z</time></trkpt><trkpt lat="42.76911850936342" lon="10.343435204361825"><ele>44.0</ele><time>2026-04-19T10:12:14.856Z</time></trkpt><trkpt lat="42.7690476248938" lon="10.343393023225707"><ele>43.0</ele><time>2026-04-19T10:12:15.856Z</time></trkpt><trkpt lat="42.76897769459672" lon="10.343374021666474"><ele>42.0</ele><time>2026-04-19T10:12:16.856Z</time></trkpt><trkpt lat="42.76891267273235" lon="10.343360717661511"><ele>41.0</ele><time>2026-04-19T10:12:17.856Z</time></trkpt><trkpt lat="42.7688011911802" lon="10.343288316947106"><ele>41.0</ele><time>2026-04-19T10:12:19.856Z</time></trkpt><trkpt lat="42.768699189948165" lon="10.343236734649771"><ele>41.0</ele><time>2026-04-19T10:12:21.856Z</time></trkpt><trkpt lat="42.768597441208435" lon="10.343164807951652"><ele>41.0</ele><time>2026-04-19T10:12:23.856Z</time></trkpt><trkpt lat="42.76853434884055" lon="10.34312573867747"><ele>41.0</ele><time>2026-04-19T10:12:24.856Z</time></trkpt><trkpt lat="42.768462509929904" lon="10.343090438311595"><ele>41.0</ele><time>2026-04-19T10:12:25.856Z</time></trkpt><trkpt lat="42.768351506981105" lon="10.343033964364293"><ele>39.4</ele><time>2026-04-19T10:12:27.856Z</time></trkpt><trkpt lat="42.768240247231866" lon="10.342997579989543"><ele>37.8</ele><time>2026-04-19T10:12:29.856Z</time></trkpt><trkpt lat="42.76814470268927" lon="10.342957262259366"><ele>36.199999999999996</ele><time>2026-04-19T10:12:31.855Z</time></trkpt><trkpt lat="42.76804447975291" lon="10.342920601468192"><ele>34.599999999999994</ele><time>2026-04-19T10:12:33.855Z</time></trkpt><trkpt lat="42.7679782505504" lon="10.342911609786395"><ele>33.0</ele><time>2026-04-19T10:12:34.855Z</time></trkpt><trkpt lat="42.76788275904805" lon="10.342859747801695"><ele>33.0</ele><time>2026-04-19T10:12:36.855Z</time></trkpt><trkpt lat="42.76778406456083" lon="10.342846373363054"><ele>33.0</ele><time>2026-04-19T10:12:38.855Z</time></trkpt><trkpt lat="42.767699640161524" lon="10.342808804859319"><ele>33.0</ele><time>2026-04-19T10:12:40.855Z</time></trkpt><trkpt lat="42.76761625527733" lon="10.342961942025818"><ele>33.0</ele><time>2026-04-19T10:12:41.855Z</time></trkpt><trkpt lat="42.767562447682465" lon="10.343057905873557"><ele>33.0</ele><time>2026-04-19T10:12:42.855Z</time></trkpt><trkpt lat="42.767510991645146" lon="10.343131538030185"><ele>32.8</ele><time>2026-04-19T10:12:43.855Z</time></trkpt><trkpt lat="42.76745122627294" lon="10.343198243317104"><ele>32.599999999999994</ele><time>2026-04-19T10:12:44.855Z</time></trkpt><trkpt lat="42.76738944638118" lon="10.343274369763359"><ele>32.400000000000006</ele><time>2026-04-19T10:12:45.855Z</time></trkpt><trkpt lat="42.76732671292782" lon="10.343363442450032"><ele>32.2</ele><time>2026-04-19T10:12:46.855Z</time></trkpt><trkpt lat="42.76724175995976" lon="10.343461373195879"><ele>32.0</ele><time>2026-04-19T10:12:47.855Z</time></trkpt><trkpt lat="42.76716528010117" lon="10.343576099865501"><ele>32.0</ele><time>2026-04-19T10:12:48.855Z</time></trkpt><trkpt lat="42.767096089446554" lon="10.343669584491579"><ele>32.0</ele><time>2026-04-19T10:12:49.855Z</time></trkpt><trkpt lat="42.7670433287547" lon="10.343789602918815"><ele>32.0</ele><time>2026-04-19T10:12:50.855Z</time></trkpt><trkpt lat="42.76699323275817" lon="10.34388039347878"><ele>32.0</ele><time>2026-04-19T10:12:51.855Z</time></trkpt><trkpt lat="42.76695969715478" lon="10.343979208571135"><ele>32.0</ele><time>2026-04-19T10:12:52.855Z</time></trkpt><trkpt lat="42.766915141365935" lon="10.344123643626297"><ele>30.25</ele><time>2026-04-19T10:12:54.855Z</time></trkpt><trkpt lat="42.766792976189635" lon="10.344212228373275"><ele>28.5</ele><time>2026-04-19T10:12:56.855Z</time></trkpt><trkpt lat="42.76669210994" lon="10.344272052911801"><ele>26.75</ele><time>2026-04-19T10:12:57.855Z</time></trkpt><trkpt lat="42.76659913759094" lon="10.344342185656728"><ele>25.0</ele><time>2026-04-19T10:12:58.855Z</time></trkpt><trkpt lat="42.76651866204664" lon="10.344427273662406"><ele>25.0</ele><time>2026-04-19T10:12:59.855Z</time></trkpt><trkpt lat="42.7664509341043" lon="10.344528907254874"><ele>25.0</ele><time>2026-04-19T10:13:00.855Z</time></trkpt><trkpt lat="42.76639674343083" lon="10.34461211940836"><ele>25.0</ele><time>2026-04-19T10:13:01.855Z</time></trkpt><trkpt lat="42.76636047169536" lon="10.34476259539184"><ele>25.0</ele><time>2026-04-19T10:13:02.855Z</time></trkpt><trkpt lat="42.766317784708036" lon="10.344907140271811"><ele>25.0</ele><time>2026-04-19T10:13:03.855Z</time></trkpt><trkpt lat="42.76627961166055" lon="10.345042326642336"><ele>28.0</ele><time>2026-04-19T10:13:04.855Z</time></trkpt><trkpt lat="42.76624519134642" lon="10.345172757120832"><ele>31.0</ele><time>2026-04-19T10:13:05.855Z</time></trkpt><trkpt lat="42.76621193920516" lon="10.345309627989336"><ele>34.0</ele><time>2026-04-19T10:13:06.855Z</time></trkpt><trkpt lat="42.76617774815276" lon="10.345450256802145"><ele>37.0</ele><time>2026-04-19T10:13:07.855Z</time></trkpt><trkpt lat="42.7661477199266" lon="10.345586533614442"><ele>40.0</ele><time>2026-04-19T10:13:08.855Z</time></trkpt><trkpt lat="42.766111377548945" lon="10.345727169018764"><ele>41.8</ele><time>2026-04-19T10:13:09.855Z</time></trkpt><trkpt lat="42.766074168599864" lon="10.345849734999094"><ele>43.6</ele><time>2026-04-19T10:13:10.855Z</time></trkpt><trkpt lat="42.766035262500736" lon="10.345955698353894"><ele>45.400000000000006</ele><time>2026-04-19T10:13:11.855Z</time></trkpt><trkpt lat="42.765994611444505" lon="10.346057864566534"><ele>47.2</ele><time>2026-04-19T10:13:12.855Z</time></trkpt><trkpt lat="42.765948768153194" lon="10.34617575660218"><ele>49.0</ele><time>2026-04-19T10:13:13.855Z</time></trkpt><trkpt lat="42.76589961325068" lon="10.346287337313976"><ele>47.166666666666664</ele><time>2026-04-19T10:13:14.855Z</time></trkpt><trkpt lat="42.7658579632608" lon="10.346386303547307"><ele>45.33333333333333</ele><time>2026-04-19T10:13:15.855Z</time></trkpt><trkpt lat="42.76583200264334" lon="10.346477909143301"><ele>43.5</ele><time>2026-04-19T10:13:16.855Z</time></trkpt><trkpt lat="42.76580272815402" lon="10.346570642804771"><ele>41.666666666666664</ele><time>2026-04-19T10:13:17.855Z</time></trkpt><trkpt lat="42.7657948519101" lon="10.346693686643471"><ele>39.83333333333333</ele><time>2026-04-19T10:13:18.855Z</time></trkpt><trkpt lat="42.76583189464059" lon="10.34685779874339"><ele>38.0</ele><time>2026-04-19T10:13:19.855Z</time></trkpt><trkpt lat="42.765859263069025" lon="10.346993696832072"><ele>38.0</ele><time>2026-04-19T10:13:20.855Z</time></trkpt><trkpt lat="42.76588840503886" lon="10.347091692153784"><ele>38.0</ele><time>2026-04-19T10:13:21.855Z</time></trkpt><trkpt lat="42.765922639989114" lon="10.34719506960817"><ele>38.0</ele><time>2026-04-19T10:13:23.855Z</time></trkpt><trkpt lat="42.76585249149731" lon="10.347210549037985"><ele>38.0</ele><time>2026-04-19T10:13:26.854Z</time></trkpt><trkpt lat="42.76572467953465" lon="10.347194337517285"><ele>38.0</ele><time>2026-04-19T10:13:28.854Z</time></trkpt><trkpt lat="42.765630759094634" lon="10.347182424761195"><ele>38.0</ele><time>2026-04-19T10:13:29.854Z</time></trkpt><trkpt lat="42.765543099723224" lon="10.347171306134173"><ele>38.0</ele><time>2026-04-19T10:13:30.854Z</time></trkpt><trkpt lat="42.76544760964678" lon="10.347163553637802"><ele>38.0</ele><time>2026-04-19T10:13:31.854Z</time></trkpt><trkpt lat="42.76537108206475" lon="10.347176790789911"><ele>38.0</ele><time>2026-04-19T10:13:32.854Z</time></trkpt><trkpt lat="42.76529667563725" lon="10.347179915469598"><ele>38.0</ele><time>2026-04-19T10:13:33.854Z</time></trkpt><trkpt lat="42.765191678699715" lon="10.3472138785101"><ele>38.0</ele><time>2026-04-19T10:13:34.854Z</time></trkpt><trkpt lat="42.76508191674402" lon="10.347256766704977"><ele>39.599999999999994</ele><time>2026-04-19T10:13:35.854Z</time></trkpt><trkpt lat="42.76499444861521" lon="10.347293709524857"><ele>41.199999999999996</ele><time>2026-04-19T10:13:36.854Z</time></trkpt><trkpt lat="42.764915189699025" lon="10.347331023443951"><ele>42.8</ele><time>2026-04-19T10:13:37.854Z</time></trkpt><trkpt lat="42.76484058954935" lon="10.347409399131795"><ele>44.4</ele><time>2026-04-19T10:13:38.854Z</time></trkpt><trkpt lat="42.764798174690725" lon="10.347519591761154"><ele>46.0</ele><time>2026-04-19T10:13:39.854Z</time></trkpt><trkpt lat="42.76479359052447" lon="10.347646984537443"><ele>46.0</ele><time>2026-04-19T10:13:40.854Z</time></trkpt><trkpt lat="42.764832567341365" lon="10.347754621588367"><ele>46.0</ele><time>2026-04-19T10:13:41.854Z</time></trkpt><trkpt lat="42.76487097490555" lon="10.347838588559005"><ele>46.0</ele><time>2026-04-19T10:13:42.854Z</time></trkpt><trkpt lat="42.76488542310957" lon="10.347926036835418"><ele>46.0</ele><time>2026-04-19T10:13:43.854Z</time></trkpt><trkpt lat="42.76490123677504" lon="10.348021356536174"><ele>46.0</ele><time>2026-04-19T10:13:44.854Z</time></trkpt><trkpt lat="42.76487997218289" lon="10.348198424399987"><ele>46.0</ele><time>2026-04-19T10:13:46.854Z</time></trkpt><trkpt lat="42.76485877929126" lon="10.348288416432213"><ele>48.199999999999996</ele><time>2026-04-19T10:13:47.854Z</time></trkpt><trkpt lat="42.764772173066966" lon="10.348300855232122"><ele>50.4</ele><time>2026-04-19T10:13:48.854Z</time></trkpt><trkpt lat="42.764683563625624" lon="10.348330938313085"><ele>52.6</ele><time>2026-04-19T10:13:49.854Z</time></trkpt><trkpt lat="42.764569017402906" lon="10.348387253607541"><ele>54.8</ele><time>2026-04-19T10:13:50.854Z</time></trkpt><trkpt lat="42.76446747516266" lon="10.348444389576475"><ele>57.0</ele><time>2026-04-19T10:13:51.854Z</time></trkpt><trkpt lat="42.76438505902911" lon="10.348533823880919"><ele>57.666666666666664</ele><time>2026-04-19T10:13:52.854Z</time></trkpt><trkpt lat="42.76432086238165" lon="10.348603784421135"><ele>58.33333333333333</ele><time>2026-04-19T10:13:53.854Z</time></trkpt><trkpt lat="42.76427876037245" lon="10.348684490420183"><ele>59.0</ele><time>2026-04-19T10:13:54.854Z</time></trkpt><trkpt lat="42.76426542459315" lon="10.348786515616743"><ele>59.666666666666664</ele><time>2026-04-19T10:13:55.854Z</time></trkpt><trkpt lat="42.764281923326216" lon="10.348915186451846"><ele>60.33333333333333</ele><time>2026-04-19T10:13:56.854Z</time></trkpt><trkpt lat="42.7643142912543" lon="10.349026365288386"><ele>61.0</ele><time>2026-04-19T10:13:57.854Z</time></trkpt><trkpt lat="42.76438585368028" lon="10.349103870548227"><ele>61.0</ele><time>2026-04-19T10:13:58.854Z</time></trkpt><trkpt lat="42.76446316694699" lon="10.349156294585923"><ele>61.0</ele><time>2026-04-19T10:13:59.854Z</time></trkpt><trkpt lat="42.764574009839166" lon="10.349230911944597"><ele>61.0</ele><time>2026-04-19T10:14:00.854Z</time></trkpt><trkpt lat="42.76468150089014" lon="10.349328378650503"><ele>61.0</ele><time>2026-04-19T10:14:01.854Z</time></trkpt><trkpt lat="42.76480484712028" lon="10.349401927455363"><ele>61.0</ele><time>2026-04-19T10:14:02.855Z</time></trkpt><trkpt lat="42.764900311691186" lon="10.349459995549024"><ele>60.99999999999999</ele><time>2026-04-19T10:14:03.855Z</time></trkpt><trkpt lat="42.76497603857278" lon="10.349511655590552"><ele>60.99999999999999</ele><time>2026-04-19T10:14:04.854Z</time></trkpt><trkpt lat="42.765035466097935" lon="10.349580917506627"><ele>61.0</ele><time>2026-04-19T10:14:05.854Z</time></trkpt><trkpt lat="42.76507808807435" lon="10.349670794374873"><ele>61.0</ele><time>2026-04-19T10:14:06.854Z</time></trkpt><trkpt lat="42.76511478049925" lon="10.349813636136107"><ele>59.83333333333333</ele><time>2026-04-19T10:14:07.854Z</time></trkpt><trkpt lat="42.765157386348776" lon="10.349940465325966"><ele>58.666666666666664</ele><time>2026-04-19T10:14:08.854Z</time></trkpt><trkpt lat="42.76520350142575" lon="10.350049464223707"><ele>57.5</ele><time>2026-04-19T10:14:09.854Z</time></trkpt><trkpt lat="42.76525924484871" lon="10.350132293716934"><ele>56.33333333333333</ele><time>2026-04-19T10:14:10.855Z</time></trkpt><trkpt lat="42.7652988125768" lon="10.350212748417393"><ele>55.166666666666664</ele><time>2026-04-19T10:14:11.855Z</time></trkpt><trkpt lat="42.765322893117535" lon="10.35029629181375"><ele>54.0</ele><time>2026-04-19T10:14:12.854Z</time></trkpt><trkpt lat="42.76525782056351" lon="10.350439770117282"><ele>54.0</ele><time>2026-04-19T10:14:14.854Z</time></trkpt><trkpt lat="42.765159117108595" lon="10.350532271944278"><ele>54.0</ele><time>2026-04-19T10:14:16.854Z</time></trkpt><trkpt lat="42.76510069490539" lon="10.350585519528044"><ele>54.0</ele><time>2026-04-19T10:14:17.854Z</time></trkpt><trkpt lat="42.7650565626739" lon="10.350649047171045"><ele>54.0</ele><time>2026-04-19T10:14:18.854Z</time></trkpt><trkpt lat="42.76499306950997" lon="10.350675143637918"><ele>54.0</ele><time>2026-04-19T10:14:19.854Z</time></trkpt><trkpt lat="42.76488552492815" lon="10.350711386282835"><ele>54.0</ele><time>2026-04-19T10:14:21.854Z</time></trkpt><trkpt lat="42.7648028872543" lon="10.350735445532642"><ele>55.2</ele><time>2026-04-19T10:14:22.854Z</time></trkpt><trkpt lat="42.764717154234496" lon="10.35077647951486"><ele>56.400000000000006</ele><time>2026-04-19T10:14:23.854Z</time></trkpt><trkpt lat="42.76464604010337" lon="10.350822142321231"><ele>57.6</ele><time>2026-04-19T10:14:24.854Z</time></trkpt><trkpt lat="42.76457511644958" lon="10.350948000313599"><ele>58.8</ele><time>2026-04-19T10:14:26.854Z</time></trkpt><trkpt lat="42.76453086660114" lon="10.351036845752246"><ele>60.0</ele><time>2026-04-19T10:14:27.854Z</time></trkpt><trkpt lat="42.764470788571586" lon="10.351136596139968"><ele>60.0</ele><time>2026-04-19T10:14:28.854Z</time></trkpt><trkpt lat="42.76442031030894" lon="10.351230389722266"><ele>60.0</ele><time>2026-04-19T10:14:29.854Z</time></trkpt><trkpt lat="42.76437188939582" lon="10.35131897997376"><ele>60.0</ele><time>2026-04-19T10:14:30.854Z</time></trkpt><trkpt lat="42.76432669046214" lon="10.351401675183595"><ele>60.0</ele><time>2026-04-19T10:14:31.854Z</time></trkpt><trkpt lat="42.76427760528783" lon="10.351491478660092"><ele>60.0</ele><time>2026-04-19T10:14:32.854Z</time></trkpt><trkpt lat="42.76423722664867" lon="10.351573873943517"><ele>60.0</ele><time>2026-04-19T10:14:33.854Z</time></trkpt><trkpt lat="42.764201647934534" lon="10.351666699424909"><ele>58.0</ele><time>2026-04-19T10:14:34.854Z</time></trkpt><trkpt lat="42.76417193360872" lon="10.351756899531912"><ele>56.0</ele><time>2026-04-19T10:14:35.854Z</time></trkpt><trkpt lat="42.76418828585229" lon="10.3518614418323"><ele>54.0</ele><time>2026-04-19T10:14:36.854Z</time></trkpt><trkpt lat="42.76420944188877" lon="10.351959792258127"><ele>52.0</ele><time>2026-04-19T10:14:37.854Z</time></trkpt><trkpt lat="42.76425127855335" lon="10.352037163218808"><ele>50.0</ele><time>2026-04-19T10:14:38.854Z</time></trkpt><trkpt lat="42.76429294606916" lon="10.352160070759252"><ele>48.0</ele><time>2026-04-19T10:14:40.854Z</time></trkpt><trkpt lat="42.764278945943424" lon="10.352266490431548"><ele>46.4</ele><time>2026-04-19T10:14:42.854Z</time></trkpt><trkpt lat="42.76421755619471" lon="10.352308174940477"><ele>44.8</ele><time>2026-04-19T10:14:44.854Z</time></trkpt><trkpt lat="42.764072433544804" lon="10.352339476213066"><ele>43.2</ele><time>2026-04-19T10:14:46.854Z</time></trkpt><trkpt lat="42.763964759942674" lon="10.352352984620902"><ele>41.6</ele><time>2026-04-19T10:14:47.854Z</time></trkpt><trkpt lat="42.76385336841776" lon="10.352344255634632"><ele>40.0</ele><time>2026-04-19T10:14:48.854Z</time></trkpt><trkpt lat="42.7637624706605" lon="10.352334541324216"><ele>40.0</ele><time>2026-04-19T10:14:49.854Z</time></trkpt><trkpt lat="42.76367393496266" lon="10.352313907060667"><ele>40.0</ele><time>2026-04-19T10:14:50.854Z</time></trkpt><trkpt lat="42.76358172754746" lon="10.352314401976042"><ele>40.0</ele><time>2026-04-19T10:14:51.854Z</time></trkpt><trkpt lat="42.763498763424664" lon="10.352323061650765"><ele>40.0</ele><time>2026-04-19T10:14:52.854Z</time></trkpt><trkpt lat="42.763429966418315" lon="10.352240957709464"><ele>40.0</ele><time>2026-04-19T10:14:53.854Z</time></trkpt><trkpt lat="42.763351473258645" lon="10.352319591453947"><ele>39.16666666666667</ele><time>2026-04-19T10:14:54.854Z</time></trkpt><trkpt lat="42.76327199198521" lon="10.352319369333525"><ele>38.333333333333336</ele><time>2026-04-19T10:14:55.854Z</time></trkpt><trkpt lat="42.76320381662265" lon="10.352310756082547"><ele>37.5</ele><time>2026-04-19T10:14:56.854Z</time></trkpt><trkpt lat="42.763118896855694" lon="10.35229502389155"><ele>36.666666666666664</ele><time>2026-04-19T10:14:57.854Z</time></trkpt><trkpt lat="42.76300964058034" lon="10.352266392628122"><ele>35.83333333333333</ele><time>2026-04-19T10:14:58.854Z</time></trkpt><trkpt lat="42.76291193926531" lon="10.352257667854792"><ele>35.0</ele><time>2026-04-19T10:14:59.854Z</time></trkpt><trkpt lat="42.762820091204325" lon="10.352270951937973"><ele>35.0</ele><time>2026-04-19T10:15:00.853Z</time></trkpt><trkpt lat="42.762742516936136" lon="10.35229546387437"><ele>35.0</ele><time>2026-04-19T10:15:01.853Z</time></trkpt><trkpt lat="42.76267169402813" lon="10.352313867492985"><ele>35.0</ele><time>2026-04-19T10:15:02.853Z</time></trkpt><trkpt lat="42.7626086975199" lon="10.352340632262882"><ele>35.0</ele><time>2026-04-19T10:15:03.853Z</time></trkpt><trkpt lat="42.76259514191676" lon="10.352430420651302"><ele>35.0</ele><time>2026-04-19T10:15:04.853Z</time></trkpt><trkpt lat="42.76259025067203" lon="10.352519733860449"><ele>35.0</ele><time>2026-04-19T10:15:06.853Z</time></trkpt><trkpt lat="42.762598059550896" lon="10.352662485603117"><ele>33.83333333333333</ele><time>2026-04-19T10:15:08.853Z</time></trkpt><trkpt lat="42.762579894400425" lon="10.352775322213772"><ele>32.666666666666664</ele><time>2026-04-19T10:15:09.853Z</time></trkpt><trkpt lat="42.76258664883246" lon="10.352901462753943"><ele>31.5</ele><time>2026-04-19T10:15:10.853Z</time></trkpt><trkpt lat="42.7625762680407" lon="10.35301984315412"><ele>30.333333333333336</ele><time>2026-04-19T10:15:11.853Z</time></trkpt><trkpt lat="42.76256628032565" lon="10.353160639265344"><ele>29.166666666666668</ele><time>2026-04-19T10:15:12.853Z</time></trkpt><trkpt lat="42.76255406757446" lon="10.35326454333817"><ele>28.0</ele><time>2026-04-19T10:15:13.853Z</time></trkpt><trkpt lat="42.76252867116466" lon="10.353348476983559"><ele>27.166666666666668</ele><time>2026-04-19T10:15:14.853Z</time></trkpt><trkpt lat="42.76250738169836" lon="10.353434713431541"><ele>26.333333333333336</ele><time>2026-04-19T10:15:15.853Z</time></trkpt><trkpt lat="42.76247357934365" lon="10.35352633142497"><ele>25.5</ele><time>2026-04-19T10:15:16.853Z</time></trkpt><trkpt lat="42.76243969254196" lon="10.35362689624454"><ele>24.666666666666668</ele><time>2026-04-19T10:15:17.853Z</time></trkpt><trkpt lat="42.76240228577725" lon="10.35372876565245"><ele>23.833333333333336</ele><time>2026-04-19T10:15:18.853Z</time></trkpt><trkpt lat="42.76236474009308" lon="10.35382851353946"><ele>23.0</ele><time>2026-04-19T10:15:19.853Z</time></trkpt><trkpt lat="42.76233272614836" lon="10.353913565183488"><ele>22.42857142857143</ele><time>2026-04-19T10:15:20.853Z</time></trkpt><trkpt lat="42.76230367499939" lon="10.35399771671483"><ele>21.857142857142854</ele><time>2026-04-19T10:15:21.853Z</time></trkpt><trkpt lat="42.76228816459357" lon="10.354093759595864"><ele>21.285714285714285</ele><time>2026-04-19T10:15:22.853Z</time></trkpt><trkpt lat="42.76225407314236" lon="10.354194069177671"><ele>20.714285714285715</ele><time>2026-04-19T10:15:23.853Z</time></trkpt><trkpt lat="42.76222962751802" lon="10.354275722319702"><ele>20.142857142857146</ele><time>2026-04-19T10:15:24.853Z</time></trkpt><trkpt lat="42.762220494992796" lon="10.3543738072864"><ele>19.57142857142857</ele><time>2026-04-19T10:15:25.853Z</time></trkpt><trkpt lat="42.762242955893825" lon="10.354476690061206"><ele>19.0</ele><time>2026-04-19T10:15:26.853Z</time></trkpt><trkpt lat="42.762347815727864" lon="10.354560493207012"><ele>19.0</ele><time>2026-04-19T10:15:27.853Z</time></trkpt><trkpt lat="42.762433035158836" lon="10.354658536344697"><ele>19.0</ele><time>2026-04-19T10:15:28.853Z</time></trkpt><trkpt lat="42.76250651391219" lon="10.354742516999318"><ele>19.0</ele><time>2026-04-19T10:15:29.853Z</time></trkpt><trkpt lat="42.762562523763314" lon="10.354817764721025"><ele>19.0</ele><time>2026-04-19T10:15:30.853Z</time></trkpt><trkpt lat="42.76258954618978" lon="10.354903031049139"><ele>19.0</ele><time>2026-04-19T10:15:31.853Z</time></trkpt><trkpt lat="42.762590719639995" lon="10.355002597521272"><ele>19.0</ele><time>2026-04-19T10:15:32.853Z</time></trkpt><trkpt lat="42.76254553687913" lon="10.355088036963714"><ele>17.5</ele><time>2026-04-19T10:15:33.853Z</time></trkpt><trkpt lat="42.762504342253" lon="10.355187607567887"><ele>16.0</ele><time>2026-04-19T10:15:34.853Z</time></trkpt><trkpt lat="42.76247218799649" lon="10.35528341347181"><ele>14.5</ele><time>2026-04-19T10:15:35.853Z</time></trkpt><trkpt lat="42.762461184633175" lon="10.355380848877278"><ele>13.0</ele><time>2026-04-19T10:15:36.853Z</time></trkpt><trkpt lat="42.76244525008717" lon="10.355473764412242"><ele>11.5</ele><time>2026-04-19T10:15:37.853Z</time></trkpt><trkpt lat="42.76246770041348" lon="10.355568360874331"><ele>10.0</ele><time>2026-04-19T10:15:38.853Z</time></trkpt><trkpt lat="42.76248181981661" lon="10.355666242241641"><ele>8.8</ele><time>2026-04-19T10:15:39.853Z</time></trkpt><trkpt lat="42.76249785958472" lon="10.355800455434368"><ele>7.6</ele><time>2026-04-19T10:15:41.853Z</time></trkpt><trkpt lat="42.762482162956914" lon="10.355898846146905"><ele>6.4</ele><time>2026-04-19T10:15:43.853Z</time></trkpt><trkpt lat="42.76256536809547" lon="10.356035190747916"><ele>5.2</ele><time>2026-04-19T10:15:45.853Z</time></trkpt><trkpt lat="42.76264426208901" lon="10.356115394346796"><ele>4.0</ele><time>2026-04-19T10:15:47.853Z</time></trkpt><trkpt lat="42.762697472233825" lon="10.356181603516436"><ele>4.5</ele><time>2026-04-19T10:15:50.853Z</time></trkpt><trkpt lat="42.7627367930398" lon="10.356261554454836"><ele>5.0</ele><time>2026-04-19T10:15:55.852Z</time></trkpt><trkpt lat="42.76280543349951" lon="10.356312797232862"><ele>5.5</ele><time>2026-04-19T10:16:43.852Z</time></trkpt><trkpt lat="42.76290860574055" lon="10.356419860222633"><ele>6.0</ele><time>2026-04-19T10:16:45.852Z</time></trkpt><trkpt lat="42.76295825536552" lon="10.356502653375152"><ele>6.500000000000001</ele><time>2026-04-19T10:16:46.852Z</time></trkpt><trkpt lat="42.76295612423672" lon="10.35660325543433"><ele>7.0</ele><time>2026-04-19T10:16:47.852Z</time></trkpt><trkpt lat="42.76298633074784" lon="10.356729309374405"><ele>7.0</ele><time>2026-04-19T10:16:49.852Z</time></trkpt><trkpt lat="42.76294355585047" lon="10.356907719906104"><ele>6.999999999999999</ele><time>2026-04-19T10:16:51.852Z</time></trkpt><trkpt lat="42.76288204470648" lon="10.356983338686069"><ele>6.999999999999999</ele><time>2026-04-19T10:16:52.852Z</time></trkpt><trkpt lat="42.76281841704199" lon="10.35705570170818"><ele>7.0</ele><time>2026-04-19T10:16:53.852Z</time></trkpt><trkpt lat="42.76275332572682" lon="10.35712635421131"><ele>7.0</ele><time>2026-04-19T10:16:54.852Z</time></trkpt><trkpt lat="42.76268315890681" lon="10.357193963871199"><ele>7.500000000000001</ele><time>2026-04-19T10:16:55.852Z</time></trkpt><trkpt lat="42.76263161458143" lon="10.357273943560408"><ele>8.0</ele><time>2026-04-19T10:16:56.852Z</time></trkpt><trkpt lat="42.76260677992304" lon="10.357367700898427"><ele>8.5</ele><time>2026-04-19T10:16:57.852Z</time></trkpt><trkpt lat="42.76257482173173" lon="10.357450813299362"><ele>9.0</ele><time>2026-04-19T10:16:58.852Z</time></trkpt><trkpt lat="42.762559134039535" lon="10.357555089981329"><ele>9.5</ele><time>2026-04-19T10:16:59.852Z</time></trkpt><trkpt lat="42.762565317823494" lon="10.35768611548364"><ele>10.0</ele><time>2026-04-19T10:17:00.852Z</time></trkpt><trkpt lat="42.762581294750994" lon="10.35782871454279"><ele>10.0</ele><time>2026-04-19T10:17:01.852Z</time></trkpt><trkpt lat="42.76258808727264" lon="10.357986480273025"><ele>10.0</ele><time>2026-04-19T10:17:02.852Z</time></trkpt><trkpt lat="42.76259288710832" lon="10.358145791311461"><ele>10.0</ele><time>2026-04-19T10:17:03.852Z</time></trkpt><trkpt lat="42.76260202302558" lon="10.35829090411359"><ele>10.0</ele><time>2026-04-19T10:17:04.852Z</time></trkpt><trkpt lat="42.76261342973748" lon="10.358426191220637"><ele>10.0</ele><time>2026-04-19T10:17:05.852Z</time></trkpt><trkpt lat="42.76262200420433" lon="10.358555894574364"><ele>10.333333333333334</ele><time>2026-04-19T10:17:06.852Z</time></trkpt><trkpt lat="42.762629401575495" lon="10.358657912270674"><ele>10.666666666666668</ele><time>2026-04-19T10:17:07.852Z</time></trkpt><trkpt lat="42.7626394390206" lon="10.358758554283291"><ele>11.0</ele><time>2026-04-19T10:17:08.852Z</time></trkpt><trkpt lat="42.762647088283316" lon="10.3588596731239"><ele>11.333333333333334</ele><time>2026-04-19T10:17:09.852Z</time></trkpt><trkpt lat="42.76266942708167" lon="10.358964870974088"><ele>11.666666666666666</ele><time>2026-04-19T10:17:10.852Z</time></trkpt><trkpt lat="42.76271304024893" lon="10.359061630893745"><ele>12.0</ele><time>2026-04-19T10:17:11.852Z</time></trkpt><trkpt lat="42.76278165756845" lon="10.359152736100302"><ele>12.0</ele><time>2026-04-19T10:17:12.852Z</time></trkpt><trkpt lat="42.76285978728412" lon="10.359229150645232"><ele>12.0</ele><time>2026-04-19T10:17:13.852Z</time></trkpt><trkpt lat="42.762921963772406" lon="10.359306813530424"><ele>12.0</ele><time>2026-04-19T10:17:14.852Z</time></trkpt><trkpt lat="42.762987828871196" lon="10.359391395436724"><ele>12.0</ele><time>2026-04-19T10:17:15.851Z</time></trkpt><trkpt lat="42.763046197408826" lon="10.359460357085752"><ele>12.0</ele><time>2026-04-19T10:17:16.851Z</time></trkpt><trkpt lat="42.763094741525094" lon="10.359523355191437"><ele>12.0</ele><time>2026-04-19T10:17:17.851Z</time></trkpt><trkpt lat="42.76314838891995" lon="10.359597989077677"><ele>12.0</ele><time>2026-04-19T10:17:18.851Z</time></trkpt><trkpt lat="42.763204103530576" lon="10.359673823596708"><ele>12.0</ele><time>2026-04-19T10:17:19.851Z</time></trkpt><trkpt lat="42.7632505449463" lon="10.359743811223897"><ele>12.0</ele><time>2026-04-19T10:17:20.851Z</time></trkpt><trkpt lat="42.76330644736885" lon="10.35982978420407"><ele>12.0</ele><time>2026-04-19T10:17:22.851Z</time></trkpt><trkpt lat="42.763340348498524" lon="10.359916684386302"><ele>12.0</ele><time>2026-04-19T10:17:24.851Z</time></trkpt><trkpt lat="42.76332264045221" lon="10.360045302824474"><ele>12.0</ele><time>2026-04-19T10:17:27.851Z</time></trkpt><trkpt lat="42.763254893681236" lon="10.360118687262643"><ele>12.5</ele><time>2026-04-19T10:17:28.851Z</time></trkpt><trkpt lat="42.763195664091704" lon="10.360235969871493"><ele>13.0</ele><time>2026-04-19T10:17:29.851Z</time></trkpt><trkpt lat="42.76312824449733" lon="10.360369469799048"><ele>13.5</ele><time>2026-04-19T10:17:30.851Z</time></trkpt><trkpt lat="42.76305729086341" lon="10.360511716694592"><ele>14.0</ele><time>2026-04-19T10:17:31.851Z</time></trkpt><trkpt lat="42.76297824314005" lon="10.360668904073629"><ele>15.333333333333334</ele><time>2026-04-19T10:17:32.851Z</time></trkpt><trkpt lat="42.76288440180103" lon="10.360855508737306"><ele>16.666666666666668</ele><time>2026-04-19T10:17:33.851Z</time></trkpt><trkpt lat="42.762797495784106" lon="10.361033490348877"><ele>18.0</ele><time>2026-04-19T10:17:34.851Z</time></trkpt><trkpt lat="42.762701505736096" lon="10.361224589043426"><ele>16.333333333333332</ele><time>2026-04-19T10:17:35.851Z</time></trkpt><trkpt lat="42.76260396230768" lon="10.361423677431969"><ele>14.666666666666666</ele><time>2026-04-19T10:17:36.851Z</time></trkpt><trkpt lat="42.762510387061546" lon="10.361620765436198"><ele>13.0</ele><time>2026-04-19T10:17:37.851Z</time></trkpt><trkpt lat="42.76241375067223" lon="10.36181910390989"><ele>13.0</ele><time>2026-04-19T10:17:38.851Z</time></trkpt><trkpt lat="42.762318074541845" lon="10.36201824014754"><ele>13.0</ele><time>2026-04-19T10:17:39.851Z</time></trkpt><trkpt lat="42.762213704229886" lon="10.362216018877342"><ele>13.0</ele><time>2026-04-19T10:17:40.851Z</time></trkpt><trkpt lat="42.762123086685655" lon="10.362418922545888"><ele>13.0</ele><time>2026-04-19T10:17:41.851Z</time></trkpt><trkpt lat="42.76204018860865" lon="10.362653434632966"><ele>13.0</ele><time>2026-04-19T10:17:42.851Z</time></trkpt><trkpt lat="42.761967555609424" lon="10.362880388640587"><ele>13.0</ele><time>2026-04-19T10:17:43.851Z</time></trkpt><trkpt lat="42.7619019300788" lon="10.36310743603753"><ele>12.0</ele><time>2026-04-19T10:17:44.851Z</time></trkpt><trkpt lat="42.76183380706381" lon="10.363324349647227"><ele>11.0</ele><time>2026-04-19T10:17:45.851Z</time></trkpt><trkpt lat="42.761763407476195" lon="10.363540340689488"><ele>10.0</ele><time>2026-04-19T10:17:46.851Z</time></trkpt><trkpt lat="42.7617035257903" lon="10.363746226248072"><ele>10.333333333333334</ele><time>2026-04-19T10:17:47.851Z</time></trkpt><trkpt lat="42.76163188340092" lon="10.36393864664489"><ele>10.666666666666666</ele><time>2026-04-19T10:17:48.851Z</time></trkpt><trkpt lat="42.76156964013756" lon="10.364139180803821"><ele>11.0</ele><time>2026-04-19T10:17:49.851Z</time></trkpt><trkpt lat="42.761515019591286" lon="10.364313896821507"><ele>11.0</ele><time>2026-04-19T10:17:50.851Z</time></trkpt><trkpt lat="42.76146440112623" lon="10.36448178807805"><ele>11.0</ele><time>2026-04-19T10:17:51.851Z</time></trkpt><trkpt lat="42.76139462016184" lon="10.36460183886387"><ele>11.0</ele><time>2026-04-19T10:17:52.851Z</time></trkpt><trkpt lat="42.76136000781342" lon="10.364724935993252"><ele>11.0</ele><time>2026-04-19T10:17:53.851Z</time></trkpt><trkpt lat="42.76132838886049" lon="10.364833239838976"><ele>11.0</ele><time>2026-04-19T10:17:54.851Z</time></trkpt><trkpt lat="42.761298732605255" lon="10.364928061801114"><ele>11.8</ele><time>2026-04-19T10:17:55.851Z</time></trkpt><trkpt lat="42.7612505665735" lon="10.365061235796746"><ele>12.600000000000001</ele><time>2026-04-19T10:17:57.851Z</time></trkpt><trkpt lat="42.761397420813836" lon="10.36512825923396"><ele>13.4</ele><time>2026-04-19T10:18:00.851Z</time></trkpt><trkpt lat="42.761462805098425" lon="10.365129152026187"><ele>14.2</ele><time>2026-04-19T10:18:01.851Z</time></trkpt><trkpt lat="42.76155311223429" lon="10.365108511295606"><ele>15.0</ele><time>2026-04-19T10:18:02.851Z</time></trkpt><trkpt lat="42.76164795053453" lon="10.365063097781904"><ele>15.0</ele><time>2026-04-19T10:18:03.851Z</time></trkpt><trkpt lat="42.761752105175084" lon="10.36501167798926"><ele>15.0</ele><time>2026-04-19T10:18:04.851Z</time></trkpt><trkpt lat="42.761874449640146" lon="10.364951277394704"><ele>15.0</ele><time>2026-04-19T10:18:05.851Z</time></trkpt><trkpt lat="42.761996256074454" lon="10.364884936484954"><ele>15.0</ele><time>2026-04-19T10:18:06.85Z</time></trkpt><trkpt lat="42.762141926080396" lon="10.364814764057932"><ele>14.0</ele><time>2026-04-19T10:18:07.85Z</time></trkpt><trkpt lat="42.762303140543075" lon="10.364744242754751"><ele>13.0</ele><time>2026-04-19T10:18:08.85Z</time></trkpt><trkpt lat="42.762442791028505" lon="10.364684319727004"><ele>12.0</ele><time>2026-04-19T10:18:09.85Z</time></trkpt><trkpt lat="42.76257131104634" lon="10.364646649572464"><ele>11.0</ele><time>2026-04-19T10:18:10.85Z</time></trkpt><trkpt lat="42.76267929619266" lon="10.364655981997643"><ele>12.0</ele><time>2026-04-19T10:18:11.85Z</time></trkpt><trkpt lat="42.76278371014216" lon="10.364685611416846"><ele>13.0</ele><time>2026-04-19T10:18:12.85Z</time></trkpt><trkpt lat="42.762869165976724" lon="10.364739549991274"><ele>14.000000000000002</ele><time>2026-04-19T10:18:13.85Z</time></trkpt><trkpt lat="42.76295340634965" lon="10.364810117316685"><ele>15.0</ele><time>2026-04-19T10:18:14.852Z</time></trkpt><trkpt lat="42.7630514197181" lon="10.364880853356155"><ele>16.0</ele><time>2026-04-19T10:18:15.852Z</time></trkpt><trkpt lat="42.76314458574913" lon="10.364942872548257"><ele>16.400000000000002</ele><time>2026-04-19T10:18:16.852Z</time></trkpt><trkpt lat="42.76323067012671" lon="10.365000179168197"><ele>16.8</ele><time>2026-04-19T10:18:17.852Z</time></trkpt><trkpt lat="42.763337517538304" lon="10.365071307802229"><ele>17.200000000000003</ele><time>2026-04-19T10:18:18.851Z</time></trkpt><trkpt lat="42.76342441535098" lon="10.36512915592963"><ele>17.6</ele><time>2026-04-19T10:18:19.851Z</time></trkpt><trkpt lat="42.763530183558366" lon="10.365161023581265"><ele>18.0</ele><time>2026-04-19T10:18:20.852Z</time></trkpt><trkpt lat="42.76365825908418" lon="10.365205256251665"><ele>18.0</ele><time>2026-04-19T10:18:21.851Z</time></trkpt><trkpt lat="42.76378973176881" lon="10.365287549429647"><ele>18.0</ele><time>2026-04-19T10:18:22.851Z</time></trkpt><trkpt lat="42.76391564845303" lon="10.365371152480202"><ele>18.0</ele><time>2026-04-19T10:18:23.851Z</time></trkpt><trkpt lat="42.764022845124614" lon="10.365446361064633"><ele>18.0</ele><time>2026-04-19T10:18:24.852Z</time></trkpt><trkpt lat="42.764114556520425" lon="10.36548622153883"><ele>18.0</ele><time>2026-04-19T10:18:25.852Z</time></trkpt><trkpt lat="42.76420354497278" lon="10.365493284658864"><ele>18.0</ele><time>2026-04-19T10:18:26.852Z</time></trkpt><trkpt lat="42.76428406233664" lon="10.365494858940126"><ele>18.0</ele><time>2026-04-19T10:18:27.852Z</time></trkpt><trkpt lat="42.76435229442584" lon="10.365510713367634"><ele>18.0</ele><time>2026-04-19T10:18:28.851Z</time></trkpt><trkpt lat="42.76442283552497" lon="10.365507489523457"><ele>18.0</ele><time>2026-04-19T10:18:29.851Z</time></trkpt><trkpt lat="42.764498168069295" lon="10.365503009477175"><ele>18.0</ele><time>2026-04-19T10:18:30.851Z</time></trkpt><trkpt lat="42.764577675981336" lon="10.36560562661998"><ele>20.142857142857146</ele><time>2026-04-19T10:18:31.851Z</time></trkpt><trkpt lat="42.76464442847153" lon="10.365655776812492"><ele>22.285714285714285</ele><time>2026-04-19T10:18:32.851Z</time></trkpt><trkpt lat="42.76470528000001" lon="10.36571958334473"><ele>24.42857142857143</ele><time>2026-04-19T10:18:33.851Z</time></trkpt><trkpt lat="42.7647544258377" lon="10.365777818057976"><ele>26.571428571428573</ele><time>2026-04-19T10:18:34.851Z</time></trkpt><trkpt lat="42.764786391286115" lon="10.365865068417373"><ele>28.714285714285715</ele><time>2026-04-19T10:18:35.851Z</time></trkpt><trkpt lat="42.764842492590816" lon="10.365935189006333"><ele>30.857142857142858</ele><time>2026-04-19T10:18:36.851Z</time></trkpt><trkpt lat="42.76489674479041" lon="10.366006260167875"><ele>33.0</ele><time>2026-04-19T10:18:37.851Z</time></trkpt><trkpt lat="42.76495190353053" lon="10.366082519365582"><ele>33.0</ele><time>2026-04-19T10:18:38.851Z</time></trkpt><trkpt lat="42.76499989067587" lon="10.366154038447805"><ele>33.0</ele><time>2026-04-19T10:18:39.851Z</time></trkpt><trkpt lat="42.76504353440858" lon="10.36622248332163"><ele>33.0</ele><time>2026-04-19T10:18:40.851Z</time></trkpt><trkpt lat="42.76509057585909" lon="10.366305172888643"><ele>33.0</ele><time>2026-04-19T10:18:41.851Z</time></trkpt><trkpt lat="42.765130812848156" lon="10.366402475781307"><ele>33.0</ele><time>2026-04-19T10:18:42.851Z</time></trkpt><trkpt lat="42.76516988025847" lon="10.366511065141012"><ele>33.0</ele><time>2026-04-19T10:18:43.851Z</time></trkpt><trkpt lat="42.76520271010037" lon="10.36662456382931"><ele>37.0</ele><time>2026-04-19T10:18:44.851Z</time></trkpt><trkpt lat="42.76522140213947" lon="10.366732830488417"><ele>41.0</ele><time>2026-04-19T10:18:45.851Z</time></trkpt><trkpt lat="42.765242070603826" lon="10.36685697184949"><ele>45.0</ele><time>2026-04-19T10:18:46.851Z</time></trkpt><trkpt lat="42.76526363426981" lon="10.36698800773617"><ele>49.0</ele><time>2026-04-19T10:18:47.851Z</time></trkpt><trkpt lat="42.765295869313796" lon="10.367099778928472"><ele>53.0</ele><time>2026-04-19T10:18:48.851Z</time></trkpt><trkpt lat="42.76530681360086" lon="10.3671952219111"><ele>57.0</ele><time>2026-04-19T10:18:49.851Z</time></trkpt><trkpt lat="42.7653195694112" lon="10.367290573762821"><ele>57.0</ele><time>2026-04-19T10:18:50.851Z</time></trkpt><trkpt lat="42.76533308112771" lon="10.367376092552"><ele>57.0</ele><time>2026-04-19T10:18:51.851Z</time></trkpt><trkpt lat="42.7654180971393" lon="10.36743193476269"><ele>57.0</ele><time>2026-04-19T10:18:53.851Z</time></trkpt><trkpt lat="42.76548863768455" lon="10.36739449401972"><ele>57.0</ele><time>2026-04-19T10:18:54.851Z</time></trkpt><trkpt lat="42.765555255632684" lon="10.367327140491149"><ele>57.0</ele><time>2026-04-19T10:18:55.851Z</time></trkpt><trkpt lat="42.76564236782423" lon="10.36725771681092"><ele>57.0</ele><time>2026-04-19T10:18:56.851Z</time></trkpt><trkpt lat="42.7657595302844" lon="10.367184566843287"><ele>57.0</ele><time>2026-04-19T10:18:57.851Z</time></trkpt><trkpt lat="42.76584099188008" lon="10.367131861199377"><ele>57.0</ele><time>2026-04-19T10:18:58.851Z</time></trkpt><trkpt lat="42.765927428030544" lon="10.36707960802111"><ele>57.0</ele><time>2026-04-19T10:18:59.851Z</time></trkpt><trkpt lat="42.766016245617074" lon="10.367029288880376"><ele>57.0</ele><time>2026-04-19T10:19:00.851Z</time></trkpt><trkpt lat="42.766108482551324" lon="10.366981864227732"><ele>57.0</ele><time>2026-04-19T10:19:01.851Z</time></trkpt><trkpt lat="42.76620061588601" lon="10.366938361384008"><ele>58.833333333333336</ele><time>2026-04-19T10:19:02.851Z</time></trkpt><trkpt lat="42.76629242863426" lon="10.366902764545145"><ele>60.66666666666667</ele><time>2026-04-19T10:19:03.851Z</time></trkpt><trkpt lat="42.76639198705434" lon="10.366887596801549"><ele>62.5</ele><time>2026-04-19T10:19:04.851Z</time></trkpt><trkpt lat="42.76648130404188" lon="10.366884348814743"><ele>64.33333333333334</ele><time>2026-04-19T10:19:05.851Z</time></trkpt><trkpt lat="42.766566934677186" lon="10.366883546864363"><ele>66.16666666666667</ele><time>2026-04-19T10:19:06.851Z</time></trkpt><trkpt lat="42.766637004726434" lon="10.366890857414907"><ele>68.0</ele><time>2026-04-19T10:19:07.851Z</time></trkpt><trkpt lat="42.766715534331404" lon="10.36695250993103"><ele>68.0</ele><time>2026-04-19T10:19:09.851Z</time></trkpt><trkpt lat="42.766662149228424" lon="10.367062358379144"><ele>68.0</ele><time>2026-04-19T10:19:11.851Z</time></trkpt><trkpt lat="42.766599343641744" lon="10.367121960332083"><ele>68.0</ele><time>2026-04-19T10:19:12.851Z</time></trkpt><trkpt lat="42.76653856384733" lon="10.367204971120179"><ele>68.0</ele><time>2026-04-19T10:19:13.851Z</time></trkpt><trkpt lat="42.76646686460068" lon="10.367297092750272"><ele>68.0</ele><time>2026-04-19T10:19:14.851Z</time></trkpt><trkpt lat="42.76637527169387" lon="10.367400315670556"><ele>72.5</ele><time>2026-04-19T10:19:15.851Z</time></trkpt><trkpt lat="42.76630512012664" lon="10.36747560362828"><ele>77.0</ele><time>2026-04-19T10:19:16.851Z</time></trkpt><trkpt lat="42.766264027775385" lon="10.367549972548115"><ele>81.5</ele><time>2026-04-19T10:19:17.851Z</time></trkpt><trkpt lat="42.7662446783113" lon="10.367674546768376"><ele>86.0</ele><time>2026-04-19T10:19:19.851Z</time></trkpt><trkpt lat="42.766294159998786" lon="10.367728459883594"><ele>90.5</ele><time>2026-04-19T10:19:20.85Z</time></trkpt><trkpt lat="42.766371419093474" lon="10.3677469994092"><ele>95.0</ele><time>2026-04-19T10:19:21.85Z</time></trkpt><trkpt lat="42.76645847606312" lon="10.367718531181945"><ele>95.0</ele><time>2026-04-19T10:19:22.85Z</time></trkpt><trkpt lat="42.766568087790446" lon="10.367679641758322"><ele>95.0</ele><time>2026-04-19T10:19:23.85Z</time></trkpt><trkpt lat="42.76668672648033" lon="10.367681215002591"><ele>95.0</ele><time>2026-04-19T10:19:24.85Z</time></trkpt><trkpt lat="42.7667661953709" lon="10.367671314392561"><ele>95.0</ele><time>2026-04-19T10:19:25.85Z</time></trkpt><trkpt lat="42.76685392795616" lon="10.367756353980692"><ele>95.0</ele><time>2026-04-19T10:19:27.85Z</time></trkpt><trkpt lat="42.76682243765989" lon="10.3678523329655"><ele>95.0</ele><time>2026-04-19T10:19:29.85Z</time></trkpt><trkpt lat="42.76670002065877" lon="10.367892240892823"><ele>95.0</ele><time>2026-04-19T10:19:31.85Z</time></trkpt><trkpt lat="42.76662663589477" lon="10.36797103676736"><ele>95.0</ele><time>2026-04-19T10:19:32.85Z</time></trkpt><trkpt lat="42.76655519594798" lon="10.368076033826846"><ele>95.0</ele><time>2026-04-19T10:19:33.85Z</time></trkpt><trkpt lat="42.76652011941" lon="10.368200036300365"><ele>95.0</ele><time>2026-04-19T10:19:34.85Z</time></trkpt><trkpt lat="42.7665011053905" lon="10.368338499638824"><ele>98.4</ele><time>2026-04-19T10:19:35.85Z</time></trkpt><trkpt lat="42.766490273642574" lon="10.36845339291598"><ele>101.8</ele><time>2026-04-19T10:19:36.85Z</time></trkpt><trkpt lat="42.766532522046326" lon="10.368573338131267"><ele>105.19999999999999</ele><time>2026-04-19T10:19:38.85Z</time></trkpt><trkpt lat="42.76660050490084" lon="10.36861947229734"><ele>108.6</ele><time>2026-04-19T10:19:39.85Z</time></trkpt><trkpt lat="42.76667635042354" lon="10.368654720140892"><ele>112.0</ele><time>2026-04-19T10:19:40.85Z</time></trkpt><trkpt lat="42.7667886451907" lon="10.368680384304366"><ele>111.6</ele><time>2026-04-19T10:19:41.85Z</time></trkpt><trkpt lat="42.76688248820794" lon="10.368753941569992"><ele>111.19999999999999</ele><time>2026-04-19T10:19:42.85Z</time></trkpt><trkpt lat="42.766976823108656" lon="10.368795929400408"><ele>110.8</ele><time>2026-04-19T10:19:43.85Z</time></trkpt><trkpt lat="42.76706132263041" lon="10.368838868624817"><ele>110.4</ele><time>2026-04-19T10:19:44.85Z</time></trkpt><trkpt lat="42.767151472230466" lon="10.368877682082527"><ele>110.0</ele><time>2026-04-19T10:19:45.85Z</time></trkpt><trkpt lat="42.76723421791173" lon="10.368913975444022"><ele>111.16666666666666</ele><time>2026-04-19T10:19:46.85Z</time></trkpt><trkpt lat="42.76732346267116" lon="10.368948780445804"><ele>112.33333333333333</ele><time>2026-04-19T10:19:47.85Z</time></trkpt><trkpt lat="42.76740774846" lon="10.36898866443213"><ele>113.5</ele><time>2026-04-19T10:19:48.85Z</time></trkpt><trkpt lat="42.767500132743066" lon="10.369034938642283"><ele>114.66666666666666</ele><time>2026-04-19T10:19:49.85Z</time></trkpt><trkpt lat="42.767578277385546" lon="10.369071766485963"><ele>115.83333333333333</ele><time>2026-04-19T10:19:50.85Z</time></trkpt><trkpt lat="42.76765407346123" lon="10.369114579392845"><ele>117.0</ele><time>2026-04-19T10:19:51.85Z</time></trkpt><trkpt lat="42.767710616691495" lon="10.369187193225358"><ele>117.0</ele><time>2026-04-19T10:19:52.85Z</time></trkpt><trkpt lat="42.767775033472205" lon="10.36925582153948"><ele>117.0</ele><time>2026-04-19T10:19:53.85Z</time></trkpt><trkpt lat="42.76783952145902" lon="10.369325990769498"><ele>117.0</ele><time>2026-04-19T10:19:54.85Z</time></trkpt><trkpt lat="42.76790679495184" lon="10.369393111149964"><ele>117.0</ele><time>2026-04-19T10:19:55.85Z</time></trkpt><trkpt lat="42.76796647401471" lon="10.369462437477031"><ele>117.0</ele><time>2026-04-19T10:19:56.85Z</time></trkpt><trkpt lat="42.76802421684308" lon="10.369543139760705"><ele>117.0</ele><time>2026-04-19T10:19:57.85Z</time></trkpt><trkpt lat="42.76807535137344" lon="10.369600095485968"><ele>117.0</ele><time>2026-04-19T10:19:58.85Z</time></trkpt><trkpt lat="42.76816237839071" lon="10.36967934179711"><ele>116.99999999999999</ele><time>2026-04-19T10:20:00.85Z</time></trkpt><trkpt lat="42.768214084474536" lon="10.369788675304644"><ele>116.99999999999999</ele><time>2026-04-19T10:20:02.85Z</time></trkpt><trkpt lat="42.768233780936654" lon="10.369952984746837"><ele>117.0</ele><time>2026-04-19T10:20:04.85Z</time></trkpt><trkpt lat="42.76830308621267" lon="10.370096220492236"><ele>117.0</ele><time>2026-04-19T10:20:06.85Z</time></trkpt><trkpt lat="42.76836008276401" lon="10.37014461956563"><ele>118.66666666666667</ele><time>2026-04-19T10:20:07.85Z</time></trkpt><trkpt lat="42.768435411102644" lon="10.370199511175489"><ele>120.33333333333334</ele><time>2026-04-19T10:20:09.85Z</time></trkpt><trkpt lat="42.7683771966572" lon="10.370318658201233"><ele>122.0</ele><time>2026-04-19T10:20:15.849Z</time></trkpt><trkpt lat="42.76831358324939" lon="10.370345958110157"><ele>123.66666666666667</ele><time>2026-04-19T10:20:16.849Z</time></trkpt><trkpt lat="42.76827209331687" lon="10.370428132155007"><ele>125.33333333333334</ele><time>2026-04-19T10:20:17.849Z</time></trkpt><trkpt lat="42.768211870026164" lon="10.37053158980918"><ele>127.0</ele><time>2026-04-19T10:20:18.849Z</time></trkpt><trkpt lat="42.768179141262976" lon="10.370650881254512"><ele>128.2</ele><time>2026-04-19T10:20:19.849Z</time></trkpt><trkpt lat="42.76816079274702" lon="10.370762647264318"><ele>129.39999999999998</ele><time>2026-04-19T10:20:20.851Z</time></trkpt><trkpt lat="42.76811908029676" lon="10.3708645300799"><ele>130.60000000000002</ele><time>2026-04-19T10:20:21.851Z</time></trkpt><trkpt lat="42.76809011217649" lon="10.370983882289666"><ele>131.8</ele><time>2026-04-19T10:20:22.851Z</time></trkpt><trkpt lat="42.76805841345694" lon="10.37112162571538"><ele>133.0</ele><time>2026-04-19T10:20:23.851Z</time></trkpt><trkpt lat="42.76802933438225" lon="10.371251767906672"><ele>132.6</ele><time>2026-04-19T10:20:24.851Z</time></trkpt><trkpt lat="42.7680084538942" lon="10.37137079458713"><ele>132.20000000000002</ele><time>2026-04-19T10:20:25.851Z</time></trkpt><trkpt lat="42.76798981735858" lon="10.371479437537014"><ele>131.8</ele><time>2026-04-19T10:20:26.851Z</time></trkpt><trkpt lat="42.76795877885361" lon="10.371567536264433"><ele>131.4</ele><time>2026-04-19T10:20:27.851Z</time></trkpt><trkpt lat="42.76801143332316" lon="10.37176042593218"><ele>131.0</ele><time>2026-04-19T10:20:29.851Z</time></trkpt><trkpt lat="42.76806168766335" lon="10.371875378065365"><ele>131.0</ele><time>2026-04-19T10:20:30.85Z</time></trkpt><trkpt lat="42.768134069891715" lon="10.371955601276031"><ele>131.0</ele><time>2026-04-19T10:20:31.85Z</time></trkpt><trkpt lat="42.76818316530464" lon="10.372046629553942"><ele>131.0</ele><time>2026-04-19T10:20:32.85Z</time></trkpt><trkpt lat="42.768242320734075" lon="10.372136621988476"><ele>131.0</ele><time>2026-04-19T10:20:33.85Z</time></trkpt><trkpt lat="42.768321134848" lon="10.372232208535785"><ele>131.0</ele><time>2026-04-19T10:20:34.85Z</time></trkpt><trkpt lat="42.768394108958624" lon="10.372323388048258"><ele>132.75</ele><time>2026-04-19T10:20:35.85Z</time></trkpt><trkpt lat="42.76846025415041" lon="10.372428539893727"><ele>134.5</ele><time>2026-04-19T10:20:36.85Z</time></trkpt><trkpt lat="42.76852535718265" lon="10.372557819234316"><ele>136.25</ele><time>2026-04-19T10:20:37.85Z</time></trkpt><trkpt lat="42.76858843958854" lon="10.372693897823966"><ele>138.0</ele><time>2026-04-19T10:20:38.85Z</time></trkpt><trkpt lat="42.76864937644628" lon="10.372835320419016"><ele>138.0</ele><time>2026-04-19T10:20:39.85Z</time></trkpt><trkpt lat="42.768701309440274" lon="10.372957824266988"><ele>138.0</ele><time>2026-04-19T10:20:40.85Z</time></trkpt><trkpt lat="42.768735186862855" lon="10.373083266943155"><ele>138.0</ele><time>2026-04-19T10:20:41.85Z</time></trkpt><trkpt lat="42.76879659492695" lon="10.373197582329338"><ele>138.0</ele><time>2026-04-19T10:20:42.85Z</time></trkpt><trkpt lat="42.76884190952961" lon="10.373315875830349"><ele>138.0</ele><time>2026-04-19T10:20:43.85Z</time></trkpt><trkpt lat="42.76888517537086" lon="10.37343391903803"><ele>135.20000000000002</ele><time>2026-04-19T10:20:44.85Z</time></trkpt><trkpt lat="42.768933504371496" lon="10.373557667222084"><ele>132.4</ele><time>2026-04-19T10:20:45.85Z</time></trkpt><trkpt lat="42.76898223000012" lon="10.373659101420719"><ele>129.60000000000002</ele><time>2026-04-19T10:20:46.85Z</time></trkpt><trkpt lat="42.76899925534157" lon="10.37375161491948"><ele>126.80000000000001</ele><time>2026-04-19T10:20:47.85Z</time></trkpt><trkpt lat="42.76898147966982" lon="10.373875544206387"><ele>124.0</ele><time>2026-04-19T10:20:48.85Z</time></trkpt><trkpt lat="42.76896747922232" lon="10.374003722872066"><ele>121.4</ele><time>2026-04-19T10:20:49.85Z</time></trkpt><trkpt lat="42.76898426319588" lon="10.374094587921123"><ele>118.80000000000001</ele><time>2026-04-19T10:20:50.85Z</time></trkpt><trkpt lat="42.769049611989864" lon="10.37418644941989"><ele>116.19999999999999</ele><time>2026-04-19T10:20:51.85Z</time></trkpt><trkpt lat="42.76912220382133" lon="10.374307829242738"><ele>113.6</ele><time>2026-04-19T10:20:52.85Z</time></trkpt><trkpt lat="42.769196508614094" lon="10.374442142876305"><ele>111.0</ele><time>2026-04-19T10:20:53.85Z</time></trkpt><trkpt lat="42.769277396892186" lon="10.37453936580989"><ele>111.0</ele><time>2026-04-19T10:20:54.85Z</time></trkpt><trkpt lat="42.76935050069295" lon="10.374641914803467"><ele>111.0</ele><time>2026-04-19T10:20:55.85Z</time></trkpt><trkpt lat="42.769433389273324" lon="10.374732120056828"><ele>111.0</ele><time>2026-04-19T10:20:56.85Z</time></trkpt><trkpt lat="42.769505638740846" lon="10.374820583124984"><ele>111.0</ele><time>2026-04-19T10:20:57.85Z</time></trkpt><trkpt lat="42.76955710262914" lon="10.374921032848864"><ele>111.0</ele><time>2026-04-19T10:20:58.85Z</time></trkpt><trkpt lat="42.76956398985071" lon="10.375036802591623"><ele>110.19999999999999</ele><time>2026-04-19T10:20:59.85Z</time></trkpt><trkpt lat="42.769583255626365" lon="10.375182337368324"><ele>109.39999999999999</ele><time>2026-04-19T10:21:00.85Z</time></trkpt><trkpt lat="42.76961932627023" lon="10.375330898511976"><ele>108.6</ele><time>2026-04-19T10:21:01.85Z</time></trkpt><trkpt lat="42.7696379815349" lon="10.375459381889035"><ele>107.8</ele><time>2026-04-19T10:21:02.85Z</time></trkpt><trkpt lat="42.7696638322374" lon="10.375582688629155"><ele>107.0</ele><time>2026-04-19T10:21:03.85Z</time></trkpt><trkpt lat="42.76966474403563" lon="10.375702116180992"><ele>106.99999999999999</ele><time>2026-04-19T10:21:04.85Z</time></trkpt><trkpt lat="42.769690338636" lon="10.37581133848803"><ele>107.0</ele><time>2026-04-19T10:21:05.85Z</time></trkpt><trkpt lat="42.76971805429733" lon="10.375922529299817"><ele>107.0</ele><time>2026-04-19T10:21:06.85Z</time></trkpt><trkpt lat="42.769806667714455" lon="10.375975569767697"><ele>107.0</ele><time>2026-04-19T10:21:07.85Z</time></trkpt><trkpt lat="42.769877540544286" lon="10.376054562307969"><ele>106.99999999999999</ele><time>2026-04-19T10:21:08.85Z</time></trkpt><trkpt lat="42.769916082560485" lon="10.376146375133164"><ele>107.0</ele><time>2026-04-19T10:21:09.85Z</time></trkpt><trkpt lat="42.769933693133" lon="10.37624236663128"><ele>106.19999999999999</ele><time>2026-04-19T10:21:10.85Z</time></trkpt><trkpt lat="42.76991277357082" lon="10.376384757800176"><ele>105.39999999999999</ele><time>2026-04-19T10:21:11.85Z</time></trkpt><trkpt lat="42.76989930331014" lon="10.376553885813294"><ele>104.6</ele><time>2026-04-19T10:21:12.85Z</time></trkpt><trkpt lat="42.769908046144245" lon="10.37667613037815"><ele>103.80000000000001</ele><time>2026-04-19T10:21:13.849Z</time></trkpt><trkpt lat="42.769931054621324" lon="10.376840299157212"><ele>103.0</ele><time>2026-04-19T10:21:15.849Z</time></trkpt><trkpt lat="42.7699039834603" lon="10.376920210537863"><ele>103.0</ele><time>2026-04-19T10:21:16.849Z</time></trkpt><trkpt lat="42.769883497956734" lon="10.377002653055879"><ele>103.0</ele><time>2026-04-19T10:21:17.849Z</time></trkpt><trkpt lat="42.76990871804397" lon="10.377188388054806"><ele>103.0</ele><time>2026-04-19T10:21:19.849Z</time></trkpt><trkpt lat="42.76992451318984" lon="10.377297355769528"><ele>103.0</ele><time>2026-04-19T10:21:20.849Z</time></trkpt><trkpt lat="42.7699337162987" lon="10.377408298675661"><ele>103.0</ele><time>2026-04-19T10:21:21.849Z</time></trkpt><trkpt lat="42.7699217310194" lon="10.377525723919511"><ele>102.4</ele><time>2026-04-19T10:21:22.849Z</time></trkpt><trkpt lat="42.769903584122815" lon="10.377648162720948"><ele>101.80000000000001</ele><time>2026-04-19T10:21:23.849Z</time></trkpt><trkpt lat="42.7698958204672" lon="10.37776157301229"><ele>101.2</ele><time>2026-04-19T10:21:24.849Z</time></trkpt><trkpt lat="42.769903943794255" lon="10.37789775661505"><ele>100.6</ele><time>2026-04-19T10:21:25.849Z</time></trkpt><trkpt lat="42.76996537620704" lon="10.378022078650782"><ele>100.0</ele><time>2026-04-19T10:21:26.849Z</time></trkpt><trkpt lat="42.770004412184626" lon="10.378134263467283"><ele>100.0</ele><time>2026-04-19T10:21:27.849Z</time></trkpt><trkpt lat="42.77003480438954" lon="10.378213019563427"><ele>100.0</ele><time>2026-04-19T10:21:28.849Z</time></trkpt><trkpt lat="42.76996841235515" lon="10.378330581849148"><ele>100.0</ele><time>2026-04-19T10:21:30.849Z</time></trkpt><trkpt lat="42.769846833599026" lon="10.378319316321598"><ele>100.0</ele><time>2026-04-19T10:21:32.849Z</time></trkpt><trkpt lat="42.769741169043996" lon="10.378378846180402"><ele>100.0</ele><time>2026-04-19T10:21:33.849Z</time></trkpt><trkpt lat="42.769642733673955" lon="10.37846804707847"><ele>100.0</ele><time>2026-04-19T10:21:34.849Z</time></trkpt><trkpt lat="42.76957392097986" lon="10.378574619256463"><ele>100.0</ele><time>2026-04-19T10:21:35.849Z</time></trkpt><trkpt lat="42.76952994300358" lon="10.378756485028067"><ele>100.0</ele><time>2026-04-19T10:21:36.849Z</time></trkpt><trkpt lat="42.769489939878355" lon="10.378967301757017"><ele>100.0</ele><time>2026-04-19T10:21:37.849Z</time></trkpt><trkpt lat="42.76946909055256" lon="10.37913065138086"><ele>101.0</ele><time>2026-04-19T10:21:38.849Z</time></trkpt><trkpt lat="42.769432359804036" lon="10.379267714344369"><ele>102.0</ele><time>2026-04-19T10:21:39.849Z</time></trkpt><trkpt lat="42.76938277119061" lon="10.379376586249832"><ele>103.0</ele><time>2026-04-19T10:21:40.849Z</time></trkpt><trkpt lat="42.76930915556316" lon="10.37947276760485"><ele>104.0</ele><time>2026-04-19T10:21:41.849Z</time></trkpt><trkpt lat="42.76924111949956" lon="10.379609793681155"><ele>105.0</ele><time>2026-04-19T10:21:42.849Z</time></trkpt><trkpt lat="42.76921026351662" lon="10.379767726042415"><ele>102.0</ele><time>2026-04-19T10:21:43.849Z</time></trkpt><trkpt lat="42.769135762078996" lon="10.379940034158038"><ele>99.0</ele><time>2026-04-19T10:21:44.849Z</time></trkpt><trkpt lat="42.76907256085817" lon="10.38009172117972"><ele>96.0</ele><time>2026-04-19T10:21:45.849Z</time></trkpt><trkpt lat="42.76901254943245" lon="10.380197333934799"><ele>93.0</ele><time>2026-04-19T10:21:46.849Z</time></trkpt><trkpt lat="42.7689330828378" lon="10.380275006401588"><ele>93.0</ele><time>2026-04-19T10:21:47.849Z</time></trkpt><trkpt lat="42.76883812290323" lon="10.38032230371312"><ele>93.0</ele><time>2026-04-19T10:21:48.849Z</time></trkpt><trkpt lat="42.76873859967778" lon="10.380384671772351"><ele>93.0</ele><time>2026-04-19T10:21:49.849Z</time></trkpt><trkpt lat="42.76864672760033" lon="10.380455792804698"><ele>93.0</ele><time>2026-04-19T10:21:50.849Z</time></trkpt><trkpt lat="42.76856684641807" lon="10.380540811150007"><ele>93.0</ele><time>2026-04-19T10:21:51.849Z</time></trkpt><trkpt lat="42.76848897031223" lon="10.380626709663991"><ele>93.2</ele><time>2026-04-19T10:21:52.849Z</time></trkpt><trkpt lat="42.76841953108073" lon="10.380706044347338"><ele>93.4</ele><time>2026-04-19T10:21:53.849Z</time></trkpt><trkpt lat="42.76835082494098" lon="10.380785977024878"><ele>93.60000000000001</ele><time>2026-04-19T10:21:54.849Z</time></trkpt><trkpt lat="42.76828093684766" lon="10.380896641485773"><ele>93.80000000000001</ele><time>2026-04-19T10:21:55.849Z</time></trkpt><trkpt lat="42.76819336207457" lon="10.380984413374572"><ele>94.0</ele><time>2026-04-19T10:21:56.849Z</time></trkpt><trkpt lat="42.768125432120144" lon="10.381068158839145"><ele>94.0</ele><time>2026-04-19T10:21:57.849Z</time></trkpt><trkpt lat="42.76806489529898" lon="10.381136833670485"><ele>94.0</ele><time>2026-04-19T10:21:58.849Z</time></trkpt><trkpt lat="42.76799760381925" lon="10.381215734396267"><ele>94.0</ele><time>2026-04-19T10:21:59.849Z</time></trkpt><trkpt lat="42.767925672569206" lon="10.38129809266922"><ele>94.0</ele><time>2026-04-19T10:22:00.849Z</time></trkpt><trkpt lat="42.76784441964245" lon="10.381387503924794"><ele>94.0</ele><time>2026-04-19T10:22:01.849Z</time></trkpt><trkpt lat="42.76775930533525" lon="10.381475219473925"><ele>94.2</ele><time>2026-04-19T10:22:02.849Z</time></trkpt><trkpt lat="42.767688582412006" lon="10.381552847962746"><ele>94.4</ele><time>2026-04-19T10:22:03.849Z</time></trkpt><trkpt lat="42.76762192026678" lon="10.381639708565825"><ele>94.6</ele><time>2026-04-19T10:22:04.848Z</time></trkpt><trkpt lat="42.767559138997775" lon="10.381744732322609"><ele>94.8</ele><time>2026-04-19T10:22:05.848Z</time></trkpt><trkpt lat="42.76750810539855" lon="10.381865411010947"><ele>95.0</ele><time>2026-04-19T10:22:06.848Z</time></trkpt><trkpt lat="42.767458621819706" lon="10.381984088773955"><ele>95.0</ele><time>2026-04-19T10:22:07.848Z</time></trkpt><trkpt lat="42.76740869722337" lon="10.382097027531108"><ele>95.0</ele><time>2026-04-19T10:22:08.848Z</time></trkpt><trkpt lat="42.76734288249837" lon="10.382196170688339"><ele>95.0</ele><time>2026-04-19T10:22:09.848Z</time></trkpt><trkpt lat="42.767287611558835" lon="10.382311480431573"><ele>95.0</ele><time>2026-04-19T10:22:10.848Z</time></trkpt><trkpt lat="42.76724486072437" lon="10.382446851971423"><ele>95.0</ele><time>2026-04-19T10:22:11.848Z</time></trkpt><trkpt lat="42.76718350320749" lon="10.382558908505747"><ele>94.0</ele><time>2026-04-19T10:22:12.848Z</time></trkpt><trkpt lat="42.767125625599924" lon="10.382670644222292"><ele>93.0</ele><time>2026-04-19T10:22:13.848Z</time></trkpt><trkpt lat="42.76707153691444" lon="10.382789532640903"><ele>92.0</ele><time>2026-04-19T10:22:14.849Z</time></trkpt><trkpt lat="42.76703726758984" lon="10.382915871225"><ele>91.0</ele><time>2026-04-19T10:22:15.85Z</time></trkpt><trkpt lat="42.76699296454104" lon="10.383041224421333"><ele>90.0</ele><time>2026-04-19T10:22:16.852Z</time></trkpt><trkpt lat="42.76695957242234" lon="10.383163009748825"><ele>88.4</ele><time>2026-04-19T10:22:17.853Z</time></trkpt><trkpt lat="42.766928037263334" lon="10.383300063528965"><ele>86.8</ele><time>2026-04-19T10:22:18.855Z</time></trkpt><trkpt lat="42.76691984521826" lon="10.383427240527078"><ele>85.19999999999999</ele><time>2026-04-19T10:22:19.856Z</time></trkpt><trkpt lat="42.76689574588739" lon="10.383553000224374"><ele>83.6</ele><time>2026-04-19T10:22:20.857Z</time></trkpt><trkpt lat="42.76688371951945" lon="10.383687090050707"><ele>82.0</ele><time>2026-04-19T10:22:21.858Z</time></trkpt><trkpt lat="42.76689475592925" lon="10.383834615062607"><ele>81.0</ele><time>2026-04-19T10:22:22.859Z</time></trkpt><trkpt lat="42.76689183237993" lon="10.383973128244543"><ele>80.0</ele><time>2026-04-19T10:22:23.86Z</time></trkpt><trkpt lat="42.76688927887259" lon="10.384112639923268"><ele>79.0</ele><time>2026-04-19T10:22:24.861Z</time></trkpt><trkpt lat="42.76688454220679" lon="10.384253961420606"><ele>78.0</ele><time>2026-04-19T10:22:25.861Z</time></trkpt><trkpt lat="42.76684239967136" lon="10.384379782461167"><ele>77.0</ele><time>2026-04-19T10:22:26.864Z</time></trkpt><trkpt lat="42.766806026087544" lon="10.384501688648275"><ele>78.16666666666667</ele><time>2026-04-19T10:22:27.864Z</time></trkpt><trkpt lat="42.766767083528286" lon="10.384614787462457"><ele>79.33333333333334</ele><time>2026-04-19T10:22:28.865Z</time></trkpt><trkpt lat="42.76673080157209" lon="10.384704155693752"><ele>80.5</ele><time>2026-04-19T10:22:29.866Z</time></trkpt><trkpt lat="42.76668845136731" lon="10.38478561554544"><ele>81.66666666666667</ele><time>2026-04-19T10:22:30.866Z</time></trkpt><trkpt lat="42.766596950231666" lon="10.384880500736623"><ele>82.83333333333333</ele><time>2026-04-19T10:22:32.867Z</time></trkpt><trkpt lat="42.766540253645594" lon="10.384931091474241"><ele>84.0</ele><time>2026-04-19T10:22:33.868Z</time></trkpt><trkpt lat="42.76647381819699" lon="10.38496698267465"><ele>84.0</ele><time>2026-04-19T10:22:34.868Z</time></trkpt><trkpt lat="42.76640540051143" lon="10.385003343851334"><ele>84.0</ele><time>2026-04-19T10:22:35.868Z</time></trkpt><trkpt lat="42.766330145209906" lon="10.385012288866108"><ele>84.0</ele><time>2026-04-19T10:22:37.869Z</time></trkpt><trkpt lat="42.766211108132964" lon="10.384952531268864"><ele>84.0</ele><time>2026-04-19T10:22:39.87Z</time></trkpt><trkpt lat="42.76614283906645" lon="10.384906034924134"><ele>84.0</ele><time>2026-04-19T10:22:40.87Z</time></trkpt><trkpt lat="42.76606097832702" lon="10.384862473176975"><ele>84.0</ele><time>2026-04-19T10:22:41.87Z</time></trkpt><trkpt lat="42.76596137943463" lon="10.384858175388118"><ele>84.0</ele><time>2026-04-19T10:22:42.87Z</time></trkpt><trkpt lat="42.76583937330022" lon="10.38491617003749"><ele>84.0</ele><time>2026-04-19T10:22:43.871Z</time></trkpt><trkpt lat="42.765723723018795" lon="10.385005443927605"><ele>84.0</ele><time>2026-04-19T10:22:44.871Z</time></trkpt><trkpt lat="42.76562283975508" lon="10.385115408721074"><ele>84.0</ele><time>2026-04-19T10:22:45.871Z</time></trkpt><trkpt lat="42.76554464319823" lon="10.385236400916012"><ele>84.0</ele><time>2026-04-19T10:22:46.872Z</time></trkpt><trkpt lat="42.76547141055444" lon="10.385379562371037"><ele>84.0</ele><time>2026-04-19T10:22:47.872Z</time></trkpt><trkpt lat="42.76541331864515" lon="10.385511950501991"><ele>84.0</ele><time>2026-04-19T10:22:48.872Z</time></trkpt><trkpt lat="42.76536699653131" lon="10.385625968614411"><ele>84.0</ele><time>2026-04-19T10:22:49.872Z</time></trkpt><trkpt lat="42.76531952416157" lon="10.385739148533107"><ele>84.0</ele><time>2026-04-19T10:22:50.872Z</time></trkpt><trkpt lat="42.76527138879847" lon="10.385846281529686"><ele>84.0</ele><time>2026-04-19T10:22:51.872Z</time></trkpt><trkpt lat="42.76522770968218" lon="10.385933682770931"><ele>84.0</ele><time>2026-04-19T10:22:52.873Z</time></trkpt><trkpt lat="42.765185456523845" lon="10.386003983801459"><ele>84.0</ele><time>2026-04-19T10:22:53.873Z</time></trkpt><trkpt lat="42.76513050668431" lon="10.386061968077444"><ele>84.0</ele><time>2026-04-19T10:22:54.873Z</time></trkpt><trkpt lat="42.76506390240697" lon="10.386129807576147"><ele>84.0</ele><time>2026-04-19T10:22:55.873Z</time></trkpt><trkpt lat="42.76498374510121" lon="10.386182580829097"><ele>84.0</ele><time>2026-04-19T10:22:56.873Z</time></trkpt><trkpt lat="42.764893458599076" lon="10.386240891386494"><ele>84.2</ele><time>2026-04-19T10:22:57.873Z</time></trkpt><trkpt lat="42.76480160781487" lon="10.386294026367697"><ele>84.4</ele><time>2026-04-19T10:22:58.873Z</time></trkpt><trkpt lat="42.76470908774273" lon="10.386343873995623"><ele>84.6</ele><time>2026-04-19T10:22:59.873Z</time></trkpt><trkpt lat="42.76462182584083" lon="10.386417505567458"><ele>84.8</ele><time>2026-04-19T10:23:00.873Z</time></trkpt><trkpt lat="42.764555293379054" lon="10.386516480492277"><ele>85.0</ele><time>2026-04-19T10:23:01.873Z</time></trkpt><trkpt lat="42.764483210033376" lon="10.386600540190976"><ele>84.4</ele><time>2026-04-19T10:23:02.873Z</time></trkpt><trkpt lat="42.764426277774355" lon="10.386707634869689"><ele>83.8</ele><time>2026-04-19T10:23:03.873Z</time></trkpt><trkpt lat="42.764388209155356" lon="10.38683055903122"><ele>83.19999999999999</ele><time>2026-04-19T10:23:04.874Z</time></trkpt><trkpt lat="42.76434722194957" lon="10.3869752887439"><ele>82.6</ele><time>2026-04-19T10:23:05.874Z</time></trkpt><trkpt lat="42.76431557955977" lon="10.387125278624874"><ele>82.0</ele><time>2026-04-19T10:23:06.874Z</time></trkpt><trkpt lat="42.76428839909251" lon="10.387265319509847"><ele>80.19999999999999</ele><time>2026-04-19T10:23:07.874Z</time></trkpt><trkpt lat="42.76424063431652" lon="10.387385264033389"><ele>78.39999999999999</ele><time>2026-04-19T10:23:08.874Z</time></trkpt><trkpt lat="42.76419896206472" lon="10.387489885043797"><ele>76.6</ele><time>2026-04-19T10:23:09.874Z</time></trkpt><trkpt lat="42.764151748035054" lon="10.387605794457794"><ele>74.8</ele><time>2026-04-19T10:23:10.874Z</time></trkpt><trkpt lat="42.76409387292645" lon="10.387738657803302"><ele>73.0</ele><time>2026-04-19T10:23:11.874Z</time></trkpt><trkpt lat="42.764049577889715" lon="10.387864357765125"><ele>73.0</ele><time>2026-04-19T10:23:12.874Z</time></trkpt><trkpt lat="42.76400091058616" lon="10.387978910943948"><ele>73.0</ele><time>2026-04-19T10:23:13.874Z</time></trkpt><trkpt lat="42.76395535592248" lon="10.388085668393593"><ele>73.0</ele><time>2026-04-19T10:23:14.874Z</time></trkpt><trkpt lat="42.76393361773882" lon="10.388192622743839"><ele>73.0</ele><time>2026-04-19T10:23:15.874Z</time></trkpt><trkpt lat="42.76392924781869" lon="10.38832487229978"><ele>73.0</ele><time>2026-04-19T10:23:16.874Z</time></trkpt><trkpt lat="42.763939174131146" lon="10.388474706883404"><ele>73.8</ele><time>2026-04-19T10:23:17.874Z</time></trkpt><trkpt lat="42.76395591922345" lon="10.38862720042638"><ele>74.6</ele><time>2026-04-19T10:23:18.874Z</time></trkpt><trkpt lat="42.763957550156555" lon="10.388762276029373"><ele>75.4</ele><time>2026-04-19T10:23:19.874Z</time></trkpt><trkpt lat="42.76396003855381" lon="10.388903810335739"><ele>76.2</ele><time>2026-04-19T10:23:20.874Z</time></trkpt><trkpt lat="42.76395192240918" lon="10.389043845594923"><ele>77.0</ele><time>2026-04-19T10:23:21.874Z</time></trkpt><trkpt lat="42.763928182761276" lon="10.38918285269392"><ele>77.0</ele><time>2026-04-19T10:23:22.874Z</time></trkpt><trkpt lat="42.76387473201701" lon="10.389311403183056"><ele>77.0</ele><time>2026-04-19T10:23:23.874Z</time></trkpt><trkpt lat="42.76381024931888" lon="10.389425952571443"><ele>77.0</ele><time>2026-04-19T10:23:24.874Z</time></trkpt><trkpt lat="42.763767135062494" lon="10.389543405257282"><ele>77.0</ele><time>2026-04-19T10:23:25.874Z</time></trkpt><trkpt lat="42.763741823806726" lon="10.389667066676653"><ele>77.0</ele><time>2026-04-19T10:23:26.874Z</time></trkpt><trkpt lat="42.76369839269047" lon="10.38979664550033"><ele>75.8</ele><time>2026-04-19T10:23:27.874Z</time></trkpt><trkpt lat="42.76367171355956" lon="10.389931073450516"><ele>74.6</ele><time>2026-04-19T10:23:28.874Z</time></trkpt><trkpt lat="42.76366829847008" lon="10.390071914403935"><ele>73.39999999999999</ele><time>2026-04-19T10:23:29.874Z</time></trkpt><trkpt lat="42.76368286282844" lon="10.39020395699571"><ele>72.2</ele><time>2026-04-19T10:23:30.874Z</time></trkpt><trkpt lat="42.76372292975767" lon="10.39033362257965"><ele>71.0</ele><time>2026-04-19T10:23:31.874Z</time></trkpt><trkpt lat="42.76375938897551" lon="10.390480910778482"><ele>70.0</ele><time>2026-04-19T10:23:32.874Z</time></trkpt><trkpt lat="42.76378417658838" lon="10.390623360788165"><ele>69.0</ele><time>2026-04-19T10:23:33.874Z</time></trkpt><trkpt lat="42.763805898590434" lon="10.390750736791382"><ele>68.0</ele><time>2026-04-19T10:23:34.874Z</time></trkpt><trkpt lat="42.76383401442642" lon="10.390872446454088"><ele>67.0</ele><time>2026-04-19T10:23:35.874Z</time></trkpt><trkpt lat="42.76386150824939" lon="10.391007363054477"><ele>66.0</ele><time>2026-04-19T10:23:36.874Z</time></trkpt><trkpt lat="42.763897176426276" lon="10.391153068575186"><ele>66.0</ele><time>2026-04-19T10:23:37.874Z</time></trkpt><trkpt lat="42.763928634688064" lon="10.391305614162974"><ele>66.0</ele><time>2026-04-19T10:23:38.874Z</time></trkpt><trkpt lat="42.763961163526034" lon="10.391459161888184"><ele>66.0</ele><time>2026-04-19T10:23:39.874Z</time></trkpt><trkpt lat="42.76399779505795" lon="10.391601250361957"><ele>66.0</ele><time>2026-04-19T10:23:40.874Z</time></trkpt><trkpt lat="42.764040664247325" lon="10.391744011106615"><ele>64.25</ele><time>2026-04-19T10:23:41.874Z</time></trkpt><trkpt lat="42.76403373202996" lon="10.391911466727604"><ele>62.5</ele><time>2026-04-19T10:23:42.874Z</time></trkpt><trkpt lat="42.76403249319986" lon="10.392073917618697"><ele>60.75</ele><time>2026-04-19T10:23:43.874Z</time></trkpt><trkpt lat="42.76402336509374" lon="10.39222332831172"><ele>59.0</ele><time>2026-04-19T10:23:44.874Z</time></trkpt><trkpt lat="42.76400503990516" lon="10.392386024119595"><ele>56.5</ele><time>2026-04-19T10:23:45.874Z</time></trkpt><trkpt lat="42.76398136102493" lon="10.392556486752493"><ele>54.0</ele><time>2026-04-19T10:23:46.874Z</time></trkpt><trkpt lat="42.76394926769969" lon="10.392716913381294"><ele>51.5</ele><time>2026-04-19T10:23:47.874Z</time></trkpt><trkpt lat="42.76391200190577" lon="10.39287577422358"><ele>49.0</ele><time>2026-04-19T10:23:48.874Z</time></trkpt><trkpt lat="42.76387774016627" lon="10.393039385772466"><ele>47.0</ele><time>2026-04-19T10:23:49.874Z</time></trkpt><trkpt lat="42.76385300832641" lon="10.393187598993745"><ele>45.0</ele><time>2026-04-19T10:23:50.874Z</time></trkpt><trkpt lat="42.7638302377343" lon="10.393324057446986"><ele>43.0</ele><time>2026-04-19T10:23:51.874Z</time></trkpt><trkpt lat="42.7638167050944" lon="10.393440050018325"><ele>41.0</ele><time>2026-04-19T10:23:52.874Z</time></trkpt><trkpt lat="42.763797638210946" lon="10.393533778273548"><ele>39.0</ele><time>2026-04-19T10:23:53.874Z</time></trkpt><trkpt lat="42.76370598802014" lon="10.393623362051716"><ele>39.0</ele><time>2026-04-19T10:23:55.874Z</time></trkpt><trkpt lat="42.76365043949537" lon="10.393545512959335"><ele>39.0</ele><time>2026-04-19T10:23:56.874Z</time></trkpt><trkpt lat="42.76363093073468" lon="10.393337944948252"><ele>39.0</ele><time>2026-04-19T10:23:59.874Z</time></trkpt><trkpt lat="42.763605199865246" lon="10.3932498179291"><ele>39.0</ele><time>2026-04-19T10:24:02.874Z</time></trkpt><trkpt lat="42.76346000953969" lon="10.393303904932226"><ele>37.2</ele><time>2026-04-19T10:24:05.874Z</time></trkpt><trkpt lat="42.7634179884096" lon="10.39340893208306"><ele>35.4</ele><time>2026-04-19T10:24:06.874Z</time></trkpt><trkpt lat="42.76338554457058" lon="10.393533101880669"><ele>33.6</ele><time>2026-04-19T10:24:07.874Z</time></trkpt><trkpt lat="42.76336886671511" lon="10.393620213137785"><ele>31.8</ele><time>2026-04-19T10:24:08.874Z</time></trkpt><trkpt lat="42.76334083646461" lon="10.393796139751824"><ele>30.0</ele><time>2026-04-19T10:24:10.874Z</time></trkpt><trkpt lat="42.76332029631058" lon="10.393920275092764"><ele>29.4</ele><time>2026-04-19T10:24:11.874Z</time></trkpt><trkpt lat="42.763301407674945" lon="10.394043638988393"><ele>28.8</ele><time>2026-04-19T10:24:12.873Z</time></trkpt><trkpt lat="42.76326467098098" lon="10.394159594806315"><ele>28.200000000000003</ele><time>2026-04-19T10:24:13.873Z</time></trkpt><trkpt lat="42.76322266098855" lon="10.394284539066224"><ele>27.6</ele><time>2026-04-19T10:24:14.873Z</time></trkpt><trkpt lat="42.763230583827024" lon="10.394392885205807"><ele>27.0</ele><time>2026-04-19T10:24:15.873Z</time></trkpt><trkpt lat="42.76321472411051" lon="10.394531216514245"><ele>27.0</ele><time>2026-04-19T10:24:17.873Z</time></trkpt><trkpt lat="42.76313463813746" lon="10.394522814318478"><ele>27.000000000000004</ele><time>2026-04-19T10:24:19.873Z</time></trkpt><trkpt lat="42.76308625065256" lon="10.394454837734738"><ele>27.000000000000004</ele><time>2026-04-19T10:24:23.873Z</time></trkpt><trkpt lat="42.763094840328556" lon="10.394264248245262"><ele>27.0</ele><time>2026-04-19T10:24:24.873Z</time></trkpt><trkpt lat="42.763063209053726" lon="10.39415028188253"><ele>27.0</ele><time>2026-04-19T10:24:26.873Z</time></trkpt><trkpt lat="42.7630428919201" lon="10.39400233843499"><ele>27.0</ele><time>2026-04-19T10:24:28.873Z</time></trkpt><trkpt lat="42.763017939720356" lon="10.393857592156433"><ele>27.0</ele><time>2026-04-19T10:24:30.873Z</time></trkpt><trkpt lat="42.76301052932971" lon="10.393737724082088"><ele>27.0</ele><time>2026-04-19T10:24:32.874Z</time></trkpt><trkpt lat="42.763008129893755" lon="10.393650167568303"><ele>27.0</ele><time>2026-04-19T10:24:35.874Z</time></trkpt><trkpt lat="42.762944030068184" lon="10.393603304218104"><ele>27.0</ele><time>2026-04-19T10:24:41.874Z</time></trkpt><trkpt lat="42.762915693878384" lon="10.393735178985153"><ele>27.0</ele><time>2026-04-19T10:24:43.875Z</time></trkpt><trkpt lat="42.762915414070044" lon="10.393917674906142"><ele>27.0</ele><time>2026-04-19T10:24:45.874Z</time></trkpt><trkpt lat="42.76291270166422" lon="10.394029551183685"><ele>27.000000000000004</ele><time>2026-04-19T10:24:46.874Z</time></trkpt><trkpt lat="42.76290103022248" lon="10.394147556567836"><ele>27.000000000000004</ele><time>2026-04-19T10:24:47.874Z</time></trkpt><trkpt lat="42.76285887606116" lon="10.394263098555315"><ele>27.0</ele><time>2026-04-19T10:24:48.874Z</time></trkpt><trkpt lat="42.762780279622994" lon="10.39435053541938"><ele>27.0</ele><time>2026-04-19T10:24:49.874Z</time></trkpt><trkpt lat="42.762720273330515" lon="10.39445456927614"><ele>24.666666666666668</ele><time>2026-04-19T10:24:50.874Z</time></trkpt><trkpt lat="42.762668327286455" lon="10.39455521622929"><ele>22.333333333333332</ele><time>2026-04-19T10:24:51.874Z</time></trkpt><trkpt lat="42.76262669174838" lon="10.394655065395185"><ele>20.0</ele><time>2026-04-19T10:24:52.874Z</time></trkpt><trkpt lat="42.76259918617504" lon="10.394757808664172"><ele>17.666666666666664</ele><time>2026-04-19T10:24:53.874Z</time></trkpt><trkpt lat="42.76260234863308" lon="10.394869980547332"><ele>15.333333333333332</ele><time>2026-04-19T10:24:54.874Z</time></trkpt><trkpt lat="42.76267035141302" lon="10.39497393638614"><ele>13.0</ele><time>2026-04-19T10:24:55.874Z</time></trkpt><trkpt lat="42.76274519148925" lon="10.39503594432221"><ele>13.0</ele><time>2026-04-19T10:24:56.874Z</time></trkpt><trkpt lat="42.76282815112293" lon="10.39506677197929"><ele>13.0</ele><time>2026-04-19T10:24:57.874Z</time></trkpt><trkpt lat="42.762926503920035" lon="10.395068852382874"><ele>13.0</ele><time>2026-04-19T10:24:58.874Z</time></trkpt><trkpt lat="42.76301839441382" lon="10.395028692010222"><ele>13.0</ele><time>2026-04-19T10:24:59.874Z</time></trkpt><trkpt lat="42.763112124988815" lon="10.39498124621813"><ele>13.0</ele><time>2026-04-19T10:25:00.874Z</time></trkpt><trkpt lat="42.763203388382856" lon="10.394953370366714"><ele>13.0</ele><time>2026-04-19T10:25:01.874Z</time></trkpt><trkpt lat="42.76330073402759" lon="10.394946604198818"><ele>13.0</ele><time>2026-04-19T10:25:02.874Z</time></trkpt><trkpt lat="42.76338862906648" lon="10.394932700910106"><ele>13.0</ele><time>2026-04-19T10:25:03.874Z</time></trkpt><trkpt lat="42.763463893074224" lon="10.394911490293731"><ele>13.0</ele><time>2026-04-19T10:25:04.874Z</time></trkpt><trkpt lat="42.76356067885266" lon="10.395049241436478"><ele>13.0</ele><time>2026-04-19T10:25:05.874Z</time></trkpt><trkpt lat="42.763636580213586" lon="10.395088531828547"><ele>12.999999999999998</ele><time>2026-04-19T10:25:06.874Z</time></trkpt><trkpt lat="42.76371007909705" lon="10.395119337765225"><ele>13.0</ele><time>2026-04-19T10:25:07.874Z</time></trkpt><trkpt lat="42.763798027611294" lon="10.39512868329368"><ele>13.0</ele><time>2026-04-19T10:25:08.874Z</time></trkpt><trkpt lat="42.76387894800844" lon="10.395120634903371"><ele>13.0</ele><time>2026-04-19T10:25:09.874Z</time></trkpt><trkpt lat="42.763957739586985" lon="10.395112327112516"><ele>12.999999999999998</ele><time>2026-04-19T10:25:10.874Z</time></trkpt><trkpt lat="42.764040302336255" lon="10.395110104642463"><ele>13.0</ele><time>2026-04-19T10:25:11.874Z</time></trkpt><trkpt lat="42.764112804891894" lon="10.395109746195592"><ele>12.999999999999998</ele><time>2026-04-19T10:25:12.874Z</time></trkpt><trkpt lat="42.76418450324291" lon="10.395143377764533"><ele>13.0</ele><time>2026-04-19T10:25:13.874Z</time></trkpt><trkpt lat="42.7642403313103" lon="10.395202910039629"><ele>13.0</ele><time>2026-04-19T10:25:14.874Z</time></trkpt><trkpt lat="42.76430088034206" lon="10.39525906724493"><ele>13.0</ele><time>2026-04-19T10:25:15.874Z</time></trkpt><trkpt lat="42.76436486883689" lon="10.395318742577693"><ele>12.999999999999998</ele><time>2026-04-19T10:25:16.874Z</time></trkpt><trkpt lat="42.764433916905894" lon="10.39538116276488"><ele>13.0</ele><time>2026-04-19T10:25:17.874Z</time></trkpt><trkpt lat="42.76450991689163" lon="10.395458847069134"><ele>11.166666666666666</ele><time>2026-04-19T10:25:18.874Z</time></trkpt><trkpt lat="42.76458838535583" lon="10.395536911602143"><ele>9.333333333333332</ele><time>2026-04-19T10:25:19.874Z</time></trkpt><trkpt lat="42.764663509987955" lon="10.395606381282317"><ele>7.5</ele><time>2026-04-19T10:25:20.873Z</time></trkpt><trkpt lat="42.76472494827296" lon="10.39568023245979"><ele>5.666666666666666</ele><time>2026-04-19T10:25:21.873Z</time></trkpt><trkpt lat="42.76478400426844" lon="10.395758217299703"><ele>3.833333333333333</ele><time>2026-04-19T10:25:22.873Z</time></trkpt><trkpt lat="42.764835577748705" lon="10.395833409400018"><ele>2.0</ele><time>2026-04-19T10:25:23.873Z</time></trkpt><trkpt lat="42.76488565710141" lon="10.39593736442313"><ele>2.0</ele><time>2026-04-19T10:25:25.873Z</time></trkpt><trkpt lat="42.764970027873076" lon="10.39583137878588"><ele>2.0</ele><time>2026-04-19T10:25:26.873Z</time></trkpt><trkpt lat="42.76503865514561" lon="10.395754561615421"><ele>2.0</ele><time>2026-04-19T10:25:28.873Z</time></trkpt><trkpt lat="42.7651399987716" lon="10.395644155558738"><ele>2.0</ele><time>2026-04-19T10:25:30.873Z</time></trkpt><trkpt lat="42.76522389367515" lon="10.395582566763498"><ele>2.0</ele><time>2026-04-19T10:25:32.873Z</time></trkpt><trkpt lat="42.765325996792875" lon="10.395538736233227"><ele>2.333333333333333</ele><time>2026-04-19T10:25:34.873Z</time></trkpt><trkpt lat="42.76544442259818" lon="10.395520704622001"><ele>2.6666666666666665</ele><time>2026-04-19T10:25:36.873Z</time></trkpt><trkpt lat="42.76551536420907" lon="10.395473844803833"><ele>3.0</ele><time>2026-04-19T10:25:37.873Z</time></trkpt><trkpt lat="42.76559481331073" lon="10.395433673759117"><ele>3.333333333333333</ele><time>2026-04-19T10:25:38.873Z</time></trkpt><trkpt lat="42.765665614095504" lon="10.3954021658793"><ele>3.6666666666666665</ele><time>2026-04-19T10:25:39.873Z</time></trkpt><trkpt lat="42.765734312224566" lon="10.395372024569856"><ele>4.0</ele><time>2026-04-19T10:25:40.873Z</time></trkpt><trkpt lat="42.765794384512425" lon="10.395340158548096"><ele>4.0</ele><time>2026-04-19T10:25:41.873Z</time></trkpt><trkpt lat="42.7658847722883" lon="10.39530692618521"><ele>4.0</ele><time>2026-04-19T10:25:43.873Z</time></trkpt><trkpt lat="42.766000749461675" lon="10.395248259362493"><ele>4.0</ele><time>2026-04-19T10:25:45.873Z</time></trkpt><trkpt lat="42.766066871481264" lon="10.395228155738007"><ele>4.0</ele><time>2026-04-19T10:25:46.873Z</time></trkpt><trkpt lat="42.766144437810915" lon="10.395204067336135"><ele>4.0</ele><time>2026-04-19T10:25:47.873Z</time></trkpt><trkpt lat="42.766227476657505" lon="10.395161321320225"><ele>3.8000000000000003</ele><time>2026-04-19T10:25:48.873Z</time></trkpt><trkpt lat="42.76631966517596" lon="10.395114631306006"><ele>3.6000000000000005</ele><time>2026-04-19T10:25:49.873Z</time></trkpt><trkpt lat="42.76640220360149" lon="10.395080698230421"><ele>3.4</ele><time>2026-04-19T10:25:50.873Z</time></trkpt><trkpt lat="42.76649415939514" lon="10.395049747261297"><ele>3.2</ele><time>2026-04-19T10:25:51.873Z</time></trkpt><trkpt lat="42.766582244411715" lon="10.395014935305548"><ele>3.0</ele><time>2026-04-19T10:25:52.873Z</time></trkpt><trkpt lat="42.76666304909006" lon="10.394983056922186"><ele>3.0</ele><time>2026-04-19T10:25:53.873Z</time></trkpt><trkpt lat="42.76674091650358" lon="10.394946762338492"><ele>3.0</ele><time>2026-04-19T10:25:54.873Z</time></trkpt><trkpt lat="42.76681339736458" lon="10.394917306428033"><ele>3.0</ele><time>2026-04-19T10:25:55.873Z</time></trkpt><trkpt lat="42.766885859150065" lon="10.394888775938508"><ele>3.0</ele><time>2026-04-19T10:25:56.873Z</time></trkpt><trkpt lat="42.76695718013251" lon="10.394848730603032"><ele>3.0</ele><time>2026-04-19T10:25:57.873Z</time></trkpt><trkpt lat="42.76701771009632" lon="10.394820586112877"><ele>3.0</ele><time>2026-04-19T10:25:58.873Z</time></trkpt><trkpt lat="42.767115379461295" lon="10.394784534113374"><ele>3.2</ele><time>2026-04-19T10:26:00.873Z</time></trkpt><trkpt lat="42.767219414628535" lon="10.39474274355177"><ele>3.4</ele><time>2026-04-19T10:26:02.873Z</time></trkpt><trkpt lat="42.76728153535998" lon="10.394719508674902"><ele>3.6000000000000005</ele><time>2026-04-19T10:26:03.873Z</time></trkpt><trkpt lat="42.76738949103063" lon="10.394674919712692"><ele>3.8000000000000003</ele><time>2026-04-19T10:26:05.873Z</time></trkpt><trkpt lat="42.767490723064576" lon="10.394658796752395"><ele>4.0</ele><time>2026-04-19T10:26:07.873Z</time></trkpt><trkpt lat="42.76756738917555" lon="10.394653998246662"><ele>4.0</ele><time>2026-04-19T10:26:08.873Z</time></trkpt><trkpt lat="42.76765186427781" lon="10.394682057315798"><ele>4.0</ele><time>2026-04-19T10:26:09.873Z</time></trkpt><trkpt lat="42.76775100316898" lon="10.394756727232208"><ele>4.0</ele><time>2026-04-19T10:26:10.873Z</time></trkpt><trkpt lat="42.76783553201633" lon="10.3948471556989"><ele>4.0</ele><time>2026-04-19T10:26:11.873Z</time></trkpt><trkpt lat="42.76792887558035" lon="10.39493610349118"><ele>4.0</ele><time>2026-04-19T10:26:12.873Z</time></trkpt><trkpt lat="42.768018984025154" lon="10.395040420072988"><ele>4.75</ele><time>2026-04-19T10:26:13.873Z</time></trkpt><trkpt lat="42.76811866997431" lon="10.395144264532068"><ele>5.5</ele><time>2026-04-19T10:26:14.873Z</time></trkpt><trkpt lat="42.76821458575487" lon="10.395252033503628"><ele>6.25</ele><time>2026-04-19T10:26:15.873Z</time></trkpt><trkpt lat="42.7683135120526" lon="10.395358317809352"><ele>7.0</ele><time>2026-04-19T10:26:16.873Z</time></trkpt><trkpt lat="42.76841072105543" lon="10.395460497729594"><ele>6.5</ele><time>2026-04-19T10:26:17.873Z</time></trkpt><trkpt lat="42.768503999424276" lon="10.395555545914753"><ele>6.0</ele><time>2026-04-19T10:26:18.873Z</time></trkpt><trkpt lat="42.76860034776337" lon="10.39565102844941"><ele>5.5</ele><time>2026-04-19T10:26:19.873Z</time></trkpt><trkpt lat="42.76869210016451" lon="10.39574729474231"><ele>5.0</ele><time>2026-04-19T10:26:20.873Z</time></trkpt><trkpt lat="42.76878465457075" lon="10.395843997064729"><ele>6.25</ele><time>2026-04-19T10:26:21.873Z</time></trkpt><trkpt lat="42.76887656348716" lon="10.395936923908156"><ele>7.5</ele><time>2026-04-19T10:26:22.873Z</time></trkpt><trkpt lat="42.76896123833906" lon="10.396037488569407"><ele>8.75</ele><time>2026-04-19T10:26:23.873Z</time></trkpt><trkpt lat="42.769059228126494" lon="10.3961379256441"><ele>10.0</ele><time>2026-04-19T10:26:24.873Z</time></trkpt><trkpt lat="42.76917422442974" lon="10.396241171332507"><ele>9.5</ele><time>2026-04-19T10:26:25.873Z</time></trkpt><trkpt lat="42.76928755512236" lon="10.39635250415642"><ele>9.0</ele><time>2026-04-19T10:26:26.873Z</time></trkpt><trkpt lat="42.76939260592374" lon="10.396466042177524"><ele>8.5</ele><time>2026-04-19T10:26:27.873Z</time></trkpt><trkpt lat="42.76949949161021" lon="10.39656720381065"><ele>8.0</ele><time>2026-04-19T10:26:28.872Z</time></trkpt><trkpt lat="42.76960757612435" lon="10.396680617932631"><ele>9.0</ele><time>2026-04-19T10:26:29.872Z</time></trkpt><trkpt lat="42.76969495968137" lon="10.39678280928258"><ele>10.0</ele><time>2026-04-19T10:26:30.872Z</time></trkpt><trkpt lat="42.76977296896136" lon="10.396868026502165"><ele>11.0</ele><time>2026-04-19T10:26:31.872Z</time></trkpt><trkpt lat="42.76984131427162" lon="10.396955400169682"><ele>12.0</ele><time>2026-04-19T10:26:32.872Z</time></trkpt><trkpt lat="42.76990878662483" lon="10.397053312154924"><ele>13.0</ele><time>2026-04-19T10:26:33.872Z</time></trkpt><trkpt lat="42.76995490676394" lon="10.397167192523739"><ele>12.499999999999998</ele><time>2026-04-19T10:26:34.872Z</time></trkpt><trkpt lat="42.77000643079105" lon="10.397275547166679"><ele>12.0</ele><time>2026-04-19T10:26:35.872Z</time></trkpt><trkpt lat="42.7700379002394" lon="10.397400189110558"><ele>11.5</ele><time>2026-04-19T10:26:36.872Z</time></trkpt><trkpt lat="42.77007098475587" lon="10.397505362005864"><ele>11.0</ele><time>2026-04-19T10:26:37.872Z</time></trkpt><trkpt lat="42.77009143926525" lon="10.397599460475748"><ele>10.5</ele><time>2026-04-19T10:26:38.874Z</time></trkpt><trkpt lat="42.77011271666553" lon="10.397690291869258"><ele>10.0</ele><time>2026-04-19T10:26:39.874Z</time></trkpt><trkpt lat="42.77015524121669" lon="10.39783365792748"><ele>10.0</ele><time>2026-04-19T10:26:41.874Z</time></trkpt><trkpt lat="42.77018497154874" lon="10.397909420264257"><ele>10.0</ele><time>2026-04-19T10:26:42.874Z</time></trkpt><trkpt lat="42.770200647642966" lon="10.39799492905122"><ele>10.0</ele><time>2026-04-19T10:26:43.874Z</time></trkpt><trkpt lat="42.77023379348598" lon="10.398077407947666"><ele>10.0</ele><time>2026-04-19T10:26:44.874Z</time></trkpt><trkpt lat="42.77025516739134" lon="10.398179385159077"><ele>10.0</ele><time>2026-04-19T10:26:45.874Z</time></trkpt><trkpt lat="42.77028638840131" lon="10.398282531555557"><ele>10.0</ele><time>2026-04-19T10:26:46.874Z</time></trkpt><trkpt lat="42.770323969779355" lon="10.39838964428952"><ele>10.0</ele><time>2026-04-19T10:26:47.874Z</time></trkpt><trkpt lat="42.77036652314696" lon="10.398496797523574"><ele>11.0</ele><time>2026-04-19T10:26:48.874Z</time></trkpt><trkpt lat="42.770432982178995" lon="10.398608579694832"><ele>12.0</ele><time>2026-04-19T10:26:49.874Z</time></trkpt><trkpt lat="42.77050295989529" lon="10.398714901844604"><ele>13.0</ele><time>2026-04-19T10:26:50.874Z</time></trkpt><trkpt lat="42.77058504622931" lon="10.398824317329177"><ele>14.0</ele><time>2026-04-19T10:26:51.874Z</time></trkpt><trkpt lat="42.770680551955266" lon="10.398940782220667"><ele>14.0</ele><time>2026-04-19T10:26:52.873Z</time></trkpt><trkpt lat="42.77078023583748" lon="10.399060308983108"><ele>14.0</ele><time>2026-04-19T10:26:53.873Z</time></trkpt><trkpt lat="42.77088165395065" lon="10.399182433233642"><ele>14.0</ele><time>2026-04-19T10:26:54.874Z</time></trkpt><trkpt lat="42.770968297726654" lon="10.399288118429428"><ele>14.0</ele><time>2026-04-19T10:26:55.874Z</time></trkpt><trkpt lat="42.771045021832364" lon="10.399395005640804"><ele>14.75</ele><time>2026-04-19T10:26:56.873Z</time></trkpt><trkpt lat="42.771136200841624" lon="10.399505025993966"><ele>15.5</ele><time>2026-04-19T10:26:57.873Z</time></trkpt><trkpt lat="42.77122743180244" lon="10.399615771813743"><ele>16.25</ele><time>2026-04-19T10:26:58.873Z</time></trkpt><trkpt lat="42.771314748915216" lon="10.399724725405841"><ele>17.0</ele><time>2026-04-19T10:26:59.873Z</time></trkpt><trkpt lat="42.7713968908409" lon="10.399830699903044"><ele>17.0</ele><time>2026-04-19T10:27:00.873Z</time></trkpt><trkpt lat="42.7714722225942" lon="10.399917493212923"><ele>17.0</ele><time>2026-04-19T10:27:01.873Z</time></trkpt><trkpt lat="42.7715425360646" lon="10.400005257435089"><ele>17.0</ele><time>2026-04-19T10:27:02.873Z</time></trkpt><trkpt lat="42.77162418070899" lon="10.400099147419649"><ele>17.0</ele><time>2026-04-19T10:27:03.873Z</time></trkpt><trkpt lat="42.77170521574433" lon="10.400208991155509"><ele>17.0</ele><time>2026-04-19T10:27:04.873Z</time></trkpt><trkpt lat="42.77179762168242" lon="10.400331919926755"><ele>16.75</ele><time>2026-04-19T10:27:05.873Z</time></trkpt><trkpt lat="42.77189068703411" lon="10.400452001210885"><ele>16.5</ele><time>2026-04-19T10:27:06.873Z</time></trkpt><trkpt lat="42.77198998887557" lon="10.400582167837632"><ele>16.25</ele><time>2026-04-19T10:27:07.873Z</time></trkpt><trkpt lat="42.77208447137598" lon="10.400703041660387"><ele>16.0</ele><time>2026-04-19T10:27:08.873Z</time></trkpt><trkpt lat="42.772191917827385" lon="10.40084869775469"><ele>16.0</ele><time>2026-04-19T10:27:09.873Z</time></trkpt><trkpt lat="42.772289020731776" lon="10.400995073157981"><ele>16.0</ele><time>2026-04-19T10:27:10.873Z</time></trkpt><trkpt lat="42.77237680574786" lon="10.401148590981176"><ele>16.0</ele><time>2026-04-19T10:27:11.873Z</time></trkpt><trkpt lat="42.77243596622808" lon="10.401300254623496"><ele>16.0</ele><time>2026-04-19T10:27:12.873Z</time></trkpt><trkpt lat="42.77250100703233" lon="10.401441892642655"><ele>16.0</ele><time>2026-04-19T10:27:13.873Z</time></trkpt><trkpt lat="42.7725615224918" lon="10.401581478761257"><ele>16.0</ele><time>2026-04-19T10:27:14.873Z</time></trkpt><trkpt lat="42.77262070322085" lon="10.4017326244551"><ele>16.0</ele><time>2026-04-19T10:27:15.873Z</time></trkpt><trkpt lat="42.772683028245964" lon="10.401901145448468"><ele>16.0</ele><time>2026-04-19T10:27:16.873Z</time></trkpt><trkpt lat="42.77275788513775" lon="10.402055823291677"><ele>14.5</ele><time>2026-04-19T10:27:17.873Z</time></trkpt><trkpt lat="42.77281725610138" lon="10.402214282833636"><ele>13.0</ele><time>2026-04-19T10:27:18.873Z</time></trkpt><trkpt lat="42.77286077520824" lon="10.40238058697932"><ele>11.5</ele><time>2026-04-19T10:27:19.873Z</time></trkpt><trkpt lat="42.77291903088982" lon="10.402536386679085"><ele>10.0</ele><time>2026-04-19T10:27:20.873Z</time></trkpt><trkpt lat="42.77298854489021" lon="10.402680909365877"><ele>10.0</ele><time>2026-04-19T10:27:21.873Z</time></trkpt><trkpt lat="42.773043778093154" lon="10.402842054682399"><ele>10.0</ele><time>2026-04-19T10:27:22.873Z</time></trkpt><trkpt lat="42.77310605338441" lon="10.403003153985996"><ele>10.0</ele><time>2026-04-19T10:27:23.873Z</time></trkpt><trkpt lat="42.77316488297597" lon="10.4031690142553"><ele>10.0</ele><time>2026-04-19T10:27:24.873Z</time></trkpt><trkpt lat="42.77322268530158" lon="10.403332654955973"><ele>9.5</ele><time>2026-04-19T10:27:25.873Z</time></trkpt><trkpt lat="42.773288906868984" lon="10.403504999022843"><ele>9.0</ele><time>2026-04-19T10:27:26.873Z</time></trkpt><trkpt lat="42.773353640535866" lon="10.403666005221625"><ele>8.5</ele><time>2026-04-19T10:27:27.873Z</time></trkpt><trkpt lat="42.773416896636135" lon="10.403826238922637"><ele>8.0</ele><time>2026-04-19T10:27:28.873Z</time></trkpt><trkpt lat="42.773454185271376" lon="10.404000767181179"><ele>7.75</ele><time>2026-04-19T10:27:29.873Z</time></trkpt><trkpt lat="42.773516164223224" lon="10.404163173936778"><ele>7.5</ele><time>2026-04-19T10:27:30.873Z</time></trkpt><trkpt lat="42.77357822991471" lon="10.404318994303138"><ele>7.25</ele><time>2026-04-19T10:27:31.873Z</time></trkpt><trkpt lat="42.77362871493611" lon="10.40445184562637"><ele>7.0</ele><time>2026-04-19T10:27:32.873Z</time></trkpt><trkpt lat="42.77367856334681" lon="10.40457222538663"><ele>8.2</ele><time>2026-04-19T10:27:33.873Z</time></trkpt><trkpt lat="42.77372077023716" lon="10.404674463821253"><ele>9.399999999999999</ele><time>2026-04-19T10:27:34.873Z</time></trkpt><trkpt lat="42.773753709802016" lon="10.404754150482358"><ele>10.600000000000001</ele><time>2026-04-19T10:27:35.873Z</time></trkpt><trkpt lat="42.77378857881985" lon="10.404864307991145"><ele>11.8</ele><time>2026-04-19T10:27:37.873Z</time></trkpt><trkpt lat="42.77391044796612" lon="10.404810539680273"><ele>13.0</ele><time>2026-04-19T10:27:39.873Z</time></trkpt><trkpt lat="42.77403014145219" lon="10.404729856780207"><ele>13.0</ele><time>2026-04-19T10:27:41.873Z</time></trkpt><trkpt lat="42.7741382327548" lon="10.404669775300908"><ele>13.0</ele><time>2026-04-19T10:27:42.873Z</time></trkpt><trkpt lat="42.77424510750957" lon="10.404614144910468"><ele>13.0</ele><time>2026-04-19T10:27:43.873Z</time></trkpt><trkpt lat="42.77435349009812" lon="10.40454395922312"><ele>13.0</ele><time>2026-04-19T10:27:44.873Z</time></trkpt><trkpt lat="42.77447188512867" lon="10.404477780115096"><ele>14.0</ele><time>2026-04-19T10:27:45.873Z</time></trkpt><trkpt lat="42.774581429794615" lon="10.404426049600659"><ele>15.0</ele><time>2026-04-19T10:27:46.873Z</time></trkpt><trkpt lat="42.77469033346026" lon="10.404352833352178"><ele>16.0</ele><time>2026-04-19T10:27:47.873Z</time></trkpt><trkpt lat="42.77478182181538" lon="10.404288290472435"><ele>17.0</ele><time>2026-04-19T10:27:48.873Z</time></trkpt><trkpt lat="42.774868661949164" lon="10.40424119555373"><ele>18.0</ele><time>2026-04-19T10:27:49.873Z</time></trkpt><trkpt lat="42.77496446089073" lon="10.404178605915153"><ele>18.0</ele><time>2026-04-19T10:27:50.873Z</time></trkpt><trkpt lat="42.77506524390148" lon="10.4041181309463"><ele>18.0</ele><time>2026-04-19T10:27:51.873Z</time></trkpt><trkpt lat="42.77516843437684" lon="10.404064740479734"><ele>18.0</ele><time>2026-04-19T10:27:52.873Z</time></trkpt><trkpt lat="42.775258310841345" lon="10.404012209246327"><ele>18.0</ele><time>2026-04-19T10:27:53.873Z</time></trkpt><trkpt lat="42.77531726121748" lon="10.403978147825287"><ele>18.0</ele><time>2026-04-19T10:27:54.873Z</time></trkpt><trkpt lat="42.77538108151679" lon="10.403924667266805"><ele>19.666666666666668</ele><time>2026-04-19T10:27:56.873Z</time></trkpt><trkpt lat="42.77544959392976" lon="10.403913894112236"><ele>21.333333333333336</ele><time>2026-04-19T10:27:58.873Z</time></trkpt><trkpt lat="42.77551699263281" lon="10.404020332472939"><ele>23.0</ele><time>2026-04-19T10:28:00.873Z</time></trkpt><trkpt lat="42.77554170882766" lon="10.404111772156602"><ele>24.666666666666668</ele><time>2026-04-19T10:28:01.873Z</time></trkpt><trkpt lat="42.77558228118953" lon="10.404197360256843"><ele>26.333333333333336</ele><time>2026-04-19T10:28:02.873Z</time></trkpt><trkpt lat="42.77565194047042" lon="10.40426325701827"><ele>28.0</ele><time>2026-04-19T10:28:03.872Z</time></trkpt><trkpt lat="42.775730155086826" lon="10.404245369008475"><ele>28.000000000000004</ele><time>2026-04-19T10:28:04.872Z</time></trkpt><trkpt lat="42.77580584793454" lon="10.404271505742614"><ele>28.0</ele><time>2026-04-19T10:28:05.872Z</time></trkpt><trkpt lat="42.77586751640198" lon="10.40431381018815"><ele>28.0</ele><time>2026-04-19T10:28:06.872Z</time></trkpt><trkpt lat="42.77595979076362" lon="10.404346222173983"><ele>28.0</ele><time>2026-04-19T10:28:07.872Z</time></trkpt><trkpt lat="42.77603894641771" lon="10.404387066685706"><ele>28.000000000000004</ele><time>2026-04-19T10:28:08.872Z</time></trkpt><trkpt lat="42.776102073351844" lon="10.404428875675748"><ele>28.0</ele><time>2026-04-19T10:28:09.872Z</time></trkpt><trkpt lat="42.77616872998075" lon="10.404487299974203"><ele>33.0</ele><time>2026-04-19T10:28:11.872Z</time></trkpt><trkpt lat="42.77620514028057" lon="10.40455946654623"><ele>38.0</ele><time>2026-04-19T10:28:14.872Z</time></trkpt><trkpt lat="42.776464893520746" lon="10.404043763883028"><ele>38.0</ele><time>2026-04-19T10:28:19.872Z</time></trkpt><trkpt lat="42.77651884547571" lon="10.403947236276364"><ele>38.0</ele><time>2026-04-19T10:28:20.872Z</time></trkpt><trkpt lat="42.77658010708173" lon="10.403871811535746"><ele>38.0</ele><time>2026-04-19T10:28:21.872Z</time></trkpt><trkpt lat="42.77663509964104" lon="10.403800144636238"><ele>38.0</ele><time>2026-04-19T10:28:22.872Z</time></trkpt><trkpt lat="42.77659003908802" lon="10.403585702834782"><ele>38.0</ele><time>2026-04-19T10:28:24.872Z</time></trkpt><trkpt lat="42.77654720768119" lon="10.403491232649"><ele>37.5</ele><time>2026-04-19T10:28:25.872Z</time></trkpt><trkpt lat="42.776519298746905" lon="10.403409380270498"><ele>37.0</ele><time>2026-04-19T10:28:26.872Z</time></trkpt><trkpt lat="42.77647646807563" lon="10.40330311371613"><ele>36.5</ele><time>2026-04-19T10:28:27.872Z</time></trkpt><trkpt lat="42.77643778057693" lon="10.403192028673788"><ele>36.0</ele><time>2026-04-19T10:28:28.872Z</time></trkpt><trkpt lat="42.776407993392624" lon="10.40309384103814"><ele>35.5</ele><time>2026-04-19T10:28:29.872Z</time></trkpt><trkpt lat="42.77638497672491" lon="10.403011465112154"><ele>35.0</ele><time>2026-04-19T10:28:30.872Z</time></trkpt><trkpt lat="42.77636165912016" lon="10.402865530140671"><ele>35.0</ele><time>2026-04-19T10:28:32.872Z</time></trkpt><trkpt lat="42.77641458376047" lon="10.402767368890563"><ele>35.0</ele><time>2026-04-19T10:28:34.872Z</time></trkpt><trkpt lat="42.77652173724726" lon="10.402716616989064"><ele>35.0</ele><time>2026-04-19T10:28:36.872Z</time></trkpt><trkpt lat="42.77661119544227" lon="10.402787653880862"><ele>35.0</ele><time>2026-04-19T10:28:38.872Z</time></trkpt><trkpt lat="42.77666414012441" lon="10.402851029850318"><ele>35.0</ele><time>2026-04-19T10:28:39.872Z</time></trkpt><trkpt lat="42.77673873015395" lon="10.402916973488935"><ele>35.0</ele><time>2026-04-19T10:28:40.872Z</time></trkpt><trkpt lat="42.77680322557299" lon="10.40298697009335"><ele>35.0</ele><time>2026-04-19T10:28:41.872Z</time></trkpt><trkpt lat="42.776853776266194" lon="10.403049584346547"><ele>35.0</ele><time>2026-04-19T10:28:42.872Z</time></trkpt><trkpt lat="42.77689037955723" lon="10.403123639377634"><ele>35.0</ele><time>2026-04-19T10:28:43.872Z</time></trkpt><trkpt lat="42.77691830017233" lon="10.403257151124233"><ele>35.0</ele><time>2026-04-19T10:28:45.873Z</time></trkpt><trkpt lat="42.77698082476604" lon="10.403360684444385"><ele>35.0</ele><time>2026-04-19T10:28:47.873Z</time></trkpt><trkpt lat="42.77704393916029" lon="10.403404909781248"><ele>38.14285714285714</ele><time>2026-04-19T10:28:48.874Z</time></trkpt><trkpt lat="42.7771019019593" lon="10.403445944335825"><ele>41.285714285714285</ele><time>2026-04-19T10:28:49.874Z</time></trkpt><trkpt lat="42.77717149768491" lon="10.40349504672417"><ele>44.42857142857143</ele><time>2026-04-19T10:28:50.873Z</time></trkpt><trkpt lat="42.777225657436944" lon="10.403552871004523"><ele>47.57142857142857</ele><time>2026-04-19T10:28:51.873Z</time></trkpt><trkpt lat="42.777279226531604" lon="10.403610291262316"><ele>50.71428571428571</ele><time>2026-04-19T10:28:52.873Z</time></trkpt><trkpt lat="42.77734409200123" lon="10.40367154642247"><ele>53.857142857142854</ele><time>2026-04-19T10:28:53.873Z</time></trkpt><trkpt lat="42.77740582346103" lon="10.403743156853501"><ele>57.0</ele><time>2026-04-19T10:28:54.873Z</time></trkpt><trkpt lat="42.77745838209625" lon="10.403808012494435"><ele>56.6</ele><time>2026-04-19T10:28:55.873Z</time></trkpt><trkpt lat="42.77755167941191" lon="10.403938747388251"><ele>56.2</ele><time>2026-04-19T10:28:57.873Z</time></trkpt><trkpt lat="42.77760940743821" lon="10.404012447573361"><ele>55.8</ele><time>2026-04-19T10:28:58.873Z</time></trkpt><trkpt lat="42.777669358401155" lon="10.404080042969001"><ele>55.4</ele><time>2026-04-19T10:28:59.873Z</time></trkpt><trkpt lat="42.77774394123624" lon="10.404122888262371"><ele>55.0</ele><time>2026-04-19T10:29:00.873Z</time></trkpt><trkpt lat="42.777836040140286" lon="10.404163225653058"><ele>56.4</ele><time>2026-04-19T10:29:01.873Z</time></trkpt><trkpt lat="42.77792773196439" lon="10.404222509362784"><ele>57.8</ele><time>2026-04-19T10:29:02.873Z</time></trkpt><trkpt lat="42.77800104809221" lon="10.404269287564345"><ele>59.2</ele><time>2026-04-19T10:29:03.873Z</time></trkpt><trkpt lat="42.778105147535115" lon="10.4042836220803"><ele>60.6</ele><time>2026-04-19T10:29:05.873Z</time></trkpt><trkpt lat="42.778191152165256" lon="10.404197542482864"><ele>62.0</ele><time>2026-04-19T10:29:07.873Z</time></trkpt><trkpt lat="42.7782442346745" lon="10.404150630344216"><ele>62.00000000000001</ele><time>2026-04-19T10:29:09.873Z</time></trkpt><trkpt lat="42.77828512356715" lon="10.404055558436905"><ele>62.0</ele><time>2026-04-19T10:29:12.873Z</time></trkpt><trkpt lat="42.778354044648395" lon="10.404035181597013"><ele>62.0</ele><time>2026-04-19T10:29:14.873Z</time></trkpt><trkpt lat="42.778400047737506" lon="10.40411455580228"><ele>62.0</ele><time>2026-04-19T10:29:16.873Z</time></trkpt><trkpt lat="42.77844774069906" lon="10.404172768801853"><ele>62.00000000000001</ele><time>2026-04-19T10:29:17.873Z</time></trkpt><trkpt lat="42.77853099035301" lon="10.404216008147111"><ele>62.0</ele><time>2026-04-19T10:29:18.873Z</time></trkpt><trkpt lat="42.778612104134965" lon="10.404247696157173"><ele>64.4</ele><time>2026-04-19T10:29:19.873Z</time></trkpt><trkpt lat="42.77869247026066" lon="10.404288613047834"><ele>66.80000000000001</ele><time>2026-04-19T10:29:20.873Z</time></trkpt><trkpt lat="42.77878167809295" lon="10.404315787830207"><ele>69.2</ele><time>2026-04-19T10:29:21.873Z</time></trkpt><trkpt lat="42.77888737491982" lon="10.404329423907967"><ele>71.60000000000001</ele><time>2026-04-19T10:29:22.873Z</time></trkpt><trkpt lat="42.778988323004896" lon="10.404320046263722"><ele>74.0</ele><time>2026-04-19T10:29:23.873Z</time></trkpt><trkpt lat="42.779082792088886" lon="10.4043176927429"><ele>74.0</ele><time>2026-04-19T10:29:24.873Z</time></trkpt><trkpt lat="42.77917899070762" lon="10.4043095606021"><ele>74.0</ele><time>2026-04-19T10:29:25.873Z</time></trkpt><trkpt lat="42.7792654736099" lon="10.404288882272205"><ele>74.0</ele><time>2026-04-19T10:29:26.873Z</time></trkpt><trkpt lat="42.77933816115908" lon="10.404251884085157"><ele>74.0</ele><time>2026-04-19T10:29:27.873Z</time></trkpt><trkpt lat="42.7794108668227" lon="10.404202298453656"><ele>74.0</ele><time>2026-04-19T10:29:28.873Z</time></trkpt><trkpt lat="42.77947571462947" lon="10.404149726151003"><ele>74.0</ele><time>2026-04-19T10:29:29.873Z</time></trkpt><trkpt lat="42.77952648824804" lon="10.404097646582025"><ele>75.0</ele><time>2026-04-19T10:29:30.873Z</time></trkpt><trkpt lat="42.77958674356033" lon="10.404050325970502"><ele>76.0</ele><time>2026-04-19T10:29:31.873Z</time></trkpt><trkpt lat="42.77969492947161" lon="10.404059037011937"><ele>77.0</ele><time>2026-04-19T10:29:33.873Z</time></trkpt><trkpt lat="42.77976885323394" lon="10.404140878342798"><ele>78.0</ele><time>2026-04-19T10:29:35.872Z</time></trkpt><trkpt lat="42.779843658185335" lon="10.404218372356786"><ele>79.0</ele><time>2026-04-19T10:29:37.872Z</time></trkpt><trkpt lat="42.77989924602958" lon="10.404278341690869"><ele>80.0</ele><time>2026-04-19T10:29:38.872Z</time></trkpt><trkpt lat="42.77996440248919" lon="10.404335292994919"><ele>80.0</ele><time>2026-04-19T10:29:39.872Z</time></trkpt><trkpt lat="42.780035305295776" lon="10.404382419256994"><ele>80.0</ele><time>2026-04-19T10:29:40.872Z</time></trkpt><trkpt lat="42.780100307550015" lon="10.404440473007952"><ele>80.0</ele><time>2026-04-19T10:29:41.872Z</time></trkpt><trkpt lat="42.780177495858766" lon="10.404509480768208"><ele>80.0</ele><time>2026-04-19T10:29:42.872Z</time></trkpt><trkpt lat="42.78024786016412" lon="10.404566066772448"><ele>80.0</ele><time>2026-04-19T10:29:43.872Z</time></trkpt><trkpt lat="42.78031176553182" lon="10.40459955629821"><ele>80.0</ele><time>2026-04-19T10:29:44.872Z</time></trkpt><trkpt lat="42.78037637570646" lon="10.404669670063981"><ele>80.2</ele><time>2026-04-19T10:29:46.872Z</time></trkpt><trkpt lat="42.78038734057833" lon="10.40479209324106"><ele>80.4</ele><time>2026-04-19T10:29:48.872Z</time></trkpt><trkpt lat="42.78034345768596" lon="10.404966900716174"><ele>80.6</ele><time>2026-04-19T10:29:50.872Z</time></trkpt><trkpt lat="42.78026296813052" lon="10.405030797643564"><ele>80.8</ele><time>2026-04-19T10:29:51.872Z</time></trkpt><trkpt lat="42.78017041327042" lon="10.405060117626569"><ele>81.0</ele><time>2026-04-19T10:29:52.872Z</time></trkpt><trkpt lat="42.78010183582215" lon="10.405084948442706"><ele>80.0</ele><time>2026-04-19T10:29:53.872Z</time></trkpt><trkpt lat="42.780054996347886" lon="10.405143274834941"><ele>79.0</ele><time>2026-04-19T10:29:54.872Z</time></trkpt><trkpt lat="42.780013416497795" lon="10.405239628909774"><ele>78.0</ele><time>2026-04-19T10:29:55.872Z</time></trkpt><trkpt lat="42.77999486307202" lon="10.405347501650995"><ele>77.0</ele><time>2026-04-19T10:29:56.872Z</time></trkpt><trkpt lat="42.779983635668536" lon="10.405444305076152"><ele>76.0</ele><time>2026-04-19T10:29:57.872Z</time></trkpt><trkpt lat="42.77997095533636" lon="10.405552768223082"><ele>75.0</ele><time>2026-04-19T10:29:58.872Z</time></trkpt><trkpt lat="42.779932970177185" lon="10.405671154949143"><ele>75.0</ele><time>2026-04-19T10:29:59.872Z</time></trkpt><trkpt lat="42.77988128076358" lon="10.405773452262203"><ele>75.0</ele><time>2026-04-19T10:30:00.872Z</time></trkpt><trkpt lat="42.77981268480642" lon="10.405871807513638"><ele>75.0</ele><time>2026-04-19T10:30:01.872Z</time></trkpt><trkpt lat="42.779771186546604" lon="10.405996025956764"><ele>75.0</ele><time>2026-04-19T10:30:02.872Z</time></trkpt><trkpt lat="42.77973934869193" lon="10.406107895043872"><ele>75.0</ele><time>2026-04-19T10:30:03.872Z</time></trkpt><trkpt lat="42.77970532097455" lon="10.406191200194117"><ele>75.0</ele><time>2026-04-19T10:30:04.872Z</time></trkpt><trkpt lat="42.77966019622725" lon="10.406264021611126"><ele>77.2</ele><time>2026-04-19T10:30:05.872Z</time></trkpt><trkpt lat="42.7795598340225" lon="10.406329386770288"><ele>79.4</ele><time>2026-04-19T10:30:07.872Z</time></trkpt><trkpt lat="42.77944463961559" lon="10.40636994594023"><ele>81.6</ele><time>2026-04-19T10:30:09.872Z</time></trkpt><trkpt lat="42.77937800995942" lon="10.406374301919227"><ele>83.8</ele><time>2026-04-19T10:30:10.872Z</time></trkpt><trkpt lat="42.77929124275164" lon="10.40631429131423"><ele>86.0</ele><time>2026-04-19T10:30:12.872Z</time></trkpt><trkpt lat="42.77918399536726" lon="10.406217185358667"><ele>81.66666666666667</ele><time>2026-04-19T10:30:14.872Z</time></trkpt><trkpt lat="42.77911019071167" lon="10.406177664913278"><ele>77.33333333333334</ele><time>2026-04-19T10:30:15.872Z</time></trkpt><trkpt lat="42.779052511068336" lon="10.406104581759026"><ele>73.0</ele><time>2026-04-19T10:30:16.872Z</time></trkpt><trkpt lat="42.778964320650964" lon="10.406113499171408"><ele>68.66666666666667</ele><time>2026-04-19T10:30:17.872Z</time></trkpt><trkpt lat="42.77888433365274" lon="10.406080021504916"><ele>64.33333333333333</ele><time>2026-04-19T10:30:18.872Z</time></trkpt><trkpt lat="42.77880531929312" lon="10.406061979653481"><ele>60.0</ele><time>2026-04-19T10:30:19.872Z</time></trkpt><trkpt lat="42.77873122143172" lon="10.406033971174471"><ele>60.0</ele><time>2026-04-19T10:30:20.872Z</time></trkpt><trkpt lat="42.77865710079777" lon="10.406011309649356"><ele>60.0</ele><time>2026-04-19T10:30:21.872Z</time></trkpt><trkpt lat="42.7785670836559" lon="10.405992699192565"><ele>60.0</ele><time>2026-04-19T10:30:22.872Z</time></trkpt><trkpt lat="42.77847405867225" lon="10.405988921838203"><ele>60.0</ele><time>2026-04-19T10:30:23.872Z</time></trkpt><trkpt lat="42.77837327614614" lon="10.405997492111377"><ele>60.0</ele><time>2026-04-19T10:30:24.872Z</time></trkpt><trkpt lat="42.77827693238805" lon="10.406003520550142"><ele>59.333333333333336</ele><time>2026-04-19T10:30:25.872Z</time></trkpt><trkpt lat="42.77818982901039" lon="10.406000340145926"><ele>58.66666666666667</ele><time>2026-04-19T10:30:26.872Z</time></trkpt><trkpt lat="42.77810356594337" lon="10.406007384590847"><ele>58.0</ele><time>2026-04-19T10:30:27.872Z</time></trkpt><trkpt lat="42.778022038576104" lon="10.405995029690487"><ele>57.333333333333336</ele><time>2026-04-19T10:30:28.872Z</time></trkpt><trkpt lat="42.777941647742196" lon="10.405995374652628"><ele>56.66666666666667</ele><time>2026-04-19T10:30:29.872Z</time></trkpt><trkpt lat="42.77785254603832" lon="10.405984795923446"><ele>56.0</ele><time>2026-04-19T10:30:30.872Z</time></trkpt><trkpt lat="42.77775518677734" lon="10.405992810048222"><ele>52.75</ele><time>2026-04-19T10:30:31.872Z</time></trkpt><trkpt lat="42.77764028797397" lon="10.405991977170888"><ele>49.5</ele><time>2026-04-19T10:30:32.872Z</time></trkpt><trkpt lat="42.777516596079465" lon="10.405978037364221"><ele>46.25</ele><time>2026-04-19T10:30:33.872Z</time></trkpt><trkpt lat="42.7774009831915" lon="10.405962390050492"><ele>43.0</ele><time>2026-04-19T10:30:34.872Z</time></trkpt><trkpt lat="42.77728159263109" lon="10.405967941546082"><ele>43.0</ele><time>2026-04-19T10:30:35.872Z</time></trkpt><trkpt lat="42.777155072017514" lon="10.40597350860798"><ele>43.0</ele><time>2026-04-19T10:30:36.872Z</time></trkpt><trkpt lat="42.77703385553738" lon="10.4059772332843"><ele>43.0</ele><time>2026-04-19T10:30:37.872Z</time></trkpt><trkpt lat="42.77690802420875" lon="10.405969875601382"><ele>43.0</ele><time>2026-04-19T10:30:38.872Z</time></trkpt><trkpt lat="42.77679300721153" lon="10.405991987524558"><ele>41.4</ele><time>2026-04-19T10:30:39.872Z</time></trkpt><trkpt lat="42.776678152466104" lon="10.406017739512214"><ele>39.8</ele><time>2026-04-19T10:30:40.872Z</time></trkpt><trkpt lat="42.77657642391787" lon="10.40604532982776"><ele>38.2</ele><time>2026-04-19T10:30:41.872Z</time></trkpt><trkpt lat="42.77647760324565" lon="10.406057533893902"><ele>36.6</ele><time>2026-04-19T10:30:42.871Z</time></trkpt><trkpt lat="42.77639009172711" lon="10.406053146635793"><ele>35.0</ele><time>2026-04-19T10:30:43.871Z</time></trkpt><trkpt lat="42.77631532803788" lon="10.406034125280277"><ele>35.0</ele><time>2026-04-19T10:30:44.871Z</time></trkpt><trkpt lat="42.77623227097747" lon="10.406000750655878"><ele>35.0</ele><time>2026-04-19T10:30:45.871Z</time></trkpt><trkpt lat="42.77615716508792" lon="10.405965233352898"><ele>35.0</ele><time>2026-04-19T10:30:46.871Z</time></trkpt><trkpt lat="42.77607019524088" lon="10.40595134183845"><ele>35.0</ele><time>2026-04-19T10:30:47.871Z</time></trkpt><trkpt lat="42.77596828391992" lon="10.405958338925611"><ele>35.0</ele><time>2026-04-19T10:30:48.871Z</time></trkpt><trkpt lat="42.775861836262315" lon="10.406021713680545"><ele>33.2</ele><time>2026-04-19T10:30:49.871Z</time></trkpt><trkpt lat="42.77576012750477" lon="10.406038507948958"><ele>31.4</ele><time>2026-04-19T10:30:50.872Z</time></trkpt><trkpt lat="42.77566068295501" lon="10.406042707302927"><ele>29.6</ele><time>2026-04-19T10:30:51.872Z</time></trkpt><trkpt lat="42.77557305685434" lon="10.406057115196226"><ele>27.8</ele><time>2026-04-19T10:30:52.873Z</time></trkpt><trkpt lat="42.775480864990875" lon="10.40609049452611"><ele>26.0</ele><time>2026-04-19T10:30:53.873Z</time></trkpt><trkpt lat="42.77539178222224" lon="10.406180834352446"><ele>26.0</ele><time>2026-04-19T10:30:54.872Z</time></trkpt><trkpt lat="42.77528353398947" lon="10.406220178069558"><ele>26.0</ele><time>2026-04-19T10:30:55.872Z</time></trkpt><trkpt lat="42.77517109483129" lon="10.40624831944366"><ele>26.0</ele><time>2026-04-19T10:30:56.873Z</time></trkpt><trkpt lat="42.77506899298961" lon="10.406271247813873"><ele>26.0</ele><time>2026-04-19T10:30:57.872Z</time></trkpt><trkpt lat="42.774975770767675" lon="10.406295026890458"><ele>26.0</ele><time>2026-04-19T10:30:58.872Z</time></trkpt><trkpt lat="42.774882534342645" lon="10.406319317633683"><ele>25.833333333333332</ele><time>2026-04-19T10:30:59.872Z</time></trkpt><trkpt lat="42.77478688932952" lon="10.40635066333923"><ele>25.666666666666664</ele><time>2026-04-19T10:31:00.873Z</time></trkpt><trkpt lat="42.77469494701546" lon="10.406373627409485"><ele>25.5</ele><time>2026-04-19T10:31:01.873Z</time></trkpt><trkpt lat="42.774608173165966" lon="10.406405392126867"><ele>25.333333333333336</ele><time>2026-04-19T10:31:02.872Z</time></trkpt><trkpt lat="42.774528296652846" lon="10.406430876141396"><ele>25.166666666666668</ele><time>2026-04-19T10:31:03.872Z</time></trkpt><trkpt lat="42.77444750440703" lon="10.406452046116543"><ele>25.0</ele><time>2026-04-19T10:31:04.872Z</time></trkpt><trkpt lat="42.774358382686735" lon="10.406468205940788"><ele>23.666666666666668</ele><time>2026-04-19T10:31:06.872Z</time></trkpt><trkpt lat="42.77429122248359" lon="10.406478643442538"><ele>22.333333333333336</ele><time>2026-04-19T10:31:09.872Z</time></trkpt><trkpt lat="42.77425524593169" lon="10.40657005415571"><ele>21.0</ele><time>2026-04-19T10:31:10.872Z</time></trkpt><trkpt lat="42.774224129631484" lon="10.40665393432087"><ele>19.666666666666668</ele><time>2026-04-19T10:31:11.872Z</time></trkpt><trkpt lat="42.7741893050185" lon="10.406766360268291"><ele>18.333333333333336</ele><time>2026-04-19T10:31:12.872Z</time></trkpt><trkpt lat="42.77415431930957" lon="10.406884506248579"><ele>17.0</ele><time>2026-04-19T10:31:13.872Z</time></trkpt><trkpt lat="42.774099693398405" lon="10.407034588129967"><ele>18.0</ele><time>2026-04-19T10:31:14.872Z</time></trkpt><trkpt lat="42.774052960957206" lon="10.407179222354891"><ele>19.0</ele><time>2026-04-19T10:31:15.872Z</time></trkpt><trkpt lat="42.77401846529934" lon="10.40733955238482"><ele>20.0</ele><time>2026-04-19T10:31:16.872Z</time></trkpt><trkpt lat="42.77399248805681" lon="10.40753359701505"><ele>21.0</ele><time>2026-04-19T10:31:17.872Z</time></trkpt><trkpt lat="42.773986517772734" lon="10.407743116753602"><ele>21.0</ele><time>2026-04-19T10:31:18.872Z</time></trkpt><trkpt lat="42.77399538562552" lon="10.407949817774869"><ele>21.0</ele><time>2026-04-19T10:31:19.872Z</time></trkpt><trkpt lat="42.774008518427785" lon="10.408153340513705"><ele>21.0</ele><time>2026-04-19T10:31:20.872Z</time></trkpt><trkpt lat="42.774030507147174" lon="10.408358421383237"><ele>21.0</ele><time>2026-04-19T10:31:21.872Z</time></trkpt><trkpt lat="42.774059131579335" lon="10.408562591532306"><ele>21.0</ele><time>2026-04-19T10:31:22.872Z</time></trkpt><trkpt lat="42.774074821624374" lon="10.408765920806104"><ele>21.0</ele><time>2026-04-19T10:31:23.872Z</time></trkpt><trkpt lat="42.77409647053272" lon="10.408969525003942"><ele>21.5</ele><time>2026-04-19T10:31:24.872Z</time></trkpt><trkpt lat="42.77412538307919" lon="10.409162545996365"><ele>22.0</ele><time>2026-04-19T10:31:25.872Z</time></trkpt><trkpt lat="42.774180966056996" lon="10.409351478372121"><ele>22.5</ele><time>2026-04-19T10:31:26.872Z</time></trkpt><trkpt lat="42.774264370653164" lon="10.40952433660881"><ele>23.0</ele><time>2026-04-19T10:31:27.872Z</time></trkpt><trkpt lat="42.77438106209414" lon="10.409660133687927"><ele>25.25</ele><time>2026-04-19T10:31:28.872Z</time></trkpt><trkpt lat="42.774512115289966" lon="10.40972308784462"><ele>27.5</ele><time>2026-04-19T10:31:29.872Z</time></trkpt><trkpt lat="42.77465612487984" lon="10.409758403117092"><ele>29.75</ele><time>2026-04-19T10:31:30.872Z</time></trkpt><trkpt lat="42.7747908911632" lon="10.409752195551466"><ele>32.0</ele><time>2026-04-19T10:31:31.872Z</time></trkpt><trkpt lat="42.77494521632754" lon="10.409718522151993"><ele>32.0</ele><time>2026-04-19T10:31:32.872Z</time></trkpt><trkpt lat="42.7751067037441" lon="10.409683789362271"><ele>32.0</ele><time>2026-04-19T10:31:33.872Z</time></trkpt><trkpt lat="42.77526724551157" lon="10.409647613382537"><ele>32.0</ele><time>2026-04-19T10:31:34.872Z</time></trkpt><trkpt lat="42.77542541549707" lon="10.409621103602735"><ele>33.75</ele><time>2026-04-19T10:31:35.872Z</time></trkpt><trkpt lat="42.77557702330262" lon="10.40959268505305"><ele>35.5</ele><time>2026-04-19T10:31:36.872Z</time></trkpt><trkpt lat="42.775718999856174" lon="10.409564631896025"><ele>37.25</ele><time>2026-04-19T10:31:37.872Z</time></trkpt><trkpt lat="42.7758403381764" lon="10.40953371737789"><ele>39.0</ele><time>2026-04-19T10:31:38.872Z</time></trkpt><trkpt lat="42.775954534046804" lon="10.409517325625785"><ele>38.75</ele><time>2026-04-19T10:31:39.872Z</time></trkpt><trkpt lat="42.77605699931661" lon="10.4095001733211"><ele>38.5</ele><time>2026-04-19T10:31:40.872Z</time></trkpt><trkpt lat="42.77615189433294" lon="10.40949827050264"><ele>38.25</ele><time>2026-04-19T10:31:41.872Z</time></trkpt><trkpt lat="42.776231837782" lon="10.409544899451753"><ele>38.0</ele><time>2026-04-19T10:31:42.872Z</time></trkpt><trkpt lat="42.77636543015766" lon="10.409701611555139"><ele>38.0</ele><time>2026-04-19T10:31:44.872Z</time></trkpt><trkpt lat="42.77639805903138" lon="10.409835101626543"><ele>38.0</ele><time>2026-04-19T10:31:45.872Z</time></trkpt><trkpt lat="42.77645747700407" lon="10.409969749265741"><ele>38.0</ele><time>2026-04-19T10:31:46.872Z</time></trkpt><trkpt lat="42.77651726695787" lon="10.410101267528063"><ele>38.0</ele><time>2026-04-19T10:31:47.872Z</time></trkpt><trkpt lat="42.77658201902689" lon="10.410248591318341"><ele>38.0</ele><time>2026-04-19T10:31:48.872Z</time></trkpt><trkpt lat="42.77664829756473" lon="10.41039939241371"><ele>38.0</ele><time>2026-04-19T10:31:49.872Z</time></trkpt><trkpt lat="42.77671012984389" lon="10.410542753059092"><ele>38.0</ele><time>2026-04-19T10:31:50.872Z</time></trkpt><trkpt lat="42.77676686320223" lon="10.410673395020398"><ele>38.0</ele><time>2026-04-19T10:31:51.872Z</time></trkpt><trkpt lat="42.77683463845966" lon="10.410791409597126"><ele>36.6</ele><time>2026-04-19T10:31:52.872Z</time></trkpt><trkpt lat="42.7768704265567" lon="10.410919378677615"><ele>35.199999999999996</ele><time>2026-04-19T10:31:53.872Z</time></trkpt><trkpt lat="42.77692420750201" lon="10.411034529888726"><ele>33.8</ele><time>2026-04-19T10:31:54.872Z</time></trkpt><trkpt lat="42.77697768348809" lon="10.411156444967855"><ele>32.4</ele><time>2026-04-19T10:31:55.872Z</time></trkpt><trkpt lat="42.7770206930198" lon="10.411265281278588"><ele>31.0</ele><time>2026-04-19T10:31:56.872Z</time></trkpt><trkpt lat="42.777060310895926" lon="10.411371614547045"><ele>29.4</ele><time>2026-04-19T10:31:57.872Z</time></trkpt><trkpt lat="42.777093161235705" lon="10.411457470745239"><ele>27.8</ele><time>2026-04-19T10:31:58.872Z</time></trkpt><trkpt lat="42.77712450228848" lon="10.411605600073614"><ele>26.2</ele><time>2026-04-19T10:32:00.872Z</time></trkpt><trkpt lat="42.777248393095164" lon="10.411662834608574"><ele>24.599999999999998</ele><time>2026-04-19T10:32:03.872Z</time></trkpt><trkpt lat="42.77733858834795" lon="10.411616764585816"><ele>23.0</ele><time>2026-04-19T10:32:04.872Z</time></trkpt><trkpt lat="42.77742872339123" lon="10.411565398361288"><ele>23.0</ele><time>2026-04-19T10:32:05.872Z</time></trkpt><trkpt lat="42.77752467867154" lon="10.411504298403473"><ele>23.0</ele><time>2026-04-19T10:32:06.872Z</time></trkpt><trkpt lat="42.777616422657225" lon="10.411457844993878"><ele>23.0</ele><time>2026-04-19T10:32:07.872Z</time></trkpt><trkpt lat="42.777697009329984" lon="10.411417041032884"><ele>23.0</ele><time>2026-04-19T10:32:08.872Z</time></trkpt><trkpt lat="42.7777663749829" lon="10.411383340048165"><ele>23.0</ele><time>2026-04-19T10:32:09.872Z</time></trkpt><trkpt lat="42.7778418560004" lon="10.411350386887275"><ele>23.0</ele><time>2026-04-19T10:32:10.872Z</time></trkpt><trkpt lat="42.77791441050061" lon="10.411324812240418"><ele>22.799999999999997</ele><time>2026-04-19T10:32:11.872Z</time></trkpt><trkpt lat="42.77798552023487" lon="10.411330216670727"><ele>22.6</ele><time>2026-04-19T10:32:12.872Z</time></trkpt><trkpt lat="42.77803939853259" lon="10.41141340126787"><ele>22.4</ele><time>2026-04-19T10:32:13.871Z</time></trkpt><trkpt lat="42.77805238160574" lon="10.41153962692072"><ele>22.200000000000003</ele><time>2026-04-19T10:32:14.871Z</time></trkpt><trkpt lat="42.77809626526647" lon="10.411659089837412"><ele>22.0</ele><time>2026-04-19T10:32:15.871Z</time></trkpt><trkpt lat="42.77814711385783" lon="10.411787387912227"><ele>22.0</ele><time>2026-04-19T10:32:16.871Z</time></trkpt><trkpt lat="42.778203085137186" lon="10.411926880485826"><ele>22.0</ele><time>2026-04-19T10:32:17.871Z</time></trkpt><trkpt lat="42.77825833751169" lon="10.412070939166794"><ele>22.0</ele><time>2026-04-19T10:32:18.871Z</time></trkpt><trkpt lat="42.77830561533707" lon="10.412193063544395"><ele>22.0</ele><time>2026-04-19T10:32:19.871Z</time></trkpt><trkpt lat="42.778348889895405" lon="10.412293331941065"><ele>22.0</ele><time>2026-04-19T10:32:20.871Z</time></trkpt><trkpt lat="42.7783983792362" lon="10.412375641492892"><ele>23.8</ele><time>2026-04-19T10:32:21.871Z</time></trkpt><trkpt lat="42.7784755968613" lon="10.412422463749246"><ele>25.6</ele><time>2026-04-19T10:32:22.871Z</time></trkpt><trkpt lat="42.77854733647412" lon="10.412408904718076"><ele>27.400000000000002</ele><time>2026-04-19T10:32:23.871Z</time></trkpt><trkpt lat="42.7786043881392" lon="10.412300922214797"><ele>29.200000000000003</ele><time>2026-04-19T10:32:24.871Z</time></trkpt><trkpt lat="42.77869439446238" lon="10.412231495224855"><ele>31.0</ele><time>2026-04-19T10:32:25.871Z</time></trkpt><trkpt lat="42.778810780065044" lon="10.412178132938136"><ele>31.25</ele><time>2026-04-19T10:32:26.871Z</time></trkpt><trkpt lat="42.77893528877518" lon="10.412140828861077"><ele>31.5</ele><time>2026-04-19T10:32:27.871Z</time></trkpt><trkpt lat="42.779073533838556" lon="10.412113147877765"><ele>31.75</ele><time>2026-04-19T10:32:28.871Z</time></trkpt><trkpt lat="42.779225546394734" lon="10.41206991827766"><ele>32.0</ele><time>2026-04-19T10:32:29.871Z</time></trkpt><trkpt lat="42.77937707201123" lon="10.412041877804068"><ele>32.0</ele><time>2026-04-19T10:32:30.871Z</time></trkpt><trkpt lat="42.77950335379763" lon="10.411990815995132"><ele>32.0</ele><time>2026-04-19T10:32:31.871Z</time></trkpt><trkpt lat="42.77960265592271" lon="10.411980007669447"><ele>32.0</ele><time>2026-04-19T10:32:32.871Z</time></trkpt><trkpt lat="42.77955819668914" lon="10.412165330163697"><ele>32.0</ele><time>2026-04-19T10:32:36.871Z</time></trkpt><trkpt lat="42.77946392962991" lon="10.412185697854012"><ele>34.5</ele><time>2026-04-19T10:32:37.871Z</time></trkpt><trkpt lat="42.779357176405966" lon="10.412206094901876"><ele>37.0</ele><time>2026-04-19T10:32:38.871Z</time></trkpt><trkpt lat="42.77924328929009" lon="10.412261571201444"><ele>39.5</ele><time>2026-04-19T10:32:39.871Z</time></trkpt><trkpt lat="42.779129332248154" lon="10.412363878778834"><ele>42.0</ele><time>2026-04-19T10:32:40.871Z</time></trkpt><trkpt lat="42.77901061831185" lon="10.41247321102123"><ele>42.0</ele><time>2026-04-19T10:32:41.871Z</time></trkpt><trkpt lat="42.77888766158254" lon="10.412592174366097"><ele>42.0</ele><time>2026-04-19T10:32:42.871Z</time></trkpt><trkpt lat="42.77875083299177" lon="10.412709402428641"><ele>42.0</ele><time>2026-04-19T10:32:43.871Z</time></trkpt><trkpt lat="42.77861902966811" lon="10.412830300002655"><ele>44.66666666666667</ele><time>2026-04-19T10:32:44.871Z</time></trkpt><trkpt lat="42.77848707094152" lon="10.412950981346286"><ele>47.333333333333336</ele><time>2026-04-19T10:32:45.871Z</time></trkpt><trkpt lat="42.77835740569809" lon="10.413084878547364"><ele>50.0</ele><time>2026-04-19T10:32:46.871Z</time></trkpt><trkpt lat="42.77823932426867" lon="10.41323944104382"><ele>50.0</ele><time>2026-04-19T10:32:47.871Z</time></trkpt><trkpt lat="42.778125062701285" lon="10.413424830263903"><ele>50.0</ele><time>2026-04-19T10:32:48.871Z</time></trkpt><trkpt lat="42.778010254910036" lon="10.413602454138255"><ele>50.0</ele><time>2026-04-19T10:32:49.871Z</time></trkpt><trkpt lat="42.77788665246079" lon="10.413783198444209"><ele>50.333333333333336</ele><time>2026-04-19T10:32:50.871Z</time></trkpt><trkpt lat="42.77776283334114" lon="10.413948394007356"><ele>50.66666666666667</ele><time>2026-04-19T10:32:51.871Z</time></trkpt><trkpt lat="42.77763689153509" lon="10.414113754494771"><ele>51.0</ele><time>2026-04-19T10:32:52.871Z</time></trkpt><trkpt lat="42.77750956796261" lon="10.414282346929449"><ele>51.0</ele><time>2026-04-19T10:32:53.871Z</time></trkpt><trkpt lat="42.777375951074255" lon="10.414439210544066"><ele>51.0</ele><time>2026-04-19T10:32:54.871Z</time></trkpt><trkpt lat="42.77724354997731" lon="10.414597399459726"><ele>51.0</ele><time>2026-04-19T10:32:55.871Z</time></trkpt><trkpt lat="42.777104484588016" lon="10.414759241773183"><ele>51.0</ele><time>2026-04-19T10:32:56.873Z</time></trkpt><trkpt lat="42.77696791301961" lon="10.414927027609183"><ele>51.0</ele><time>2026-04-19T10:32:57.873Z</time></trkpt><trkpt lat="42.77684060140903" lon="10.415080614569227"><ele>51.0</ele><time>2026-04-19T10:32:58.872Z</time></trkpt><trkpt lat="42.77672233767709" lon="10.415215436276341"><ele>51.0</ele><time>2026-04-19T10:32:59.872Z</time></trkpt><trkpt lat="42.77661524847705" lon="10.415341011877862"><ele>51.0</ele><time>2026-04-19T10:33:00.872Z</time></trkpt><trkpt lat="42.77652185088884" lon="10.41545883581318"><ele>51.0</ele><time>2026-04-19T10:33:01.872Z</time></trkpt><trkpt lat="42.776452431908154" lon="10.415593377125264"><ele>51.0</ele><time>2026-04-19T10:33:02.872Z</time></trkpt><trkpt lat="42.776404216162334" lon="10.415732118847199"><ele>54.0</ele><time>2026-04-19T10:33:03.872Z</time></trkpt><trkpt lat="42.776407130989355" lon="10.415870516928983"><ele>57.0</ele><time>2026-04-19T10:33:04.872Z</time></trkpt><trkpt lat="42.77639646377681" lon="10.41599814629625"><ele>59.99999999999999</ele><time>2026-04-19T10:33:05.872Z</time></trkpt><trkpt lat="42.77647259907516" lon="10.416064736608872"><ele>63.0</ele><time>2026-04-19T10:33:06.872Z</time></trkpt><trkpt lat="42.776535462220416" lon="10.416163392295253"><ele>66.0</ele><time>2026-04-19T10:33:08.872Z</time></trkpt><trkpt lat="42.77644551249642" lon="10.416307856346297"><ele>65.5</ele><time>2026-04-19T10:33:11.872Z</time></trkpt><trkpt lat="42.77639890985801" lon="10.416372200077822"><ele>65.0</ele><time>2026-04-19T10:33:12.872Z</time></trkpt><trkpt lat="42.77632306449764" lon="10.416417807309585"><ele>64.5</ele><time>2026-04-19T10:33:13.872Z</time></trkpt><trkpt lat="42.77624173997018" lon="10.416483558422772"><ele>64.0</ele><time>2026-04-19T10:33:14.872Z</time></trkpt><trkpt lat="42.77615614424056" lon="10.416557539604288"><ele>63.5</ele><time>2026-04-19T10:33:15.872Z</time></trkpt><trkpt lat="42.77608206910567" lon="10.41660510942938"><ele>63.0</ele><time>2026-04-19T10:33:16.872Z</time></trkpt><trkpt lat="42.7760001534048" lon="10.416632534570773"><ele>63.0</ele><time>2026-04-19T10:33:17.872Z</time></trkpt><trkpt lat="42.77591434419496" lon="10.416648461953834"><ele>63.0</ele><time>2026-04-19T10:33:18.872Z</time></trkpt><trkpt lat="42.77584844501802" lon="10.416627029387131"><ele>63.0</ele><time>2026-04-19T10:33:19.872Z</time></trkpt><trkpt lat="42.77576594786808" lon="10.416619574868175"><ele>63.0</ele><time>2026-04-19T10:33:20.872Z</time></trkpt><trkpt lat="42.77568275496435" lon="10.416612057415868"><ele>63.0</ele><time>2026-04-19T10:33:21.872Z</time></trkpt><trkpt lat="42.775590716355694" lon="10.41661845995741"><ele>63.0</ele><time>2026-04-19T10:33:22.872Z</time></trkpt><trkpt lat="42.775491542822884" lon="10.416655266453992"><ele>63.0</ele><time>2026-04-19T10:33:23.872Z</time></trkpt><trkpt lat="42.77539651716633" lon="10.416715080509674"><ele>63.0</ele><time>2026-04-19T10:33:24.872Z</time></trkpt><trkpt lat="42.77530616002888" lon="10.416717811378819"><ele>63.0</ele><time>2026-04-19T10:33:25.872Z</time></trkpt><trkpt lat="42.77520057953171" lon="10.416733187656675"><ele>63.0</ele><time>2026-04-19T10:33:26.872Z</time></trkpt><trkpt lat="42.77510127552469" lon="10.416748772864512"><ele>63.0</ele><time>2026-04-19T10:33:27.872Z</time></trkpt><trkpt lat="42.77500107876719" lon="10.416753058499257"><ele>63.0</ele><time>2026-04-19T10:33:28.872Z</time></trkpt><trkpt lat="42.77490450041254" lon="10.416750715360005"><ele>63.0</ele><time>2026-04-19T10:33:29.872Z</time></trkpt><trkpt lat="42.77479535116481" lon="10.416752147617142"><ele>63.0</ele><time>2026-04-19T10:33:30.872Z</time></trkpt><trkpt lat="42.77469134246716" lon="10.416755211312053"><ele>63.0</ele><time>2026-04-19T10:33:31.872Z</time></trkpt><trkpt lat="42.7746069084581" lon="10.416756080429229"><ele>63.0</ele><time>2026-04-19T10:33:32.872Z</time></trkpt><trkpt lat="42.774522208706514" lon="10.416752152349396"><ele>63.0</ele><time>2026-04-19T10:33:33.872Z</time></trkpt><trkpt lat="42.774449332881815" lon="10.416746559012847"><ele>63.0</ele><time>2026-04-19T10:33:34.872Z</time></trkpt><trkpt lat="42.77437535338863" lon="10.416759904429592"><ele>63.0</ele><time>2026-04-19T10:33:35.872Z</time></trkpt><trkpt lat="42.77430790513955" lon="10.416746242204121"><ele>63.0</ele><time>2026-04-19T10:33:36.872Z</time></trkpt><trkpt lat="42.77424276893927" lon="10.416748554339751"><ele>63.0</ele><time>2026-04-19T10:33:37.872Z</time></trkpt><trkpt lat="42.774179178206616" lon="10.416769472913623"><ele>63.0</ele><time>2026-04-19T10:33:38.872Z</time></trkpt><trkpt lat="42.774112165411296" lon="10.416892685675595"><ele>61.666666666666664</ele><time>2026-04-19T10:33:40.872Z</time></trkpt><trkpt lat="42.77419589520107" lon="10.417029668396205"><ele>60.33333333333333</ele><time>2026-04-19T10:33:42.872Z</time></trkpt><trkpt lat="42.77425574636582" lon="10.41708591250593"><ele>59.0</ele><time>2026-04-19T10:33:43.872Z</time></trkpt><trkpt lat="42.77430974581841" lon="10.417142631604417"><ele>57.666666666666664</ele><time>2026-04-19T10:33:44.872Z</time></trkpt><trkpt lat="42.77435414961982" lon="10.417203426432847"><ele>56.33333333333333</ele><time>2026-04-19T10:33:45.872Z</time></trkpt><trkpt lat="42.774398515291026" lon="10.417278513021495"><ele>55.0</ele><time>2026-04-19T10:33:46.872Z</time></trkpt><trkpt lat="42.77447330880329" lon="10.417400230767973"><ele>54.49999999999999</ele><time>2026-04-19T10:33:48.872Z</time></trkpt><trkpt lat="42.77452954248133" lon="10.41748518984758"><ele>54.0</ele><time>2026-04-19T10:33:50.872Z</time></trkpt><trkpt lat="42.774575085069934" lon="10.417560011148737"><ele>53.5</ele><time>2026-04-19T10:33:54.871Z</time></trkpt><trkpt lat="42.77468296472238" lon="10.417586829370245"><ele>53.0</ele><time>2026-04-19T10:35:43.871Z</time></trkpt><trkpt lat="42.7747389375484" lon="10.417632558648192"><ele>52.49999999999999</ele><time>2026-04-19T10:35:44.871Z</time></trkpt><trkpt lat="42.77480413990108" lon="10.417687692508272"><ele>52.0</ele><time>2026-04-19T10:35:45.871Z</time></trkpt><trkpt lat="42.774863731194905" lon="10.41773131943502"><ele>52.0</ele><time>2026-04-19T10:35:46.871Z</time></trkpt><trkpt lat="42.77495286823675" lon="10.417790188739152"><ele>52.0</ele><time>2026-04-19T10:35:48.871Z</time></trkpt><trkpt lat="42.774960085904134" lon="10.417912383070272"><ele>52.0</ele><time>2026-04-19T10:35:50.871Z</time></trkpt><trkpt lat="42.77491208917833" lon="10.417983922968611"><ele>52.0</ele><time>2026-04-19T10:35:52.87Z</time></trkpt><trkpt lat="42.7747960641221" lon="10.417944468177422"><ele>52.0</ele><time>2026-04-19T10:35:54.87Z</time></trkpt><trkpt lat="42.774703327064834" lon="10.417898151666268"><ele>52.0</ele><time>2026-04-19T10:35:56.87Z</time></trkpt><trkpt lat="42.77464305412151" lon="10.417840582654659"><ele>52.0</ele><time>2026-04-19T10:35:58.87Z</time></trkpt><trkpt lat="42.77457627404716" lon="10.417829311728601"><ele>52.0</ele><time>2026-04-19T10:36:00.87Z</time></trkpt><trkpt lat="42.774609345720656" lon="10.41798612146436"><ele>52.0</ele><time>2026-04-19T10:36:03.87Z</time></trkpt><trkpt lat="42.774736563846375" lon="10.418010292580975"><ele>52.0</ele><time>2026-04-19T10:36:05.87Z</time></trkpt><trkpt lat="42.774807811723434" lon="10.418051880823663"><ele>48.2</ele><time>2026-04-19T10:36:06.87Z</time></trkpt><trkpt lat="42.774907222268666" lon="10.41811807679843"><ele>44.400000000000006</ele><time>2026-04-19T10:36:08.87Z</time></trkpt><trkpt lat="42.774990388390606" lon="10.418139824028657"><ele>40.599999999999994</ele><time>2026-04-19T10:36:10.87Z</time></trkpt><trkpt lat="42.77505092310102" lon="10.418224915487194"><ele>36.8</ele><time>2026-04-19T10:36:13.87Z</time></trkpt><trkpt lat="42.77505597125378" lon="10.41833919713904"><ele>33.0</ele><time>2026-04-19T10:36:15.87Z</time></trkpt><trkpt lat="42.77500022101978" lon="10.418442279329186"><ele>33.0</ele><time>2026-04-19T10:36:17.87Z</time></trkpt><trkpt lat="42.77506111407774" lon="10.418531930503939"><ele>33.0</ele><time>2026-04-19T10:36:19.87Z</time></trkpt><trkpt lat="42.77515344396244" lon="10.418575526188636"><ele>33.0</ele><time>2026-04-19T10:36:21.87Z</time></trkpt><trkpt lat="42.7751883785305" lon="10.41866748924087"><ele>33.0</ele><time>2026-04-19T10:36:23.87Z</time></trkpt><trkpt lat="42.77516444601138" lon="10.418819061612952"><ele>33.0</ele><time>2026-04-19T10:36:25.87Z</time></trkpt><trkpt lat="42.77515870057511" lon="10.418914735447057"><ele>33.0</ele><time>2026-04-19T10:36:26.87Z</time></trkpt><trkpt lat="42.7751652578623" lon="10.419007668453245"><ele>31.833333333333332</ele><time>2026-04-19T10:36:27.87Z</time></trkpt><trkpt lat="42.775182950300966" lon="10.419094661658068"><ele>30.666666666666664</ele><time>2026-04-19T10:36:28.87Z</time></trkpt><trkpt lat="42.77527495530911" lon="10.419235495966305"><ele>29.5</ele><time>2026-04-19T10:36:30.87Z</time></trkpt><trkpt lat="42.775346359560395" lon="10.419294680550479"><ele>28.333333333333332</ele><time>2026-04-19T10:36:31.87Z</time></trkpt><trkpt lat="42.77537754298681" lon="10.419378928255199"><ele>27.166666666666664</ele><time>2026-04-19T10:36:32.87Z</time></trkpt><trkpt lat="42.775415636124386" lon="10.419471291224232"><ele>26.0</ele><time>2026-04-19T10:36:33.87Z</time></trkpt><trkpt lat="42.77543429514394" lon="10.419570274626173"><ele>25.666666666666664</ele><time>2026-04-19T10:36:34.87Z</time></trkpt><trkpt lat="42.77545650145808" lon="10.419689638870603"><ele>25.333333333333332</ele><time>2026-04-19T10:36:35.87Z</time></trkpt><trkpt lat="42.77545648591522" lon="10.419799723181182"><ele>25.0</ele><time>2026-04-19T10:36:36.87Z</time></trkpt><trkpt lat="42.775422964437496" lon="10.419886587366069"><ele>24.666666666666664</ele><time>2026-04-19T10:36:37.87Z</time></trkpt><trkpt lat="42.775395806252305" lon="10.419977092011989"><ele>24.333333333333332</ele><time>2026-04-19T10:36:38.87Z</time></trkpt><trkpt lat="42.775372547906976" lon="10.420063762049098"><ele>24.0</ele><time>2026-04-19T10:36:39.87Z</time></trkpt><trkpt lat="42.77539044977958" lon="10.420226687968082"><ele>24.0</ele><time>2026-04-19T10:36:41.87Z</time></trkpt><trkpt lat="42.77534808865242" lon="10.420379986355362"><ele>24.0</ele><time>2026-04-19T10:36:43.87Z</time></trkpt><trkpt lat="42.775351274733076" lon="10.420528838660733"><ele>24.0</ele><time>2026-04-19T10:36:45.87Z</time></trkpt><trkpt lat="42.77539166704087" lon="10.420606003805645"><ele>24.0</ele><time>2026-04-19T10:36:46.87Z</time></trkpt><trkpt lat="42.77543472365209" lon="10.420717877482867"><ele>24.0</ele><time>2026-04-19T10:36:48.87Z</time></trkpt><trkpt lat="42.77537426541926" lon="10.420844330947153"><ele>23.666666666666668</ele><time>2026-04-19T10:36:50.87Z</time></trkpt><trkpt lat="42.77527738431506" lon="10.42093628074522"><ele>23.333333333333332</ele><time>2026-04-19T10:36:52.87Z</time></trkpt><trkpt lat="42.7752346459463" lon="10.421001517100962"><ele>23.0</ele><time>2026-04-19T10:36:53.87Z</time></trkpt><trkpt lat="42.775144223803565" lon="10.421025654852848"><ele>22.666666666666664</ele><time>2026-04-19T10:36:54.87Z</time></trkpt><trkpt lat="42.77509406744459" lon="10.421085660099727"><ele>22.333333333333332</ele><time>2026-04-19T10:36:55.87Z</time></trkpt><trkpt lat="42.77499775921723" lon="10.421136880400997"><ele>22.0</ele><time>2026-04-19T10:36:57.87Z</time></trkpt><trkpt lat="42.774872636372464" lon="10.421148584461978"><ele>20.833333333333332</ele><time>2026-04-19T10:36:59.869Z</time></trkpt><trkpt lat="42.774802916154385" lon="10.421119000406359"><ele>19.666666666666664</ele><time>2026-04-19T10:37:00.869Z</time></trkpt><trkpt lat="42.77472270310284" lon="10.42111120495906"><ele>18.5</ele><time>2026-04-19T10:37:01.869Z</time></trkpt><trkpt lat="42.77463173712724" lon="10.421096005469357"><ele>17.333333333333332</ele><time>2026-04-19T10:37:02.869Z</time></trkpt><trkpt lat="42.77455183403015" lon="10.421165629409458"><ele>16.166666666666668</ele><time>2026-04-19T10:37:03.869Z</time></trkpt><trkpt lat="42.77448799681123" lon="10.42125986855465"><ele>15.0</ele><time>2026-04-19T10:37:04.869Z</time></trkpt><trkpt lat="42.774407459240926" lon="10.42133889923764"><ele>17.0</ele><time>2026-04-19T10:37:05.869Z</time></trkpt><trkpt lat="42.774353875462346" lon="10.421401147859097"><ele>19.0</ele><time>2026-04-19T10:37:06.869Z</time></trkpt><trkpt lat="42.774280036609944" lon="10.421441786010645"><ele>21.0</ele><time>2026-04-19T10:37:07.869Z</time></trkpt><trkpt lat="42.77422336595352" lon="10.421480387481964"><ele>23.0</ele><time>2026-04-19T10:37:08.871Z</time></trkpt><trkpt lat="42.774199662090034" lon="10.421603582256921"><ele>25.0</ele><time>2026-04-19T10:37:09.871Z</time></trkpt><trkpt lat="42.77420191730471" lon="10.42176310399453"><ele>27.0</ele><time>2026-04-19T10:37:10.871Z</time></trkpt><trkpt lat="42.77416949600658" lon="10.42191082858198"><ele>27.0</ele><time>2026-04-19T10:37:11.871Z</time></trkpt><trkpt lat="42.774145737502344" lon="10.42202157206963"><ele>27.0</ele><time>2026-04-19T10:37:12.871Z</time></trkpt><trkpt lat="42.77412102809523" lon="10.422110625257213"><ele>27.0</ele><time>2026-04-19T10:37:13.871Z</time></trkpt><trkpt lat="42.77409486257271" lon="10.422223037490568"><ele>27.0</ele><time>2026-04-19T10:37:14.872Z</time></trkpt><trkpt lat="42.77409303962801" lon="10.422340877510674"><ele>27.0</ele><time>2026-04-19T10:37:15.872Z</time></trkpt><trkpt lat="42.77412212650109" lon="10.422432515201251"><ele>27.0</ele><time>2026-04-19T10:37:16.871Z</time></trkpt><trkpt lat="42.774148442257705" lon="10.422526979280397"><ele>27.400000000000002</ele><time>2026-04-19T10:37:17.871Z</time></trkpt><trkpt lat="42.77420167832642" lon="10.422620803253844"><ele>27.800000000000004</ele><time>2026-04-19T10:37:18.871Z</time></trkpt><trkpt lat="42.77426596163666" lon="10.422741650026724"><ele>28.2</ele><time>2026-04-19T10:37:19.871Z</time></trkpt><trkpt lat="42.774308238753385" lon="10.422867069001455"><ele>28.6</ele><time>2026-04-19T10:37:20.871Z</time></trkpt><trkpt lat="42.7743524274156" lon="10.423008867176504"><ele>29.0</ele><time>2026-04-19T10:37:21.871Z</time></trkpt><trkpt lat="42.774391351914964" lon="10.423135190792165"><ele>34.8</ele><time>2026-04-19T10:37:22.871Z</time></trkpt><trkpt lat="42.774415609265304" lon="10.423222355185212"><ele>40.599999999999994</ele><time>2026-04-19T10:37:23.871Z</time></trkpt><trkpt lat="42.77445307262551" lon="10.423390858557934"><ele>46.4</ele><time>2026-04-19T10:37:25.871Z</time></trkpt><trkpt lat="42.77447633028829" lon="10.42348275650706"><ele>52.199999999999996</ele><time>2026-04-19T10:37:26.871Z</time></trkpt><trkpt lat="42.77449956209273" lon="10.423563533693327"><ele>58.0</ele><time>2026-04-19T10:37:27.871Z</time></trkpt><trkpt lat="42.77454120223024" lon="10.42372104928264"><ele>57.99999999999999</ele><time>2026-04-19T10:37:29.871Z</time></trkpt><trkpt lat="42.7745796296286" lon="10.423836374061572"><ele>58.0</ele><time>2026-04-19T10:37:31.871Z</time></trkpt><trkpt lat="42.774684669777415" lon="10.423766563166973"><ele>58.0</ele><time>2026-04-19T10:37:37.871Z</time></trkpt><trkpt lat="42.774744782513906" lon="10.423712011274475"><ele>58.0</ele><time>2026-04-19T10:37:38.871Z</time></trkpt><trkpt lat="42.77483888345805" lon="10.423669739792306"><ele>57.99999999999999</ele><time>2026-04-19T10:37:40.871Z</time></trkpt><trkpt lat="42.77489763922655" lon="10.423625494437122"><ele>58.0</ele><time>2026-04-19T10:37:42.871Z</time></trkpt><trkpt lat="42.77496489937194" lon="10.423544707404929"><ele>57.99999999999999</ele><time>2026-04-19T10:37:44.871Z</time></trkpt><trkpt lat="42.77503686960578" lon="10.423489864695421"><ele>58.0</ele><time>2026-04-19T10:37:47.871Z</time></trkpt><trkpt lat="42.77513565092881" lon="10.423438395301647"><ele>58.0</ele><time>2026-04-19T10:37:59.871Z</time></trkpt><trkpt lat="42.77520480854275" lon="10.42340271539115"><ele>58.0</ele><time>2026-04-19T10:38:00.871Z</time></trkpt><trkpt lat="42.775281158236204" lon="10.423359956413645"><ele>57.99999999999999</ele><time>2026-04-19T10:38:01.871Z</time></trkpt><trkpt lat="42.77536473301636" lon="10.423313992147612"><ele>58.0</ele><time>2026-04-19T10:38:02.871Z</time></trkpt><trkpt lat="42.77545529926942" lon="10.423265776368094"><ele>62.0</ele><time>2026-04-19T10:38:03.871Z</time></trkpt><trkpt lat="42.775559369167865" lon="10.423196535763221"><ele>66.0</ele><time>2026-04-19T10:38:04.871Z</time></trkpt><trkpt lat="42.775672732801816" lon="10.423138459530703"><ele>70.0</ele><time>2026-04-19T10:38:05.871Z</time></trkpt><trkpt lat="42.775757044712755" lon="10.423100653848048"><ele>74.0</ele><time>2026-04-19T10:38:06.871Z</time></trkpt><trkpt lat="42.77584141521631" lon="10.42306760527444"><ele>78.0</ele><time>2026-04-19T10:38:07.871Z</time></trkpt><trkpt lat="42.77592970348765" lon="10.4230359051258"><ele>78.0</ele><time>2026-04-19T10:38:08.871Z</time></trkpt><trkpt lat="42.776015008210145" lon="10.423008292324528"><ele>78.0</ele><time>2026-04-19T10:38:09.871Z</time></trkpt><trkpt lat="42.77608834332575" lon="10.422990189032923"><ele>78.0</ele><time>2026-04-19T10:38:10.871Z</time></trkpt><trkpt lat="42.77615662377908" lon="10.422969298633722"><ele>78.0</ele><time>2026-04-19T10:38:11.87Z</time></trkpt><trkpt lat="42.7762419695097" lon="10.422962011956331"><ele>78.0</ele><time>2026-04-19T10:38:12.87Z</time></trkpt><trkpt lat="42.77633280350486" lon="10.422943563292623"><ele>78.0</ele><time>2026-04-19T10:38:13.87Z</time></trkpt><trkpt lat="42.776429535466136" lon="10.42293440270286"><ele>78.33333333333333</ele><time>2026-04-19T10:38:14.87Z</time></trkpt><trkpt lat="42.77651098096152" lon="10.422942254531932"><ele>78.66666666666667</ele><time>2026-04-19T10:38:15.87Z</time></trkpt><trkpt lat="42.77657740120748" lon="10.422982137809246"><ele>79.0</ele><time>2026-04-19T10:38:16.87Z</time></trkpt><trkpt lat="42.77663951493773" lon="10.423000225083339"><ele>79.33333333333334</ele><time>2026-04-19T10:38:17.87Z</time></trkpt><trkpt lat="42.776750200948925" lon="10.423020127989963"><ele>79.66666666666667</ele><time>2026-04-19T10:38:19.87Z</time></trkpt><trkpt lat="42.776817159627804" lon="10.42306132022589"><ele>80.0</ele><time>2026-04-19T10:38:20.87Z</time></trkpt><trkpt lat="42.776898603443286" lon="10.423096923337498"><ele>80.0</ele><time>2026-04-19T10:38:21.87Z</time></trkpt><trkpt lat="42.776986709251375" lon="10.423135796088062"><ele>80.0</ele><time>2026-04-19T10:38:22.87Z</time></trkpt><trkpt lat="42.777067650017685" lon="10.423192587529003"><ele>80.0</ele><time>2026-04-19T10:38:23.87Z</time></trkpt><trkpt lat="42.77713735250496" lon="10.423275928980814"><ele>80.0</ele><time>2026-04-19T10:38:24.87Z</time></trkpt><trkpt lat="42.77718194890555" lon="10.42339439776936"><ele>80.0</ele><time>2026-04-19T10:38:25.87Z</time></trkpt><trkpt lat="42.77724304418178" lon="10.423468056120718"><ele>80.0</ele><time>2026-04-19T10:38:26.868Z</time></trkpt><trkpt lat="42.77732223157773" lon="10.423537566130014"><ele>80.0</ele><time>2026-04-19T10:38:27.867Z</time></trkpt><trkpt lat="42.77740289918814" lon="10.423629920431921"><ele>80.0</ele><time>2026-04-19T10:38:28.865Z</time></trkpt><trkpt lat="42.7774734619098" lon="10.423694042902435"><ele>80.0</ele><time>2026-04-19T10:38:29.864Z</time></trkpt><trkpt lat="42.77755895648133" lon="10.423768077521247"><ele>80.0</ele><time>2026-04-19T10:38:30.863Z</time></trkpt><trkpt lat="42.777637403984286" lon="10.423815592675872"><ele>82.16666666666667</ele><time>2026-04-19T10:38:31.862Z</time></trkpt><trkpt lat="42.777716126181176" lon="10.423835648851316"><ele>84.33333333333334</ele><time>2026-04-19T10:38:32.861Z</time></trkpt><trkpt lat="42.77779129563318" lon="10.423797929224266"><ele>86.5</ele><time>2026-04-19T10:38:33.86Z</time></trkpt><trkpt lat="42.77779217760102" lon="10.423687643752563"><ele>88.66666666666667</ele><time>2026-04-19T10:38:34.859Z</time></trkpt><trkpt lat="42.77784687127432" lon="10.423617417062907"><ele>90.83333333333333</ele><time>2026-04-19T10:38:35.858Z</time></trkpt><trkpt lat="42.77789595708273" lon="10.423552028157493"><ele>93.0</ele><time>2026-04-19T10:38:36.857Z</time></trkpt><trkpt lat="42.77795666363357" lon="10.423487311287523"><ele>93.0</ele><time>2026-04-19T10:38:37.856Z</time></trkpt><trkpt lat="42.778048564557345" lon="10.423450811150744"><ele>93.0</ele><time>2026-04-19T10:38:38.855Z</time></trkpt><trkpt lat="42.778117677524705" lon="10.423411071937062"><ele>93.0</ele><time>2026-04-19T10:38:39.855Z</time></trkpt><trkpt lat="42.778202779421015" lon="10.423394934811606"><ele>93.0</ele><time>2026-04-19T10:38:40.854Z</time></trkpt><trkpt lat="42.77828992220462" lon="10.423388649346634"><ele>93.0</ele><time>2026-04-19T10:38:41.853Z</time></trkpt><trkpt lat="42.77838188459244" lon="10.42339074738196"><ele>93.0</ele><time>2026-04-19T10:38:42.853Z</time></trkpt><trkpt lat="42.77848325459001" lon="10.423386470442196"><ele>94.33333333333333</ele><time>2026-04-19T10:38:43.852Z</time></trkpt><trkpt lat="42.778572659012184" lon="10.423351686906269"><ele>95.66666666666666</ele><time>2026-04-19T10:38:44.852Z</time></trkpt><trkpt lat="42.77865134680399" lon="10.423311490597605"><ele>97.0</ele><time>2026-04-19T10:38:45.851Z</time></trkpt><trkpt lat="42.77872505997062" lon="10.423267674207676"><ele>98.33333333333333</ele><time>2026-04-19T10:38:46.851Z</time></trkpt><trkpt lat="42.778795564730984" lon="10.423214115820087"><ele>99.66666666666666</ele><time>2026-04-19T10:38:47.85Z</time></trkpt><trkpt lat="42.778871088975365" lon="10.42318582738263"><ele>101.0</ele><time>2026-04-19T10:38:48.85Z</time></trkpt><trkpt lat="42.77894034835372" lon="10.423148082327634"><ele>100.99999999999999</ele><time>2026-04-19T10:38:49.849Z</time></trkpt><trkpt lat="42.77902076341663" lon="10.423141612645352"><ele>101.0</ele><time>2026-04-19T10:38:50.849Z</time></trkpt><trkpt lat="42.77909195970413" lon="10.423177668907627"><ele>101.0</ele><time>2026-04-19T10:38:51.849Z</time></trkpt><trkpt lat="42.77916784203633" lon="10.423216988510267"><ele>101.0</ele><time>2026-04-19T10:38:52.848Z</time></trkpt><trkpt lat="42.779247671000945" lon="10.423267372703487"><ele>100.99999999999999</ele><time>2026-04-19T10:38:53.848Z</time></trkpt><trkpt lat="42.77932272469307" lon="10.423322106299283"><ele>101.0</ele><time>2026-04-19T10:38:54.848Z</time></trkpt><trkpt lat="42.77939939454361" lon="10.42337550284469"><ele>100.16666666666666</ele><time>2026-04-19T10:38:55.848Z</time></trkpt><trkpt lat="42.77947271095922" lon="10.423410338120172"><ele>99.33333333333333</ele><time>2026-04-19T10:38:56.847Z</time></trkpt><trkpt lat="42.77954559065824" lon="10.423459040894878"><ele>98.5</ele><time>2026-04-19T10:38:57.847Z</time></trkpt><trkpt lat="42.77961582980031" lon="10.423526225265606"><ele>97.66666666666666</ele><time>2026-04-19T10:38:58.847Z</time></trkpt><trkpt lat="42.77970627153536" lon="10.423549412006546"><ele>96.83333333333333</ele><time>2026-04-19T10:38:59.847Z</time></trkpt><trkpt lat="42.77979808017208" lon="10.423561901079864"><ele>96.0</ele><time>2026-04-19T10:39:00.847Z</time></trkpt><trkpt lat="42.779882134825876" lon="10.423598850509093"><ele>96.0</ele><time>2026-04-19T10:39:01.846Z</time></trkpt><trkpt lat="42.77997544494697" lon="10.423656750276852"><ele>96.0</ele><time>2026-04-19T10:39:02.846Z</time></trkpt><trkpt lat="42.78006306153697" lon="10.423703169307164"><ele>96.0</ele><time>2026-04-19T10:39:03.846Z</time></trkpt><trkpt lat="42.78014931159213" lon="10.423739574822962"><ele>96.0</ele><time>2026-04-19T10:39:04.846Z</time></trkpt><trkpt lat="42.78023013056624" lon="10.42378778324914"><ele>96.0</ele><time>2026-04-19T10:39:05.846Z</time></trkpt><trkpt lat="42.78031958553877" lon="10.423859572144002"><ele>101.0</ele><time>2026-04-19T10:39:06.846Z</time></trkpt><trkpt lat="42.780395233765844" lon="10.423885304616636"><ele>106.0</ele><time>2026-04-19T10:39:07.845Z</time></trkpt><trkpt lat="42.78047851742574" lon="10.423904991932279"><ele>111.0</ele><time>2026-04-19T10:39:08.845Z</time></trkpt><trkpt lat="42.780579820440394" lon="10.423927137699245"><ele>116.0</ele><time>2026-04-19T10:39:09.845Z</time></trkpt><trkpt lat="42.78067972558192" lon="10.42394750108625"><ele>121.0</ele><time>2026-04-19T10:39:10.845Z</time></trkpt><trkpt lat="42.78076601008352" lon="10.423960067586458"><ele>121.00000000000001</ele><time>2026-04-19T10:39:11.845Z</time></trkpt><trkpt lat="42.78084980276832" lon="10.423981910339672"><ele>121.0</ele><time>2026-04-19T10:39:12.845Z</time></trkpt><trkpt lat="42.780934244691444" lon="10.423993259950807"><ele>121.0</ele><time>2026-04-19T10:39:13.845Z</time></trkpt><trkpt lat="42.78101460348398" lon="10.423974086242383"><ele>121.0</ele><time>2026-04-19T10:39:14.846Z</time></trkpt><trkpt lat="42.781098356395134" lon="10.42397539557813"><ele>121.00000000000001</ele><time>2026-04-19T10:39:15.846Z</time></trkpt><trkpt lat="42.78117978494211" lon="10.423958111803916"><ele>121.0</ele><time>2026-04-19T10:39:16.845Z</time></trkpt><trkpt lat="42.78125717101069" lon="10.423942262010684"><ele>122.66666666666667</ele><time>2026-04-19T10:39:17.845Z</time></trkpt><trkpt lat="42.78133346167326" lon="10.423930500151814"><ele>124.33333333333334</ele><time>2026-04-19T10:39:18.845Z</time></trkpt><trkpt lat="42.781414927751875" lon="10.423922033493088"><ele>126.0</ele><time>2026-04-19T10:39:19.845Z</time></trkpt><trkpt lat="42.78149318119365" lon="10.423897531220327"><ele>127.66666666666666</ele><time>2026-04-19T10:39:20.845Z</time></trkpt><trkpt lat="42.78158115625414" lon="10.423869685702225"><ele>129.33333333333331</ele><time>2026-04-19T10:39:21.845Z</time></trkpt><trkpt lat="42.78165853544672" lon="10.423804609464685"><ele>131.0</ele><time>2026-04-19T10:39:22.846Z</time></trkpt><trkpt lat="42.78176426373518" lon="10.42374984854071"><ele>131.16666666666666</ele><time>2026-04-19T10:39:24.845Z</time></trkpt><trkpt lat="42.78176838350748" lon="10.423873617483647"><ele>131.33333333333331</ele><time>2026-04-19T10:39:32.845Z</time></trkpt><trkpt lat="42.78170710124065" lon="10.423901918260587"><ele>131.5</ele><time>2026-04-19T10:39:33.845Z</time></trkpt><trkpt lat="42.78162905018674" lon="10.42401414633687"><ele>131.66666666666666</ele><time>2026-04-19T10:39:35.845Z</time></trkpt><trkpt lat="42.78156550427238" lon="10.42410389556825"><ele>131.83333333333334</ele><time>2026-04-19T10:39:37.845Z</time></trkpt><trkpt lat="42.781514134238165" lon="10.424200814728005"><ele>132.0</ele><time>2026-04-19T10:39:40.845Z</time></trkpt><trkpt lat="42.78148741992237" lon="10.424281870864856"><ele>132.0</ele><time>2026-04-19T10:39:42.845Z</time></trkpt><trkpt lat="42.781478398175835" lon="10.424367540042605"><ele>132.0</ele><time>2026-04-19T10:39:44.845Z</time></trkpt><trkpt lat="42.78157266363025" lon="10.42443620837707"><ele>132.0</ele><time>2026-04-19T10:39:45.845Z</time></trkpt><trkpt lat="42.781630092918576" lon="10.424535841014247"><ele>132.0</ele><time>2026-04-19T10:39:47.845Z</time></trkpt><trkpt lat="42.78169775058017" lon="10.42461045991308"><ele>132.0</ele><time>2026-04-19T10:39:49.845Z</time></trkpt><trkpt lat="42.78176568805434" lon="10.42463259208644"><ele>132.0</ele><time>2026-04-19T10:39:50.845Z</time></trkpt><trkpt lat="42.781855173966335" lon="10.42453894605754"><ele>135.16666666666666</ele><time>2026-04-19T10:39:51.845Z</time></trkpt><trkpt lat="42.78192357959735" lon="10.424482374389019"><ele>138.33333333333334</ele><time>2026-04-19T10:39:52.845Z</time></trkpt><trkpt lat="42.782011694221694" lon="10.42445074202007"><ele>141.5</ele><time>2026-04-19T10:39:53.845Z</time></trkpt><trkpt lat="42.78210900591275" lon="10.424395127849618"><ele>144.66666666666669</ele><time>2026-04-19T10:39:54.845Z</time></trkpt><trkpt lat="42.782186149454404" lon="10.424363153695914"><ele>147.83333333333334</ele><time>2026-04-19T10:39:55.845Z</time></trkpt><trkpt lat="42.78225055763264" lon="10.424346652797002"><ele>151.0</ele><time>2026-04-19T10:39:56.845Z</time></trkpt><trkpt lat="42.782314997842555" lon="10.424332741552462"><ele>151.00000000000003</ele><time>2026-04-19T10:39:57.845Z</time></trkpt><trkpt lat="42.78238459227148" lon="10.424331174120118"><ele>151.0</ele><time>2026-04-19T10:39:58.845Z</time></trkpt><trkpt lat="42.78245532538666" lon="10.424339704967062"><ele>151.0</ele><time>2026-04-19T10:39:59.845Z</time></trkpt><trkpt lat="42.782508630380406" lon="10.424393985715115"><ele>151.0</ele><time>2026-04-19T10:40:00.845Z</time></trkpt><trkpt lat="42.7825361602594" lon="10.424485930779896"><ele>151.0</ele><time>2026-04-19T10:40:01.845Z</time></trkpt><trkpt lat="42.78255374636193" lon="10.424580118686228"><ele>151.00000000000003</ele><time>2026-04-19T10:40:02.845Z</time></trkpt><trkpt lat="42.782592588623075" lon="10.424698110774788"><ele>151.0</ele><time>2026-04-19T10:40:03.845Z</time></trkpt><trkpt lat="42.7826095020424" lon="10.424828268672117"><ele>152.16666666666669</ele><time>2026-04-19T10:40:04.844Z</time></trkpt><trkpt lat="42.78260874125619" lon="10.424940102392004"><ele>153.33333333333334</ele><time>2026-04-19T10:40:05.844Z</time></trkpt><trkpt lat="42.78263344611009" lon="10.425041369216268"><ele>154.5</ele><time>2026-04-19T10:40:06.844Z</time></trkpt><trkpt lat="42.78268592550035" lon="10.425128605691315"><ele>155.66666666666666</ele><time>2026-04-19T10:40:07.844Z</time></trkpt><trkpt lat="42.78274136595623" lon="10.42520128595067"><ele>156.83333333333331</ele><time>2026-04-19T10:40:08.844Z</time></trkpt><trkpt lat="42.78281341428239" lon="10.42525899466472"><ele>158.0</ele><time>2026-04-19T10:40:09.844Z</time></trkpt><trkpt lat="42.78287531192203" lon="10.425320856303404"><ele>158.0</ele><time>2026-04-19T10:40:10.844Z</time></trkpt><trkpt lat="42.7829445940732" lon="10.425381753820893"><ele>158.0</ele><time>2026-04-19T10:40:11.844Z</time></trkpt><trkpt lat="42.78303067741521" lon="10.425406155581317"><ele>158.0</ele><time>2026-04-19T10:40:12.844Z</time></trkpt><trkpt lat="42.78311564139383" lon="10.425420199201106"><ele>158.0</ele><time>2026-04-19T10:40:13.844Z</time></trkpt><trkpt lat="42.78319160285463" lon="10.425438227486703"><ele>158.0</ele><time>2026-04-19T10:40:14.844Z</time></trkpt><trkpt lat="42.783276306960104" lon="10.425434491382578"><ele>158.0</ele><time>2026-04-19T10:40:15.844Z</time></trkpt><trkpt lat="42.78336120428932" lon="10.425429470691807"><ele>158.0</ele><time>2026-04-19T10:40:16.844Z</time></trkpt><trkpt lat="42.78346159679205" lon="10.425434290275827"><ele>158.0</ele><time>2026-04-19T10:40:17.844Z</time></trkpt><trkpt lat="42.78356460607487" lon="10.42545971607207"><ele>158.0</ele><time>2026-04-19T10:40:18.844Z</time></trkpt><trkpt lat="42.78363082886083" lon="10.425520224087625"><ele>158.0</ele><time>2026-04-19T10:40:19.844Z</time></trkpt><trkpt lat="42.783652210117054" lon="10.425636949423138"><ele>158.0</ele><time>2026-04-19T10:40:20.844Z</time></trkpt><trkpt lat="42.783662875099374" lon="10.425746845646996"><ele>158.0</ele><time>2026-04-19T10:40:21.844Z</time></trkpt><trkpt lat="42.78368055508902" lon="10.425881179521582"><ele>158.0</ele><time>2026-04-19T10:40:22.844Z</time></trkpt><trkpt lat="42.783708964157874" lon="10.426024016853143"><ele>158.0</ele><time>2026-04-19T10:40:23.844Z</time></trkpt><trkpt lat="42.78371986662916" lon="10.4261584496056"><ele>158.0</ele><time>2026-04-19T10:40:24.844Z</time></trkpt><trkpt lat="42.78373029195987" lon="10.426293359852135"><ele>158.0</ele><time>2026-04-19T10:40:25.844Z</time></trkpt><trkpt lat="42.7837346265075" lon="10.426401996799427"><ele>158.0</ele><time>2026-04-19T10:40:26.844Z</time></trkpt><trkpt lat="42.783737916329606" lon="10.426490134259968"><ele>158.0</ele><time>2026-04-19T10:40:27.844Z</time></trkpt><trkpt lat="42.78380266763649" lon="10.426580897033638"><ele>158.0</ele><time>2026-04-19T10:40:29.844Z</time></trkpt><trkpt lat="42.78385146039207" lon="10.42651390175518"><ele>158.0</ele><time>2026-04-19T10:40:31.844Z</time></trkpt><trkpt lat="42.783883752746014" lon="10.426436644358658"><ele>158.0</ele><time>2026-04-19T10:40:32.844Z</time></trkpt><trkpt lat="42.78390227611848" lon="10.426321059556658"><ele>158.0</ele><time>2026-04-19T10:40:34.844Z</time></trkpt><trkpt lat="42.78391226353632" lon="10.426177946366536"><ele>158.0</ele><time>2026-04-19T10:40:36.844Z</time></trkpt><trkpt lat="42.78390344355387" lon="10.426069049292703"><ele>158.0</ele><time>2026-04-19T10:40:37.844Z</time></trkpt><trkpt lat="42.7838884426818" lon="10.425963639731583"><ele>158.0</ele><time>2026-04-19T10:40:38.844Z</time></trkpt><trkpt lat="42.78386803132773" lon="10.4258363545233"><ele>158.0</ele><time>2026-04-19T10:40:39.844Z</time></trkpt><trkpt lat="42.78384754994553" lon="10.425696564559225"><ele>158.0</ele><time>2026-04-19T10:40:40.844Z</time></trkpt><trkpt lat="42.7838224776006" lon="10.42555073858254"><ele>162.0</ele><time>2026-04-19T10:40:41.844Z</time></trkpt><trkpt lat="42.783814487156484" lon="10.425409459481019"><ele>166.0</ele><time>2026-04-19T10:40:42.844Z</time></trkpt><trkpt lat="42.783835160087335" lon="10.425282280419683"><ele>170.0</ele><time>2026-04-19T10:40:43.844Z</time></trkpt><trkpt lat="42.78382514627846" lon="10.42516892750664"><ele>174.0</ele><time>2026-04-19T10:40:44.844Z</time></trkpt><trkpt lat="42.78383211641361" lon="10.425064643262546"><ele>178.0</ele><time>2026-04-19T10:40:45.844Z</time></trkpt><trkpt lat="42.78381809489114" lon="10.424923338910837"><ele>178.0</ele><time>2026-04-19T10:40:47.844Z</time></trkpt><trkpt lat="42.7837405123608" lon="10.424835821024287"><ele>178.0</ele><time>2026-04-19T10:40:49.844Z</time></trkpt><trkpt lat="42.783623600270175" lon="10.424893295457878"><ele>178.0</ele><time>2026-04-19T10:40:50.844Z</time></trkpt><trkpt lat="42.78352504197406" lon="10.424895249292351"><ele>178.0</ele><time>2026-04-19T10:40:51.844Z</time></trkpt><trkpt lat="42.783424743972866" lon="10.424900480219149"><ele>178.0</ele><time>2026-04-19T10:40:52.844Z</time></trkpt><trkpt lat="42.783363156180776" lon="10.424854209604561"><ele>177.2</ele><time>2026-04-19T10:40:53.843Z</time></trkpt><trkpt lat="42.783287792879385" lon="10.42479919913328"><ele>176.4</ele><time>2026-04-19T10:40:54.843Z</time></trkpt><trkpt lat="42.78323914960326" lon="10.424696046368126"><ele>175.6</ele><time>2026-04-19T10:40:55.843Z</time></trkpt><trkpt lat="42.78323585852395" lon="10.42457491983853"><ele>174.79999999999998</ele><time>2026-04-19T10:40:56.843Z</time></trkpt><trkpt lat="42.783246045700324" lon="10.424446021983107"><ele>174.0</ele><time>2026-04-19T10:40:57.843Z</time></trkpt><trkpt lat="42.78325671106783" lon="10.424316557197654"><ele>174.0</ele><time>2026-04-19T10:40:58.843Z</time></trkpt><trkpt lat="42.7832642961423" lon="10.424224487007438"><ele>174.0</ele><time>2026-04-19T10:40:59.843Z</time></trkpt><trkpt lat="42.78324769774399" lon="10.424132073322635"><ele>174.0</ele><time>2026-04-19T10:41:01.843Z</time></trkpt><trkpt lat="42.7832024229504" lon="10.423943778875245"><ele>174.0</ele><time>2026-04-19T10:41:03.843Z</time></trkpt><trkpt lat="42.783159885952934" lon="10.423837800612741"><ele>174.0</ele><time>2026-04-19T10:41:04.843Z</time></trkpt><trkpt lat="42.783103856638824" lon="10.423745955605428"><ele>175.83333333333334</ele><time>2026-04-19T10:41:05.843Z</time></trkpt><trkpt lat="42.78304991982317" lon="10.423639583024993"><ele>177.66666666666666</ele><time>2026-04-19T10:41:06.843Z</time></trkpt><trkpt lat="42.78302003980273" lon="10.423547778863316"><ele>179.5</ele><time>2026-04-19T10:41:07.843Z</time></trkpt><trkpt lat="42.78296336450025" lon="10.423485016201136"><ele>181.33333333333331</ele><time>2026-04-19T10:41:08.843Z</time></trkpt><trkpt lat="42.78293250354512" lon="10.423393960057973"><ele>183.16666666666666</ele><time>2026-04-19T10:41:09.843Z</time></trkpt><trkpt lat="42.78292519893613" lon="10.423302002255836"><ele>185.0</ele><time>2026-04-19T10:41:10.843Z</time></trkpt><trkpt lat="42.78294766159873" lon="10.423203820019364"><ele>185.0</ele><time>2026-04-19T10:41:11.843Z</time></trkpt><trkpt lat="42.78297175231921" lon="10.423098351440863"><ele>185.0</ele><time>2026-04-19T10:41:12.843Z</time></trkpt><trkpt lat="42.782967300829185" lon="10.423004456859701"><ele>185.0</ele><time>2026-04-19T10:41:13.843Z</time></trkpt><trkpt lat="42.782963399219696" lon="10.422890605981987"><ele>185.0</ele><time>2026-04-19T10:41:14.843Z</time></trkpt><trkpt lat="42.78290975910752" lon="10.422770970619482"><ele>185.0</ele><time>2026-04-19T10:41:15.843Z</time></trkpt><trkpt lat="42.782868193214206" lon="10.422696357510386"><ele>185.0</ele><time>2026-04-19T10:41:16.843Z</time></trkpt><trkpt lat="42.78282703677793" lon="10.42262620780001"><ele>186.0</ele><time>2026-04-19T10:41:17.843Z</time></trkpt><trkpt lat="42.782780402812186" lon="10.422565241863312"><ele>187.0</ele><time>2026-04-19T10:41:18.843Z</time></trkpt><trkpt lat="42.7827373951855" lon="10.422450933970898"><ele>188.0</ele><time>2026-04-19T10:41:20.844Z</time></trkpt><trkpt lat="42.78269185347868" lon="10.422360345468254"><ele>189.0</ele><time>2026-04-19T10:41:22.843Z</time></trkpt><trkpt lat="42.78265357900016" lon="10.42227697364836"><ele>190.0</ele><time>2026-04-19T10:41:26.843Z</time></trkpt><trkpt lat="42.782621392773265" lon="10.422197574861809"><ele>191.0</ele><time>2026-04-19T10:41:28.844Z</time></trkpt><trkpt lat="42.78257084586582" lon="10.422095403202464"><ele>188.33333333333331</ele><time>2026-04-19T10:41:30.843Z</time></trkpt><trkpt lat="42.782530832234215" lon="10.422020479175185"><ele>185.66666666666666</ele><time>2026-04-19T10:41:31.843Z</time></trkpt><trkpt lat="42.78248124921172" lon="10.421933989460314"><ele>183.0</ele><time>2026-04-19T10:41:32.844Z</time></trkpt><trkpt lat="42.782433754367055" lon="10.421866596453281"><ele>180.33333333333334</ele><time>2026-04-19T10:41:33.844Z</time></trkpt><trkpt lat="42.782407143905374" lon="10.421766839665839"><ele>177.66666666666669</ele><time>2026-04-19T10:41:34.844Z</time></trkpt><trkpt lat="42.78233444359386" lon="10.421720553032733"><ele>175.0</ele><time>2026-04-19T10:41:35.844Z</time></trkpt><trkpt lat="42.782266841875185" lon="10.421575011698126"><ele>175.0</ele><time>2026-04-19T10:41:37.844Z</time></trkpt><trkpt lat="42.78224669247866" lon="10.421460699477125"><ele>175.0</ele><time>2026-04-19T10:41:38.844Z</time></trkpt><trkpt lat="42.78221141909484" lon="10.421334037982922"><ele>175.0</ele><time>2026-04-19T10:41:39.844Z</time></trkpt><trkpt lat="42.78218294658637" lon="10.421217359625041"><ele>175.0</ele><time>2026-04-19T10:41:40.844Z</time></trkpt><trkpt lat="42.7821589594695" lon="10.421117673239863"><ele>175.0</ele><time>2026-04-19T10:41:41.844Z</time></trkpt><trkpt lat="42.78213946826462" lon="10.421012777257877"><ele>175.0</ele><time>2026-04-19T10:41:42.844Z</time></trkpt><trkpt lat="42.78212763312159" lon="10.420895251507899"><ele>175.2</ele><time>2026-04-19T10:41:43.844Z</time></trkpt><trkpt lat="42.782154372829886" lon="10.420778020697693"><ele>175.4</ele><time>2026-04-19T10:41:44.844Z</time></trkpt><trkpt lat="42.78220296091875" lon="10.420658293381054"><ele>175.60000000000002</ele><time>2026-04-19T10:41:45.844Z</time></trkpt><trkpt lat="42.78226801859784" lon="10.420544779848852"><ele>175.8</ele><time>2026-04-19T10:41:46.844Z</time></trkpt><trkpt lat="42.78233731522994" lon="10.42042044181058"><ele>176.0</ele><time>2026-04-19T10:41:47.843Z</time></trkpt><trkpt lat="42.7824023082068" lon="10.420308450730607"><ele>177.60000000000002</ele><time>2026-04-19T10:41:48.843Z</time></trkpt><trkpt lat="42.78247837490269" lon="10.420229215796304"><ele>179.2</ele><time>2026-04-19T10:41:49.843Z</time></trkpt><trkpt lat="42.78256206311162" lon="10.420152603292122"><ele>180.8</ele><time>2026-04-19T10:41:50.843Z</time></trkpt><trkpt lat="42.78265751898969" lon="10.420060249656228"><ele>182.39999999999998</ele><time>2026-04-19T10:41:51.843Z</time></trkpt><trkpt lat="42.782751589776396" lon="10.419971541325035"><ele>184.0</ele><time>2026-04-19T10:41:52.843Z</time></trkpt><trkpt lat="42.78285115624391" lon="10.419887581710656"><ele>184.0</ele><time>2026-04-19T10:41:53.843Z</time></trkpt><trkpt lat="42.7829487525296" lon="10.419817459534336"><ele>184.0</ele><time>2026-04-19T10:41:54.843Z</time></trkpt><trkpt lat="42.78305420723933" lon="10.419772343948038"><ele>184.0</ele><time>2026-04-19T10:41:55.843Z</time></trkpt><trkpt lat="42.783143888404794" lon="10.419708937376932"><ele>184.0</ele><time>2026-04-19T10:41:56.843Z</time></trkpt><trkpt lat="42.78322407219428" lon="10.419636671150188"><ele>184.0</ele><time>2026-04-19T10:41:57.843Z</time></trkpt><trkpt lat="42.783281028475685" lon="10.419527771853714"><ele>181.39999999999998</ele><time>2026-04-19T10:41:58.843Z</time></trkpt><trkpt lat="42.783323722907056" lon="10.419430729648953"><ele>178.8</ele><time>2026-04-19T10:41:59.843Z</time></trkpt><trkpt lat="42.783339675655746" lon="10.419284744034929"><ele>176.2</ele><time>2026-04-19T10:42:00.843Z</time></trkpt><trkpt lat="42.78336612623362" lon="10.419191645972552"><ele>173.60000000000002</ele><time>2026-04-19T10:42:01.843Z</time></trkpt><trkpt lat="42.78350166323323" lon="10.4191242029622"><ele>171.0</ele><time>2026-04-19T10:42:03.843Z</time></trkpt><trkpt lat="42.783621854280284" lon="10.419108284726338"><ele>171.0</ele><time>2026-04-19T10:42:05.843Z</time></trkpt><trkpt lat="42.78377626138444" lon="10.419077321530299"><ele>171.0</ele><time>2026-04-19T10:42:07.843Z</time></trkpt><trkpt lat="42.783864283343476" lon="10.419053525577803"><ele>171.0</ele><time>2026-04-19T10:42:08.843Z</time></trkpt><trkpt lat="42.78395234110619" lon="10.419017802292572"><ele>171.0</ele><time>2026-04-19T10:42:09.843Z</time></trkpt><trkpt lat="42.78403812073609" lon="10.419011378416743"><ele>171.0</ele><time>2026-04-19T10:42:10.843Z</time></trkpt><trkpt lat="42.7841421538852" lon="10.419012596336518"><ele>171.0</ele><time>2026-04-19T10:42:11.843Z</time></trkpt><trkpt lat="42.78425586554344" lon="10.419038398416932"><ele>171.0</ele><time>2026-04-19T10:42:12.843Z</time></trkpt><trkpt lat="42.7843784601881" lon="10.41905314123833"><ele>171.0</ele><time>2026-04-19T10:42:13.843Z</time></trkpt><trkpt lat="42.78448907211931" lon="10.419118259072766"><ele>171.0</ele><time>2026-04-19T10:42:14.843Z</time></trkpt><trkpt lat="42.78458962663863" lon="10.419156813317215"><ele>172.4</ele><time>2026-04-19T10:42:15.843Z</time></trkpt><trkpt lat="42.78467523520398" lon="10.419148753864624"><ele>173.8</ele><time>2026-04-19T10:42:16.843Z</time></trkpt><trkpt lat="42.784778810445616" lon="10.419107440481891"><ele>175.20000000000002</ele><time>2026-04-19T10:42:17.843Z</time></trkpt><trkpt lat="42.784870128920375" lon="10.419086147849884"><ele>176.60000000000002</ele><time>2026-04-19T10:42:18.843Z</time></trkpt><trkpt lat="42.78492924858482" lon="10.419047850341965"><ele>178.0</ele><time>2026-04-19T10:42:19.843Z</time></trkpt><trkpt lat="42.78499214917475" lon="10.418917577603551"><ele>178.0</ele><time>2026-04-19T10:42:21.843Z</time></trkpt><trkpt lat="42.785037724388815" lon="10.418851242744099"><ele>178.0</ele><time>2026-04-19T10:42:22.843Z</time></trkpt><trkpt lat="42.785097194964834" lon="10.418772605757978"><ele>178.0</ele><time>2026-04-19T10:42:23.843Z</time></trkpt><trkpt lat="42.785146717668866" lon="10.418719566709564"><ele>178.0</ele><time>2026-04-19T10:42:24.843Z</time></trkpt><trkpt lat="42.785246499585945" lon="10.418649295669756"><ele>178.0</ele><time>2026-04-19T10:42:26.843Z</time></trkpt><trkpt lat="42.7853271192061" lon="10.418592844236537"><ele>178.0</ele><time>2026-04-19T10:42:28.843Z</time></trkpt><trkpt lat="42.78539844943749" lon="10.41854628461432"><ele>179.2</ele><time>2026-04-19T10:42:30.843Z</time></trkpt><trkpt lat="42.785494479322935" lon="10.41852187690776"><ele>180.4</ele><time>2026-04-19T10:42:36.843Z</time></trkpt><trkpt lat="42.78555933774455" lon="10.418474098142738"><ele>181.6</ele><time>2026-04-19T10:42:38.842Z</time></trkpt><trkpt lat="42.78559397428835" lon="10.418383204757895"><ele>182.79999999999998</ele><time>2026-04-19T10:42:41.842Z</time></trkpt><trkpt lat="42.785522025416846" lon="10.418279584865827"><ele>184.0</ele><time>2026-04-19T10:42:43.842Z</time></trkpt><trkpt lat="42.78541590473676" lon="10.41823055699063"><ele>184.0</ele><time>2026-04-19T10:42:44.842Z</time></trkpt><trkpt lat="42.78528771499149" lon="10.41813398038004"><ele>184.0</ele><time>2026-04-19T10:42:45.842Z</time></trkpt><trkpt lat="42.78516103295857" lon="10.418039307623557"><ele>184.0</ele><time>2026-04-19T10:42:46.842Z</time></trkpt><trkpt lat="42.78505558722329" lon="10.417948385744765"><ele>184.0</ele><time>2026-04-19T10:42:47.842Z</time></trkpt><trkpt lat="42.78494995730766" lon="10.417867499161725"><ele>181.25</ele><time>2026-04-19T10:42:48.842Z</time></trkpt><trkpt lat="42.78483860016475" lon="10.417777700788253"><ele>178.5</ele><time>2026-04-19T10:42:49.842Z</time></trkpt><trkpt lat="42.784771797280314" lon="10.417612407909036"><ele>175.75</ele><time>2026-04-19T10:42:50.842Z</time></trkpt><trkpt lat="42.784678019224316" lon="10.41752167285631"><ele>173.0</ele><time>2026-04-19T10:42:51.842Z</time></trkpt><trkpt lat="42.784568899347654" lon="10.417449748475216"><ele>173.0</ele><time>2026-04-19T10:42:52.842Z</time></trkpt><trkpt lat="42.78447865565231" lon="10.417394834350148"><ele>173.0</ele><time>2026-04-19T10:42:53.842Z</time></trkpt><trkpt lat="42.7843957282009" lon="10.417324645709074"><ele>173.0</ele><time>2026-04-19T10:42:54.842Z</time></trkpt><trkpt lat="42.7843307545592" lon="10.41725219275444"><ele>173.0</ele><time>2026-04-19T10:42:55.842Z</time></trkpt><trkpt lat="42.784276103273555" lon="10.417169821564372"><ele>173.0</ele><time>2026-04-19T10:42:56.842Z</time></trkpt><trkpt lat="42.784253910476934" lon="10.417070214238576"><ele>173.0</ele><time>2026-04-19T10:42:57.842Z</time></trkpt><trkpt lat="42.784310808401244" lon="10.416966143574749"><ele>172.0</ele><time>2026-04-19T10:42:59.842Z</time></trkpt><trkpt lat="42.78442531945301" lon="10.416872693314641"><ele>171.0</ele><time>2026-04-19T10:43:01.842Z</time></trkpt><trkpt lat="42.784518193173916" lon="10.416792680599823"><ele>170.0</ele><time>2026-04-19T10:43:02.842Z</time></trkpt><trkpt lat="42.78463014889201" lon="10.416734197221908"><ele>169.0</ele><time>2026-04-19T10:43:03.842Z</time></trkpt><trkpt lat="42.784722639895534" lon="10.416682116697142"><ele>169.0</ele><time>2026-04-19T10:43:04.842Z</time></trkpt><trkpt lat="42.784812147838984" lon="10.416637909968507"><ele>169.0</ele><time>2026-04-19T10:43:05.842Z</time></trkpt><trkpt lat="42.78490515547059" lon="10.416579560801349"><ele>169.0</ele><time>2026-04-19T10:43:06.842Z</time></trkpt><trkpt lat="42.784992250425574" lon="10.416491611763032"><ele>169.0</ele><time>2026-04-19T10:43:07.842Z</time></trkpt><trkpt lat="42.785070136340174" lon="10.416414040390118"><ele>169.0</ele><time>2026-04-19T10:43:08.842Z</time></trkpt><trkpt lat="42.78512183590261" lon="10.41633491866978"><ele>167.66666666666669</ele><time>2026-04-19T10:43:09.842Z</time></trkpt><trkpt lat="42.78514564230186" lon="10.41625247148943"><ele>166.33333333333334</ele><time>2026-04-19T10:43:10.842Z</time></trkpt><trkpt lat="42.78512064317696" lon="10.41609755150926"><ele>165.0</ele><time>2026-04-19T10:43:12.842Z</time></trkpt><trkpt lat="42.78508820517535" lon="10.416013766125188"><ele>163.66666666666666</ele><time>2026-04-19T10:43:13.842Z</time></trkpt><trkpt lat="42.78505350180369" lon="10.415930370699451"><ele>162.33333333333331</ele><time>2026-04-19T10:43:14.842Z</time></trkpt><trkpt lat="42.78501110864325" lon="10.41582368776818"><ele>161.0</ele><time>2026-04-19T10:43:15.842Z</time></trkpt><trkpt lat="42.7849854067037" lon="10.415708707261404"><ele>161.0</ele><time>2026-04-19T10:43:16.842Z</time></trkpt><trkpt lat="42.78497030333136" lon="10.415591251989504"><ele>161.0</ele><time>2026-04-19T10:43:17.842Z</time></trkpt><trkpt lat="42.78497370738577" lon="10.415469065862624"><ele>161.0</ele><time>2026-04-19T10:43:18.842Z</time></trkpt><trkpt lat="42.784988837076966" lon="10.415366478129888"><ele>161.0</ele><time>2026-04-19T10:43:19.842Z</time></trkpt><trkpt lat="42.78505556541995" lon="10.415299096280055"><ele>161.0</ele><time>2026-04-19T10:43:20.842Z</time></trkpt><trkpt lat="42.785118042329735" lon="10.415216649080824"><ele>161.0</ele><time>2026-04-19T10:43:21.842Z</time></trkpt><trkpt lat="42.78521115961869" lon="10.415163566220418"><ele>159.5</ele><time>2026-04-19T10:43:22.842Z</time></trkpt><trkpt lat="42.78530974944971" lon="10.415102024260966"><ele>158.0</ele><time>2026-04-19T10:43:23.842Z</time></trkpt><trkpt lat="42.78541663694598" lon="10.415063961226208"><ele>156.5</ele><time>2026-04-19T10:43:24.842Z</time></trkpt><trkpt lat="42.785533985765056" lon="10.415018770823904"><ele>155.0</ele><time>2026-04-19T10:43:25.842Z</time></trkpt><trkpt lat="42.785664958011175" lon="10.414976262851347"><ele>155.0</ele><time>2026-04-19T10:43:26.842Z</time></trkpt><trkpt lat="42.785780844606734" lon="10.414935383396562"><ele>155.0</ele><time>2026-04-19T10:43:27.842Z</time></trkpt><trkpt lat="42.78588266606757" lon="10.414903501749333"><ele>155.0</ele><time>2026-04-19T10:43:28.843Z</time></trkpt><trkpt lat="42.785984054478355" lon="10.414878510758902"><ele>155.0</ele><time>2026-04-19T10:43:29.843Z</time></trkpt><trkpt lat="42.78608205785486" lon="10.414874401755752"><ele>155.0</ele><time>2026-04-19T10:43:30.842Z</time></trkpt><trkpt lat="42.786177278893355" lon="10.414893410438788"><ele>154.6</ele><time>2026-04-19T10:43:31.842Z</time></trkpt><trkpt lat="42.78627373786241" lon="10.414909284315035"><ele>154.2</ele><time>2026-04-19T10:43:32.842Z</time></trkpt><trkpt lat="42.78636362461975" lon="10.414914988666993"><ele>153.8</ele><time>2026-04-19T10:43:33.842Z</time></trkpt><trkpt lat="42.7864505002288" lon="10.414847032940619"><ele>153.4</ele><time>2026-04-19T10:43:34.843Z</time></trkpt><trkpt lat="42.78653588968047" lon="10.414745502481445"><ele>153.0</ele><time>2026-04-19T10:43:35.843Z</time></trkpt><trkpt lat="42.78664198641284" lon="10.414657319450319"><ele>151.75</ele><time>2026-04-19T10:43:36.842Z</time></trkpt><trkpt lat="42.78673929653305" lon="10.414551227410604"><ele>150.5</ele><time>2026-04-19T10:43:37.842Z</time></trkpt><trkpt lat="42.78684068097934" lon="10.414448194849248"><ele>149.25</ele><time>2026-04-19T10:43:38.842Z</time></trkpt><trkpt lat="42.7869438785023" lon="10.414353309047486"><ele>148.0</ele><time>2026-04-19T10:43:39.842Z</time></trkpt><trkpt lat="42.787035610924484" lon="10.414256854233603"><ele>148.0</ele><time>2026-04-19T10:43:40.842Z</time></trkpt><trkpt lat="42.78711996429464" lon="10.414162021981339"><ele>148.0</ele><time>2026-04-19T10:43:41.842Z</time></trkpt><trkpt lat="42.7871994149309" lon="10.414083974429248"><ele>148.0</ele><time>2026-04-19T10:43:42.843Z</time></trkpt><trkpt lat="42.787261961549916" lon="10.414012051566841"><ele>148.0</ele><time>2026-04-19T10:43:43.843Z</time></trkpt><trkpt lat="42.78731955104774" lon="10.413938018800282"><ele>148.0</ele><time>2026-04-19T10:43:44.842Z</time></trkpt><trkpt lat="42.78736416275113" lon="10.413869146101126"><ele>148.0</ele><time>2026-04-19T10:43:45.842Z</time></trkpt><trkpt lat="42.787394113679326" lon="10.413744862637325"><ele>148.6</ele><time>2026-04-19T10:43:46.842Z</time></trkpt><trkpt lat="42.78743090745819" lon="10.413592599357315"><ele>149.20000000000002</ele><time>2026-04-19T10:43:47.842Z</time></trkpt><trkpt lat="42.78746168942042" lon="10.413472440129825"><ele>149.8</ele><time>2026-04-19T10:43:48.842Z</time></trkpt><trkpt lat="42.78740239288012" lon="10.413357085677228"><ele>150.4</ele><time>2026-04-19T10:43:49.842Z</time></trkpt><trkpt lat="42.787389135564254" lon="10.4132627313515"><ele>151.0</ele><time>2026-04-19T10:43:50.842Z</time></trkpt><trkpt lat="42.78740506667657" lon="10.413163862134676"><ele>151.0</ele><time>2026-04-19T10:43:51.842Z</time></trkpt><trkpt lat="42.7874255403628" lon="10.413040866141076"><ele>151.0</ele><time>2026-04-19T10:43:52.842Z</time></trkpt><trkpt lat="42.78746370470516" lon="10.412945224039353"><ele>151.0</ele><time>2026-04-19T10:43:53.842Z</time></trkpt><trkpt lat="42.78750084490121" lon="10.41285685459149"><ele>151.0</ele><time>2026-04-19T10:43:54.842Z</time></trkpt><trkpt lat="42.78754156204808" lon="10.41275702631259"><ele>151.0</ele><time>2026-04-19T10:43:55.842Z</time></trkpt><trkpt lat="42.78758524761727" lon="10.412654919782073"><ele>151.0</ele><time>2026-04-19T10:43:56.842Z</time></trkpt><trkpt lat="42.787620431293426" lon="10.412533855534686"><ele>150.4</ele><time>2026-04-19T10:43:57.842Z</time></trkpt><trkpt lat="42.787662560794125" lon="10.41242012839958"><ele>149.8</ele><time>2026-04-19T10:43:58.842Z</time></trkpt><trkpt lat="42.78772963899873" lon="10.412298169822318"><ele>149.20000000000002</ele><time>2026-04-19T10:43:59.842Z</time></trkpt><trkpt lat="42.78776288941512" lon="10.412168337160267"><ele>148.6</ele><time>2026-04-19T10:44:00.842Z</time></trkpt><trkpt lat="42.787799450056376" lon="10.412052349544261"><ele>148.0</ele><time>2026-04-19T10:44:01.842Z</time></trkpt><trkpt lat="42.78784565796793" lon="10.411928861017978"><ele>146.66666666666669</ele><time>2026-04-19T10:44:02.842Z</time></trkpt><trkpt lat="42.787878381024896" lon="10.411818071171204"><ele>145.33333333333334</ele><time>2026-04-19T10:44:03.842Z</time></trkpt><trkpt lat="42.787912688740356" lon="10.41170209105529"><ele>144.0</ele><time>2026-04-19T10:44:04.842Z</time></trkpt><trkpt lat="42.787949968595576" lon="10.411625387757935"><ele>142.66666666666666</ele><time>2026-04-19T10:44:05.842Z</time></trkpt><trkpt lat="42.788019640400805" lon="10.411470083283852"><ele>141.33333333333331</ele><time>2026-04-19T10:44:07.842Z</time></trkpt><trkpt lat="42.78807457649762" lon="10.411414086544019"><ele>140.0</ele><time>2026-04-19T10:44:08.842Z</time></trkpt><trkpt lat="42.78819072671864" lon="10.411310577515808"><ele>140.0</ele><time>2026-04-19T10:44:10.842Z</time></trkpt><trkpt lat="42.78825003185063" lon="10.411243763371056"><ele>140.0</ele><time>2026-04-19T10:44:11.842Z</time></trkpt><trkpt lat="42.788311584369445" lon="10.411168305118318"><ele>140.0</ele><time>2026-04-19T10:44:12.842Z</time></trkpt><trkpt lat="42.788381960307696" lon="10.411091052046356"><ele>140.0</ele><time>2026-04-19T10:44:13.842Z</time></trkpt><trkpt lat="42.78845292569169" lon="10.411020786541902"><ele>140.0</ele><time>2026-04-19T10:44:14.842Z</time></trkpt><trkpt lat="42.78853790603303" lon="10.41094555429711"><ele>140.0</ele><time>2026-04-19T10:44:15.842Z</time></trkpt><trkpt lat="42.78861534601845" lon="10.410892353065014"><ele>139.16666666666666</ele><time>2026-04-19T10:44:16.842Z</time></trkpt><trkpt lat="42.78868292974534" lon="10.410835701869349"><ele>138.33333333333331</ele><time>2026-04-19T10:44:17.842Z</time></trkpt><trkpt lat="42.78873971552038" lon="10.410781580120926"><ele>137.5</ele><time>2026-04-19T10:44:18.842Z</time></trkpt><trkpt lat="42.788825041349426" lon="10.410701093291737"><ele>136.66666666666666</ele><time>2026-04-19T10:44:20.842Z</time></trkpt><trkpt lat="42.78889858568513" lon="10.410634824704957"><ele>135.83333333333334</ele><time>2026-04-19T10:44:22.842Z</time></trkpt><trkpt lat="42.7889741976543" lon="10.41063112885333"><ele>135.0</ele><time>2026-04-19T10:44:24.841Z</time></trkpt><trkpt lat="42.789044762180644" lon="10.410763018596604"><ele>135.0</ele><time>2026-04-19T10:44:26.841Z</time></trkpt><trkpt lat="42.78909865150611" lon="10.410830310125057"><ele>135.0</ele><time>2026-04-19T10:44:27.841Z</time></trkpt><trkpt lat="42.78915878806656" lon="10.410910749288083"><ele>135.0</ele><time>2026-04-19T10:44:28.841Z</time></trkpt><trkpt lat="42.78921074802775" lon="10.410985100623725"><ele>135.0</ele><time>2026-04-19T10:44:29.841Z</time></trkpt><trkpt lat="42.78927302432051" lon="10.411052123085218"><ele>135.0</ele><time>2026-04-19T10:44:30.841Z</time></trkpt><trkpt lat="42.789320444749386" lon="10.411112306276243"><ele>135.0</ele><time>2026-04-19T10:44:31.841Z</time></trkpt><trkpt lat="42.789383860805394" lon="10.41119960016887"><ele>135.33333333333334</ele><time>2026-04-19T10:44:33.841Z</time></trkpt><trkpt lat="42.78943297170393" lon="10.411274296643557"><ele>135.66666666666666</ele><time>2026-04-19T10:44:35.841Z</time></trkpt><trkpt lat="42.78948286618432" lon="10.411353001875993"><ele>136.0</ele><time>2026-04-19T10:44:38.841Z</time></trkpt><trkpt lat="42.789556466677745" lon="10.411470303651248"><ele>136.33333333333331</ele><time>2026-04-19T10:44:40.841Z</time></trkpt><trkpt lat="42.789594114382766" lon="10.411576175343324"><ele>136.66666666666666</ele><time>2026-04-19T10:44:41.841Z</time></trkpt><trkpt lat="42.78961858095933" lon="10.411671801683164"><ele>137.0</ele><time>2026-04-19T10:44:42.841Z</time></trkpt><trkpt lat="42.789628239759" lon="10.411773532099934"><ele>137.0</ele><time>2026-04-19T10:44:43.841Z</time></trkpt><trkpt lat="42.78963598292945" lon="10.41186907628901"><ele>137.0</ele><time>2026-04-19T10:44:44.841Z</time></trkpt><trkpt lat="42.78964178554084" lon="10.411964429790311"><ele>137.0</ele><time>2026-04-19T10:44:45.841Z</time></trkpt><trkpt lat="42.78964674257492" lon="10.412063521586711"><ele>137.0</ele><time>2026-04-19T10:44:46.841Z</time></trkpt><trkpt lat="42.78965384575622" lon="10.41218919507873"><ele>137.0</ele><time>2026-04-19T10:44:47.841Z</time></trkpt><trkpt lat="42.78966880817584" lon="10.412309106909277"><ele>137.0</ele><time>2026-04-19T10:44:48.841Z</time></trkpt><trkpt lat="42.78965706588596" lon="10.41242517268214"><ele>136.2</ele><time>2026-04-19T10:44:49.841Z</time></trkpt><trkpt lat="42.78965871464859" lon="10.412542853976532"><ele>135.39999999999998</ele><time>2026-04-19T10:44:50.841Z</time></trkpt><trkpt lat="42.789659206685236" lon="10.412680991102526"><ele>134.60000000000002</ele><time>2026-04-19T10:44:51.841Z</time></trkpt><trkpt lat="42.789661361320874" lon="10.41283371458822"><ele>133.8</ele><time>2026-04-19T10:44:52.841Z</time></trkpt><trkpt lat="42.789685230958426" lon="10.412991487313546"><ele>133.0</ele><time>2026-04-19T10:44:53.841Z</time></trkpt><trkpt lat="42.78970213176404" lon="10.413155802398803"><ele>131.75</ele><time>2026-04-19T10:44:54.841Z</time></trkpt><trkpt lat="42.78974883923769" lon="10.41331688717606"><ele>130.5</ele><time>2026-04-19T10:44:55.841Z</time></trkpt><trkpt lat="42.78983488275694" lon="10.413456305023125"><ele>129.25</ele><time>2026-04-19T10:44:56.841Z</time></trkpt><trkpt lat="42.78993218046314" lon="10.4135350035529"><ele>128.0</ele><time>2026-04-19T10:44:57.841Z</time></trkpt><trkpt lat="42.79004895472127" lon="10.413567270924164"><ele>128.0</ele><time>2026-04-19T10:44:58.841Z</time></trkpt><trkpt lat="42.790170274801255" lon="10.413545877323179"><ele>128.0</ele><time>2026-04-19T10:44:59.841Z</time></trkpt><trkpt lat="42.790288530220046" lon="10.413454646119975"><ele>128.0</ele><time>2026-04-19T10:45:00.841Z</time></trkpt><trkpt lat="42.79041437333437" lon="10.4133457651754"><ele>128.0</ele><time>2026-04-19T10:45:01.841Z</time></trkpt><trkpt lat="42.79053261540613" lon="10.41321465413573"><ele>130.0</ele><time>2026-04-19T10:45:02.841Z</time></trkpt><trkpt lat="42.79065257248242" lon="10.413067750740444"><ele>132.0</ele><time>2026-04-19T10:45:03.841Z</time></trkpt><trkpt lat="42.79078700898665" lon="10.412951363763788"><ele>134.0</ele><time>2026-04-19T10:45:04.841Z</time></trkpt><trkpt lat="42.79090887659589" lon="10.412863608230687"><ele>132.5</ele><time>2026-04-19T10:45:05.841Z</time></trkpt><trkpt lat="42.79101783669708" lon="10.41278123114073"><ele>131.0</ele><time>2026-04-19T10:45:06.841Z</time></trkpt><trkpt lat="42.79111759586532" lon="10.412709323669901"><ele>129.5</ele><time>2026-04-19T10:45:07.841Z</time></trkpt><trkpt lat="42.79122501978854" lon="10.412659664332445"><ele>128.0</ele><time>2026-04-19T10:45:08.841Z</time></trkpt><trkpt lat="42.791345153570965" lon="10.412628056980846"><ele>128.0</ele><time>2026-04-19T10:45:09.841Z</time></trkpt><trkpt lat="42.79146987656258" lon="10.412645124333146"><ele>128.0</ele><time>2026-04-19T10:45:10.841Z</time></trkpt><trkpt lat="42.79160233877975" lon="10.412694984591523"><ele>128.0</ele><time>2026-04-19T10:45:11.841Z</time></trkpt><trkpt lat="42.79174032937649" lon="10.412767440960748"><ele>128.0</ele><time>2026-04-19T10:45:12.841Z</time></trkpt><trkpt lat="42.79185821394119" lon="10.412787333722136"><ele>125.4</ele><time>2026-04-19T10:45:13.84Z</time></trkpt><trkpt lat="42.79197514825988" lon="10.412743767145312"><ele>122.80000000000001</ele><time>2026-04-19T10:45:14.84Z</time></trkpt><trkpt lat="42.79205781100443" lon="10.412665638870408"><ele>120.2</ele><time>2026-04-19T10:45:15.84Z</time></trkpt><trkpt lat="42.79208644768212" lon="10.412534166989348"><ele>117.6</ele><time>2026-04-19T10:45:16.84Z</time></trkpt><trkpt lat="42.79210718822385" lon="10.412391992344597"><ele>115.0</ele><time>2026-04-19T10:45:17.84Z</time></trkpt><trkpt lat="42.79210713782369" lon="10.412237222362194"><ele>117.0</ele><time>2026-04-19T10:45:18.84Z</time></trkpt><trkpt lat="42.792076550095636" lon="10.41205913904878"><ele>119.0</ele><time>2026-04-19T10:45:19.84Z</time></trkpt><trkpt lat="42.79203434550316" lon="10.41189121078553"><ele>121.0</ele><time>2026-04-19T10:45:20.84Z</time></trkpt><trkpt lat="42.79201258832629" lon="10.41172632975752"><ele>123.0</ele><time>2026-04-19T10:45:21.84Z</time></trkpt><trkpt lat="42.792040688146" lon="10.411591646385611"><ele>123.0</ele><time>2026-04-19T10:45:22.84Z</time></trkpt><trkpt lat="42.79211523820001" lon="10.411508083683408"><ele>123.00000000000001</ele><time>2026-04-19T10:45:23.84Z</time></trkpt><trkpt lat="42.79222212568786" lon="10.41150643555428"><ele>123.00000000000001</ele><time>2026-04-19T10:45:24.84Z</time></trkpt><trkpt lat="42.79232578645839" lon="10.411484511208906"><ele>123.0</ele><time>2026-04-19T10:45:25.84Z</time></trkpt><trkpt lat="42.79241215358596" lon="10.411471922175265"><ele>123.0</ele><time>2026-04-19T10:45:26.84Z</time></trkpt><trkpt lat="42.79248306812876" lon="10.411443737043449"><ele>123.0</ele><time>2026-04-19T10:45:27.84Z</time></trkpt><trkpt lat="42.792546862382075" lon="10.41143430302861"><ele>123.00000000000001</ele><time>2026-04-19T10:45:28.84Z</time></trkpt><trkpt lat="42.79269348880659" lon="10.411432645917133"><ele>123.00000000000001</ele><time>2026-04-19T10:45:30.84Z</time></trkpt><trkpt lat="42.7928001639513" lon="10.411402845776761"><ele>123.0</ele><time>2026-04-19T10:45:31.84Z</time></trkpt><trkpt lat="42.792905738841306" lon="10.411375934939347"><ele>123.0</ele><time>2026-04-19T10:45:32.841Z</time></trkpt><trkpt lat="42.79300725810864" lon="10.411358678759335"><ele>122.2</ele><time>2026-04-19T10:45:33.841Z</time></trkpt><trkpt lat="42.793104847086155" lon="10.411321661219933"><ele>121.4</ele><time>2026-04-19T10:45:34.841Z</time></trkpt><trkpt lat="42.79320027052481" lon="10.411296383656158"><ele>120.60000000000001</ele><time>2026-04-19T10:45:35.841Z</time></trkpt><trkpt lat="42.793295310530645" lon="10.411268470891011"><ele>119.80000000000001</ele><time>2026-04-19T10:45:36.841Z</time></trkpt><trkpt lat="42.79338273177405" lon="10.411233914856817"><ele>119.0</ele><time>2026-04-19T10:45:37.841Z</time></trkpt><trkpt lat="42.79346344371669" lon="10.411208626777471"><ele>116.83333333333333</ele><time>2026-04-19T10:45:38.842Z</time></trkpt><trkpt lat="42.79353750880159" lon="10.411191248929493"><ele>114.66666666666666</ele><time>2026-04-19T10:45:39.842Z</time></trkpt><trkpt lat="42.79360743543464" lon="10.411176591403875"><ele>112.5</ele><time>2026-04-19T10:45:40.842Z</time></trkpt><trkpt lat="42.79367642785621" lon="10.41115668514652"><ele>110.33333333333334</ele><time>2026-04-19T10:45:41.842Z</time></trkpt><trkpt lat="42.793747305772875" lon="10.411170849691127"><ele>108.16666666666667</ele><time>2026-04-19T10:45:42.841Z</time></trkpt><trkpt lat="42.793888723426676" lon="10.411146082633772"><ele>106.0</ele><time>2026-04-19T10:45:44.842Z</time></trkpt><trkpt lat="42.79395793765612" lon="10.411141639937378"><ele>106.00000000000001</ele><time>2026-04-19T10:45:45.842Z</time></trkpt><trkpt lat="42.79401124514909" lon="10.411057528919345"><ele>106.0</ele><time>2026-04-19T10:45:46.841Z</time></trkpt><trkpt lat="42.79408131121909" lon="10.411013459448606"><ele>106.0</ele><time>2026-04-19T10:45:47.841Z</time></trkpt><trkpt lat="42.794142648334045" lon="10.410974880187988"><ele>106.0</ele><time>2026-04-19T10:45:48.841Z</time></trkpt><trkpt lat="42.79422586351071" lon="10.410956650307545"><ele>106.00000000000001</ele><time>2026-04-19T10:45:49.841Z</time></trkpt><trkpt lat="42.794296949064055" lon="10.410929285254335"><ele>106.0</ele><time>2026-04-19T10:45:50.84Z</time></trkpt><trkpt lat="42.794382231502155" lon="10.410913912286258"><ele>104.4</ele><time>2026-04-19T10:45:51.84Z</time></trkpt><trkpt lat="42.794474307255676" lon="10.410952963957264"><ele>102.8</ele><time>2026-04-19T10:45:52.84Z</time></trkpt><trkpt lat="42.79456670613362" lon="10.410955553148321"><ele>101.2</ele><time>2026-04-19T10:45:53.84Z</time></trkpt><trkpt lat="42.79465858035611" lon="10.41097350564166"><ele>99.60000000000001</ele><time>2026-04-19T10:45:54.84Z</time></trkpt><trkpt lat="42.79474317473054" lon="10.410986409731334"><ele>98.0</ele><time>2026-04-19T10:45:55.84Z</time></trkpt><trkpt lat="42.79483267098388" lon="10.411001968671687"><ele>98.0</ele><time>2026-04-19T10:45:56.84Z</time></trkpt><trkpt lat="42.79493399239068" lon="10.411022892713856"><ele>98.0</ele><time>2026-04-19T10:45:57.84Z</time></trkpt><trkpt lat="42.795034554036334" lon="10.411037599603436"><ele>98.0</ele><time>2026-04-19T10:45:58.84Z</time></trkpt><trkpt lat="42.7951332978826" lon="10.411045741016155"><ele>98.0</ele><time>2026-04-19T10:45:59.84Z</time></trkpt><trkpt lat="42.79521885024926" lon="10.411057529249918"><ele>98.0</ele><time>2026-04-19T10:46:00.84Z</time></trkpt><trkpt lat="42.79531478885705" lon="10.411073573124398"><ele>96.80000000000001</ele><time>2026-04-19T10:46:01.84Z</time></trkpt><trkpt lat="42.79541077935096" lon="10.41109068824446"><ele>95.6</ele><time>2026-04-19T10:46:02.84Z</time></trkpt><trkpt lat="42.79550269671012" lon="10.41110702637802"><ele>94.4</ele><time>2026-04-19T10:46:03.84Z</time></trkpt><trkpt lat="42.79559748864541" lon="10.411122915148026"><ele>93.19999999999999</ele><time>2026-04-19T10:46:04.84Z</time></trkpt><trkpt lat="42.79568634509591" lon="10.411139018620545"><ele>92.0</ele><time>2026-04-19T10:46:05.84Z</time></trkpt><trkpt lat="42.795780685089156" lon="10.411157628843767"><ele>92.0</ele><time>2026-04-19T10:46:06.84Z</time></trkpt><trkpt lat="42.795854073357276" lon="10.411208047944418"><ele>92.0</ele><time>2026-04-19T10:46:07.84Z</time></trkpt><trkpt lat="42.79592073752865" lon="10.41126668317019"><ele>92.0</ele><time>2026-04-19T10:46:08.84Z</time></trkpt><trkpt lat="42.795995789848234" lon="10.41130079080235"><ele>92.0</ele><time>2026-04-19T10:46:09.84Z</time></trkpt><trkpt lat="42.796066121990506" lon="10.411332694234883"><ele>92.0</ele><time>2026-04-19T10:46:10.84Z</time></trkpt><trkpt lat="42.79613880998395" lon="10.411350947983404"><ele>92.0</ele><time>2026-04-19T10:46:11.84Z</time></trkpt><trkpt lat="42.79620790344086" lon="10.411369423566285"><ele>91.5</ele><time>2026-04-19T10:46:12.84Z</time></trkpt><trkpt lat="42.796278916883296" lon="10.41139091739436"><ele>91.0</ele><time>2026-04-19T10:46:13.84Z</time></trkpt><trkpt lat="42.79634692205946" lon="10.411421345997276"><ele>90.5</ele><time>2026-04-19T10:46:14.84Z</time></trkpt><trkpt lat="42.79639935565251" lon="10.411494033254305"><ele>90.0</ele><time>2026-04-19T10:46:15.84Z</time></trkpt><trkpt lat="42.79645686329147" lon="10.411540136202667"><ele>89.5</ele><time>2026-04-19T10:46:16.84Z</time></trkpt><trkpt lat="42.796597382953095" lon="10.411537071132724"><ele>89.0</ele><time>2026-04-19T10:46:18.84Z</time></trkpt><trkpt lat="42.7967207200737" lon="10.411573712147801"><ele>89.0</ele><time>2026-04-19T10:46:20.84Z</time></trkpt><trkpt lat="42.79678502812761" lon="10.411601166989112"><ele>89.0</ele><time>2026-04-19T10:46:21.84Z</time></trkpt><trkpt lat="42.796869148124685" lon="10.411626635281984"><ele>89.0</ele><time>2026-04-19T10:46:22.84Z</time></trkpt><trkpt lat="42.79695044112231" lon="10.411657997456167"><ele>89.0</ele><time>2026-04-19T10:46:23.84Z</time></trkpt><trkpt lat="42.79702085439924" lon="10.411700741812227"><ele>89.0</ele><time>2026-04-19T10:46:24.84Z</time></trkpt><trkpt lat="42.7970828551139" lon="10.411715897951662"><ele>89.0</ele><time>2026-04-19T10:46:25.84Z</time></trkpt><trkpt lat="42.797174329703616" lon="10.411701589619005"><ele>86.5</ele><time>2026-04-19T10:46:27.84Z</time></trkpt><trkpt lat="42.79730874213339" lon="10.411704628929234"><ele>84.0</ele><time>2026-04-19T10:46:29.84Z</time></trkpt><trkpt lat="42.79737245181089" lon="10.411720635316906"><ele>81.5</ele><time>2026-04-19T10:46:30.84Z</time></trkpt><trkpt lat="42.79744594941658" lon="10.411708535192469"><ele>79.0</ele><time>2026-04-19T10:46:31.84Z</time></trkpt><trkpt lat="42.79751029156903" lon="10.411709949807493"><ele>76.5</ele><time>2026-04-19T10:46:32.84Z</time></trkpt><trkpt lat="42.7976208939732" lon="10.411711562112686"><ele>74.0</ele><time>2026-04-19T10:46:34.84Z</time></trkpt><trkpt lat="42.79773001322437" lon="10.411728583458546"><ele>71.83333333333334</ele><time>2026-04-19T10:46:36.84Z</time></trkpt><trkpt lat="42.79780378440987" lon="10.411723402444904"><ele>69.66666666666667</ele><time>2026-04-19T10:46:39.839Z</time></trkpt><trkpt lat="42.79787251849045" lon="10.411663929215372"><ele>67.5</ele><time>2026-04-19T10:46:42.839Z</time></trkpt><trkpt lat="42.79794230305533" lon="10.411605097501198"><ele>65.33333333333333</ele><time>2026-04-19T10:46:44.839Z</time></trkpt><trkpt lat="42.7979960530133" lon="10.411514336684665"><ele>63.166666666666664</ele><time>2026-04-19T10:46:47.839Z</time></trkpt><trkpt lat="42.7980706613563" lon="10.411477116835778"><ele>61.0</ele><time>2026-04-19T10:46:49.839Z</time></trkpt><trkpt lat="42.79816132920635" lon="10.411482071906638"><ele>60.99999999999999</ele><time>2026-04-19T10:46:52.839Z</time></trkpt><trkpt lat="42.79823148783537" lon="10.4114595508457"><ele>61.0</ele><time>2026-04-19T10:46:55.839Z</time></trkpt><trkpt lat="42.79833355392432" lon="10.411456733443488"><ele>61.0</ele><time>2026-04-19T10:46:58.839Z</time></trkpt><trkpt lat="42.7984292459869" lon="10.411469827451675"><ele>61.0</ele><time>2026-04-19T10:47:00.839Z</time></trkpt><trkpt lat="42.798511584875875" lon="10.411481646655131"><ele>60.99999999999999</ele><time>2026-04-19T10:47:02.839Z</time></trkpt><trkpt lat="42.7985788916775" lon="10.411515188400848"><ele>61.0</ele><time>2026-04-19T10:47:04.839Z</time></trkpt><trkpt lat="42.798666144505496" lon="10.411558938296768"><ele>57.199999999999996</ele><time>2026-04-19T10:47:06.839Z</time></trkpt><trkpt lat="42.79876468295475" lon="10.41160601806119"><ele>53.39999999999999</ele><time>2026-04-19T10:47:08.839Z</time></trkpt><trkpt lat="42.798857327486246" lon="10.41161965182586"><ele>49.6</ele><time>2026-04-19T10:47:10.839Z</time></trkpt><trkpt lat="42.798979131674244" lon="10.411530933622085"><ele>45.8</ele><time>2026-04-19T10:47:12.839Z</time></trkpt><trkpt lat="42.79906932293255" lon="10.411485780628542"><ele>42.0</ele><time>2026-04-19T10:47:13.839Z</time></trkpt><trkpt lat="42.799144161471595" lon="10.411437800958378"><ele>42.0</ele><time>2026-04-19T10:47:14.839Z</time></trkpt><trkpt lat="42.79921491168005" lon="10.411386624864383"><ele>42.0</ele><time>2026-04-19T10:47:15.839Z</time></trkpt><trkpt lat="42.79929875985354" lon="10.411336939533465"><ele>42.0</ele><time>2026-04-19T10:47:17.839Z</time></trkpt><trkpt lat="42.79937223676655" lon="10.411305303849835"><ele>42.0</ele><time>2026-04-19T10:47:19.839Z</time></trkpt><trkpt lat="42.799475857619534" lon="10.411321107328131"><ele>42.0</ele><time>2026-04-19T10:47:21.839Z</time></trkpt><trkpt lat="42.79959335315638" lon="10.411344022804977"><ele>42.5</ele><time>2026-04-19T10:47:23.839Z</time></trkpt><trkpt lat="42.79968561669666" lon="10.411345541363705"><ele>43.0</ele><time>2026-04-19T10:47:25.839Z</time></trkpt><trkpt lat="42.79974937650665" lon="10.411342164906191"><ele>43.5</ele><time>2026-04-19T10:47:26.839Z</time></trkpt><trkpt lat="42.79983589141755" lon="10.411340695430463"><ele>44.0</ele><time>2026-04-19T10:47:28.839Z</time></trkpt><trkpt lat="42.799902049775774" lon="10.411396310384621"><ele>44.5</ele><time>2026-04-19T10:47:30.838Z</time></trkpt><trkpt lat="42.799944783855864" lon="10.41148784958656"><ele>45.0</ele><time>2026-04-19T10:47:32.838Z</time></trkpt><trkpt lat="42.79998732730342" lon="10.411621883664791"><ele>45.0</ele><time>2026-04-19T10:47:34.838Z</time></trkpt><trkpt lat="42.80003084305558" lon="10.41169034097816"><ele>45.0</ele><time>2026-04-19T10:47:35.838Z</time></trkpt><trkpt lat="42.800093608870014" lon="10.411763106226768"><ele>45.0</ele><time>2026-04-19T10:47:36.838Z</time></trkpt><trkpt lat="42.80014051316332" lon="10.411841946491025"><ele>45.0</ele><time>2026-04-19T10:47:37.838Z</time></trkpt><trkpt lat="42.80018651361131" lon="10.41192198689161"><ele>45.0</ele><time>2026-04-19T10:47:38.84Z</time></trkpt><trkpt lat="42.80023518297551" lon="10.412012528535275"><ele>45.0</ele><time>2026-04-19T10:47:39.84Z</time></trkpt><trkpt lat="42.80028864541851" lon="10.412113484303832"><ele>45.8</ele><time>2026-04-19T10:47:40.84Z</time></trkpt><trkpt lat="42.80034998160849" lon="10.412228401307972"><ele>46.6</ele><time>2026-04-19T10:47:41.84Z</time></trkpt><trkpt lat="42.80039902463913" lon="10.412322930696046"><ele>47.400000000000006</ele><time>2026-04-19T10:47:42.84Z</time></trkpt><trkpt lat="42.80044356320057" lon="10.412403100259441"><ele>48.2</ele><time>2026-04-19T10:47:43.84Z</time></trkpt><trkpt lat="42.80053321747285" lon="10.412507834318612"><ele>49.0</ele><time>2026-04-19T10:47:45.841Z</time></trkpt><trkpt lat="42.80059191957242" lon="10.412580110129928"><ele>48.99999999999999</ele><time>2026-04-19T10:47:46.84Z</time></trkpt><trkpt lat="42.800639430565724" lon="10.412667041743715"><ele>49.0</ele><time>2026-04-19T10:47:47.84Z</time></trkpt><trkpt lat="42.80069134091835" lon="10.41274427495822"><ele>49.0</ele><time>2026-04-19T10:47:48.84Z</time></trkpt><trkpt lat="42.800734829622165" lon="10.41281944907039"><ele>49.0</ele><time>2026-04-19T10:47:49.84Z</time></trkpt><trkpt lat="42.80077002146326" lon="10.412893559642418"><ele>48.99999999999999</ele><time>2026-04-19T10:47:50.841Z</time></trkpt><trkpt lat="42.800804338734615" lon="10.412973439675563"><ele>49.0</ele><time>2026-04-19T10:47:51.841Z</time></trkpt><trkpt lat="42.80087835818413" lon="10.413121812450772"><ele>47.142857142857146</ele><time>2026-04-19T10:47:53.84Z</time></trkpt><trkpt lat="42.8009146268695" lon="10.413216552354669"><ele>45.285714285714285</ele><time>2026-04-19T10:47:54.841Z</time></trkpt><trkpt lat="42.80094124177547" lon="10.413302512659318"><ele>43.42857142857143</ele><time>2026-04-19T10:47:55.841Z</time></trkpt><trkpt lat="42.80097840636348" lon="10.413384744855152"><ele>41.57142857142857</ele><time>2026-04-19T10:47:56.84Z</time></trkpt><trkpt lat="42.80101740551683" lon="10.413470235994723"><ele>39.714285714285715</ele><time>2026-04-19T10:47:57.84Z</time></trkpt><trkpt lat="42.80106296351905" lon="10.41353046899859"><ele>37.85714285714286</ele><time>2026-04-19T10:47:58.84Z</time></trkpt><trkpt lat="42.801124607010756" lon="10.413581424406413"><ele>36.0</ele><time>2026-04-19T10:47:59.84Z</time></trkpt><trkpt lat="42.80120086340806" lon="10.413637707420884"><ele>35.8</ele><time>2026-04-19T10:48:00.84Z</time></trkpt><trkpt lat="42.801290604787496" lon="10.413708589316949"><ele>35.6</ele><time>2026-04-19T10:48:01.84Z</time></trkpt><trkpt lat="42.80135787857036" lon="10.41376384073942"><ele>35.4</ele><time>2026-04-19T10:48:02.84Z</time></trkpt><trkpt lat="42.80141319352456" lon="10.413852537032984"><ele>35.2</ele><time>2026-04-19T10:48:03.84Z</time></trkpt><trkpt lat="42.801486007795" lon="10.41394391997491"><ele>35.0</ele><time>2026-04-19T10:48:04.84Z</time></trkpt><trkpt lat="42.801557686322084" lon="10.414003342304397"><ele>34.8</ele><time>2026-04-19T10:48:05.84Z</time></trkpt><trkpt lat="42.80161771215874" lon="10.414060144653387"><ele>34.6</ele><time>2026-04-19T10:48:06.84Z</time></trkpt><trkpt lat="42.801736440983" lon="10.414074619446327"><ele>34.4</ele><time>2026-04-19T10:48:08.84Z</time></trkpt><trkpt lat="42.80181571951514" lon="10.414155008143483"><ele>34.2</ele><time>2026-04-19T10:48:10.84Z</time></trkpt><trkpt lat="42.80183957219722" lon="10.414290599760532"><ele>34.0</ele><time>2026-04-19T10:48:12.84Z</time></trkpt><trkpt lat="42.80177016049178" lon="10.414344337366996"><ele>34.0</ele><time>2026-04-19T10:48:13.84Z</time></trkpt><trkpt lat="42.801732002315276" lon="10.41443744768028"><ele>34.0</ele><time>2026-04-19T10:48:14.84Z</time></trkpt><trkpt lat="42.801690302239976" lon="10.414540026930814"><ele>34.0</ele><time>2026-04-19T10:48:15.839Z</time></trkpt><trkpt lat="42.80164639725433" lon="10.414637083268545"><ele>34.0</ele><time>2026-04-19T10:48:16.839Z</time></trkpt><trkpt lat="42.80160081597757" lon="10.414739464171433"><ele>34.0</ele><time>2026-04-19T10:48:17.839Z</time></trkpt><trkpt lat="42.80156447874749" lon="10.414819773316934"><ele>34.0</ele><time>2026-04-19T10:48:18.839Z</time></trkpt><trkpt lat="42.801530275898436" lon="10.41489367176023"><ele>35.6</ele><time>2026-04-19T10:48:19.839Z</time></trkpt><trkpt lat="42.80150472157869" lon="10.414985690652077"><ele>37.2</ele><time>2026-04-19T10:48:21.839Z</time></trkpt><trkpt lat="42.80152518168423" lon="10.415081853124654"><ele>38.800000000000004</ele><time>2026-04-19T10:48:24.839Z</time></trkpt><trkpt lat="42.80154132258533" lon="10.414991580708696"><ele>40.4</ele><time>2026-04-19T10:48:29.839Z</time></trkpt><trkpt lat="42.80174547706011" lon="10.414878926329417"><ele>42.0</ele><time>2026-04-19T10:48:30.839Z</time></trkpt><trkpt lat="42.80178556663309" lon="10.41478991217696"><ele>44.0</ele><time>2026-04-19T10:48:31.839Z</time></trkpt><trkpt lat="42.80183535898039" lon="10.414689270444219"><ele>46.0</ele><time>2026-04-19T10:48:32.839Z</time></trkpt><trkpt lat="42.801900667067116" lon="10.414580876106799"><ele>48.0</ele><time>2026-04-19T10:48:33.839Z</time></trkpt><trkpt lat="42.80197520125474" lon="10.414475241953502"><ele>50.0</ele><time>2026-04-19T10:48:34.839Z</time></trkpt><trkpt lat="42.802037067411504" lon="10.41437869876349"><ele>52.0</ele><time>2026-04-19T10:48:35.839Z</time></trkpt><trkpt lat="42.802106331733874" lon="10.414268185861522"><ele>52.0</ele><time>2026-04-19T10:48:36.839Z</time></trkpt><trkpt lat="42.80218971912735" lon="10.414155705688353"><ele>52.0</ele><time>2026-04-19T10:48:37.839Z</time></trkpt><trkpt lat="42.802287248014125" lon="10.414045166989414"><ele>52.0</ele><time>2026-04-19T10:48:38.839Z</time></trkpt><trkpt lat="42.802400763532304" lon="10.41395959510432"><ele>52.0</ele><time>2026-04-19T10:48:39.839Z</time></trkpt><trkpt lat="42.80253384603482" lon="10.413911305955478"><ele>56.0</ele><time>2026-04-19T10:48:40.839Z</time></trkpt><trkpt lat="42.80266705213129" lon="10.413915448891569"><ele>60.0</ele><time>2026-04-19T10:48:41.839Z</time></trkpt><trkpt lat="42.80278747870629" lon="10.413904949266065"><ele>64.0</ele><time>2026-04-19T10:48:42.839Z</time></trkpt><trkpt lat="42.80291533518351" lon="10.413894726887474"><ele>68.0</ele><time>2026-04-19T10:48:43.839Z</time></trkpt><trkpt lat="42.80302238284" lon="10.413827724759035"><ele>65.0</ele><time>2026-04-19T10:48:44.839Z</time></trkpt><trkpt lat="42.80310810418039" lon="10.413748497203914"><ele>62.0</ele><time>2026-04-19T10:48:45.839Z</time></trkpt><trkpt lat="42.80316116463136" lon="10.41363509232801"><ele>59.0</ele><time>2026-04-19T10:48:46.839Z</time></trkpt><trkpt lat="42.80321232790379" lon="10.413483460856098"><ele>56.0</ele><time>2026-04-19T10:48:47.839Z</time></trkpt><trkpt lat="42.8032921677833" lon="10.413326770172151"><ele>56.0</ele><time>2026-04-19T10:48:48.839Z</time></trkpt><trkpt lat="42.80336810964732" lon="10.413180309944487"><ele>56.0</ele><time>2026-04-19T10:48:49.839Z</time></trkpt><trkpt lat="42.803461583240534" lon="10.413049520332281"><ele>56.0</ele><time>2026-04-19T10:48:50.839Z</time></trkpt><trkpt lat="42.8035876728475" lon="10.412935887329597"><ele>56.0</ele><time>2026-04-19T10:48:51.839Z</time></trkpt><trkpt lat="42.803716650501634" lon="10.412830438481334"><ele>58.5</ele><time>2026-04-19T10:48:52.839Z</time></trkpt><trkpt lat="42.8038261610004" lon="10.412708070275865"><ele>61.0</ele><time>2026-04-19T10:48:53.839Z</time></trkpt><trkpt lat="42.80395001646263" lon="10.412639234159316"><ele>63.5</ele><time>2026-04-19T10:48:54.839Z</time></trkpt><trkpt lat="42.80405016822588" lon="10.412536149844334"><ele>66.0</ele><time>2026-04-19T10:48:55.839Z</time></trkpt><trkpt lat="42.80411193070705" lon="10.412413091690567"><ele>66.0</ele><time>2026-04-19T10:48:56.839Z</time></trkpt><trkpt lat="42.804152658955495" lon="10.41229245896543"><ele>66.0</ele><time>2026-04-19T10:48:57.839Z</time></trkpt><trkpt lat="42.8041801658163" lon="10.412191640307107"><ele>66.0</ele><time>2026-04-19T10:48:58.839Z</time></trkpt><trkpt lat="42.804214483756716" lon="10.412100755117935"><ele>66.0</ele><time>2026-04-19T10:48:59.839Z</time></trkpt><trkpt lat="42.804250738449" lon="10.41200216618442"><ele>66.0</ele><time>2026-04-19T10:49:00.839Z</time></trkpt><trkpt lat="42.80428090641398" lon="10.411892668454621"><ele>66.0</ele><time>2026-04-19T10:49:01.839Z</time></trkpt><trkpt lat="42.80430905565285" lon="10.411813199693144"><ele>67.2</ele><time>2026-04-19T10:49:02.839Z</time></trkpt><trkpt lat="42.80433982560754" lon="10.411723127759625"><ele>68.39999999999999</ele><time>2026-04-19T10:49:03.839Z</time></trkpt><trkpt lat="42.80438167741753" lon="10.41161073895529"><ele>69.6</ele><time>2026-04-19T10:49:04.839Z</time></trkpt><trkpt lat="42.804428598552335" lon="10.411484342944604"><ele>70.8</ele><time>2026-04-19T10:49:05.839Z</time></trkpt><trkpt lat="42.80447877596726" lon="10.411350232818853"><ele>72.0</ele><time>2026-04-19T10:49:06.838Z</time></trkpt><trkpt lat="42.804543913031715" lon="10.411217686600285"><ele>72.0</ele><time>2026-04-19T10:49:07.838Z</time></trkpt><trkpt lat="42.80460332860124" lon="10.411069600102017"><ele>72.0</ele><time>2026-04-19T10:49:08.838Z</time></trkpt><trkpt lat="42.804672502747614" lon="10.410927564483897"><ele>72.0</ele><time>2026-04-19T10:49:09.838Z</time></trkpt><trkpt lat="42.80475373607024" lon="10.410811566482188"><ele>72.0</ele><time>2026-04-19T10:49:10.838Z</time></trkpt><trkpt lat="42.80487333380357" lon="10.4107515555927"><ele>72.0</ele><time>2026-04-19T10:49:11.838Z</time></trkpt><trkpt lat="42.80499291579451" lon="10.410692558184222"><ele>72.0</ele><time>2026-04-19T10:49:12.838Z</time></trkpt><trkpt lat="42.80511413093826" lon="10.410645259987803"><ele>72.0</ele><time>2026-04-19T10:49:13.838Z</time></trkpt><trkpt lat="42.8052369184135" lon="10.41060758892331"><ele>72.0</ele><time>2026-04-19T10:49:14.838Z</time></trkpt><trkpt lat="42.80536710847908" lon="10.410561166410387"><ele>71.25</ele><time>2026-04-19T10:49:15.838Z</time></trkpt><trkpt lat="42.80549634029203" lon="10.410511695637167"><ele>70.5</ele><time>2026-04-19T10:49:16.838Z</time></trkpt><trkpt lat="42.80561804559934" lon="10.410467092121609"><ele>69.75</ele><time>2026-04-19T10:49:17.838Z</time></trkpt><trkpt lat="42.80574818995299" lon="10.410419308199717"><ele>69.0</ele><time>2026-04-19T10:49:18.838Z</time></trkpt><trkpt lat="42.805886365790336" lon="10.410369228425653"><ele>69.75</ele><time>2026-04-19T10:49:19.838Z</time></trkpt><trkpt lat="42.80600649538975" lon="10.410320457595994"><ele>70.5</ele><time>2026-04-19T10:49:20.838Z</time></trkpt><trkpt lat="42.8061283118628" lon="10.410280067938436"><ele>71.25</ele><time>2026-04-19T10:49:21.838Z</time></trkpt><trkpt lat="42.806242913279405" lon="10.410249873391967"><ele>72.0</ele><time>2026-04-19T10:49:22.838Z</time></trkpt><trkpt lat="42.80634272216362" lon="10.410217120591753"><ele>72.0</ele><time>2026-04-19T10:49:23.838Z</time></trkpt><trkpt lat="42.80643970961596" lon="10.410173484039428"><ele>72.0</ele><time>2026-04-19T10:49:24.838Z</time></trkpt><trkpt lat="42.806527350049265" lon="10.410113197231299"><ele>72.0</ele><time>2026-04-19T10:49:25.838Z</time></trkpt><trkpt lat="42.806607923845" lon="10.410030118894571"><ele>72.0</ele><time>2026-04-19T10:49:26.838Z</time></trkpt><trkpt lat="42.806675923245265" lon="10.409959094258435"><ele>72.0</ele><time>2026-04-19T10:49:27.838Z</time></trkpt><trkpt lat="42.806748201528634" lon="10.40990144689898"><ele>72.0</ele><time>2026-04-19T10:49:28.838Z</time></trkpt><trkpt lat="42.8068156382452" lon="10.409825922558902"><ele>72.0</ele><time>2026-04-19T10:49:29.838Z</time></trkpt><trkpt lat="42.80686998444958" lon="10.409743277787678"><ele>72.0</ele><time>2026-04-19T10:49:30.838Z</time></trkpt><trkpt lat="42.80693259294889" lon="10.409663443223563"><ele>72.0</ele><time>2026-04-19T10:49:31.838Z</time></trkpt><trkpt lat="42.806913286399094" lon="10.40948781616185"><ele>72.0</ele><time>2026-04-19T10:49:32.838Z</time></trkpt><trkpt lat="42.806952140333735" lon="10.40936713737045"><ele>71.8</ele><time>2026-04-19T10:49:33.838Z</time></trkpt><trkpt lat="42.80699234092651" lon="10.409226695599212"><ele>71.6</ele><time>2026-04-19T10:49:34.838Z</time></trkpt><trkpt lat="42.80703506703064" lon="10.409094089456184"><ele>71.39999999999999</ele><time>2026-04-19T10:49:35.838Z</time></trkpt><trkpt lat="42.80707227199279" lon="10.40896283767639"><ele>71.2</ele><time>2026-04-19T10:49:36.838Z</time></trkpt><trkpt lat="42.80710300723895" lon="10.408814183757016"><ele>71.0</ele><time>2026-04-19T10:49:37.838Z</time></trkpt><trkpt lat="42.807126925944054" lon="10.408670854914105"><ele>73.0</ele><time>2026-04-19T10:49:38.838Z</time></trkpt><trkpt lat="42.80714485803664" lon="10.40852009836851"><ele>75.0</ele><time>2026-04-19T10:49:39.838Z</time></trkpt><trkpt lat="42.80715856700583" lon="10.408361153686641"><ele>77.0</ele><time>2026-04-19T10:49:40.838Z</time></trkpt><trkpt lat="42.80716544050347" lon="10.408205507703782"><ele>79.0</ele><time>2026-04-19T10:49:41.838Z</time></trkpt><trkpt lat="42.8071639716266" lon="10.408033015988416"><ele>80.75</ele><time>2026-04-19T10:49:42.838Z</time></trkpt><trkpt lat="42.80716876709487" lon="10.407857141848611"><ele>82.5</ele><time>2026-04-19T10:49:43.838Z</time></trkpt><trkpt lat="42.80718436119408" lon="10.407686491091063"><ele>84.25</ele><time>2026-04-19T10:49:44.839Z</time></trkpt><trkpt lat="42.80721490263051" lon="10.407524450949122"><ele>86.0</ele><time>2026-04-19T10:49:45.839Z</time></trkpt><trkpt lat="42.807252060497625" lon="10.40736365258139"><ele>86.0</ele><time>2026-04-19T10:49:46.839Z</time></trkpt><trkpt lat="42.807327414614804" lon="10.407232622055856"><ele>86.0</ele><time>2026-04-19T10:49:47.839Z</time></trkpt><trkpt lat="42.80736328370219" lon="10.407094204111585"><ele>86.0</ele><time>2026-04-19T10:49:48.839Z</time></trkpt><trkpt lat="42.8074214076469" lon="10.40696890256177"><ele>86.0</ele><time>2026-04-19T10:49:49.839Z</time></trkpt><trkpt lat="42.807470017880995" lon="10.406833613621002"><ele>86.0</ele><time>2026-04-19T10:49:50.839Z</time></trkpt><trkpt lat="42.80751051267078" lon="10.406702143309367"><ele>86.75</ele><time>2026-04-19T10:49:51.839Z</time></trkpt><trkpt lat="42.807553201423474" lon="10.40654834776571"><ele>87.5</ele><time>2026-04-19T10:49:52.839Z</time></trkpt><trkpt lat="42.80758553244536" lon="10.406404827551404"><ele>88.25</ele><time>2026-04-19T10:49:53.839Z</time></trkpt><trkpt lat="42.80760182454655" lon="10.40626372693081"><ele>89.0</ele><time>2026-04-19T10:49:54.839Z</time></trkpt><trkpt lat="42.807604361791654" lon="10.40610527744816"><ele>89.4</ele><time>2026-04-19T10:49:55.839Z</time></trkpt><trkpt lat="42.80760447575305" lon="10.405978938803802"><ele>89.80000000000001</ele><time>2026-04-19T10:49:56.839Z</time></trkpt><trkpt lat="42.807604279641986" lon="10.405837553447707"><ele>90.19999999999999</ele><time>2026-04-19T10:49:57.839Z</time></trkpt><trkpt lat="42.80762590348057" lon="10.405704345881125"><ele>90.6</ele><time>2026-04-19T10:49:58.839Z</time></trkpt><trkpt lat="42.807656004972046" lon="10.405582457856704"><ele>91.0</ele><time>2026-04-19T10:49:59.839Z</time></trkpt><trkpt lat="42.80769699199134" lon="10.405442060513556"><ele>95.0</ele><time>2026-04-19T10:50:00.839Z</time></trkpt><trkpt lat="42.80777557484056" lon="10.405333137046807"><ele>99.0</ele><time>2026-04-19T10:50:01.839Z</time></trkpt><trkpt lat="42.80785172894803" lon="10.40521247365192"><ele>103.0</ele><time>2026-04-19T10:50:02.839Z</time></trkpt><trkpt lat="42.807920114999725" lon="10.405097366982178"><ele>107.0</ele><time>2026-04-19T10:50:03.839Z</time></trkpt><trkpt lat="42.80797583259055" lon="10.404971328451339"><ele>111.0</ele><time>2026-04-19T10:50:04.839Z</time></trkpt><trkpt lat="42.80806365004998" lon="10.404869050892858"><ele>111.0</ele><time>2026-04-19T10:50:05.839Z</time></trkpt><trkpt lat="42.808143695008695" lon="10.40475685298592"><ele>111.0</ele><time>2026-04-19T10:50:06.839Z</time></trkpt><trkpt lat="42.80822529196396" lon="10.404651691156102"><ele>111.0</ele><time>2026-04-19T10:50:07.839Z</time></trkpt><trkpt lat="42.80831674939833" lon="10.404547004568238"><ele>111.0</ele><time>2026-04-19T10:50:08.839Z</time></trkpt><trkpt lat="42.808415862816304" lon="10.40444423971059"><ele>114.5</ele><time>2026-04-19T10:50:09.838Z</time></trkpt><trkpt lat="42.80851533144052" lon="10.404342475301826"><ele>118.0</ele><time>2026-04-19T10:50:10.838Z</time></trkpt><trkpt lat="42.808614224197626" lon="10.404242079787865"><ele>121.5</ele><time>2026-04-19T10:50:11.838Z</time></trkpt><trkpt lat="42.80870288225098" lon="10.4041512983168"><ele>125.0</ele><time>2026-04-19T10:50:12.838Z</time></trkpt><trkpt lat="42.808775782012084" lon="10.40403608655274"><ele>125.0</ele><time>2026-04-19T10:50:13.838Z</time></trkpt><trkpt lat="42.808845075576556" lon="10.403940444496671"><ele>125.0</ele><time>2026-04-19T10:50:14.838Z</time></trkpt><trkpt lat="42.80891763766723" lon="10.403837730864364"><ele>125.0</ele><time>2026-04-19T10:50:15.838Z</time></trkpt><trkpt lat="42.808987655986364" lon="10.403743781434082"><ele>125.0</ele><time>2026-04-19T10:50:16.838Z</time></trkpt><trkpt lat="42.809062810852346" lon="10.403673504764335"><ele>125.0</ele><time>2026-04-19T10:50:17.838Z</time></trkpt><trkpt lat="42.80915125917695" lon="10.403612895634938"><ele>125.8</ele><time>2026-04-19T10:50:18.838Z</time></trkpt><trkpt lat="42.80923065215799" lon="10.403547543346344"><ele>126.6</ele><time>2026-04-19T10:50:19.838Z</time></trkpt><trkpt lat="42.80930046295351" lon="10.403464220720682"><ele>127.4</ele><time>2026-04-19T10:50:20.838Z</time></trkpt><trkpt lat="42.80935718159998" lon="10.403353925717795"><ele>128.2</ele><time>2026-04-19T10:50:21.838Z</time></trkpt><trkpt lat="42.80941635764342" lon="10.403236575198664"><ele>129.0</ele><time>2026-04-19T10:50:22.838Z</time></trkpt><trkpt lat="42.809507700286694" lon="10.403141723817805"><ele>129.0</ele><time>2026-04-19T10:50:23.838Z</time></trkpt><trkpt lat="42.809597683786286" lon="10.403074986865548"><ele>129.0</ele><time>2026-04-19T10:50:24.838Z</time></trkpt><trkpt lat="42.80970168741092" lon="10.403022953601909"><ele>129.0</ele><time>2026-04-19T10:50:25.838Z</time></trkpt><trkpt lat="42.80979487342251" lon="10.402997589042906"><ele>129.0</ele><time>2026-04-19T10:50:26.838Z</time></trkpt><trkpt lat="42.80986394267059" lon="10.403011376411204"><ele>129.0</ele><time>2026-04-19T10:50:27.838Z</time></trkpt><trkpt lat="42.80994716661421" lon="10.403046977182836"><ele>129.0</ele><time>2026-04-19T10:50:29.838Z</time></trkpt><trkpt lat="42.81002172133256" lon="10.403050231094175"><ele>129.0</ele><time>2026-04-19T10:50:32.838Z</time></trkpt><trkpt lat="42.81011734660613" lon="10.403028844333857"><ele>129.0</ele><time>2026-04-19T10:50:34.838Z</time></trkpt><trkpt lat="42.81024686516348" lon="10.402948454480557"><ele>129.0</ele><time>2026-04-19T10:50:36.838Z</time></trkpt><trkpt lat="42.81034184555918" lon="10.402928748415095"><ele>129.0</ele><time>2026-04-19T10:50:37.838Z</time></trkpt><trkpt lat="42.81044459044699" lon="10.402937962694786"><ele>130.4</ele><time>2026-04-19T10:50:38.838Z</time></trkpt><trkpt lat="42.810547472255415" lon="10.402920181608115"><ele>131.8</ele><time>2026-04-19T10:50:39.838Z</time></trkpt><trkpt lat="42.81065051004586" lon="10.402899623429622"><ele>133.2</ele><time>2026-04-19T10:50:40.838Z</time></trkpt><trkpt lat="42.81074338258013" lon="10.402833203817591"><ele>134.6</ele><time>2026-04-19T10:50:41.838Z</time></trkpt><trkpt lat="42.810835454273644" lon="10.402745000534793"><ele>136.0</ele><time>2026-04-19T10:50:42.838Z</time></trkpt><trkpt lat="42.81089810427343" lon="10.402634540069018"><ele>136.0</ele><time>2026-04-19T10:50:43.838Z</time></trkpt><trkpt lat="42.81092554414234" lon="10.402515794379326"><ele>136.0</ele><time>2026-04-19T10:50:44.838Z</time></trkpt><trkpt lat="42.810955962987705" lon="10.402362353356299"><ele>136.0</ele><time>2026-04-19T10:50:45.838Z</time></trkpt><trkpt lat="42.810993206344435" lon="10.402209189631643"><ele>136.0</ele><time>2026-04-19T10:50:46.838Z</time></trkpt><trkpt lat="42.81103425213941" lon="10.402049565708264"><ele>136.5</ele><time>2026-04-19T10:50:47.838Z</time></trkpt><trkpt lat="42.81108729765491" lon="10.4018917417258"><ele>137.0</ele><time>2026-04-19T10:50:48.838Z</time></trkpt><trkpt lat="42.81118194996756" lon="10.401768717718676"><ele>137.5</ele><time>2026-04-19T10:50:49.838Z</time></trkpt><trkpt lat="42.81129840225359" lon="10.401719265157375"><ele>138.0</ele><time>2026-04-19T10:50:50.838Z</time></trkpt><trkpt lat="42.811410466833394" lon="10.401664996179687"><ele>138.0</ele><time>2026-04-19T10:50:51.838Z</time></trkpt><trkpt lat="42.81151471099366" lon="10.4015858361704"><ele>138.0</ele><time>2026-04-19T10:50:52.838Z</time></trkpt><trkpt lat="42.81161875506933" lon="10.401508808719866"><ele>138.0</ele><time>2026-04-19T10:50:53.838Z</time></trkpt><trkpt lat="42.811685671553384" lon="10.401419966362937"><ele>138.0</ele><time>2026-04-19T10:50:54.838Z</time></trkpt><trkpt lat="42.81176177226704" lon="10.401379742150308"><ele>138.0</ele><time>2026-04-19T10:50:55.838Z</time></trkpt><trkpt lat="42.81182762344112" lon="10.401312405734132"><ele>139.6</ele><time>2026-04-19T10:50:56.838Z</time></trkpt><trkpt lat="42.81190868056382" lon="10.401235179048182"><ele>141.20000000000002</ele><time>2026-04-19T10:50:57.838Z</time></trkpt><trkpt lat="42.81198757587129" lon="10.401139218535432"><ele>142.8</ele><time>2026-04-19T10:50:58.838Z</time></trkpt><trkpt lat="42.812054248549494" lon="10.401008227136511"><ele>144.4</ele><time>2026-04-19T10:50:59.838Z</time></trkpt><trkpt lat="42.812116427307764" lon="10.400865635386584"><ele>146.0</ele><time>2026-04-19T10:51:00.837Z</time></trkpt><trkpt lat="42.81217331291485" lon="10.40072679250068"><ele>146.0</ele><time>2026-04-19T10:51:01.837Z</time></trkpt><trkpt lat="42.812251720393796" lon="10.4006048324871"><ele>146.0</ele><time>2026-04-19T10:51:02.837Z</time></trkpt><trkpt lat="42.81234956777124" lon="10.400524390996353"><ele>146.0</ele><time>2026-04-19T10:51:03.837Z</time></trkpt><trkpt lat="42.81246084249552" lon="10.400499516377678"><ele>146.0</ele><time>2026-04-19T10:51:04.837Z</time></trkpt><trkpt lat="42.8125754803456" lon="10.400459969586533"><ele>149.6</ele><time>2026-04-19T10:51:05.837Z</time></trkpt><trkpt lat="42.81266222500269" lon="10.400417122835034"><ele>153.2</ele><time>2026-04-19T10:51:06.837Z</time></trkpt><trkpt lat="42.81272581605764" lon="10.400350651997602"><ele>156.79999999999998</ele><time>2026-04-19T10:51:07.837Z</time></trkpt><trkpt lat="42.812771384856134" lon="10.40025123341611"><ele>160.39999999999998</ele><time>2026-04-19T10:51:08.837Z</time></trkpt><trkpt lat="42.812829029425885" lon="10.400121809576019"><ele>164.0</ele><time>2026-04-19T10:51:09.837Z</time></trkpt><trkpt lat="42.81287746302127" lon="10.399983509207738"><ele>164.0</ele><time>2026-04-19T10:51:10.837Z</time></trkpt><trkpt lat="42.81291178301835" lon="10.39984631956782"><ele>164.0</ele><time>2026-04-19T10:51:11.837Z</time></trkpt><trkpt lat="42.812936093587645" lon="10.399698631748265"><ele>164.0</ele><time>2026-04-19T10:51:12.837Z</time></trkpt><trkpt lat="42.81292324899936" lon="10.399547708618515"><ele>164.0</ele><time>2026-04-19T10:51:13.837Z</time></trkpt><trkpt lat="42.812894674666055" lon="10.39944324335459"><ele>164.0</ele><time>2026-04-19T10:51:14.837Z</time></trkpt><trkpt lat="42.81291653340367" lon="10.399352839640343"><ele>167.16666666666666</ele><time>2026-04-19T10:51:15.837Z</time></trkpt><trkpt lat="42.812933330738666" lon="10.39926621342924"><ele>170.33333333333331</ele><time>2026-04-19T10:51:16.837Z</time></trkpt><trkpt lat="42.81303978695001" lon="10.39927065180967"><ele>173.5</ele><time>2026-04-19T10:51:17.837Z</time></trkpt><trkpt lat="42.81312756450076" lon="10.39930613475106"><ele>176.66666666666666</ele><time>2026-04-19T10:51:18.837Z</time></trkpt><trkpt lat="42.81321347734039" lon="10.399354765850472"><ele>179.83333333333334</ele><time>2026-04-19T10:51:19.837Z</time></trkpt><trkpt lat="42.813278221874384" lon="10.399430474723083"><ele>183.0</ele><time>2026-04-19T10:51:20.837Z</time></trkpt><trkpt lat="42.81334674171451" lon="10.399517398321679"><ele>183.0</ele><time>2026-04-19T10:51:21.837Z</time></trkpt><trkpt lat="42.813395916034025" lon="10.399604443768059"><ele>183.0</ele><time>2026-04-19T10:51:22.837Z</time></trkpt><trkpt lat="42.81343311552259" lon="10.399682998935402"><ele>183.0</ele><time>2026-04-19T10:51:23.837Z</time></trkpt><trkpt lat="42.813465677794845" lon="10.399765837304129"><ele>183.0</ele><time>2026-04-19T10:51:24.837Z</time></trkpt><trkpt lat="42.813505496937964" lon="10.399841222223346"><ele>183.0</ele><time>2026-04-19T10:51:25.837Z</time></trkpt><trkpt lat="42.8135491377919" lon="10.39991416618813"><ele>183.0</ele><time>2026-04-19T10:51:26.837Z</time></trkpt><trkpt lat="42.81359444771439" lon="10.400014329335542"><ele>183.0</ele><time>2026-04-19T10:51:27.837Z</time></trkpt><trkpt lat="42.8136353259955" lon="10.400106734001154"><ele>182.66666666666666</ele><time>2026-04-19T10:51:28.837Z</time></trkpt><trkpt lat="42.81366430716253" lon="10.400196748741866"><ele>182.33333333333334</ele><time>2026-04-19T10:51:29.837Z</time></trkpt><trkpt lat="42.81369530006753" lon="10.400289020785241"><ele>182.0</ele><time>2026-04-19T10:51:30.837Z</time></trkpt><trkpt lat="42.813725987798605" lon="10.400380937455113"><ele>181.66666666666669</ele><time>2026-04-19T10:51:31.837Z</time></trkpt><trkpt lat="42.81374448876611" lon="10.400484312160453"><ele>181.33333333333334</ele><time>2026-04-19T10:51:32.837Z</time></trkpt><trkpt lat="42.81374162767478" lon="10.400596289949537"><ele>181.0</ele><time>2026-04-19T10:51:33.837Z</time></trkpt><trkpt lat="42.813734919326514" lon="10.400700754424937"><ele>180.0</ele><time>2026-04-19T10:51:34.837Z</time></trkpt><trkpt lat="42.81373071754722" lon="10.40080797353391"><ele>179.0</ele><time>2026-04-19T10:51:35.837Z</time></trkpt><trkpt lat="42.81371922683701" lon="10.400903321694035"><ele>178.0</ele><time>2026-04-19T10:51:36.837Z</time></trkpt><trkpt lat="42.813728638627566" lon="10.40103144744537"><ele>177.0</ele><time>2026-04-19T10:51:38.837Z</time></trkpt><trkpt lat="42.81374196209106" lon="10.401141556719967"><ele>176.0</ele><time>2026-04-19T10:51:40.837Z</time></trkpt><trkpt lat="42.81379345783893" lon="10.401220451959919"><ele>175.0</ele><time>2026-04-19T10:51:44.837Z</time></trkpt><trkpt lat="42.81386227599529" lon="10.401202753707256"><ele>175.0</ele><time>2026-04-19T10:51:47.837Z</time></trkpt><trkpt lat="42.813911080491124" lon="10.401143432944572"><ele>175.0</ele><time>2026-04-19T10:51:50.838Z</time></trkpt><trkpt lat="42.813869889662776" lon="10.401062141836755"><ele>175.0</ele><time>2026-04-19T10:52:39.837Z</time></trkpt><trkpt lat="42.81381147839875" lon="10.401119276353535"><ele>175.0</ele><time>2026-04-19T10:53:04.836Z</time></trkpt><trkpt lat="42.81374420214108" lon="10.401210116612711"><ele>175.0</ele><time>2026-04-19T10:53:07.836Z</time></trkpt><trkpt lat="42.81370171911377" lon="10.401130548681321"><ele>175.0</ele><time>2026-04-19T10:53:09.836Z</time></trkpt><trkpt lat="42.81372776099164" lon="10.401036121624402"><ele>175.0</ele><time>2026-04-19T10:53:10.836Z</time></trkpt><trkpt lat="42.81375459929344" lon="10.400916950898601"><ele>175.0</ele><time>2026-04-19T10:53:11.836Z</time></trkpt><trkpt lat="42.81376675854271" lon="10.40079440946"><ele>175.0</ele><time>2026-04-19T10:53:12.836Z</time></trkpt><trkpt lat="42.81377445984398" lon="10.400668581225853"><ele>175.0</ele><time>2026-04-19T10:53:13.836Z</time></trkpt><trkpt lat="42.81377739531121" lon="10.400543833637142"><ele>175.0</ele><time>2026-04-19T10:53:14.836Z</time></trkpt><trkpt lat="42.813734260924186" lon="10.400398510967326"><ele>176.2</ele><time>2026-04-19T10:53:15.836Z</time></trkpt><trkpt lat="42.81374158298469" lon="10.400256194155673"><ele>177.4</ele><time>2026-04-19T10:53:16.836Z</time></trkpt><trkpt lat="42.81367799776024" lon="10.400117842952177"><ele>178.60000000000002</ele><time>2026-04-19T10:53:17.836Z</time></trkpt><trkpt lat="42.81361736169192" lon="10.399989249136969"><ele>179.8</ele><time>2026-04-19T10:53:18.836Z</time></trkpt><trkpt lat="42.81356549324124" lon="10.399882436760517"><ele>181.0</ele><time>2026-04-19T10:53:19.836Z</time></trkpt><trkpt lat="42.81351409298798" lon="10.399776588666164"><ele>181.4</ele><time>2026-04-19T10:53:20.836Z</time></trkpt><trkpt lat="42.81346007364558" lon="10.399670993385884"><ele>181.8</ele><time>2026-04-19T10:53:21.836Z</time></trkpt><trkpt lat="42.813405222778776" lon="10.39956680165251"><ele>182.20000000000002</ele><time>2026-04-19T10:53:22.836Z</time></trkpt><trkpt lat="42.813339907011766" lon="10.399465225300018"><ele>182.60000000000002</ele><time>2026-04-19T10:53:23.836Z</time></trkpt><trkpt lat="42.81326021154373" lon="10.399371937825148"><ele>183.0</ele><time>2026-04-19T10:53:24.836Z</time></trkpt><trkpt lat="42.8131699994123" lon="10.399295547022513"><ele>183.0</ele><time>2026-04-19T10:53:25.836Z</time></trkpt><trkpt lat="42.81308604067015" lon="10.399246022260204"><ele>183.0</ele><time>2026-04-19T10:53:26.836Z</time></trkpt><trkpt lat="42.813001389094836" lon="10.399213525204356"><ele>183.0</ele><time>2026-04-19T10:53:27.836Z</time></trkpt><trkpt lat="42.81292113256964" lon="10.39921764470806"><ele>183.0</ele><time>2026-04-19T10:53:28.836Z</time></trkpt><trkpt lat="42.81284600570502" lon="10.399284566552074"><ele>183.0</ele><time>2026-04-19T10:53:29.836Z</time></trkpt><trkpt lat="42.8128335271671" lon="10.39943865574458"><ele>183.0</ele><time>2026-04-19T10:53:30.836Z</time></trkpt><trkpt lat="42.81284869458486" lon="10.39957021956428"><ele>183.0</ele><time>2026-04-19T10:53:31.836Z</time></trkpt><trkpt lat="42.81289111647292" lon="10.399724550054442"><ele>183.0</ele><time>2026-04-19T10:53:32.836Z</time></trkpt><trkpt lat="42.81285510248664" lon="10.399875645254442"><ele>183.0</ele><time>2026-04-19T10:53:33.836Z</time></trkpt><trkpt lat="42.81282012824949" lon="10.400001331146688"><ele>183.0</ele><time>2026-04-19T10:53:34.836Z</time></trkpt><trkpt lat="42.812763385086704" lon="10.400139823566924"><ele>179.8</ele><time>2026-04-19T10:53:35.836Z</time></trkpt><trkpt lat="42.81269407809478" lon="10.400271176837785"><ele>176.60000000000002</ele><time>2026-04-19T10:53:36.836Z</time></trkpt><trkpt lat="42.81261460462794" lon="10.400358126303816"><ele>173.39999999999998</ele><time>2026-04-19T10:53:37.836Z</time></trkpt><trkpt lat="42.81252271484673" lon="10.400409962884114"><ele>170.2</ele><time>2026-04-19T10:53:38.836Z</time></trkpt><trkpt lat="42.81243364581441" lon="10.400445133508528"><ele>167.0</ele><time>2026-04-19T10:53:39.836Z</time></trkpt><trkpt lat="42.8123275680075" lon="10.400490481639695"><ele>162.79999999999998</ele><time>2026-04-19T10:53:40.836Z</time></trkpt><trkpt lat="42.812247544583585" lon="10.400525977950787"><ele>158.6</ele><time>2026-04-19T10:53:41.836Z</time></trkpt><trkpt lat="42.81216101666431" lon="10.400578388138985"><ele>154.39999999999998</ele><time>2026-04-19T10:53:42.836Z</time></trkpt><trkpt lat="42.812101040003256" lon="10.400694731121355"><ele>150.2</ele><time>2026-04-19T10:53:43.836Z</time></trkpt><trkpt lat="42.812035377861946" lon="10.40081235307076"><ele>146.0</ele><time>2026-04-19T10:53:44.836Z</time></trkpt><trkpt lat="42.8119784235528" lon="10.400930428377144"><ele>146.0</ele><time>2026-04-19T10:53:45.836Z</time></trkpt><trkpt lat="42.8119171640928" lon="10.401058511138887"><ele>146.0</ele><time>2026-04-19T10:53:46.836Z</time></trkpt><trkpt lat="42.81184256997093" lon="10.401172138796383"><ele>146.0</ele><time>2026-04-19T10:53:47.836Z</time></trkpt><trkpt lat="42.81175624416802" lon="10.401259833773162"><ele>146.0</ele><time>2026-04-19T10:53:48.836Z</time></trkpt><trkpt lat="42.81166881462777" lon="10.401343681373396"><ele>146.0</ele><time>2026-04-19T10:53:49.836Z</time></trkpt><trkpt lat="42.811584372931975" lon="10.401416721965592"><ele>144.4</ele><time>2026-04-19T10:53:50.836Z</time></trkpt><trkpt lat="42.811503956499614" lon="10.40148164227946"><ele>142.8</ele><time>2026-04-19T10:53:51.836Z</time></trkpt><trkpt lat="42.81142280455533" lon="10.401547155705995"><ele>141.20000000000002</ele><time>2026-04-19T10:53:52.836Z</time></trkpt><trkpt lat="42.81134831708366" lon="10.401607288946845"><ele>139.6</ele><time>2026-04-19T10:53:53.836Z</time></trkpt><trkpt lat="42.811263551976076" lon="10.401675719254863"><ele>138.0</ele><time>2026-04-19T10:53:54.835Z</time></trkpt><trkpt lat="42.811197699698816" lon="10.40178639446085"><ele>138.0</ele><time>2026-04-19T10:53:55.835Z</time></trkpt><trkpt lat="42.811111034473804" lon="10.401858391110501"><ele>138.0</ele><time>2026-04-19T10:53:56.837Z</time></trkpt><trkpt lat="42.81104618973205" lon="10.401945975997421"><ele>138.0</ele><time>2026-04-19T10:53:57.837Z</time></trkpt><trkpt lat="42.81099332833075" lon="10.402086212029486"><ele>138.0</ele><time>2026-04-19T10:53:58.837Z</time></trkpt><trkpt lat="42.81093568431287" lon="10.402229378110011"><ele>138.0</ele><time>2026-04-19T10:53:59.837Z</time></trkpt><trkpt lat="42.81090364060142" lon="10.402361158221352"><ele>137.6</ele><time>2026-04-19T10:54:00.837Z</time></trkpt><trkpt lat="42.81086850319713" lon="10.402509667064873"><ele>137.20000000000002</ele><time>2026-04-19T10:54:01.837Z</time></trkpt><trkpt lat="42.81082117762223" lon="10.402652664868933"><ele>136.8</ele><time>2026-04-19T10:54:02.837Z</time></trkpt><trkpt lat="42.81074654497753" lon="10.402763121356038"><ele>136.4</ele><time>2026-04-19T10:54:03.837Z</time></trkpt><trkpt lat="42.81065268859873" lon="10.402817844468926"><ele>136.0</ele><time>2026-04-19T10:54:04.837Z</time></trkpt><trkpt lat="42.81055544131569" lon="10.402836689951409"><ele>136.0</ele><time>2026-04-19T10:54:05.837Z</time></trkpt><trkpt lat="42.810441117544485" lon="10.402849409813621"><ele>136.0</ele><time>2026-04-19T10:54:06.837Z</time></trkpt><trkpt lat="42.810332120668065" lon="10.402862074969045"><ele>136.0</ele><time>2026-04-19T10:54:07.837Z</time></trkpt><trkpt lat="42.810256840076114" lon="10.402876229173561"><ele>136.0</ele><time>2026-04-19T10:54:08.837Z</time></trkpt><trkpt lat="42.81018755644925" lon="10.402913769266103"><ele>136.0</ele><time>2026-04-19T10:54:09.837Z</time></trkpt><trkpt lat="42.81007362880887" lon="10.402947182565011"><ele>135.2</ele><time>2026-04-19T10:54:11.837Z</time></trkpt><trkpt lat="42.8099753972574" lon="10.402995681829744"><ele>134.39999999999998</ele><time>2026-04-19T10:54:13.836Z</time></trkpt><trkpt lat="42.81000327330748" lon="10.403141662001717"><ele>133.6</ele><time>2026-04-19T10:54:14.836Z</time></trkpt><trkpt lat="42.81004413267495" lon="10.4032524615708"><ele>132.79999999999998</ele><time>2026-04-19T10:54:15.836Z</time></trkpt><trkpt lat="42.81009651913548" lon="10.403375338001094"><ele>132.0</ele><time>2026-04-19T10:54:16.836Z</time></trkpt><trkpt lat="42.810158809093764" lon="10.403515677469393"><ele>129.75</ele><time>2026-04-19T10:54:17.836Z</time></trkpt><trkpt lat="42.81022409794889" lon="10.403670815668963"><ele>127.5</ele><time>2026-04-19T10:54:18.836Z</time></trkpt><trkpt lat="42.81029537262449" lon="10.40383812273057"><ele>125.25</ele><time>2026-04-19T10:54:19.836Z</time></trkpt><trkpt lat="42.81038937490414" lon="10.40399696753467"><ele>123.0</ele><time>2026-04-19T10:54:20.836Z</time></trkpt><trkpt lat="42.81048884524759" lon="10.404150185378215"><ele>121.5</ele><time>2026-04-19T10:54:21.836Z</time></trkpt><trkpt lat="42.81059800059693" lon="10.404277555253872"><ele>120.0</ele><time>2026-04-19T10:54:22.836Z</time></trkpt><trkpt lat="42.8106959565004" lon="10.404397759472275"><ele>118.5</ele><time>2026-04-19T10:54:23.836Z</time></trkpt><trkpt lat="42.81079523704277" lon="10.404504292590506"><ele>117.0</ele><time>2026-04-19T10:54:24.836Z</time></trkpt><trkpt lat="42.8109181382567" lon="10.40458880723465"><ele>111.25</ele><time>2026-04-19T10:54:25.836Z</time></trkpt><trkpt lat="42.811016826345586" lon="10.404680857097139"><ele>105.5</ele><time>2026-04-19T10:54:26.836Z</time></trkpt><trkpt lat="42.8111030884391" lon="10.404783766385236"><ele>99.75</ele><time>2026-04-19T10:54:27.838Z</time></trkpt><trkpt lat="42.81116634481295" lon="10.404918773009701"><ele>94.0</ele><time>2026-04-19T10:54:28.84Z</time></trkpt><trkpt lat="42.81115116770057" lon="10.405081298261807"><ele>94.0</ele><time>2026-04-19T10:54:29.842Z</time></trkpt><trkpt lat="42.811148714057396" lon="10.405257587632045"><ele>94.0</ele><time>2026-04-19T10:54:30.844Z</time></trkpt><trkpt lat="42.81113735579327" lon="10.405433507398586"><ele>94.0</ele><time>2026-04-19T10:54:31.846Z</time></trkpt><trkpt lat="42.81109476360917" lon="10.405593818324933"><ele>94.0</ele><time>2026-04-19T10:54:32.847Z</time></trkpt><trkpt lat="42.81103389860089" lon="10.405731646058369"><ele>93.0</ele><time>2026-04-19T10:54:33.849Z</time></trkpt><trkpt lat="42.81101763185229" lon="10.405883981626777"><ele>92.0</ele><time>2026-04-19T10:54:34.85Z</time></trkpt><trkpt lat="42.810994771972986" lon="10.406032087571772"><ele>91.0</ele><time>2026-04-19T10:54:35.851Z</time></trkpt><trkpt lat="42.811009849248414" lon="10.406183922125736"><ele>90.0</ele><time>2026-04-19T10:54:36.852Z</time></trkpt><trkpt lat="42.811077355550694" lon="10.406346860907647"><ele>89.25</ele><time>2026-04-19T10:54:37.854Z</time></trkpt><trkpt lat="42.81115417096701" lon="10.406495930402215"><ele>88.5</ele><time>2026-04-19T10:54:38.855Z</time></trkpt><trkpt lat="42.81121237053632" lon="10.40664849897484"><ele>87.75</ele><time>2026-04-19T10:54:39.856Z</time></trkpt><trkpt lat="42.81120400382211" lon="10.406821329596044"><ele>87.0</ele><time>2026-04-19T10:54:40.856Z</time></trkpt><trkpt lat="42.81116223277201" lon="10.406977125452704"><ele>87.0</ele><time>2026-04-19T10:54:41.857Z</time></trkpt><trkpt lat="42.81110330658223" lon="10.407147039363126"><ele>87.0</ele><time>2026-04-19T10:54:42.858Z</time></trkpt><trkpt lat="42.81104220198218" lon="10.407329216223253"><ele>87.0</ele><time>2026-04-19T10:54:43.859Z</time></trkpt><trkpt lat="42.810977952662476" lon="10.407518329766711"><ele>87.0</ele><time>2026-04-19T10:54:44.86Z</time></trkpt><trkpt lat="42.81091886167624" lon="10.407685128410407"><ele>86.5</ele><time>2026-04-19T10:54:45.86Z</time></trkpt><trkpt lat="42.810852495126454" lon="10.407836146742788"><ele>86.0</ele><time>2026-04-19T10:54:46.861Z</time></trkpt><trkpt lat="42.810768897982626" lon="10.407970620546886"><ele>85.5</ele><time>2026-04-19T10:54:47.861Z</time></trkpt><trkpt lat="42.81066996617517" lon="10.408067652671825"><ele>85.0</ele><time>2026-04-19T10:54:48.862Z</time></trkpt><trkpt lat="42.810556509914086" lon="10.408121615110636"><ele>85.0</ele><time>2026-04-19T10:54:49.862Z</time></trkpt><trkpt lat="42.81042379634531" lon="10.408183872644"><ele>85.0</ele><time>2026-04-19T10:54:50.863Z</time></trkpt><trkpt lat="42.81028141551313" lon="10.408249983984264"><ele>85.0</ele><time>2026-04-19T10:54:51.863Z</time></trkpt><trkpt lat="42.810148661317406" lon="10.408319686906466"><ele>85.0</ele><time>2026-04-19T10:54:52.864Z</time></trkpt><trkpt lat="42.81001978243222" lon="10.408392021309687"><ele>86.0</ele><time>2026-04-19T10:54:53.864Z</time></trkpt><trkpt lat="42.80990950701191" lon="10.40845999584669"><ele>87.0</ele><time>2026-04-19T10:54:54.865Z</time></trkpt><trkpt lat="42.80982032760719" lon="10.408560052627692"><ele>88.0</ele><time>2026-04-19T10:54:55.865Z</time></trkpt><trkpt lat="42.809747271111256" lon="10.408651014490799"><ele>89.0</ele><time>2026-04-19T10:54:56.865Z</time></trkpt><trkpt lat="42.80971073842417" lon="10.408746283683875"><ele>90.0</ele><time>2026-04-19T10:54:57.865Z</time></trkpt><trkpt lat="42.80971579476288" lon="10.408871135161919"><ele>87.0</ele><time>2026-04-19T10:54:58.866Z</time></trkpt><trkpt lat="42.8097701070453" lon="10.408972889035521"><ele>84.0</ele><time>2026-04-19T10:54:59.866Z</time></trkpt><trkpt lat="42.809854193146435" lon="10.409025079925184"><ele>81.0</ele><time>2026-04-19T10:55:00.866Z</time></trkpt><trkpt lat="42.809947500972136" lon="10.409054186907369"><ele>78.0</ele><time>2026-04-19T10:55:01.866Z</time></trkpt><trkpt lat="42.81006012011111" lon="10.409050993414473"><ele>75.0</ele><time>2026-04-19T10:55:02.867Z</time></trkpt><trkpt lat="42.810213316392684" lon="10.40905551063199"><ele>74.0</ele><time>2026-04-19T10:55:03.867Z</time></trkpt><trkpt lat="42.81036333715995" lon="10.409071026848384"><ele>73.0</ele><time>2026-04-19T10:55:04.867Z</time></trkpt><trkpt lat="42.810512468704424" lon="10.40911139918499"><ele>72.0</ele><time>2026-04-19T10:55:05.867Z</time></trkpt><trkpt lat="42.810660864027355" lon="10.409190278232492"><ele>72.0</ele><time>2026-04-19T10:55:06.867Z</time></trkpt><trkpt lat="42.81079108644821" lon="10.409307748124492"><ele>72.0</ele><time>2026-04-19T10:55:07.868Z</time></trkpt><trkpt lat="42.81090824093311" lon="10.409410566147386"><ele>72.0</ele><time>2026-04-19T10:55:08.868Z</time></trkpt><trkpt lat="42.81102782443642" lon="10.409443890072588"><ele>72.0</ele><time>2026-04-19T10:55:09.868Z</time></trkpt><trkpt lat="42.81116115253841" lon="10.409448627413129"><ele>69.33333333333333</ele><time>2026-04-19T10:55:10.868Z</time></trkpt><trkpt lat="42.811319695117405" lon="10.409441199602355"><ele>66.66666666666666</ele><time>2026-04-19T10:55:11.868Z</time></trkpt><trkpt lat="42.81147080897358" lon="10.409415285674196"><ele>64.0</ele><time>2026-04-19T10:55:12.868Z</time></trkpt><trkpt lat="42.81160691824181" lon="10.409359454167387"><ele>64.0</ele><time>2026-04-19T10:55:13.868Z</time></trkpt><trkpt lat="42.81173831145424" lon="10.409278424297154"><ele>64.0</ele><time>2026-04-19T10:55:14.868Z</time></trkpt><trkpt lat="42.81187369051276" lon="10.409239727681676"><ele>64.0</ele><time>2026-04-19T10:55:15.868Z</time></trkpt><trkpt lat="42.8119798612986" lon="10.408980792747105"><ele>63.75</ele><time>2026-04-19T10:55:16.868Z</time></trkpt><trkpt lat="42.81209042841955" lon="10.40885157296164"><ele>63.5</ele><time>2026-04-19T10:55:17.869Z</time></trkpt><trkpt lat="42.81219657428901" lon="10.408741820115386"><ele>63.25</ele><time>2026-04-19T10:55:18.869Z</time></trkpt><trkpt lat="42.81230907495254" lon="10.408674123645971"><ele>63.0</ele><time>2026-04-19T10:55:19.869Z</time></trkpt><trkpt lat="42.8124150611076" lon="10.408661167090916"><ele>63.0</ele><time>2026-04-19T10:55:20.869Z</time></trkpt><trkpt lat="42.81251645480332" lon="10.408669100883513"><ele>63.0</ele><time>2026-04-19T10:55:21.869Z</time></trkpt><trkpt lat="42.8126152166022" lon="10.408704004808207"><ele>63.0</ele><time>2026-04-19T10:55:22.869Z</time></trkpt><trkpt lat="42.81270357099015" lon="10.408773438331776"><ele>63.0</ele><time>2026-04-19T10:55:23.869Z</time></trkpt><trkpt lat="42.8127757646026" lon="10.408874139341625"><ele>63.0</ele><time>2026-04-19T10:55:24.869Z</time></trkpt><trkpt lat="42.81274009559474" lon="10.40903487936535"><ele>61.25</ele><time>2026-04-19T10:55:25.869Z</time></trkpt><trkpt lat="42.81273324563261" lon="10.409179147679783"><ele>59.5</ele><time>2026-04-19T10:55:26.869Z</time></trkpt><trkpt lat="42.812706243454805" lon="10.4093360274929"><ele>57.75</ele><time>2026-04-19T10:55:27.869Z</time></trkpt><trkpt lat="42.812669091044945" lon="10.409507648705043"><ele>56.0</ele><time>2026-04-19T10:55:28.869Z</time></trkpt><trkpt lat="42.81262951712046" lon="10.409692169665481"><ele>55.75</ele><time>2026-04-19T10:55:29.869Z</time></trkpt><trkpt lat="42.81259064781631" lon="10.409882178963974"><ele>55.5</ele><time>2026-04-19T10:55:30.869Z</time></trkpt><trkpt lat="42.81256392607668" lon="10.410085926981596"><ele>55.25</ele><time>2026-04-19T10:55:31.869Z</time></trkpt><trkpt lat="42.812551345737795" lon="10.410278020180566"><ele>55.0</ele><time>2026-04-19T10:55:32.869Z</time></trkpt><trkpt lat="42.81255639687742" lon="10.41046110792963"><ele>54.25</ele><time>2026-04-19T10:55:33.869Z</time></trkpt><trkpt lat="42.81252918696178" lon="10.410636461693525"><ele>53.5</ele><time>2026-04-19T10:55:34.869Z</time></trkpt><trkpt lat="42.81252706396467" lon="10.410800734872153"><ele>52.75</ele><time>2026-04-19T10:55:35.869Z</time></trkpt><trkpt lat="42.81253028632105" lon="10.410968248932791"><ele>52.0</ele><time>2026-04-19T10:55:36.869Z</time></trkpt><trkpt lat="42.81252482471731" lon="10.411130842564136"><ele>52.0</ele><time>2026-04-19T10:55:37.869Z</time></trkpt><trkpt lat="42.81252690016053" lon="10.411296603163663"><ele>52.0</ele><time>2026-04-19T10:55:38.869Z</time></trkpt><trkpt lat="42.81251895795919" lon="10.411470086924114"><ele>52.0</ele><time>2026-04-19T10:55:39.869Z</time></trkpt><trkpt lat="42.812512638435415" lon="10.411623978774728"><ele>52.0</ele><time>2026-04-19T10:55:40.869Z</time></trkpt><trkpt lat="42.81250116150422" lon="10.411782587758273"><ele>51.0</ele><time>2026-04-19T10:55:41.869Z</time></trkpt><trkpt lat="42.81245423736216" lon="10.411929106971622"><ele>50.0</ele><time>2026-04-19T10:55:42.869Z</time></trkpt><trkpt lat="42.812430815621845" lon="10.412087315809147"><ele>49.0</ele><time>2026-04-19T10:55:43.869Z</time></trkpt><trkpt lat="42.81240194877968" lon="10.412244235185977"><ele>48.0</ele><time>2026-04-19T10:55:44.869Z</time></trkpt><trkpt lat="42.81236454343244" lon="10.412415051986503"><ele>46.25</ele><time>2026-04-19T10:55:45.869Z</time></trkpt><trkpt lat="42.812314059275636" lon="10.412562944957747"><ele>44.5</ele><time>2026-04-19T10:55:46.869Z</time></trkpt><trkpt lat="42.81226986470918" lon="10.412710349369059"><ele>42.75</ele><time>2026-04-19T10:55:47.869Z</time></trkpt><trkpt lat="42.81222959170409" lon="10.412848031983996"><ele>41.0</ele><time>2026-04-19T10:55:48.869Z</time></trkpt><trkpt lat="42.812199899690775" lon="10.412992739250463"><ele>40.0</ele><time>2026-04-19T10:55:49.869Z</time></trkpt><trkpt lat="42.812212814523136" lon="10.413146587305208"><ele>39.0</ele><time>2026-04-19T10:55:50.869Z</time></trkpt><trkpt lat="42.812232872067874" lon="10.413315560740969"><ele>38.0</ele><time>2026-04-19T10:55:51.869Z</time></trkpt><trkpt lat="42.812281760425456" lon="10.413485215737406"><ele>37.0</ele><time>2026-04-19T10:55:52.869Z</time></trkpt><trkpt lat="42.81231852228258" lon="10.413636724583894"><ele>37.0</ele><time>2026-04-19T10:55:53.869Z</time></trkpt><trkpt lat="42.812354400625544" lon="10.413787604667444"><ele>37.0</ele><time>2026-04-19T10:55:54.869Z</time></trkpt><trkpt lat="42.81238515540037" lon="10.413917968259467"><ele>37.0</ele><time>2026-04-19T10:55:55.869Z</time></trkpt><trkpt lat="42.81242241562717" lon="10.414055142467777"><ele>37.0</ele><time>2026-04-19T10:55:56.869Z</time></trkpt><trkpt lat="42.81246676851258" lon="10.414187960450791"><ele>37.0</ele><time>2026-04-19T10:55:57.869Z</time></trkpt><trkpt lat="42.81255505402865" lon="10.414289233900593"><ele>37.25</ele><time>2026-04-19T10:55:58.869Z</time></trkpt><trkpt lat="42.81262661129925" lon="10.414421599324763"><ele>37.5</ele><time>2026-04-19T10:55:59.869Z</time></trkpt><trkpt lat="42.81270950152326" lon="10.414535213961607"><ele>37.75</ele><time>2026-04-19T10:56:00.869Z</time></trkpt><trkpt lat="42.812787554681606" lon="10.414660838148462"><ele>38.0</ele><time>2026-04-19T10:56:01.869Z</time></trkpt><trkpt lat="42.81280815356156" lon="10.414817449088554"><ele>37.4</ele><time>2026-04-19T10:56:02.87Z</time></trkpt><trkpt lat="42.81280978028684" lon="10.414977865095565"><ele>36.8</ele><time>2026-04-19T10:56:03.87Z</time></trkpt><trkpt lat="42.81281449775014" lon="10.41512506128579"><ele>36.2</ele><time>2026-04-19T10:56:04.871Z</time></trkpt><trkpt lat="42.81281882391156" lon="10.415260048684717"><ele>35.6</ele><time>2026-04-19T10:56:05.871Z</time></trkpt><trkpt lat="42.812822780361195" lon="10.415383500224015"><ele>35.0</ele><time>2026-04-19T10:56:06.871Z</time></trkpt><trkpt lat="42.812826310654856" lon="10.415493654472824"><ele>34.5</ele><time>2026-04-19T10:56:07.871Z</time></trkpt><trkpt lat="42.812829300061196" lon="10.415586931665404"><ele>34.0</ele><time>2026-04-19T10:56:08.871Z</time></trkpt><trkpt lat="42.81292445245164" lon="10.41567578431845"><ele>33.5</ele><time>2026-04-19T10:56:09.871Z</time></trkpt><trkpt lat="42.81298420015888" lon="10.415767409350146"><ele>33.0</ele><time>2026-04-19T10:56:11.87Z</time></trkpt><trkpt lat="42.813024329516324" lon="10.415834001714552"><ele>32.5</ele><time>2026-04-19T10:56:17.871Z</time></trkpt><trkpt lat="42.81311264628634" lon="10.415923688210569"><ele>32.0</ele><time>2026-04-19T10:56:53.87Z</time></trkpt><trkpt lat="42.81318887023533" lon="10.416003710298206"><ele>32.0</ele><time>2026-04-19T10:56:54.87Z</time></trkpt><trkpt lat="42.813263589647" lon="10.416103520466717"><ele>32.0</ele><time>2026-04-19T10:56:55.87Z</time></trkpt><trkpt lat="42.81335719806205" lon="10.416232358696838"><ele>32.0</ele><time>2026-04-19T10:56:56.87Z</time></trkpt><trkpt lat="42.8134495885508" lon="10.416366939651676"><ele>32.0</ele><time>2026-04-19T10:56:57.87Z</time></trkpt><trkpt lat="42.81354935940898" lon="10.416517091301753"><ele>33.33333333333333</ele><time>2026-04-19T10:56:58.87Z</time></trkpt><trkpt lat="42.81364435984285" lon="10.41667211059231"><ele>34.666666666666664</ele><time>2026-04-19T10:56:59.87Z</time></trkpt><trkpt lat="42.813742577325876" lon="10.416845127143242"><ele>36.0</ele><time>2026-04-19T10:57:00.87Z</time></trkpt><trkpt lat="42.81378587753271" lon="10.417047155730861"><ele>36.0</ele><time>2026-04-19T10:57:01.87Z</time></trkpt><trkpt lat="42.81383451365652" lon="10.41723136772239"><ele>36.0</ele><time>2026-04-19T10:57:02.87Z</time></trkpt><trkpt lat="42.813862290651606" lon="10.417420693993812"><ele>36.0</ele><time>2026-04-19T10:57:03.87Z</time></trkpt><trkpt lat="42.81385126944962" lon="10.41759213378042"><ele>36.0</ele><time>2026-04-19T10:57:04.87Z</time></trkpt><trkpt lat="42.81382402366657" lon="10.417762034248609"><ele>36.0</ele><time>2026-04-19T10:57:05.87Z</time></trkpt><trkpt lat="42.81379111066497" lon="10.417945851479349"><ele>36.0</ele><time>2026-04-19T10:57:06.87Z</time></trkpt><trkpt lat="42.81374745227687" lon="10.418113871661811"><ele>36.0</ele><time>2026-04-19T10:57:07.87Z</time></trkpt><trkpt lat="42.81369030797636" lon="10.41827401876582"><ele>36.0</ele><time>2026-04-19T10:57:08.87Z</time></trkpt><trkpt lat="42.81364303355661" lon="10.418451085659623"><ele>41.0</ele><time>2026-04-19T10:57:09.87Z</time></trkpt><trkpt lat="42.81362954501678" lon="10.418652933601406"><ele>46.0</ele><time>2026-04-19T10:57:10.87Z</time></trkpt><trkpt lat="42.81362384887964" lon="10.418857064030503"><ele>51.0</ele><time>2026-04-19T10:57:11.87Z</time></trkpt><trkpt lat="42.813578709094216" lon="10.419058581286496"><ele>53.25</ele><time>2026-04-19T10:57:12.87Z</time></trkpt><trkpt lat="42.81354135076481" lon="10.419249173379546"><ele>55.5</ele><time>2026-04-19T10:57:13.87Z</time></trkpt><trkpt lat="42.8135301959143" lon="10.419430305492547"><ele>57.75</ele><time>2026-04-19T10:57:14.87Z</time></trkpt><trkpt lat="42.81351501924556" lon="10.419615934423119"><ele>60.0</ele><time>2026-04-19T10:57:15.87Z</time></trkpt><trkpt lat="42.81351619373779" lon="10.419807461872477"><ele>60.0</ele><time>2026-04-19T10:57:16.87Z</time></trkpt><trkpt lat="42.813524721877734" lon="10.419995624821558"><ele>60.0</ele><time>2026-04-19T10:57:17.87Z</time></trkpt><trkpt lat="42.81354999568242" lon="10.420173233972124"><ele>60.0</ele><time>2026-04-19T10:57:18.87Z</time></trkpt><trkpt lat="42.813589410289914" lon="10.420353989310179"><ele>60.0</ele><time>2026-04-19T10:57:19.87Z</time></trkpt><trkpt lat="42.81365071626979" lon="10.420504925512194"><ele>55.0</ele><time>2026-04-19T10:57:20.87Z</time></trkpt><trkpt lat="42.81371666320391" lon="10.420632457266164"><ele>50.0</ele><time>2026-04-19T10:57:21.87Z</time></trkpt><trkpt lat="42.81379586085236" lon="10.420769507437269"><ele>45.0</ele><time>2026-04-19T10:57:22.87Z</time></trkpt><trkpt lat="42.8138776382939" lon="10.42091227814315"><ele>40.0</ele><time>2026-04-19T10:57:23.87Z</time></trkpt><trkpt lat="42.81397681905026" lon="10.421045103430771"><ele>40.0</ele><time>2026-04-19T10:57:24.87Z</time></trkpt><trkpt lat="42.814065575703005" lon="10.42119148594438"><ele>40.0</ele><time>2026-04-19T10:57:25.87Z</time></trkpt><trkpt lat="42.814141467815396" lon="10.421362302486951"><ele>40.0</ele><time>2026-04-19T10:57:26.87Z</time></trkpt><trkpt lat="42.81419708332655" lon="10.421532573701928"><ele>40.0</ele><time>2026-04-19T10:57:27.87Z</time></trkpt><trkpt lat="42.814228220523056" lon="10.421708480086815"><ele>36.25</ele><time>2026-04-19T10:57:28.87Z</time></trkpt><trkpt lat="42.81425740596224" lon="10.421873001302346"><ele>32.5</ele><time>2026-04-19T10:57:29.87Z</time></trkpt><trkpt lat="42.814264861127725" lon="10.422040602557518"><ele>28.75</ele><time>2026-04-19T10:57:30.87Z</time></trkpt><trkpt lat="42.81427507430256" lon="10.422225824283332"><ele>25.0</ele><time>2026-04-19T10:57:31.87Z</time></trkpt><trkpt lat="42.814284745452866" lon="10.422402042042831"><ele>23.75</ele><time>2026-04-19T10:57:32.87Z</time></trkpt><trkpt lat="42.814296560518564" lon="10.422593471724317"><ele>22.5</ele><time>2026-04-19T10:57:33.87Z</time></trkpt><trkpt lat="42.81431108751646" lon="10.422764274903045"><ele>21.25</ele><time>2026-04-19T10:57:34.87Z</time></trkpt><trkpt lat="42.814347617206614" lon="10.42292890688379"><ele>20.0</ele><time>2026-04-19T10:57:35.87Z</time></trkpt><trkpt lat="42.81437699800938" lon="10.42309130380933"><ele>22.5</ele><time>2026-04-19T10:57:36.87Z</time></trkpt><trkpt lat="42.81438527349058" lon="10.423257333826726"><ele>25.0</ele><time>2026-04-19T10:57:37.87Z</time></trkpt><trkpt lat="42.81440844284246" lon="10.423419048065053"><ele>27.5</ele><time>2026-04-19T10:57:38.87Z</time></trkpt><trkpt lat="42.81443278005281" lon="10.42358891356731"><ele>30.0</ele><time>2026-04-19T10:57:39.87Z</time></trkpt><trkpt lat="42.81445563404827" lon="10.423748426727636"><ele>29.25</ele><time>2026-04-19T10:57:40.87Z</time></trkpt><trkpt lat="42.81447919909062" lon="10.423901618260459"><ele>28.5</ele><time>2026-04-19T10:57:41.87Z</time></trkpt><trkpt lat="42.81450704700451" lon="10.424069845416497"><ele>27.75</ele><time>2026-04-19T10:57:42.87Z</time></trkpt><trkpt lat="42.814536252523325" lon="10.42422363950092"><ele>27.0</ele><time>2026-04-19T10:57:43.869Z</time></trkpt><trkpt lat="42.8145633891849" lon="10.424377530711803"><ele>27.0</ele><time>2026-04-19T10:57:44.869Z</time></trkpt><trkpt lat="42.81460594762431" lon="10.424519993431288"><ele>27.000000000000004</ele><time>2026-04-19T10:57:45.869Z</time></trkpt><trkpt lat="42.81461626286306" lon="10.424667526516446"><ele>27.000000000000004</ele><time>2026-04-19T10:57:46.869Z</time></trkpt><trkpt lat="42.8146513947705" lon="10.42480102073141"><ele>27.0</ele><time>2026-04-19T10:57:47.869Z</time></trkpt><trkpt lat="42.81467874119696" lon="10.424919147176894"><ele>27.0</ele><time>2026-04-19T10:57:48.869Z</time></trkpt><trkpt lat="42.81470873251522" lon="10.425075151499302"><ele>25.5</ele><time>2026-04-19T10:57:49.869Z</time></trkpt><trkpt lat="42.81473082305339" lon="10.425247428598777"><ele>24.0</ele><time>2026-04-19T10:57:50.869Z</time></trkpt><trkpt lat="42.814780939907514" lon="10.425396420273454"><ele>22.5</ele><time>2026-04-19T10:57:51.869Z</time></trkpt><trkpt lat="42.81481644800047" lon="10.425522463101938"><ele>21.0</ele><time>2026-04-19T10:57:52.869Z</time></trkpt><trkpt lat="42.81485371038694" lon="10.42565217977579"><ele>20.0</ele><time>2026-04-19T10:57:53.869Z</time></trkpt><trkpt lat="42.81488554633656" lon="10.425765639859849"><ele>19.0</ele><time>2026-04-19T10:57:54.869Z</time></trkpt><trkpt lat="42.814930933738346" lon="10.425871130678678"><ele>18.0</ele><time>2026-04-19T10:57:55.869Z</time></trkpt><trkpt lat="42.81497669856055" lon="10.425971852982983"><ele>17.0</ele><time>2026-04-19T10:57:56.869Z</time></trkpt><trkpt lat="42.81500412571929" lon="10.426079609003391"><ele>16.0</ele><time>2026-04-19T10:57:57.869Z</time></trkpt><trkpt lat="42.81507705926611" lon="10.426228957676635"><ele>15.499999999999998</ele><time>2026-04-19T10:57:59.869Z</time></trkpt><trkpt lat="42.81509433325348" lon="10.426325557274586"><ele>15.0</ele><time>2026-04-19T10:58:00.869Z</time></trkpt><trkpt lat="42.81515503585667" lon="10.42641276392539"><ele>14.5</ele><time>2026-04-19T10:58:01.869Z</time></trkpt><trkpt lat="42.815187602158204" lon="10.42650600776429"><ele>14.0</ele><time>2026-04-19T10:58:02.869Z</time></trkpt><trkpt lat="42.815213163553395" lon="10.426593892392024"><ele>13.499999999999998</ele><time>2026-04-19T10:58:03.869Z</time></trkpt><trkpt lat="42.81525114616644" lon="10.426670825492394"><ele>13.0</ele><time>2026-04-19T10:58:04.869Z</time></trkpt><trkpt lat="42.81528091620218" lon="10.426814574832575"><ele>13.4</ele><time>2026-04-19T10:58:06.869Z</time></trkpt><trkpt lat="42.8153165613028" lon="10.426928437662664"><ele>13.8</ele><time>2026-04-19T10:58:08.87Z</time></trkpt><trkpt lat="42.81538407628288" lon="10.427047866031387"><ele>14.2</ele><time>2026-04-19T10:58:10.871Z</time></trkpt><trkpt lat="42.81542040876132" lon="10.427170440972036"><ele>14.6</ele><time>2026-04-19T10:58:12.87Z</time></trkpt><trkpt lat="42.815461686489215" lon="10.427284578649125"><ele>15.0</ele><time>2026-04-19T10:58:14.871Z</time></trkpt><trkpt lat="42.81545955442883" lon="10.42737230461517"><ele>15.0</ele><time>2026-04-19T10:58:16.87Z</time></trkpt><trkpt lat="42.815503636871625" lon="10.427469872598415"><ele>15.0</ele><time>2026-04-19T10:58:19.87Z</time></trkpt><trkpt lat="42.81553323989381" lon="10.427547347223417"><ele>15.0</ele><time>2026-04-19T10:58:22.87Z</time></trkpt><trkpt lat="42.81555857333386" lon="10.427652521988232"><ele>15.0</ele><time>2026-04-19T10:58:26.871Z</time></trkpt><trkpt lat="42.81559730788198" lon="10.427732591747684"><ele>15.0</ele><time>2026-04-19T10:58:29.871Z</time></trkpt><trkpt lat="42.81560826222149" lon="10.427820868782257"><ele>15.0</ele><time>2026-04-19T10:58:36.87Z</time></trkpt><trkpt lat="42.815603830756125" lon="10.427718788633499"><ele>15.0</ele><time>2026-04-19T11:01:40.869Z</time></trkpt><trkpt lat="42.815601050879536" lon="10.427619718569053"><ele>15.0</ele><time>2026-04-19T11:01:48.869Z</time></trkpt><trkpt lat="42.815574240981185" lon="10.427530817816953"><ele>15.0</ele><time>2026-04-19T11:01:54.869Z</time></trkpt><trkpt lat="42.81557677549692" lon="10.427443264992277"><ele>15.0</ele><time>2026-04-19T11:02:14.869Z</time></trkpt><trkpt lat="42.81556096766571" lon="10.427527696710266"><ele>15.0</ele><time>2026-04-19T11:02:40.87Z</time></trkpt><trkpt lat="42.81549557797907" lon="10.42754626038681"><ele>15.0</ele><time>2026-04-19T11:03:15.87Z</time></trkpt><trkpt lat="42.815402993699955" lon="10.427568374682245"><ele>15.0</ele><time>2026-04-19T11:03:18.87Z</time></trkpt><trkpt lat="42.81547015129152" lon="10.427540988948545"><ele>15.0</ele><time>2026-04-19T11:03:32.869Z</time></trkpt><trkpt lat="42.815551853628214" lon="10.427489644667107"><ele>15.0</ele><time>2026-04-19T11:04:05.869Z</time></trkpt><trkpt lat="42.815478926182884" lon="10.427479748484323"><ele>15.0</ele><time>2026-04-19T11:04:21.869Z</time></trkpt><trkpt lat="42.81541344459332" lon="10.427517613744177"><ele>15.0</ele><time>2026-04-19T11:04:28.869Z</time></trkpt></trkseg><trkseg><trkpt lat="42.815626201364644" lon="10.427841330626107"><ele>6.0</ele><time>2026-04-19T12:16:43.999Z</time></trkpt><trkpt lat="42.81615498220903" lon="10.428301981931863"><ele>6.0</ele><time>2026-04-19T12:19:14.999Z</time></trkpt><trkpt lat="42.81624405167396" lon="10.428368579484594"><ele>6.0</ele><time>2026-04-19T12:19:16.999Z</time></trkpt><trkpt lat="42.81630057334736" lon="10.428411552994689"><ele>6.0</ele><time>2026-04-19T12:19:17.999Z</time></trkpt><trkpt lat="42.81639479068008" lon="10.428504226723385"><ele>6.0</ele><time>2026-04-19T12:19:19.999Z</time></trkpt><trkpt lat="42.8164956927522" lon="10.428587652942861"><ele>6.0</ele><time>2026-04-19T12:19:21.999Z</time></trkpt><trkpt lat="42.816553819985025" lon="10.428636334689728"><ele>6.0</ele><time>2026-04-19T12:19:22.999Z</time></trkpt><trkpt lat="42.81662352151919" lon="10.4286844897965"><ele>6.0</ele><time>2026-04-19T12:19:23.999Z</time></trkpt><trkpt lat="42.8166889853393" lon="10.428727425381059"><ele>6.0</ele><time>2026-04-19T12:19:24.999Z</time></trkpt><trkpt lat="42.81679889744484" lon="10.42878428849044"><ele>6.0</ele><time>2026-04-19T12:19:26.999Z</time></trkpt><trkpt lat="42.816869030961705" lon="10.428820669616842"><ele>6.0</ele><time>2026-04-19T12:19:27.999Z</time></trkpt><trkpt lat="42.816938430284864" lon="10.428840721255009"><ele>6.0</ele><time>2026-04-19T12:19:28.999Z</time></trkpt><trkpt lat="42.81707295204612" lon="10.428841835193932"><ele>5.5</ele><time>2026-04-19T12:19:30.999Z</time></trkpt><trkpt lat="42.81715039038725" lon="10.428826325856472"><ele>5.0</ele><time>2026-04-19T12:19:31.999Z</time></trkpt><trkpt lat="42.817225656566336" lon="10.428812828832768"><ele>4.5</ele><time>2026-04-19T12:19:32.999Z</time></trkpt><trkpt lat="42.81729780878983" lon="10.428821911180275"><ele>4.0</ele><time>2026-04-19T12:19:33.999Z</time></trkpt><trkpt lat="42.817381608203114" lon="10.428831702211628"><ele>3.5</ele><time>2026-04-19T12:19:34.999Z</time></trkpt><trkpt lat="42.8174733716123" lon="10.42883823479227"><ele>3.0</ele><time>2026-04-19T12:19:35.999Z</time></trkpt><trkpt lat="42.81756784272901" lon="10.428867427400602"><ele>3.5999999999999996</ele><time>2026-04-19T12:19:36.999Z</time></trkpt><trkpt lat="42.81765407693501" lon="10.428905607166454"><ele>4.199999999999999</ele><time>2026-04-19T12:19:37.999Z</time></trkpt><trkpt lat="42.817746923739435" lon="10.42895087411441"><ele>4.8</ele><time>2026-04-19T12:19:38.999Z</time></trkpt><trkpt lat="42.817838561104566" lon="10.428992146359384"><ele>5.3999999999999995</ele><time>2026-04-19T12:19:39.999Z</time></trkpt><trkpt lat="42.81792212451734" lon="10.429039808733961"><ele>6.0</ele><time>2026-04-19T12:19:40.999Z</time></trkpt><trkpt lat="42.81801547665743" lon="10.429088261672025"><ele>6.0</ele><time>2026-04-19T12:19:41.999Z</time></trkpt><trkpt lat="42.81810682465249" lon="10.429132848751236"><ele>6.0</ele><time>2026-04-19T12:19:42.999Z</time></trkpt><trkpt lat="42.8182059806004" lon="10.429184826809262"><ele>6.0</ele><time>2026-04-19T12:19:43.999Z</time></trkpt><trkpt lat="42.818310174786326" lon="10.429236184123212"><ele>6.0</ele><time>2026-04-19T12:19:44.999Z</time></trkpt><trkpt lat="42.81841211061041" lon="10.42929730276267"><ele>6.0</ele><time>2026-04-19T12:19:45.999Z</time></trkpt><trkpt lat="42.81850466016146" lon="10.42935643376986"><ele>6.6</ele><time>2026-04-19T12:19:46.998Z</time></trkpt><trkpt lat="42.818575224273644" lon="10.429407756953548"><ele>7.199999999999999</ele><time>2026-04-19T12:19:47.998Z</time></trkpt><trkpt lat="42.81867473606605" lon="10.429466569403358"><ele>7.800000000000001</ele><time>2026-04-19T12:19:49.998Z</time></trkpt><trkpt lat="42.81874518750742" lon="10.429456624556574"><ele>8.4</ele><time>2026-04-19T12:19:51.998Z</time></trkpt><trkpt lat="42.81887084043029" lon="10.429415134106303"><ele>9.0</ele><time>2026-04-19T12:19:53.998Z</time></trkpt><trkpt lat="42.81895970942262" lon="10.429417876841466"><ele>9.0</ele><time>2026-04-19T12:19:54.998Z</time></trkpt><trkpt lat="42.819062169321484" lon="10.429425946245148"><ele>9.0</ele><time>2026-04-19T12:19:55.998Z</time></trkpt><trkpt lat="42.81917564042677" lon="10.429445412501158"><ele>9.0</ele><time>2026-04-19T12:19:56.998Z</time></trkpt><trkpt lat="42.81929118349721" lon="10.429465899621023"><ele>9.0</ele><time>2026-04-19T12:19:57.998Z</time></trkpt><trkpt lat="42.81941146439349" lon="10.429482016962925"><ele>9.75</ele><time>2026-04-19T12:19:58.998Z</time></trkpt><trkpt lat="42.81953769073194" lon="10.42949580191817"><ele>10.5</ele><time>2026-04-19T12:19:59.998Z</time></trkpt><trkpt lat="42.81966240714928" lon="10.429519163413733"><ele>11.25</ele><time>2026-04-19T12:20:00.998Z</time></trkpt><trkpt lat="42.81979635198876" lon="10.429538978249926"><ele>12.0</ele><time>2026-04-19T12:20:01.998Z</time></trkpt><trkpt lat="42.81992340869837" lon="10.429552715811726"><ele>12.0</ele><time>2026-04-19T12:20:02.999Z</time></trkpt><trkpt lat="42.82005081707922" lon="10.42956142853963"><ele>12.0</ele><time>2026-04-19T12:20:03.999Z</time></trkpt><trkpt lat="42.820177273090685" lon="10.429556753686738"><ele>12.0</ele><time>2026-04-19T12:20:04.999Z</time></trkpt><trkpt lat="42.8202943957504" lon="10.429518887863612"><ele>12.0</ele><time>2026-04-19T12:20:05.999Z</time></trkpt><trkpt lat="42.82040700121748" lon="10.429443499236623"><ele>13.75</ele><time>2026-04-19T12:20:06.999Z</time></trkpt><trkpt lat="42.82051202807527" lon="10.429348969159278"><ele>15.5</ele><time>2026-04-19T12:20:07.999Z</time></trkpt><trkpt lat="42.82062716142107" lon="10.429252626995817"><ele>17.25</ele><time>2026-04-19T12:20:08.999Z</time></trkpt><trkpt lat="42.820749009578016" lon="10.42916024256585"><ele>19.0</ele><time>2026-04-19T12:20:09.999Z</time></trkpt><trkpt lat="42.82086497265341" lon="10.429064401813093"><ele>21.25</ele><time>2026-04-19T12:20:10.999Z</time></trkpt><trkpt lat="42.82099191027729" lon="10.428961945021882"><ele>23.5</ele><time>2026-04-19T12:20:11.999Z</time></trkpt><trkpt lat="42.821119885049654" lon="10.428861182425818"><ele>25.75</ele><time>2026-04-19T12:20:12.999Z</time></trkpt><trkpt lat="42.82123522619402" lon="10.428778200149374"><ele>28.0</ele><time>2026-04-19T12:20:13.999Z</time></trkpt><trkpt lat="42.826482928306135" lon="10.430475521860629"><ele>35.25</ele><time>2026-04-19T12:21:14.999Z</time></trkpt><trkpt lat="42.826573842567555" lon="10.43059479857412"><ele>42.5</ele><time>2026-04-19T12:21:15.999Z</time></trkpt><trkpt lat="42.82669695134864" lon="10.43066406359041"><ele>49.75</ele><time>2026-04-19T12:21:16.999Z</time></trkpt><trkpt lat="42.82682726085478" lon="10.430721132767474"><ele>57.0</ele><time>2026-04-19T12:21:17.999Z</time></trkpt><trkpt lat="42.82695023170905" lon="10.430789261107167"><ele>61.25</ele><time>2026-04-19T12:21:18.999Z</time></trkpt><trkpt lat="42.82708803430725" lon="10.430847281811285"><ele>65.5</ele><time>2026-04-19T12:21:19.999Z</time></trkpt><trkpt lat="42.82721098025627" lon="10.43087115077211"><ele>69.75</ele><time>2026-04-19T12:21:20.999Z</time></trkpt><trkpt lat="42.82732968440247" lon="10.430801461722508"><ele>74.0</ele><time>2026-04-19T12:21:21.999Z</time></trkpt><trkpt lat="42.82746848705612" lon="10.430743810820474"><ele>74.0</ele><time>2026-04-19T12:21:22.999Z</time></trkpt><trkpt lat="42.82759333897534" lon="10.430668455381504"><ele>74.0</ele><time>2026-04-19T12:21:23.999Z</time></trkpt><trkpt lat="42.827714157607275" lon="10.430634722007865"><ele>74.0</ele><time>2026-04-19T12:21:24.999Z</time></trkpt><trkpt lat="42.82780780520137" lon="10.430685652143984"><ele>74.0</ele><time>2026-04-19T12:21:25.999Z</time></trkpt><trkpt lat="42.82789385994042" lon="10.430801028479841"><ele>82.33333333333334</ele><time>2026-04-19T12:21:26.999Z</time></trkpt><trkpt lat="42.82798857019906" lon="10.4308229442827"><ele>90.66666666666667</ele><time>2026-04-19T12:21:27.999Z</time></trkpt><trkpt lat="42.82803269918688" lon="10.431103312882074"><ele>99.0</ele><time>2026-04-19T12:21:28.999Z</time></trkpt><trkpt lat="42.82811052214077" lon="10.431269991575"><ele>95.25</ele><time>2026-04-19T12:21:29.999Z</time></trkpt><trkpt lat="42.82819570122702" lon="10.431431278269402"><ele>91.5</ele><time>2026-04-19T12:21:30.999Z</time></trkpt><trkpt lat="42.828222467292754" lon="10.431629747750502"><ele>87.75</ele><time>2026-04-19T12:21:31.999Z</time></trkpt><trkpt lat="42.82825524094022" lon="10.43180626514306"><ele>84.0</ele><time>2026-04-19T12:21:32.999Z</time></trkpt><trkpt lat="42.82829919874071" lon="10.431971745676137"><ele>84.0</ele><time>2026-04-19T12:21:33.999Z</time></trkpt><trkpt lat="42.82835517992967" lon="10.432108646307364"><ele>84.0</ele><time>2026-04-19T12:21:34.999Z</time></trkpt><trkpt lat="42.82842091870916" lon="10.432235189079302"><ele>84.0</ele><time>2026-04-19T12:21:35.999Z</time></trkpt><trkpt lat="42.828526168992084" lon="10.432321121494756"><ele>84.0</ele><time>2026-04-19T12:21:36.999Z</time></trkpt><trkpt lat="42.82864846568086" lon="10.432393324932928"><ele>85.25</ele><time>2026-04-19T12:21:37.999Z</time></trkpt><trkpt lat="42.82876932137719" lon="10.4324857560019"><ele>86.5</ele><time>2026-04-19T12:21:38.999Z</time></trkpt><trkpt lat="42.82887967907211" lon="10.432571257261886"><ele>87.75</ele><time>2026-04-19T12:21:39.999Z</time></trkpt><trkpt lat="42.828994271411986" lon="10.432632870058752"><ele>89.0</ele><time>2026-04-19T12:21:40.999Z</time></trkpt><trkpt lat="42.8291063819318" lon="10.432672438081038"><ele>89.0</ele><time>2026-04-19T12:21:41.999Z</time></trkpt><trkpt lat="42.829243329687294" lon="10.432676840520953"><ele>89.0</ele><time>2026-04-19T12:21:42.999Z</time></trkpt><trkpt lat="42.829366674807765" lon="10.432724772014382"><ele>89.0</ele><time>2026-04-19T12:21:43.999Z</time></trkpt><trkpt lat="42.829472306354695" lon="10.432811065974757"><ele>89.0</ele><time>2026-04-19T12:21:44.999Z</time></trkpt><trkpt lat="42.82956264859977" lon="10.432938254066737"><ele>85.0</ele><time>2026-04-19T12:21:45.999Z</time></trkpt><trkpt lat="42.82963085900229" lon="10.4330685559421"><ele>81.0</ele><time>2026-04-19T12:21:46.999Z</time></trkpt><trkpt lat="42.82970575538835" lon="10.433174387133425"><ele>77.0</ele><time>2026-04-19T12:21:47.999Z</time></trkpt><trkpt lat="42.82980632024572" lon="10.433254573191878"><ele>73.0</ele><time>2026-04-19T12:21:48.999Z</time></trkpt><trkpt lat="42.82991665337619" lon="10.433323227810543"><ele>73.0</ele><time>2026-04-19T12:21:49.999Z</time></trkpt><trkpt lat="42.830040961157366" lon="10.433354073612696"><ele>73.0</ele><time>2026-04-19T12:21:50.999Z</time></trkpt><trkpt lat="42.83017291952614" lon="10.43337161870884"><ele>73.0</ele><time>2026-04-19T12:21:51.999Z</time></trkpt><trkpt lat="42.83029289456818" lon="10.433411485940281"><ele>73.0</ele><time>2026-04-19T12:21:52.999Z</time></trkpt><trkpt lat="42.83039471175096" lon="10.433475803345445"><ele>76.5</ele><time>2026-04-19T12:21:53.999Z</time></trkpt><trkpt lat="42.83048632438549" lon="10.433540133403326"><ele>80.0</ele><time>2026-04-19T12:21:54.999Z</time></trkpt><trkpt lat="42.83059797622191" lon="10.433591338943295"><ele>83.5</ele><time>2026-04-19T12:21:55.999Z</time></trkpt><trkpt lat="42.830732142258285" lon="10.433604473095338"><ele>87.0</ele><time>2026-04-19T12:21:56.999Z</time></trkpt><trkpt lat="42.830861887713624" lon="10.433615645873862"><ele>85.5</ele><time>2026-04-19T12:21:57.999Z</time></trkpt><trkpt lat="42.83098513207879" lon="10.433617984447412"><ele>84.0</ele><time>2026-04-19T12:21:58.999Z</time></trkpt><trkpt lat="42.83111176286517" lon="10.433623814583795"><ele>82.5</ele><time>2026-04-19T12:21:59.999Z</time></trkpt><trkpt lat="42.83122738875272" lon="10.433655292523625"><ele>81.0</ele><time>2026-04-19T12:22:00.999Z</time></trkpt><trkpt lat="42.83133170206929" lon="10.433699752756182"><ele>81.0</ele><time>2026-04-19T12:22:01.999Z</time></trkpt><trkpt lat="42.83142397853283" lon="10.433772083516958"><ele>81.0</ele><time>2026-04-19T12:22:02.999Z</time></trkpt><trkpt lat="42.83151867368097" lon="10.433837481915317"><ele>81.0</ele><time>2026-04-19T12:22:03.999Z</time></trkpt><trkpt lat="42.831620756943465" lon="10.43391139445932"><ele>81.0</ele><time>2026-04-19T12:22:04.999Z</time></trkpt><trkpt lat="42.831740456080134" lon="10.433943106254839"><ele>74.25</ele><time>2026-04-19T12:22:05.999Z</time></trkpt><trkpt lat="42.831863211859144" lon="10.4339512412773"><ele>67.5</ele><time>2026-04-19T12:22:06.999Z</time></trkpt><trkpt lat="42.83198655452264" lon="10.433963427395854"><ele>60.75</ele><time>2026-04-19T12:22:07.999Z</time></trkpt><trkpt lat="42.832114414546886" lon="10.433941012923292"><ele>54.0</ele><time>2026-04-19T12:22:08.999Z</time></trkpt><trkpt lat="42.83223814225241" lon="10.433923508111912"><ele>54.0</ele><time>2026-04-19T12:22:09.999Z</time></trkpt><trkpt lat="42.83235575055371" lon="10.433870953560094"><ele>54.0</ele><time>2026-04-19T12:22:10.999Z</time></trkpt><trkpt lat="42.83246163128063" lon="10.433803232713819"><ele>54.0</ele><time>2026-04-19T12:22:11.999Z</time></trkpt><trkpt lat="42.83255025364165" lon="10.433733637788999"><ele>54.0</ele><time>2026-04-19T12:22:12.999Z</time></trkpt><trkpt lat="42.83260875067793" lon="10.433610043938767"><ele>34.0</ele><time>2026-04-19T12:22:13.999Z</time></trkpt><trkpt lat="42.83725063417342" lon="10.433608934672046"><ele>32.66666666666667</ele><time>2026-04-19T12:23:14.999Z</time></trkpt><trkpt lat="42.837251546743694" lon="10.433871302643695"><ele>31.333333333333336</ele><time>2026-04-19T12:23:15.999Z</time></trkpt><trkpt lat="42.83724927429825" lon="10.434144396366277"><ele>30.0</ele><time>2026-04-19T12:23:16.999Z</time></trkpt><trkpt lat="42.837242204368685" lon="10.43439775896488"><ele>30.0</ele><time>2026-04-19T12:23:17.999Z</time></trkpt><trkpt lat="42.837234150397805" lon="10.434633353587653"><ele>30.0</ele><time>2026-04-19T12:23:18.999Z</time></trkpt><trkpt lat="42.837200403858006" lon="10.434832710114025"><ele>30.0</ele><time>2026-04-19T12:23:19.999Z</time></trkpt><trkpt lat="42.837141738572655" lon="10.435002190614558"><ele>29.25</ele><time>2026-04-19T12:23:20.999Z</time></trkpt><trkpt lat="42.837058376478694" lon="10.435134298076559"><ele>28.5</ele><time>2026-04-19T12:23:21.999Z</time></trkpt><trkpt lat="42.83696943146993" lon="10.435286037111869"><ele>27.75</ele><time>2026-04-19T12:23:22.999Z</time></trkpt><trkpt lat="42.836880929313395" lon="10.435437473980066"><ele>27.0</ele><time>2026-04-19T12:23:23.999Z</time></trkpt><trkpt lat="42.83679775899618" lon="10.435595984946326"><ele>27.0</ele><time>2026-04-19T12:23:24.999Z</time></trkpt><trkpt lat="42.836731318327296" lon="10.435769882757146"><ele>27.0</ele><time>2026-04-19T12:23:25.999Z</time></trkpt><trkpt lat="42.8366850321452" lon="10.43596148340447"><ele>27.0</ele><time>2026-04-19T12:23:26.999Z</time></trkpt><trkpt lat="42.836668342414534" lon="10.43614982523085"><ele>27.0</ele><time>2026-04-19T12:23:27.999Z</time></trkpt><trkpt lat="42.83665723300668" lon="10.436323497995648"><ele>27.200000000000003</ele><time>2026-04-19T12:23:28.999Z</time></trkpt><trkpt lat="42.8366721873159" lon="10.436484805180854"><ele>27.400000000000002</ele><time>2026-04-19T12:23:29.999Z</time></trkpt><trkpt lat="42.836692801731864" lon="10.43662503261361"><ele>27.599999999999998</ele><time>2026-04-19T12:23:30.999Z</time></trkpt><trkpt lat="42.83672979738952" lon="10.43674162347264"><ele>27.799999999999997</ele><time>2026-04-19T12:23:31.999Z</time></trkpt><trkpt lat="42.83679726391358" lon="10.436794499017513"><ele>28.0</ele><time>2026-04-19T12:23:32.999Z</time></trkpt><trkpt lat="42.83686396818391" lon="10.436768442378574"><ele>32.8</ele><time>2026-04-19T12:23:33.999Z</time></trkpt><trkpt lat="42.83690406821766" lon="10.436692296879254"><ele>37.599999999999994</ele><time>2026-04-19T12:23:34.999Z</time></trkpt><trkpt lat="42.83693802121558" lon="10.436576055219568"><ele>42.400000000000006</ele><time>2026-04-19T12:23:35.999Z</time></trkpt><trkpt lat="42.83695734876607" lon="10.436435276040223"><ele>47.2</ele><time>2026-04-19T12:23:36.999Z</time></trkpt><trkpt lat="42.83696996944155" lon="10.436281823668436"><ele>52.0</ele><time>2026-04-19T12:23:37.999Z</time></trkpt><trkpt lat="42.83700683951487" lon="10.436117358201022"><ele>52.0</ele><time>2026-04-19T12:23:38.999Z</time></trkpt><trkpt lat="42.83705128438796" lon="10.435983881843105"><ele>52.0</ele><time>2026-04-19T12:23:39.999Z</time></trkpt><trkpt lat="42.83710010185538" lon="10.43589390116422"><ele>52.0</ele><time>2026-04-19T12:23:40.999Z</time></trkpt><trkpt lat="42.8371707759026" lon="10.435858567450003"><ele>52.0</ele><time>2026-04-19T12:23:41.999Z</time></trkpt><trkpt lat="42.83721135044506" lon="10.436002983279415"><ele>52.0</ele><time>2026-04-19T12:23:43.999Z</time></trkpt><trkpt lat="42.83717191006586" lon="10.436084330071614"><ele>52.0</ele><time>2026-04-19T12:23:44.999Z</time></trkpt><trkpt lat="42.83712840455351" lon="10.43617233039627"><ele>52.0</ele><time>2026-04-19T12:23:45.999Z</time></trkpt><trkpt lat="42.83708266889953" lon="10.436307716145985"><ele>52.0</ele><time>2026-04-19T12:23:46.999Z</time></trkpt><trkpt lat="42.837039816276615" lon="10.436467348696986"><ele>52.0</ele><time>2026-04-19T12:23:47.999Z</time></trkpt><trkpt lat="42.8370247297976" lon="10.43664568404521"><ele>52.0</ele><time>2026-04-19T12:23:48.999Z</time></trkpt><trkpt lat="42.8370516096761" lon="10.436803713021101"><ele>52.75</ele><time>2026-04-19T12:23:49.999Z</time></trkpt><trkpt lat="42.83714121337297" lon="10.436918657204687"><ele>53.5</ele><time>2026-04-19T12:23:50.999Z</time></trkpt><trkpt lat="42.83723443011739" lon="10.437025289098745"><ele>54.25</ele><time>2026-04-19T12:23:51.999Z</time></trkpt><trkpt lat="42.83733901191828" lon="10.437143786977797"><ele>55.0</ele><time>2026-04-19T12:23:52.999Z</time></trkpt><trkpt lat="42.837449822088" lon="10.43729399061039"><ele>51.5</ele><time>2026-04-19T12:23:53.999Z</time></trkpt><trkpt lat="42.83752316974501" lon="10.437475129393773"><ele>48.0</ele><time>2026-04-19T12:23:54.999Z</time></trkpt><trkpt lat="42.837595305768616" lon="10.437644738479257"><ele>44.5</ele><time>2026-04-19T12:23:55.999Z</time></trkpt><trkpt lat="42.8376857622239" lon="10.437775284464607"><ele>41.0</ele><time>2026-04-19T12:23:56.999Z</time></trkpt><trkpt lat="42.837788558142925" lon="10.43788818858207"><ele>40.5</ele><time>2026-04-19T12:23:57.999Z</time></trkpt><trkpt lat="42.83789521305329" lon="10.43796171778569"><ele>40.0</ele><time>2026-04-19T12:23:58.999Z</time></trkpt><trkpt lat="42.83801253183346" lon="10.43799476328147"><ele>39.5</ele><time>2026-04-19T12:23:59.999Z</time></trkpt><trkpt lat="42.83812905402368" lon="10.43802248205879"><ele>39.0</ele><time>2026-04-19T12:24:00.999Z</time></trkpt><trkpt lat="42.83824799374231" lon="10.43808697499961"><ele>39.0</ele><time>2026-04-19T12:24:01.999Z</time></trkpt><trkpt lat="42.8383554541584" lon="10.438178601361042"><ele>39.0</ele><time>2026-04-19T12:24:02.999Z</time></trkpt><trkpt lat="42.838447872804366" lon="10.438309529914411"><ele>39.0</ele><time>2026-04-19T12:24:03.999Z</time></trkpt><trkpt lat="42.83853617074143" lon="10.438417309661178"><ele>39.0</ele><time>2026-04-19T12:24:04.999Z</time></trkpt><trkpt lat="42.83863014126017" lon="10.438508609695466"><ele>41.5</ele><time>2026-04-19T12:24:05.999Z</time></trkpt><trkpt lat="42.838742498435046" lon="10.438572796283125"><ele>44.0</ele><time>2026-04-19T12:24:06.999Z</time></trkpt><trkpt lat="42.83885688979456" lon="10.438613719387284"><ele>46.5</ele><time>2026-04-19T12:24:07.999Z</time></trkpt><trkpt lat="42.83896327229568" lon="10.438654008497906"><ele>49.0</ele><time>2026-04-19T12:24:08.999Z</time></trkpt><trkpt lat="42.839072245821384" lon="10.438686223304991"><ele>49.0</ele><time>2026-04-19T12:24:09.999Z</time></trkpt><trkpt lat="42.83918349656867" lon="10.438719494958349"><ele>49.0</ele><time>2026-04-19T12:24:10.999Z</time></trkpt><trkpt lat="42.83930225189427" lon="10.438727952784177"><ele>49.0</ele><time>2026-04-19T12:24:11.999Z</time></trkpt><trkpt lat="42.83943177432568" lon="10.438717990043624"><ele>49.0</ele><time>2026-04-19T12:24:12.999Z</time></trkpt><trkpt lat="42.83956444275141" lon="10.438704308194836"><ele>50.0</ele><time>2026-04-19T12:24:13.999Z</time></trkpt><trkpt lat="42.83956507895522" lon="10.438003121351642"><ele>54.2</ele><time>2026-04-19T12:25:14.999Z</time></trkpt><trkpt lat="42.83949195493797" lon="10.437941738000582"><ele>58.4</ele><time>2026-04-19T12:25:15.999Z</time></trkpt><trkpt lat="42.83939018136761" lon="10.437923541381027"><ele>62.599999999999994</ele><time>2026-04-19T12:25:16.999Z</time></trkpt><trkpt lat="42.839282018785795" lon="10.437908421588801"><ele>66.8</ele><time>2026-04-19T12:25:17.999Z</time></trkpt><trkpt lat="42.839178032800596" lon="10.437897989655639"><ele>71.0</ele><time>2026-04-19T12:25:18.999Z</time></trkpt><trkpt lat="42.83909774466502" lon="10.43789035246707"><ele>71.0</ele><time>2026-04-19T12:25:19.999Z</time></trkpt><trkpt lat="42.839018947899255" lon="10.437837165862543"><ele>71.0</ele><time>2026-04-19T12:25:21.999Z</time></trkpt><trkpt lat="42.83907188225121" lon="10.437764845384805"><ele>71.0</ele><time>2026-04-19T12:25:23.999Z</time></trkpt><trkpt lat="42.83914275514622" lon="10.437739891392038"><ele>71.0</ele><time>2026-04-19T12:25:24.999Z</time></trkpt><trkpt lat="42.83924139282784" lon="10.437727368887046"><ele>71.0</ele><time>2026-04-19T12:25:25.999Z</time></trkpt><trkpt lat="42.83937716297829" lon="10.43773222660749"><ele>71.0</ele><time>2026-04-19T12:25:26.999Z</time></trkpt><trkpt lat="42.83949748193722" lon="10.43773957502993"><ele>71.0</ele><time>2026-04-19T12:25:27.999Z</time></trkpt><trkpt lat="42.83958108563072" lon="10.4376945188925"><ele>71.0</ele><time>2026-04-19T12:25:28.999Z</time></trkpt><trkpt lat="42.839660109051145" lon="10.43762249318194"><ele>71.0</ele><time>2026-04-19T12:25:30.999Z</time></trkpt><trkpt lat="42.83966783923655" lon="10.437528826544652"><ele>71.0</ele><time>2026-04-19T12:25:31.999Z</time></trkpt><trkpt lat="42.83963742059871" lon="10.437382328292035"><ele>71.0</ele><time>2026-04-19T12:25:32.999Z</time></trkpt><trkpt lat="42.839589088162285" lon="10.437233998880279"><ele>71.0</ele><time>2026-04-19T12:25:33.999Z</time></trkpt><trkpt lat="42.83953584118684" lon="10.437039424148239"><ele>71.0</ele><time>2026-04-19T12:25:34.999Z</time></trkpt><trkpt lat="42.83946548800692" lon="10.43691154021916"><ele>71.0</ele><time>2026-04-19T12:25:35.999Z</time></trkpt><trkpt lat="42.83942721806085" lon="10.436810832487014"><ele>71.0</ele><time>2026-04-19T12:25:36.999Z</time></trkpt><trkpt lat="42.83939803833418" lon="10.436718233419407"><ele>71.0</ele><time>2026-04-19T12:25:37.999Z</time></trkpt><trkpt lat="42.839368943762516" lon="10.436639916915746"><ele>71.0</ele><time>2026-04-19T12:25:38.999Z</time></trkpt><trkpt lat="42.83934123221148" lon="10.436555375563781"><ele>71.0</ele><time>2026-04-19T12:25:39.999Z</time></trkpt><trkpt lat="42.8393099154885" lon="10.436469652902622"><ele>71.0</ele><time>2026-04-19T12:25:40.999Z</time></trkpt><trkpt lat="42.83926257293196" lon="10.436332763319138"><ele>71.0</ele><time>2026-04-19T12:25:42.999Z</time></trkpt><trkpt lat="42.839257556468404" lon="10.43623662463041"><ele>71.8</ele><time>2026-04-19T12:25:43.999Z</time></trkpt><trkpt lat="42.83922296097075" lon="10.43608563682931"><ele>72.6</ele><time>2026-04-19T12:25:45.999Z</time></trkpt><trkpt lat="42.83918271605294" lon="10.435945926865829"><ele>73.4</ele><time>2026-04-19T12:25:47.999Z</time></trkpt><trkpt lat="42.839172933170246" lon="10.435765820585"><ele>74.2</ele><time>2026-04-19T12:25:49.999Z</time></trkpt><trkpt lat="42.83918007998405" lon="10.435665398566957"><ele>75.0</ele><time>2026-04-19T12:25:50.999Z</time></trkpt><trkpt lat="42.83922266904166" lon="10.435542337126725"><ele>74.83333333333333</ele><time>2026-04-19T12:25:52.999Z</time></trkpt><trkpt lat="42.83927886671526" lon="10.435445538657754"><ele>74.66666666666667</ele><time>2026-04-19T12:25:54.999Z</time></trkpt><trkpt lat="42.83932995268164" lon="10.435364457430492"><ele>74.5</ele><time>2026-04-19T12:25:56.999Z</time></trkpt><trkpt lat="42.83937912804756" lon="10.435259940107422"><ele>74.33333333333334</ele><time>2026-04-19T12:25:58.999Z</time></trkpt><trkpt lat="42.83938697267442" lon="10.435166170710396"><ele>74.16666666666667</ele><time>2026-04-19T12:26:00.999Z</time></trkpt><trkpt lat="42.8393627256169" lon="10.435051375199231"><ele>74.0</ele><time>2026-04-19T12:26:02.999Z</time></trkpt><trkpt lat="42.83937422314492" lon="10.434959960076133"><ele>76.16666666666667</ele><time>2026-04-19T12:26:04.999Z</time></trkpt><trkpt lat="42.83941450259796" lon="10.434866252677581"><ele>78.33333333333334</ele><time>2026-04-19T12:26:06.999Z</time></trkpt><trkpt lat="42.83946827465481" lon="10.434770703882462"><ele>80.5</ele><time>2026-04-19T12:26:08.999Z</time></trkpt><trkpt lat="42.83951488464946" lon="10.434699674827442"><ele>82.66666666666667</ele><time>2026-04-19T12:26:09.999Z</time></trkpt><trkpt lat="42.83956022128239" lon="10.43459493760361"><ele>84.83333333333333</ele><time>2026-04-19T12:26:10.999Z</time></trkpt><trkpt lat="42.839588657640356" lon="10.434477658902374"><ele>87.0</ele><time>2026-04-19T12:26:11.999Z</time></trkpt><trkpt lat="42.839599257914045" lon="10.4343508025548"><ele>92.0</ele><time>2026-04-19T12:26:12.999Z</time></trkpt><trkpt lat="42.83961863727931" lon="10.434223070002558"><ele>97.0</ele><time>2026-04-19T12:26:13.999Z</time></trkpt><trkpt lat="42.84072722371489" lon="10.43314173390937"><ele>102.19999999999999</ele><time>2026-04-19T12:27:14.999Z</time></trkpt><trkpt lat="42.84070759805063" lon="10.433030028614443"><ele>107.4</ele><time>2026-04-19T12:27:16.999Z</time></trkpt><trkpt lat="42.84064152929876" lon="10.432943167369642"><ele>112.60000000000001</ele><time>2026-04-19T12:27:17.999Z</time></trkpt><trkpt lat="42.840561356300256" lon="10.432834471121671"><ele>117.80000000000001</ele><time>2026-04-19T12:27:18.999Z</time></trkpt><trkpt lat="42.84047376111142" lon="10.432707424895897"><ele>123.0</ele><time>2026-04-19T12:27:19.999Z</time></trkpt><trkpt lat="42.84036446572387" lon="10.432594013395558"><ele>125.25</ele><time>2026-04-19T12:27:20.999Z</time></trkpt><trkpt lat="42.840266926955245" lon="10.432489566843012"><ele>127.5</ele><time>2026-04-19T12:27:21.999Z</time></trkpt><trkpt lat="42.84014840055866" lon="10.432399897385283"><ele>129.75</ele><time>2026-04-19T12:27:22.999Z</time></trkpt><trkpt lat="42.84003666219934" lon="10.432335003368918"><ele>132.0</ele><time>2026-04-19T12:27:23.999Z</time></trkpt><trkpt lat="42.839937476535034" lon="10.432282314646034"><ele>132.0</ele><time>2026-04-19T12:27:24.999Z</time></trkpt><trkpt lat="42.83986625336551" lon="10.432253946575441"><ele>132.0</ele><time>2026-04-19T12:27:25.999Z</time></trkpt><trkpt lat="42.83980362424499" lon="10.43226298325465"><ele>132.0</ele><time>2026-04-19T12:27:26.999Z</time></trkpt><trkpt lat="42.839709500616976" lon="10.432368762843783"><ele>132.0</ele><time>2026-04-19T12:27:27.999Z</time></trkpt><trkpt lat="42.83961645645761" lon="10.432508580028061"><ele>132.0</ele><time>2026-04-19T12:27:28.999Z</time></trkpt><trkpt lat="42.83954090695181" lon="10.432577268016521"><ele>132.0</ele><time>2026-04-19T12:27:29.999Z</time></trkpt><trkpt lat="42.839434887989164" lon="10.432542783875286"><ele>132.0</ele><time>2026-04-19T12:27:31.999Z</time></trkpt><trkpt lat="42.83948852306714" lon="10.432440004523032"><ele>132.0</ele><time>2026-04-19T12:27:33.999Z</time></trkpt><trkpt lat="42.83959160904461" lon="10.43234598377133"><ele>132.0</ele><time>2026-04-19T12:27:35.999Z</time></trkpt><trkpt lat="42.83969257455638" lon="10.432246360828534"><ele>134.4</ele><time>2026-04-19T12:27:36.999Z</time></trkpt><trkpt lat="42.83978566131589" lon="10.432123928841108"><ele>136.79999999999998</ele><time>2026-04-19T12:27:37.999Z</time></trkpt><trkpt lat="42.83986721139748" lon="10.432064212952467"><ele>139.2</ele><time>2026-04-19T12:27:38.999Z</time></trkpt><trkpt lat="42.839952487613516" lon="10.43204703047227"><ele>141.6</ele><time>2026-04-19T12:27:39.999Z</time></trkpt><trkpt lat="42.840054464016816" lon="10.432101192020331"><ele>144.0</ele><time>2026-04-19T12:27:40.999Z</time></trkpt><trkpt lat="42.84020770015288" lon="10.432158505630477"><ele>144.0</ele><time>2026-04-19T12:27:41.999Z</time></trkpt><trkpt lat="42.84037307843954" lon="10.432210559143268"><ele>144.0</ele><time>2026-04-19T12:27:42.999Z</time></trkpt><trkpt lat="42.84051869607514" lon="10.43225954706888"><ele>144.0</ele><time>2026-04-19T12:27:43.999Z</time></trkpt><trkpt lat="42.84063782147777" lon="10.43231333035294"><ele>144.0</ele><time>2026-04-19T12:27:44.999Z</time></trkpt><trkpt lat="42.84075996121259" lon="10.432386122863146"><ele>144.0</ele><time>2026-04-19T12:27:45.999Z</time></trkpt><trkpt lat="42.84090223442832" lon="10.432406723306215"><ele>144.0</ele><time>2026-04-19T12:27:46.999Z</time></trkpt><trkpt lat="42.84103911096975" lon="10.432439823790785"><ele>144.0</ele><time>2026-04-19T12:27:47.999Z</time></trkpt><trkpt lat="42.84118072040476" lon="10.432468912942703"><ele>144.0</ele><time>2026-04-19T12:27:48.999Z</time></trkpt><trkpt lat="42.84131259443918" lon="10.432518246897589"><ele>145.83333333333334</ele><time>2026-04-19T12:27:49.999Z</time></trkpt><trkpt lat="42.84141815687551" lon="10.432542551483914"><ele>147.66666666666666</ele><time>2026-04-19T12:27:50.999Z</time></trkpt><trkpt lat="42.8415152672415" lon="10.432564494149918"><ele>149.5</ele><time>2026-04-19T12:27:51.999Z</time></trkpt><trkpt lat="42.84158086406355" lon="10.432558385031745"><ele>151.33333333333331</ele><time>2026-04-19T12:27:52.999Z</time></trkpt><trkpt lat="42.841635555264496" lon="10.432496977426334"><ele>153.16666666666666</ele><time>2026-04-19T12:27:54.999Z</time></trkpt><trkpt lat="42.841595501993815" lon="10.432402980533713"><ele>155.0</ele><time>2026-04-19T12:27:56.999Z</time></trkpt><trkpt lat="42.84152167039498" lon="10.432360393926635"><ele>155.0</ele><time>2026-04-19T12:27:57.999Z</time></trkpt><trkpt lat="42.84142654530955" lon="10.43229237439386"><ele>155.0</ele><time>2026-04-19T12:27:58.999Z</time></trkpt><trkpt lat="42.8412962457013" lon="10.432236394345251"><ele>155.0</ele><time>2026-04-19T12:27:59.999Z</time></trkpt><trkpt lat="42.84114763752134" lon="10.432183481241825"><ele>155.0</ele><time>2026-04-19T12:28:00.999Z</time></trkpt><trkpt lat="42.84098485406681" lon="10.43208633685353"><ele>159.33333333333331</ele><time>2026-04-19T12:28:01.999Z</time></trkpt><trkpt lat="42.84082063572118" lon="10.431981857665088"><ele>163.66666666666666</ele><time>2026-04-19T12:28:02.999Z</time></trkpt><trkpt lat="42.84067603549367" lon="10.431873705906076"><ele>168.0</ele><time>2026-04-19T12:28:03.999Z</time></trkpt><trkpt lat="42.840545788507946" lon="10.431735570414538"><ele>168.0</ele><time>2026-04-19T12:28:04.999Z</time></trkpt><trkpt lat="42.84041599633424" lon="10.431615290666373"><ele>168.0</ele><time>2026-04-19T12:28:05.999Z</time></trkpt><trkpt lat="42.840300306010235" lon="10.43151498150107"><ele>168.0</ele><time>2026-04-19T12:28:06.999Z</time></trkpt><trkpt lat="42.840207099119304" lon="10.431457859093928"><ele>168.0</ele><time>2026-04-19T12:28:07.999Z</time></trkpt><trkpt lat="42.84011101099819" lon="10.431390033423028"><ele>170.5</ele><time>2026-04-19T12:28:08.999Z</time></trkpt><trkpt lat="42.84002273210244" lon="10.43134260224783"><ele>173.0</ele><time>2026-04-19T12:28:09.999Z</time></trkpt><trkpt lat="42.83994554217683" lon="10.431274023597187"><ele>175.5</ele><time>2026-04-19T12:28:11.999Z</time></trkpt><trkpt lat="42.840008531954965" lon="10.431179121908373"><ele>178.0</ele><time>2026-04-19T12:28:13.999Z</time></trkpt><trkpt lat="42.842966067199754" lon="10.428846152678034"><ele>174.5</ele><time>2026-04-19T12:29:15Z</time></trkpt><trkpt lat="42.843042808760664" lon="10.428833203282496"><ele>171.0</ele><time>2026-04-19T12:29:17Z</time></trkpt><trkpt lat="42.8431033035962" lon="10.428775120336473"><ele>167.5</ele><time>2026-04-19T12:29:19Z</time></trkpt><trkpt lat="42.84308960373321" lon="10.428661442721356"><ele>164.0</ele><time>2026-04-19T12:29:57.999Z</time></trkpt><trkpt lat="42.84303710919541" lon="10.428576235193646"><ele>160.5</ele><time>2026-04-19T12:29:59.999Z</time></trkpt><trkpt lat="42.84299165340046" lon="10.428508356277948"><ele>157.0</ele><time>2026-04-19T12:30:01.999Z</time></trkpt><trkpt lat="42.842976866679095" lon="10.428379630833481"><ele>155.2</ele><time>2026-04-19T12:30:03.999Z</time></trkpt><trkpt lat="42.842988343987486" lon="10.428260960629402"><ele>153.39999999999998</ele><time>2026-04-19T12:30:05.999Z</time></trkpt><trkpt lat="42.84303039127492" lon="10.428109204448376"><ele>151.60000000000002</ele><time>2026-04-19T12:30:07.999Z</time></trkpt><trkpt lat="42.84301897986971" lon="10.427978728156278"><ele>149.8</ele><time>2026-04-19T12:30:09.999Z</time></trkpt><trkpt lat="42.843047360942556" lon="10.4278340162244"><ele>148.0</ele><time>2026-04-19T12:30:11.999Z</time></trkpt><trkpt lat="42.843073101850074" lon="10.427736263269463"><ele>152.0</ele><time>2026-04-19T12:30:12.999Z</time></trkpt><trkpt lat="42.843219700009946" lon="10.424955347143923"><ele>152.0</ele><time>2026-04-19T12:31:15Z</time></trkpt><trkpt lat="42.84323510366858" lon="10.424840678365793"><ele>152.0</ele><time>2026-04-19T12:31:17Z</time></trkpt><trkpt lat="42.84322362800437" lon="10.424734937105807"><ele>152.0</ele><time>2026-04-19T12:31:19Z</time></trkpt><trkpt lat="42.84318998090706" lon="10.424637327539369"><ele>152.0</ele><time>2026-04-19T12:31:21Z</time></trkpt><trkpt lat="42.84322403916173" lon="10.424541096782955"><ele>152.0</ele><time>2026-04-19T12:31:23Z</time></trkpt><trkpt lat="42.84322935189114" lon="10.424448276556493"><ele>152.0</ele><time>2026-04-19T12:31:25Z</time></trkpt><trkpt lat="42.84319279032478" lon="10.424366238001033"><ele>152.83333333333331</ele><time>2026-04-19T12:31:28Z</time></trkpt><trkpt lat="42.84324329556522" lon="10.424256798510774"><ele>153.66666666666666</ele><time>2026-04-19T12:31:30Z</time></trkpt><trkpt lat="42.84328291191239" lon="10.42417253694662"><ele>154.5</ele><time>2026-04-19T12:31:32Z</time></trkpt><trkpt lat="42.84328709279791" lon="10.42407993630725"><ele>155.33333333333334</ele><time>2026-04-19T12:31:34Z</time></trkpt><trkpt lat="42.84330479830577" lon="10.42397513438685"><ele>156.16666666666669</ele><time>2026-04-19T12:31:38Z</time></trkpt><trkpt lat="42.84330838606591" lon="10.423884243059872"><ele>157.0</ele><time>2026-04-19T12:31:41Z</time></trkpt><trkpt lat="42.84336969421527" lon="10.423766868593235"><ele>157.0</ele><time>2026-04-19T12:32:06.999Z</time></trkpt><trkpt lat="42.84343857217321" lon="10.423758503615588"><ele>157.0</ele><time>2026-04-19T12:32:28.999Z</time></trkpt><trkpt lat="42.843424177225025" lon="10.423663697965472"><ele>157.0</ele><time>2026-04-19T12:32:34.999Z</time></trkpt><trkpt lat="42.84338553008541" lon="10.42356571421411"><ele>157.0</ele><time>2026-04-19T12:32:37.999Z</time></trkpt><trkpt lat="42.84333710007326" lon="10.423471650062153"><ele>157.0</ele><time>2026-04-19T12:32:40Z</time></trkpt><trkpt lat="42.84330959028059" lon="10.423340916810519"><ele>157.0</ele><time>2026-04-19T12:32:42Z</time></trkpt><trkpt lat="42.84329357419944" lon="10.423218201063426"><ele>157.0</ele><time>2026-04-19T12:32:44Z</time></trkpt><trkpt lat="42.84325461333216" lon="10.423093565142352"><ele>157.0</ele><time>2026-04-19T12:32:46Z</time></trkpt><trkpt lat="42.843208745266175" lon="10.422995016289697"><ele>157.0</ele><time>2026-04-19T12:32:48Z</time></trkpt><trkpt lat="42.84318190025311" lon="10.422850871537596"><ele>157.0</ele><time>2026-04-19T12:32:50Z</time></trkpt><trkpt lat="42.84313978468592" lon="10.422771164317435"><ele>157.0</ele><time>2026-04-19T12:32:51Z</time></trkpt><trkpt lat="42.843080992598914" lon="10.422657896278297"><ele>154.6</ele><time>2026-04-19T12:32:53Z</time></trkpt><trkpt lat="42.84300527697057" lon="10.422578395659693"><ele>152.2</ele><time>2026-04-19T12:32:55Z</time></trkpt><trkpt lat="42.84291412856932" lon="10.422456617524615"><ele>149.8</ele><time>2026-04-19T12:32:57Z</time></trkpt><trkpt lat="42.842866779304345" lon="10.422387306729219"><ele>147.4</ele><time>2026-04-19T12:32:59Z</time></trkpt><trkpt lat="42.842968255841015" lon="10.422266559483182"><ele>145.0</ele><time>2026-04-19T12:33:00Z</time></trkpt><trkpt lat="42.84291515890528" lon="10.422180635645844"><ele>143.4</ele><time>2026-04-19T12:33:03Z</time></trkpt><trkpt lat="42.84284154471677" lon="10.422074680041012"><ele>141.8</ele><time>2026-04-19T12:33:05Z</time></trkpt><trkpt lat="42.842787691646286" lon="10.421997985237002"><ele>140.2</ele><time>2026-04-19T12:33:07Z</time></trkpt><trkpt lat="42.84273420337063" lon="10.421901284512067"><ele>138.6</ele><time>2026-04-19T12:33:09Z</time></trkpt><trkpt lat="42.84271109382326" lon="10.421774776536074"><ele>137.0</ele><time>2026-04-19T12:33:11Z</time></trkpt><trkpt lat="42.84265697968443" lon="10.421655584053164"><ele>145.0</ele><time>2026-04-19T12:33:13Z</time></trkpt><trkpt lat="42.84185706590863" lon="10.418957963847793"><ele>141.8</ele><time>2026-04-19T12:34:14.999Z</time></trkpt><trkpt lat="42.84185649398105" lon="10.418779150397299"><ele>138.6</ele><time>2026-04-19T12:34:16.999Z</time></trkpt><trkpt lat="42.84188948609994" lon="10.418681154767757"><ele>135.4</ele><time>2026-04-19T12:34:18.999Z</time></trkpt><trkpt lat="42.84193727956699" lon="10.41857787347633"><ele>132.2</ele><time>2026-04-19T12:34:20.999Z</time></trkpt><trkpt lat="42.841996514609335" lon="10.418404329743016"><ele>129.0</ele><time>2026-04-19T12:34:22.999Z</time></trkpt><trkpt lat="42.84204097886569" lon="10.418292630885277"><ele>129.0</ele><time>2026-04-19T12:34:23.999Z</time></trkpt><trkpt lat="42.8420632533622" lon="10.418211516801962"><ele>129.0</ele><time>2026-04-19T12:34:24.999Z</time></trkpt><trkpt lat="42.84205632743717" lon="10.41812316585017"><ele>129.0</ele><time>2026-04-19T12:34:25.999Z</time></trkpt><trkpt lat="42.84200081076725" lon="10.417998155419806"><ele>129.0</ele><time>2026-04-19T12:34:27.999Z</time></trkpt><trkpt lat="42.84186059694412" lon="10.41786077513283"><ele>129.0</ele><time>2026-04-19T12:34:28.999Z</time></trkpt><trkpt lat="42.841829515178794" lon="10.417706848218472"><ele>129.0</ele><time>2026-04-19T12:34:29.999Z</time></trkpt><trkpt lat="42.84181009562897" lon="10.41762426096797"><ele>129.0</ele><time>2026-04-19T12:34:30.999Z</time></trkpt><trkpt lat="42.84177274999178" lon="10.417548305080363"><ele>129.0</ele><time>2026-04-19T12:34:31.999Z</time></trkpt><trkpt lat="42.841745267445155" lon="10.417466090370725"><ele>129.0</ele><time>2026-04-19T12:34:33.999Z</time></trkpt><trkpt lat="42.841709794748205" lon="10.417373134201146"><ele>129.0</ele><time>2026-04-19T12:34:35.999Z</time></trkpt><trkpt lat="42.84165791846421" lon="10.417209793697724"><ele>129.0</ele><time>2026-04-19T12:34:37.999Z</time></trkpt><trkpt lat="42.841626524702995" lon="10.417093036250645"><ele>129.0</ele><time>2026-04-19T12:34:39.999Z</time></trkpt><trkpt lat="42.84159479055015" lon="10.416987929136203"><ele>129.0</ele><time>2026-04-19T12:34:41.999Z</time></trkpt><trkpt lat="42.841558371190345" lon="10.416907958240268"><ele>129.0</ele><time>2026-04-19T12:34:42.999Z</time></trkpt><trkpt lat="42.84152050143699" lon="10.416835694577927"><ele>129.0</ele><time>2026-04-19T12:34:43.999Z</time></trkpt><trkpt lat="42.84146161007247" lon="10.416752531500899"><ele>129.0</ele><time>2026-04-19T12:34:46Z</time></trkpt><trkpt lat="42.84134711647592" lon="10.416917203683274"><ele>129.0</ele><time>2026-04-19T12:34:47Z</time></trkpt><trkpt lat="42.841232234997655" lon="10.416629886174746"><ele>129.0</ele><time>2026-04-19T12:34:49Z</time></trkpt><trkpt lat="42.841153037054056" lon="10.416620964080087"><ele>129.0</ele><time>2026-04-19T12:34:50Z</time></trkpt><trkpt lat="42.840997842990014" lon="10.416661189763827"><ele>129.0</ele><time>2026-04-19T12:34:54Z</time></trkpt><trkpt lat="42.84097268866267" lon="10.416556955768483"><ele>129.0</ele><time>2026-04-19T12:34:56Z</time></trkpt><trkpt lat="42.84095070965542" lon="10.416456041241752"><ele>129.0</ele><time>2026-04-19T12:34:58Z</time></trkpt><trkpt lat="42.84094743076614" lon="10.416361040538966"><ele>129.0</ele><time>2026-04-19T12:35:01Z</time></trkpt><trkpt lat="42.84119847226356" lon="10.413890798358684"><ele>133.16666666666666</ele><time>2026-04-19T12:38:14.999Z</time></trkpt><trkpt lat="42.84117816004929" lon="10.41376968635746"><ele>137.33333333333334</ele><time>2026-04-19T12:38:15.999Z</time></trkpt><trkpt lat="42.84116863169694" lon="10.413659782631342"><ele>141.5</ele><time>2026-04-19T12:38:16.999Z</time></trkpt><trkpt lat="42.8411607938" lon="10.413569216351613"><ele>145.66666666666669</ele><time>2026-04-19T12:38:17.999Z</time></trkpt><trkpt lat="42.84119514558424" lon="10.413437988781524"><ele>149.83333333333334</ele><time>2026-04-19T12:38:19.999Z</time></trkpt><trkpt lat="42.84126090842507" lon="10.413400682147863"><ele>154.0</ele><time>2026-04-19T12:38:20.999Z</time></trkpt><trkpt lat="42.84131701484642" lon="10.413261299369255"><ele>154.0</ele><time>2026-04-19T12:38:22.999Z</time></trkpt><trkpt lat="42.841274008699244" lon="10.41309644842456"><ele>154.0</ele><time>2026-04-19T12:38:24.999Z</time></trkpt><trkpt lat="42.841280515857804" lon="10.412974702997067"><ele>154.0</ele><time>2026-04-19T12:38:25.999Z</time></trkpt><trkpt lat="42.84123881704736" lon="10.412862572567303"><ele>154.0</ele><time>2026-04-19T12:38:27.999Z</time></trkpt><trkpt lat="42.84109258696861" lon="10.412837596732055"><ele>154.16666666666669</ele><time>2026-04-19T12:38:29.999Z</time></trkpt><trkpt lat="42.84100382369088" lon="10.412823878423453"><ele>154.33333333333334</ele><time>2026-04-19T12:38:30.999Z</time></trkpt><trkpt lat="42.84089398225785" lon="10.412814376159584"><ele>154.5</ele><time>2026-04-19T12:38:31.999Z</time></trkpt><trkpt lat="42.84080373722531" lon="10.412807817987048"><ele>154.66666666666666</ele><time>2026-04-19T12:38:32.999Z</time></trkpt><trkpt lat="42.84072935521167" lon="10.4127872022767"><ele>154.83333333333331</ele><time>2026-04-19T12:38:33.999Z</time></trkpt><trkpt lat="42.84066095656777" lon="10.412812897906068"><ele>155.0</ele><time>2026-04-19T12:38:34.999Z</time></trkpt><trkpt lat="42.840591350417434" lon="10.412838367098214"><ele>154.6</ele><time>2026-04-19T12:38:35.999Z</time></trkpt><trkpt lat="42.84052878006968" lon="10.412907241858063"><ele>154.2</ele><time>2026-04-19T12:38:36.999Z</time></trkpt><trkpt lat="42.8404411155936" lon="10.41298236604108"><ele>153.8</ele><time>2026-04-19T12:38:37.999Z</time></trkpt><trkpt lat="42.84036016698129" lon="10.413051404797555"><ele>153.4</ele><time>2026-04-19T12:38:38.999Z</time></trkpt><trkpt lat="42.84028124205965" lon="10.413121560158269"><ele>153.0</ele><time>2026-04-19T12:38:39.999Z</time></trkpt><trkpt lat="42.84020078417502" lon="10.413143070647426"><ele>155.4</ele><time>2026-04-19T12:38:40.999Z</time></trkpt><trkpt lat="42.840132401948914" lon="10.41314069916658"><ele>157.8</ele><time>2026-04-19T12:38:41.999Z</time></trkpt><trkpt lat="42.84000788622111" lon="10.413216001165315"><ele>160.2</ele><time>2026-04-19T12:38:43.999Z</time></trkpt><trkpt lat="42.8399545387387" lon="10.413288621083087"><ele>162.6</ele><time>2026-04-19T12:38:44.999Z</time></trkpt><trkpt lat="42.83989305384657" lon="10.413363684392861"><ele>165.0</ele><time>2026-04-19T12:38:45.999Z</time></trkpt><trkpt lat="42.83983202510172" lon="10.413481531230717"><ele>165.0</ele><time>2026-04-19T12:38:46.999Z</time></trkpt><trkpt lat="42.8397671723421" lon="10.41355452191814"><ele>165.0</ele><time>2026-04-19T12:38:47.999Z</time></trkpt><trkpt lat="42.83971491843336" lon="10.413619404426665"><ele>165.0</ele><time>2026-04-19T12:38:48.999Z</time></trkpt><trkpt lat="42.83965456658514" lon="10.413682032313444"><ele>165.0</ele><time>2026-04-19T12:38:49.999Z</time></trkpt><trkpt lat="42.83957730749382" lon="10.41372091259909"><ele>165.0</ele><time>2026-04-19T12:38:50.999Z</time></trkpt><trkpt lat="42.8394850632112" lon="10.41380253228942"><ele>165.0</ele><time>2026-04-19T12:38:52.999Z</time></trkpt><trkpt lat="42.83942346213621" lon="10.413886534297973"><ele>164.33333333333334</ele><time>2026-04-19T12:38:53.999Z</time></trkpt><trkpt lat="42.83937248135969" lon="10.413973193707841"><ele>163.66666666666666</ele><time>2026-04-19T12:38:54.999Z</time></trkpt><trkpt lat="42.83932772432859" lon="10.414045374864607"><ele>163.0</ele><time>2026-04-19T12:38:55.999Z</time></trkpt><trkpt lat="42.83927760790852" lon="10.414123485330608"><ele>162.33333333333331</ele><time>2026-04-19T12:38:57Z</time></trkpt><trkpt lat="42.839172610777794" lon="10.414173249512455"><ele>161.66666666666666</ele><time>2026-04-19T12:38:59Z</time></trkpt><trkpt lat="42.839098242711344" lon="10.414147037441309"><ele>161.0</ele><time>2026-04-19T12:39:00Z</time></trkpt><trkpt lat="42.83902201377988" lon="10.414164863396872"><ele>164.0</ele><time>2026-04-19T12:39:01Z</time></trkpt><trkpt lat="42.838960871431915" lon="10.41420557457174"><ele>167.0</ele><time>2026-04-19T12:39:02Z</time></trkpt><trkpt lat="42.838893785654335" lon="10.414208003580129"><ele>170.0</ele><time>2026-04-19T12:39:03Z</time></trkpt><trkpt lat="42.83882338297801" lon="10.414234017573701"><ele>173.0</ele><time>2026-04-19T12:39:04Z</time></trkpt><trkpt lat="42.838759704998964" lon="10.414260385115325"><ele>176.0</ele><time>2026-04-19T12:39:05Z</time></trkpt><trkpt lat="42.838692297028544" lon="10.41429164034591"><ele>179.0</ele><time>2026-04-19T12:39:06Z</time></trkpt><trkpt lat="42.83862919039369" lon="10.414324307086533"><ele>182.0</ele><time>2026-04-19T12:39:07Z</time></trkpt><trkpt lat="42.838551082808586" lon="10.41439940931226"><ele>185.33333333333331</ele><time>2026-04-19T12:39:08Z</time></trkpt><trkpt lat="42.83846416114669" lon="10.414409323041035"><ele>188.66666666666666</ele><time>2026-04-19T12:39:09Z</time></trkpt><trkpt lat="42.83834772790852" lon="10.414356687054202"><ele>192.0</ele><time>2026-04-19T12:39:11Z</time></trkpt><trkpt lat="42.8382886182981" lon="10.414318222972181"><ele>195.33333333333331</ele><time>2026-04-19T12:39:12Z</time></trkpt><trkpt lat="42.83822415733986" lon="10.414281917739734"><ele>198.66666666666666</ele><time>2026-04-19T12:39:13Z</time></trkpt><trkpt lat="42.83816872901776" lon="10.414230118894443"><ele>202.0</ele><time>2026-04-19T12:39:14Z</time></trkpt><trkpt lat="42.83978839745145" lon="10.407946794651329"><ele>192.0</ele><time>2026-04-19T12:40:14.999Z</time></trkpt><trkpt lat="42.839724830504004" lon="10.407811532896277"><ele>182.0</ele><time>2026-04-19T12:40:15.999Z</time></trkpt><trkpt lat="42.839622978764844" lon="10.407696488257287"><ele>172.0</ele><time>2026-04-19T12:40:16.999Z</time></trkpt><trkpt lat="42.83950783149506" lon="10.407621203307741"><ele>162.0</ele><time>2026-04-19T12:40:17.999Z</time></trkpt><trkpt lat="42.83937163919648" lon="10.407548578529461"><ele>167.25</ele><time>2026-04-19T12:40:18.999Z</time></trkpt><trkpt lat="42.83923198736363" lon="10.407500912035566"><ele>172.5</ele><time>2026-04-19T12:40:19.999Z</time></trkpt><trkpt lat="42.8390925772124" lon="10.407429431324625"><ele>177.75</ele><time>2026-04-19T12:40:20.999Z</time></trkpt><trkpt lat="42.83895237407686" lon="10.407372722227798"><ele>183.0</ele><time>2026-04-19T12:40:21.999Z</time></trkpt><trkpt lat="42.83883224551921" lon="10.407328216253939"><ele>183.0</ele><time>2026-04-19T12:40:22.999Z</time></trkpt><trkpt lat="42.83872838521388" lon="10.407295814113697"><ele>183.0</ele><time>2026-04-19T12:40:23.999Z</time></trkpt><trkpt lat="42.8386319339892" lon="10.407278486678694"><ele>183.0</ele><time>2026-04-19T12:40:24.999Z</time></trkpt><trkpt lat="42.8385578361228" lon="10.407266918972748"><ele>183.0</ele><time>2026-04-19T12:40:25.999Z</time></trkpt><trkpt lat="42.838497821128364" lon="10.407232206594804"><ele>183.0</ele><time>2026-04-19T12:40:26.999Z</time></trkpt><trkpt lat="42.83846644447364" lon="10.407156607863973"><ele>183.0</ele><time>2026-04-19T12:40:27.999Z</time></trkpt><trkpt lat="42.83845482636301" lon="10.407054373374635"><ele>182.2</ele><time>2026-04-19T12:40:28.999Z</time></trkpt><trkpt lat="42.8385061268448" lon="10.406947600120604"><ele>181.4</ele><time>2026-04-19T12:40:29.999Z</time></trkpt><trkpt lat="42.838580370328565" lon="10.406895782562353"><ele>180.6</ele><time>2026-04-19T12:40:30.999Z</time></trkpt><trkpt lat="42.83865235312485" lon="10.406886683399037"><ele>179.79999999999998</ele><time>2026-04-19T12:40:31.999Z</time></trkpt><trkpt lat="42.8387570657613" lon="10.406831087633826"><ele>179.0</ele><time>2026-04-19T12:40:32.999Z</time></trkpt><trkpt lat="42.83891112021824" lon="10.40675180272689"><ele>179.0</ele><time>2026-04-19T12:40:33.999Z</time></trkpt><trkpt lat="42.83902591596395" lon="10.40667272170818"><ele>179.0</ele><time>2026-04-19T12:40:34.999Z</time></trkpt><trkpt lat="42.839141779787724" lon="10.406612227780716"><ele>179.0</ele><time>2026-04-19T12:40:35.999Z</time></trkpt><trkpt lat="42.83926856813739" lon="10.406580406084235"><ele>179.0</ele><time>2026-04-19T12:40:36.999Z</time></trkpt><trkpt lat="42.83940495304239" lon="10.406540796764398"><ele>176.5</ele><time>2026-04-19T12:40:37.999Z</time></trkpt><trkpt lat="42.83951742502342" lon="10.406504418398264"><ele>174.0</ele><time>2026-04-19T12:40:38.999Z</time></trkpt><trkpt lat="42.83964707595579" lon="10.406469440826065"><ele>171.5</ele><time>2026-04-19T12:40:39.999Z</time></trkpt><trkpt lat="42.83974705209538" lon="10.4064397980661"><ele>169.0</ele><time>2026-04-19T12:40:40.999Z</time></trkpt><trkpt lat="42.83985428682136" lon="10.406425270059914"><ele>169.0</ele><time>2026-04-19T12:40:41.999Z</time></trkpt><trkpt lat="42.840003977037" lon="10.406445181735275"><ele>169.0</ele><time>2026-04-19T12:40:42.999Z</time></trkpt><trkpt lat="42.840149519700695" lon="10.406487255886635"><ele>169.0</ele><time>2026-04-19T12:40:43.999Z</time></trkpt><trkpt lat="42.840296606727954" lon="10.406516756250522"><ele>169.0</ele><time>2026-04-19T12:40:44.999Z</time></trkpt><trkpt lat="42.84042902609367" lon="10.406527185936758"><ele>166.0</ele><time>2026-04-19T12:40:45.999Z</time></trkpt><trkpt lat="42.84054930199045" lon="10.406478653804934"><ele>163.0</ele><time>2026-04-19T12:40:46.999Z</time></trkpt><trkpt lat="42.84068228373571" lon="10.406399064785518"><ele>160.0</ele><time>2026-04-19T12:40:47.999Z</time></trkpt><trkpt lat="42.840799051598935" lon="10.406320390785105"><ele>157.0</ele><time>2026-04-19T12:40:48.999Z</time></trkpt><trkpt lat="42.84094440189838" lon="10.406297822793483"><ele>156.0</ele><time>2026-04-19T12:40:49.999Z</time></trkpt><trkpt lat="42.8410788945114" lon="10.40631455987313"><ele>155.0</ele><time>2026-04-19T12:40:50.999Z</time></trkpt><trkpt lat="42.84120883010015" lon="10.406348607504832"><ele>154.0</ele><time>2026-04-19T12:40:51.999Z</time></trkpt><trkpt lat="42.84132000484732" lon="10.406368008137056"><ele>153.0</ele><time>2026-04-19T12:40:52.999Z</time></trkpt><trkpt lat="42.84144663099047" lon="10.406418261003141"><ele>153.0</ele><time>2026-04-19T12:40:53.999Z</time></trkpt><trkpt lat="42.841583348190596" lon="10.406467642807346"><ele>153.0</ele><time>2026-04-19T12:40:54.999Z</time></trkpt><trkpt lat="42.841708569269336" lon="10.406485293025854"><ele>153.0</ele><time>2026-04-19T12:40:55.999Z</time></trkpt><trkpt lat="42.84184742759984" lon="10.406471837622494"><ele>153.0</ele><time>2026-04-19T12:40:56.999Z</time></trkpt><trkpt lat="42.84198597067192" lon="10.406450759201967"><ele>152.25</ele><time>2026-04-19T12:40:57.999Z</time></trkpt><trkpt lat="42.84211848071534" lon="10.406414922175783"><ele>151.5</ele><time>2026-04-19T12:40:58.999Z</time></trkpt><trkpt lat="42.842223723554774" lon="10.40636224692907"><ele>150.75</ele><time>2026-04-19T12:40:59.999Z</time></trkpt><trkpt lat="42.842304026380205" lon="10.406296742293026"><ele>150.0</ele><time>2026-04-19T12:41:00.999Z</time></trkpt><trkpt lat="42.84237285954198" lon="10.406176539330454"><ele>150.0</ele><time>2026-04-19T12:41:01.999Z</time></trkpt><trkpt lat="42.84239020895728" lon="10.40606673839207"><ele>150.0</ele><time>2026-04-19T12:41:03Z</time></trkpt><trkpt lat="42.84238562622826" lon="10.405966159101078"><ele>150.0</ele><time>2026-04-19T12:41:04Z</time></trkpt><trkpt lat="42.84234576507326" lon="10.405852326297696"><ele>150.0</ele><time>2026-04-19T12:41:05Z</time></trkpt><trkpt lat="42.84232866534061" lon="10.40571125671078"><ele>150.0</ele><time>2026-04-19T12:41:06Z</time></trkpt><trkpt lat="42.84234269654483" lon="10.405582820068107"><ele>150.0</ele><time>2026-04-19T12:41:07Z</time></trkpt><trkpt lat="42.842409657510125" lon="10.405483032079164"><ele>151.25</ele><time>2026-04-19T12:41:08Z</time></trkpt><trkpt lat="42.84247142750272" lon="10.40539892856477"><ele>152.5</ele><time>2026-04-19T12:41:09Z</time></trkpt><trkpt lat="42.842552450270354" lon="10.405256949172703"><ele>153.75</ele><time>2026-04-19T12:41:10Z</time></trkpt><trkpt lat="42.84257606342296" lon="10.405070800539876"><ele>155.0</ele><time>2026-04-19T12:41:11Z</time></trkpt><trkpt lat="42.84258516308833" lon="10.404878384099414"><ele>155.0</ele><time>2026-04-19T12:41:12Z</time></trkpt><trkpt lat="42.84257740346942" lon="10.404690037713253"><ele>155.0</ele><time>2026-04-19T12:41:13Z</time></trkpt><trkpt lat="42.84255602297238" lon="10.404514220144492"><ele>155.0</ele><time>2026-04-19T12:41:14Z</time></trkpt><trkpt lat="42.84500694476533" lon="10.402661171994685"><ele>152.75</ele><time>2026-04-19T12:42:14.999Z</time></trkpt><trkpt lat="42.845103836447436" lon="10.402796637614985"><ele>150.5</ele><time>2026-04-19T12:42:15.999Z</time></trkpt><trkpt lat="42.845187504643214" lon="10.402919595989246"><ele>148.25</ele><time>2026-04-19T12:42:16.999Z</time></trkpt><trkpt lat="42.84527338566721" lon="10.403029075663602"><ele>146.0</ele><time>2026-04-19T12:42:17.999Z</time></trkpt><trkpt lat="42.84536666817064" lon="10.403097259817436"><ele>146.0</ele><time>2026-04-19T12:42:18.999Z</time></trkpt><trkpt lat="42.845452086995856" lon="10.403135673103707"><ele>146.0</ele><time>2026-04-19T12:42:19.999Z</time></trkpt><trkpt lat="42.8455416597054" lon="10.403106180390692"><ele>146.0</ele><time>2026-04-19T12:42:20.999Z</time></trkpt><trkpt lat="42.8456233074496" lon="10.403043491370417"><ele>146.0</ele><time>2026-04-19T12:42:21.999Z</time></trkpt><trkpt lat="42.84570246791763" lon="10.402950408201757"><ele>146.0</ele><time>2026-04-19T12:42:22.999Z</time></trkpt><trkpt lat="42.84578921540414" lon="10.402849179822597"><ele>146.0</ele><time>2026-04-19T12:42:23.999Z</time></trkpt><trkpt lat="42.84588396263069" lon="10.402734990347072"><ele>146.0</ele><time>2026-04-19T12:42:24.999Z</time></trkpt><trkpt lat="42.84598395530266" lon="10.402618281582813"><ele>146.0</ele><time>2026-04-19T12:42:25.999Z</time></trkpt><trkpt lat="42.84607072429552" lon="10.402513536743852"><ele>146.0</ele><time>2026-04-19T12:42:26.999Z</time></trkpt><trkpt lat="42.846148442428216" lon="10.402420385073352"><ele>143.6</ele><time>2026-04-19T12:42:27.999Z</time></trkpt><trkpt lat="42.84623616261364" lon="10.402345058046185"><ele>141.2</ele><time>2026-04-19T12:42:28.999Z</time></trkpt><trkpt lat="42.846338536026956" lon="10.402281139858328"><ele>138.8</ele><time>2026-04-19T12:42:29.999Z</time></trkpt><trkpt lat="42.84644813415508" lon="10.402225059420037"><ele>136.4</ele><time>2026-04-19T12:42:30.999Z</time></trkpt><trkpt lat="42.84655994422967" lon="10.402189603326224"><ele>134.0</ele><time>2026-04-19T12:42:31.999Z</time></trkpt><trkpt lat="42.84668150918407" lon="10.402166857996543"><ele>138.6</ele><time>2026-04-19T12:42:32.999Z</time></trkpt><trkpt lat="42.84681095805615" lon="10.402133381498215"><ele>143.2</ele><time>2026-04-19T12:42:33.999Z</time></trkpt><trkpt lat="42.84691268964276" lon="10.402122101385435"><ele>147.79999999999998</ele><time>2026-04-19T12:42:34.999Z</time></trkpt><trkpt lat="42.84697646097573" lon="10.402076672886718"><ele>152.4</ele><time>2026-04-19T12:42:35.999Z</time></trkpt><trkpt lat="42.847095566300275" lon="10.402033367581977"><ele>157.0</ele><time>2026-04-19T12:42:37.999Z</time></trkpt><trkpt lat="42.84714352754523" lon="10.402117582589241"><ele>156.2</ele><time>2026-04-19T12:42:38.999Z</time></trkpt><trkpt lat="42.84718935130495" lon="10.402237176977463"><ele>155.39999999999998</ele><time>2026-04-19T12:42:39.999Z</time></trkpt><trkpt lat="42.84718536471658" lon="10.40237154175463"><ele>154.60000000000002</ele><time>2026-04-19T12:42:40.999Z</time></trkpt><trkpt lat="42.847158233024146" lon="10.402473999621733"><ele>153.8</ele><time>2026-04-19T12:42:41.999Z</time></trkpt><trkpt lat="42.847073506989844" lon="10.402541625913589"><ele>153.0</ele><time>2026-04-19T12:42:42.999Z</time></trkpt><trkpt lat="42.8469761143903" lon="10.40262337056728"><ele>153.0</ele><time>2026-04-19T12:42:43.999Z</time></trkpt><trkpt lat="42.84686695918768" lon="10.402713104923029"><ele>153.0</ele><time>2026-04-19T12:42:44.999Z</time></trkpt><trkpt lat="42.846766196526715" lon="10.402816620122277"><ele>153.0</ele><time>2026-04-19T12:42:45.999Z</time></trkpt><trkpt lat="42.846681857659966" lon="10.402942535909935"><ele>153.0</ele><time>2026-04-19T12:42:46.999Z</time></trkpt><trkpt lat="42.84660993492386" lon="10.403097549217112"><ele>148.0</ele><time>2026-04-19T12:42:47.999Z</time></trkpt><trkpt lat="42.84654989394887" lon="10.403286872380926"><ele>143.0</ele><time>2026-04-19T12:42:48.999Z</time></trkpt><trkpt lat="42.84649505382766" lon="10.40348418529438"><ele>138.0</ele><time>2026-04-19T12:42:49.999Z</time></trkpt><trkpt lat="42.846450689781875" lon="10.403670786980324"><ele>141.0</ele><time>2026-04-19T12:42:50.999Z</time></trkpt><trkpt lat="42.84640082011116" lon="10.40383462444817"><ele>144.0</ele><time>2026-04-19T12:42:51.999Z</time></trkpt><trkpt lat="42.84632973447718" lon="10.40395854229379"><ele>147.0</ele><time>2026-04-19T12:42:52.999Z</time></trkpt><trkpt lat="42.846262260506094" lon="10.40408771749375"><ele>150.0</ele><time>2026-04-19T12:42:53.999Z</time></trkpt><trkpt lat="42.84618251169808" lon="10.404220382236376"><ele>150.0</ele><time>2026-04-19T12:42:54.999Z</time></trkpt><trkpt lat="42.84609726495097" lon="10.404349661754944"><ele>150.0</ele><time>2026-04-19T12:42:55.999Z</time></trkpt><trkpt lat="42.84601992281996" lon="10.40445807399449"><ele>150.0</ele><time>2026-04-19T12:42:56.999Z</time></trkpt><trkpt lat="42.84592651956058" lon="10.404540562818719"><ele>150.0</ele><time>2026-04-19T12:42:57.999Z</time></trkpt><trkpt lat="42.845838525056436" lon="10.404630005988821"><ele>146.25</ele><time>2026-04-19T12:42:58.999Z</time></trkpt><trkpt lat="42.845765825904195" lon="10.404755615447305"><ele>142.5</ele><time>2026-04-19T12:42:59.999Z</time></trkpt><trkpt lat="42.845712527717644" lon="10.40490520906826"><ele>138.75</ele><time>2026-04-19T12:43:00.999Z</time></trkpt><trkpt lat="42.845701998909725" lon="10.405082719344328"><ele>135.0</ele><time>2026-04-19T12:43:01.999Z</time></trkpt><trkpt lat="42.84571312765507" lon="10.405260661429306"><ele>135.0</ele><time>2026-04-19T12:43:02.999Z</time></trkpt><trkpt lat="42.84574983670218" lon="10.405440803610727"><ele>135.0</ele><time>2026-04-19T12:43:03.999Z</time></trkpt><trkpt lat="42.845806173950244" lon="10.40560890781621"><ele>135.0</ele><time>2026-04-19T12:43:04.999Z</time></trkpt><trkpt lat="42.84584747992226" lon="10.405797007863157"><ele>135.0</ele><time>2026-04-19T12:43:05.999Z</time></trkpt><trkpt lat="42.84590037568718" lon="10.405977241017311"><ele>135.25</ele><time>2026-04-19T12:43:06.999Z</time></trkpt><trkpt lat="42.84596150794444" lon="10.406152931481328"><ele>135.5</ele><time>2026-04-19T12:43:07.999Z</time></trkpt><trkpt lat="42.84604383429162" lon="10.406308127019269"><ele>135.75</ele><time>2026-04-19T12:43:09Z</time></trkpt><trkpt lat="42.84614191899429" lon="10.406434675427272"><ele>136.0</ele><time>2026-04-19T12:43:10Z</time></trkpt><trkpt lat="42.84623874136211" lon="10.406544864329078"><ele>136.0</ele><time>2026-04-19T12:43:11Z</time></trkpt><trkpt lat="42.84634783205178" lon="10.406652178452804"><ele>136.0</ele><time>2026-04-19T12:43:12Z</time></trkpt><trkpt lat="42.84645173194737" lon="10.406768690728546"><ele>136.0</ele><time>2026-04-19T12:43:13Z</time></trkpt><trkpt lat="42.8464576531587" lon="10.40692756520626"><ele>136.0</ele><time>2026-04-19T12:43:14Z</time></trkpt><trkpt lat="42.85133973087096" lon="10.41084513189903"><ele>127.5</ele><time>2026-04-19T12:44:14.999Z</time></trkpt><trkpt lat="42.85130787741229" lon="10.411017996167402"><ele>119.0</ele><time>2026-04-19T12:44:15.999Z</time></trkpt><trkpt lat="42.8512905926396" lon="10.411184437295569"><ele>110.5</ele><time>2026-04-19T12:44:16.999Z</time></trkpt><trkpt lat="42.85129975534446" lon="10.411335610489612"><ele>102.0</ele><time>2026-04-19T12:44:17.999Z</time></trkpt><trkpt lat="42.851352149196934" lon="10.411476020120368"><ele>99.5</ele><time>2026-04-19T12:44:18.999Z</time></trkpt><trkpt lat="42.85141280367286" lon="10.411624290129662"><ele>97.0</ele><time>2026-04-19T12:44:19.999Z</time></trkpt><trkpt lat="42.8515160121097" lon="10.411726232048832"><ele>94.5</ele><time>2026-04-19T12:44:20.999Z</time></trkpt><trkpt lat="42.851624146492334" lon="10.41185311051288"><ele>92.0</ele><time>2026-04-19T12:44:21.999Z</time></trkpt><trkpt lat="42.85176267043311" lon="10.411955294851737"><ele>91.5</ele><time>2026-04-19T12:44:22.999Z</time></trkpt><trkpt lat="42.85189013087548" lon="10.41207451091358"><ele>91.0</ele><time>2026-04-19T12:44:23.999Z</time></trkpt><trkpt lat="42.852000111255826" lon="10.412180098647832"><ele>90.5</ele><time>2026-04-19T12:44:24.999Z</time></trkpt><trkpt lat="42.8521139915717" lon="10.412294542163467"><ele>90.0</ele><time>2026-04-19T12:44:25.999Z</time></trkpt><trkpt lat="42.85219595579114" lon="10.412432162792305"><ele>90.0</ele><time>2026-04-19T12:44:26.999Z</time></trkpt><trkpt lat="42.852267853909694" lon="10.412565612516577"><ele>90.0</ele><time>2026-04-19T12:44:27.999Z</time></trkpt><trkpt lat="42.852352865718004" lon="10.412693747000207"><ele>90.0</ele><time>2026-04-19T12:44:28.999Z</time></trkpt><trkpt lat="42.852421002581984" lon="10.412832583102098"><ele>90.0</ele><time>2026-04-19T12:44:29.999Z</time></trkpt><trkpt lat="42.85248131840495" lon="10.412980378193378"><ele>86.75</ele><time>2026-04-19T12:44:30.999Z</time></trkpt><trkpt lat="42.852549640389384" lon="10.413113716312719"><ele>83.5</ele><time>2026-04-19T12:44:31.999Z</time></trkpt><trkpt lat="42.85263789205729" lon="10.413229114795396"><ele>80.25</ele><time>2026-04-19T12:44:32.999Z</time></trkpt><trkpt lat="42.85274428654229" lon="10.413324500756314"><ele>77.0</ele><time>2026-04-19T12:44:33.999Z</time></trkpt><trkpt lat="42.85285514184296" lon="10.413401947501086"><ele>76.8</ele><time>2026-04-19T12:44:34.999Z</time></trkpt><trkpt lat="42.852949052940275" lon="10.413471877039765"><ele>76.6</ele><time>2026-04-19T12:44:35.999Z</time></trkpt><trkpt lat="42.853044766836774" lon="10.413499354984591"><ele>76.39999999999999</ele><time>2026-04-19T12:44:36.999Z</time></trkpt><trkpt lat="42.853161093760114" lon="10.413484654148398"><ele>76.2</ele><time>2026-04-19T12:44:37.999Z</time></trkpt><trkpt lat="42.853257152326115" lon="10.413423664077436"><ele>76.0</ele><time>2026-04-19T12:44:38.999Z</time></trkpt><trkpt lat="42.853325148241915" lon="10.413322707303609"><ele>76.0</ele><time>2026-04-19T12:44:39.999Z</time></trkpt><trkpt lat="42.85339227518977" lon="10.413193349756115"><ele>76.0</ele><time>2026-04-19T12:44:40.999Z</time></trkpt><trkpt lat="42.853454133500975" lon="10.413052664985583"><ele>76.0</ele><time>2026-04-19T12:44:41.999Z</time></trkpt><trkpt lat="42.8535463511926" lon="10.412919834346692"><ele>76.0</ele><time>2026-04-19T12:44:42.999Z</time></trkpt><trkpt lat="42.853630412604915" lon="10.412787946181533"><ele>77.8</ele><time>2026-04-19T12:44:43.999Z</time></trkpt><trkpt lat="42.853702643559124" lon="10.41265435009704"><ele>79.6</ele><time>2026-04-19T12:44:44.999Z</time></trkpt><trkpt lat="42.85378767083948" lon="10.41258409903087"><ele>81.4</ele><time>2026-04-19T12:44:45.999Z</time></trkpt><trkpt lat="42.853848483442185" lon="10.41252609735557"><ele>83.2</ele><time>2026-04-19T12:44:46.999Z</time></trkpt><trkpt lat="42.85391086011293" lon="10.412501597763473"><ele>85.0</ele><time>2026-04-19T12:44:47.999Z</time></trkpt><trkpt lat="42.85397557728308" lon="10.412681998403524"><ele>85.0</ele><time>2026-04-19T12:44:49.999Z</time></trkpt><trkpt lat="42.85397395617946" lon="10.412794632130892"><ele>85.0</ele><time>2026-04-19T12:44:50.999Z</time></trkpt><trkpt lat="42.85397387983525" lon="10.412955776369706"><ele>85.0</ele><time>2026-04-19T12:44:51.999Z</time></trkpt><trkpt lat="42.85397357240672" lon="10.413107582189086"><ele>85.0</ele><time>2026-04-19T12:44:52.999Z</time></trkpt><trkpt lat="42.85399211201683" lon="10.413240082756653"><ele>85.0</ele><time>2026-04-19T12:44:53.999Z</time></trkpt><trkpt lat="42.85409285530757" lon="10.413329379759867"><ele>81.25</ele><time>2026-04-19T12:44:54.999Z</time></trkpt><trkpt lat="42.854196969873826" lon="10.413419875131513"><ele>77.5</ele><time>2026-04-19T12:44:55.999Z</time></trkpt><trkpt lat="42.8543306114126" lon="10.413512382802038"><ele>73.75</ele><time>2026-04-19T12:44:56.999Z</time></trkpt><trkpt lat="42.85443838857274" lon="10.413635478302007"><ele>70.0</ele><time>2026-04-19T12:44:57.999Z</time></trkpt><trkpt lat="42.85452423171399" lon="10.413719970800521"><ele>69.0</ele><time>2026-04-19T12:44:58.999Z</time></trkpt><trkpt lat="42.85463074797513" lon="10.413720226184243"><ele>68.0</ele><time>2026-04-19T12:44:59.999Z</time></trkpt><trkpt lat="42.85473323156477" lon="10.413689432725295"><ele>67.0</ele><time>2026-04-19T12:45:00.999Z</time></trkpt><trkpt lat="42.85481930788574" lon="10.413572805235217"><ele>66.0</ele><time>2026-04-19T12:45:01.999Z</time></trkpt><trkpt lat="42.854937698216446" lon="10.413502933071713"><ele>66.0</ele><time>2026-04-19T12:45:02.999Z</time></trkpt><trkpt lat="42.855040934329146" lon="10.413415135163845"><ele>66.0</ele><time>2026-04-19T12:45:03.999Z</time></trkpt><trkpt lat="42.855150221660665" lon="10.413362828174007"><ele>66.0</ele><time>2026-04-19T12:45:04.999Z</time></trkpt><trkpt lat="42.855237288831454" lon="10.41329631814331"><ele>66.0</ele><time>2026-04-19T12:45:05.999Z</time></trkpt><trkpt lat="42.855299740656456" lon="10.41318481000801"><ele>66.0</ele><time>2026-04-19T12:45:06.999Z</time></trkpt><trkpt lat="42.855333256519025" lon="10.413062011212574"><ele>62.75</ele><time>2026-04-19T12:45:07.999Z</time></trkpt><trkpt lat="42.855319464352625" lon="10.4129215166978"><ele>59.5</ele><time>2026-04-19T12:45:08.999Z</time></trkpt><trkpt lat="42.855324034787564" lon="10.412746030536862"><ele>56.25</ele><time>2026-04-19T12:45:09.999Z</time></trkpt><trkpt lat="42.85534912876392" lon="10.412585477879368"><ele>53.0</ele><time>2026-04-19T12:45:10.999Z</time></trkpt><trkpt lat="42.85535853787487" lon="10.412440512944183"><ele>53.0</ele><time>2026-04-19T12:45:11.999Z</time></trkpt><trkpt lat="42.85540088500145" lon="10.412298671487358"><ele>53.0</ele><time>2026-04-19T12:45:12.999Z</time></trkpt><trkpt lat="42.855468464236985" lon="10.412224151563997"><ele>53.0</ele><time>2026-04-19T12:45:13.999Z</time></trkpt><trkpt lat="42.8578068297849" lon="10.415794777864992"><ele>49.4</ele><time>2026-04-19T12:46:14.998Z</time></trkpt><trkpt lat="42.85784246665462" lon="10.415915251018259"><ele>45.8</ele><time>2026-04-19T12:46:15.998Z</time></trkpt><trkpt lat="42.85788032852542" lon="10.416033834037599"><ele>42.2</ele><time>2026-04-19T12:46:16.998Z</time></trkpt><trkpt lat="42.85793163720225" lon="10.416145881738416"><ele>38.6</ele><time>2026-04-19T12:46:17.998Z</time></trkpt><trkpt lat="42.857971686049446" lon="10.416257262644672"><ele>35.0</ele><time>2026-04-19T12:46:18.998Z</time></trkpt><trkpt lat="42.858018736625986" lon="10.41635270489966"><ele>32.5</ele><time>2026-04-19T12:46:19.998Z</time></trkpt><trkpt lat="42.858052561339356" lon="10.41645250564117"><ele>30.0</ele><time>2026-04-19T12:46:20.998Z</time></trkpt><trkpt lat="42.85809732264115" lon="10.416542010200633"><ele>27.5</ele><time>2026-04-19T12:46:21.998Z</time></trkpt><trkpt lat="42.858145221968414" lon="10.416621545082517"><ele>25.0</ele><time>2026-04-19T12:46:22.998Z</time></trkpt><trkpt lat="42.858205896116324" lon="10.416705192599139"><ele>22.5</ele><time>2026-04-19T12:46:23.998Z</time></trkpt><trkpt lat="42.85828725077434" lon="10.416786535241828"><ele>20.0</ele><time>2026-04-19T12:46:24.998Z</time></trkpt><trkpt lat="42.858369754476186" lon="10.416869206612125"><ele>20.8</ele><time>2026-04-19T12:46:25.998Z</time></trkpt><trkpt lat="42.85845512285423" lon="10.4169799787161"><ele>21.6</ele><time>2026-04-19T12:46:26.998Z</time></trkpt><trkpt lat="42.85850192495232" lon="10.417121551392695"><ele>22.4</ele><time>2026-04-19T12:46:27.998Z</time></trkpt><trkpt lat="42.858541995614715" lon="10.41725602248456"><ele>23.2</ele><time>2026-04-19T12:46:28.998Z</time></trkpt><trkpt lat="42.85858097042063" lon="10.417373994252223"><ele>24.0</ele><time>2026-04-19T12:46:29.998Z</time></trkpt><trkpt lat="42.858651662377234" lon="10.417473287156163"><ele>24.0</ele><time>2026-04-19T12:46:30.998Z</time></trkpt><trkpt lat="42.85873068636546" lon="10.417562657588949"><ele>24.0</ele><time>2026-04-19T12:46:31.998Z</time></trkpt><trkpt lat="42.858809097335275" lon="10.417634452411287"><ele>24.0</ele><time>2026-04-19T12:46:32.998Z</time></trkpt><trkpt lat="42.85885553475638" lon="10.417737651028258"><ele>24.0</ele><time>2026-04-19T12:46:33.998Z</time></trkpt><trkpt lat="42.858906647778824" lon="10.41781663870585"><ele>24.0</ele><time>2026-04-19T12:46:34.998Z</time></trkpt><trkpt lat="42.858964258352685" lon="10.417878094755908"><ele>24.0</ele><time>2026-04-19T12:46:35.998Z</time></trkpt><trkpt lat="42.85901962094752" lon="10.41795930922097"><ele>23.166666666666668</ele><time>2026-04-19T12:46:36.998Z</time></trkpt><trkpt lat="42.85907397958647" lon="10.418045805362697"><ele>22.333333333333332</ele><time>2026-04-19T12:46:37.998Z</time></trkpt><trkpt lat="42.85913194805986" lon="10.418136096855028"><ele>21.5</ele><time>2026-04-19T12:46:38.998Z</time></trkpt><trkpt lat="42.859201048886334" lon="10.418222746781975"><ele>20.666666666666664</ele><time>2026-04-19T12:46:39.998Z</time></trkpt><trkpt lat="42.85927437037805" lon="10.418294570990225"><ele>19.833333333333332</ele><time>2026-04-19T12:46:40.998Z</time></trkpt><trkpt lat="42.85934103055879" lon="10.418350993368717"><ele>19.0</ele><time>2026-04-19T12:46:41.998Z</time></trkpt><trkpt lat="42.85940295124233" lon="10.418408092536634"><ele>19.0</ele><time>2026-04-19T12:46:42.998Z</time></trkpt><trkpt lat="42.85946174487023" lon="10.418449885841335"><ele>19.0</ele><time>2026-04-19T12:46:43.998Z</time></trkpt><trkpt lat="42.85952777752604" lon="10.418511994301733"><ele>19.0</ele><time>2026-04-19T12:46:45.998Z</time></trkpt><trkpt lat="42.85947953816168" lon="10.41857279862211"><ele>19.0</ele><time>2026-04-19T12:46:48.998Z</time></trkpt><trkpt lat="42.859320992350646" lon="10.41856363931011"><ele>19.0</ele><time>2026-04-19T12:46:50.998Z</time></trkpt><trkpt lat="42.8592142967414" lon="10.418554835681897"><ele>17.8</ele><time>2026-04-19T12:46:51.998Z</time></trkpt><trkpt lat="42.8591077464418" lon="10.418547002317311"><ele>16.599999999999998</ele><time>2026-04-19T12:46:52.998Z</time></trkpt><trkpt lat="42.85899509386473" lon="10.418557118574789"><ele>15.4</ele><time>2026-04-19T12:46:53.998Z</time></trkpt><trkpt lat="42.85888371866481" lon="10.418551633261647"><ele>14.2</ele><time>2026-04-19T12:46:54.998Z</time></trkpt><trkpt lat="42.85877674417636" lon="10.41854260487065"><ele>13.0</ele><time>2026-04-19T12:46:55.998Z</time></trkpt><trkpt lat="42.85867752301046" lon="10.418534544405631"><ele>12.999999999999998</ele><time>2026-04-19T12:46:56.998Z</time></trkpt><trkpt lat="42.85858335543809" lon="10.418529488420637"><ele>13.0</ele><time>2026-04-19T12:46:57.998Z</time></trkpt><trkpt lat="42.85850361712052" lon="10.41851883013723"><ele>13.0</ele><time>2026-04-19T12:46:58.998Z</time></trkpt><trkpt lat="42.858427224259856" lon="10.418509016160398"><ele>13.0</ele><time>2026-04-19T12:46:59.998Z</time></trkpt><trkpt lat="42.85834928003716" lon="10.41849831106765"><ele>12.999999999999998</ele><time>2026-04-19T12:47:00.998Z</time></trkpt><trkpt lat="42.85828308562698" lon="10.418513686773185"><ele>13.0</ele><time>2026-04-19T12:47:01.998Z</time></trkpt><trkpt lat="42.858225787454195" lon="10.418553602129178"><ele>12.0</ele><time>2026-04-19T12:47:02.998Z</time></trkpt><trkpt lat="42.858201907098234" lon="10.418673870024604"><ele>11.0</ele><time>2026-04-19T12:47:04.998Z</time></trkpt><trkpt lat="42.85825840730226" lon="10.418769043011013"><ele>10.0</ele><time>2026-04-19T12:47:05.998Z</time></trkpt><trkpt lat="42.85832716207104" lon="10.418847225564225"><ele>9.0</ele><time>2026-04-19T12:47:06.998Z</time></trkpt><trkpt lat="42.858395773335786" lon="10.418931170611156"><ele>8.0</ele><time>2026-04-19T12:47:07.998Z</time></trkpt><trkpt lat="42.85845561551243" lon="10.419026065104768"><ele>7.800000000000001</ele><time>2026-04-19T12:47:08.998Z</time></trkpt><trkpt lat="42.858519466882974" lon="10.41913481102747"><ele>7.6000000000000005</ele><time>2026-04-19T12:47:09.998Z</time></trkpt><trkpt lat="42.85857455211717" lon="10.419241730114521"><ele>7.3999999999999995</ele><time>2026-04-19T12:47:10.998Z</time></trkpt><trkpt lat="42.858625549074866" lon="10.41934231500876"><ele>7.199999999999999</ele><time>2026-04-19T12:47:11.998Z</time></trkpt><trkpt lat="42.8586758489134" lon="10.419437609563786"><ele>7.0</ele><time>2026-04-19T12:47:12.998Z</time></trkpt><trkpt lat="42.85872341479021" lon="10.419536140879803"><ele>1.0</ele><time>2026-04-19T12:47:13.998Z</time></trkpt><trkpt lat="42.85895669638398" lon="10.422452661287759"><ele>0.0</ele><time>2026-04-19T12:48:14.997Z</time></trkpt><trkpt lat="42.85858090485882" lon="10.42323390907021"><ele>0.0</ele><time>2026-04-19T12:56:14.993Z</time></trkpt><trkpt lat="42.85849314386858" lon="10.42330498264746"><ele>0.0</ele><time>2026-04-19T12:56:15.993Z</time></trkpt><trkpt lat="42.85842185707943" lon="10.423364293863408"><ele>0.0</ele><time>2026-04-19T12:56:16.993Z</time></trkpt><trkpt lat="42.858349445231504" lon="10.423456379042701"><ele>0.0</ele><time>2026-04-19T12:56:17.993Z</time></trkpt><trkpt lat="42.858268252045654" lon="10.423542939948021"><ele>0.0</ele><time>2026-04-19T12:56:18.993Z</time></trkpt><trkpt lat="42.858186402520346" lon="10.423636783676306"><ele>0.2</ele><time>2026-04-19T12:56:19.993Z</time></trkpt><trkpt lat="42.858102653888714" lon="10.423744816358994"><ele>0.4</ele><time>2026-04-19T12:56:20.993Z</time></trkpt><trkpt lat="42.85802581271673" lon="10.423844740974557"><ele>0.6000000000000001</ele><time>2026-04-19T12:56:21.993Z</time></trkpt><trkpt lat="42.857949179261894" lon="10.423935807912383"><ele>0.8</ele><time>2026-04-19T12:56:22.993Z</time></trkpt><trkpt lat="42.85786883027627" lon="10.42403227526528"><ele>1.0</ele><time>2026-04-19T12:56:23.993Z</time></trkpt><trkpt lat="42.857773619815276" lon="10.42416692231444"><ele>1.0</ele><time>2026-04-19T12:56:24.993Z</time></trkpt><trkpt lat="42.85768065057927" lon="10.42429312929054"><ele>1.0</ele><time>2026-04-19T12:56:25.993Z</time></trkpt><trkpt lat="42.85759205073226" lon="10.424460603716748"><ele>1.0</ele><time>2026-04-19T12:56:26.993Z</time></trkpt><trkpt lat="42.85750254255198" lon="10.424631478009667"><ele>1.0</ele><time>2026-04-19T12:56:27.993Z</time></trkpt><trkpt lat="42.85743122196" lon="10.424774648538936"><ele>1.4</ele><time>2026-04-19T12:56:28.993Z</time></trkpt><trkpt lat="42.85736616633733" lon="10.424908575590749"><ele>1.8</ele><time>2026-04-19T12:56:29.993Z</time></trkpt><trkpt lat="42.857303445425345" lon="10.425030001668143"><ele>2.1999999999999997</ele><time>2026-04-19T12:56:30.993Z</time></trkpt><trkpt lat="42.85723416415647" lon="10.425127729318428"><ele>2.6</ele><time>2026-04-19T12:56:31.993Z</time></trkpt><trkpt lat="42.85714987346607" lon="10.425196185125868"><ele>3.0</ele><time>2026-04-19T12:56:32.993Z</time></trkpt><trkpt lat="42.85703627724258" lon="10.42524203959595"><ele>3.0</ele><time>2026-04-19T12:56:33.993Z</time></trkpt><trkpt lat="42.856909085567125" lon="10.425281613823346"><ele>3.0</ele><time>2026-04-19T12:56:34.993Z</time></trkpt><trkpt lat="42.85678180507292" lon="10.425347112875821"><ele>3.0</ele><time>2026-04-19T12:56:35.993Z</time></trkpt><trkpt lat="42.85664814296837" lon="10.425446891048523"><ele>3.0</ele><time>2026-04-19T12:56:36.993Z</time></trkpt><trkpt lat="42.85652490777713" lon="10.425536212257908"><ele>2.8</ele><time>2026-04-19T12:56:37.993Z</time></trkpt><trkpt lat="42.85641968277387" lon="10.42560484557434"><ele>2.5999999999999996</ele><time>2026-04-19T12:56:38.993Z</time></trkpt><trkpt lat="42.85632308999843" lon="10.425668239379666"><ele>2.4000000000000004</ele><time>2026-04-19T12:56:39.993Z</time></trkpt><trkpt lat="42.856252100000916" lon="10.425743048210542"><ele>2.2</ele><time>2026-04-19T12:56:40.993Z</time></trkpt><trkpt lat="42.856201113322456" lon="10.425840961272613"><ele>2.0</ele><time>2026-04-19T12:56:41.993Z</time></trkpt><trkpt lat="42.85617968429194" lon="10.425930313681294"><ele>2.0</ele><time>2026-04-19T12:56:42.993Z</time></trkpt><trkpt lat="42.85611373785493" lon="10.42594131408883"><ele>2.0</ele><time>2026-04-19T12:56:45.993Z</time></trkpt><trkpt lat="42.85605702951357" lon="10.42584042241472"><ele>2.0</ele><time>2026-04-19T12:56:47.993Z</time></trkpt><trkpt lat="42.85598027416894" lon="10.425754483390174"><ele>2.0</ele><time>2026-04-19T12:56:49.993Z</time></trkpt><trkpt lat="42.855889867893154" lon="10.425674252171971"><ele>2.0</ele><time>2026-04-19T12:56:51.993Z</time></trkpt><trkpt lat="42.8557901584489" lon="10.425556159985893"><ele>2.6</ele><time>2026-04-19T12:56:53.993Z</time></trkpt><trkpt lat="42.85572927019502" lon="10.425505773226975"><ele>3.2</ele><time>2026-04-19T12:56:54.993Z</time></trkpt><trkpt lat="42.855623533490856" lon="10.425418272906782"><ele>3.8</ele><time>2026-04-19T12:56:56.993Z</time></trkpt><trkpt lat="42.8555531563015" lon="10.425358631569509"><ele>4.4</ele><time>2026-04-19T12:56:57.993Z</time></trkpt><trkpt lat="42.855479739709274" lon="10.425293399550013"><ele>5.0</ele><time>2026-04-19T12:56:58.993Z</time></trkpt><trkpt lat="42.855385657971055" lon="10.42522852771103"><ele>5.0</ele><time>2026-04-19T12:56:59.992Z</time></trkpt><trkpt lat="42.855322353682915" lon="10.425145979191573"><ele>5.0</ele><time>2026-04-19T12:57:00.992Z</time></trkpt><trkpt lat="42.85523877540663" lon="10.425063723291302"><ele>5.0</ele><time>2026-04-19T12:57:01.992Z</time></trkpt><trkpt lat="42.85514508173763" lon="10.42499404653959"><ele>5.0</ele><time>2026-04-19T12:57:02.992Z</time></trkpt><trkpt lat="42.85507395028632" lon="10.424903546088434"><ele>5.0</ele><time>2026-04-19T12:57:03.992Z</time></trkpt><trkpt lat="42.854998061781785" lon="10.424805319829668"><ele>5.333333333333334</ele><time>2026-04-19T12:57:04.992Z</time></trkpt><trkpt lat="42.854929883245255" lon="10.424741981092433"><ele>5.666666666666667</ele><time>2026-04-19T12:57:05.992Z</time></trkpt><trkpt lat="42.85486472013391" lon="10.424674154191333"><ele>6.0</ele><time>2026-04-19T12:57:06.992Z</time></trkpt><trkpt lat="42.85478792822628" lon="10.424624327226313"><ele>6.333333333333334</ele><time>2026-04-19T12:57:07.992Z</time></trkpt><trkpt lat="42.85472369382036" lon="10.424566793729495"><ele>6.666666666666667</ele><time>2026-04-19T12:57:08.992Z</time></trkpt><trkpt lat="42.85466625643926" lon="10.424521118865359"><ele>7.0</ele><time>2026-04-19T12:57:09.992Z</time></trkpt><trkpt lat="42.85456854175261" lon="10.424440186055977"><ele>7.0</ele><time>2026-04-19T12:57:11.992Z</time></trkpt><trkpt lat="42.85452736329062" lon="10.42434505869094"><ele>7.0</ele><time>2026-04-19T12:57:12.992Z</time></trkpt><trkpt lat="42.854501044062154" lon="10.424234922878027"><ele>7.0</ele><time>2026-04-19T12:57:13.992Z</time></trkpt><trkpt lat="42.850763505220634" lon="10.418966919216627"><ele>9.0</ele><time>2026-04-19T12:58:14.992Z</time></trkpt><trkpt lat="42.85072082219136" lon="10.418851241707488"><ele>11.0</ele><time>2026-04-19T12:58:16.992Z</time></trkpt><trkpt lat="42.85074529784209" lon="10.418736827292047"><ele>13.0</ele><time>2026-04-19T12:58:18.992Z</time></trkpt><trkpt lat="42.85074327240651" lon="10.418599472416902"><ele>15.0</ele><time>2026-04-19T12:58:20.992Z</time></trkpt><trkpt lat="42.85065201490961" lon="10.418528128099581"><ele>17.0</ele><time>2026-04-19T12:58:22.992Z</time></trkpt><trkpt lat="42.85057871779445" lon="10.41850152157846"><ele>17.166666666666668</ele><time>2026-04-19T12:58:23.992Z</time></trkpt><trkpt lat="42.85050819012718" lon="10.418466818524058"><ele>17.333333333333336</ele><time>2026-04-19T12:58:24.992Z</time></trkpt><trkpt lat="42.85041901754832" lon="10.41843168888076"><ele>17.5</ele><time>2026-04-19T12:58:25.992Z</time></trkpt><trkpt lat="42.85033413814862" lon="10.418394865576188"><ele>17.666666666666668</ele><time>2026-04-19T12:58:26.992Z</time></trkpt><trkpt lat="42.85025880976791" lon="10.41833798660914"><ele>17.833333333333332</ele><time>2026-04-19T12:58:27.992Z</time></trkpt><trkpt lat="42.85019240018977" lon="10.418309794119555"><ele>18.0</ele><time>2026-04-19T12:58:28.992Z</time></trkpt><trkpt lat="42.850132055823224" lon="10.418273297525214"><ele>19.333333333333332</ele><time>2026-04-19T12:58:29.992Z</time></trkpt><trkpt lat="42.85006625238831" lon="10.41822358518525"><ele>20.666666666666664</ele><time>2026-04-19T12:58:30.992Z</time></trkpt><trkpt lat="42.84999665111936" lon="10.418165715309918"><ele>22.0</ele><time>2026-04-19T12:58:31.992Z</time></trkpt><trkpt lat="42.8499333181328" lon="10.418092564033257"><ele>23.333333333333332</ele><time>2026-04-19T12:58:32.992Z</time></trkpt><trkpt lat="42.84987387702104" lon="10.418015423214102"><ele>24.666666666666664</ele><time>2026-04-19T12:58:33.992Z</time></trkpt><trkpt lat="42.8498016726227" lon="10.417927798458834"><ele>26.0</ele><time>2026-04-19T12:58:34.992Z</time></trkpt><trkpt lat="42.8497147515705" lon="10.417872814759262"><ele>26.333333333333332</ele><time>2026-04-19T12:58:35.992Z</time></trkpt><trkpt lat="42.84963572229075" lon="10.41784301643965"><ele>26.666666666666664</ele><time>2026-04-19T12:58:36.992Z</time></trkpt><trkpt lat="42.84955759850808" lon="10.417794364681106"><ele>27.0</ele><time>2026-04-19T12:58:37.992Z</time></trkpt><trkpt lat="42.84948902406215" lon="10.417730324546866"><ele>27.333333333333336</ele><time>2026-04-19T12:58:38.992Z</time></trkpt><trkpt lat="42.849420910242685" lon="10.417691752905903"><ele>27.666666666666668</ele><time>2026-04-19T12:58:39.992Z</time></trkpt><trkpt lat="42.84934188202979" lon="10.417645566374222"><ele>28.0</ele><time>2026-04-19T12:58:40.992Z</time></trkpt><trkpt lat="42.849279698021476" lon="10.417611157916626"><ele>28.500000000000004</ele><time>2026-04-19T12:58:41.992Z</time></trkpt><trkpt lat="42.84921377385881" lon="10.417580331649567"><ele>29.0</ele><time>2026-04-19T12:58:42.992Z</time></trkpt><trkpt lat="42.849141218127606" lon="10.417542069573102"><ele>29.5</ele><time>2026-04-19T12:58:43.992Z</time></trkpt><trkpt lat="42.849042672623725" lon="10.417490282959037"><ele>30.0</ele><time>2026-04-19T12:58:45.992Z</time></trkpt><trkpt lat="42.848927253285616" lon="10.417451875196157"><ele>30.500000000000004</ele><time>2026-04-19T12:58:47.992Z</time></trkpt><trkpt lat="42.84885978899602" lon="10.417416576532432"><ele>31.0</ele><time>2026-04-19T12:58:49.992Z</time></trkpt><trkpt lat="42.84874486661509" lon="10.41738047597627"><ele>31.000000000000004</ele><time>2026-04-19T12:58:51.991Z</time></trkpt><trkpt lat="42.84868034764967" lon="10.417370374396661"><ele>31.0</ele><time>2026-04-19T12:58:52.991Z</time></trkpt><trkpt lat="42.84860022131413" lon="10.417359372031374"><ele>31.0</ele><time>2026-04-19T12:58:53.991Z</time></trkpt><trkpt lat="42.84853076855173" lon="10.417351552318024"><ele>31.0</ele><time>2026-04-19T12:58:54.991Z</time></trkpt><trkpt lat="42.848421759743566" lon="10.417356306496272"><ele>31.000000000000004</ele><time>2026-04-19T12:58:56.991Z</time></trkpt><trkpt lat="42.84833201528072" lon="10.417343582396624"><ele>31.0</ele><time>2026-04-19T12:58:58.991Z</time></trkpt><trkpt lat="42.84826584659096" lon="10.417307176694338"><ele>31.500000000000004</ele><time>2026-04-19T12:58:59.991Z</time></trkpt><trkpt lat="42.848190641319654" lon="10.417283879976365"><ele>32.0</ele><time>2026-04-19T12:59:00.991Z</time></trkpt><trkpt lat="42.84812431148635" lon="10.417254624068384"><ele>32.5</ele><time>2026-04-19T12:59:01.991Z</time></trkpt><trkpt lat="42.848048024926754" lon="10.417210014720482"><ele>33.0</ele><time>2026-04-19T12:59:02.991Z</time></trkpt><trkpt lat="42.84798346304913" lon="10.417168254352703"><ele>33.5</ele><time>2026-04-19T12:59:03.991Z</time></trkpt><trkpt lat="42.84786708526772" lon="10.417093623598666"><ele>34.0</ele><time>2026-04-19T12:59:05.991Z</time></trkpt><trkpt lat="42.84780515367303" lon="10.417058650339294"><ele>33.5</ele><time>2026-04-19T12:59:06.991Z</time></trkpt><trkpt lat="42.84774778264663" lon="10.416990517016695"><ele>33.0</ele><time>2026-04-19T12:59:07.991Z</time></trkpt><trkpt lat="42.84766616949724" lon="10.416970657668047"><ele>32.5</ele><time>2026-04-19T12:59:08.991Z</time></trkpt><trkpt lat="42.84759065411195" lon="10.416970657683661"><ele>32.0</ele><time>2026-04-19T12:59:09.991Z</time></trkpt><trkpt lat="42.847493035118745" lon="10.416981678794022"><ele>31.500000000000004</ele><time>2026-04-19T12:59:10.991Z</time></trkpt><trkpt lat="42.84742394185877" lon="10.416988789074228"><ele>31.0</ele><time>2026-04-19T12:59:11.991Z</time></trkpt><trkpt lat="42.84734328969942" lon="10.417010178349724"><ele>31.0</ele><time>2026-04-19T12:59:12.991Z</time></trkpt><trkpt lat="42.847266036907136" lon="10.41699318315407"><ele>31.0</ele><time>2026-04-19T12:59:13.991Z</time></trkpt><trkpt lat="42.84499890940558" lon="10.416872441326905"><ele>36.66666666666667</ele><time>2026-04-19T13:00:14.991Z</time></trkpt><trkpt lat="42.84491189735886" lon="10.41681688862866"><ele>42.333333333333336</ele><time>2026-04-19T13:00:17.991Z</time></trkpt><trkpt lat="42.844834986755046" lon="10.41675292618066"><ele>48.0</ele><time>2026-04-19T13:00:19.991Z</time></trkpt><trkpt lat="42.84476485156957" lon="10.416683538534704"><ele>53.66666666666667</ele><time>2026-04-19T13:00:21.991Z</time></trkpt><trkpt lat="42.844716198644676" lon="10.416602151115775"><ele>59.333333333333336</ele><time>2026-04-19T13:00:23.991Z</time></trkpt><trkpt lat="42.844661660562544" lon="10.416532994915944"><ele>65.0</ele><time>2026-04-19T13:00:25.991Z</time></trkpt><trkpt lat="42.844614742894116" lon="10.416446503668658"><ele>65.0</ele><time>2026-04-19T13:00:27.991Z</time></trkpt><trkpt lat="42.84457476251153" lon="10.416372463551804"><ele>65.0</ele><time>2026-04-19T13:00:56.99Z</time></trkpt><trkpt lat="42.84452380860635" lon="10.416315311191022"><ele>65.0</ele><time>2026-04-19T13:00:58.99Z</time></trkpt><trkpt lat="42.84449538785356" lon="10.416237300178958"><ele>65.0</ele><time>2026-04-19T13:01:01.99Z</time></trkpt><trkpt lat="42.84447384010448" lon="10.41614172187836"><ele>65.0</ele><time>2026-04-19T13:01:04.99Z</time></trkpt><trkpt lat="42.84442015525732" lon="10.416092413319396"><ele>65.0</ele><time>2026-04-19T13:01:13.99Z</time></trkpt><trkpt lat="42.84345533864131" lon="10.414919396919945"><ele>72.33333333333334</ele><time>2026-04-19T13:02:14.99Z</time></trkpt><trkpt lat="42.84337988951383" lon="10.41495485485349"><ele>79.66666666666667</ele><time>2026-04-19T13:02:16.99Z</time></trkpt><trkpt lat="42.84330941053311" lon="10.414943780151857"><ele>87.0</ele><time>2026-04-19T13:02:18.99Z</time></trkpt><trkpt lat="42.84324442280959" lon="10.41500214840062"><ele>94.33333333333334</ele><time>2026-04-19T13:02:20.99Z</time></trkpt><trkpt lat="42.84314717900963" lon="10.415062716593361"><ele>101.66666666666667</ele><time>2026-04-19T13:02:22.99Z</time></trkpt><trkpt lat="42.84305785308541" lon="10.41506708788435"><ele>109.0</ele><time>2026-04-19T13:02:24.99Z</time></trkpt><trkpt lat="42.84299608917193" lon="10.415001421314615"><ele>109.00000000000001</ele><time>2026-04-19T13:02:26.99Z</time></trkpt><trkpt lat="42.842920542021226" lon="10.414959416135256"><ele>109.0</ele><time>2026-04-19T13:02:28.99Z</time></trkpt><trkpt lat="42.84281728354498" lon="10.414949564239137"><ele>109.0</ele><time>2026-04-19T13:02:30.989Z</time></trkpt><trkpt lat="42.842739731452625" lon="10.414932507012434"><ele>109.0</ele><time>2026-04-19T13:02:32.989Z</time></trkpt><trkpt lat="42.84264052917067" lon="10.414964061299381"><ele>109.00000000000001</ele><time>2026-04-19T13:02:34.989Z</time></trkpt><trkpt lat="42.84258062431901" lon="10.414998822089972"><ele>109.0</ele><time>2026-04-19T13:02:42.989Z</time></trkpt><trkpt lat="42.84252311111563" lon="10.415057021751212"><ele>112.4</ele><time>2026-04-19T13:02:45.989Z</time></trkpt><trkpt lat="42.84244117397228" lon="10.415129221056858"><ele>115.80000000000001</ele><time>2026-04-19T13:02:47.989Z</time></trkpt><trkpt lat="42.84235829072509" lon="10.415248265327204"><ele>119.19999999999999</ele><time>2026-04-19T13:02:49.989Z</time></trkpt><trkpt lat="42.84229077622778" lon="10.415276508536689"><ele>122.6</ele><time>2026-04-19T13:02:50.989Z</time></trkpt><trkpt lat="42.84219034047251" lon="10.415288991792782"><ele>126.0</ele><time>2026-04-19T13:02:52.989Z</time></trkpt><trkpt lat="42.842111899766266" lon="10.415302791695497"><ele>126.0</ele><time>2026-04-19T13:02:54.989Z</time></trkpt><trkpt lat="42.84202251332145" lon="10.41529045347531"><ele>126.0</ele><time>2026-04-19T13:02:56.989Z</time></trkpt><trkpt lat="42.84191381153324" lon="10.415269672047467"><ele>126.0</ele><time>2026-04-19T13:02:58.989Z</time></trkpt><trkpt lat="42.84182578516975" lon="10.415299630485885"><ele>126.0</ele><time>2026-04-19T13:03:00.989Z</time></trkpt><trkpt lat="42.84174136405566" lon="10.415305861140085"><ele>126.0</ele><time>2026-04-19T13:03:02.989Z</time></trkpt><trkpt lat="42.841641745581704" lon="10.415337667021504"><ele>129.5</ele><time>2026-04-19T13:03:04.989Z</time></trkpt><trkpt lat="42.8415676911499" lon="10.415358717815993"><ele>133.0</ele><time>2026-04-19T13:03:06.989Z</time></trkpt><trkpt lat="42.84150214015255" lon="10.415390781879854"><ele>136.5</ele><time>2026-04-19T13:03:08.989Z</time></trkpt><trkpt lat="42.84151434920439" lon="10.415301344286918"><ele>140.0</ele><time>2026-04-19T13:03:13.989Z</time></trkpt><trkpt lat="42.83915538599051" lon="10.414164562964013"><ele>148.4</ele><time>2026-04-19T13:04:15.001Z</time></trkpt><trkpt lat="42.83909029696958" lon="10.414168203468336"><ele>156.8</ele><time>2026-04-19T13:04:16Z</time></trkpt><trkpt lat="42.83896724452097" lon="10.414187108864605"><ele>165.2</ele><time>2026-04-19T13:04:18.001Z</time></trkpt><trkpt lat="42.838898591279786" lon="10.414206411812215"><ele>173.6</ele><time>2026-04-19T13:04:19.001Z</time></trkpt><trkpt lat="42.83883285524829" lon="10.414230184634048"><ele>182.0</ele><time>2026-04-19T13:04:20.001Z</time></trkpt><trkpt lat="42.838711880430836" lon="10.414282559889713"><ele>182.0</ele><time>2026-04-19T13:04:22.001Z</time></trkpt><trkpt lat="42.8386258598589" lon="10.414326023182857"><ele>182.0</ele><time>2026-04-19T13:04:23.001Z</time></trkpt><trkpt lat="42.83856319718159" lon="10.414371508023626"><ele>182.0</ele><time>2026-04-19T13:04:24.001Z</time></trkpt><trkpt lat="42.83849742250783" lon="10.414401573422506"><ele>182.0</ele><time>2026-04-19T13:04:25.001Z</time></trkpt><trkpt lat="42.838393738782415" lon="10.41440285405771"><ele>182.0</ele><time>2026-04-19T13:04:27.001Z</time></trkpt><trkpt lat="42.83832185951716" lon="10.414369371065034"><ele>182.0</ele><time>2026-04-19T13:04:28.001Z</time></trkpt><trkpt lat="42.83825496752381" lon="10.414316620632226"><ele>185.33333333333331</ele><time>2026-04-19T13:04:29.001Z</time></trkpt><trkpt lat="42.83817209561092" lon="10.41425903701305"><ele>188.66666666666666</ele><time>2026-04-19T13:04:30.001Z</time></trkpt><trkpt lat="42.838099556859305" lon="10.414200661626275"><ele>192.0</ele><time>2026-04-19T13:04:31.001Z</time></trkpt><trkpt lat="42.83804134719252" lon="10.414129456418515"><ele>195.33333333333331</ele><time>2026-04-19T13:04:33.001Z</time></trkpt><trkpt lat="42.837976453986215" lon="10.414069906128363"><ele>198.66666666666666</ele><time>2026-04-19T13:04:36.001Z</time></trkpt><trkpt lat="42.83791316054841" lon="10.413946108262074"><ele>202.0</ele><time>2026-04-19T13:04:39.001Z</time></trkpt><trkpt lat="42.83783722163587" lon="10.413933749819325"><ele>202.0</ele><time>2026-04-19T13:04:40.001Z</time></trkpt><trkpt lat="42.83770933013549" lon="10.413923976073173"><ele>202.0</ele><time>2026-04-19T13:04:42.001Z</time></trkpt><trkpt lat="42.837636186892695" lon="10.413922025987667"><ele>202.0</ele><time>2026-04-19T13:04:43.001Z</time></trkpt><trkpt lat="42.83754721992529" lon="10.413926362132246"><ele>202.0</ele><time>2026-04-19T13:04:44.001Z</time></trkpt><trkpt lat="42.837451966903075" lon="10.413909858584907"><ele>202.0</ele><time>2026-04-19T13:04:45.001Z</time></trkpt><trkpt lat="42.83734819600096" lon="10.413873657828924"><ele>208.25</ele><time>2026-04-19T13:04:46.001Z</time></trkpt><trkpt lat="42.83724640080381" lon="10.413819694813844"><ele>214.5</ele><time>2026-04-19T13:04:47.001Z</time></trkpt><trkpt lat="42.83714170264691" lon="10.413754539516102"><ele>220.75</ele><time>2026-04-19T13:04:48.001Z</time></trkpt><trkpt lat="42.83702263840524" lon="10.413703158575522"><ele>227.0</ele><time>2026-04-19T13:04:49.001Z</time></trkpt><trkpt lat="42.836908401309806" lon="10.413656308008935"><ele>226.8</ele><time>2026-04-19T13:04:50.001Z</time></trkpt><trkpt lat="42.836795913992525" lon="10.413615524006142"><ele>226.6</ele><time>2026-04-19T13:04:51.001Z</time></trkpt><trkpt lat="42.83668517202425" lon="10.413599011696169"><ele>226.40000000000003</ele><time>2026-04-19T13:04:52.001Z</time></trkpt><trkpt lat="42.83657419208689" lon="10.413594533491361"><ele>226.20000000000002</ele><time>2026-04-19T13:04:53.001Z</time></trkpt><trkpt lat="42.83648178723762" lon="10.413677509329956"><ele>226.0</ele><time>2026-04-19T13:04:54.001Z</time></trkpt><trkpt lat="42.83639995479578" lon="10.413777747510395"><ele>219.5</ele><time>2026-04-19T13:04:55.001Z</time></trkpt><trkpt lat="42.836320391850705" lon="10.413900275990295"><ele>213.0</ele><time>2026-04-19T13:04:56.001Z</time></trkpt><trkpt lat="42.836247840283676" lon="10.414045158266312"><ele>206.5</ele><time>2026-04-19T13:04:57.001Z</time></trkpt><trkpt lat="42.836151313415634" lon="10.414173721096615"><ele>200.0</ele><time>2026-04-19T13:04:58.001Z</time></trkpt><trkpt lat="42.83603500509483" lon="10.41427947076034"><ele>204.0</ele><time>2026-04-19T13:04:59.001Z</time></trkpt><trkpt lat="42.83590515010128" lon="10.414307431832627"><ele>208.0</ele><time>2026-04-19T13:05:00.001Z</time></trkpt><trkpt lat="42.835772342932614" lon="10.41433276350794"><ele>212.0</ele><time>2026-04-19T13:05:01.001Z</time></trkpt><trkpt lat="42.8356421469849" lon="10.41438152052095"><ele>216.0</ele><time>2026-04-19T13:05:02.001Z</time></trkpt><trkpt lat="42.8354875805082" lon="10.41438848365998"><ele>216.0</ele><time>2026-04-19T13:05:03.001Z</time></trkpt><trkpt lat="42.83534078983998" lon="10.414380542589194"><ele>216.0</ele><time>2026-04-19T13:05:04.001Z</time></trkpt><trkpt lat="42.83520139145698" lon="10.414329801434786"><ele>216.0</ele><time>2026-04-19T13:05:05.001Z</time></trkpt><trkpt lat="42.83507416138624" lon="10.414279430743838"><ele>216.0</ele><time>2026-04-19T13:05:06.001Z</time></trkpt><trkpt lat="42.834935769631755" lon="10.414207504227456"><ele>217.25</ele><time>2026-04-19T13:05:07.001Z</time></trkpt><trkpt lat="42.83479915165244" lon="10.414156489176685"><ele>218.5</ele><time>2026-04-19T13:05:08.001Z</time></trkpt><trkpt lat="42.83468227910927" lon="10.41407317363601"><ele>219.75</ele><time>2026-04-19T13:05:09.001Z</time></trkpt><trkpt lat="42.834564236003644" lon="10.414044666248568"><ele>221.0</ele><time>2026-04-19T13:05:10.001Z</time></trkpt><trkpt lat="42.8344770507723" lon="10.413949174646092"><ele>221.0</ele><time>2026-04-19T13:05:11.001Z</time></trkpt><trkpt lat="42.834397372347055" lon="10.413873771221233"><ele>221.0</ele><time>2026-04-19T13:05:12.001Z</time></trkpt><trkpt lat="42.83433342185882" lon="10.413797297580892"><ele>221.0</ele><time>2026-04-19T13:05:13.001Z</time></trkpt><trkpt lat="42.83426254407119" lon="10.413772000000101"><ele>221.0</ele><time>2026-04-19T13:05:14.001Z</time></trkpt><trkpt lat="42.82870580402381" lon="10.417650517497128"><ele>222.25</ele><time>2026-04-19T13:06:15.001Z</time></trkpt><trkpt lat="42.82861077576768" lon="10.417546711157955"><ele>223.5</ele><time>2026-04-19T13:06:16.001Z</time></trkpt><trkpt lat="42.82854051328444" lon="10.417399626413468"><ele>224.75</ele><time>2026-04-19T13:06:17.001Z</time></trkpt><trkpt lat="42.828452335424" lon="10.417243505280567"><ele>226.0</ele><time>2026-04-19T13:06:18.001Z</time></trkpt><trkpt lat="42.82836375397573" lon="10.417087923739164"><ele>228.5</ele><time>2026-04-19T13:06:19.001Z</time></trkpt><trkpt lat="42.828293760920886" lon="10.416927164022221"><ele>231.0</ele><time>2026-04-19T13:06:20.001Z</time></trkpt><trkpt lat="42.82822877309058" lon="10.416783233451978"><ele>233.5</ele><time>2026-04-19T13:06:21.001Z</time></trkpt><trkpt lat="42.82815111867518" lon="10.416628315523504"><ele>236.0</ele><time>2026-04-19T13:06:22.001Z</time></trkpt><trkpt lat="42.82810082923781" lon="10.416481672496008"><ele>236.0</ele><time>2026-04-19T13:06:23.001Z</time></trkpt><trkpt lat="42.82803591695739" lon="10.416335057053185"><ele>236.0</ele><time>2026-04-19T13:06:24.001Z</time></trkpt><trkpt lat="42.82797361544707" lon="10.416180206674722"><ele>236.0</ele><time>2026-04-19T13:06:25.001Z</time></trkpt><trkpt lat="42.82791009649904" lon="10.416022500061624"><ele>236.0</ele><time>2026-04-19T13:06:26.001Z</time></trkpt><trkpt lat="42.82785245162746" lon="10.415866224394644"><ele>236.0</ele><time>2026-04-19T13:06:27.001Z</time></trkpt><trkpt lat="42.82778930001924" lon="10.41570480689101"><ele>236.0</ele><time>2026-04-19T13:06:28.001Z</time></trkpt><trkpt lat="42.82773050583086" lon="10.415556514533645"><ele>236.0</ele><time>2026-04-19T13:06:29.001Z</time></trkpt><trkpt lat="42.82767755155778" lon="10.415421524024845"><ele>236.0</ele><time>2026-04-19T13:06:30.001Z</time></trkpt><trkpt lat="42.827630666826956" lon="10.41529722438092"><ele>236.0</ele><time>2026-04-19T13:06:31.001Z</time></trkpt><trkpt lat="42.82758235902209" lon="10.415190069368936"><ele>236.0</ele><time>2026-04-19T13:06:32.001Z</time></trkpt><trkpt lat="42.82755771467415" lon="10.41509513191082"><ele>236.0</ele><time>2026-04-19T13:06:33.001Z</time></trkpt><trkpt lat="42.82733767078201" lon="10.415140840337113"><ele>236.0</ele><time>2026-04-19T13:06:35.001Z</time></trkpt><trkpt lat="42.827230173454716" lon="10.415184615459513"><ele>236.0</ele><time>2026-04-19T13:06:36.001Z</time></trkpt><trkpt lat="42.827100881964775" lon="10.415226573013973"><ele>236.0</ele><time>2026-04-19T13:06:37.001Z</time></trkpt><trkpt lat="42.826973322951034" lon="10.415227445470826"><ele>236.0</ele><time>2026-04-19T13:06:38.001Z</time></trkpt><trkpt lat="42.82683980263477" lon="10.41519593572667"><ele>236.0</ele><time>2026-04-19T13:06:39.001Z</time></trkpt><trkpt lat="42.82671691149739" lon="10.415129559385042"><ele>232.75</ele><time>2026-04-19T13:06:40.001Z</time></trkpt><trkpt lat="42.82660931919086" lon="10.415050421469592"><ele>229.5</ele><time>2026-04-19T13:06:41.001Z</time></trkpt><trkpt lat="42.82652053487323" lon="10.414969485143741"><ele>226.25</ele><time>2026-04-19T13:06:42.001Z</time></trkpt><trkpt lat="42.826435641493" lon="10.41487058817958"><ele>223.0</ele><time>2026-04-19T13:06:43.001Z</time></trkpt><trkpt lat="42.826339872519924" lon="10.414793775057356"><ele>225.0</ele><time>2026-04-19T13:06:44.001Z</time></trkpt><trkpt lat="42.8263391643305" lon="10.414479412446278"><ele>227.0</ele><time>2026-04-19T13:06:45.001Z</time></trkpt><trkpt lat="42.82628435086238" lon="10.414302430115768"><ele>229.0</ele><time>2026-04-19T13:06:46.001Z</time></trkpt><trkpt lat="42.82623246007298" lon="10.414144512246175"><ele>229.0</ele><time>2026-04-19T13:06:47.001Z</time></trkpt><trkpt lat="42.82619406248046" lon="10.41399293147562"><ele>229.0</ele><time>2026-04-19T13:06:48.001Z</time></trkpt><trkpt lat="42.826175611667715" lon="10.413838439333489"><ele>229.0</ele><time>2026-04-19T13:06:49.001Z</time></trkpt><trkpt lat="42.82616891921019" lon="10.413682131349518"><ele>229.0</ele><time>2026-04-19T13:06:50.001Z</time></trkpt><trkpt lat="42.826172062165796" lon="10.41352242418756"><ele>228.75</ele><time>2026-04-19T13:06:51.001Z</time></trkpt><trkpt lat="42.82616571602144" lon="10.413368087055193"><ele>228.5</ele><time>2026-04-19T13:06:52.001Z</time></trkpt><trkpt lat="42.82619154262927" lon="10.413199482423755"><ele>228.25</ele><time>2026-04-19T13:06:53.001Z</time></trkpt><trkpt lat="42.826199760284965" lon="10.413020092875866"><ele>228.0</ele><time>2026-04-19T13:06:54.001Z</time></trkpt><trkpt lat="42.82623494728638" lon="10.41283815580523"><ele>227.5</ele><time>2026-04-19T13:06:55.001Z</time></trkpt><trkpt lat="42.82626783259776" lon="10.41267197615681"><ele>227.0</ele><time>2026-04-19T13:06:56.001Z</time></trkpt><trkpt lat="42.82629861512494" lon="10.412516256142077"><ele>226.5</ele><time>2026-04-19T13:06:57.001Z</time></trkpt><trkpt lat="42.82631183938453" lon="10.412347971813105"><ele>226.0</ele><time>2026-04-19T13:06:58.001Z</time></trkpt><trkpt lat="42.82629951472596" lon="10.41218428506732"><ele>226.0</ele><time>2026-04-19T13:06:59.001Z</time></trkpt><trkpt lat="42.826247127019165" lon="10.412044769664579"><ele>226.0</ele><time>2026-04-19T13:07:00.001Z</time></trkpt><trkpt lat="42.82617737680668" lon="10.411889926760134"><ele>226.0</ele><time>2026-04-19T13:07:01.001Z</time></trkpt><trkpt lat="42.826071095979884" lon="10.411732549125874"><ele>226.0</ele><time>2026-04-19T13:07:02.001Z</time></trkpt><trkpt lat="42.82596518870292" lon="10.411557680799257"><ele>221.25</ele><time>2026-04-19T13:07:03.001Z</time></trkpt><trkpt lat="42.825871443674956" lon="10.411387898592755"><ele>216.5</ele><time>2026-04-19T13:07:04.001Z</time></trkpt><trkpt lat="42.82578483402366" lon="10.411227887718452"><ele>211.75</ele><time>2026-04-19T13:07:05.001Z</time></trkpt><trkpt lat="42.82569959661781" lon="10.411089276018158"><ele>207.0</ele><time>2026-04-19T13:07:06.001Z</time></trkpt><trkpt lat="42.825617381904244" lon="10.410944320297943"><ele>207.0</ele><time>2026-04-19T13:07:07.001Z</time></trkpt><trkpt lat="42.82553026692311" lon="10.410794461600075"><ele>207.0</ele><time>2026-04-19T13:07:08.001Z</time></trkpt><trkpt lat="42.82543918141347" lon="10.410657349225946"><ele>207.0</ele><time>2026-04-19T13:07:09.001Z</time></trkpt><trkpt lat="42.8253304519546" lon="10.410532232448785"><ele>207.0</ele><time>2026-04-19T13:07:10.001Z</time></trkpt><trkpt lat="42.8252221305423" lon="10.41042118769385"><ele>208.25</ele><time>2026-04-19T13:07:11.001Z</time></trkpt><trkpt lat="42.82511641130641" lon="10.410298028878504"><ele>209.5</ele><time>2026-04-19T13:07:12.001Z</time></trkpt><trkpt lat="42.82502208628005" lon="10.410184255494622"><ele>210.75</ele><time>2026-04-19T13:07:13.001Z</time></trkpt><trkpt lat="42.82495304672694" lon="10.410061437849759"><ele>212.0</ele><time>2026-04-19T13:07:14.001Z</time></trkpt><trkpt lat="42.821015314159474" lon="10.405448172142277"><ele>202.66666666666669</ele><time>2026-04-19T13:08:15Z</time></trkpt><trkpt lat="42.820924754131404" lon="10.405270449148826"><ele>193.33333333333334</ele><time>2026-04-19T13:08:16Z</time></trkpt><trkpt lat="42.82090211453139" lon="10.405059416884034"><ele>184.0</ele><time>2026-04-19T13:08:17Z</time></trkpt><trkpt lat="42.82085957078105" lon="10.404854141409851"><ele>184.0</ele><time>2026-04-19T13:08:18Z</time></trkpt><trkpt lat="42.82083758130206" lon="10.404666636367379"><ele>184.0</ele><time>2026-04-19T13:08:19Z</time></trkpt><trkpt lat="42.82082925089917" lon="10.404501970166386"><ele>184.0</ele><time>2026-04-19T13:08:20.001Z</time></trkpt><trkpt lat="42.82084185572603" lon="10.40435469980901"><ele>184.0</ele><time>2026-04-19T13:08:21.001Z</time></trkpt><trkpt lat="42.820881413113796" lon="10.404233175668784"><ele>183.6</ele><time>2026-04-19T13:08:22.001Z</time></trkpt><trkpt lat="42.820955614563196" lon="10.404136631839105"><ele>183.2</ele><time>2026-04-19T13:08:23.001Z</time></trkpt><trkpt lat="42.82104751977247" lon="10.40408133619406"><ele>182.79999999999998</ele><time>2026-04-19T13:08:24.001Z</time></trkpt><trkpt lat="42.82111313737761" lon="10.404005636228487"><ele>182.39999999999998</ele><time>2026-04-19T13:08:25.001Z</time></trkpt><trkpt lat="42.8211874984476" lon="10.403911252247871"><ele>182.0</ele><time>2026-04-19T13:08:27.001Z</time></trkpt><trkpt lat="42.82101411259292" lon="10.403596443636998"><ele>184.5</ele><time>2026-04-19T13:08:28Z</time></trkpt><trkpt lat="42.82094357707593" lon="10.403463630608492"><ele>187.0</ele><time>2026-04-19T13:08:29Z</time></trkpt><trkpt lat="42.820868120375536" lon="10.403336202658757"><ele>189.5</ele><time>2026-04-19T13:08:30.001Z</time></trkpt><trkpt lat="42.820772031836256" lon="10.403252315065398"><ele>192.0</ele><time>2026-04-19T13:08:31.001Z</time></trkpt><trkpt lat="42.82065523944949" lon="10.40319942790017"><ele>192.0</ele><time>2026-04-19T13:08:32.001Z</time></trkpt><trkpt lat="42.82051963718379" lon="10.40314584603098"><ele>192.0</ele><time>2026-04-19T13:08:33.001Z</time></trkpt><trkpt lat="42.82036979129723" lon="10.40310216107226"><ele>192.0</ele><time>2026-04-19T13:08:34.001Z</time></trkpt><trkpt lat="42.82021708801954" lon="10.4030852611749"><ele>192.0</ele><time>2026-04-19T13:08:35.001Z</time></trkpt><trkpt lat="42.820044218893486" lon="10.403100651205479"><ele>187.0</ele><time>2026-04-19T13:08:36.001Z</time></trkpt><trkpt lat="42.819865506049965" lon="10.40310879874371"><ele>182.0</ele><time>2026-04-19T13:08:37.001Z</time></trkpt><trkpt lat="42.81969056894663" lon="10.40304975385305"><ele>177.0</ele><time>2026-04-19T13:08:38.001Z</time></trkpt><trkpt lat="42.81952436188559" lon="10.403010520088603"><ele>180.75</ele><time>2026-04-19T13:08:39.001Z</time></trkpt><trkpt lat="42.81936890382457" lon="10.4029738243471"><ele>184.5</ele><time>2026-04-19T13:08:40.001Z</time></trkpt><trkpt lat="42.81923234562193" lon="10.402941589904529"><ele>188.25</ele><time>2026-04-19T13:08:41.001Z</time></trkpt><trkpt lat="42.819093873585786" lon="10.40292896852874"><ele>192.0</ele><time>2026-04-19T13:08:42.001Z</time></trkpt><trkpt lat="42.818980974791664" lon="10.402852530058272"><ele>192.0</ele><time>2026-04-19T13:08:43.001Z</time></trkpt><trkpt lat="42.81887862021771" lon="10.40276671082029"><ele>192.0</ele><time>2026-04-19T13:08:44.001Z</time></trkpt><trkpt lat="42.818824275650115" lon="10.402609435013161"><ele>192.0</ele><time>2026-04-19T13:08:45.001Z</time></trkpt><trkpt lat="42.81874282235312" lon="10.402503540695504"><ele>192.0</ele><time>2026-04-19T13:08:46.001Z</time></trkpt><trkpt lat="42.8186720765598" lon="10.402372987901803"><ele>192.0</ele><time>2026-04-19T13:08:47.001Z</time></trkpt><trkpt lat="42.818621887536445" lon="10.402231345682209"><ele>192.0</ele><time>2026-04-19T13:08:48.001Z</time></trkpt><trkpt lat="42.81856811765359" lon="10.402069392274624"><ele>192.0</ele><time>2026-04-19T13:08:49.001Z</time></trkpt><trkpt lat="42.818512192516415" lon="10.401923388493922"><ele>192.0</ele><time>2026-04-19T13:08:50.001Z</time></trkpt><trkpt lat="42.81844303445255" lon="10.401798151152901"><ele>191.0</ele><time>2026-04-19T13:08:51.001Z</time></trkpt><trkpt lat="42.818363762819196" lon="10.401698318421946"><ele>190.0</ele><time>2026-04-19T13:08:52.001Z</time></trkpt><trkpt lat="42.8182631435806" lon="10.401649903615976"><ele>189.0</ele><time>2026-04-19T13:08:53.001Z</time></trkpt><trkpt lat="42.81817551573518" lon="10.401682235040619"><ele>188.0</ele><time>2026-04-19T13:08:54.001Z</time></trkpt><trkpt lat="42.818100813043245" lon="10.401726109077792"><ele>187.0</ele><time>2026-04-19T13:08:55.001Z</time></trkpt><trkpt lat="42.818019523524356" lon="10.40182011288042"><ele>187.0</ele><time>2026-04-19T13:08:56.001Z</time></trkpt><trkpt lat="42.81792715104699" lon="10.401940523886209"><ele>187.0</ele><time>2026-04-19T13:08:57.001Z</time></trkpt><trkpt lat="42.81783370777946" lon="10.402063073966318"><ele>187.0</ele><time>2026-04-19T13:08:58.001Z</time></trkpt><trkpt lat="42.817720462800615" lon="10.40217752686015"><ele>187.0</ele><time>2026-04-19T13:08:59.001Z</time></trkpt><trkpt lat="42.81760195375392" lon="10.402279606718842"><ele>182.5</ele><time>2026-04-19T13:09:00.001Z</time></trkpt><trkpt lat="42.81748452475567" lon="10.402363967761612"><ele>178.0</ele><time>2026-04-19T13:09:01.001Z</time></trkpt><trkpt lat="42.81737371251144" lon="10.402438206841007"><ele>173.5</ele><time>2026-04-19T13:09:02.001Z</time></trkpt><trkpt lat="42.81726353189822" lon="10.402487278499201"><ele>169.0</ele><time>2026-04-19T13:09:03.001Z</time></trkpt><trkpt lat="42.81716738122345" lon="10.40255129436029"><ele>169.0</ele><time>2026-04-19T13:09:04.001Z</time></trkpt><trkpt lat="42.817090873101186" lon="10.40259680996866"><ele>169.0</ele><time>2026-04-19T13:09:05.001Z</time></trkpt><trkpt lat="42.8169867440168" lon="10.402612362120607"><ele>169.0</ele><time>2026-04-19T13:09:07.001Z</time></trkpt><trkpt lat="42.81691093382347" lon="10.402626060127465"><ele>169.0</ele><time>2026-04-19T13:09:09.001Z</time></trkpt><trkpt lat="42.81684815005229" lon="10.40254326522662"><ele>169.0</ele><time>2026-04-19T13:09:13.001Z</time></trkpt><trkpt lat="42.816780905085714" lon="10.402478500893029"><ele>169.0</ele><time>2026-04-19T13:09:14.001Z</time></trkpt><trkpt lat="42.81272316965516" lon="10.401422032344659"><ele>166.6</ele><time>2026-04-19T13:10:15Z</time></trkpt><trkpt lat="42.81273890478714" lon="10.401281319525475"><ele>164.2</ele><time>2026-04-19T13:10:16Z</time></trkpt><trkpt lat="42.81269510596089" lon="10.401155649536346"><ele>161.79999999999998</ele><time>2026-04-19T13:10:17Z</time></trkpt><trkpt lat="42.81260169453804" lon="10.401079108973786"><ele>159.39999999999998</ele><time>2026-04-19T13:10:18Z</time></trkpt><trkpt lat="42.81250634777162" lon="10.401032208328562"><ele>157.0</ele><time>2026-04-19T13:10:19Z</time></trkpt><trkpt lat="42.812402830435005" lon="10.401029788171742"><ele>154.25</ele><time>2026-04-19T13:10:20Z</time></trkpt><trkpt lat="42.81229632581504" lon="10.401046737999174"><ele>151.5</ele><time>2026-04-19T13:10:21Z</time></trkpt><trkpt lat="42.812186150220526" lon="10.401094891145302"><ele>148.75</ele><time>2026-04-19T13:10:22Z</time></trkpt><trkpt lat="42.81207160859211" lon="10.401174309305516"><ele>146.0</ele><time>2026-04-19T13:10:23Z</time></trkpt><trkpt lat="42.81196105854072" lon="10.401307040548133"><ele>143.33333333333331</ele><time>2026-04-19T13:10:24Z</time></trkpt><trkpt lat="42.81184653533146" lon="10.401460415198489"><ele>140.66666666666666</ele><time>2026-04-19T13:10:25Z</time></trkpt><trkpt lat="42.81171613719516" lon="10.401572005300546"><ele>138.0</ele><time>2026-04-19T13:10:26.001Z</time></trkpt><trkpt lat="42.81156933374536" lon="10.401660325231985"><ele>138.0</ele><time>2026-04-19T13:10:27.001Z</time></trkpt><trkpt lat="42.811432820678625" lon="10.401759221925534"><ele>138.0</ele><time>2026-04-19T13:10:28.002Z</time></trkpt><trkpt lat="42.81130517997517" lon="10.401831891600752"><ele>138.0</ele><time>2026-04-19T13:10:29.002Z</time></trkpt><trkpt lat="42.81121459165577" lon="10.401895402412233"><ele>138.0</ele><time>2026-04-19T13:10:30.001Z</time></trkpt><trkpt lat="42.811149675454935" lon="10.401940914689794"><ele>138.0</ele><time>2026-04-19T13:10:31.001Z</time></trkpt><trkpt lat="42.8110796857447" lon="10.402022901829158"><ele>138.0</ele><time>2026-04-19T13:10:33.001Z</time></trkpt><trkpt lat="42.8109813507906" lon="10.402068375304653"><ele>138.0</ele><time>2026-04-19T13:10:36.001Z</time></trkpt><trkpt lat="42.81093952045502" lon="10.402135509744175"><ele>138.0</ele><time>2026-04-19T13:10:37.001Z</time></trkpt><trkpt lat="42.81091814473044" lon="10.402228226812007"><ele>138.0</ele><time>2026-04-19T13:10:38.001Z</time></trkpt><trkpt lat="42.81090681303293" lon="10.402339204044333"><ele>138.0</ele><time>2026-04-19T13:10:39.001Z</time></trkpt><trkpt lat="42.81088747603358" lon="10.402469921398593"><ele>137.6</ele><time>2026-04-19T13:10:40.001Z</time></trkpt><trkpt lat="42.81086137721025" lon="10.40259880437278"><ele>137.20000000000002</ele><time>2026-04-19T13:10:41.001Z</time></trkpt><trkpt lat="42.81079458511434" lon="10.40269812392168"><ele>136.8</ele><time>2026-04-19T13:10:42.001Z</time></trkpt><trkpt lat="42.810731282590545" lon="10.40278632717532"><ele>136.4</ele><time>2026-04-19T13:10:43.001Z</time></trkpt><trkpt lat="42.81064418278074" lon="10.402817709887875"><ele>136.0</ele><time>2026-04-19T13:10:44.001Z</time></trkpt><trkpt lat="42.810552448181895" lon="10.40283736001086"><ele>136.0</ele><time>2026-04-19T13:10:45.001Z</time></trkpt><trkpt lat="42.81045947767601" lon="10.402847609096778"><ele>136.0</ele><time>2026-04-19T13:10:46.001Z</time></trkpt><trkpt lat="42.810373927558395" lon="10.402856005328628"><ele>136.0</ele><time>2026-04-19T13:10:47.001Z</time></trkpt><trkpt lat="42.810284317816524" lon="10.4028710639299"><ele>136.0</ele><time>2026-04-19T13:10:48.001Z</time></trkpt><trkpt lat="42.810212250906865" lon="10.402888345364914"><ele>136.0</ele><time>2026-04-19T13:10:49.001Z</time></trkpt><trkpt lat="42.810152025513304" lon="10.402916569863308"><ele>136.0</ele><time>2026-04-19T13:10:50.001Z</time></trkpt><trkpt lat="42.81002430645624" lon="10.402947836019393"><ele>135.33333333333334</ele><time>2026-04-19T13:10:52.001Z</time></trkpt><trkpt lat="42.80994844930915" lon="10.402979294380057"><ele>134.66666666666669</ele><time>2026-04-19T13:10:53.001Z</time></trkpt><trkpt lat="42.809871918201104" lon="10.402979276074714"><ele>134.0</ele><time>2026-04-19T13:10:54.001Z</time></trkpt><trkpt lat="42.80979242227892" lon="10.402977634451972"><ele>133.33333333333334</ele><time>2026-04-19T13:10:55.001Z</time></trkpt><trkpt lat="42.809703891007935" lon="10.402980471967982"><ele>132.66666666666666</ele><time>2026-04-19T13:10:56.001Z</time></trkpt><trkpt lat="42.80959914352334" lon="10.403063476771749"><ele>132.0</ele><time>2026-04-19T13:10:57.001Z</time></trkpt><trkpt lat="42.80949302870337" lon="10.403130855811085"><ele>131.25</ele><time>2026-04-19T13:10:58.001Z</time></trkpt><trkpt lat="42.809390811113644" lon="10.403209613537326"><ele>130.5</ele><time>2026-04-19T13:10:59.001Z</time></trkpt><trkpt lat="42.80930456192393" lon="10.40331410732734"><ele>129.75</ele><time>2026-04-19T13:11:00.001Z</time></trkpt><trkpt lat="42.80924142105974" lon="10.403450423610412"><ele>129.0</ele><time>2026-04-19T13:11:01.001Z</time></trkpt><trkpt lat="42.80915951010743" lon="10.403577810001797"><ele>128.0</ele><time>2026-04-19T13:11:02.001Z</time></trkpt><trkpt lat="42.809062958299464" lon="10.40367373539342"><ele>127.0</ele><time>2026-04-19T13:11:03.001Z</time></trkpt><trkpt lat="42.808962918166536" lon="10.40375410893087"><ele>126.0</ele><time>2026-04-19T13:11:04.001Z</time></trkpt><trkpt lat="42.80886548048145" lon="10.403856705927318"><ele>125.0</ele><time>2026-04-19T13:11:05.001Z</time></trkpt><trkpt lat="42.80876800796239" lon="10.403975843953875"><ele>125.0</ele><time>2026-04-19T13:11:06.001Z</time></trkpt><trkpt lat="42.808679885005056" lon="10.404112145892096"><ele>125.0</ele><time>2026-04-19T13:11:07.001Z</time></trkpt><trkpt lat="42.80858092162508" lon="10.40424444475332"><ele>125.0</ele><time>2026-04-19T13:11:08.001Z</time></trkpt><trkpt lat="42.808488376357396" lon="10.404363751043759"><ele>125.0</ele><time>2026-04-19T13:11:09.001Z</time></trkpt><trkpt lat="42.80839973786329" lon="10.404466574900761"><ele>121.5</ele><time>2026-04-19T13:11:10.001Z</time></trkpt><trkpt lat="42.80828998841618" lon="10.4045577633714"><ele>118.0</ele><time>2026-04-19T13:11:11.001Z</time></trkpt><trkpt lat="42.80820567968364" lon="10.404656150844259"><ele>114.5</ele><time>2026-04-19T13:11:12.001Z</time></trkpt><trkpt lat="42.80811339264354" lon="10.404763162465182"><ele>111.0</ele><time>2026-04-19T13:11:13.001Z</time></trkpt><trkpt lat="42.808026970065036" lon="10.404886616787216"><ele>59.0</ele><time>2026-04-19T13:11:14.001Z</time></trkpt><trkpt lat="42.80426027827416" lon="10.411841556891206"><ele>59.0</ele><time>2026-04-19T13:12:15Z</time></trkpt><trkpt lat="42.80419711578261" lon="10.411996572604467"><ele>59.0</ele><time>2026-04-19T13:12:16Z</time></trkpt><trkpt lat="42.804136025863485" lon="10.412145910745211"><ele>59.0</ele><time>2026-04-19T13:12:17Z</time></trkpt><trkpt lat="42.80407597712397" lon="10.41230395525967"><ele>59.0</ele><time>2026-04-19T13:12:18Z</time></trkpt><trkpt lat="42.80401581012997" lon="10.412447020714382"><ele>60.75</ele><time>2026-04-19T13:12:19Z</time></trkpt><trkpt lat="42.80395323954086" lon="10.41257131601134"><ele>62.5</ele><time>2026-04-19T13:12:20Z</time></trkpt><trkpt lat="42.803849295084234" lon="10.412641580351028"><ele>64.25</ele><time>2026-04-19T13:12:21Z</time></trkpt><trkpt lat="42.803747490948965" lon="10.412721529786818"><ele>66.0</ele><time>2026-04-19T13:12:22Z</time></trkpt><trkpt lat="42.8036502750503" lon="10.41280125632885"><ele>66.0</ele><time>2026-04-19T13:12:23Z</time></trkpt><trkpt lat="42.80355722451574" lon="10.412881182920563"><ele>66.0</ele><time>2026-04-19T13:12:24Z</time></trkpt><trkpt lat="42.80346643941833" lon="10.412958969639798"><ele>66.0</ele><time>2026-04-19T13:12:25Z</time></trkpt><trkpt lat="42.803380554138506" lon="10.413049753098631"><ele>66.0</ele><time>2026-04-19T13:12:26Z</time></trkpt><trkpt lat="42.80328437681773" lon="10.41311299296107"><ele>66.0</ele><time>2026-04-19T13:12:27Z</time></trkpt><trkpt lat="42.80320034670939" lon="10.413184081596166"><ele>66.39999999999999</ele><time>2026-04-19T13:12:28Z</time></trkpt><trkpt lat="42.80317451176311" lon="10.413362733550864"><ele>66.8</ele><time>2026-04-19T13:12:29Z</time></trkpt><trkpt lat="42.80313639771111" lon="10.41348448916266"><ele>67.19999999999999</ele><time>2026-04-19T13:12:30Z</time></trkpt><trkpt lat="42.803095183659394" lon="10.413602222855783"><ele>67.6</ele><time>2026-04-19T13:12:31Z</time></trkpt><trkpt lat="42.80304326696522" lon="10.413721601829302"><ele>68.0</ele><time>2026-04-19T13:12:32.001Z</time></trkpt><trkpt lat="42.802957894585894" lon="10.413828804878179"><ele>68.0</ele><time>2026-04-19T13:12:33.001Z</time></trkpt><trkpt lat="42.802841431296414" lon="10.413841134809148"><ele>68.0</ele><time>2026-04-19T13:12:34.001Z</time></trkpt><trkpt lat="42.802722636084034" lon="10.413846862750155"><ele>68.0</ele><time>2026-04-19T13:12:35.001Z</time></trkpt><trkpt lat="42.80260058584293" lon="10.413859220039692"><ele>68.0</ele><time>2026-04-19T13:12:36.001Z</time></trkpt><trkpt lat="42.802482306406375" lon="10.41388553833137"><ele>64.8</ele><time>2026-04-19T13:12:37.001Z</time></trkpt><trkpt lat="42.802373789391694" lon="10.413925873088228"><ele>61.599999999999994</ele><time>2026-04-19T13:12:38.001Z</time></trkpt><trkpt lat="42.802276725161676" lon="10.414001118706496"><ele>58.400000000000006</ele><time>2026-04-19T13:12:39.001Z</time></trkpt><trkpt lat="42.802197850845666" lon="10.414065409755894"><ele>55.2</ele><time>2026-04-19T13:12:40.002Z</time></trkpt><trkpt lat="42.80211639564911" lon="10.414151121167011"><ele>52.0</ele><time>2026-04-19T13:12:41.002Z</time></trkpt><trkpt lat="42.80205398685335" lon="10.41424498080046"><ele>52.0</ele><time>2026-04-19T13:12:42.001Z</time></trkpt><trkpt lat="42.80197951050767" lon="10.414364015333113"><ele>52.0</ele><time>2026-04-19T13:12:43.001Z</time></trkpt><trkpt lat="42.80190394642865" lon="10.414484322015536"><ele>52.0</ele><time>2026-04-19T13:12:44.001Z</time></trkpt><trkpt lat="42.80184106222996" lon="10.414612490617769"><ele>52.0</ele><time>2026-04-19T13:12:45.001Z</time></trkpt><trkpt lat="42.801776768735536" lon="10.414730750198164"><ele>50.33333333333333</ele><time>2026-04-19T13:12:46.001Z</time></trkpt><trkpt lat="42.80171445206704" lon="10.4148287258327"><ele>48.666666666666664</ele><time>2026-04-19T13:12:47.001Z</time></trkpt><trkpt lat="42.80165860877923" lon="10.414911548934612"><ele>47.0</ele><time>2026-04-19T13:12:48.002Z</time></trkpt><trkpt lat="42.80158040634807" lon="10.415025717819875"><ele>45.33333333333333</ele><time>2026-04-19T13:12:50.002Z</time></trkpt><trkpt lat="42.80154353129328" lon="10.41494537559064"><ele>43.666666666666664</ele><time>2026-04-19T13:12:55.002Z</time></trkpt><trkpt lat="42.80157808108505" lon="10.414868907351561"><ele>42.0</ele><time>2026-04-19T13:12:56.002Z</time></trkpt><trkpt lat="42.801629154533614" lon="10.41477917600321"><ele>42.0</ele><time>2026-04-19T13:12:57.002Z</time></trkpt><trkpt lat="42.801699063846634" lon="10.41468302042554"><ele>42.0</ele><time>2026-04-19T13:12:58.002Z</time></trkpt><trkpt lat="42.80175625050532" lon="10.414560613311021"><ele>42.0</ele><time>2026-04-19T13:12:59.002Z</time></trkpt><trkpt lat="42.80178724880482" lon="10.41444580941906"><ele>42.0</ele><time>2026-04-19T13:13:00.001Z</time></trkpt><trkpt lat="42.801825301755734" lon="10.414344797662787"><ele>42.0</ele><time>2026-04-19T13:13:01.001Z</time></trkpt><trkpt lat="42.80184731512364" lon="10.414190569460999"><ele>40.4</ele><time>2026-04-19T13:13:03.001Z</time></trkpt><trkpt lat="42.8018132310932" lon="10.41404866305385"><ele>38.800000000000004</ele><time>2026-04-19T13:13:05.001Z</time></trkpt><trkpt lat="42.801691837627075" lon="10.414003493758768"><ele>37.2</ele><time>2026-04-19T13:13:06.001Z</time></trkpt><trkpt lat="42.80159943142923" lon="10.414040023191168"><ele>35.6</ele><time>2026-04-19T13:13:07.001Z</time></trkpt><trkpt lat="42.80154078055725" lon="10.413963842910375"><ele>34.0</ele><time>2026-04-19T13:13:08.001Z</time></trkpt><trkpt lat="42.80148538881749" lon="10.413889931597687"><ele>34.16666666666667</ele><time>2026-04-19T13:13:09.001Z</time></trkpt><trkpt lat="42.80143488192702" lon="10.41381820825035"><ele>34.333333333333336</ele><time>2026-04-19T13:13:10.001Z</time></trkpt><trkpt lat="42.80137556806051" lon="10.413771179797946"><ele>34.5</ele><time>2026-04-19T13:13:11.001Z</time></trkpt><trkpt lat="42.80133053208995" lon="10.413705031556699"><ele>34.666666666666664</ele><time>2026-04-19T13:13:12.001Z</time></trkpt><trkpt lat="42.801265486449715" lon="10.413656655893114"><ele>34.83333333333333</ele><time>2026-04-19T13:13:13.001Z</time></trkpt><trkpt lat="42.80120979177942" lon="10.413613770231898"><ele>35.0</ele><time>2026-04-19T13:13:14.001Z</time></trkpt><trkpt lat="42.79840211931696" lon="10.41137819307373"><ele>39.33333333333333</ele><time>2026-04-19T13:14:15.001Z</time></trkpt><trkpt lat="42.798319408984405" lon="10.411380795293562"><ele>43.666666666666664</ele><time>2026-04-19T13:14:18.001Z</time></trkpt><trkpt lat="42.79823928727466" lon="10.411378941364141"><ele>48.0</ele><time>2026-04-19T13:14:20.001Z</time></trkpt><trkpt lat="42.79815877398831" lon="10.411393417624243"><ele>52.33333333333333</ele><time>2026-04-19T13:14:22.001Z</time></trkpt><trkpt lat="42.798108313004754" lon="10.411496061173944"><ele>56.666666666666664</ele><time>2026-04-19T13:14:25.001Z</time></trkpt><trkpt lat="42.79805044496897" lon="10.411556193900488"><ele>61.0</ele><time>2026-04-19T13:14:27.001Z</time></trkpt><trkpt lat="42.797960623357675" lon="10.411603813659376"><ele>61.0</ele><time>2026-04-19T13:14:29.001Z</time></trkpt><trkpt lat="42.79788956391831" lon="10.411614795983056"><ele>60.99999999999999</ele><time>2026-04-19T13:14:35.001Z</time></trkpt><trkpt lat="42.79781063568149" lon="10.41164442401582"><ele>60.99999999999999</ele><time>2026-04-19T13:14:38.001Z</time></trkpt><trkpt lat="42.797722254286775" lon="10.411624862696554"><ele>61.0</ele><time>2026-04-19T13:14:40.001Z</time></trkpt><trkpt lat="42.79760926811582" lon="10.411610796200218"><ele>61.0</ele><time>2026-04-19T13:14:42.002Z</time></trkpt><trkpt lat="42.79748394714991" lon="10.411632690258656"><ele>63.599999999999994</ele><time>2026-04-19T13:14:44.001Z</time></trkpt><trkpt lat="42.79736540670398" lon="10.411644392106467"><ele>66.19999999999999</ele><time>2026-04-19T13:14:46.002Z</time></trkpt><trkpt lat="42.79724789442793" lon="10.411659211923629"><ele>68.80000000000001</ele><time>2026-04-19T13:14:48.001Z</time></trkpt><trkpt lat="42.797147528644494" lon="10.411655438174652"><ele>71.4</ele><time>2026-04-19T13:14:50.001Z</time></trkpt><trkpt lat="42.7970767076023" lon="10.411638116849083"><ele>74.0</ele><time>2026-04-19T13:14:51.001Z</time></trkpt><trkpt lat="42.79694602955701" lon="10.411601321439225"><ele>77.75</ele><time>2026-04-19T13:14:53.001Z</time></trkpt><trkpt lat="42.796819124228435" lon="10.411566193044603"><ele>81.5</ele><time>2026-04-19T13:14:55.001Z</time></trkpt><trkpt lat="42.79670126991768" lon="10.411554612366732"><ele>85.25</ele><time>2026-04-19T13:14:57.001Z</time></trkpt><trkpt lat="42.79658822288522" lon="10.411536495858407"><ele>89.0</ele><time>2026-04-19T13:14:59.001Z</time></trkpt><trkpt lat="42.796456237321586" lon="10.411484240761222"><ele>89.0</ele><time>2026-04-19T13:15:01.001Z</time></trkpt><trkpt lat="42.79638455334172" lon="10.41137896240155"><ele>89.0</ele><time>2026-04-19T13:15:02.001Z</time></trkpt><trkpt lat="42.796302592117726" lon="10.411363133088333"><ele>89.0</ele><time>2026-04-19T13:15:03.001Z</time></trkpt><trkpt lat="42.79620321667984" lon="10.411335538153962"><ele>89.0</ele><time>2026-04-19T13:15:04.001Z</time></trkpt><trkpt lat="42.79611800987662" lon="10.41131399117196"><ele>89.0</ele><time>2026-04-19T13:15:05.001Z</time></trkpt><trkpt lat="42.796028744723344" lon="10.411283994814186"><ele>89.6</ele><time>2026-04-19T13:15:06Z</time></trkpt><trkpt lat="42.795926976601045" lon="10.411263779454407"><ele>90.2</ele><time>2026-04-19T13:15:07Z</time></trkpt><trkpt lat="42.79583323722162" lon="10.411209128354908"><ele>90.8</ele><time>2026-04-19T13:15:08Z</time></trkpt><trkpt lat="42.79573576778883" lon="10.411151637310587"><ele>91.39999999999999</ele><time>2026-04-19T13:15:09Z</time></trkpt><trkpt lat="42.79564430599537" lon="10.411115781130386"><ele>92.0</ele><time>2026-04-19T13:15:10Z</time></trkpt><trkpt lat="42.79555359255314" lon="10.411076757993014"><ele>92.0</ele><time>2026-04-19T13:15:11Z</time></trkpt><trkpt lat="42.79544791388506" lon="10.411087639555179"><ele>92.0</ele><time>2026-04-19T13:15:12Z</time></trkpt><trkpt lat="42.79534526220607" lon="10.411054756028536"><ele>92.0</ele><time>2026-04-19T13:15:13Z</time></trkpt><trkpt lat="42.7952439014346" lon="10.411060824284657"><ele>92.0</ele><time>2026-04-19T13:15:14Z</time></trkpt><trkpt lat="42.7913322870941" lon="10.412582583296007"><ele>101.0</ele><time>2026-04-19T13:16:15Z</time></trkpt><trkpt lat="42.79120086124627" lon="10.412560907952809"><ele>110.0</ele><time>2026-04-19T13:16:16Z</time></trkpt><trkpt lat="42.79107879828757" lon="10.41262620663098"><ele>119.0</ele><time>2026-04-19T13:16:17Z</time></trkpt><trkpt lat="42.79096795871819" lon="10.412684005789215"><ele>128.0</ele><time>2026-04-19T13:16:18Z</time></trkpt><trkpt lat="42.79085152767244" lon="10.412764404283836"><ele>129.5</ele><time>2026-04-19T13:16:19Z</time></trkpt><trkpt lat="42.79072314657269" lon="10.412857613916728"><ele>131.0</ele><time>2026-04-19T13:16:20Z</time></trkpt><trkpt lat="42.79061371670455" lon="10.412972558009114"><ele>132.5</ele><time>2026-04-19T13:16:21Z</time></trkpt><trkpt lat="42.79051159243141" lon="10.413051451200884"><ele>134.0</ele><time>2026-04-19T13:16:22Z</time></trkpt><trkpt lat="42.79042881293351" lon="10.413148865022302"><ele>132.8</ele><time>2026-04-19T13:16:23Z</time></trkpt><trkpt lat="42.790351090356026" lon="10.413238313174002"><ele>131.60000000000002</ele><time>2026-04-19T13:16:24Z</time></trkpt><trkpt lat="42.79027390941347" lon="10.413308669098827"><ele>130.4</ele><time>2026-04-19T13:16:25Z</time></trkpt><trkpt lat="42.79019609282464" lon="10.413381527982034"><ele>129.20000000000002</ele><time>2026-04-19T13:16:26Z</time></trkpt><trkpt lat="42.79009275036939" lon="10.413432700210134"><ele>128.0</ele><time>2026-04-19T13:16:27Z</time></trkpt><trkpt lat="42.789974465366925" lon="10.413436436968802"><ele>128.0</ele><time>2026-04-19T13:16:28Z</time></trkpt><trkpt lat="42.78987776486012" lon="10.413396689405072"><ele>128.0</ele><time>2026-04-19T13:16:29Z</time></trkpt><trkpt lat="42.789788306131754" lon="10.413310826374321"><ele>128.0</ele><time>2026-04-19T13:16:30Z</time></trkpt><trkpt lat="42.78973407003538" lon="10.413179442808566"><ele>128.0</ele><time>2026-04-19T13:16:31Z</time></trkpt><trkpt lat="42.78970253522665" lon="10.413015339986172"><ele>128.0</ele><time>2026-04-19T13:16:32Z</time></trkpt><trkpt lat="42.789687925076656" lon="10.41282601280732"><ele>129.66666666666666</ele><time>2026-04-19T13:16:33Z</time></trkpt><trkpt lat="42.7896944653107" lon="10.412615779262824"><ele>131.33333333333334</ele><time>2026-04-19T13:16:34Z</time></trkpt><trkpt lat="42.78969500100054" lon="10.412394203451104"><ele>133.0</ele><time>2026-04-19T13:16:35Z</time></trkpt><trkpt lat="42.78969403420333" lon="10.412174061179224"><ele>134.0</ele><time>2026-04-19T13:16:36Z</time></trkpt><trkpt lat="42.78969915239919" lon="10.411956697440166"><ele>135.0</ele><time>2026-04-19T13:16:37Z</time></trkpt><trkpt lat="42.7896951067194" lon="10.41176361432765"><ele>136.0</ele><time>2026-04-19T13:16:38Z</time></trkpt><trkpt lat="42.789673643839315" lon="10.411588940895358"><ele>137.0</ele><time>2026-04-19T13:16:39Z</time></trkpt><trkpt lat="42.78961228275595" lon="10.41141090286548"><ele>136.5</ele><time>2026-04-19T13:16:40Z</time></trkpt><trkpt lat="42.7895342711798" lon="10.411243935087159"><ele>136.0</ele><time>2026-04-19T13:16:41Z</time></trkpt><trkpt lat="42.789443824417944" lon="10.411114130023856"><ele>135.5</ele><time>2026-04-19T13:16:42Z</time></trkpt><trkpt lat="42.78935359214062" lon="10.41100437108947"><ele>135.0</ele><time>2026-04-19T13:16:43Z</time></trkpt><trkpt lat="42.78926601350219" lon="10.410925648832247"><ele>135.0</ele><time>2026-04-19T13:16:44.001Z</time></trkpt><trkpt lat="42.789183495192205" lon="10.410851531295286"><ele>135.0</ele><time>2026-04-19T13:16:45.001Z</time></trkpt><trkpt lat="42.78911935005534" lon="10.410782227124018"><ele>135.0</ele><time>2026-04-19T13:16:46.001Z</time></trkpt><trkpt lat="42.78906714897596" lon="10.410718602082609"><ele>135.0</ele><time>2026-04-19T13:16:47.001Z</time></trkpt><trkpt lat="42.78899218231156" lon="10.410608057238472"><ele>135.0</ele><time>2026-04-19T13:16:49.001Z</time></trkpt><trkpt lat="42.788934144065024" lon="10.410548364323818"><ele>135.0</ele><time>2026-04-19T13:16:51.002Z</time></trkpt><trkpt lat="42.78886831158149" lon="10.410524179140152"><ele>134.5</ele><time>2026-04-19T13:16:53.001Z</time></trkpt><trkpt lat="42.78886138820897" lon="10.410409439204763"><ele>134.0</ele><time>2026-04-19T13:16:56.001Z</time></trkpt><trkpt lat="42.7888572557433" lon="10.410304644383285"><ele>133.5</ele><time>2026-04-19T13:16:57.001Z</time></trkpt><trkpt lat="42.788851161840725" lon="10.410185505046867"><ele>133.0</ele><time>2026-04-19T13:16:58.001Z</time></trkpt><trkpt lat="42.78885290110459" lon="10.410075163521979"><ele>132.5</ele><time>2026-04-19T13:16:59.001Z</time></trkpt><trkpt lat="42.788828359392696" lon="10.409956504032092"><ele>132.0</ele><time>2026-04-19T13:17:00.001Z</time></trkpt><trkpt lat="42.78879713247125" lon="10.409861952252282"><ele>132.0</ele><time>2026-04-19T13:17:01.001Z</time></trkpt><trkpt lat="42.788749931967565" lon="10.4097817475396"><ele>132.0</ele><time>2026-04-19T13:17:02.001Z</time></trkpt><trkpt lat="42.788685059346" lon="10.40971779041069"><ele>132.0</ele><time>2026-04-19T13:17:03.001Z</time></trkpt><trkpt lat="42.7886162909754" lon="10.40964900908629"><ele>132.0</ele><time>2026-04-19T13:17:04.001Z</time></trkpt><trkpt lat="42.788543228075554" lon="10.409596669864465"><ele>132.0</ele><time>2026-04-19T13:17:05.001Z</time></trkpt><trkpt lat="42.788490525212545" lon="10.409511543495492"><ele>132.0</ele><time>2026-04-19T13:17:06.001Z</time></trkpt><trkpt lat="42.78841972415298" lon="10.40944078961593"><ele>129.57142857142856</ele><time>2026-04-19T13:17:07.001Z</time></trkpt><trkpt lat="42.78836123955815" lon="10.409379663538255"><ele>127.14285714285714</ele><time>2026-04-19T13:17:08.001Z</time></trkpt><trkpt lat="42.78828764744899" lon="10.40932752254549"><ele>124.71428571428571</ele><time>2026-04-19T13:17:09.001Z</time></trkpt><trkpt lat="42.788227157097324" lon="10.409266162493415"><ele>122.28571428571428</ele><time>2026-04-19T13:17:10.001Z</time></trkpt><trkpt lat="42.78816615381774" lon="10.40921309823507"><ele>119.85714285714286</ele><time>2026-04-19T13:17:11.001Z</time></trkpt><trkpt lat="42.78810449389527" lon="10.409179869234332"><ele>117.42857142857142</ele><time>2026-04-19T13:17:12.001Z</time></trkpt><trkpt lat="42.788040045040475" lon="10.409133037135787"><ele>114.99999999999999</ele><time>2026-04-19T13:17:13.001Z</time></trkpt><trkpt lat="42.78397216524137" lon="10.409059700943518"><ele>102.6</ele><time>2026-04-19T13:18:15.001Z</time></trkpt><trkpt lat="42.783846912258646" lon="10.409067545819754"><ele>90.2</ele><time>2026-04-19T13:18:17.001Z</time></trkpt><trkpt lat="42.783781030965244" lon="10.40912061336781"><ele>77.8</ele><time>2026-04-19T13:18:18.001Z</time></trkpt><trkpt lat="42.7837130383415" lon="10.409167360038099"><ele>65.4</ele><time>2026-04-19T13:18:19.001Z</time></trkpt><trkpt lat="42.783602834436934" lon="10.409204366097354"><ele>53.0</ele><time>2026-04-19T13:18:21.001Z</time></trkpt><trkpt lat="42.78347760875854" lon="10.409218009055424"><ele>51.714285714285715</ele><time>2026-04-19T13:18:23.001Z</time></trkpt><trkpt lat="42.783403927847" lon="10.409236818231145"><ele>50.42857142857142</ele><time>2026-04-19T13:18:24.001Z</time></trkpt><trkpt lat="42.78333720599648" lon="10.40926277699649"><ele>49.14285714285714</ele><time>2026-04-19T13:18:25.001Z</time></trkpt><trkpt lat="42.783260861482965" lon="10.409291570392257"><ele>47.85714285714286</ele><time>2026-04-19T13:18:26.001Z</time></trkpt><trkpt lat="42.783187166119866" lon="10.409309200705529"><ele>46.57142857142857</ele><time>2026-04-19T13:18:27.001Z</time></trkpt><trkpt lat="42.7831170056326" lon="10.409324016896882"><ele>45.285714285714285</ele><time>2026-04-19T13:18:28.001Z</time></trkpt><trkpt lat="42.783043431433725" lon="10.409282464419702"><ele>44.0</ele><time>2026-04-19T13:18:29.001Z</time></trkpt><trkpt lat="42.782967545214625" lon="10.409269403773393"><ele>44.0</ele><time>2026-04-19T13:18:30.001Z</time></trkpt><trkpt lat="42.78289662586399" lon="10.409280184349141"><ele>44.0</ele><time>2026-04-19T13:18:31Z</time></trkpt><trkpt lat="42.78277693194071" lon="10.409285480789915"><ele>44.0</ele><time>2026-04-19T13:18:33Z</time></trkpt><trkpt lat="42.78266889831015" lon="10.409249725826179"><ele>44.0</ele><time>2026-04-19T13:18:35Z</time></trkpt><trkpt lat="42.78262595292516" lon="10.40917356263432"><ele>44.0</ele><time>2026-04-19T13:18:36Z</time></trkpt><trkpt lat="42.78256701030354" lon="10.409110879934028"><ele>44.0</ele><time>2026-04-19T13:18:37Z</time></trkpt><trkpt lat="42.78247179028803" lon="10.409099007584235"><ele>43.285714285714285</ele><time>2026-04-19T13:18:38Z</time></trkpt><trkpt lat="42.78240643205612" lon="10.409084787461639"><ele>42.57142857142857</ele><time>2026-04-19T13:18:39Z</time></trkpt><trkpt lat="42.78233875575109" lon="10.409080876442907"><ele>41.85714285714286</ele><time>2026-04-19T13:18:40Z</time></trkpt><trkpt lat="42.782277631582204" lon="10.409105727472532"><ele>41.14285714285714</ele><time>2026-04-19T13:18:41Z</time></trkpt><trkpt lat="42.78221112717671" lon="10.40915689523306"><ele>40.42857142857142</ele><time>2026-04-19T13:18:42Z</time></trkpt><trkpt lat="42.78214184601067" lon="10.409180777885938"><ele>39.714285714285715</ele><time>2026-04-19T13:18:43Z</time></trkpt><trkpt lat="42.78207704490044" lon="10.40922265330906"><ele>39.0</ele><time>2026-04-19T13:18:44Z</time></trkpt><trkpt lat="42.78199790855955" lon="10.40927379245575"><ele>39.0</ele><time>2026-04-19T13:18:45Z</time></trkpt><trkpt lat="42.78192429654242" lon="10.409350698378702"><ele>39.0</ele><time>2026-04-19T13:18:46Z</time></trkpt><trkpt lat="42.78184186403964" lon="10.409398009903999"><ele>39.0</ele><time>2026-04-19T13:18:47Z</time></trkpt><trkpt lat="42.78175483517827" lon="10.409461864200802"><ele>39.0</ele><time>2026-04-19T13:18:48Z</time></trkpt><trkpt lat="42.781660741423075" lon="10.40953161973984"><ele>39.0</ele><time>2026-04-19T13:18:49Z</time></trkpt><trkpt lat="42.781573180004884" lon="10.4095690871989"><ele>39.42857142857143</ele><time>2026-04-19T13:18:50.001Z</time></trkpt><trkpt lat="42.78150209341152" lon="10.40959835757945"><ele>39.857142857142854</ele><time>2026-04-19T13:18:51.001Z</time></trkpt><trkpt lat="42.781434447349035" lon="10.409622900116524"><ele>40.285714285714285</ele><time>2026-04-19T13:18:52.001Z</time></trkpt><trkpt lat="42.78136334741471" lon="10.40964899878154"><ele>40.714285714285715</ele><time>2026-04-19T13:18:53.001Z</time></trkpt><trkpt lat="42.781301233326964" lon="10.409679957796868"><ele>41.14285714285714</ele><time>2026-04-19T13:18:54.002Z</time></trkpt><trkpt lat="42.78123794712112" lon="10.409707034073334"><ele>41.57142857142857</ele><time>2026-04-19T13:18:55.002Z</time></trkpt><trkpt lat="42.78116437701454" lon="10.409715343749546"><ele>42.0</ele><time>2026-04-19T13:18:56.002Z</time></trkpt><trkpt lat="42.781094343865945" lon="10.409740347504405"><ele>40.833333333333336</ele><time>2026-04-19T13:18:57.002Z</time></trkpt><trkpt lat="42.78102132960655" lon="10.40978135940691"><ele>39.666666666666664</ele><time>2026-04-19T13:18:58.002Z</time></trkpt><trkpt lat="42.78094611957257" lon="10.409825786197628"><ele>38.5</ele><time>2026-04-19T13:18:59.002Z</time></trkpt><trkpt lat="42.780866226450165" lon="10.409871493415476"><ele>37.33333333333333</ele><time>2026-04-19T13:19:00.002Z</time></trkpt><trkpt lat="42.780779442669804" lon="10.409925768278105"><ele>36.166666666666664</ele><time>2026-04-19T13:19:01.002Z</time></trkpt><trkpt lat="42.780701743990825" lon="10.40997011145549"><ele>35.0</ele><time>2026-04-19T13:19:02.002Z</time></trkpt><trkpt lat="42.780610544299506" lon="10.410013813154281"><ele>35.0</ele><time>2026-04-19T13:19:03.002Z</time></trkpt><trkpt lat="42.78053368974442" lon="10.410037564510542"><ele>35.0</ele><time>2026-04-19T13:19:04.001Z</time></trkpt><trkpt lat="42.78045815794742" lon="10.410055365097604"><ele>35.0</ele><time>2026-04-19T13:19:05.001Z</time></trkpt><trkpt lat="42.780377775305375" lon="10.410077811299958"><ele>35.0</ele><time>2026-04-19T13:19:06.001Z</time></trkpt><trkpt lat="42.780309362090456" lon="10.410068429502951"><ele>35.0</ele><time>2026-04-19T13:19:07.001Z</time></trkpt><trkpt lat="42.78023868886373" lon="10.410074855231372"><ele>35.0</ele><time>2026-04-19T13:19:08.002Z</time></trkpt><trkpt lat="42.78014233041736" lon="10.410048884528535"><ele>35.2</ele><time>2026-04-19T13:19:09.002Z</time></trkpt><trkpt lat="42.780055257146664" lon="10.410023296219183"><ele>35.4</ele><time>2026-04-19T13:19:10.002Z</time></trkpt><trkpt lat="42.779969142674624" lon="10.409995742688015"><ele>35.6</ele><time>2026-04-19T13:19:11.002Z</time></trkpt><trkpt lat="42.7798787191417" lon="10.409967716755045"><ele>35.8</ele><time>2026-04-19T13:19:12.002Z</time></trkpt><trkpt lat="42.779782711903145" lon="10.409937112155184"><ele>36.0</ele><time>2026-04-19T13:19:13.002Z</time></trkpt><trkpt lat="42.77968868344159" lon="10.40990123567714"><ele>21.0</ele><time>2026-04-19T13:19:14.002Z</time></trkpt><trkpt lat="42.77407532180509" lon="10.40829381106345"><ele>21.0</ele><time>2026-04-19T13:20:15.001Z</time></trkpt><trkpt lat="42.77405855397944" lon="10.408102797915143"><ele>21.0</ele><time>2026-04-19T13:20:16.001Z</time></trkpt><trkpt lat="42.77404262145881" lon="10.407921015621193"><ele>21.0</ele><time>2026-04-19T13:20:17.001Z</time></trkpt><trkpt lat="42.77403236170805" lon="10.407747172384008"><ele>21.0</ele><time>2026-04-19T13:20:18.001Z</time></trkpt><trkpt lat="42.77403409696397" lon="10.407573929511708"><ele>21.0</ele><time>2026-04-19T13:20:19.001Z</time></trkpt><trkpt lat="42.77404765104931" lon="10.40741558667864"><ele>21.0</ele><time>2026-04-19T13:20:20.001Z</time></trkpt><trkpt lat="42.774078710070526" lon="10.407245726974987"><ele>21.0</ele><time>2026-04-19T13:20:21.001Z</time></trkpt><trkpt lat="42.774125134295836" lon="10.407075450286943"><ele>21.0</ele><time>2026-04-19T13:20:22.001Z</time></trkpt><trkpt lat="42.774183462363816" lon="10.406901131120598"><ele>20.5</ele><time>2026-04-19T13:20:23.001Z</time></trkpt><trkpt lat="42.77423922525456" lon="10.40672373889482"><ele>20.0</ele><time>2026-04-19T13:20:24.001Z</time></trkpt><trkpt lat="42.77430147228093" lon="10.406578767940836"><ele>19.5</ele><time>2026-04-19T13:20:25.001Z</time></trkpt><trkpt lat="42.77435004362376" lon="10.406429342749936"><ele>19.0</ele><time>2026-04-19T13:20:26.001Z</time></trkpt><trkpt lat="42.77436389953752" lon="10.406272396945837"><ele>17.25</ele><time>2026-04-19T13:20:27.001Z</time></trkpt><trkpt lat="42.77433279218921" lon="10.406117714023509"><ele>15.5</ele><time>2026-04-19T13:20:28.001Z</time></trkpt><trkpt lat="42.774269523174226" lon="10.405966072085764"><ele>13.75</ele><time>2026-04-19T13:20:29.001Z</time></trkpt><trkpt lat="42.774203354148284" lon="10.405810466117604"><ele>12.0</ele><time>2026-04-19T13:20:30.001Z</time></trkpt><trkpt lat="42.774136025391485" lon="10.4056368167204"><ele>12.333333333333332</ele><time>2026-04-19T13:20:31.001Z</time></trkpt><trkpt lat="42.77406728113086" lon="10.405454525780593"><ele>12.666666666666666</ele><time>2026-04-19T13:20:32.001Z</time></trkpt><trkpt lat="42.773999164176765" lon="10.40526603449083"><ele>13.0</ele><time>2026-04-19T13:20:33.001Z</time></trkpt><trkpt lat="42.77392917477859" lon="10.405085715333989"><ele>13.0</ele><time>2026-04-19T13:20:34.001Z</time></trkpt><trkpt lat="42.773855719941814" lon="10.404912640063271"><ele>13.0</ele><time>2026-04-19T13:20:35.001Z</time></trkpt><trkpt lat="42.77378976547703" lon="10.404740532336952"><ele>13.0</ele><time>2026-04-19T13:20:36.001Z</time></trkpt><trkpt lat="42.773726831844115" lon="10.404564995639344"><ele>13.0</ele><time>2026-04-19T13:20:37.001Z</time></trkpt><trkpt lat="42.77366238230077" lon="10.40438731265569"><ele>12.333333333333332</ele><time>2026-04-19T13:20:38.001Z</time></trkpt><trkpt lat="42.77359156321801" lon="10.404198722120443"><ele>11.666666666666666</ele><time>2026-04-19T13:20:39.001Z</time></trkpt><trkpt lat="42.77351664961895" lon="10.404011869463055"><ele>11.0</ele><time>2026-04-19T13:20:40.001Z</time></trkpt><trkpt lat="42.77344607171967" lon="10.4038258592824"><ele>10.0</ele><time>2026-04-19T13:20:41.001Z</time></trkpt><trkpt lat="42.773380386813145" lon="10.40363462570974"><ele>9.0</ele><time>2026-04-19T13:20:42.001Z</time></trkpt><trkpt lat="42.77331004295918" lon="10.403445211105897"><ele>8.0</ele><time>2026-04-19T13:20:43.001Z</time></trkpt><trkpt lat="42.773243686707474" lon="10.403264312717102"><ele>8.0</ele><time>2026-04-19T13:20:44.001Z</time></trkpt><trkpt lat="42.77318138867956" lon="10.403080803147573"><ele>8.0</ele><time>2026-04-19T13:20:45.001Z</time></trkpt><trkpt lat="42.77311539323141" lon="10.402903046709433"><ele>8.0</ele><time>2026-04-19T13:20:46.001Z</time></trkpt><trkpt lat="42.77304945236289" lon="10.40272780556279"><ele>8.0</ele><time>2026-04-19T13:20:47.001Z</time></trkpt><trkpt lat="42.772985902354634" lon="10.402555305856621"><ele>8.5</ele><time>2026-04-19T13:20:48.001Z</time></trkpt><trkpt lat="42.77292224712021" lon="10.402377900550782"><ele>9.0</ele><time>2026-04-19T13:20:49.001Z</time></trkpt><trkpt lat="42.772858286608155" lon="10.402206248835554"><ele>9.5</ele><time>2026-04-19T13:20:50.001Z</time></trkpt><trkpt lat="42.772796060746636" lon="10.402037985283524"><ele>10.0</ele><time>2026-04-19T13:20:51.001Z</time></trkpt><trkpt lat="42.772735460006146" lon="10.401870640326516"><ele>11.25</ele><time>2026-04-19T13:20:52.001Z</time></trkpt><trkpt lat="42.77267228051918" lon="10.401699257661592"><ele>12.5</ele><time>2026-04-19T13:20:53.001Z</time></trkpt><trkpt lat="42.77259917891686" lon="10.401526302865575"><ele>13.75</ele><time>2026-04-19T13:20:54.001Z</time></trkpt><trkpt lat="42.77250416988097" lon="10.401356624117861"><ele>15.0</ele><time>2026-04-19T13:20:55.001Z</time></trkpt><trkpt lat="42.77242637337282" lon="10.4011877169207"><ele>15.25</ele><time>2026-04-19T13:20:56.002Z</time></trkpt><trkpt lat="42.77234129796288" lon="10.401031686676985"><ele>15.5</ele><time>2026-04-19T13:20:57.002Z</time></trkpt><trkpt lat="42.772259545771064" lon="10.400882609811985"><ele>15.75</ele><time>2026-04-19T13:20:58.001Z</time></trkpt><trkpt lat="42.77216397783976" lon="10.400738887195459"><ele>16.0</ele><time>2026-04-19T13:20:59.001Z</time></trkpt><trkpt lat="42.772064218368" lon="10.400606803744738"><ele>16.25</ele><time>2026-04-19T13:21:00.001Z</time></trkpt><trkpt lat="42.7719660683616" lon="10.400482185445076"><ele>16.5</ele><time>2026-04-19T13:21:01.001Z</time></trkpt><trkpt lat="42.77187153177836" lon="10.400361791466697"><ele>16.75</ele><time>2026-04-19T13:21:02.002Z</time></trkpt><trkpt lat="42.771787511553526" lon="10.40024257193911"><ele>17.0</ele><time>2026-04-19T13:21:03.002Z</time></trkpt><trkpt lat="42.771701695206225" lon="10.400128748267916"><ele>17.0</ele><time>2026-04-19T13:21:04.002Z</time></trkpt><trkpt lat="42.77160435355915" lon="10.400014310994138"><ele>17.0</ele><time>2026-04-19T13:21:05.002Z</time></trkpt><trkpt lat="42.77150649459183" lon="10.399881495747252"><ele>17.0</ele><time>2026-04-19T13:21:06.001Z</time></trkpt><trkpt lat="42.771400939692" lon="10.399747300250276"><ele>17.0</ele><time>2026-04-19T13:21:07.001Z</time></trkpt><trkpt lat="42.771288274454456" lon="10.399612917850709"><ele>17.666666666666668</ele><time>2026-04-19T13:21:08.001Z</time></trkpt><trkpt lat="42.77117710082162" lon="10.399471228122195"><ele>18.333333333333332</ele><time>2026-04-19T13:21:09.001Z</time></trkpt><trkpt lat="42.77106258247654" lon="10.39933106481423"><ele>19.0</ele><time>2026-04-19T13:21:10.001Z</time></trkpt><trkpt lat="42.77094076556808" lon="10.399185457023854"><ele>18.0</ele><time>2026-04-19T13:21:11.001Z</time></trkpt><trkpt lat="42.77083091081471" lon="10.399048520406172"><ele>17.0</ele><time>2026-04-19T13:21:12.002Z</time></trkpt><trkpt lat="42.77072070188408" lon="10.398911352265188"><ele>16.0</ele><time>2026-04-19T13:21:13.002Z</time></trkpt><trkpt lat="42.77061080137275" lon="10.398767531702331"><ele>2.0</ele><time>2026-04-19T13:21:14.001Z</time></trkpt><trkpt lat="42.76505265276523" lon="10.395617132918083"><ele>1.9999999999999998</ele><time>2026-04-19T13:22:15Z</time></trkpt><trkpt lat="42.764972839262185" lon="10.395677771132444"><ele>2.0</ele><time>2026-04-19T13:22:17Z</time></trkpt><trkpt lat="42.764913060723934" lon="10.395745892879516"><ele>2.0</ele><time>2026-04-19T13:22:19Z</time></trkpt><trkpt lat="42.764835213171786" lon="10.39573514536699"><ele>2.0</ele><time>2026-04-19T13:22:21Z</time></trkpt><trkpt lat="42.764758795015034" lon="10.395624569520784"><ele>1.9999999999999998</ele><time>2026-04-19T13:22:23Z</time></trkpt><trkpt lat="42.7646979172837" lon="10.395551870310955"><ele>2.0</ele><time>2026-04-19T13:22:24Z</time></trkpt><trkpt lat="42.76463017581901" lon="10.39547672574986"><ele>3.0</ele><time>2026-04-19T13:22:25Z</time></trkpt><trkpt lat="42.76456818072678" lon="10.395414465391816"><ele>4.0</ele><time>2026-04-19T13:22:26Z</time></trkpt><trkpt lat="42.764501816179994" lon="10.39534910098558"><ele>5.0</ele><time>2026-04-19T13:22:27Z</time></trkpt><trkpt lat="42.76443351561769" lon="10.395284781793876"><ele>6.0</ele><time>2026-04-19T13:22:28Z</time></trkpt><trkpt lat="42.76436816033153" lon="10.395223236156967"><ele>6.999999999999999</ele><time>2026-04-19T13:22:29Z</time></trkpt><trkpt lat="42.764296796748276" lon="10.395155947206895"><ele>8.0</ele><time>2026-04-19T13:22:30Z</time></trkpt><trkpt lat="42.764228376721505" lon="10.39509202395565"><ele>8.833333333333332</ele><time>2026-04-19T13:22:31Z</time></trkpt><trkpt lat="42.76415935899443" lon="10.395039253025521"><ele>9.666666666666666</ele><time>2026-04-19T13:22:32Z</time></trkpt><trkpt lat="42.764086031108064" lon="10.395003723561688"><ele>10.5</ele><time>2026-04-19T13:22:33Z</time></trkpt><trkpt lat="42.76399038713776" lon="10.394996104575524"><ele>11.333333333333332</ele><time>2026-04-19T13:22:34Z</time></trkpt><trkpt lat="42.76389926037958" lon="10.395007859258357"><ele>12.166666666666666</ele><time>2026-04-19T13:22:35Z</time></trkpt><trkpt lat="42.763812382536194" lon="10.395026991746446"><ele>13.0</ele><time>2026-04-19T13:22:36Z</time></trkpt><trkpt lat="42.763719349102864" lon="10.395026653253716"><ele>13.0</ele><time>2026-04-19T13:22:37Z</time></trkpt><trkpt lat="42.76361571942994" lon="10.39500079831787"><ele>13.0</ele><time>2026-04-19T13:22:38Z</time></trkpt><trkpt lat="42.763514613031056" lon="10.394949510505688"><ele>13.0</ele><time>2026-04-19T13:22:39Z</time></trkpt><trkpt lat="42.76341193429131" lon="10.394906827757525"><ele>13.0</ele><time>2026-04-19T13:22:40Z</time></trkpt><trkpt lat="42.76331520788415" lon="10.394874204912844"><ele>13.0</ele><time>2026-04-19T13:22:41Z</time></trkpt><trkpt lat="42.76322834417178" lon="10.394857755232243"><ele>13.0</ele><time>2026-04-19T13:22:42Z</time></trkpt><trkpt lat="42.763139510165026" lon="10.3948919410377"><ele>13.0</ele><time>2026-04-19T13:22:43Z</time></trkpt><trkpt lat="42.763045240413035" lon="10.39491300561062"><ele>13.0</ele><time>2026-04-19T13:22:44Z</time></trkpt><trkpt lat="42.76295029354004" lon="10.394906438997202"><ele>13.0</ele><time>2026-04-19T13:22:45Z</time></trkpt><trkpt lat="42.762865150277555" lon="10.394920356173087"><ele>13.0</ele><time>2026-04-19T13:22:46Z</time></trkpt><trkpt lat="42.76277727722707" lon="10.394987412296263"><ele>11.833333333333332</ele><time>2026-04-19T13:22:47Z</time></trkpt><trkpt lat="42.76268975659396" lon="10.394956437169986"><ele>10.666666666666666</ele><time>2026-04-19T13:22:48Z</time></trkpt><trkpt lat="42.76262961236732" lon="10.394873826163712"><ele>9.5</ele><time>2026-04-19T13:22:49Z</time></trkpt><trkpt lat="42.76262439060633" lon="10.394742793177517"><ele>8.333333333333332</ele><time>2026-04-19T13:22:50Z</time></trkpt><trkpt lat="42.762651644424075" lon="10.394632488420962"><ele>7.166666666666666</ele><time>2026-04-19T13:22:51Z</time></trkpt><trkpt lat="42.76271202444415" lon="10.394545044607122"><ele>6.0</ele><time>2026-04-19T13:22:52Z</time></trkpt><trkpt lat="42.76276479792736" lon="10.394426025853347"><ele>10.2</ele><time>2026-04-19T13:22:53Z</time></trkpt><trkpt lat="42.762832608330136" lon="10.394322132075601"><ele>14.4</ele><time>2026-04-19T13:22:54Z</time></trkpt><trkpt lat="42.76288681458907" lon="10.394211611123033"><ele>18.6</ele><time>2026-04-19T13:22:55Z</time></trkpt><trkpt lat="42.76293301137283" lon="10.394081721243781"><ele>22.8</ele><time>2026-04-19T13:22:56Z</time></trkpt><trkpt lat="42.762953080638276" lon="10.393931056289352"><ele>27.0</ele><time>2026-04-19T13:22:57Z</time></trkpt><trkpt lat="42.76295226894833" lon="10.393767151124116"><ele>27.75</ele><time>2026-04-19T13:22:58Z</time></trkpt><trkpt lat="42.76294777573187" lon="10.393612901832686"><ele>28.5</ele><time>2026-04-19T13:22:59Z</time></trkpt><trkpt lat="42.76295930027452" lon="10.393446932454795"><ele>29.25</ele><time>2026-04-19T13:23:00Z</time></trkpt><trkpt lat="42.76298559757137" lon="10.393295319613395"><ele>30.0</ele><time>2026-04-19T13:23:01Z</time></trkpt><trkpt lat="42.76302045525539" lon="10.393151239435236"><ele>30.0</ele><time>2026-04-19T13:23:02.001Z</time></trkpt><trkpt lat="42.76306175253568" lon="10.393023085690164"><ele>30.0</ele><time>2026-04-19T13:23:03.001Z</time></trkpt><trkpt lat="42.76309423080614" lon="10.392904880843107"><ele>30.0</ele><time>2026-04-19T13:23:04.001Z</time></trkpt><trkpt lat="42.76313127150962" lon="10.392786764447196"><ele>30.0</ele><time>2026-04-19T13:23:05.001Z</time></trkpt><trkpt lat="42.76315880094465" lon="10.392681449767739"><ele>30.0</ele><time>2026-04-19T13:23:06.001Z</time></trkpt><trkpt lat="42.76304056022514" lon="10.392527361245692"><ele>31.2</ele><time>2026-04-19T13:23:07.001Z</time></trkpt><trkpt lat="42.76296058944336" lon="10.392419772803727"><ele>32.4</ele><time>2026-04-19T13:23:08.001Z</time></trkpt><trkpt lat="42.76288570444257" lon="10.392311295345804"><ele>33.6</ele><time>2026-04-19T13:23:09.001Z</time></trkpt><trkpt lat="42.76282044534314" lon="10.39220420311847"><ele>34.8</ele><time>2026-04-19T13:23:10.001Z</time></trkpt><trkpt lat="42.76275881471718" lon="10.392088980203251"><ele>36.0</ele><time>2026-04-19T13:23:11.001Z</time></trkpt><trkpt lat="42.76270749519921" lon="10.39197428639512"><ele>30.666666666666668</ele><time>2026-04-19T13:23:12.002Z</time></trkpt><trkpt lat="42.76264431475205" lon="10.391856551271283"><ele>25.333333333333336</ele><time>2026-04-19T13:23:13.002Z</time></trkpt><trkpt lat="42.76258141227892" lon="10.391726813852639"><ele>20.0</ele><time>2026-04-19T13:23:14.001Z</time></trkpt><trkpt lat="42.760160419119245" lon="10.384615753507683"><ele>17.0</ele><time>2026-04-19T13:24:15.001Z</time></trkpt><trkpt lat="42.76006987869251" lon="10.384458974887433"><ele>14.0</ele><time>2026-04-19T13:24:16.001Z</time></trkpt><trkpt lat="42.75997174675326" lon="10.384322587721758"><ele>11.0</ele><time>2026-04-19T13:24:17.001Z</time></trkpt><trkpt lat="42.759859941457975" lon="10.384164595015557"><ele>8.0</ele><time>2026-04-19T13:24:18.001Z</time></trkpt><trkpt lat="42.759751694456966" lon="10.384008406902595"><ele>8.0</ele><time>2026-04-19T13:24:19.001Z</time></trkpt><trkpt lat="42.759649070656984" lon="10.383854038694343"><ele>8.0</ele><time>2026-04-19T13:24:20.001Z</time></trkpt><trkpt lat="42.75955410057493" lon="10.383688712506567"><ele>8.0</ele><time>2026-04-19T13:24:21.001Z</time></trkpt><trkpt lat="42.75947769439102" lon="10.383500079994732"><ele>6.0</ele><time>2026-04-19T13:24:22.001Z</time></trkpt><trkpt lat="42.759419990847725" lon="10.383308028001261"><ele>4.0</ele><time>2026-04-19T13:24:23.001Z</time></trkpt><trkpt lat="42.759380512897906" lon="10.383105054855012"><ele>2.0</ele><time>2026-04-19T13:24:24.001Z</time></trkpt><trkpt lat="42.759360581756084" lon="10.382909288398812"><ele>2.0</ele><time>2026-04-19T13:24:25.001Z</time></trkpt><trkpt lat="42.759348369626395" lon="10.382724685822629"><ele>2.0</ele><time>2026-04-19T13:24:26.001Z</time></trkpt><trkpt lat="42.75933843835022" lon="10.382547424938315"><ele>2.0</ele><time>2026-04-19T13:24:27.001Z</time></trkpt><trkpt lat="42.75932855493882" lon="10.382364435976664"><ele>2.0</ele><time>2026-04-19T13:24:28.001Z</time></trkpt><trkpt lat="42.75931859767294" lon="10.382180079849446"><ele>1.75</ele><time>2026-04-19T13:24:29.001Z</time></trkpt><trkpt lat="42.75930862155034" lon="10.381995372004258"><ele>1.5</ele><time>2026-04-19T13:24:30.001Z</time></trkpt><trkpt lat="42.759298723856766" lon="10.38181211345337"><ele>1.25</ele><time>2026-04-19T13:24:31.001Z</time></trkpt><trkpt lat="42.759289692341156" lon="10.38164489241147"><ele>1.0</ele><time>2026-04-19T13:24:32.001Z</time></trkpt><trkpt lat="42.759261843470895" lon="10.381478190645945"><ele>1.0</ele><time>2026-04-19T13:24:33.001Z</time></trkpt><trkpt lat="42.75925281411935" lon="10.381319173261588"><ele>1.0</ele><time>2026-04-19T13:24:34.001Z</time></trkpt><trkpt lat="42.759247944911394" lon="10.38117301472946"><ele>1.0</ele><time>2026-04-19T13:24:35.001Z</time></trkpt><trkpt lat="42.759244343908016" lon="10.38104234290283"><ele>1.0</ele><time>2026-04-19T13:24:36.001Z</time></trkpt><trkpt lat="42.75923756294356" lon="10.380909843133846"><ele>1.0</ele><time>2026-04-19T13:24:37.001Z</time></trkpt><trkpt lat="42.75922843667942" lon="10.380787857608011"><ele>0.9999999999999999</ele><time>2026-04-19T13:24:38.001Z</time></trkpt><trkpt lat="42.759220911638955" lon="10.380681236935935"><ele>1.0</ele><time>2026-04-19T13:24:39.001Z</time></trkpt><trkpt lat="42.75922890856073" lon="10.380579600492188"><ele>1.0</ele><time>2026-04-19T13:24:40.001Z</time></trkpt><trkpt lat="42.75922227959786" lon="10.38048615001516"><ele>1.0</ele><time>2026-04-19T13:24:41.001Z</time></trkpt><trkpt lat="42.75921582116164" lon="10.38039911246503"><ele>0.9999999999999999</ele><time>2026-04-19T13:24:42.001Z</time></trkpt><trkpt lat="42.759204689018006" lon="10.3802495673085"><ele>1.0</ele><time>2026-04-19T13:24:44.001Z</time></trkpt><trkpt lat="42.759197305507094" lon="10.380114030406551"><ele>1.2000000000000002</ele><time>2026-04-19T13:24:46.001Z</time></trkpt><trkpt lat="42.75918961392217" lon="10.379949172512534"><ele>1.4000000000000001</ele><time>2026-04-19T13:24:48.001Z</time></trkpt><trkpt lat="42.7591876065031" lon="10.37985644275054"><ele>1.6</ele><time>2026-04-19T13:24:50.001Z</time></trkpt><trkpt lat="42.75917687667922" lon="10.379754185881328"><ele>1.8</ele><time>2026-04-19T13:25:42.001Z</time></trkpt><trkpt lat="42.759095993113995" lon="10.379652589217214"><ele>2.0</ele><time>2026-04-19T13:25:44.001Z</time></trkpt><trkpt lat="42.75899694435257" lon="10.37965308839202"><ele>2.0</ele><time>2026-04-19T13:25:46.001Z</time></trkpt><trkpt lat="42.75891475264221" lon="10.379672331559906"><ele>2.0</ele><time>2026-04-19T13:25:47.001Z</time></trkpt><trkpt lat="42.75883249354291" lon="10.379695283940036"><ele>2.0</ele><time>2026-04-19T13:25:48.001Z</time></trkpt><trkpt lat="42.75871809110189" lon="10.37971279050773"><ele>2.0</ele><time>2026-04-19T13:25:49.001Z</time></trkpt><trkpt lat="42.75860081722148" lon="10.379720645359203"><ele>2.0</ele><time>2026-04-19T13:25:50.001Z</time></trkpt><trkpt lat="42.758487834382734" lon="10.379727466062954"><ele>1.5</ele><time>2026-04-19T13:25:51.001Z</time></trkpt><trkpt lat="42.758355891086644" lon="10.379738198997067"><ele>1.0</ele><time>2026-04-19T13:25:52.001Z</time></trkpt><trkpt lat="42.75821148973955" lon="10.379748003926078"><ele>0.5</ele><time>2026-04-19T13:25:53.001Z</time></trkpt><trkpt lat="42.75806555007249" lon="10.379754599524425"><ele>0.0</ele><time>2026-04-19T13:25:54.001Z</time></trkpt><trkpt lat="42.757929027200845" lon="10.379755735410226"><ele>0.0</ele><time>2026-04-19T13:25:55.001Z</time></trkpt><trkpt lat="42.757788413951396" lon="10.37977073969768"><ele>0.0</ele><time>2026-04-19T13:25:56.001Z</time></trkpt><trkpt lat="42.75764773876435" lon="10.379807142325697"><ele>0.0</ele><time>2026-04-19T13:25:57.001Z</time></trkpt><trkpt lat="42.75751592697345" lon="10.379856413845141"><ele>0.0</ele><time>2026-04-19T13:25:58.001Z</time></trkpt><trkpt lat="42.75740536987955" lon="10.379884992631476"><ele>0.4</ele><time>2026-04-19T13:25:59.001Z</time></trkpt><trkpt lat="42.75732417373873" lon="10.379917629692319"><ele>0.8</ele><time>2026-04-19T13:26:00.001Z</time></trkpt><trkpt lat="42.75725623606069" lon="10.379916003991594"><ele>1.2000000000000002</ele><time>2026-04-19T13:26:01.001Z</time></trkpt><trkpt lat="42.75725203415162" lon="10.38013662483369"><ele>1.6</ele><time>2026-04-19T13:26:04.001Z</time></trkpt><trkpt lat="42.75730365188628" lon="10.3802026184286"><ele>2.0</ele><time>2026-04-19T13:26:05.001Z</time></trkpt><trkpt lat="42.757329978609725" lon="10.380322854611864"><ele>2.0</ele><time>2026-04-19T13:26:06.001Z</time></trkpt><trkpt lat="42.75737390856506" lon="10.380454779116368"><ele>2.0</ele><time>2026-04-19T13:26:07.001Z</time></trkpt><trkpt lat="42.75741532859947" lon="10.380600976618611"><ele>2.0</ele><time>2026-04-19T13:26:08.001Z</time></trkpt><trkpt lat="42.757440143587374" lon="10.380755013283803"><ele>2.0</ele><time>2026-04-19T13:26:09.001Z</time></trkpt><trkpt lat="42.757447399488385" lon="10.38092371054053"><ele>3.0</ele><time>2026-04-19T13:26:10.001Z</time></trkpt><trkpt lat="42.757446659306375" lon="10.38111002272224"><ele>4.0</ele><time>2026-04-19T13:26:11.001Z</time></trkpt><trkpt lat="42.757443372372" lon="10.381303007993449"><ele>5.0</ele><time>2026-04-19T13:26:12.001Z</time></trkpt><trkpt lat="42.75744321066378" lon="10.381500219009498"><ele>6.0</ele><time>2026-04-19T13:26:13.001Z</time></trkpt><trkpt lat="42.757442464282356" lon="10.381696062931585"><ele>0.0</ele><time>2026-04-19T13:26:14.001Z</time></trkpt><trkpt lat="42.75782285371244" lon="10.387716030222501"><ele>0.0</ele><time>2026-04-19T13:27:15.002Z</time></trkpt><trkpt lat="42.757841341643946" lon="10.387828636396868"><ele>0.0</ele><time>2026-04-19T13:27:17.002Z</time></trkpt><trkpt lat="42.75782855247104" lon="10.387925376425919"><ele>0.0</ele><time>2026-04-19T13:27:21.002Z</time></trkpt><trkpt lat="42.75781297757524" lon="10.388062756332886"><ele>0.0</ele><time>2026-04-19T13:27:24.002Z</time></trkpt><trkpt lat="42.75781022120612" lon="10.38815878980498"><ele>0.0</ele><time>2026-04-19T13:27:25.002Z</time></trkpt><trkpt lat="42.75782377011286" lon="10.388260710588597"><ele>0.0</ele><time>2026-04-19T13:27:26.002Z</time></trkpt><trkpt lat="42.757827119093754" lon="10.388370508198928"><ele>0.0</ele><time>2026-04-19T13:27:27.002Z</time></trkpt><trkpt lat="42.75782704935892" lon="10.388487548962265"><ele>0.0</ele><time>2026-04-19T13:27:28.002Z</time></trkpt><trkpt lat="42.75782152142178" lon="10.388616783840016"><ele>0.0</ele><time>2026-04-19T13:27:29.002Z</time></trkpt><trkpt lat="42.75779112869773" lon="10.388762089692246"><ele>0.0</ele><time>2026-04-19T13:27:30.002Z</time></trkpt><trkpt lat="42.75773682811432" lon="10.38890955144145"><ele>0.0</ele><time>2026-04-19T13:27:31.002Z</time></trkpt><trkpt lat="42.757648057880466" lon="10.389032224524295"><ele>0.0</ele><time>2026-04-19T13:27:32.002Z</time></trkpt><trkpt lat="42.7576355523384" lon="10.389204787993473"><ele>0.0</ele><time>2026-04-19T13:27:33.002Z</time></trkpt><trkpt lat="42.7576346224881" lon="10.389336904590035"><ele>0.0</ele><time>2026-04-19T13:27:34.002Z</time></trkpt><trkpt lat="42.75765491388404" lon="10.389469455598993"><ele>0.0</ele><time>2026-04-19T13:27:35.002Z</time></trkpt><trkpt lat="42.75771743756728" lon="10.389576134137197"><ele>0.0</ele><time>2026-04-19T13:27:36.002Z</time></trkpt><trkpt lat="42.75777222968345" lon="10.389655311760052"><ele>0.14285714285714285</ele><time>2026-04-19T13:27:37.002Z</time></trkpt><trkpt lat="42.757796607929095" lon="10.389762776104542"><ele>0.2857142857142857</ele><time>2026-04-19T13:27:38.002Z</time></trkpt><trkpt lat="42.757809504147474" lon="10.389870431196782"><ele>0.42857142857142855</ele><time>2026-04-19T13:27:39.002Z</time></trkpt><trkpt lat="42.757806604994755" lon="10.389958119740081"><ele>0.5714285714285714</ele><time>2026-04-19T13:27:40.002Z</time></trkpt><trkpt lat="42.7578004966686" lon="10.390069843510258"><ele>0.7142857142857142</ele><time>2026-04-19T13:27:41.002Z</time></trkpt><trkpt lat="42.757796809199014" lon="10.390167954216947"><ele>0.8571428571428571</ele><time>2026-04-19T13:27:42.002Z</time></trkpt><trkpt lat="42.75779514564901" lon="10.390258553083598"><ele>1.0</ele><time>2026-04-19T13:27:43.002Z</time></trkpt><trkpt lat="42.75781078276606" lon="10.39040339754107"><ele>1.0</ele><time>2026-04-19T13:27:45.002Z</time></trkpt><trkpt lat="42.75785649742324" lon="10.390484925606255"><ele>1.0</ele><time>2026-04-19T13:27:46.002Z</time></trkpt><trkpt lat="42.7578780062355" lon="10.390589549731514"><ele>1.0</ele><time>2026-04-19T13:27:47.002Z</time></trkpt><trkpt lat="42.75787433591458" lon="10.390746468932033"><ele>1.0</ele><time>2026-04-19T13:27:49.002Z</time></trkpt><trkpt lat="42.757797133533145" lon="10.390884477337439"><ele>1.0</ele><time>2026-04-19T13:27:51.002Z</time></trkpt><trkpt lat="42.75773362910595" lon="10.390967737541228"><ele>2.0</ele><time>2026-04-19T13:27:52.002Z</time></trkpt><trkpt lat="42.757659631796656" lon="10.39105461875421"><ele>3.0</ele><time>2026-04-19T13:27:53.002Z</time></trkpt><trkpt lat="42.75759415581505" lon="10.391157091491712"><ele>3.9999999999999996</ele><time>2026-04-19T13:27:54.002Z</time></trkpt><trkpt lat="42.75753566923891" lon="10.391278517525427"><ele>5.0</ele><time>2026-04-19T13:27:55.002Z</time></trkpt><trkpt lat="42.75748490045033" lon="10.391386427399313"><ele>6.0</ele><time>2026-04-19T13:27:56.002Z</time></trkpt><trkpt lat="42.757432073566356" lon="10.39147242469451"><ele>6.0</ele><time>2026-04-19T13:27:57.002Z</time></trkpt><trkpt lat="42.7573758146876" lon="10.39154310126916"><ele>6.0</ele><time>2026-04-19T13:27:58.002Z</time></trkpt><trkpt lat="42.757309893144686" lon="10.391612874088397"><ele>6.0</ele><time>2026-04-19T13:27:59.002Z</time></trkpt><trkpt lat="42.75722380405435" lon="10.391710922054898"><ele>6.0</ele><time>2026-04-19T13:28:00.002Z</time></trkpt><trkpt lat="42.75714483633674" lon="10.391786010464713"><ele>6.0</ele><time>2026-04-19T13:28:01.002Z</time></trkpt><trkpt lat="42.75705435771586" lon="10.39185697106699"><ele>6.0</ele><time>2026-04-19T13:28:02.002Z</time></trkpt><trkpt lat="42.756957467273764" lon="10.391917492576315"><ele>6.0</ele><time>2026-04-19T13:28:03.002Z</time></trkpt><trkpt lat="42.756848676558974" lon="10.391962708630945"><ele>6.0</ele><time>2026-04-19T13:28:04.002Z</time></trkpt><trkpt lat="42.75672581972632" lon="10.392011511338389"><ele>6.0</ele><time>2026-04-19T13:28:05.002Z</time></trkpt><trkpt lat="42.75659748272107" lon="10.392054084211933"><ele>8.4</ele><time>2026-04-19T13:28:06.002Z</time></trkpt><trkpt lat="42.756478574863124" lon="10.392078637397137"><ele>10.8</ele><time>2026-04-19T13:28:07.002Z</time></trkpt><trkpt lat="42.75636717393031" lon="10.392068460063122"><ele>13.200000000000001</ele><time>2026-04-19T13:28:08.002Z</time></trkpt><trkpt lat="42.75627246480006" lon="10.392069621100632"><ele>15.6</ele><time>2026-04-19T13:28:09.002Z</time></trkpt><trkpt lat="42.75619366905896" lon="10.392095696270994"><ele>18.0</ele><time>2026-04-19T13:28:10.002Z</time></trkpt><trkpt lat="42.75614109808465" lon="10.392200959799457"><ele>18.0</ele><time>2026-04-19T13:28:11.002Z</time></trkpt><trkpt lat="42.75615092624228" lon="10.39234368355204"><ele>18.0</ele><time>2026-04-19T13:28:12.002Z</time></trkpt><trkpt lat="42.756167727066654" lon="10.392451228482075"><ele>18.0</ele><time>2026-04-19T13:28:13.002Z</time></trkpt><trkpt lat="42.75621157873025" lon="10.392544599973185"><ele>18.0</ele><time>2026-04-19T13:28:14.002Z</time></trkpt><trkpt lat="42.75654116841447" lon="10.39814415816412"><ele>19.0</ele><time>2026-04-19T13:29:15.001Z</time></trkpt><trkpt lat="42.75656074778777" lon="10.398284425451616"><ele>20.0</ele><time>2026-04-19T13:29:16.001Z</time></trkpt><trkpt lat="42.75657391415862" lon="10.398406297353471"><ele>21.0</ele><time>2026-04-19T13:29:17.001Z</time></trkpt><trkpt lat="42.7565859188676" lon="10.398520259620453"><ele>22.0</ele><time>2026-04-19T13:29:18.001Z</time></trkpt><trkpt lat="42.75659721108401" lon="10.398630754106899"><ele>23.0</ele><time>2026-04-19T13:29:19.001Z</time></trkpt><trkpt lat="42.7566123111217" lon="10.398744076133482"><ele>24.0</ele><time>2026-04-19T13:29:20.002Z</time></trkpt><trkpt lat="42.756624841145445" lon="10.398844354059536"><ele>24.0</ele><time>2026-04-19T13:29:21.002Z</time></trkpt><trkpt lat="42.756641072599855" lon="10.398944322237156"><ele>24.0</ele><time>2026-04-19T13:29:22.002Z</time></trkpt><trkpt lat="42.75664487276879" lon="10.399057108776072"><ele>24.0</ele><time>2026-04-19T13:29:23.002Z</time></trkpt><trkpt lat="42.75667735523981" lon="10.399203564632254"><ele>24.0</ele><time>2026-04-19T13:29:24.001Z</time></trkpt><trkpt lat="42.7567103180092" lon="10.399337796945195"><ele>24.0</ele><time>2026-04-19T13:29:25.001Z</time></trkpt><trkpt lat="42.75673387142687" lon="10.399478290519793"><ele>24.0</ele><time>2026-04-19T13:29:26.002Z</time></trkpt><trkpt lat="42.756731172679984" lon="10.399626394674058"><ele>24.0</ele><time>2026-04-19T13:29:27.002Z</time></trkpt><trkpt lat="42.7567499053427" lon="10.399781304964812"><ele>24.0</ele><time>2026-04-19T13:29:28.001Z</time></trkpt><trkpt lat="42.75674916372979" lon="10.399934130735863"><ele>24.0</ele><time>2026-04-19T13:29:29.001Z</time></trkpt><trkpt lat="42.75673175009655" lon="10.400080496552853"><ele>24.0</ele><time>2026-04-19T13:29:30.002Z</time></trkpt><trkpt lat="42.75671522948544" lon="10.400231574815148"><ele>22.4</ele><time>2026-04-19T13:29:31.002Z</time></trkpt><trkpt lat="42.75669641557595" lon="10.400350263886535"><ele>20.799999999999997</ele><time>2026-04-19T13:29:32.002Z</time></trkpt><trkpt lat="42.756689093425415" lon="10.400482844100663"><ele>19.200000000000003</ele><time>2026-04-19T13:29:33.002Z</time></trkpt><trkpt lat="42.75670090484915" lon="10.40062459444859"><ele>17.6</ele><time>2026-04-19T13:29:34.002Z</time></trkpt><trkpt lat="42.756718904320685" lon="10.400780590483027"><ele>16.0</ele><time>2026-04-19T13:29:35.001Z</time></trkpt><trkpt lat="42.756725902270546" lon="10.40093646703862"><ele>14.8</ele><time>2026-04-19T13:29:36.002Z</time></trkpt><trkpt lat="42.756728204443235" lon="10.401081578328947"><ele>13.600000000000001</ele><time>2026-04-19T13:29:37.002Z</time></trkpt><trkpt lat="42.75672296568714" lon="10.401228863060302"><ele>12.4</ele><time>2026-04-19T13:29:38.001Z</time></trkpt><trkpt lat="42.75671391215093" lon="10.401365917662496"><ele>11.2</ele><time>2026-04-19T13:29:39.001Z</time></trkpt><trkpt lat="42.756707524259845" lon="10.40150351526355"><ele>10.0</ele><time>2026-04-19T13:29:40.001Z</time></trkpt><trkpt lat="42.75671409537445" lon="10.401647169814085"><ele>9.4</ele><time>2026-04-19T13:29:41.001Z</time></trkpt><trkpt lat="42.75673307530358" lon="10.401765154197179"><ele>8.8</ele><time>2026-04-19T13:29:42.001Z</time></trkpt><trkpt lat="42.75675085050615" lon="10.401885320410988"><ele>8.2</ele><time>2026-04-19T13:29:43.001Z</time></trkpt><trkpt lat="42.756790660410196" lon="10.401968909800454"><ele>7.6</ele><time>2026-04-19T13:29:44.001Z</time></trkpt><trkpt lat="42.756805448178525" lon="10.402119187253964"><ele>7.0</ele><time>2026-04-19T13:29:46.001Z</time></trkpt><trkpt lat="42.75670820778493" lon="10.402160880882823"><ele>7.000000000000001</ele><time>2026-04-19T13:29:49.001Z</time></trkpt><trkpt lat="42.75661113563005" lon="10.4021565216184"><ele>7.0</ele><time>2026-04-19T13:29:51.001Z</time></trkpt><trkpt lat="42.756523107177664" lon="10.402175061449194"><ele>7.0</ele><time>2026-04-19T13:29:53.001Z</time></trkpt><trkpt lat="42.756426777819534" lon="10.402211126187662"><ele>7.0</ele><time>2026-04-19T13:29:55.001Z</time></trkpt><trkpt lat="42.75634720931675" lon="10.402283816423846"><ele>7.000000000000001</ele><time>2026-04-19T13:29:57.001Z</time></trkpt><trkpt lat="42.75628111694496" lon="10.402292564602634"><ele>7.0</ele><time>2026-04-19T13:29:58.001Z</time></trkpt><trkpt lat="42.75622428906668" lon="10.402347704189786"><ele>6.5</ele><time>2026-04-19T13:29:59.001Z</time></trkpt><trkpt lat="42.75612348780855" lon="10.402396687341142"><ele>6.0</ele><time>2026-04-19T13:30:01.001Z</time></trkpt><trkpt lat="42.75603414344315" lon="10.402465625660437"><ele>5.5</ele><time>2026-04-19T13:30:03.001Z</time></trkpt><trkpt lat="42.7559641984922" lon="10.402505978955727"><ele>5.0</ele><time>2026-04-19T13:30:06.001Z</time></trkpt><trkpt lat="42.754957150575656" lon="10.40081508699533"><ele>5.0</ele><time>2026-04-19T13:31:15Z</time></trkpt><trkpt lat="42.754892458134464" lon="10.400713694695815"><ele>5.0</ele><time>2026-04-19T13:31:17Z</time></trkpt><trkpt lat="42.75493259528054" lon="10.400574245821412"><ele>5.0</ele><time>2026-04-19T13:31:18Z</time></trkpt><trkpt lat="42.75497236654748" lon="10.400401015090075"><ele>5.0</ele><time>2026-04-19T13:31:20Z</time></trkpt><trkpt lat="42.754971018655" lon="10.400278138476803"><ele>5.0</ele><time>2026-04-19T13:31:21Z</time></trkpt><trkpt lat="42.75494919086493" lon="10.400147304259043"><ele>5.0</ele><time>2026-04-19T13:31:22Z</time></trkpt><trkpt lat="42.754925106345844" lon="10.40005248754116"><ele>5.0</ele><time>2026-04-19T13:31:23Z</time></trkpt><trkpt lat="42.75487236649768" lon="10.399954493639473"><ele>5.0</ele><time>2026-04-19T13:31:25Z</time></trkpt><trkpt lat="42.75477692345175" lon="10.399946428367748"><ele>5.0</ele><time>2026-04-19T13:31:27.001Z</time></trkpt><trkpt lat="42.75470233825279" lon="10.399967442553391"><ele>5.0</ele><time>2026-04-19T13:31:28.001Z</time></trkpt><trkpt lat="42.75462211506009" lon="10.399969569453722"><ele>5.0</ele><time>2026-04-19T13:31:29.001Z</time></trkpt><trkpt lat="42.75452446733632" lon="10.399984699245831"><ele>5.0</ele><time>2026-04-19T13:31:30.001Z</time></trkpt><trkpt lat="42.754432291541164" lon="10.399999763380684"><ele>5.0</ele><time>2026-04-19T13:31:31.001Z</time></trkpt><trkpt lat="42.75434136948049" lon="10.400014072266993"><ele>5.0</ele><time>2026-04-19T13:31:32.001Z</time></trkpt><trkpt lat="42.75425225117815" lon="10.40002669459455"><ele>5.0</ele><time>2026-04-19T13:31:33.001Z</time></trkpt><trkpt lat="42.754161909956686" lon="10.400041093068408"><ele>5.0</ele><time>2026-04-19T13:31:34.002Z</time></trkpt><trkpt lat="42.754071757546384" lon="10.400056677859018"><ele>6.166666666666667</ele><time>2026-04-19T13:31:35.002Z</time></trkpt><trkpt lat="42.753993777336" lon="10.400075211356654"><ele>7.333333333333334</ele><time>2026-04-19T13:31:36.002Z</time></trkpt><trkpt lat="42.753922920291295" lon="10.400014642118288"><ele>8.5</ele><time>2026-04-19T13:31:37.002Z</time></trkpt><trkpt lat="42.75383560502821" lon="10.400010603597785"><ele>9.666666666666666</ele><time>2026-04-19T13:31:38.002Z</time></trkpt><trkpt lat="42.753730302865165" lon="10.39995038114127"><ele>10.833333333333334</ele><time>2026-04-19T13:31:40.001Z</time></trkpt><trkpt lat="42.75367452417127" lon="10.399866692500165"><ele>12.0</ele><time>2026-04-19T13:31:41.001Z</time></trkpt><trkpt lat="42.753609128866955" lon="10.399792231344328"><ele>12.0</ele><time>2026-04-19T13:31:42.002Z</time></trkpt><trkpt lat="42.75354965089475" lon="10.399731834033709"><ele>12.0</ele><time>2026-04-19T13:31:43.002Z</time></trkpt><trkpt lat="42.75348279993447" lon="10.399665711319567"><ele>12.0</ele><time>2026-04-19T13:31:44.002Z</time></trkpt><trkpt lat="42.75342084911693" lon="10.399597620842924"><ele>12.0</ele><time>2026-04-19T13:31:45.002Z</time></trkpt><trkpt lat="42.75337112843861" lon="10.399540064641634"><ele>12.0</ele><time>2026-04-19T13:31:46.002Z</time></trkpt><trkpt lat="42.75331747902754" lon="10.399477960597663"><ele>12.0</ele><time>2026-04-19T13:31:47.002Z</time></trkpt><trkpt lat="42.7532560136381" lon="10.399406886490796"><ele>14.8</ele><time>2026-04-19T13:31:48.002Z</time></trkpt><trkpt lat="42.753204050620695" lon="10.399348099727398"><ele>17.6</ele><time>2026-04-19T13:31:49.002Z</time></trkpt><trkpt lat="42.75308696097148" lon="10.399238763009404"><ele>20.400000000000002</ele><time>2026-04-19T13:31:51.002Z</time></trkpt><trkpt lat="42.753019252935765" lon="10.39918919210831"><ele>23.2</ele><time>2026-04-19T13:31:52.002Z</time></trkpt><trkpt lat="42.75293659184716" lon="10.399159255489637"><ele>26.0</ele><time>2026-04-19T13:31:53.002Z</time></trkpt><trkpt lat="42.75286852378092" lon="10.399088350883435"><ele>25.999999999999996</ele><time>2026-04-19T13:31:54.002Z</time></trkpt><trkpt lat="42.752793705786466" lon="10.399038091666931"><ele>26.0</ele><time>2026-04-19T13:31:55.002Z</time></trkpt><trkpt lat="42.752716989095504" lon="10.398986557038963"><ele>26.0</ele><time>2026-04-19T13:31:56.002Z</time></trkpt><trkpt lat="42.7526375512639" lon="10.398931126033967"><ele>26.0</ele><time>2026-04-19T13:31:57.002Z</time></trkpt><trkpt lat="42.75256464994144" lon="10.398874093737415"><ele>25.999999999999996</ele><time>2026-04-19T13:31:58.002Z</time></trkpt><trkpt lat="42.752481981341326" lon="10.398808615246043"><ele>26.0</ele><time>2026-04-19T13:31:59.002Z</time></trkpt><trkpt lat="42.75240525515833" lon="10.398751715182678"><ele>28.6</ele><time>2026-04-19T13:32:00.002Z</time></trkpt><trkpt lat="42.752326281945145" lon="10.398693148693773"><ele>31.200000000000003</ele><time>2026-04-19T13:32:01.002Z</time></trkpt><trkpt lat="42.752238826664076" lon="10.39864906175817"><ele>33.8</ele><time>2026-04-19T13:32:02.002Z</time></trkpt><trkpt lat="42.7521583152207" lon="10.398585589635639"><ele>36.4</ele><time>2026-04-19T13:32:03.002Z</time></trkpt><trkpt lat="42.752095491074215" lon="10.398488476853998"><ele>39.0</ele><time>2026-04-19T13:32:04.002Z</time></trkpt><trkpt lat="42.75202196894614" lon="10.398397819753017"><ele>39.0</ele><time>2026-04-19T13:32:05.002Z</time></trkpt><trkpt lat="42.75193281888031" lon="10.398353496963775"><ele>39.0</ele><time>2026-04-19T13:32:06.002Z</time></trkpt><trkpt lat="42.75185119157809" lon="10.398292029061897"><ele>39.0</ele><time>2026-04-19T13:32:07.002Z</time></trkpt><trkpt lat="42.75176846244353" lon="10.398229361314407"><ele>39.0</ele><time>2026-04-19T13:32:08.002Z</time></trkpt><trkpt lat="42.75168366694098" lon="10.39814414894805"><ele>39.0</ele><time>2026-04-19T13:32:09.002Z</time></trkpt><trkpt lat="42.75159477025059" lon="10.398078028097201"><ele>40.2</ele><time>2026-04-19T13:32:10.002Z</time></trkpt><trkpt lat="42.751516113440836" lon="10.398006684865484"><ele>41.4</ele><time>2026-04-19T13:32:11.002Z</time></trkpt><trkpt lat="42.75144361738221" lon="10.397940484450993"><ele>42.6</ele><time>2026-04-19T13:32:12.002Z</time></trkpt><trkpt lat="42.75136291455789" lon="10.397867803284507"><ele>43.8</ele><time>2026-04-19T13:32:13.002Z</time></trkpt><trkpt lat="42.7512876510469" lon="10.397807187865041"><ele>45.0</ele><time>2026-04-19T13:32:14.002Z</time></trkpt><trkpt lat="42.747376470875516" lon="10.393144103020571"><ele>53.66666666666667</ele><time>2026-04-19T13:33:15.001Z</time></trkpt><trkpt lat="42.74731781580202" lon="10.393179070753055"><ele>62.333333333333336</ele><time>2026-04-19T13:33:16.001Z</time></trkpt><trkpt lat="42.747254025071044" lon="10.3932347510606"><ele>71.0</ele><time>2026-04-19T13:33:17.001Z</time></trkpt><trkpt lat="42.74716197647541" lon="10.393263944830075"><ele>79.66666666666667</ele><time>2026-04-19T13:33:19.001Z</time></trkpt><trkpt lat="42.74709879189093" lon="10.393232654789587"><ele>88.33333333333334</ele><time>2026-04-19T13:33:21.001Z</time></trkpt><trkpt lat="42.74701377349232" lon="10.393137874753261"><ele>97.0</ele><time>2026-04-19T13:33:23.001Z</time></trkpt><trkpt lat="42.747019707958856" lon="10.39303577540775"><ele>96.8</ele><time>2026-04-19T13:33:24.001Z</time></trkpt><trkpt lat="42.74698728428722" lon="10.392927259059087"><ele>96.6</ele><time>2026-04-19T13:33:25.001Z</time></trkpt><trkpt lat="42.74695229251841" lon="10.392811545692783"><ele>96.39999999999999</ele><time>2026-04-19T13:33:26.001Z</time></trkpt><trkpt lat="42.74691673428653" lon="10.39269395910732"><ele>96.19999999999999</ele><time>2026-04-19T13:33:27.001Z</time></trkpt><trkpt lat="42.746816766271685" lon="10.39260345803816"><ele>96.0</ele><time>2026-04-19T13:33:28.001Z</time></trkpt><trkpt lat="42.7467556333876" lon="10.392497952557344"><ele>98.0</ele><time>2026-04-19T13:33:29.001Z</time></trkpt><trkpt lat="42.7466892619214" lon="10.392417955247572"><ele>100.0</ele><time>2026-04-19T13:33:30.001Z</time></trkpt><trkpt lat="42.74666420065433" lon="10.39230546478507"><ele>102.0</ele><time>2026-04-19T13:33:31.001Z</time></trkpt><trkpt lat="42.746632700298754" lon="10.39221627720248"><ele>104.0</ele><time>2026-04-19T13:33:32.002Z</time></trkpt><trkpt lat="42.74660767793175" lon="10.392101882037695"><ele>106.0</ele><time>2026-04-19T13:33:33.002Z</time></trkpt><trkpt lat="42.74655793998998" lon="10.391995136729122"><ele>108.0</ele><time>2026-04-19T13:33:34.002Z</time></trkpt><trkpt lat="42.74653160532072" lon="10.39189244599958"><ele>109.4</ele><time>2026-04-19T13:33:35.002Z</time></trkpt><trkpt lat="42.74647738594887" lon="10.39179542553015"><ele>110.80000000000001</ele><time>2026-04-19T13:33:36.002Z</time></trkpt><trkpt lat="42.74643852810728" lon="10.39168546206501"><ele>112.2</ele><time>2026-04-19T13:33:37.002Z</time></trkpt><trkpt lat="42.746390268698434" lon="10.39158065897913"><ele>113.6</ele><time>2026-04-19T13:33:38.002Z</time></trkpt><trkpt lat="42.746342993410444" lon="10.391472621753426"><ele>115.0</ele><time>2026-04-19T13:33:39.002Z</time></trkpt><trkpt lat="42.74629136267374" lon="10.39135640295558"><ele>115.33333333333334</ele><time>2026-04-19T13:33:40.002Z</time></trkpt><trkpt lat="42.74623603728628" lon="10.391252353809179"><ele>115.66666666666667</ele><time>2026-04-19T13:33:41.002Z</time></trkpt><trkpt lat="42.746199038706976" lon="10.391165897204786"><ele>116.0</ele><time>2026-04-19T13:33:42.001Z</time></trkpt><trkpt lat="42.74615950960013" lon="10.391087238573878"><ele>116.33333333333334</ele><time>2026-04-19T13:33:43.001Z</time></trkpt><trkpt lat="42.74611126237995" lon="10.390979849886788"><ele>116.66666666666667</ele><time>2026-04-19T13:33:45.001Z</time></trkpt><trkpt lat="42.7460681458245" lon="10.390862480409375"><ele>117.0</ele><time>2026-04-19T13:33:49.002Z</time></trkpt><trkpt lat="42.74603641244654" lon="10.390672222627614"><ele>119.19999999999999</ele><time>2026-04-19T13:33:51.002Z</time></trkpt><trkpt lat="42.74599786644077" lon="10.390573565483894"><ele>121.39999999999999</ele><time>2026-04-19T13:33:52.002Z</time></trkpt><trkpt lat="42.74594484213254" lon="10.390437372118189"><ele>123.60000000000001</ele><time>2026-04-19T13:33:53.002Z</time></trkpt><trkpt lat="42.74589025460267" lon="10.39029988765373"><ele>125.80000000000001</ele><time>2026-04-19T13:33:54.002Z</time></trkpt><trkpt lat="42.745846199828414" lon="10.390150309861879"><ele>128.0</ele><time>2026-04-19T13:33:55.002Z</time></trkpt><trkpt lat="42.74579195298682" lon="10.390013510133775"><ele>127.75</ele><time>2026-04-19T13:33:56.002Z</time></trkpt><trkpt lat="42.745724137986414" lon="10.389857480180806"><ele>127.5</ele><time>2026-04-19T13:33:57.002Z</time></trkpt><trkpt lat="42.745664331212865" lon="10.389710187102724"><ele>127.25</ele><time>2026-04-19T13:33:58.002Z</time></trkpt><trkpt lat="42.745608234817766" lon="10.389582718273777"><ele>127.0</ele><time>2026-04-19T13:33:59.002Z</time></trkpt><trkpt lat="42.74555369097467" lon="10.38945604591635"><ele>127.0</ele><time>2026-04-19T13:34:00.002Z</time></trkpt><trkpt lat="42.74549536070139" lon="10.389338754274675"><ele>126.99999999999999</ele><time>2026-04-19T13:34:01.002Z</time></trkpt><trkpt lat="42.74542075359839" lon="10.389232906967631"><ele>126.99999999999999</ele><time>2026-04-19T13:34:02.002Z</time></trkpt><trkpt lat="42.74532935821434" lon="10.389144523546443"><ele>127.0</ele><time>2026-04-19T13:34:03.002Z</time></trkpt><trkpt lat="42.745236553100206" lon="10.389070650491547"><ele>127.0</ele><time>2026-04-19T13:34:04.002Z</time></trkpt><trkpt lat="42.74513952855245" lon="10.38899176945871"><ele>127.8</ele><time>2026-04-19T13:34:05.002Z</time></trkpt><trkpt lat="42.74504131825633" lon="10.388882441618167"><ele>128.6</ele><time>2026-04-19T13:34:06.002Z</time></trkpt><trkpt lat="42.74496483981045" lon="10.388775230098654"><ele>129.39999999999998</ele><time>2026-04-19T13:34:07.002Z</time></trkpt><trkpt lat="42.744890441596596" lon="10.38866435665506"><ele>130.2</ele><time>2026-04-19T13:34:08.002Z</time></trkpt><trkpt lat="42.74482046873609" lon="10.388563380253022"><ele>131.0</ele><time>2026-04-19T13:34:09.002Z</time></trkpt><trkpt lat="42.74476535659952" lon="10.388455947402365"><ele>131.0</ele><time>2026-04-19T13:34:10.002Z</time></trkpt><trkpt lat="42.7447089434401" lon="10.388340018328378"><ele>131.0</ele><time>2026-04-19T13:34:11.002Z</time></trkpt><trkpt lat="42.744653791973796" lon="10.388209485754242"><ele>131.0</ele><time>2026-04-19T13:34:12.002Z</time></trkpt><trkpt lat="42.744594181282686" lon="10.388090220175748"><ele>131.0</ele><time>2026-04-19T13:34:13.002Z</time></trkpt><trkpt lat="42.744517417794675" lon="10.38799579526547"><ele>131.0</ele><time>2026-04-19T13:34:14.002Z</time></trkpt><trkpt lat="42.74304359600563" lon="10.38255386028725"><ele>134.0</ele><time>2026-04-19T13:35:15.001Z</time></trkpt><trkpt lat="42.742971846216186" lon="10.382505973636787"><ele>137.0</ele><time>2026-04-19T13:35:17.001Z</time></trkpt><trkpt lat="42.74291911036175" lon="10.38244278531478"><ele>140.0</ele><time>2026-04-19T13:35:18.001Z</time></trkpt><trkpt lat="42.742851511928066" lon="10.382405464620081"><ele>143.0</ele><time>2026-04-19T13:35:19.001Z</time></trkpt><trkpt lat="42.74279999564199" lon="10.382330782654877"><ele>146.0</ele><time>2026-04-19T13:35:20.001Z</time></trkpt><trkpt lat="42.74279304220867" lon="10.382233738502453"><ele>149.0</ele><time>2026-04-19T13:35:21.001Z</time></trkpt><trkpt lat="42.74283492479087" lon="10.382120635150578"><ele>149.66666666666666</ele><time>2026-04-19T13:35:23.001Z</time></trkpt><trkpt lat="42.7428612184156" lon="10.381929887546566"><ele>150.33333333333334</ele><time>2026-04-19T13:35:25.001Z</time></trkpt><trkpt lat="42.742913415742535" lon="10.381856203092399"><ele>151.0</ele><time>2026-04-19T13:35:26.001Z</time></trkpt><trkpt lat="42.74287975191224" lon="10.381492839793024"><ele>151.0</ele><time>2026-04-19T13:35:35.001Z</time></trkpt><trkpt lat="42.7428384848307" lon="10.38157259941554"><ele>151.0</ele><time>2026-04-19T13:35:37.001Z</time></trkpt><trkpt lat="42.74278158783604" lon="10.38162393407316"><ele>151.0</ele><time>2026-04-19T13:35:39.002Z</time></trkpt><trkpt lat="42.74270834200269" lon="10.381608323299492"><ele>151.0</ele><time>2026-04-19T13:35:43.002Z</time></trkpt><trkpt lat="42.74263884449666" lon="10.381627343901265"><ele>151.0</ele><time>2026-04-19T13:36:13.001Z</time></trkpt><trkpt lat="42.7406429641918" lon="10.379617040424007"><ele>150.4</ele><time>2026-04-19T13:44:15.001Z</time></trkpt><trkpt lat="42.74054990424302" lon="10.379526541169161"><ele>149.8</ele><time>2026-04-19T13:44:16.001Z</time></trkpt><trkpt lat="42.74045422478375" lon="10.379443151487107"><ele>149.20000000000002</ele><time>2026-04-19T13:44:17.001Z</time></trkpt><trkpt lat="42.74035226579273" lon="10.379382964328585"><ele>148.6</ele><time>2026-04-19T13:44:18.001Z</time></trkpt><trkpt lat="42.74025790262021" lon="10.37932214576733"><ele>148.0</ele><time>2026-04-19T13:44:19.001Z</time></trkpt><trkpt lat="42.740179363340914" lon="10.379229381602327"><ele>149.0</ele><time>2026-04-19T13:44:20Z</time></trkpt><trkpt lat="42.74014174111643" lon="10.379096992464438"><ele>150.0</ele><time>2026-04-19T13:44:21Z</time></trkpt><trkpt lat="42.740076821429476" lon="10.378975154761298"><ele>151.0</ele><time>2026-04-19T13:44:22Z</time></trkpt><trkpt lat="42.7400155975723" lon="10.378854242453205"><ele>152.0</ele><time>2026-04-19T13:44:23Z</time></trkpt><trkpt lat="42.73993278980275" lon="10.378779551769439"><ele>153.0</ele><time>2026-04-19T13:44:24Z</time></trkpt><trkpt lat="42.739833273992176" lon="10.378766434754445"><ele>153.0</ele><time>2026-04-19T13:44:25Z</time></trkpt><trkpt lat="42.73973623262525" lon="10.378816800941305"><ele>153.0</ele><time>2026-04-19T13:44:26Z</time></trkpt><trkpt lat="42.73963732748341" lon="10.378909169796287"><ele>153.0</ele><time>2026-04-19T13:44:27Z</time></trkpt><trkpt lat="42.73954555324577" lon="10.379015761538176"><ele>153.0</ele><time>2026-04-19T13:44:28Z</time></trkpt><trkpt lat="42.73943839920072" lon="10.379129290917916"><ele>154.25</ele><time>2026-04-19T13:44:29Z</time></trkpt><trkpt lat="42.73932946727649" lon="10.379232493318561"><ele>155.5</ele><time>2026-04-19T13:44:30Z</time></trkpt><trkpt lat="42.739229836417316" lon="10.379327478168822"><ele>156.75</ele><time>2026-04-19T13:44:31Z</time></trkpt><trkpt lat="42.73913873859748" lon="10.379427870691764"><ele>158.0</ele><time>2026-04-19T13:44:32Z</time></trkpt><trkpt lat="42.73906538128739" lon="10.379554319897247"><ele>163.75</ele><time>2026-04-19T13:44:33Z</time></trkpt><trkpt lat="42.73901225816227" lon="10.379703147976903"><ele>169.5</ele><time>2026-04-19T13:44:34Z</time></trkpt><trkpt lat="42.73896204336084" lon="10.379864023500865"><ele>175.25</ele><time>2026-04-19T13:44:35Z</time></trkpt><trkpt lat="42.738872393979264" lon="10.380000369914136"><ele>181.0</ele><time>2026-04-19T13:44:36Z</time></trkpt><trkpt lat="42.73880426200533" lon="10.380117384978865"><ele>181.0</ele><time>2026-04-19T13:44:37Z</time></trkpt><trkpt lat="42.738738767710615" lon="10.380205223514515"><ele>181.0</ele><time>2026-04-19T13:44:38Z</time></trkpt><trkpt lat="42.738686838972164" lon="10.380291052278405"><ele>181.0</ele><time>2026-04-19T13:44:39Z</time></trkpt><trkpt lat="42.73844410975986" lon="10.38013710462125"><ele>181.0</ele><time>2026-04-19T13:44:40Z</time></trkpt><trkpt lat="42.73831310882994" lon="10.380114963202834"><ele>176.0</ele><time>2026-04-19T13:44:41Z</time></trkpt><trkpt lat="42.7381859968655" lon="10.380109000185357"><ele>171.0</ele><time>2026-04-19T13:44:42Z</time></trkpt><trkpt lat="42.73807185639732" lon="10.380067976683229"><ele>166.0</ele><time>2026-04-19T13:44:43Z</time></trkpt><trkpt lat="42.737970649672995" lon="10.380121844118372"><ele>161.0</ele><time>2026-04-19T13:44:44Z</time></trkpt><trkpt lat="42.73790100881246" lon="10.380246258616765"><ele>161.0</ele><time>2026-04-19T13:44:45Z</time></trkpt><trkpt lat="42.73783896752023" lon="10.380361604432236"><ele>161.0</ele><time>2026-04-19T13:44:46Z</time></trkpt><trkpt lat="42.73777036201341" lon="10.380484229075623"><ele>161.0</ele><time>2026-04-19T13:44:47Z</time></trkpt><trkpt lat="42.73771575793507" lon="10.380610098602073"><ele>161.0</ele><time>2026-04-19T13:44:48Z</time></trkpt><trkpt lat="42.737663036007284" lon="10.38073104636619"><ele>161.0</ele><time>2026-04-19T13:44:49Z</time></trkpt><trkpt lat="42.73760583786504" lon="10.380824352965426"><ele>162.83333333333331</ele><time>2026-04-19T13:44:50Z</time></trkpt><trkpt lat="42.73754186256717" lon="10.380838181944254"><ele>164.66666666666666</ele><time>2026-04-19T13:44:51Z</time></trkpt><trkpt lat="42.73747300571536" lon="10.38084098751746"><ele>166.5</ele><time>2026-04-19T13:44:52Z</time></trkpt><trkpt lat="42.73739765383577" lon="10.380804818319566"><ele>168.33333333333334</ele><time>2026-04-19T13:44:53Z</time></trkpt><trkpt lat="42.73732755898638" lon="10.38071935616088"><ele>170.16666666666669</ele><time>2026-04-19T13:44:54Z</time></trkpt><trkpt lat="42.73721813501649" lon="10.3806532779755"><ele>172.0</ele><time>2026-04-19T13:44:55Z</time></trkpt><trkpt lat="42.73710234542261" lon="10.380601887214958"><ele>172.0</ele><time>2026-04-19T13:44:56Z</time></trkpt><trkpt lat="42.736960901100744" lon="10.380582079327167"><ele>172.0</ele><time>2026-04-19T13:44:57Z</time></trkpt><trkpt lat="42.736817254137286" lon="10.380555281294457"><ele>172.0</ele><time>2026-04-19T13:44:58Z</time></trkpt><trkpt lat="42.73669015108655" lon="10.380531815135967"><ele>172.0</ele><time>2026-04-19T13:44:59Z</time></trkpt><trkpt lat="42.736570658990715" lon="10.380503265474465"><ele>173.25</ele><time>2026-04-19T13:45:00Z</time></trkpt><trkpt lat="42.73645291666432" lon="10.380525552854458"><ele>174.5</ele><time>2026-04-19T13:45:01Z</time></trkpt><trkpt lat="42.73632218993229" lon="10.380538595035077"><ele>175.75</ele><time>2026-04-19T13:45:02Z</time></trkpt><trkpt lat="42.73619816471438" lon="10.380549563472924"><ele>177.0</ele><time>2026-04-19T13:45:03Z</time></trkpt><trkpt lat="42.73609396020484" lon="10.380495701911082"><ele>170.0</ele><time>2026-04-19T13:45:04Z</time></trkpt><trkpt lat="42.73598905216321" lon="10.380426118663046"><ele>163.0</ele><time>2026-04-19T13:45:05Z</time></trkpt><trkpt lat="42.735877273364686" lon="10.380364793143357"><ele>156.0</ele><time>2026-04-19T13:45:06Z</time></trkpt><trkpt lat="42.73575051581313" lon="10.38030583062046"><ele>149.0</ele><time>2026-04-19T13:45:07Z</time></trkpt><trkpt lat="42.735612189088556" lon="10.380275015570193"><ele>149.0</ele><time>2026-04-19T13:45:08Z</time></trkpt><trkpt lat="42.73545861602355" lon="10.380250012180293"><ele>149.0</ele><time>2026-04-19T13:45:09Z</time></trkpt><trkpt lat="42.73530859390694" lon="10.380207993609273"><ele>149.0</ele><time>2026-04-19T13:45:10Z</time></trkpt><trkpt lat="42.735159281073216" lon="10.38017934802752"><ele>150.0</ele><time>2026-04-19T13:45:11Z</time></trkpt><trkpt lat="42.73500732254825" lon="10.380166343790794"><ele>151.0</ele><time>2026-04-19T13:45:12Z</time></trkpt><trkpt lat="42.7348651174938" lon="10.380160294998474"><ele>152.0</ele><time>2026-04-19T13:45:13Z</time></trkpt><trkpt lat="42.734732502688466" lon="10.380159007365018"><ele>153.0</ele><time>2026-04-19T13:45:14Z</time></trkpt><trkpt lat="42.73074613632363" lon="10.380574600870577"><ele>157.25</ele><time>2026-04-19T13:46:15.001Z</time></trkpt><trkpt lat="42.73063515014649" lon="10.380685411288429"><ele>161.5</ele><time>2026-04-19T13:46:16Z</time></trkpt><trkpt lat="42.73050065963224" lon="10.38076926335344"><ele>165.75</ele><time>2026-04-19T13:46:17Z</time></trkpt><trkpt lat="42.730367891322466" lon="10.380786590112026"><ele>170.0</ele><time>2026-04-19T13:46:18Z</time></trkpt><trkpt lat="42.730239326413034" lon="10.3807594510509"><ele>169.25</ele><time>2026-04-19T13:46:19Z</time></trkpt><trkpt lat="42.73011198275735" lon="10.380692929464278"><ele>168.5</ele><time>2026-04-19T13:46:20Z</time></trkpt><trkpt lat="42.72998040848231" lon="10.380630756065292"><ele>167.75</ele><time>2026-04-19T13:46:21Z</time></trkpt><trkpt lat="42.729859677994625" lon="10.380591765465033"><ele>167.0</ele><time>2026-04-19T13:46:22Z</time></trkpt><trkpt lat="42.72975062360279" lon="10.380593293763575"><ele>167.0</ele><time>2026-04-19T13:46:23Z</time></trkpt><trkpt lat="42.72963649209533" lon="10.380636969639383"><ele>167.0</ele><time>2026-04-19T13:46:24Z</time></trkpt><trkpt lat="42.72951308593745" lon="10.380712162013664"><ele>167.0</ele><time>2026-04-19T13:46:25Z</time></trkpt><trkpt lat="42.72937782004775" lon="10.3808133776941"><ele>167.0</ele><time>2026-04-19T13:46:26Z</time></trkpt><trkpt lat="42.72924051115375" lon="10.380935774702042"><ele>162.66666666666666</ele><time>2026-04-19T13:46:27Z</time></trkpt><trkpt lat="42.7290979412287" lon="10.381064919310115"><ele>158.33333333333334</ele><time>2026-04-19T13:46:28Z</time></trkpt><trkpt lat="42.72895569737828" lon="10.381198009260979"><ele>154.0</ele><time>2026-04-19T13:46:29Z</time></trkpt><trkpt lat="42.728818355790246" lon="10.381322343381232"><ele>154.0</ele><time>2026-04-19T13:46:30Z</time></trkpt><trkpt lat="42.728696831996686" lon="10.381440268619107"><ele>154.0</ele><time>2026-04-19T13:46:31Z</time></trkpt><trkpt lat="42.72858512546124" lon="10.381546720769329"><ele>154.0</ele><time>2026-04-19T13:46:32Z</time></trkpt><trkpt lat="42.72848172789819" lon="10.381656069218408"><ele>154.0</ele><time>2026-04-19T13:46:33Z</time></trkpt><trkpt lat="42.728372248271796" lon="10.381764318817844"><ele>154.0</ele><time>2026-04-19T13:46:34Z</time></trkpt><trkpt lat="42.72827661647757" lon="10.381855236773463"><ele>154.0</ele><time>2026-04-19T13:46:35Z</time></trkpt><trkpt lat="42.728203850650054" lon="10.381967418702946"><ele>154.0</ele><time>2026-04-19T13:46:36Z</time></trkpt><trkpt lat="42.728165364023624" lon="10.382105143520288"><ele>154.0</ele><time>2026-04-19T13:46:37Z</time></trkpt><trkpt lat="42.72814227012451" lon="10.382258167992688"><ele>160.0</ele><time>2026-04-19T13:46:38Z</time></trkpt><trkpt lat="42.72811026457669" lon="10.382434503244982"><ele>166.0</ele><time>2026-04-19T13:46:39Z</time></trkpt><trkpt lat="42.72811844160456" lon="10.382648866087079"><ele>172.0</ele><time>2026-04-19T13:46:40Z</time></trkpt><trkpt lat="42.72806550348974" lon="10.382859980871388"><ele>173.5</ele><time>2026-04-19T13:46:41Z</time></trkpt><trkpt lat="42.72801016546072" lon="10.38303705532417"><ele>175.0</ele><time>2026-04-19T13:46:42Z</time></trkpt><trkpt lat="42.727976201130105" lon="10.38319019997626"><ele>176.5</ele><time>2026-04-19T13:46:43Z</time></trkpt><trkpt lat="42.72797530018864" lon="10.383338170481338"><ele>178.0</ele><time>2026-04-19T13:46:44Z</time></trkpt><trkpt lat="42.728009492457076" lon="10.383484490516597"><ele>178.0</ele><time>2026-04-19T13:46:45Z</time></trkpt><trkpt lat="42.728044815931455" lon="10.383650297216555"><ele>178.0</ele><time>2026-04-19T13:46:46Z</time></trkpt><trkpt lat="42.72810744305339" lon="10.383813977936677"><ele>178.0</ele><time>2026-04-19T13:46:47Z</time></trkpt><trkpt lat="42.728153094527116" lon="10.383989646653193"><ele>178.0</ele><time>2026-04-19T13:46:48Z</time></trkpt><trkpt lat="42.728173027891344" lon="10.384178707757794"><ele>178.0</ele><time>2026-04-19T13:46:49Z</time></trkpt><trkpt lat="42.72816256270888" lon="10.3843586480385"><ele>178.0</ele><time>2026-04-19T13:46:50Z</time></trkpt><trkpt lat="42.72808957998494" lon="10.384522112040043"><ele>178.0</ele><time>2026-04-19T13:46:51Z</time></trkpt><trkpt lat="42.72803916924916" lon="10.384702870908493"><ele>178.0</ele><time>2026-04-19T13:46:52Z</time></trkpt><trkpt lat="42.72801659644678" lon="10.384897398567633"><ele>180.33333333333334</ele><time>2026-04-19T13:46:53Z</time></trkpt><trkpt lat="42.727998263709786" lon="10.385105053919423"><ele>182.66666666666666</ele><time>2026-04-19T13:46:54Z</time></trkpt><trkpt lat="42.72799077902179" lon="10.38534240798237"><ele>185.0</ele><time>2026-04-19T13:46:55Z</time></trkpt><trkpt lat="42.727946265495376" lon="10.385595832155346"><ele>188.0</ele><time>2026-04-19T13:46:56Z</time></trkpt><trkpt lat="42.72787877153611" lon="10.385834083323179"><ele>191.0</ele><time>2026-04-19T13:46:57Z</time></trkpt><trkpt lat="42.7278236084" lon="10.386043685216203"><ele>194.0</ele><time>2026-04-19T13:46:58Z</time></trkpt><trkpt lat="42.7277712360014" lon="10.38624359395301"><ele>183.66666666666669</ele><time>2026-04-19T13:46:59Z</time></trkpt><trkpt lat="42.727696329886626" lon="10.386429900204623"><ele>173.33333333333334</ele><time>2026-04-19T13:47:00Z</time></trkpt><trkpt lat="42.727610386734945" lon="10.386596138139364"><ele>163.0</ele><time>2026-04-19T13:47:01Z</time></trkpt><trkpt lat="42.72751872319798" lon="10.386762298532108"><ele>163.0</ele><time>2026-04-19T13:47:02Z</time></trkpt><trkpt lat="42.72744864257783" lon="10.386959821799898"><ele>163.0</ele><time>2026-04-19T13:47:03Z</time></trkpt><trkpt lat="42.72739287352201" lon="10.387148378279834"><ele>163.0</ele><time>2026-04-19T13:47:04Z</time></trkpt><trkpt lat="42.7273471780948" lon="10.387328522603742"><ele>165.8</ele><time>2026-04-19T13:47:05Z</time></trkpt><trkpt lat="42.72730858053401" lon="10.387477341906486"><ele>168.60000000000002</ele><time>2026-04-19T13:47:06Z</time></trkpt><trkpt lat="42.72727456439762" lon="10.38761126579257"><ele>171.39999999999998</ele><time>2026-04-19T13:47:07Z</time></trkpt><trkpt lat="42.727265621917894" lon="10.387731474139741"><ele>174.2</ele><time>2026-04-19T13:47:08Z</time></trkpt><trkpt lat="42.7273536543678" lon="10.387834531499598"><ele>177.0</ele><time>2026-04-19T13:47:09Z</time></trkpt><trkpt lat="42.727381371134655" lon="10.387949959634296"><ele>178.0</ele><time>2026-04-19T13:47:10Z</time></trkpt><trkpt lat="42.72738995400394" lon="10.388071675581084"><ele>179.0</ele><time>2026-04-19T13:47:11Z</time></trkpt><trkpt lat="42.727371441139944" lon="10.388168816450044"><ele>180.0</ele><time>2026-04-19T13:47:12Z</time></trkpt><trkpt lat="42.72731758031069" lon="10.388238618765639"><ele>181.0</ele><time>2026-04-19T13:47:13Z</time></trkpt><trkpt lat="42.72722772197884" lon="10.388131132295868"><ele>182.0</ele><time>2026-04-19T13:47:14Z</time></trkpt><trkpt lat="42.72312202631329" lon="10.383947880481044"><ele>180.0</ele><time>2026-04-19T13:48:15Z</time></trkpt><trkpt lat="42.7230938872845" lon="10.384099687683321"><ele>178.0</ele><time>2026-04-19T13:48:16Z</time></trkpt><trkpt lat="42.72304482969098" lon="10.38422347535862"><ele>176.0</ele><time>2026-04-19T13:48:17Z</time></trkpt><trkpt lat="42.72301998849255" lon="10.384317974158106"><ele>174.0</ele><time>2026-04-19T13:48:18Z</time></trkpt><trkpt lat="42.722984794506736" lon="10.384475515193058"><ele>172.0</ele><time>2026-04-19T13:48:20Z</time></trkpt><trkpt lat="42.72296149454724" lon="10.38458652035267"><ele>173.2</ele><time>2026-04-19T13:48:22Z</time></trkpt><trkpt lat="42.72304818456982" lon="10.38472940505721"><ele>174.39999999999998</ele><time>2026-04-19T13:48:23Z</time></trkpt><trkpt lat="42.72307774026345" lon="10.384846032203962"><ele>175.60000000000002</ele><time>2026-04-19T13:48:24Z</time></trkpt><trkpt lat="42.72309615542896" lon="10.384979882410844"><ele>176.8</ele><time>2026-04-19T13:48:25Z</time></trkpt><trkpt lat="42.723135627830466" lon="10.385120945717023"><ele>178.0</ele><time>2026-04-19T13:48:26Z</time></trkpt><trkpt lat="42.72317291673771" lon="10.385270707476014"><ele>178.0</ele><time>2026-04-19T13:48:27Z</time></trkpt><trkpt lat="42.723214837203564" lon="10.385406656804943"><ele>178.0</ele><time>2026-04-19T13:48:28Z</time></trkpt><trkpt lat="42.72326697815298" lon="10.385524483370974"><ele>178.0</ele><time>2026-04-19T13:48:29Z</time></trkpt><trkpt lat="42.72330145805556" lon="10.385655785374327"><ele>178.0</ele><time>2026-04-19T13:48:30Z</time></trkpt><trkpt lat="42.72332981964076" lon="10.38577134416162"><ele>178.0</ele><time>2026-04-19T13:48:31Z</time></trkpt><trkpt lat="42.72332163141134" lon="10.385889242874436"><ele>178.4</ele><time>2026-04-19T13:48:32Z</time></trkpt><trkpt lat="42.72331532744301" lon="10.386040344283126"><ele>178.8</ele><time>2026-04-19T13:48:33Z</time></trkpt><trkpt lat="42.72332200177047" lon="10.386198382942194"><ele>179.2</ele><time>2026-04-19T13:48:34Z</time></trkpt><trkpt lat="42.723335746098705" lon="10.386322943070828"><ele>179.6</ele><time>2026-04-19T13:48:35Z</time></trkpt><trkpt lat="42.72335691069141" lon="10.386461564127249"><ele>180.0</ele><time>2026-04-19T13:48:36Z</time></trkpt><trkpt lat="42.72339963086458" lon="10.386583635909044"><ele>180.6</ele><time>2026-04-19T13:48:37Z</time></trkpt><trkpt lat="42.723432390640895" lon="10.386703144873909"><ele>181.2</ele><time>2026-04-19T13:48:38Z</time></trkpt><trkpt lat="42.723474849928024" lon="10.386810085422377"><ele>181.8</ele><time>2026-04-19T13:48:39Z</time></trkpt><trkpt lat="42.72351325544207" lon="10.386946282205603"><ele>182.4</ele><time>2026-04-19T13:48:40Z</time></trkpt><trkpt lat="42.72350667827677" lon="10.387043619597408"><ele>183.0</ele><time>2026-04-19T13:48:41Z</time></trkpt><trkpt lat="42.72350620972283" lon="10.387167344299154"><ele>183.60000000000002</ele><time>2026-04-19T13:48:42Z</time></trkpt><trkpt lat="42.7235204879067" lon="10.387301899653044"><ele>184.20000000000002</ele><time>2026-04-19T13:48:43Z</time></trkpt><trkpt lat="42.72353972581697" lon="10.387424873542008"><ele>184.8</ele><time>2026-04-19T13:48:44Z</time></trkpt><trkpt lat="42.72358485374235" lon="10.387533239521177"><ele>185.4</ele><time>2026-04-19T13:48:45Z</time></trkpt><trkpt lat="42.7236377273597" lon="10.38763128365078"><ele>186.0</ele><time>2026-04-19T13:48:46Z</time></trkpt><trkpt lat="42.72369222587845" lon="10.387722473652067"><ele>191.33333333333334</ele><time>2026-04-19T13:48:47Z</time></trkpt><trkpt lat="42.72373846447041" lon="10.387832290673751"><ele>196.66666666666669</ele><time>2026-04-19T13:48:48Z</time></trkpt><trkpt lat="42.723771723425976" lon="10.387922011369037"><ele>202.0</ele><time>2026-04-19T13:48:49Z</time></trkpt><trkpt lat="42.723767525387515" lon="10.388074654349893"><ele>207.33333333333334</ele><time>2026-04-19T13:48:51Z</time></trkpt><trkpt lat="42.7237235722918" lon="10.388136514334322"><ele>212.66666666666669</ele><time>2026-04-19T13:48:52Z</time></trkpt><trkpt lat="42.72363760333213" lon="10.388183130163588"><ele>218.0</ele><time>2026-04-19T13:48:53Z</time></trkpt><trkpt lat="42.72358245030221" lon="10.38829438339269"><ele>218.0</ele><time>2026-04-19T13:48:54Z</time></trkpt><trkpt lat="42.723582573168194" lon="10.38846530456878"><ele>218.0</ele><time>2026-04-19T13:48:55Z</time></trkpt><trkpt lat="42.7235978404453" lon="10.388619616530457"><ele>218.0</ele><time>2026-04-19T13:48:56Z</time></trkpt><trkpt lat="42.72362762520537" lon="10.388757343004563"><ele>218.0</ele><time>2026-04-19T13:48:57Z</time></trkpt><trkpt lat="42.723674995566576" lon="10.38886035654913"><ele>218.0</ele><time>2026-04-19T13:48:58Z</time></trkpt><trkpt lat="42.72372355193044" lon="10.388916718401648"><ele>220.0</ele><time>2026-04-19T13:48:59Z</time></trkpt><trkpt lat="42.72378892776153" lon="10.388990823902382"><ele>222.0</ele><time>2026-04-19T13:49:00Z</time></trkpt><trkpt lat="42.723843358036824" lon="10.389081186131548"><ele>224.0</ele><time>2026-04-19T13:49:01Z</time></trkpt><trkpt lat="42.72389904166912" lon="10.389214411333004"><ele>226.0</ele><time>2026-04-19T13:49:02.999Z</time></trkpt><trkpt lat="42.72385301113792" lon="10.38927364689069"><ele>228.0</ele><time>2026-04-19T13:49:03.999Z</time></trkpt><trkpt lat="42.72375843924397" lon="10.389376489511346"><ele>228.0</ele><time>2026-04-19T13:49:05.999Z</time></trkpt><trkpt lat="42.72370708050595" lon="10.389477469978052"><ele>228.0</ele><time>2026-04-19T13:49:06.999Z</time></trkpt><trkpt lat="42.72367604057438" lon="10.389585757514885"><ele>228.0</ele><time>2026-04-19T13:49:07.999Z</time></trkpt><trkpt lat="42.72365821772894" lon="10.389735987033665"><ele>228.0</ele><time>2026-04-19T13:49:08.999Z</time></trkpt><trkpt lat="42.7236355932549" lon="10.38988350025618"><ele>228.0</ele><time>2026-04-19T13:49:09.999Z</time></trkpt><trkpt lat="42.7236444814577" lon="10.390048959779682"><ele>230.75</ele><time>2026-04-19T13:49:10.999Z</time></trkpt><trkpt lat="42.723663268034514" lon="10.390190748039329"><ele>233.5</ele><time>2026-04-19T13:49:11.999Z</time></trkpt><trkpt lat="42.7236984984603" lon="10.390353916959786"><ele>236.25</ele><time>2026-04-19T13:49:12.999Z</time></trkpt><trkpt lat="42.72373429136158" lon="10.390496198785145"><ele>239.0</ele><time>2026-04-19T13:49:13.999Z</time></trkpt><trkpt lat="42.724273987987" lon="10.39893305704323"><ele>243.79999999999998</ele><time>2026-04-19T13:50:15.999Z</time></trkpt><trkpt lat="42.72434947557493" lon="10.399022287669455"><ele>248.59999999999997</ele><time>2026-04-19T13:50:16.999Z</time></trkpt><trkpt lat="42.724452179008416" lon="10.399089020214358"><ele>253.4</ele><time>2026-04-19T13:50:17.999Z</time></trkpt><trkpt lat="42.72452840174002" lon="10.399209543829143"><ele>258.2</ele><time>2026-04-19T13:50:18.999Z</time></trkpt><trkpt lat="42.72459721308311" lon="10.399313277517773"><ele>263.0</ele><time>2026-04-19T13:50:20Z</time></trkpt><trkpt lat="42.72457242747488" lon="10.399432931210718"><ele>270.75</ele><time>2026-04-19T13:50:21Z</time></trkpt><trkpt lat="42.72456255304327" lon="10.399554637257934"><ele>278.5</ele><time>2026-04-19T13:50:22Z</time></trkpt><trkpt lat="42.72455569641825" lon="10.399752802954708"><ele>286.25</ele><time>2026-04-19T13:50:23Z</time></trkpt><trkpt lat="42.724551532526625" lon="10.39996051094057"><ele>294.0</ele><time>2026-04-19T13:50:24Z</time></trkpt><trkpt lat="42.72453414768748" lon="10.400165477418533"><ele>294.0</ele><time>2026-04-19T13:50:25Z</time></trkpt><trkpt lat="42.72452186538372" lon="10.400331014735611"><ele>294.0</ele><time>2026-04-19T13:50:26Z</time></trkpt><trkpt lat="42.724523474716754" lon="10.40048998531892"><ele>294.0</ele><time>2026-04-19T13:50:27Z</time></trkpt><trkpt lat="42.72456501765966" lon="10.40062731922936"><ele>294.0</ele><time>2026-04-19T13:50:28Z</time></trkpt><trkpt lat="42.724626821525355" lon="10.400811028444943"><ele>294.5</ele><time>2026-04-19T13:50:29Z</time></trkpt><trkpt lat="42.72465342443153" lon="10.40095259189211"><ele>295.0</ele><time>2026-04-19T13:50:30Z</time></trkpt><trkpt lat="42.72466297572642" lon="10.40105172369044"><ele>295.5</ele><time>2026-04-19T13:50:31Z</time></trkpt><trkpt lat="42.72459042618765" lon="10.401137864455828"><ele>296.0</ele><time>2026-04-19T13:50:33Z</time></trkpt><trkpt lat="42.72452160094345" lon="10.401127054808667"><ele>296.5</ele><time>2026-04-19T13:50:34Z</time></trkpt><trkpt lat="42.72442457476743" lon="10.40114602845375"><ele>297.0</ele><time>2026-04-19T13:50:35Z</time></trkpt><trkpt lat="42.72432154260682" lon="10.401219957603756"><ele>291.0</ele><time>2026-04-19T13:50:36Z</time></trkpt><trkpt lat="42.72424437231347" lon="10.401330044109397"><ele>285.0</ele><time>2026-04-19T13:50:37Z</time></trkpt><trkpt lat="42.72423899004855" lon="10.401474207346707"><ele>279.0</ele><time>2026-04-19T13:50:37.999Z</time></trkpt><trkpt lat="42.72427834491588" lon="10.401619341947168"><ele>273.0</ele><time>2026-04-19T13:50:38.999Z</time></trkpt><trkpt lat="42.72435782721029" lon="10.401760666028904"><ele>281.25</ele><time>2026-04-19T13:50:39.999Z</time></trkpt><trkpt lat="42.72441642361676" lon="10.401946601201377"><ele>289.5</ele><time>2026-04-19T13:50:40.999Z</time></trkpt><trkpt lat="42.72445880018921" lon="10.402125357113823"><ele>297.75</ele><time>2026-04-19T13:50:41.999Z</time></trkpt><trkpt lat="42.724463045535614" lon="10.402305252638065"><ele>306.0</ele><time>2026-04-19T13:50:42.999Z</time></trkpt><trkpt lat="42.72444629758447" lon="10.402445513466482"><ele>308.25</ele><time>2026-04-19T13:50:43.999Z</time></trkpt><trkpt lat="42.724425590910585" lon="10.402628660970949"><ele>310.5</ele><time>2026-04-19T13:50:44.999Z</time></trkpt><trkpt lat="42.724407495868135" lon="10.402821370075031"><ele>312.75</ele><time>2026-04-19T13:50:45.999Z</time></trkpt><trkpt lat="42.72441075855467" lon="10.40300887529907"><ele>315.0</ele><time>2026-04-19T13:50:46.999Z</time></trkpt><trkpt lat="42.72440707572264" lon="10.403177467385412"><ele>314.75</ele><time>2026-04-19T13:50:47.999Z</time></trkpt><trkpt lat="42.72441694845792" lon="10.403373712780548"><ele>314.5</ele><time>2026-04-19T13:50:48.999Z</time></trkpt><trkpt lat="42.724434589294816" lon="10.403567351292276"><ele>314.25</ele><time>2026-04-19T13:50:49.999Z</time></trkpt><trkpt lat="42.72443644400384" lon="10.403726422825766"><ele>314.0</ele><time>2026-04-19T13:50:50.999Z</time></trkpt><trkpt lat="42.72441631057007" lon="10.40392119068025"><ele>314.0</ele><time>2026-04-19T13:50:51.999Z</time></trkpt><trkpt lat="42.72438305394754" lon="10.404064157372146"><ele>314.0</ele><time>2026-04-19T13:50:52.999Z</time></trkpt><trkpt lat="42.72436751577256" lon="10.404194628266474"><ele>314.0</ele><time>2026-04-19T13:50:53.999Z</time></trkpt><trkpt lat="42.72439898078785" lon="10.404315713957198"><ele>314.0</ele><time>2026-04-19T13:50:54.999Z</time></trkpt><trkpt lat="42.72444356780239" lon="10.404455961229985"><ele>314.0</ele><time>2026-04-19T13:50:55.999Z</time></trkpt><trkpt lat="42.72450510704929" lon="10.40455904464061"><ele>314.0</ele><time>2026-04-19T13:50:56.999Z</time></trkpt><trkpt lat="42.72458608595511" lon="10.404644932133456"><ele>314.0</ele><time>2026-04-19T13:50:57.999Z</time></trkpt><trkpt lat="42.72468644172123" lon="10.404693975894586"><ele>314.0</ele><time>2026-04-19T13:50:58.999Z</time></trkpt><trkpt lat="42.72479846508444" lon="10.404705219461698"><ele>314.0</ele><time>2026-04-19T13:50:59.999Z</time></trkpt><trkpt lat="42.72491487224986" lon="10.404683492478991"><ele>314.0</ele><time>2026-04-19T13:51:00.999Z</time></trkpt><trkpt lat="42.725033691500435" lon="10.404632853510089"><ele>314.0</ele><time>2026-04-19T13:51:01.999Z</time></trkpt><trkpt lat="42.72517152754465" lon="10.404553532388194"><ele>314.0</ele><time>2026-04-19T13:51:02.999Z</time></trkpt><trkpt lat="42.7253274552976" lon="10.40449941926993"><ele>314.0</ele><time>2026-04-19T13:51:03.999Z</time></trkpt><trkpt lat="42.725478892351504" lon="10.404446844917528"><ele>316.25</ele><time>2026-04-19T13:51:04.999Z</time></trkpt><trkpt lat="42.72561803023487" lon="10.404387410207368"><ele>318.5</ele><time>2026-04-19T13:51:05.999Z</time></trkpt><trkpt lat="42.72575568910137" lon="10.4043397954473"><ele>320.75</ele><time>2026-04-19T13:51:06.999Z</time></trkpt><trkpt lat="42.725870541539685" lon="10.404284423193513"><ele>323.0</ele><time>2026-04-19T13:51:07.999Z</time></trkpt><trkpt lat="42.72596254085589" lon="10.40422465871648"><ele>324.59999999999997</ele><time>2026-04-19T13:51:08.999Z</time></trkpt><trkpt lat="42.72606314994259" lon="10.404164604940497"><ele>326.2</ele><time>2026-04-19T13:51:09.999Z</time></trkpt><trkpt lat="42.72617571798181" lon="10.404107151366167"><ele>327.8</ele><time>2026-04-19T13:51:10.999Z</time></trkpt><trkpt lat="42.726279510151286" lon="10.404035429449287"><ele>329.4</ele><time>2026-04-19T13:51:11.999Z</time></trkpt><trkpt lat="42.726361162353534" lon="10.403978866813492"><ele>331.0</ele><time>2026-04-19T13:51:12.999Z</time></trkpt><trkpt lat="42.72643611562513" lon="10.40389968536851"><ele>336.0</ele><time>2026-04-19T13:51:13.999Z</time></trkpt><trkpt lat="42.72658382702917" lon="10.405284916246755"><ele>336.0</ele><time>2026-04-19T13:52:14.999Z</time></trkpt><trkpt lat="42.72651013331322" lon="10.405267186435127"><ele>336.0</ele><time>2026-04-19T13:53:03Z</time></trkpt><trkpt lat="42.72642662971427" lon="10.405315036236953"><ele>336.0</ele><time>2026-04-19T13:53:05Z</time></trkpt><trkpt lat="42.726374736043155" lon="10.405394586606791"><ele>336.0</ele><time>2026-04-19T13:53:07Z</time></trkpt><trkpt lat="42.72636576970272" lon="10.405479927304036"><ele>336.0</ele><time>2026-04-19T13:53:11Z</time></trkpt><trkpt lat="42.72604462093897" lon="10.406814817997383"><ele>336.0</ele><time>2026-04-19T13:54:14.999Z</time></trkpt><trkpt lat="42.72602439699064" lon="10.406911161676641"><ele>336.0</ele><time>2026-04-19T13:54:15.999Z</time></trkpt><trkpt lat="42.72601339134996" lon="10.407087955361266"><ele>336.0</ele><time>2026-04-19T13:54:17.999Z</time></trkpt><trkpt lat="42.72602519905061" lon="10.407220625226543"><ele>336.0</ele><time>2026-04-19T13:54:18.999Z</time></trkpt><trkpt lat="42.72603828907205" lon="10.407341607269124"><ele>336.0</ele><time>2026-04-19T13:54:19.999Z</time></trkpt><trkpt lat="42.72607753575679" lon="10.407450798304103"><ele>336.0</ele><time>2026-04-19T13:54:20.999Z</time></trkpt><trkpt lat="42.72611590790483" lon="10.407552580518482"><ele>336.0</ele><time>2026-04-19T13:54:21.999Z</time></trkpt><trkpt lat="42.726167981370295" lon="10.407683696774637"><ele>336.0</ele><time>2026-04-19T13:54:22.999Z</time></trkpt><trkpt lat="42.72619846271252" lon="10.407814149013575"><ele>336.0</ele><time>2026-04-19T13:54:23.999Z</time></trkpt><trkpt lat="42.726210005783805" lon="10.407946723927482"><ele>336.0</ele><time>2026-04-19T13:54:24.999Z</time></trkpt><trkpt lat="42.72623667323951" lon="10.408078644863256"><ele>333.8</ele><time>2026-04-19T13:54:25.999Z</time></trkpt><trkpt lat="42.72629724337931" lon="10.408213143936198"><ele>331.6</ele><time>2026-04-19T13:54:26.999Z</time></trkpt><trkpt lat="42.72637927015778" lon="10.408351003915179"><ele>329.4</ele><time>2026-04-19T13:54:27.999Z</time></trkpt><trkpt lat="42.72642074177821" lon="10.408464164660836"><ele>327.2</ele><time>2026-04-19T13:54:28.999Z</time></trkpt><trkpt lat="42.72646426099379" lon="10.40854680658926"><ele>325.0</ele><time>2026-04-19T13:54:29.999Z</time></trkpt><trkpt lat="42.72649453906979" lon="10.40869775012553"><ele>325.0</ele><time>2026-04-19T13:54:32Z</time></trkpt><trkpt lat="42.72646258232262" lon="10.408774052154026"><ele>325.0</ele><time>2026-04-19T13:54:33Z</time></trkpt><trkpt lat="42.72640069187681" lon="10.408854915237155"><ele>325.0</ele><time>2026-04-19T13:54:34Z</time></trkpt><trkpt lat="42.72632566727923" lon="10.408948529922947"><ele>325.0</ele><time>2026-04-19T13:54:35Z</time></trkpt><trkpt lat="42.72623586333352" lon="10.409017481698887"><ele>325.0</ele><time>2026-04-19T13:54:36Z</time></trkpt><trkpt lat="42.726142941243985" lon="10.409061672129388"><ele>324.8</ele><time>2026-04-19T13:54:37Z</time></trkpt><trkpt lat="42.72606671675483" lon="10.409097152276246"><ele>324.6</ele><time>2026-04-19T13:54:38Z</time></trkpt><trkpt lat="42.72601053392588" lon="10.4091504810651"><ele>324.4</ele><time>2026-04-19T13:54:39Z</time></trkpt><trkpt lat="42.725951234029445" lon="10.409305994627687"><ele>324.2</ele><time>2026-04-19T13:54:41Z</time></trkpt><trkpt lat="42.725933778506246" lon="10.40945014167779"><ele>324.0</ele><time>2026-04-19T13:54:41.999Z</time></trkpt><trkpt lat="42.72594801555765" lon="10.409588448331649"><ele>322.0</ele><time>2026-04-19T13:54:42.999Z</time></trkpt><trkpt lat="42.725991720558746" lon="10.40969423993332"><ele>320.0</ele><time>2026-04-19T13:54:44Z</time></trkpt><trkpt lat="42.726060152820445" lon="10.409808531560154"><ele>318.0</ele><time>2026-04-19T13:54:45Z</time></trkpt><trkpt lat="42.72613957539922" lon="10.409950119176589"><ele>316.0</ele><time>2026-04-19T13:54:46Z</time></trkpt><trkpt lat="42.72622248355789" lon="10.41005407206599"><ele>314.0</ele><time>2026-04-19T13:54:47Z</time></trkpt><trkpt lat="42.726300607433615" lon="10.410131200130037"><ele>314.0</ele><time>2026-04-19T13:54:48Z</time></trkpt><trkpt lat="42.726400704198205" lon="10.410201528654074"><ele>314.0</ele><time>2026-04-19T13:54:49Z</time></trkpt><trkpt lat="42.726519383332096" lon="10.410273221775036"><ele>314.0</ele><time>2026-04-19T13:54:50Z</time></trkpt><trkpt lat="42.72664010968113" lon="10.410333401986827"><ele>314.0</ele><time>2026-04-19T13:54:51Z</time></trkpt><trkpt lat="42.7267423373524" lon="10.410390856188242"><ele>314.0</ele><time>2026-04-19T13:54:52Z</time></trkpt><trkpt lat="42.72682509832822" lon="10.410470290009252"><ele>314.0</ele><time>2026-04-19T13:54:53Z</time></trkpt><trkpt lat="42.72688138286926" lon="10.410576384382775"><ele>314.0</ele><time>2026-04-19T13:54:54Z</time></trkpt><trkpt lat="42.72692042260027" lon="10.41067577934763"><ele>314.0</ele><time>2026-04-19T13:54:55Z</time></trkpt><trkpt lat="42.72691782131112" lon="10.410775605198427"><ele>314.0</ele><time>2026-04-19T13:54:56Z</time></trkpt><trkpt lat="42.72689016825623" lon="10.410860534051261"><ele>314.0</ele><time>2026-04-19T13:54:57Z</time></trkpt><trkpt lat="42.72692026952382" lon="10.410988188326565"><ele>314.57142857142856</ele><time>2026-04-19T13:54:59Z</time></trkpt><trkpt lat="42.726979268708845" lon="10.411076297660495"><ele>315.1428571428571</ele><time>2026-04-19T13:55:00Z</time></trkpt><trkpt lat="42.727055720846124" lon="10.411123288314181"><ele>315.71428571428567</ele><time>2026-04-19T13:55:01Z</time></trkpt><trkpt lat="42.72711461122034" lon="10.411159808926127"><ele>316.2857142857143</ele><time>2026-04-19T13:55:02Z</time></trkpt><trkpt lat="42.72716681217403" lon="10.411210730608861"><ele>316.8571428571429</ele><time>2026-04-19T13:55:03Z</time></trkpt><trkpt lat="42.72720305281774" lon="10.411291679860813"><ele>317.4285714285714</ele><time>2026-04-19T13:55:04Z</time></trkpt><trkpt lat="42.72722291716629" lon="10.411393685017801"><ele>318.0</ele><time>2026-04-19T13:55:05Z</time></trkpt><trkpt lat="42.72725593859875" lon="10.411467571712409"><ele>315.0</ele><time>2026-04-19T13:55:06Z</time></trkpt><trkpt lat="42.72732797108894" lon="10.411611891327057"><ele>312.0</ele><time>2026-04-19T13:55:08Z</time></trkpt><trkpt lat="42.72738460223955" lon="10.411675213458736"><ele>309.0</ele><time>2026-04-19T13:55:09Z</time></trkpt><trkpt lat="42.72744838137403" lon="10.411720803079865"><ele>306.0</ele><time>2026-04-19T13:55:10Z</time></trkpt><trkpt lat="42.72754823810544" lon="10.411751329910034"><ele>303.0</ele><time>2026-04-19T13:55:11Z</time></trkpt><trkpt lat="42.72763372033935" lon="10.411758377297435"><ele>303.0</ele><time>2026-04-19T13:55:11.999Z</time></trkpt><trkpt lat="42.72770428132055" lon="10.411763133085064"><ele>303.0</ele><time>2026-04-19T13:55:12.999Z</time></trkpt><trkpt lat="42.72977940154795" lon="10.415436374409346"><ele>300.6666666666667</ele><time>2026-04-19T13:56:14.999Z</time></trkpt><trkpt lat="42.72984815923337" lon="10.41548847496467"><ele>298.3333333333333</ele><time>2026-04-19T13:56:15.999Z</time></trkpt><trkpt lat="42.72991237980356" lon="10.415521269719342"><ele>296.0</ele><time>2026-04-19T13:56:16.999Z</time></trkpt><trkpt lat="42.7299880672547" lon="10.415547762060676"><ele>293.66666666666663</ele><time>2026-04-19T13:56:17.999Z</time></trkpt><trkpt lat="42.73006696198394" lon="10.415567276161172"><ele>291.3333333333333</ele><time>2026-04-19T13:56:18.999Z</time></trkpt><trkpt lat="42.73014604246188" lon="10.4155947247553"><ele>289.0</ele><time>2026-04-19T13:56:19.999Z</time></trkpt><trkpt lat="42.730219628795226" lon="10.415611978848478"><ele>291.57142857142856</ele><time>2026-04-19T13:56:20.999Z</time></trkpt><trkpt lat="42.730285877657174" lon="10.415611872141973"><ele>294.1428571428571</ele><time>2026-04-19T13:56:21.999Z</time></trkpt><trkpt lat="42.73035262061115" lon="10.415631341566362"><ele>296.71428571428567</ele><time>2026-04-19T13:56:22.999Z</time></trkpt><trkpt lat="42.730405798363826" lon="10.41569504447689"><ele>299.2857142857143</ele><time>2026-04-19T13:56:23.999Z</time></trkpt><trkpt lat="42.73043702073837" lon="10.41577720609453"><ele>301.85714285714283</ele><time>2026-04-19T13:56:24.999Z</time></trkpt><trkpt lat="42.73045828916808" lon="10.415867537869474"><ele>304.4285714285714</ele><time>2026-04-19T13:56:25.999Z</time></trkpt><trkpt lat="42.73048648901118" lon="10.415949334716213"><ele>307.0</ele><time>2026-04-19T13:56:26.999Z</time></trkpt><trkpt lat="42.73054151069188" lon="10.41601962144719"><ele>307.0</ele><time>2026-04-19T13:56:27.999Z</time></trkpt><trkpt lat="42.73061379606793" lon="10.416080557832084"><ele>307.0</ele><time>2026-04-19T13:56:28.999Z</time></trkpt><trkpt lat="42.73067535224124" lon="10.416138279042455"><ele>307.0</ele><time>2026-04-19T13:56:29.999Z</time></trkpt><trkpt lat="42.730738827610786" lon="10.416202713040187"><ele>307.0</ele><time>2026-04-19T13:56:30.999Z</time></trkpt><trkpt lat="42.73079928010991" lon="10.416278716408206"><ele>307.0</ele><time>2026-04-19T13:56:31.999Z</time></trkpt><trkpt lat="42.73086115873619" lon="10.416341364417782"><ele>307.0</ele><time>2026-04-19T13:56:32.999Z</time></trkpt><trkpt lat="42.73093132111625" lon="10.416394238063802"><ele>304.5</ele><time>2026-04-19T13:56:33.999Z</time></trkpt><trkpt lat="42.7310000837845" lon="10.416429999331235"><ele>302.0</ele><time>2026-04-19T13:56:34.999Z</time></trkpt><trkpt lat="42.731065727974936" lon="10.416492323094126"><ele>299.5</ele><time>2026-04-19T13:56:35.999Z</time></trkpt><trkpt lat="42.73113206850127" lon="10.416533164608659"><ele>297.0</ele><time>2026-04-19T13:56:36.999Z</time></trkpt><trkpt lat="42.73120348052378" lon="10.416576467600574"><ele>294.5</ele><time>2026-04-19T13:56:38Z</time></trkpt><trkpt lat="42.731280494155364" lon="10.416630876984296"><ele>292.0</ele><time>2026-04-19T13:56:38.999Z</time></trkpt><trkpt lat="42.73136948276671" lon="10.416661988335818"><ele>292.0</ele><time>2026-04-19T13:56:40Z</time></trkpt><trkpt lat="42.731436324074956" lon="10.416707238259102"><ele>292.0</ele><time>2026-04-19T13:56:41Z</time></trkpt><trkpt lat="42.73149943380728" lon="10.41675153365753"><ele>292.0</ele><time>2026-04-19T13:56:42Z</time></trkpt><trkpt lat="42.7315656093036" lon="10.41680189890153"><ele>292.0</ele><time>2026-04-19T13:56:43Z</time></trkpt><trkpt lat="42.7316563681086" lon="10.416854227229253"><ele>292.0</ele><time>2026-04-19T13:56:45Z</time></trkpt><trkpt lat="42.73174114018552" lon="10.416900070969298"><ele>292.0</ele><time>2026-04-19T13:56:47Z</time></trkpt><trkpt lat="42.73180261750044" lon="10.416932343729023"><ele>292.0</ele><time>2026-04-19T13:56:49Z</time></trkpt><trkpt lat="42.731867250918725" lon="10.417019793566956"><ele>292.0</ele><time>2026-04-19T13:56:52Z</time></trkpt><trkpt lat="42.73295839378656" lon="10.415449912421431"><ele>290.2</ele><time>2026-04-19T14:02:14.999Z</time></trkpt><trkpt lat="42.7330055284054" lon="10.415361331429262"><ele>288.4</ele><time>2026-04-19T14:02:15.999Z</time></trkpt><trkpt lat="42.73301414411673" lon="10.415267258729976"><ele>286.6</ele><time>2026-04-19T14:02:16.999Z</time></trkpt><trkpt lat="42.73304097144617" lon="10.415188477170865"><ele>284.8</ele><time>2026-04-19T14:02:17.999Z</time></trkpt><trkpt lat="42.733067625606054" lon="10.415011682434693"><ele>283.0</ele><time>2026-04-19T14:02:19.999Z</time></trkpt><trkpt lat="42.73311718660104" lon="10.414881043590164"><ele>283.0</ele><time>2026-04-19T14:02:21.999Z</time></trkpt><trkpt lat="42.73315737595262" lon="10.414766854753553"><ele>283.0</ele><time>2026-04-19T14:02:23.999Z</time></trkpt><trkpt lat="42.73339364504679" lon="10.414835329727332"><ele>283.0</ele><time>2026-04-19T14:02:24.999Z</time></trkpt><trkpt lat="42.73346598964156" lon="10.414799012291256"><ele>283.0</ele><time>2026-04-19T14:02:25.999Z</time></trkpt><trkpt lat="42.73353980650579" lon="10.414744122778949"><ele>282.0</ele><time>2026-04-19T14:02:26.999Z</time></trkpt><trkpt lat="42.73363401590805" lon="10.41470306071737"><ele>281.0</ele><time>2026-04-19T14:02:27.999Z</time></trkpt><trkpt lat="42.73370659498369" lon="10.414608191266936"><ele>280.0</ele><time>2026-04-19T14:02:28.999Z</time></trkpt><trkpt lat="42.733804856475494" lon="10.414522365474978"><ele>279.0</ele><time>2026-04-19T14:02:29.999Z</time></trkpt><trkpt lat="42.73386166323803" lon="10.41442709686947"><ele>278.0</ele><time>2026-04-19T14:02:30.999Z</time></trkpt><trkpt lat="42.73386461659566" lon="10.414268364148034"><ele>278.0</ele><time>2026-04-19T14:02:32.999Z</time></trkpt><trkpt lat="42.733832953253646" lon="10.4141101279443"><ele>278.0</ele><time>2026-04-19T14:02:34.999Z</time></trkpt><trkpt lat="42.73379766668289" lon="10.414004357574965"><ele>278.0</ele><time>2026-04-19T14:02:35.999Z</time></trkpt><trkpt lat="42.733739303417146" lon="10.413882375638511"><ele>278.0</ele><time>2026-04-19T14:02:36.999Z</time></trkpt><trkpt lat="42.73365861419132" lon="10.413793944993975"><ele>278.0</ele><time>2026-04-19T14:02:37.999Z</time></trkpt><trkpt lat="42.73357311603001" lon="10.413683893844938"><ele>280.5</ele><time>2026-04-19T14:02:38.999Z</time></trkpt><trkpt lat="42.73348236351182" lon="10.413580393683203"><ele>283.0</ele><time>2026-04-19T14:02:39.999Z</time></trkpt><trkpt lat="42.7334026684337" lon="10.413509085505613"><ele>285.5</ele><time>2026-04-19T14:02:40.999Z</time></trkpt><trkpt lat="42.733339345442026" lon="10.4134351956408"><ele>288.0</ele><time>2026-04-19T14:02:41.999Z</time></trkpt><trkpt lat="42.733302782091705" lon="10.413339931460467"><ele>290.5</ele><time>2026-04-19T14:02:42.999Z</time></trkpt><trkpt lat="42.733296504683125" lon="10.413253958297133"><ele>293.0</ele><time>2026-04-19T14:02:43.999Z</time></trkpt><trkpt lat="42.733334798489665" lon="10.413159719718585"><ele>293.0</ele><time>2026-04-19T14:02:44.999Z</time></trkpt><trkpt lat="42.7333481730936" lon="10.413024126692989"><ele>293.0</ele><time>2026-04-19T14:02:45.999Z</time></trkpt><trkpt lat="42.7333702051598" lon="10.412890793072446"><ele>293.0</ele><time>2026-04-19T14:02:46.999Z</time></trkpt><trkpt lat="42.73339129324386" lon="10.41274665872874"><ele>293.0</ele><time>2026-04-19T14:02:47.999Z</time></trkpt><trkpt lat="42.733409723555496" lon="10.412622619008193"><ele>293.0</ele><time>2026-04-19T14:02:48.999Z</time></trkpt><trkpt lat="42.73343080226163" lon="10.412509894041214"><ele>292.83333333333337</ele><time>2026-04-19T14:02:49.999Z</time></trkpt><trkpt lat="42.73343644656996" lon="10.412410613030605"><ele>292.6666666666667</ele><time>2026-04-19T14:02:50.999Z</time></trkpt><trkpt lat="42.733403583724694" lon="10.412335426023798"><ele>292.5</ele><time>2026-04-19T14:02:51.999Z</time></trkpt><trkpt lat="42.733332958929495" lon="10.41227417249721"><ele>292.3333333333333</ele><time>2026-04-19T14:02:52.999Z</time></trkpt><trkpt lat="42.73326154513536" lon="10.41217568855228"><ele>292.16666666666663</ele><time>2026-04-19T14:02:53.999Z</time></trkpt><trkpt lat="42.733172236913056" lon="10.412092121722416"><ele>292.0</ele><time>2026-04-19T14:02:54.999Z</time></trkpt><trkpt lat="42.73308045601036" lon="10.412020222010586"><ele>292.0</ele><time>2026-04-19T14:02:56Z</time></trkpt><trkpt lat="42.73297771605665" lon="10.411950509940757"><ele>292.0</ele><time>2026-04-19T14:02:57Z</time></trkpt><trkpt lat="42.732892133631495" lon="10.411907147569595"><ele>292.0</ele><time>2026-04-19T14:02:58Z</time></trkpt><trkpt lat="42.732820284166806" lon="10.411864738038197"><ele>292.0</ele><time>2026-04-19T14:02:59Z</time></trkpt><trkpt lat="42.732747339475495" lon="10.411740840331264"><ele>292.0</ele><time>2026-04-19T14:03:01Z</time></trkpt><trkpt lat="42.73276760723365" lon="10.411647508184398"><ele>292.0</ele><time>2026-04-19T14:03:02Z</time></trkpt><trkpt lat="42.732854601172704" lon="10.411538529748748"><ele>292.0</ele><time>2026-04-19T14:03:04Z</time></trkpt><trkpt lat="42.73295540274926" lon="10.411537385656906"><ele>292.0</ele><time>2026-04-19T14:03:05Z</time></trkpt><trkpt lat="42.73304955983526" lon="10.411508318535486"><ele>292.0</ele><time>2026-04-19T14:03:06Z</time></trkpt><trkpt lat="42.73312801123066" lon="10.411433001424339"><ele>292.0</ele><time>2026-04-19T14:03:07Z</time></trkpt><trkpt lat="42.73319211422834" lon="10.41123896217886"><ele>293.4</ele><time>2026-04-19T14:03:09Z</time></trkpt><trkpt lat="42.733176754993536" lon="10.411091732536756"><ele>294.79999999999995</ele><time>2026-04-19T14:03:10Z</time></trkpt><trkpt lat="42.73316937267823" lon="10.41092808619469"><ele>296.2</ele><time>2026-04-19T14:03:11Z</time></trkpt><trkpt lat="42.73319421238073" lon="10.410803544418005"><ele>297.59999999999997</ele><time>2026-04-19T14:03:12Z</time></trkpt><trkpt lat="42.73322597643283" lon="10.41069392009329"><ele>299.0</ele><time>2026-04-19T14:03:13Z</time></trkpt><trkpt lat="42.73328146325079" lon="10.410603509983225"><ele>314.0</ele><time>2026-04-19T14:03:14Z</time></trkpt><trkpt lat="42.73144609598087" lon="10.40741725701993"><ele>314.0</ele><time>2026-04-19T14:04:15Z</time></trkpt><trkpt lat="42.73159978590968" lon="10.407444277200142"><ele>314.0</ele><time>2026-04-19T14:04:16Z</time></trkpt><trkpt lat="42.73176343363323" lon="10.40748694466841"><ele>314.0</ele><time>2026-04-19T14:04:17Z</time></trkpt><trkpt lat="42.731880328419365" lon="10.407544625898876"><ele>314.0</ele><time>2026-04-19T14:04:18Z</time></trkpt><trkpt lat="42.73197712531035" lon="10.407582230412155"><ele>312.2</ele><time>2026-04-19T14:04:19Z</time></trkpt><trkpt lat="42.73205820098599" lon="10.407585615663287"><ele>310.4</ele><time>2026-04-19T14:04:20Z</time></trkpt><trkpt lat="42.73211815552974" lon="10.407491983254236"><ele>308.6</ele><time>2026-04-19T14:04:22Z</time></trkpt><trkpt lat="42.732122396457974" lon="10.40739146461779"><ele>306.8</ele><time>2026-04-19T14:04:23Z</time></trkpt><trkpt lat="42.73211151957244" lon="10.407257406552276"><ele>305.0</ele><time>2026-04-19T14:04:24Z</time></trkpt><trkpt lat="42.73204138782887" lon="10.407067455933898"><ele>305.0</ele><time>2026-04-19T14:04:25Z</time></trkpt><trkpt lat="42.731955109434864" lon="10.40687627349914"><ele>305.0</ele><time>2026-04-19T14:04:26Z</time></trkpt><trkpt lat="42.73184412298412" lon="10.406655411955223"><ele>305.0</ele><time>2026-04-19T14:04:27Z</time></trkpt><trkpt lat="42.73175804063013" lon="10.406478345828054"><ele>308.4</ele><time>2026-04-19T14:04:28Z</time></trkpt><trkpt lat="42.731707602179576" lon="10.406351392861113"><ele>311.8</ele><time>2026-04-19T14:04:29Z</time></trkpt><trkpt lat="42.731628158709434" lon="10.406224508203382"><ele>315.20000000000005</ele><time>2026-04-19T14:04:30Z</time></trkpt><trkpt lat="42.7315199630913" lon="10.40614138623106"><ele>318.6</ele><time>2026-04-19T14:04:31Z</time></trkpt><trkpt lat="42.73147475742547" lon="10.40604286637098"><ele>322.0</ele><time>2026-04-19T14:04:32Z</time></trkpt><trkpt lat="42.73141803687064" lon="10.40598059396819"><ele>321.0</ele><time>2026-04-19T14:04:33Z</time></trkpt><trkpt lat="42.7315392289309" lon="10.405949603342968"><ele>320.0</ele><time>2026-04-19T14:04:35Z</time></trkpt><trkpt lat="42.73169245254595" lon="10.40594378589177"><ele>319.0</ele><time>2026-04-19T14:04:37Z</time></trkpt><trkpt lat="42.73179769140094" lon="10.405974599624013"><ele>318.0</ele><time>2026-04-19T14:04:38Z</time></trkpt><trkpt lat="42.73194805569323" lon="10.405995696352205"><ele>318.0</ele><time>2026-04-19T14:04:39Z</time></trkpt><trkpt lat="42.73209870782418" lon="10.406038243769263"><ele>318.0</ele><time>2026-04-19T14:04:40Z</time></trkpt><trkpt lat="42.73222347945089" lon="10.406074377085439"><ele>318.0</ele><time>2026-04-19T14:04:41Z</time></trkpt><trkpt lat="42.73232385269483" lon="10.406091935172421"><ele>318.0</ele><time>2026-04-19T14:04:42Z</time></trkpt><trkpt lat="42.73238609388719" lon="10.4060516942425"><ele>318.0</ele><time>2026-04-19T14:04:43Z</time></trkpt><trkpt lat="42.732451109913214" lon="10.406029488773855"><ele>318.0</ele><time>2026-04-19T14:04:44Z</time></trkpt><trkpt lat="42.73249966516591" lon="10.405943522046973"><ele>318.0</ele><time>2026-04-19T14:04:45Z</time></trkpt><trkpt lat="42.73254732101396" lon="10.405773978305008"><ele>318.0</ele><time>2026-04-19T14:04:46Z</time></trkpt><trkpt lat="42.73255592990709" lon="10.405606256322038"><ele>318.0</ele><time>2026-04-19T14:04:47Z</time></trkpt><trkpt lat="42.7325146310552" lon="10.405457873824858"><ele>316.0</ele><time>2026-04-19T14:04:48Z</time></trkpt><trkpt lat="42.73251101989121" lon="10.405361187986259"><ele>314.0</ele><time>2026-04-19T14:04:49Z</time></trkpt><trkpt lat="42.73259454902828" lon="10.405346953673883"><ele>312.0</ele><time>2026-04-19T14:04:50.999Z</time></trkpt><trkpt lat="42.732669694513746" lon="10.405354893233943"><ele>310.0</ele><time>2026-04-19T14:04:51.999Z</time></trkpt><trkpt lat="42.73280752503422" lon="10.405382449870656"><ele>308.0</ele><time>2026-04-19T14:04:52.999Z</time></trkpt><trkpt lat="42.73292780788675" lon="10.405431547060946"><ele>308.0</ele><time>2026-04-19T14:04:53.999Z</time></trkpt><trkpt lat="42.733030308625345" lon="10.40539530051207"><ele>308.0</ele><time>2026-04-19T14:04:55.999Z</time></trkpt><trkpt lat="42.733072423015635" lon="10.405226348816164"><ele>308.0</ele><time>2026-04-19T14:04:57.999Z</time></trkpt><trkpt lat="42.73308296064291" lon="10.405052880409261"><ele>308.0</ele><time>2026-04-19T14:04:58.999Z</time></trkpt><trkpt lat="42.733093656506334" lon="10.404843836743316"><ele>305.5</ele><time>2026-04-19T14:04:59.999Z</time></trkpt><trkpt lat="42.73308516481464" lon="10.404659237554117"><ele>303.0</ele><time>2026-04-19T14:05:00.999Z</time></trkpt><trkpt lat="42.73303860911782" lon="10.404526172536864"><ele>300.5</ele><time>2026-04-19T14:05:02Z</time></trkpt><trkpt lat="42.73298235000731" lon="10.404396626692227"><ele>298.0</ele><time>2026-04-19T14:05:03Z</time></trkpt><trkpt lat="42.73287650225845" lon="10.40423181019284"><ele>298.0</ele><time>2026-04-19T14:05:04Z</time></trkpt><trkpt lat="42.732801286069915" lon="10.404050345710292"><ele>298.0</ele><time>2026-04-19T14:05:05Z</time></trkpt><trkpt lat="42.73274907255048" lon="10.403858061872539"><ele>298.0</ele><time>2026-04-19T14:05:06Z</time></trkpt><trkpt lat="42.7326962704727" lon="10.403660048996631"><ele>303.8</ele><time>2026-04-19T14:05:07Z</time></trkpt><trkpt lat="42.732645476273746" lon="10.40349371294745"><ele>309.6</ele><time>2026-04-19T14:05:08Z</time></trkpt><trkpt lat="42.73260670185624" lon="10.40335734302586"><ele>315.40000000000003</ele><time>2026-04-19T14:05:09Z</time></trkpt><trkpt lat="42.73261920329244" lon="10.403223919295963"><ele>321.20000000000005</ele><time>2026-04-19T14:05:10Z</time></trkpt><trkpt lat="42.732563106351904" lon="10.403158449399108"><ele>327.0</ele><time>2026-04-19T14:05:11Z</time></trkpt><trkpt lat="42.73247188512019" lon="10.40309545144483"><ele>327.0</ele><time>2026-04-19T14:05:12Z</time></trkpt><trkpt lat="42.732375333766505" lon="10.40302381036445"><ele>327.0</ele><time>2026-04-19T14:05:13Z</time></trkpt><trkpt lat="42.732364226441625" lon="10.402887387384261"><ele>327.0</ele><time>2026-04-19T14:05:14.001Z</time></trkpt><trkpt lat="42.734155977161414" lon="10.40134892833134"><ele>326.8</ele><time>2026-04-19T14:06:15Z</time></trkpt><trkpt lat="42.73421526327906" lon="10.401462006356065"><ele>326.6</ele><time>2026-04-19T14:06:16Z</time></trkpt><trkpt lat="42.73429747507975" lon="10.401536990837274"><ele>326.40000000000003</ele><time>2026-04-19T14:06:17Z</time></trkpt><trkpt lat="42.7343886087803" lon="10.401593343507258"><ele>326.20000000000005</ele><time>2026-04-19T14:06:18Z</time></trkpt><trkpt lat="42.73447080585081" lon="10.401619329518498"><ele>326.0</ele><time>2026-04-19T14:06:19Z</time></trkpt><trkpt lat="42.73456046978101" lon="10.401620684856386"><ele>326.8</ele><time>2026-04-19T14:06:20Z</time></trkpt><trkpt lat="42.73465402927934" lon="10.401584563866123"><ele>327.6</ele><time>2026-04-19T14:06:21Z</time></trkpt><trkpt lat="42.73472861680921" lon="10.40153000433214"><ele>328.4</ele><time>2026-04-19T14:06:23Z</time></trkpt><trkpt lat="42.73479680448241" lon="10.40145394832951"><ele>329.2</ele><time>2026-04-19T14:06:25Z</time></trkpt><trkpt lat="42.73485225960957" lon="10.401377134159803"><ele>330.0</ele><time>2026-04-19T14:06:27Z</time></trkpt><trkpt lat="42.73519651147826" lon="10.399998668104555"><ele>328.8571428571429</ele><time>2026-04-19T14:09:15Z</time></trkpt><trkpt lat="42.735249101308064" lon="10.39992743039642"><ele>327.7142857142857</ele><time>2026-04-19T14:09:16Z</time></trkpt><trkpt lat="42.73528570829605" lon="10.39983835887816"><ele>326.57142857142856</ele><time>2026-04-19T14:09:17Z</time></trkpt><trkpt lat="42.735303230399545" lon="10.399739731735004"><ele>325.42857142857144</ele><time>2026-04-19T14:09:18Z</time></trkpt><trkpt lat="42.73530705087442" lon="10.399636437186976"><ele>324.2857142857143</ele><time>2026-04-19T14:09:19Z</time></trkpt><trkpt lat="42.735295970560514" lon="10.39954138433463"><ele>323.14285714285717</ele><time>2026-04-19T14:09:20Z</time></trkpt><trkpt lat="42.73529026216149" lon="10.399434906307564"><ele>322.0</ele><time>2026-04-19T14:09:21Z</time></trkpt><trkpt lat="42.73528346429644" lon="10.399303020439435"><ele>322.0</ele><time>2026-04-19T14:09:22Z</time></trkpt><trkpt lat="42.73528191107468" lon="10.399174231203629"><ele>322.0</ele><time>2026-04-19T14:09:23Z</time></trkpt><trkpt lat="42.73531098375393" lon="10.399067977976516"><ele>322.0</ele><time>2026-04-19T14:09:24.001Z</time></trkpt><trkpt lat="42.73535954214696" lon="10.398950365564946"><ele>322.0</ele><time>2026-04-19T14:09:25.001Z</time></trkpt><trkpt lat="42.73536282367679" lon="10.398839259567731"><ele>322.0</ele><time>2026-04-19T14:09:26Z</time></trkpt><trkpt lat="42.73535856712942" lon="10.398738668497296"><ele>322.0</ele><time>2026-04-19T14:09:27Z</time></trkpt><trkpt lat="42.735345243369906" lon="10.398648879952836"><ele>324.40000000000003</ele><time>2026-04-19T14:09:28Z</time></trkpt><trkpt lat="42.73530999389194" lon="10.39854089405347"><ele>326.8</ele><time>2026-04-19T14:09:29Z</time></trkpt><trkpt lat="42.73530557997182" lon="10.398408915983888"><ele>329.2</ele><time>2026-04-19T14:09:30Z</time></trkpt><trkpt lat="42.735293868823526" lon="10.398281261246352"><ele>331.6</ele><time>2026-04-19T14:09:31Z</time></trkpt><trkpt lat="42.735288080996696" lon="10.398133837671331"><ele>334.0</ele><time>2026-04-19T14:09:33.001Z</time></trkpt><trkpt lat="42.735408721799054" lon="10.39809286316898"><ele>334.0</ele><time>2026-04-19T14:09:36.001Z</time></trkpt><trkpt lat="42.735540098194754" lon="10.398044452486037"><ele>334.0</ele><time>2026-04-19T14:09:38.001Z</time></trkpt><trkpt lat="42.73563903352405" lon="10.398018825769771"><ele>334.0</ele><time>2026-04-19T14:09:39.001Z</time></trkpt><trkpt lat="42.73574503857015" lon="10.397973027094643"><ele>334.0</ele><time>2026-04-19T14:09:40.001Z</time></trkpt><trkpt lat="42.73582267208752" lon="10.397910449565497"><ele>334.0</ele><time>2026-04-19T14:09:41.001Z</time></trkpt><trkpt lat="42.73588501513204" lon="10.397865875358903"><ele>335.66666666666663</ele><time>2026-04-19T14:09:42.001Z</time></trkpt><trkpt lat="42.73594037733387" lon="10.397802510009752"><ele>337.3333333333333</ele><time>2026-04-19T14:09:43.001Z</time></trkpt><trkpt lat="42.73599708904005" lon="10.397725921440236"><ele>339.0</ele><time>2026-04-19T14:09:44.001Z</time></trkpt><trkpt lat="42.736024911437" lon="10.397645699501236"><ele>340.6666666666667</ele><time>2026-04-19T14:09:45.001Z</time></trkpt><trkpt lat="42.73603974460413" lon="10.397554584909296"><ele>342.33333333333337</ele><time>2026-04-19T14:09:46.001Z</time></trkpt><trkpt lat="42.736068411766965" lon="10.397431054182535"><ele>344.0</ele><time>2026-04-19T14:09:47.001Z</time></trkpt><trkpt lat="42.736048504118926" lon="10.397280988071499"><ele>341.79999999999995</ele><time>2026-04-19T14:09:48.001Z</time></trkpt><trkpt lat="42.73597948706793" lon="10.397133874830539"><ele>339.59999999999997</ele><time>2026-04-19T14:09:49.001Z</time></trkpt><trkpt lat="42.7359244697959" lon="10.397042915756801"><ele>337.4</ele><time>2026-04-19T14:09:50.001Z</time></trkpt><trkpt lat="42.735802498949816" lon="10.397027824148436"><ele>335.2</ele><time>2026-04-19T14:09:51.001Z</time></trkpt><trkpt lat="42.735717289177856" lon="10.396995656540525"><ele>333.0</ele><time>2026-04-19T14:09:52.001Z</time></trkpt><trkpt lat="42.7355746494955" lon="10.397067621316655"><ele>333.0</ele><time>2026-04-19T14:09:53.001Z</time></trkpt><trkpt lat="42.735415549921406" lon="10.397062585626653"><ele>333.0</ele><time>2026-04-19T14:09:54.001Z</time></trkpt><trkpt lat="42.73528963766426" lon="10.397045466751926"><ele>333.0</ele><time>2026-04-19T14:09:55.001Z</time></trkpt><trkpt lat="42.73517063427939" lon="10.397017784943783"><ele>333.0</ele><time>2026-04-19T14:09:56.001Z</time></trkpt><trkpt lat="42.73503390701844" lon="10.396951731595454"><ele>333.5</ele><time>2026-04-19T14:09:57.001Z</time></trkpt><trkpt lat="42.7348868460364" lon="10.396983483228786"><ele>334.0</ele><time>2026-04-19T14:09:58.001Z</time></trkpt><trkpt lat="42.73475573551195" lon="10.39700357370691"><ele>334.5</ele><time>2026-04-19T14:09:59.001Z</time></trkpt><trkpt lat="42.734619518861784" lon="10.397019105065851"><ele>335.0</ele><time>2026-04-19T14:10:00.001Z</time></trkpt><trkpt lat="42.73449052864999" lon="10.397038491253268"><ele>335.75</ele><time>2026-04-19T14:10:01.001Z</time></trkpt><trkpt lat="42.73434921568661" lon="10.397046719820612"><ele>336.5</ele><time>2026-04-19T14:10:02.001Z</time></trkpt><trkpt lat="42.73421578328363" lon="10.397020677807607"><ele>337.25</ele><time>2026-04-19T14:10:03.001Z</time></trkpt><trkpt lat="42.734110927934566" lon="10.397020677809099"><ele>338.0</ele><time>2026-04-19T14:10:04.001Z</time></trkpt><trkpt lat="42.73403976034412" lon="10.397059347451561"><ele>338.0</ele><time>2026-04-19T14:10:05.001Z</time></trkpt><trkpt lat="42.73394988251825" lon="10.39709655129728"><ele>338.0</ele><time>2026-04-19T14:10:06Z</time></trkpt><trkpt lat="42.73387095997658" lon="10.397150321028787"><ele>338.0</ele><time>2026-04-19T14:10:07Z</time></trkpt><trkpt lat="42.733792775505236" lon="10.397142086334973"><ele>338.0</ele><time>2026-04-19T14:10:08Z</time></trkpt><trkpt lat="42.733719370415734" lon="10.397010433132412"><ele>338.0</ele><time>2026-04-19T14:10:09Z</time></trkpt><trkpt lat="42.73361197845359" lon="10.396932024445519"><ele>341.0</ele><time>2026-04-19T14:10:10Z</time></trkpt><trkpt lat="42.733503930530176" lon="10.396898883591213"><ele>344.0</ele><time>2026-04-19T14:10:11Z</time></trkpt><trkpt lat="42.73343415972846" lon="10.396857510170376"><ele>347.0</ele><time>2026-04-19T14:10:12Z</time></trkpt><trkpt lat="42.7334028523409" lon="10.396755618245644"><ele>350.0</ele><time>2026-04-19T14:10:14Z</time></trkpt><trkpt lat="42.733249592210406" lon="10.392957174680234"><ele>350.0</ele><time>2026-04-19T14:11:15Z</time></trkpt><trkpt lat="42.73330963467067" lon="10.392848618247767"><ele>350.0</ele><time>2026-04-19T14:11:30Z</time></trkpt><trkpt lat="42.73336037140321" lon="10.392786565699296"><ele>350.0</ele><time>2026-04-19T14:11:31Z</time></trkpt><trkpt lat="42.733417841640886" lon="10.392719995017487"><ele>350.0</ele><time>2026-04-19T14:11:32Z</time></trkpt><trkpt lat="42.73347571685164" lon="10.392665777439982"><ele>350.0</ele><time>2026-04-19T14:11:33Z</time></trkpt><trkpt lat="42.73356812601333" lon="10.392574094504992"><ele>350.0</ele><time>2026-04-19T14:11:35.001Z</time></trkpt><trkpt lat="42.7336492570855" lon="10.392445720614294"><ele>348.8</ele><time>2026-04-19T14:11:37Z</time></trkpt><trkpt lat="42.733706072806235" lon="10.392351769660626"><ele>347.6</ele><time>2026-04-19T14:11:38Z</time></trkpt><trkpt lat="42.733774379262734" lon="10.392249050038405"><ele>346.4</ele><time>2026-04-19T14:11:39Z</time></trkpt><trkpt lat="42.73385521361552" lon="10.39216648971096"><ele>345.2</ele><time>2026-04-19T14:11:40Z</time></trkpt><trkpt lat="42.73390138685056" lon="10.392067753276017"><ele>344.0</ele><time>2026-04-19T14:11:41Z</time></trkpt><trkpt lat="42.73396041963091" lon="10.391984197477429"><ele>343.6666666666667</ele><time>2026-04-19T14:11:42Z</time></trkpt><trkpt lat="42.734011483697444" lon="10.391887084219208"><ele>343.33333333333337</ele><time>2026-04-19T14:11:43Z</time></trkpt><trkpt lat="42.73404627855741" lon="10.391789521294392"><ele>343.0</ele><time>2026-04-19T14:11:44Z</time></trkpt><trkpt lat="42.73409709111857" lon="10.391706094215028"><ele>342.6666666666667</ele><time>2026-04-19T14:11:45Z</time></trkpt><trkpt lat="42.73412449570936" lon="10.391618725701022"><ele>342.3333333333333</ele><time>2026-04-19T14:11:46Z</time></trkpt><trkpt lat="42.73415496254398" lon="10.391494363645043"><ele>342.0</ele><time>2026-04-19T14:11:47Z</time></trkpt><trkpt lat="42.73416670923499" lon="10.391370185667276"><ele>341.4285714285714</ele><time>2026-04-19T14:11:48Z</time></trkpt><trkpt lat="42.734182470874266" lon="10.391273379850904"><ele>340.85714285714283</ele><time>2026-04-19T14:11:49Z</time></trkpt><trkpt lat="42.73419443810663" lon="10.391178457161475"><ele>340.2857142857143</ele><time>2026-04-19T14:11:50Z</time></trkpt><trkpt lat="42.73420261070917" lon="10.39107623119782"><ele>339.71428571428567</ele><time>2026-04-19T14:11:51Z</time></trkpt><trkpt lat="42.73422193042535" lon="10.390975139424071"><ele>339.1428571428571</ele><time>2026-04-19T14:11:52Z</time></trkpt><trkpt lat="42.734242212048244" lon="10.390889813071698"><ele>338.57142857142856</ele><time>2026-04-19T14:11:53Z</time></trkpt><trkpt lat="42.73426623868754" lon="10.390805101137571"><ele>338.0</ele><time>2026-04-19T14:11:54Z</time></trkpt><trkpt lat="42.73430315930199" lon="10.390713687549741"><ele>338.0</ele><time>2026-04-19T14:11:55Z</time></trkpt><trkpt lat="42.73435709390979" lon="10.390625289391156"><ele>338.0</ele><time>2026-04-19T14:11:56Z</time></trkpt><trkpt lat="42.7344089169687" lon="10.390551938655985"><ele>338.0</ele><time>2026-04-19T14:11:57Z</time></trkpt><trkpt lat="42.734496611909904" lon="10.390471315138187"><ele>338.0</ele><time>2026-04-19T14:11:59Z</time></trkpt><trkpt lat="42.734531324329026" lon="10.39039916363259"><ele>338.0</ele><time>2026-04-19T14:12:01Z</time></trkpt><trkpt lat="42.73455466260698" lon="10.390314371307662"><ele>338.0</ele><time>2026-04-19T14:12:03Z</time></trkpt><trkpt lat="42.73449155912932" lon="10.390260653547664"><ele>336.5</ele><time>2026-04-19T14:12:05Z</time></trkpt><trkpt lat="42.73442579406167" lon="10.39032193864374"><ele>335.0</ele><time>2026-04-19T14:12:08Z</time></trkpt><trkpt lat="42.733427627186806" lon="10.392680399390803"><ele>337.5</ele><time>2026-04-19T14:24:14.942Z</time></trkpt><trkpt lat="42.7333254851737" lon="10.392789224064595"><ele>340.0</ele><time>2026-04-19T14:24:16.942Z</time></trkpt><trkpt lat="42.73327422432885" lon="10.392855801350358"><ele>342.5</ele><time>2026-04-19T14:24:17.942Z</time></trkpt><trkpt lat="42.73322833285673" lon="10.392928301423558"><ele>345.0</ele><time>2026-04-19T14:24:18.942Z</time></trkpt><trkpt lat="42.73318055354324" lon="10.39301445549948"><ele>347.5</ele><time>2026-04-19T14:24:19.942Z</time></trkpt><trkpt lat="42.733106292517924" lon="10.393090920899926"><ele>350.0</ele><time>2026-04-19T14:24:20.942Z</time></trkpt><trkpt lat="42.73305021467416" lon="10.393168976406697"><ele>350.6</ele><time>2026-04-19T14:24:21.942Z</time></trkpt><trkpt lat="42.73300671728341" lon="10.393246823841901"><ele>351.2</ele><time>2026-04-19T14:24:22.942Z</time></trkpt><trkpt lat="42.73288356516677" lon="10.393270091015182"><ele>351.79999999999995</ele><time>2026-04-19T14:24:24.942Z</time></trkpt><trkpt lat="42.73274050604779" lon="10.393332290366326"><ele>352.4</ele><time>2026-04-19T14:24:26.942Z</time></trkpt><trkpt lat="42.73265321211368" lon="10.39338749427109"><ele>353.0</ele><time>2026-04-19T14:24:27.942Z</time></trkpt><trkpt lat="42.73255405571965" lon="10.393438867972453"><ele>353.0</ele><time>2026-04-19T14:24:28.942Z</time></trkpt><trkpt lat="42.73245710084852" lon="10.393509265560738"><ele>353.0</ele><time>2026-04-19T14:24:29.942Z</time></trkpt><trkpt lat="42.73236355484407" lon="10.393575169369266"><ele>353.0</ele><time>2026-04-19T14:24:30.942Z</time></trkpt><trkpt lat="42.73228489981078" lon="10.393653628406799"><ele>353.0</ele><time>2026-04-19T14:24:31.942Z</time></trkpt><trkpt lat="42.73217421388598" lon="10.393704273909988"><ele>353.0</ele><time>2026-04-19T14:24:32.942Z</time></trkpt><trkpt lat="42.73209622338184" lon="10.393782834720376"><ele>355.0</ele><time>2026-04-19T14:24:33.942Z</time></trkpt><trkpt lat="42.731994175107666" lon="10.393839401517589"><ele>357.0</ele><time>2026-04-19T14:24:34.942Z</time></trkpt><trkpt lat="42.731905329359286" lon="10.393896231574036"><ele>359.0</ele><time>2026-04-19T14:24:35.942Z</time></trkpt><trkpt lat="42.73182917259827" lon="10.393908509023055"><ele>361.0</ele><time>2026-04-19T14:24:36.942Z</time></trkpt><trkpt lat="42.731760827296334" lon="10.39389015793676"><ele>363.0</ele><time>2026-04-19T14:24:38.942Z</time></trkpt><trkpt lat="42.73169803727236" lon="10.393583640561792"><ele>363.0</ele><time>2026-04-19T14:24:41.942Z</time></trkpt><trkpt lat="42.73168815176451" lon="10.393375877569424"><ele>363.0</ele><time>2026-04-19T14:24:42.942Z</time></trkpt><trkpt lat="42.731664241672384" lon="10.393170102641127"><ele>363.0</ele><time>2026-04-19T14:24:43.942Z</time></trkpt><trkpt lat="42.73164508500665" lon="10.392969099280089"><ele>361.75</ele><time>2026-04-19T14:24:44.942Z</time></trkpt><trkpt lat="42.731626586184554" lon="10.39277048967463"><ele>360.5</ele><time>2026-04-19T14:24:45.942Z</time></trkpt><trkpt lat="42.731611058368074" lon="10.392597368887303"><ele>359.25</ele><time>2026-04-19T14:24:46.942Z</time></trkpt><trkpt lat="42.731593056572066" lon="10.392437902212034"><ele>358.0</ele><time>2026-04-19T14:24:47.942Z</time></trkpt><trkpt lat="42.73158198268672" lon="10.392277434202368"><ele>355.0</ele><time>2026-04-19T14:24:48.942Z</time></trkpt><trkpt lat="42.73156602760344" lon="10.392139749706724"><ele>352.0</ele><time>2026-04-19T14:24:49.942Z</time></trkpt><trkpt lat="42.73150570625557" lon="10.392018318454381"><ele>349.0</ele><time>2026-04-19T14:24:50.942Z</time></trkpt><trkpt lat="42.731435640556334" lon="10.39190974231046"><ele>346.0</ele><time>2026-04-19T14:24:51.942Z</time></trkpt><trkpt lat="42.73132734105048" lon="10.391843842307095"><ele>343.0</ele><time>2026-04-19T14:24:52.942Z</time></trkpt><trkpt lat="42.731216848334455" lon="10.391708836355729"><ele>343.0</ele><time>2026-04-19T14:24:53.942Z</time></trkpt><trkpt lat="42.73113203641276" lon="10.391553130104212"><ele>343.0</ele><time>2026-04-19T14:24:54.942Z</time></trkpt><trkpt lat="42.731052001078176" lon="10.391467291925052"><ele>343.0</ele><time>2026-04-19T14:24:55.941Z</time></trkpt><trkpt lat="42.73099060836883" lon="10.391396954372974"><ele>343.0</ele><time>2026-04-19T14:24:56.941Z</time></trkpt><trkpt lat="42.730927835802675" lon="10.391352095854998"><ele>343.0</ele><time>2026-04-19T14:24:57.941Z</time></trkpt><trkpt lat="42.730853489947876" lon="10.391330879925052"><ele>344.2</ele><time>2026-04-19T14:24:58.941Z</time></trkpt><trkpt lat="42.73077267361345" lon="10.391308019475222"><ele>345.4</ele><time>2026-04-19T14:24:59.941Z</time></trkpt><trkpt lat="42.73070301744251" lon="10.391285357596399"><ele>346.59999999999997</ele><time>2026-04-19T14:25:00.941Z</time></trkpt><trkpt lat="42.7306083307344" lon="10.391434252053012"><ele>347.79999999999995</ele><time>2026-04-19T14:25:01.941Z</time></trkpt><trkpt lat="42.730547804759766" lon="10.39156755087411"><ele>349.0</ele><time>2026-04-19T14:25:02.941Z</time></trkpt><trkpt lat="42.73048813408245" lon="10.391697689785923"><ele>351.5</ele><time>2026-04-19T14:25:03.941Z</time></trkpt><trkpt lat="42.73046094252691" lon="10.391869271181092"><ele>354.0</ele><time>2026-04-19T14:25:04.941Z</time></trkpt><trkpt lat="42.73040298874779" lon="10.39203071655048"><ele>356.5</ele><time>2026-04-19T14:25:05.941Z</time></trkpt><trkpt lat="42.73035935235718" lon="10.392174063776388"><ele>359.0</ele><time>2026-04-19T14:25:06.941Z</time></trkpt><trkpt lat="42.73032944466879" lon="10.392306708021605"><ele>361.79999999999995</ele><time>2026-04-19T14:25:07.941Z</time></trkpt><trkpt lat="42.73031442517834" lon="10.39245673644622"><ele>364.59999999999997</ele><time>2026-04-19T14:25:08.941Z</time></trkpt><trkpt lat="42.730292839013195" lon="10.39261639120821"><ele>367.4</ele><time>2026-04-19T14:25:09.941Z</time></trkpt><trkpt lat="42.73026233315586" lon="10.392758707588467"><ele>370.2</ele><time>2026-04-19T14:25:10.941Z</time></trkpt><trkpt lat="42.73022764216266" lon="10.392877737905785"><ele>373.0</ele><time>2026-04-19T14:25:11.941Z</time></trkpt><trkpt lat="42.7301654315726" lon="10.39297745393978"><ele>368.0</ele><time>2026-04-19T14:25:12.941Z</time></trkpt><trkpt lat="42.73007468711049" lon="10.393057582037015"><ele>363.0</ele><time>2026-04-19T14:25:13.941Z</time></trkpt><trkpt lat="42.72710137329686" lon="10.39855572972267"><ele>363.0</ele><time>2026-04-19T14:26:14.94Z</time></trkpt><trkpt lat="42.72705072138981" lon="10.398645028619255"><ele>363.0</ele><time>2026-04-19T14:26:15.94Z</time></trkpt><trkpt lat="42.72698932534201" lon="10.398690618306658"><ele>363.0</ele><time>2026-04-19T14:26:16.94Z</time></trkpt><trkpt lat="42.7269138740784" lon="10.39875292068729"><ele>363.0</ele><time>2026-04-19T14:26:17.94Z</time></trkpt><trkpt lat="42.726783089801074" lon="10.39883472778173"><ele>363.0</ele><time>2026-04-19T14:26:18.94Z</time></trkpt><trkpt lat="42.72665255462775" lon="10.398914723179425"><ele>359.59999999999997</ele><time>2026-04-19T14:26:19.94Z</time></trkpt><trkpt lat="42.726572144780974" lon="10.399007509847015"><ele>356.2</ele><time>2026-04-19T14:26:20.94Z</time></trkpt><trkpt lat="42.72653393210479" lon="10.399130421757565"><ele>352.8</ele><time>2026-04-19T14:26:21.94Z</time></trkpt><trkpt lat="42.726489706887335" lon="10.399285544297433"><ele>349.4</ele><time>2026-04-19T14:26:22.94Z</time></trkpt><trkpt lat="42.726484749417274" lon="10.399446649468413"><ele>346.0</ele><time>2026-04-19T14:26:23.94Z</time></trkpt><trkpt lat="42.72651343714473" lon="10.399593998197645"><ele>345.8</ele><time>2026-04-19T14:26:24.94Z</time></trkpt><trkpt lat="42.72655352029652" lon="10.399707579344279"><ele>345.6</ele><time>2026-04-19T14:26:25.94Z</time></trkpt><trkpt lat="42.72661629355101" lon="10.39980094818957"><ele>345.4</ele><time>2026-04-19T14:26:26.94Z</time></trkpt><trkpt lat="42.726704332739864" lon="10.399922961574813"><ele>345.2</ele><time>2026-04-19T14:26:27.94Z</time></trkpt><trkpt lat="42.72680184394503" lon="10.400001844429507"><ele>345.0</ele><time>2026-04-19T14:26:28.94Z</time></trkpt><trkpt lat="42.726892476105974" lon="10.40007242918582"><ele>348.6</ele><time>2026-04-19T14:26:29.94Z</time></trkpt><trkpt lat="42.726991313511" lon="10.400111723789939"><ele>352.2</ele><time>2026-04-19T14:26:30.94Z</time></trkpt><trkpt lat="42.72711562594183" lon="10.400138991259425"><ele>355.79999999999995</ele><time>2026-04-19T14:26:31.94Z</time></trkpt><trkpt lat="42.72722326071103" lon="10.400201302670824"><ele>359.4</ele><time>2026-04-19T14:26:32.94Z</time></trkpt><trkpt lat="42.727273093091405" lon="10.400260354503304"><ele>363.0</ele><time>2026-04-19T14:26:33.94Z</time></trkpt><trkpt lat="42.72726372226972" lon="10.40037596205286"><ele>363.0</ele><time>2026-04-19T14:26:34.94Z</time></trkpt><trkpt lat="42.727231152806525" lon="10.40048398461087"><ele>363.0</ele><time>2026-04-19T14:26:35.94Z</time></trkpt><trkpt lat="42.72721680845766" lon="10.400593143034886"><ele>363.0</ele><time>2026-04-19T14:26:36.94Z</time></trkpt><trkpt lat="42.72713452130706" lon="10.400646904203855"><ele>363.0</ele><time>2026-04-19T14:26:37.94Z</time></trkpt><trkpt lat="42.72707650344826" lon="10.400589755156501"><ele>363.0</ele><time>2026-04-19T14:26:38.94Z</time></trkpt><trkpt lat="42.726922473584175" lon="10.400563197954922"><ele>359.6666666666667</ele><time>2026-04-19T14:26:40.94Z</time></trkpt><trkpt lat="42.726744570682015" lon="10.40055901501808"><ele>356.33333333333337</ele><time>2026-04-19T14:26:41.939Z</time></trkpt><trkpt lat="42.72658005050001" lon="10.400591567483337"><ele>353.0</ele><time>2026-04-19T14:26:42.939Z</time></trkpt><trkpt lat="42.72644738252328" lon="10.400617736563186"><ele>353.0</ele><time>2026-04-19T14:26:43.939Z</time></trkpt><trkpt lat="42.72634635109959" lon="10.400642620892114"><ele>353.0</ele><time>2026-04-19T14:26:44.939Z</time></trkpt><trkpt lat="42.726238934960826" lon="10.400679460561108"><ele>353.0</ele><time>2026-04-19T14:26:45.939Z</time></trkpt><trkpt lat="42.72614502483494" lon="10.400763654855314"><ele>353.0</ele><time>2026-04-19T14:26:46.939Z</time></trkpt><trkpt lat="42.72609055826675" lon="10.400846169988727"><ele>353.0</ele><time>2026-04-19T14:26:47.939Z</time></trkpt><trkpt lat="42.72603702802067" lon="10.400977181784464"><ele>350.0</ele><time>2026-04-19T14:26:48.939Z</time></trkpt><trkpt lat="42.72602011148631" lon="10.401157306374415"><ele>347.0</ele><time>2026-04-19T14:26:49.939Z</time></trkpt><trkpt lat="42.72599750466089" lon="10.401375342128695"><ele>344.0</ele><time>2026-04-19T14:26:50.939Z</time></trkpt><trkpt lat="42.725958458734844" lon="10.401577633052575"><ele>341.0</ele><time>2026-04-19T14:26:51.939Z</time></trkpt><trkpt lat="42.725903560831796" lon="10.401790842189579"><ele>341.0</ele><time>2026-04-19T14:26:52.939Z</time></trkpt><trkpt lat="42.72583076740984" lon="10.40195284241253"><ele>341.0</ele><time>2026-04-19T14:26:53.939Z</time></trkpt><trkpt lat="42.725744631309155" lon="10.402123919150007"><ele>341.0</ele><time>2026-04-19T14:26:54.939Z</time></trkpt><trkpt lat="42.72566784575787" lon="10.402298729302606"><ele>341.0</ele><time>2026-04-19T14:26:55.939Z</time></trkpt><trkpt lat="42.725627705638274" lon="10.402444876029104"><ele>341.8</ele><time>2026-04-19T14:26:56.939Z</time></trkpt><trkpt lat="42.725620200049825" lon="10.402569458775245"><ele>342.6</ele><time>2026-04-19T14:26:57.939Z</time></trkpt><trkpt lat="42.72564847182831" lon="10.402703489325058"><ele>343.4</ele><time>2026-04-19T14:26:58.939Z</time></trkpt><trkpt lat="42.725666525145606" lon="10.40286000524621"><ele>344.2</ele><time>2026-04-19T14:26:59.939Z</time></trkpt><trkpt lat="42.725699858902004" lon="10.402988150823637"><ele>345.0</ele><time>2026-04-19T14:27:00.939Z</time></trkpt><trkpt lat="42.725754953513615" lon="10.403100614817095"><ele>345.0</ele><time>2026-04-19T14:27:01.939Z</time></trkpt><trkpt lat="42.72580664185938" lon="10.403203797402371"><ele>345.0</ele><time>2026-04-19T14:27:02.939Z</time></trkpt><trkpt lat="42.725860270261784" lon="10.403271695025724"><ele>345.0</ele><time>2026-04-19T14:27:03.939Z</time></trkpt><trkpt lat="42.72592541774455" lon="10.40328674760654"><ele>345.0</ele><time>2026-04-19T14:27:04.939Z</time></trkpt><trkpt lat="42.72599256447844" lon="10.4032794802872"><ele>345.0</ele><time>2026-04-19T14:27:05.939Z</time></trkpt><trkpt lat="42.72609441906855" lon="10.403267730732743"><ele>345.0</ele><time>2026-04-19T14:27:06.939Z</time></trkpt><trkpt lat="42.726195268817776" lon="10.403217467091645"><ele>345.0</ele><time>2026-04-19T14:27:07.939Z</time></trkpt><trkpt lat="42.72631882692768" lon="10.403126216247735"><ele>345.0</ele><time>2026-04-19T14:27:08.939Z</time></trkpt><trkpt lat="42.72646095385363" lon="10.403024640347239"><ele>345.0</ele><time>2026-04-19T14:27:09.939Z</time></trkpt><trkpt lat="42.72660631479754" lon="10.402948264719813"><ele>342.75</ele><time>2026-04-19T14:27:10.939Z</time></trkpt><trkpt lat="42.726732455350025" lon="10.402894524123255"><ele>340.5</ele><time>2026-04-19T14:27:11.939Z</time></trkpt><trkpt lat="42.72683519029865" lon="10.402875086988697"><ele>338.25</ele><time>2026-04-19T14:27:12.939Z</time></trkpt><trkpt lat="42.72692532092455" lon="10.402861284365315"><ele>336.0</ele><time>2026-04-19T14:27:13.939Z</time></trkpt><trkpt lat="42.72676633285252" lon="10.405012722712765"><ele>336.0</ele><time>2026-04-19T14:28:14.939Z</time></trkpt><trkpt lat="42.72680939536563" lon="10.404924748369417"><ele>336.0</ele><time>2026-04-19T14:28:59.937Z</time></trkpt><trkpt lat="42.72685196700988" lon="10.404860603781483"><ele>336.0</ele><time>2026-04-19T14:29:00.937Z</time></trkpt><trkpt lat="42.72690508998701" lon="10.404801504375097"><ele>336.0</ele><time>2026-04-19T14:29:01.937Z</time></trkpt><trkpt lat="42.72695581955321" lon="10.404725924790831"><ele>336.0</ele><time>2026-04-19T14:29:02.937Z</time></trkpt><trkpt lat="42.72699925159031" lon="10.404640969736784"><ele>336.0</ele><time>2026-04-19T14:29:03.937Z</time></trkpt><trkpt lat="42.727029239244516" lon="10.40449249965329"><ele>335.1666666666667</ele><time>2026-04-19T14:29:05.937Z</time></trkpt><trkpt lat="42.726993213277034" lon="10.404421863298813"><ele>334.3333333333333</ele><time>2026-04-19T14:29:06.937Z</time></trkpt><trkpt lat="42.726929114805145" lon="10.404398849692093"><ele>333.5</ele><time>2026-04-19T14:29:07.937Z</time></trkpt><trkpt lat="42.726851877939524" lon="10.404364872325711"><ele>332.66666666666663</ele><time>2026-04-19T14:29:08.937Z</time></trkpt><trkpt lat="42.72678321460975" lon="10.40429286446663"><ele>331.8333333333333</ele><time>2026-04-19T14:29:09.937Z</time></trkpt><trkpt lat="42.72674299343909" lon="10.404200282532795"><ele>331.0</ele><time>2026-04-19T14:29:10.937Z</time></trkpt><trkpt lat="42.726751473832465" lon="10.404086976883885"><ele>331.0</ele><time>2026-04-19T14:29:11.937Z</time></trkpt><trkpt lat="42.726753090822726" lon="10.403960453340925"><ele>331.0</ele><time>2026-04-19T14:29:12.937Z</time></trkpt><trkpt lat="42.726729649219905" lon="10.403859727187694"><ele>331.0</ele><time>2026-04-19T14:29:13.937Z</time></trkpt><trkpt lat="42.724580988211386" lon="10.400574731080352"><ele>321.75</ele><time>2026-04-19T14:30:14.937Z</time></trkpt><trkpt lat="42.72454028500562" lon="10.400401820289657"><ele>312.5</ele><time>2026-04-19T14:30:15.937Z</time></trkpt><trkpt lat="42.724561993281874" lon="10.400238448121112"><ele>303.25</ele><time>2026-04-19T14:30:16.937Z</time></trkpt><trkpt lat="42.72457303944652" lon="10.40010785412527"><ele>294.0</ele><time>2026-04-19T14:30:17.937Z</time></trkpt><trkpt lat="42.724573572152444" lon="10.39996978861646"><ele>294.0</ele><time>2026-04-19T14:30:18.937Z</time></trkpt><trkpt lat="42.724580487279404" lon="10.399804211784609"><ele>294.0</ele><time>2026-04-19T14:30:19.937Z</time></trkpt><trkpt lat="42.72458652009315" lon="10.399625492711102"><ele>294.0</ele><time>2026-04-19T14:30:20.937Z</time></trkpt><trkpt lat="42.72460105191726" lon="10.399448873911211"><ele>294.0</ele><time>2026-04-19T14:30:21.937Z</time></trkpt><trkpt lat="42.72458549855711" lon="10.399282741704234"><ele>294.4</ele><time>2026-04-19T14:30:22.937Z</time></trkpt><trkpt lat="42.72455147944458" lon="10.399171217640742"><ele>294.79999999999995</ele><time>2026-04-19T14:30:23.937Z</time></trkpt><trkpt lat="42.724516870800976" lon="10.399068102141399"><ele>295.20000000000005</ele><time>2026-04-19T14:30:24.937Z</time></trkpt><trkpt lat="42.7244381438488" lon="10.399006570195237"><ele>295.6</ele><time>2026-04-19T14:30:25.937Z</time></trkpt><trkpt lat="42.72436428135991" lon="10.398900852064756"><ele>296.0</ele><time>2026-04-19T14:30:26.937Z</time></trkpt><trkpt lat="42.724298667056296" lon="10.398809996220198"><ele>296.8</ele><time>2026-04-19T14:30:27.937Z</time></trkpt><trkpt lat="42.72427937426135" lon="10.398723671119928"><ele>297.6</ele><time>2026-04-19T14:30:28.937Z</time></trkpt><trkpt lat="42.72431569487086" lon="10.39862187780676"><ele>298.4</ele><time>2026-04-19T14:30:29.937Z</time></trkpt><trkpt lat="42.724372019465214" lon="10.39847586437981"><ele>299.2</ele><time>2026-04-19T14:30:30.937Z</time></trkpt><trkpt lat="42.72440240607395" lon="10.39834810952785"><ele>300.0</ele><time>2026-04-19T14:30:31.937Z</time></trkpt><trkpt lat="42.72440685982237" lon="10.398208694955317"><ele>300.0</ele><time>2026-04-19T14:30:32.937Z</time></trkpt><trkpt lat="42.72441790267548" lon="10.398043640677093"><ele>300.0</ele><time>2026-04-19T14:30:33.937Z</time></trkpt><trkpt lat="42.724376494352455" lon="10.397852510327935"><ele>300.0</ele><time>2026-04-19T14:30:34.937Z</time></trkpt><trkpt lat="42.72435853240669" lon="10.397638015577627"><ele>300.0</ele><time>2026-04-19T14:30:35.937Z</time></trkpt><trkpt lat="42.724340972293895" lon="10.397450965274265"><ele>293.0</ele><time>2026-04-19T14:30:36.937Z</time></trkpt><trkpt lat="42.72432304811686" lon="10.397275612385606"><ele>286.0</ele><time>2026-04-19T14:30:37.937Z</time></trkpt><trkpt lat="42.72426290057929" lon="10.397154766704906"><ele>279.0</ele><time>2026-04-19T14:30:38.936Z</time></trkpt><trkpt lat="42.72420585610307" lon="10.396988923224631"><ele>272.0</ele><time>2026-04-19T14:30:39.936Z</time></trkpt><trkpt lat="42.724111544090206" lon="10.396837194962487"><ele>272.0</ele><time>2026-04-19T14:30:40.936Z</time></trkpt><trkpt lat="42.72404242989561" lon="10.396675257808408"><ele>272.0</ele><time>2026-04-19T14:30:41.936Z</time></trkpt><trkpt lat="42.72397856192873" lon="10.396527721689333"><ele>272.0</ele><time>2026-04-19T14:30:42.936Z</time></trkpt><trkpt lat="42.72393413711483" lon="10.396395191911381"><ele>272.0</ele><time>2026-04-19T14:30:43.936Z</time></trkpt><trkpt lat="42.72389494560074" lon="10.39627969027455"><ele>272.6666666666667</ele><time>2026-04-19T14:30:44.936Z</time></trkpt><trkpt lat="42.72386255437239" lon="10.39616898365679"><ele>273.33333333333337</ele><time>2026-04-19T14:30:45.936Z</time></trkpt><trkpt lat="42.72383464280763" lon="10.396070930056105"><ele>274.0</ele><time>2026-04-19T14:30:46.936Z</time></trkpt><trkpt lat="42.7238104706563" lon="10.395980832495551"><ele>274.6666666666667</ele><time>2026-04-19T14:30:47.936Z</time></trkpt><trkpt lat="42.723782572789375" lon="10.395886100083683"><ele>275.3333333333333</ele><time>2026-04-19T14:30:48.936Z</time></trkpt><trkpt lat="42.723750599691805" lon="10.395775917836456"><ele>276.0</ele><time>2026-04-19T14:30:49.936Z</time></trkpt><trkpt lat="42.723729512928195" lon="10.395649347720546"><ele>276.0</ele><time>2026-04-19T14:30:50.936Z</time></trkpt><trkpt lat="42.72372474892968" lon="10.395522451703648"><ele>276.0</ele><time>2026-04-19T14:30:51.936Z</time></trkpt><trkpt lat="42.72375817840711" lon="10.395441730706564"><ele>276.0</ele><time>2026-04-19T14:30:52.936Z</time></trkpt><trkpt lat="42.72382549535707" lon="10.395383908867064"><ele>276.0</ele><time>2026-04-19T14:30:53.936Z</time></trkpt><trkpt lat="42.72390380719256" lon="10.395297581720776"><ele>276.0</ele><time>2026-04-19T14:30:54.936Z</time></trkpt><trkpt lat="42.723999470975194" lon="10.39519333678377"><ele>272.8</ele><time>2026-04-19T14:30:55.936Z</time></trkpt><trkpt lat="42.72410786426763" lon="10.39509402947793"><ele>269.6</ele><time>2026-04-19T14:30:56.936Z</time></trkpt><trkpt lat="42.72419317078138" lon="10.39500217020513"><ele>266.4</ele><time>2026-04-19T14:30:57.936Z</time></trkpt><trkpt lat="42.724253667195946" lon="10.39489099550181"><ele>263.2</ele><time>2026-04-19T14:30:58.936Z</time></trkpt><trkpt lat="42.72430423179223" lon="10.394790229380112"><ele>260.0</ele><time>2026-04-19T14:30:59.936Z</time></trkpt><trkpt lat="42.72429691958904" lon="10.394665789540445"><ele>258.25</ele><time>2026-04-19T14:31:00.936Z</time></trkpt><trkpt lat="42.72427640706441" lon="10.39453178285696"><ele>256.5</ele><time>2026-04-19T14:31:01.936Z</time></trkpt><trkpt lat="42.724245434343" lon="10.394365383410559"><ele>254.75</ele><time>2026-04-19T14:31:02.936Z</time></trkpt><trkpt lat="42.72421094919898" lon="10.394196225481586"><ele>253.0</ele><time>2026-04-19T14:31:03.936Z</time></trkpt><trkpt lat="42.72419124612918" lon="10.394036107143016"><ele>253.0</ele><time>2026-04-19T14:31:04.936Z</time></trkpt><trkpt lat="42.72413758730364" lon="10.393905266178153"><ele>253.0</ele><time>2026-04-19T14:31:05.936Z</time></trkpt><trkpt lat="42.7240852724887" lon="10.393777454267113"><ele>253.0</ele><time>2026-04-19T14:31:06.936Z</time></trkpt><trkpt lat="42.724034016100326" lon="10.393650006154118"><ele>253.0</ele><time>2026-04-19T14:31:07.936Z</time></trkpt><trkpt lat="42.72397810998378" lon="10.393506850471711"><ele>253.0</ele><time>2026-04-19T14:31:08.936Z</time></trkpt><trkpt lat="42.72391610992862" lon="10.393349928431675"><ele>255.75</ele><time>2026-04-19T14:31:09.936Z</time></trkpt><trkpt lat="42.72384383806658" lon="10.393175213624703"><ele>258.5</ele><time>2026-04-19T14:31:10.936Z</time></trkpt><trkpt lat="42.72378258928267" lon="10.39301721325311"><ele>261.25</ele><time>2026-04-19T14:31:11.936Z</time></trkpt><trkpt lat="42.72372943579343" lon="10.392877516971886"><ele>264.0</ele><time>2026-04-19T14:31:12.936Z</time></trkpt><trkpt lat="42.72367372842443" lon="10.392743326278367"><ele>180.0</ele><time>2026-04-19T14:31:13.936Z</time></trkpt><trkpt lat="42.72334834933428" lon="10.386094801541155"><ele>180.0</ele><time>2026-04-19T14:32:14.934Z</time></trkpt><trkpt lat="42.72335214220449" lon="10.385943452884007"><ele>180.0</ele><time>2026-04-19T14:32:15.934Z</time></trkpt><trkpt lat="42.72335612768109" lon="10.385818467878629"><ele>180.0</ele><time>2026-04-19T14:32:16.934Z</time></trkpt><trkpt lat="42.723343616028444" lon="10.385676664606084"><ele>180.0</ele><time>2026-04-19T14:32:17.934Z</time></trkpt><trkpt lat="42.72330794062528" lon="10.38553868866521"><ele>180.0</ele><time>2026-04-19T14:32:18.934Z</time></trkpt><trkpt lat="42.72324593989936" lon="10.385428905853916"><ele>179.6</ele><time>2026-04-19T14:32:19.936Z</time></trkpt><trkpt lat="42.7231845406248" lon="10.385278468325524"><ele>179.2</ele><time>2026-04-19T14:32:20.936Z</time></trkpt><trkpt lat="42.72314238952652" lon="10.385144885819619"><ele>178.8</ele><time>2026-04-19T14:32:21.935Z</time></trkpt><trkpt lat="42.72311741926209" lon="10.385026522129687"><ele>178.4</ele><time>2026-04-19T14:32:22.935Z</time></trkpt><trkpt lat="42.723097166301464" lon="10.384924179156409"><ele>178.0</ele><time>2026-04-19T14:32:23.935Z</time></trkpt><trkpt lat="42.72308539602176" lon="10.38482615836409"><ele>178.0</ele><time>2026-04-19T14:32:24.935Z</time></trkpt><trkpt lat="42.72307972055838" lon="10.384736023818991"><ele>178.0</ele><time>2026-04-19T14:32:25.935Z</time></trkpt><trkpt lat="42.72308188970445" lon="10.384644753914984"><ele>178.0</ele><time>2026-04-19T14:32:26.935Z</time></trkpt><trkpt lat="42.72308396211838" lon="10.384520520633712"><ele>178.0</ele><time>2026-04-19T14:32:28.935Z</time></trkpt><trkpt lat="42.72308103019542" lon="10.384433827571732"><ele>178.0</ele><time>2026-04-19T14:32:30.935Z</time></trkpt><trkpt lat="42.72666461411455" lon="10.387159211501912"><ele>178.25</ele><time>2026-04-19T14:34:14.933Z</time></trkpt><trkpt lat="42.726722012343316" lon="10.387285012738861"><ele>178.5</ele><time>2026-04-19T14:34:15.933Z</time></trkpt><trkpt lat="42.72677399810963" lon="10.38743575449774"><ele>178.75</ele><time>2026-04-19T14:34:16.933Z</time></trkpt><trkpt lat="42.72681563447192" lon="10.387607183019478"><ele>179.0</ele><time>2026-04-19T14:34:17.933Z</time></trkpt><trkpt lat="42.72686189497154" lon="10.387760671117285"><ele>178.6</ele><time>2026-04-19T14:34:18.933Z</time></trkpt><trkpt lat="42.72693682799387" lon="10.387872680226183"><ele>178.2</ele><time>2026-04-19T14:34:19.933Z</time></trkpt><trkpt lat="42.7269978887801" lon="10.387997022293915"><ele>177.79999999999998</ele><time>2026-04-19T14:34:20.933Z</time></trkpt><trkpt lat="42.72708122397573" lon="10.388073894477115"><ele>177.39999999999998</ele><time>2026-04-19T14:34:21.933Z</time></trkpt><trkpt lat="42.727152504680575" lon="10.388152935533403"><ele>177.0</ele><time>2026-04-19T14:34:22.933Z</time></trkpt><trkpt lat="42.727235393042555" lon="10.388187921457996"><ele>177.0</ele><time>2026-04-19T14:34:23.933Z</time></trkpt><trkpt lat="42.72733514966051" lon="10.388172106226452"><ele>177.0</ele><time>2026-04-19T14:34:24.933Z</time></trkpt><trkpt lat="42.72738775200611" lon="10.388107883228313"><ele>177.0</ele><time>2026-04-19T14:34:25.933Z</time></trkpt><trkpt lat="42.72744879585906" lon="10.388040150111323"><ele>177.0</ele><time>2026-04-19T14:34:26.933Z</time></trkpt><trkpt lat="42.72746367403413" lon="10.38794528038362"><ele>177.0</ele><time>2026-04-19T14:34:27.933Z</time></trkpt><trkpt lat="42.7274024508173" lon="10.387819540437546"><ele>177.0</ele><time>2026-04-19T14:34:28.933Z</time></trkpt><trkpt lat="42.72734354669052" lon="10.387694308466836"><ele>177.0</ele><time>2026-04-19T14:34:29.933Z</time></trkpt><trkpt lat="42.72731751158301" lon="10.38755757425949"><ele>177.0</ele><time>2026-04-19T14:34:30.933Z</time></trkpt><trkpt lat="42.727369150603074" lon="10.387407161307493"><ele>177.0</ele><time>2026-04-19T14:34:31.934Z</time></trkpt><trkpt lat="42.727398040270394" lon="10.387245400106774"><ele>177.0</ele><time>2026-04-19T14:34:32.934Z</time></trkpt><trkpt lat="42.72745907216617" lon="10.387069395774331"><ele>172.33333333333334</ele><time>2026-04-19T14:34:33.934Z</time></trkpt><trkpt lat="42.727506546486545" lon="10.38689335442531"><ele>167.66666666666669</ele><time>2026-04-19T14:34:34.934Z</time></trkpt><trkpt lat="42.72758346738496" lon="10.386708099001035"><ele>163.0</ele><time>2026-04-19T14:34:35.934Z</time></trkpt><trkpt lat="42.727671097075174" lon="10.3865255554534"><ele>173.33333333333334</ele><time>2026-04-19T14:34:36.934Z</time></trkpt><trkpt lat="42.72775981007649" lon="10.386332658905191"><ele>183.66666666666669</ele><time>2026-04-19T14:34:37.933Z</time></trkpt><trkpt lat="42.7278454313617" lon="10.386143156990336"><ele>194.0</ele><time>2026-04-19T14:34:38.933Z</time></trkpt><trkpt lat="42.7279135298764" lon="10.385918624267662"><ele>194.0</ele><time>2026-04-19T14:34:39.933Z</time></trkpt><trkpt lat="42.7279703207219" lon="10.385691328250507"><ele>194.0</ele><time>2026-04-19T14:34:40.933Z</time></trkpt><trkpt lat="42.72801293313023" lon="10.385479186920657"><ele>194.0</ele><time>2026-04-19T14:34:41.934Z</time></trkpt><trkpt lat="42.72804656333434" lon="10.385277655276678"><ele>191.75</ele><time>2026-04-19T14:34:42.934Z</time></trkpt><trkpt lat="42.72805861469829" lon="10.38506788892643"><ele>189.5</ele><time>2026-04-19T14:34:43.933Z</time></trkpt><trkpt lat="42.72806811447503" lon="10.384870131599119"><ele>187.25</ele><time>2026-04-19T14:34:44.933Z</time></trkpt><trkpt lat="42.72809353555914" lon="10.384674586936288"><ele>185.0</ele><time>2026-04-19T14:34:45.933Z</time></trkpt><trkpt lat="42.728135206690126" lon="10.3844785561834"><ele>183.6</ele><time>2026-04-19T14:34:46.933Z</time></trkpt><trkpt lat="42.728183220167146" lon="10.384303073991406"><ele>182.2</ele><time>2026-04-19T14:34:47.933Z</time></trkpt><trkpt lat="42.72820933128951" lon="10.384157885311494"><ele>180.8</ele><time>2026-04-19T14:34:48.933Z</time></trkpt><trkpt lat="42.72822181237386" lon="10.384026868288206"><ele>179.4</ele><time>2026-04-19T14:34:49.933Z</time></trkpt><trkpt lat="42.72820785761186" lon="10.383896698706856"><ele>178.0</ele><time>2026-04-19T14:34:50.933Z</time></trkpt><trkpt lat="42.72816540165431" lon="10.38377593796191"><ele>177.99999999999997</ele><time>2026-04-19T14:34:51.933Z</time></trkpt><trkpt lat="42.72814863617921" lon="10.383684588002973"><ele>178.0</ele><time>2026-04-19T14:34:52.933Z</time></trkpt><trkpt lat="42.72811828024773" lon="10.383577399464839"><ele>178.0</ele><time>2026-04-19T14:34:54.933Z</time></trkpt><trkpt lat="42.728083240598565" lon="10.383497213629646"><ele>178.0</ele><time>2026-04-19T14:34:57.933Z</time></trkpt><trkpt lat="42.728058390434384" lon="10.383399887178578"><ele>178.0</ele><time>2026-04-19T14:35:01.933Z</time></trkpt><trkpt lat="42.72803264939654" lon="10.383317932083633"><ele>177.99999999999997</ele><time>2026-04-19T14:35:04.933Z</time></trkpt><trkpt lat="42.72801992722501" lon="10.383226433485648"><ele>178.0</ele><time>2026-04-19T14:35:07.933Z</time></trkpt><trkpt lat="42.72802287255705" lon="10.38309793882684"><ele>178.0</ele><time>2026-04-19T14:35:09.933Z</time></trkpt><trkpt lat="42.72803919443832" lon="10.383006603636463"><ele>178.0</ele><time>2026-04-19T14:35:10.933Z</time></trkpt><trkpt lat="42.728060001460136" lon="10.3829092898657"><ele>178.0</ele><time>2026-04-19T14:35:11.933Z</time></trkpt><trkpt lat="42.72809733525238" lon="10.382789612514092"><ele>178.0</ele><time>2026-04-19T14:35:12.933Z</time></trkpt><trkpt lat="42.728137460900044" lon="10.382664632558777"><ele>178.0</ele><time>2026-04-19T14:35:13.933Z</time></trkpt><trkpt lat="42.73410872780149" lon="10.383455965254305"><ele>178.0</ele><time>2026-04-19T14:36:14.931Z</time></trkpt><trkpt lat="42.73417746050526" lon="10.383407563715947"><ele>178.0</ele><time>2026-04-19T14:36:15.931Z</time></trkpt><trkpt lat="42.73422839157554" lon="10.383323643104909"><ele>178.0</ele><time>2026-04-19T14:36:16.931Z</time></trkpt><trkpt lat="42.73424108346116" lon="10.383220814956232"><ele>178.0</ele><time>2026-04-19T14:36:17.931Z</time></trkpt><trkpt lat="42.73416773448135" lon="10.383102063196306"><ele>178.0</ele><time>2026-04-19T14:36:18.931Z</time></trkpt><trkpt lat="42.734171602318874" lon="10.38298751145495"><ele>178.0</ele><time>2026-04-19T14:36:19.931Z</time></trkpt><trkpt lat="42.73418327932454" lon="10.382848132210375"><ele>175.75</ele><time>2026-04-19T14:36:20.931Z</time></trkpt><trkpt lat="42.73428019332169" lon="10.382707172711658"><ele>173.5</ele><time>2026-04-19T14:36:21.931Z</time></trkpt><trkpt lat="42.73434961415698" lon="10.382566854028145"><ele>171.25</ele><time>2026-04-19T14:36:22.931Z</time></trkpt><trkpt lat="42.7343653861352" lon="10.382417463434338"><ele>169.0</ele><time>2026-04-19T14:36:23.931Z</time></trkpt><trkpt lat="42.73434235922228" lon="10.382271650164375"><ele>167.0</ele><time>2026-04-19T14:36:24.931Z</time></trkpt><trkpt lat="42.73427470118125" lon="10.382113816942379"><ele>165.0</ele><time>2026-04-19T14:36:25.931Z</time></trkpt><trkpt lat="42.73422884622362" lon="10.38195202101233"><ele>163.0</ele><time>2026-04-19T14:36:26.931Z</time></trkpt><trkpt lat="42.734226933895776" lon="10.381748580928301"><ele>161.0</ele><time>2026-04-19T14:36:27.931Z</time></trkpt><trkpt lat="42.73418998698431" lon="10.381537154413596"><ele>156.33333333333331</ele><time>2026-04-19T14:36:28.931Z</time></trkpt><trkpt lat="42.734263721625396" lon="10.381316489387432"><ele>151.66666666666666</ele><time>2026-04-19T14:36:29.931Z</time></trkpt><trkpt lat="42.73429286726545" lon="10.381122846669696"><ele>147.0</ele><time>2026-04-19T14:36:30.932Z</time></trkpt><trkpt lat="42.73431784618876" lon="10.380945478479157"><ele>147.0</ele><time>2026-04-19T14:36:31.932Z</time></trkpt><trkpt lat="42.73431811376738" lon="10.38078849724176"><ele>147.0</ele><time>2026-04-19T14:36:32.932Z</time></trkpt><trkpt lat="42.73431888552774" lon="10.38063041293014"><ele>147.0</ele><time>2026-04-19T14:36:33.932Z</time></trkpt><trkpt lat="42.73432318094592" lon="10.380476110487827"><ele>147.0</ele><time>2026-04-19T14:36:34.932Z</time></trkpt><trkpt lat="42.73435349232749" lon="10.38036625894163"><ele>147.0</ele><time>2026-04-19T14:36:35.932Z</time></trkpt><trkpt lat="42.73442294479764" lon="10.38030127479272"><ele>148.5</ele><time>2026-04-19T14:36:36.932Z</time></trkpt><trkpt lat="42.73451565275905" lon="10.380268890357307"><ele>150.0</ele><time>2026-04-19T14:36:37.932Z</time></trkpt><trkpt lat="42.73462412566863" lon="10.38023203165097"><ele>151.5</ele><time>2026-04-19T14:36:38.932Z</time></trkpt><trkpt lat="42.73474549266474" lon="10.380221829254058"><ele>153.0</ele><time>2026-04-19T14:36:39.932Z</time></trkpt><trkpt lat="42.734887903468774" lon="10.380219828658523"><ele>153.0</ele><time>2026-04-19T14:36:40.932Z</time></trkpt><trkpt lat="42.73503899146717" lon="10.380220563216213"><ele>153.0</ele><time>2026-04-19T14:36:41.932Z</time></trkpt><trkpt lat="42.73520795057425" lon="10.380228770112078"><ele>153.0</ele><time>2026-04-19T14:36:42.932Z</time></trkpt><trkpt lat="42.73538784327339" lon="10.3802649336391"><ele>151.66666666666666</ele><time>2026-04-19T14:36:43.931Z</time></trkpt><trkpt lat="42.73555735555365" lon="10.380300807302225"><ele>150.33333333333331</ele><time>2026-04-19T14:36:44.932Z</time></trkpt><trkpt lat="42.73572773359572" lon="10.38034539213461"><ele>149.0</ele><time>2026-04-19T14:36:45.932Z</time></trkpt><trkpt lat="42.73588314338202" lon="10.380415954796494"><ele>149.0</ele><time>2026-04-19T14:36:46.931Z</time></trkpt><trkpt lat="42.736026150825346" lon="10.3804985707953"><ele>149.0</ele><time>2026-04-19T14:36:47.931Z</time></trkpt><trkpt lat="42.73616786822244" lon="10.380578673473337"><ele>149.0</ele><time>2026-04-19T14:36:48.931Z</time></trkpt><trkpt lat="42.73630759255844" lon="10.380601276942883"><ele>149.0</ele><time>2026-04-19T14:36:49.931Z</time></trkpt><trkpt lat="42.73645470818864" lon="10.380553544781783"><ele>146.66666666666666</ele><time>2026-04-19T14:36:50.931Z</time></trkpt><trkpt lat="42.73660104404004" lon="10.38050970524324"><ele>144.33333333333334</ele><time>2026-04-19T14:36:51.931Z</time></trkpt><trkpt lat="42.736756384690636" lon="10.380565810511836"><ele>142.0</ele><time>2026-04-19T14:36:52.931Z</time></trkpt><trkpt lat="42.73693902829499" lon="10.38060522221243"><ele>152.0</ele><time>2026-04-19T14:36:53.931Z</time></trkpt><trkpt lat="42.73709535174504" lon="10.380648009449544"><ele>162.0</ele><time>2026-04-19T14:36:54.931Z</time></trkpt><trkpt lat="42.737236444740816" lon="10.380711353870632"><ele>172.0</ele><time>2026-04-19T14:36:55.931Z</time></trkpt><trkpt lat="42.73736214649726" lon="10.380811410814877"><ele>172.0</ele><time>2026-04-19T14:36:56.931Z</time></trkpt><trkpt lat="42.7374801293776" lon="10.380879095906723"><ele>172.0</ele><time>2026-04-19T14:36:57.931Z</time></trkpt><trkpt lat="42.737554501407786" lon="10.380914537203322"><ele>172.0</ele><time>2026-04-19T14:36:58.931Z</time></trkpt><trkpt lat="42.73765467881942" lon="10.38084940004791"><ele>172.0</ele><time>2026-04-19T14:36:59.931Z</time></trkpt><trkpt lat="42.737733937151" lon="10.380792658707623"><ele>172.0</ele><time>2026-04-19T14:37:00.931Z</time></trkpt><trkpt lat="42.737749332012235" lon="10.380676910565766"><ele>169.25</ele><time>2026-04-19T14:37:01.931Z</time></trkpt><trkpt lat="42.737792172621425" lon="10.380567891286228"><ele>166.5</ele><time>2026-04-19T14:37:02.931Z</time></trkpt><trkpt lat="42.73786151959917" lon="10.380423165172076"><ele>163.75</ele><time>2026-04-19T14:37:03.931Z</time></trkpt><trkpt lat="42.73793548370019" lon="10.380281207217857"><ele>161.0</ele><time>2026-04-19T14:37:04.931Z</time></trkpt><trkpt lat="42.73802219246389" lon="10.380183851331987"><ele>161.0</ele><time>2026-04-19T14:37:05.931Z</time></trkpt><trkpt lat="42.73809928103404" lon="10.380111860830988"><ele>161.0</ele><time>2026-04-19T14:37:06.931Z</time></trkpt><trkpt lat="42.738184733250336" lon="10.380076574696073"><ele>161.0</ele><time>2026-04-19T14:37:07.931Z</time></trkpt><trkpt lat="42.73828687001623" lon="10.38010391301143"><ele>161.0</ele><time>2026-04-19T14:37:08.931Z</time></trkpt><trkpt lat="42.73841886748599" lon="10.38010360834006"><ele>161.0</ele><time>2026-04-19T14:37:09.931Z</time></trkpt><trkpt lat="42.738554911901964" lon="10.380124960691338"><ele>161.5</ele><time>2026-04-19T14:37:10.931Z</time></trkpt><trkpt lat="42.7386962019445" lon="10.380138057140314"><ele>162.0</ele><time>2026-04-19T14:37:11.931Z</time></trkpt><trkpt lat="42.738822849038364" lon="10.38012700511288"><ele>162.5</ele><time>2026-04-19T14:37:12.931Z</time></trkpt><trkpt lat="42.738915044112595" lon="10.38005545002157"><ele>163.0</ele><time>2026-04-19T14:37:13.931Z</time></trkpt><trkpt lat="42.74280434638539" lon="10.380704008996558"><ele>163.0</ele><time>2026-04-19T14:38:14.93Z</time></trkpt><trkpt lat="42.74290033367557" lon="10.380664038929378"><ele>163.0</ele><time>2026-04-19T14:38:21.929Z</time></trkpt><trkpt lat="42.74289295309308" lon="10.38056044699829"><ele>163.0</ele><time>2026-04-19T14:38:23.929Z</time></trkpt><trkpt lat="42.742838852275895" lon="10.380492116890721"><ele>163.0</ele><time>2026-04-19T14:38:26.929Z</time></trkpt><trkpt lat="42.742713631592935" lon="10.38045110243969"><ele>163.0</ele><time>2026-04-19T14:38:48.93Z</time></trkpt><trkpt lat="42.742662144546664" lon="10.380529197746045"><ele>163.0</ele><time>2026-04-19T14:38:51.93Z</time></trkpt><trkpt lat="42.742737190998376" lon="10.380629938992135"><ele>163.0</ele><time>2026-04-19T14:38:54.93Z</time></trkpt><trkpt lat="42.742838725607925" lon="10.380657337181926"><ele>163.0</ele><time>2026-04-19T14:38:56.93Z</time></trkpt><trkpt lat="42.74287173644" lon="10.38057641435283"><ele>163.0</ele><time>2026-04-19T14:38:59.93Z</time></trkpt><trkpt lat="42.7429175455193" lon="10.380478258928337"><ele>163.0</ele><time>2026-04-19T14:39:01.93Z</time></trkpt><trkpt lat="42.74298002523732" lon="10.380323154737813"><ele>164.33333333333334</ele><time>2026-04-19T14:39:03.93Z</time></trkpt><trkpt lat="42.74300118053878" lon="10.380215557262556"><ele>165.66666666666669</ele><time>2026-04-19T14:39:04.93Z</time></trkpt><trkpt lat="42.74303691835758" lon="10.380122025783406"><ele>167.0</ele><time>2026-04-19T14:39:05.93Z</time></trkpt><trkpt lat="42.74305915374374" lon="10.380019200863885"><ele>168.33333333333334</ele><time>2026-04-19T14:39:06.93Z</time></trkpt><trkpt lat="42.743076631137285" lon="10.379914436837991"><ele>169.66666666666666</ele><time>2026-04-19T14:39:07.93Z</time></trkpt><trkpt lat="42.743073905503564" lon="10.379791606678209"><ele>171.0</ele><time>2026-04-19T14:39:08.93Z</time></trkpt><trkpt lat="42.74308456808588" lon="10.379671390179785"><ele>171.0</ele><time>2026-04-19T14:39:09.93Z</time></trkpt><trkpt lat="42.74309380206325" lon="10.379538158968462"><ele>171.0</ele><time>2026-04-19T14:39:10.93Z</time></trkpt><trkpt lat="42.74310635206841" lon="10.379404441040803"><ele>171.0</ele><time>2026-04-19T14:39:11.93Z</time></trkpt><trkpt lat="42.74311747873396" lon="10.379276696216051"><ele>171.0</ele><time>2026-04-19T14:39:12.93Z</time></trkpt><trkpt lat="42.74312850499399" lon="10.379175707991566"><ele>171.0</ele><time>2026-04-19T14:39:13.93Z</time></trkpt><trkpt lat="42.744613734575516" lon="10.375535107784374"><ele>166.33333333333334</ele><time>2026-04-19T14:40:14.928Z</time></trkpt><trkpt lat="42.74465035140456" lon="10.375454032115925"><ele>161.66666666666666</ele><time>2026-04-19T14:40:15.928Z</time></trkpt><trkpt lat="42.74470478372881" lon="10.375350268400267"><ele>157.0</ele><time>2026-04-19T14:40:17.928Z</time></trkpt><trkpt lat="42.744788555889464" lon="10.375336451724758"><ele>152.33333333333331</ele><time>2026-04-19T14:40:18.928Z</time></trkpt><trkpt lat="42.74486099684501" lon="10.3753121473202"><ele>147.66666666666666</ele><time>2026-04-19T14:40:19.928Z</time></trkpt><trkpt lat="42.744950149092055" lon="10.375318209303483"><ele>143.0</ele><time>2026-04-19T14:40:20.928Z</time></trkpt><trkpt lat="42.74502908234723" lon="10.375334659813635"><ele>143.0</ele><time>2026-04-19T14:40:21.928Z</time></trkpt><trkpt lat="42.74510442361053" lon="10.375351595795161"><ele>143.0</ele><time>2026-04-19T14:40:22.928Z</time></trkpt><trkpt lat="42.74518006775874" lon="10.375377785587743"><ele>143.0</ele><time>2026-04-19T14:40:23.928Z</time></trkpt><trkpt lat="42.745256324523346" lon="10.375392436769488"><ele>143.0</ele><time>2026-04-19T14:40:24.928Z</time></trkpt><trkpt lat="42.7453162614779" lon="10.375465990734842"><ele>143.0</ele><time>2026-04-19T14:40:25.928Z</time></trkpt><trkpt lat="42.745383460185394" lon="10.375508646757403"><ele>143.0</ele><time>2026-04-19T14:40:26.928Z</time></trkpt><trkpt lat="42.74544945259593" lon="10.37555053664604"><ele>144.5</ele><time>2026-04-19T14:40:27.928Z</time></trkpt><trkpt lat="42.74551059135677" lon="10.375589345561663"><ele>146.0</ele><time>2026-04-19T14:40:28.928Z</time></trkpt><trkpt lat="42.745569378040095" lon="10.375639351366583"><ele>147.5</ele><time>2026-04-19T14:40:29.928Z</time></trkpt><trkpt lat="42.74562507039005" lon="10.375680227739384"><ele>149.0</ele><time>2026-04-19T14:40:30.928Z</time></trkpt><trkpt lat="42.7456869028919" lon="10.37571947784197"><ele>150.5</ele><time>2026-04-19T14:40:31.928Z</time></trkpt><trkpt lat="42.74578161349944" lon="10.375792081505107"><ele>152.0</ele><time>2026-04-19T14:40:33.928Z</time></trkpt><trkpt lat="42.74577722606333" lon="10.375617095152075"><ele>152.0</ele><time>2026-04-19T14:40:36.928Z</time></trkpt><trkpt lat="42.745747238873136" lon="10.375526689284918"><ele>152.0</ele><time>2026-04-19T14:40:37.928Z</time></trkpt><trkpt lat="42.74572929382471" lon="10.375418839763658"><ele>152.0</ele><time>2026-04-19T14:40:38.928Z</time></trkpt><trkpt lat="42.745722062174146" lon="10.37531135519011"><ele>152.0</ele><time>2026-04-19T14:40:39.928Z</time></trkpt><trkpt lat="42.7457282717397" lon="10.375207094221716"><ele>152.0</ele><time>2026-04-19T14:40:40.928Z</time></trkpt><trkpt lat="42.74574280422329" lon="10.375102436139505"><ele>152.0</ele><time>2026-04-19T14:40:41.928Z</time></trkpt><trkpt lat="42.74576994913971" lon="10.374965571596732"><ele>150.0</ele><time>2026-04-19T14:40:42.928Z</time></trkpt><trkpt lat="42.74581493539776" lon="10.374831190383166"><ele>148.0</ele><time>2026-04-19T14:40:43.928Z</time></trkpt><trkpt lat="42.745825349789435" lon="10.374712900253128"><ele>146.0</ele><time>2026-04-19T14:40:44.928Z</time></trkpt><trkpt lat="42.745843500068915" lon="10.374601845075343"><ele>144.0</ele><time>2026-04-19T14:40:45.928Z</time></trkpt><trkpt lat="42.74584637000788" lon="10.374494171220327"><ele>142.0</ele><time>2026-04-19T14:40:46.929Z</time></trkpt><trkpt lat="42.74583517083838" lon="10.374380964836902"><ele>140.0</ele><time>2026-04-19T14:40:47.929Z</time></trkpt><trkpt lat="42.74583340636111" lon="10.374253595947943"><ele>139.66666666666666</ele><time>2026-04-19T14:40:48.928Z</time></trkpt><trkpt lat="42.74580630730264" lon="10.374118411393274"><ele>139.33333333333331</ele><time>2026-04-19T14:40:49.928Z</time></trkpt><trkpt lat="42.74579534351901" lon="10.374000839702587"><ele>139.0</ele><time>2026-04-19T14:40:50.929Z</time></trkpt><trkpt lat="42.74578273076114" lon="10.373892385182156"><ele>138.66666666666666</ele><time>2026-04-19T14:40:51.929Z</time></trkpt><trkpt lat="42.74577560552115" lon="10.373804792122488"><ele>138.33333333333334</ele><time>2026-04-19T14:40:52.928Z</time></trkpt><trkpt lat="42.7457590121834" lon="10.373712161857986"><ele>138.0</ele><time>2026-04-19T14:40:53.928Z</time></trkpt><trkpt lat="42.74584662145727" lon="10.373640623847804"><ele>138.0</ele><time>2026-04-19T14:40:55.928Z</time></trkpt><trkpt lat="42.74589513269434" lon="10.373753220394109"><ele>138.0</ele><time>2026-04-19T14:40:56.928Z</time></trkpt><trkpt lat="42.745928729629064" lon="10.373863064440583"><ele>138.0</ele><time>2026-04-19T14:40:57.928Z</time></trkpt><trkpt lat="42.745949219871434" lon="10.374005763931873"><ele>138.0</ele><time>2026-04-19T14:40:58.929Z</time></trkpt><trkpt lat="42.74597450744681" lon="10.37417663232064"><ele>138.0</ele><time>2026-04-19T14:40:59.929Z</time></trkpt><trkpt lat="42.74600887448635" lon="10.374333472084965"><ele>138.0</ele><time>2026-04-19T14:41:00.928Z</time></trkpt><trkpt lat="42.746037217936674" lon="10.374460541979797"><ele>138.0</ele><time>2026-04-19T14:41:01.928Z</time></trkpt><trkpt lat="42.74607539063735" lon="10.374571268528872"><ele>138.0</ele><time>2026-04-19T14:41:03.928Z</time></trkpt><trkpt lat="42.746154058701684" lon="10.374554146720152"><ele>138.0</ele><time>2026-04-19T14:41:05.928Z</time></trkpt><trkpt lat="42.74614300224138" lon="10.374435269791961"><ele>138.0</ele><time>2026-04-19T14:41:06.928Z</time></trkpt><trkpt lat="42.7461111332562" lon="10.374325961942342"><ele>138.0</ele><time>2026-04-19T14:41:07.928Z</time></trkpt><trkpt lat="42.74611037994816" lon="10.374174716045887"><ele>131.75</ele><time>2026-04-19T14:41:08.928Z</time></trkpt><trkpt lat="42.74611257787562" lon="10.374022155780699"><ele>125.5</ele><time>2026-04-19T14:41:09.928Z</time></trkpt><trkpt lat="42.746125757996865" lon="10.373868860303574"><ele>119.25</ele><time>2026-04-19T14:41:10.929Z</time></trkpt><trkpt lat="42.74616082807591" lon="10.373718534394433"><ele>113.0</ele><time>2026-04-19T14:41:11.929Z</time></trkpt><trkpt lat="42.746205160903756" lon="10.373576323481199"><ele>112.5</ele><time>2026-04-19T14:41:12.93Z</time></trkpt><trkpt lat="42.74624145408874" lon="10.373450380061318"><ele>112.0</ele><time>2026-04-19T14:41:13.93Z</time></trkpt><trkpt lat="42.74803895585721" lon="10.372075647328735"><ele>101.5</ele><time>2026-04-19T14:42:14.937Z</time></trkpt><trkpt lat="42.74798583286662" lon="10.372259475551365"><ele>91.0</ele><time>2026-04-19T14:42:15.937Z</time></trkpt><trkpt lat="42.747965488353636" lon="10.372429163948986"><ele>80.5</ele><time>2026-04-19T14:42:16.937Z</time></trkpt><trkpt lat="42.74794616092141" lon="10.37259613468037"><ele>70.0</ele><time>2026-04-19T14:42:17.937Z</time></trkpt><trkpt lat="42.74793198632928" lon="10.37275496186489"><ele>70.0</ele><time>2026-04-19T14:42:18.937Z</time></trkpt><trkpt lat="42.74792225724363" lon="10.372911879993788"><ele>70.0</ele><time>2026-04-19T14:42:19.937Z</time></trkpt><trkpt lat="42.74792040081638" lon="10.37307689025924"><ele>70.0</ele><time>2026-04-19T14:42:20.937Z</time></trkpt><trkpt lat="42.747937737119976" lon="10.37324630490871"><ele>70.0</ele><time>2026-04-19T14:42:21.937Z</time></trkpt><trkpt lat="42.748007023094615" lon="10.373403192076278"><ele>70.5</ele><time>2026-04-19T14:42:22.937Z</time></trkpt><trkpt lat="42.74807195246834" lon="10.37354352204921"><ele>71.0</ele><time>2026-04-19T14:42:23.937Z</time></trkpt><trkpt lat="42.74812351324897" lon="10.373684590592257"><ele>71.5</ele><time>2026-04-19T14:42:24.937Z</time></trkpt><trkpt lat="42.74818043978891" lon="10.373805179586956"><ele>72.0</ele><time>2026-04-19T14:42:25.937Z</time></trkpt><trkpt lat="42.74823615409115" lon="10.373933665249492"><ele>72.4</ele><time>2026-04-19T14:42:26.937Z</time></trkpt><trkpt lat="42.74829141713967" lon="10.374059950934285"><ele>72.80000000000001</ele><time>2026-04-19T14:42:27.937Z</time></trkpt><trkpt lat="42.74834638786314" lon="10.374173157777802"><ele>73.2</ele><time>2026-04-19T14:42:28.936Z</time></trkpt><trkpt lat="42.748396417124056" lon="10.374282381025031"><ele>73.60000000000001</ele><time>2026-04-19T14:42:29.936Z</time></trkpt><trkpt lat="42.74843073917379" lon="10.374371389655778"><ele>74.0</ele><time>2026-04-19T14:42:30.936Z</time></trkpt><trkpt lat="42.748476272583886" lon="10.374467640919159"><ele>74.0</ele><time>2026-04-19T14:42:31.936Z</time></trkpt><trkpt lat="42.748512386165984" lon="10.374564842418039"><ele>74.0</ele><time>2026-04-19T14:42:32.936Z</time></trkpt><trkpt lat="42.748548896171336" lon="10.37465489058277"><ele>74.0</ele><time>2026-04-19T14:42:33.936Z</time></trkpt><trkpt lat="42.74859777296698" lon="10.374792402836379"><ele>74.0</ele><time>2026-04-19T14:42:35.936Z</time></trkpt><trkpt lat="42.74866302535555" lon="10.374797670053107"><ele>74.0</ele><time>2026-04-19T14:42:37.936Z</time></trkpt><trkpt lat="42.748694283649286" lon="10.37467917947775"><ele>74.0</ele><time>2026-04-19T14:42:39.936Z</time></trkpt><trkpt lat="42.74870131384403" lon="10.374519238517438"><ele>70.2</ele><time>2026-04-19T14:42:41.936Z</time></trkpt><trkpt lat="42.7487712028339" lon="10.374430707779172"><ele>66.4</ele><time>2026-04-19T14:42:43.936Z</time></trkpt><trkpt lat="42.74889320356957" lon="10.374402468791514"><ele>62.6</ele><time>2026-04-19T14:42:45.936Z</time></trkpt><trkpt lat="42.74897574816573" lon="10.374381136089927"><ele>58.8</ele><time>2026-04-19T14:42:46.936Z</time></trkpt><trkpt lat="42.74905711135117" lon="10.374377227897302"><ele>55.0</ele><time>2026-04-19T14:42:47.936Z</time></trkpt><trkpt lat="42.74914460188885" lon="10.37437467013596"><ele>54.99999999999999</ele><time>2026-04-19T14:42:48.938Z</time></trkpt><trkpt lat="42.749213428645525" lon="10.374377530086134"><ele>55.0</ele><time>2026-04-19T14:42:49.938Z</time></trkpt><trkpt lat="42.74927895590885" lon="10.374364951725937"><ele>55.0</ele><time>2026-04-19T14:42:50.938Z</time></trkpt><trkpt lat="42.749371581814735" lon="10.374330740643595"><ele>55.0</ele><time>2026-04-19T14:42:51.938Z</time></trkpt><trkpt lat="42.74945710710544" lon="10.374284411421097"><ele>54.99999999999999</ele><time>2026-04-19T14:42:52.938Z</time></trkpt><trkpt lat="42.74954950209396" lon="10.3742389789038"><ele>55.0</ele><time>2026-04-19T14:42:53.938Z</time></trkpt><trkpt lat="42.74963657253985" lon="10.374195413389684"><ele>52.83333333333333</ele><time>2026-04-19T14:42:54.937Z</time></trkpt><trkpt lat="42.74971831596288" lon="10.374182843172028"><ele>50.666666666666664</ele><time>2026-04-19T14:42:55.937Z</time></trkpt><trkpt lat="42.749807466963375" lon="10.374179664998417"><ele>48.5</ele><time>2026-04-19T14:42:56.938Z</time></trkpt><trkpt lat="42.749890169042764" lon="10.374182180637915"><ele>46.33333333333333</ele><time>2026-04-19T14:42:57.938Z</time></trkpt><trkpt lat="42.74997820496721" lon="10.37418543728591"><ele>44.166666666666664</ele><time>2026-04-19T14:42:58.937Z</time></trkpt><trkpt lat="42.75005764565053" lon="10.374164083733305"><ele>42.0</ele><time>2026-04-19T14:42:59.937Z</time></trkpt><trkpt lat="42.75013814623388" lon="10.374179705454903"><ele>40.666666666666664</ele><time>2026-04-19T14:43:00.937Z</time></trkpt><trkpt lat="42.7502146046918" lon="10.374189190843602"><ele>39.333333333333336</ele><time>2026-04-19T14:43:01.937Z</time></trkpt><trkpt lat="42.75028550384648" lon="10.374189190846371"><ele>38.0</ele><time>2026-04-19T14:43:02.938Z</time></trkpt><trkpt lat="42.7503557570833" lon="10.374174587709527"><ele>36.66666666666667</ele><time>2026-04-19T14:43:03.938Z</time></trkpt><trkpt lat="42.7504202277276" lon="10.374181697794844"><ele>35.333333333333336</ele><time>2026-04-19T14:43:04.938Z</time></trkpt><trkpt lat="42.75049814593933" lon="10.374168640551543"><ele>34.0</ele><time>2026-04-19T14:43:05.938Z</time></trkpt><trkpt lat="42.75059669488642" lon="10.374133492217778"><ele>34.0</ele><time>2026-04-19T14:43:06.938Z</time></trkpt><trkpt lat="42.75068781033134" lon="10.374142995118946"><ele>34.0</ele><time>2026-04-19T14:43:07.938Z</time></trkpt><trkpt lat="42.750794110662376" lon="10.374130662091476"><ele>34.0</ele><time>2026-04-19T14:43:08.938Z</time></trkpt><trkpt lat="42.75090030800619" lon="10.374086921275218"><ele>34.0</ele><time>2026-04-19T14:43:09.938Z</time></trkpt><trkpt lat="42.750992451624796" lon="10.37406116255662"><ele>34.0</ele><time>2026-04-19T14:43:10.938Z</time></trkpt><trkpt lat="42.75107002677125" lon="10.37401228689503"><ele>31.333333333333336</ele><time>2026-04-19T14:43:11.938Z</time></trkpt><trkpt lat="42.75115086708746" lon="10.37397239412781"><ele>28.666666666666664</ele><time>2026-04-19T14:43:12.938Z</time></trkpt><trkpt lat="42.75123919090318" lon="10.373907657563999"><ele>26.0</ele><time>2026-04-19T14:43:13.938Z</time></trkpt><trkpt lat="42.75591355505754" lon="10.374854099401723"><ele>22.666666666666664</ele><time>2026-04-19T14:44:14.936Z</time></trkpt><trkpt lat="42.7560056754335" lon="10.374900140450574"><ele>19.333333333333332</ele><time>2026-04-19T14:44:16.936Z</time></trkpt><trkpt lat="42.75606585067476" lon="10.374850502585964"><ele>16.0</ele><time>2026-04-19T14:44:17.936Z</time></trkpt><trkpt lat="42.75612840692857" lon="10.374823792146076"><ele>12.666666666666666</ele><time>2026-04-19T14:44:18.936Z</time></trkpt><trkpt lat="42.7561980220312" lon="10.374785027785322"><ele>9.333333333333332</ele><time>2026-04-19T14:44:19.936Z</time></trkpt><trkpt lat="42.75626217595013" lon="10.374767060118433"><ele>6.0</ele><time>2026-04-19T14:44:20.936Z</time></trkpt><trkpt lat="42.75633733734161" lon="10.374764654398271"><ele>5.2</ele><time>2026-04-19T14:44:21.936Z</time></trkpt><trkpt lat="42.756423559541155" lon="10.374762668479372"><ele>4.3999999999999995</ele><time>2026-04-19T14:44:22.936Z</time></trkpt><trkpt lat="42.75651744892924" lon="10.374794797483867"><ele>3.6</ele><time>2026-04-19T14:44:23.936Z</time></trkpt><trkpt lat="42.7566119748369" lon="10.374807247906654"><ele>2.8</ele><time>2026-04-19T14:44:24.936Z</time></trkpt><trkpt lat="42.75670381623272" lon="10.374806479022174"><ele>2.0</ele><time>2026-04-19T14:44:25.936Z</time></trkpt><trkpt lat="42.75678522858272" lon="10.374793722917905"><ele>1.9999999999999998</ele><time>2026-04-19T14:44:26.936Z</time></trkpt><trkpt lat="42.756865443427614" lon="10.374794868108102"><ele>2.0</ele><time>2026-04-19T14:44:27.936Z</time></trkpt><trkpt lat="42.75694184843597" lon="10.374798243181658"><ele>2.0</ele><time>2026-04-19T14:44:28.936Z</time></trkpt><trkpt lat="42.757018862604525" lon="10.374804771641815"><ele>2.0</ele><time>2026-04-19T14:44:29.936Z</time></trkpt><trkpt lat="42.757084754543165" lon="10.37481812815721"><ele>1.9999999999999998</ele><time>2026-04-19T14:44:30.936Z</time></trkpt><trkpt lat="42.75718466627504" lon="10.374835019156455"><ele>2.0</ele><time>2026-04-19T14:44:32.936Z</time></trkpt><trkpt lat="42.75729150269506" lon="10.374851239496783"><ele>2.0</ele><time>2026-04-19T14:44:34.936Z</time></trkpt><trkpt lat="42.75738745141123" lon="10.37489218249186"><ele>2.0</ele><time>2026-04-19T14:44:36.936Z</time></trkpt><trkpt lat="42.757504973784776" lon="10.374919253077477"><ele>2.0</ele><time>2026-04-19T14:44:38.936Z</time></trkpt><trkpt lat="42.757569091107705" lon="10.374913764647921"><ele>2.0</ele><time>2026-04-19T14:44:39.936Z</time></trkpt><trkpt lat="42.75766202246954" lon="10.374913680825816"><ele>2.0</ele><time>2026-04-19T14:44:41.936Z</time></trkpt><trkpt lat="42.75773987951586" lon="10.37493330246498"><ele>2.1666666666666665</ele><time>2026-04-19T14:44:42.936Z</time></trkpt><trkpt lat="42.757830899379215" lon="10.374914581854178"><ele>2.333333333333333</ele><time>2026-04-19T14:44:43.936Z</time></trkpt><trkpt lat="42.757915977577774" lon="10.374934200679283"><ele>2.5</ele><time>2026-04-19T14:44:44.936Z</time></trkpt><trkpt lat="42.75799321394275" lon="10.37492818403173"><ele>2.6666666666666665</ele><time>2026-04-19T14:44:45.936Z</time></trkpt><trkpt lat="42.75807645696175" lon="10.374919915264888"><ele>2.8333333333333335</ele><time>2026-04-19T14:44:46.936Z</time></trkpt><trkpt lat="42.75815762392354" lon="10.374920312131216"><ele>3.0</ele><time>2026-04-19T14:44:47.936Z</time></trkpt><trkpt lat="42.75823474251509" lon="10.374922997866848"><ele>3.0</ele><time>2026-04-19T14:44:48.936Z</time></trkpt><trkpt lat="42.75831638591825" lon="10.374926241244955"><ele>3.0</ele><time>2026-04-19T14:44:49.936Z</time></trkpt><trkpt lat="42.75840623739392" lon="10.374919320983324"><ele>3.0</ele><time>2026-04-19T14:44:50.936Z</time></trkpt><trkpt lat="42.75849241784223" lon="10.37491725623477"><ele>3.0</ele><time>2026-04-19T14:44:51.936Z</time></trkpt><trkpt lat="42.75856425670746" lon="10.374927190358099"><ele>3.0</ele><time>2026-04-19T14:44:52.936Z</time></trkpt><trkpt lat="42.75863327863691" lon="10.374926402731083"><ele>3.0</ele><time>2026-04-19T14:44:53.936Z</time></trkpt><trkpt lat="42.75874216549113" lon="10.374924968814852"><ele>3.0</ele><time>2026-04-19T14:44:55.936Z</time></trkpt><trkpt lat="42.75880870681417" lon="10.374919776004182"><ele>3.0</ele><time>2026-04-19T14:44:57.936Z</time></trkpt><trkpt lat="42.7589029582796" lon="10.374909507453857"><ele>3.0</ele><time>2026-04-19T14:45:00.936Z</time></trkpt><trkpt lat="42.758966509182386" lon="10.374931753783754"><ele>3.0</ele><time>2026-04-19T14:45:02.936Z</time></trkpt><trkpt lat="42.7589957854011" lon="10.374764274912408"><ele>3.0</ele><time>2026-04-19T14:45:03.936Z</time></trkpt><trkpt lat="42.759022662953164" lon="10.374655444702388"><ele>3.0</ele><time>2026-04-19T14:45:04.936Z</time></trkpt><trkpt lat="42.75905001786446" lon="10.374535095736345"><ele>2.8</ele><time>2026-04-19T14:45:05.936Z</time></trkpt><trkpt lat="42.759072881819854" lon="10.374403195640406"><ele>2.5999999999999996</ele><time>2026-04-19T14:45:06.936Z</time></trkpt><trkpt lat="42.759100034529176" lon="10.374269837541814"><ele>2.4000000000000004</ele><time>2026-04-19T14:45:07.936Z</time></trkpt><trkpt lat="42.75914173361307" lon="10.374108511051055"><ele>2.2</ele><time>2026-04-19T14:45:08.936Z</time></trkpt><trkpt lat="42.759180002703594" lon="10.373949727053763"><ele>2.0</ele><time>2026-04-19T14:45:09.936Z</time></trkpt><trkpt lat="42.759213070881636" lon="10.373785114966438"><ele>1.5</ele><time>2026-04-19T14:45:10.936Z</time></trkpt><trkpt lat="42.7592525058411" lon="10.373606794319393"><ele>1.0</ele><time>2026-04-19T14:45:11.936Z</time></trkpt><trkpt lat="42.75929041625564" lon="10.373421299969433"><ele>0.5</ele><time>2026-04-19T14:45:12.936Z</time></trkpt><trkpt lat="42.75933014051144" lon="10.373225241957611"><ele>0.0</ele><time>2026-04-19T14:45:13.936Z</time></trkpt><trkpt lat="42.76226141698623" lon="10.362177138770285"><ele>3.25</ele><time>2026-04-19T14:46:14.935Z</time></trkpt><trkpt lat="42.762342309876445" lon="10.362035783152121"><ele>6.5</ele><time>2026-04-19T14:46:15.935Z</time></trkpt><trkpt lat="42.76240593071812" lon="10.361870480592271"><ele>9.75</ele><time>2026-04-19T14:46:16.935Z</time></trkpt><trkpt lat="42.762485686769736" lon="10.361709609295566"><ele>13.0</ele><time>2026-04-19T14:46:17.935Z</time></trkpt><trkpt lat="42.762566835555326" lon="10.361549575655713"><ele>13.0</ele><time>2026-04-19T14:46:18.935Z</time></trkpt><trkpt lat="42.76264332833756" lon="10.361395972440764"><ele>13.0</ele><time>2026-04-19T14:46:19.935Z</time></trkpt><trkpt lat="42.76273166788104" lon="10.36124142588289"><ele>13.0</ele><time>2026-04-19T14:46:20.935Z</time></trkpt><trkpt lat="42.76281375033754" lon="10.361077704587272"><ele>13.0</ele><time>2026-04-19T14:46:21.935Z</time></trkpt><trkpt lat="42.76288976694411" lon="10.36092608215027"><ele>13.25</ele><time>2026-04-19T14:46:22.934Z</time></trkpt><trkpt lat="42.762956251738025" lon="10.360762868811804"><ele>13.5</ele><time>2026-04-19T14:46:23.934Z</time></trkpt><trkpt lat="42.76303602615284" lon="10.360616479747558"><ele>13.75</ele><time>2026-04-19T14:46:24.934Z</time></trkpt><trkpt lat="42.76311222062791" lon="10.360469935129018"><ele>14.0</ele><time>2026-04-19T14:46:25.934Z</time></trkpt><trkpt lat="42.76318151861046" lon="10.36033177740974"><ele>14.000000000000002</ele><time>2026-04-19T14:46:26.934Z</time></trkpt><trkpt lat="42.76324400520154" lon="10.360206892127026"><ele>14.0</ele><time>2026-04-19T14:46:27.934Z</time></trkpt><trkpt lat="42.763299436750735" lon="10.360097263851817"><ele>14.0</ele><time>2026-04-19T14:46:28.934Z</time></trkpt><trkpt lat="42.76334414435427" lon="10.36001425029931"><ele>14.0</ele><time>2026-04-19T14:46:29.934Z</time></trkpt><trkpt lat="42.76339519674085" lon="10.35992087527812"><ele>14.000000000000002</ele><time>2026-04-19T14:46:31.934Z</time></trkpt><trkpt lat="42.763442315091375" lon="10.359990975798159"><ele>14.0</ele><time>2026-04-19T14:46:35.934Z</time></trkpt><trkpt lat="42.763289142064785" lon="10.360050872805711"><ele>14.0</ele><time>2026-04-19T14:46:37.934Z</time></trkpt><trkpt lat="42.763228704586524" lon="10.360170541434423"><ele>13.999999999999998</ele><time>2026-04-19T14:46:38.934Z</time></trkpt><trkpt lat="42.763158274711806" lon="10.360309994004892"><ele>13.999999999999998</ele><time>2026-04-19T14:46:39.934Z</time></trkpt><trkpt lat="42.763096391625375" lon="10.360432523761443"><ele>14.0</ele><time>2026-04-19T14:46:40.934Z</time></trkpt><trkpt lat="42.763039816230766" lon="10.360544544178723"><ele>14.0</ele><time>2026-04-19T14:46:41.934Z</time></trkpt><trkpt lat="42.76311613475125" lon="10.360742630115453"><ele>14.666666666666668</ele><time>2026-04-19T14:46:42.934Z</time></trkpt><trkpt lat="42.76314037988969" lon="10.360838390447997"><ele>15.333333333333334</ele><time>2026-04-19T14:46:43.934Z</time></trkpt><trkpt lat="42.76319097598573" lon="10.360933390908691"><ele>16.0</ele><time>2026-04-19T14:46:44.934Z</time></trkpt><trkpt lat="42.763255457035754" lon="10.36101229050986"><ele>16.666666666666668</ele><time>2026-04-19T14:46:45.934Z</time></trkpt><trkpt lat="42.7633362827296" lon="10.361088032858186"><ele>17.333333333333332</ele><time>2026-04-19T14:46:46.934Z</time></trkpt><trkpt lat="42.76342030885694" lon="10.36112070823889"><ele>18.0</ele><time>2026-04-19T14:46:47.934Z</time></trkpt><trkpt lat="42.76353729629132" lon="10.361115841442047"><ele>20.5</ele><time>2026-04-19T14:46:49.934Z</time></trkpt><trkpt lat="42.76359994070418" lon="10.36114402504004"><ele>23.0</ele><time>2026-04-19T14:46:50.934Z</time></trkpt><trkpt lat="42.76370386962002" lon="10.361230610678415"><ele>25.5</ele><time>2026-04-19T14:46:52.934Z</time></trkpt><trkpt lat="42.76377263608854" lon="10.361270588489383"><ele>28.0</ele><time>2026-04-19T14:46:54.934Z</time></trkpt><trkpt lat="42.76383061396316" lon="10.361232803621004"><ele>30.5</ele><time>2026-04-19T14:46:57.934Z</time></trkpt><trkpt lat="42.763918077361524" lon="10.3612414914883"><ele>33.0</ele><time>2026-04-19T14:46:59.934Z</time></trkpt><trkpt lat="42.76398666751897" lon="10.361319975737219"><ele>33.0</ele><time>2026-04-19T14:47:01.935Z</time></trkpt><trkpt lat="42.76404910667684" lon="10.361301003479072"><ele>33.0</ele><time>2026-04-19T14:47:03.934Z</time></trkpt><trkpt lat="42.76407504576229" lon="10.361207647567571"><ele>33.0</ele><time>2026-04-19T14:47:05.935Z</time></trkpt></trkseg></trk></gpx>